<?xml version="1.0" encoding="UTF-8"?>
<gpx version="1.1" creator="https://www.youtrack.es" xsi:schemaLocation="http://www.topografix.com/GPX/1/1 http://www.topografix.com/GPX/1/1/gpx.xsd http://www.garmin.com/xmlschemas/GpxExtensions/v3 http://www.garmin.com/xmlschemas/GpxExtensionsv3.xsd http://www.garmin.com/xmlschemas/TrackPointExtension/v1 http://www.garmin.com/xmlschemas/TrackPointExtensionv1.xsd" xmlns:gpxtpx="http://www.garmin.com/xmlschemas/TrackPointExtension/v1" xmlns:gpxx="http://www.garmin.com/xmlschemas/GpxExtensions/v3" xmlns:xsi="http://www.w3.org/2001/XMLSchema-instance">
  <metadata>
    <link href="https://www.youtrack.es">
      <text>YouTrack.es</text>
    </link>
    <time>2026-05-08T16:51:14Z</time>
  </metadata>
  <trk>
    <src>https://www.youtrack.es</src>
    <link href="https://www.youtrack.es/ruta/18810-ai-car-marathon-vallada-2021">
      <text>YouTrack.es</text>
    </link>
    <trkseg>
      <trkpt lat="38.8962580" lon="-0.6902060">
        <ele>307.8</ele>
        <time>2019-01-05T08:05:32Z</time>
      </trkpt>
      <trkpt lat="38.8962290" lon="-0.6901970">
        <ele>307.8</ele>
        <time>2019-01-05T08:05:33Z</time>
      </trkpt>
      <trkpt lat="38.8961970" lon="-0.6901990">
        <ele>308.0</ele>
        <time>2019-01-05T08:05:35Z</time>
      </trkpt>
      <trkpt lat="38.8961880" lon="-0.6902020">
        <ele>309.0</ele>
        <time>2019-01-05T08:05:36Z</time>
      </trkpt>
      <trkpt lat="38.8961680" lon="-0.6902060">
        <ele>310.2</ele>
        <time>2019-01-05T08:05:38Z</time>
      </trkpt>
      <trkpt lat="38.8961560" lon="-0.6902040">
        <ele>310.4</ele>
        <time>2019-01-05T08:05:39Z</time>
      </trkpt>
      <trkpt lat="38.8961270" lon="-0.6901990">
        <ele>311.0</ele>
        <time>2019-01-05T08:05:41Z</time>
      </trkpt>
      <trkpt lat="38.8961090" lon="-0.6901980">
        <ele>311.2</ele>
        <time>2019-01-05T08:05:43Z</time>
      </trkpt>
      <trkpt lat="38.8960750" lon="-0.6902080">
        <ele>311.6</ele>
        <time>2019-01-05T08:05:45Z</time>
      </trkpt>
      <trkpt lat="38.8959780" lon="-0.6902210">
        <ele>311.6</ele>
        <time>2019-01-05T08:05:51Z</time>
      </trkpt>
      <trkpt lat="38.8959170" lon="-0.6902320">
        <ele>311.8</ele>
        <time>2019-01-05T08:05:55Z</time>
      </trkpt>
      <trkpt lat="38.8958450" lon="-0.6903030">
        <ele>312.2</ele>
        <time>2019-01-05T08:06:01Z</time>
      </trkpt>
      <trkpt lat="38.8958420" lon="-0.6903180">
        <ele>312.2</ele>
        <time>2019-01-05T08:06:02Z</time>
      </trkpt>
      <trkpt lat="38.8958250" lon="-0.6903280">
        <ele>312.2</ele>
        <time>2019-01-05T08:06:03Z</time>
      </trkpt>
      <trkpt lat="38.8958140" lon="-0.6903570">
        <ele>312.2</ele>
        <time>2019-01-05T08:06:05Z</time>
      </trkpt>
      <trkpt lat="38.8957890" lon="-0.6904170">
        <ele>312.8</ele>
        <time>2019-01-05T08:06:09Z</time>
      </trkpt>
      <trkpt lat="38.8957710" lon="-0.6904450">
        <ele>313.0</ele>
        <time>2019-01-05T08:06:11Z</time>
      </trkpt>
      <trkpt lat="38.8957670" lon="-0.6904620">
        <ele>313.0</ele>
        <time>2019-01-05T08:06:12Z</time>
      </trkpt>
      <trkpt lat="38.8957470" lon="-0.6905490">
        <ele>313.0</ele>
        <time>2019-01-05T08:06:17Z</time>
      </trkpt>
      <trkpt lat="38.8957080" lon="-0.6906210">
        <ele>313.2</ele>
        <time>2019-01-05T08:06:21Z</time>
      </trkpt>
      <trkpt lat="38.8956960" lon="-0.6906290">
        <ele>313.6</ele>
        <time>2019-01-05T08:06:22Z</time>
      </trkpt>
      <trkpt lat="38.8956880" lon="-0.6906360">
        <ele>313.8</ele>
        <time>2019-01-05T08:06:23Z</time>
      </trkpt>
      <trkpt lat="38.8956560" lon="-0.6906490">
        <ele>314.4</ele>
        <time>2019-01-05T08:06:26Z</time>
      </trkpt>
      <trkpt lat="38.8956490" lon="-0.6906490">
        <ele>314.6</ele>
        <time>2019-01-05T08:06:27Z</time>
      </trkpt>
      <trkpt lat="38.8956400" lon="-0.6906540">
        <ele>315.2</ele>
        <time>2019-01-05T08:06:29Z</time>
      </trkpt>
      <trkpt lat="38.8956360" lon="-0.6906540">
        <ele>315.0</ele>
        <time>2019-01-05T08:06:30Z</time>
      </trkpt>
      <trkpt lat="38.8956360" lon="-0.6906940">
        <ele>315.6</ele>
        <time>2019-01-05T08:06:32Z</time>
      </trkpt>
      <trkpt lat="38.8956020" lon="-0.6907020">
        <ele>316.0</ele>
        <time>2019-01-05T08:06:36Z</time>
      </trkpt>
      <trkpt lat="38.8955600" lon="-0.6906980">
        <ele>315.8</ele>
        <time>2019-01-05T08:06:39Z</time>
      </trkpt>
      <trkpt lat="38.8955320" lon="-0.6907030">
        <ele>316.0</ele>
        <time>2019-01-05T08:06:41Z</time>
      </trkpt>
      <trkpt lat="38.8955150" lon="-0.6907340">
        <ele>316.2</ele>
        <time>2019-01-05T08:06:42Z</time>
      </trkpt>
      <trkpt lat="38.8954840" lon="-0.6907310">
        <ele>317.2</ele>
        <time>2019-01-05T08:06:44Z</time>
      </trkpt>
      <trkpt lat="38.8954620" lon="-0.6907270">
        <ele>317.4</ele>
        <time>2019-01-05T08:06:45Z</time>
      </trkpt>
      <trkpt lat="38.8954200" lon="-0.6907180">
        <ele>318.0</ele>
        <time>2019-01-05T08:06:47Z</time>
      </trkpt>
      <trkpt lat="38.8953980" lon="-0.6907130">
        <ele>318.0</ele>
        <time>2019-01-05T08:06:48Z</time>
      </trkpt>
      <trkpt lat="38.8953810" lon="-0.6907050">
        <ele>318.0</ele>
        <time>2019-01-05T08:06:49Z</time>
      </trkpt>
      <trkpt lat="38.8953630" lon="-0.6906980">
        <ele>318.4</ele>
        <time>2019-01-05T08:06:50Z</time>
      </trkpt>
      <trkpt lat="38.8952760" lon="-0.6906440">
        <ele>318.6</ele>
        <time>2019-01-05T08:06:52Z</time>
      </trkpt>
      <trkpt lat="38.8951720" lon="-0.6905880">
        <ele>319.4</ele>
        <time>2019-01-05T08:06:54Z</time>
      </trkpt>
      <trkpt lat="38.8950920" lon="-0.6905610">
        <ele>320.4</ele>
        <time>2019-01-05T08:06:57Z</time>
      </trkpt>
      <trkpt lat="38.8950640" lon="-0.6905490">
        <ele>320.6</ele>
        <time>2019-01-05T08:06:58Z</time>
      </trkpt>
      <trkpt lat="38.8949810" lon="-0.6905030">
        <ele>321.0</ele>
        <time>2019-01-05T08:07:01Z</time>
      </trkpt>
      <trkpt lat="38.8949660" lon="-0.6904970">
        <ele>320.8</ele>
        <time>2019-01-05T08:07:02Z</time>
      </trkpt>
      <trkpt lat="38.8949340" lon="-0.6904990">
        <ele>321.0</ele>
        <time>2019-01-05T08:07:04Z</time>
      </trkpt>
      <trkpt lat="38.8949020" lon="-0.6904920">
        <ele>321.2</ele>
        <time>2019-01-05T08:07:06Z</time>
      </trkpt>
      <trkpt lat="38.8948640" lon="-0.6904640">
        <ele>321.6</ele>
        <time>2019-01-05T08:07:09Z</time>
      </trkpt>
      <trkpt lat="38.8948100" lon="-0.6904040">
        <ele>322.2</ele>
        <time>2019-01-05T08:07:12Z</time>
      </trkpt>
      <trkpt lat="38.8947780" lon="-0.6903970">
        <ele>322.8</ele>
        <time>2019-01-05T08:07:14Z</time>
      </trkpt>
      <trkpt lat="38.8947050" lon="-0.6903770">
        <ele>324.0</ele>
        <time>2019-01-05T08:07:18Z</time>
      </trkpt>
      <trkpt lat="38.8946890" lon="-0.6903740">
        <ele>324.4</ele>
        <time>2019-01-05T08:07:19Z</time>
      </trkpt>
      <trkpt lat="38.8946420" lon="-0.6903550">
        <ele>325.2</ele>
        <time>2019-01-05T08:07:21Z</time>
      </trkpt>
      <trkpt lat="38.8945540" lon="-0.6903300">
        <ele>325.6</ele>
        <time>2019-01-05T08:07:25Z</time>
      </trkpt>
      <trkpt lat="38.8944990" lon="-0.6903190">
        <ele>325.8</ele>
        <time>2019-01-05T08:07:27Z</time>
      </trkpt>
      <trkpt lat="38.8944580" lon="-0.6903110">
        <ele>326.0</ele>
        <time>2019-01-05T08:07:29Z</time>
      </trkpt>
      <trkpt lat="38.8944450" lon="-0.6903180">
        <ele>326.2</ele>
        <time>2019-01-05T08:07:30Z</time>
      </trkpt>
      <trkpt lat="38.8944300" lon="-0.6903110">
        <ele>326.2</ele>
        <time>2019-01-05T08:07:31Z</time>
      </trkpt>
      <trkpt lat="38.8944090" lon="-0.6902960">
        <ele>326.4</ele>
        <time>2019-01-05T08:07:32Z</time>
      </trkpt>
      <trkpt lat="38.8943680" lon="-0.6902720">
        <ele>326.4</ele>
        <time>2019-01-05T08:07:34Z</time>
      </trkpt>
      <trkpt lat="38.8943140" lon="-0.6902270">
        <ele>327.0</ele>
        <time>2019-01-05T08:07:37Z</time>
      </trkpt>
      <trkpt lat="38.8942720" lon="-0.6902200">
        <ele>327.8</ele>
        <time>2019-01-05T08:07:39Z</time>
      </trkpt>
      <trkpt lat="38.8942310" lon="-0.6902000">
        <ele>328.2</ele>
        <time>2019-01-05T08:07:40Z</time>
      </trkpt>
      <trkpt lat="38.8941160" lon="-0.6901740">
        <ele>328.8</ele>
        <time>2019-01-05T08:07:44Z</time>
      </trkpt>
      <trkpt lat="38.8939940" lon="-0.6901240">
        <ele>329.4</ele>
        <time>2019-01-05T08:07:47Z</time>
      </trkpt>
      <trkpt lat="38.8939770" lon="-0.6901230">
        <ele>329.4</ele>
        <time>2019-01-05T08:07:48Z</time>
      </trkpt>
      <trkpt lat="38.8939270" lon="-0.6900140">
        <ele>329.6</ele>
        <time>2019-01-05T08:07:51Z</time>
      </trkpt>
      <trkpt lat="38.8938380" lon="-0.6898210">
        <ele>329.8</ele>
        <time>2019-01-05T08:07:56Z</time>
      </trkpt>
      <trkpt lat="38.8938010" lon="-0.6897570">
        <ele>330.4</ele>
        <time>2019-01-05T08:07:58Z</time>
      </trkpt>
      <trkpt lat="38.8937300" lon="-0.6896200">
        <ele>331.4</ele>
        <time>2019-01-05T08:08:03Z</time>
      </trkpt>
      <trkpt lat="38.8936690" lon="-0.6894950">
        <ele>332.0</ele>
        <time>2019-01-05T08:08:08Z</time>
      </trkpt>
      <trkpt lat="38.8936400" lon="-0.6894410">
        <ele>332.0</ele>
        <time>2019-01-05T08:08:10Z</time>
      </trkpt>
      <trkpt lat="38.8936010" lon="-0.6893680">
        <ele>332.4</ele>
        <time>2019-01-05T08:08:13Z</time>
      </trkpt>
      <trkpt lat="38.8935560" lon="-0.6893010">
        <ele>332.6</ele>
        <time>2019-01-05T08:08:16Z</time>
      </trkpt>
      <trkpt lat="38.8934800" lon="-0.6891690">
        <ele>333.0</ele>
        <time>2019-01-05T08:08:22Z</time>
      </trkpt>
      <trkpt lat="38.8934050" lon="-0.6890540">
        <ele>333.6</ele>
        <time>2019-01-05T08:08:27Z</time>
      </trkpt>
      <trkpt lat="38.8933560" lon="-0.6889730">
        <ele>334.4</ele>
        <time>2019-01-05T08:08:30Z</time>
      </trkpt>
      <trkpt lat="38.8932320" lon="-0.6888420">
        <ele>334.8</ele>
        <time>2019-01-05T08:08:36Z</time>
      </trkpt>
      <trkpt lat="38.8931820" lon="-0.6887980">
        <ele>335.0</ele>
        <time>2019-01-05T08:08:38Z</time>
      </trkpt>
      <trkpt lat="38.8930880" lon="-0.6887060">
        <ele>334.8</ele>
        <time>2019-01-05T08:08:42Z</time>
      </trkpt>
      <trkpt lat="38.8930320" lon="-0.6886340">
        <ele>334.4</ele>
        <time>2019-01-05T08:08:45Z</time>
      </trkpt>
      <trkpt lat="38.8929930" lon="-0.6885870">
        <ele>334.4</ele>
        <time>2019-01-05T08:08:47Z</time>
      </trkpt>
      <trkpt lat="38.8929720" lon="-0.6885640">
        <ele>334.4</ele>
        <time>2019-01-05T08:08:48Z</time>
      </trkpt>
      <trkpt lat="38.8928780" lon="-0.6884500">
        <ele>334.6</ele>
        <time>2019-01-05T08:08:53Z</time>
      </trkpt>
      <trkpt lat="38.8927580" lon="-0.6882740">
        <ele>334.4</ele>
        <time>2019-01-05T08:09:00Z</time>
      </trkpt>
      <trkpt lat="38.8927480" lon="-0.6882490">
        <ele>334.4</ele>
        <time>2019-01-05T08:09:01Z</time>
      </trkpt>
      <trkpt lat="38.8926670" lon="-0.6881180">
        <ele>334.4</ele>
        <time>2019-01-05T08:09:06Z</time>
      </trkpt>
      <trkpt lat="38.8925330" lon="-0.6879630">
        <ele>334.6</ele>
        <time>2019-01-05T08:09:13Z</time>
      </trkpt>
      <trkpt lat="38.8924020" lon="-0.6878420">
        <ele>333.8</ele>
        <time>2019-01-05T08:09:19Z</time>
      </trkpt>
      <trkpt lat="38.8923640" lon="-0.6877950">
        <ele>333.6</ele>
        <time>2019-01-05T08:09:21Z</time>
      </trkpt>
      <trkpt lat="38.8923040" lon="-0.6877390">
        <ele>333.6</ele>
        <time>2019-01-05T08:09:24Z</time>
      </trkpt>
      <trkpt lat="38.8921390" lon="-0.6876480">
        <ele>333.2</ele>
        <time>2019-01-05T08:09:31Z</time>
      </trkpt>
      <trkpt lat="38.8920250" lon="-0.6875730">
        <ele>332.8</ele>
        <time>2019-01-05T08:09:36Z</time>
      </trkpt>
      <trkpt lat="38.8920030" lon="-0.6875570">
        <ele>332.6</ele>
        <time>2019-01-05T08:09:37Z</time>
      </trkpt>
      <trkpt lat="38.8919270" lon="-0.6875050">
        <ele>332.2</ele>
        <time>2019-01-05T08:09:40Z</time>
      </trkpt>
      <trkpt lat="38.8918850" lon="-0.6874680">
        <ele>332.2</ele>
        <time>2019-01-05T08:09:42Z</time>
      </trkpt>
      <trkpt lat="38.8918000" lon="-0.6873820">
        <ele>332.0</ele>
        <time>2019-01-05T08:09:46Z</time>
      </trkpt>
      <trkpt lat="38.8917740" lon="-0.6873650">
        <ele>332.0</ele>
        <time>2019-01-05T08:09:47Z</time>
      </trkpt>
      <trkpt lat="38.8916520" lon="-0.6872780">
        <ele>332.0</ele>
        <time>2019-01-05T08:09:52Z</time>
      </trkpt>
      <trkpt lat="38.8916120" lon="-0.6872410">
        <ele>331.6</ele>
        <time>2019-01-05T08:09:54Z</time>
      </trkpt>
      <trkpt lat="38.8915600" lon="-0.6872020">
        <ele>331.4</ele>
        <time>2019-01-05T08:09:56Z</time>
      </trkpt>
      <trkpt lat="38.8914640" lon="-0.6871310">
        <ele>331.2</ele>
        <time>2019-01-05T08:10:00Z</time>
      </trkpt>
      <trkpt lat="38.8914120" lon="-0.6870630">
        <ele>331.2</ele>
        <time>2019-01-05T08:10:03Z</time>
      </trkpt>
      <trkpt lat="38.8913570" lon="-0.6869930">
        <ele>331.0</ele>
        <time>2019-01-05T08:10:06Z</time>
      </trkpt>
      <trkpt lat="38.8912850" lon="-0.6869010">
        <ele>330.6</ele>
        <time>2019-01-05T08:10:10Z</time>
      </trkpt>
      <trkpt lat="38.8912320" lon="-0.6868560">
        <ele>330.4</ele>
        <time>2019-01-05T08:10:12Z</time>
      </trkpt>
      <trkpt lat="38.8911270" lon="-0.6867610">
        <ele>329.0</ele>
        <time>2019-01-05T08:10:17Z</time>
      </trkpt>
      <trkpt lat="38.8911000" lon="-0.6867480">
        <ele>328.8</ele>
        <time>2019-01-05T08:10:18Z</time>
      </trkpt>
      <trkpt lat="38.8910170" lon="-0.6867010">
        <ele>328.0</ele>
        <time>2019-01-05T08:10:22Z</time>
      </trkpt>
      <trkpt lat="38.8909940" lon="-0.6866870">
        <ele>327.8</ele>
        <time>2019-01-05T08:10:23Z</time>
      </trkpt>
      <trkpt lat="38.8909280" lon="-0.6866160">
        <ele>326.8</ele>
        <time>2019-01-05T08:10:27Z</time>
      </trkpt>
      <trkpt lat="38.8909050" lon="-0.6865720">
        <ele>326.0</ele>
        <time>2019-01-05T08:10:29Z</time>
      </trkpt>
      <trkpt lat="38.8908960" lon="-0.6865350">
        <ele>325.6</ele>
        <time>2019-01-05T08:10:31Z</time>
      </trkpt>
      <trkpt lat="38.8908880" lon="-0.6865170">
        <ele>325.4</ele>
        <time>2019-01-05T08:10:34Z</time>
      </trkpt>
      <trkpt lat="38.8908900" lon="-0.6865040">
        <ele>324.8</ele>
        <time>2019-01-05T08:10:35Z</time>
      </trkpt>
      <trkpt lat="38.8908860" lon="-0.6864940">
        <ele>324.4</ele>
        <time>2019-01-05T08:10:36Z</time>
      </trkpt>
      <trkpt lat="38.8908760" lon="-0.6864650">
        <ele>323.4</ele>
        <time>2019-01-05T08:10:38Z</time>
      </trkpt>
      <trkpt lat="38.8908680" lon="-0.6864490">
        <ele>323.2</ele>
        <time>2019-01-05T08:10:39Z</time>
      </trkpt>
      <trkpt lat="38.8908430" lon="-0.6863360">
        <ele>323.0</ele>
        <time>2019-01-05T08:10:43Z</time>
      </trkpt>
      <trkpt lat="38.8908290" lon="-0.6862150">
        <ele>323.2</ele>
        <time>2019-01-05T08:10:48Z</time>
      </trkpt>
      <trkpt lat="38.8908090" lon="-0.6861710">
        <ele>323.2</ele>
        <time>2019-01-05T08:10:51Z</time>
      </trkpt>
      <trkpt lat="38.8907940" lon="-0.6861020">
        <ele>323.4</ele>
        <time>2019-01-05T08:10:53Z</time>
      </trkpt>
      <trkpt lat="38.8907470" lon="-0.6860100">
        <ele>324.2</ele>
        <time>2019-01-05T08:10:57Z</time>
      </trkpt>
      <trkpt lat="38.8907360" lon="-0.6860010">
        <ele>324.4</ele>
        <time>2019-01-05T08:10:58Z</time>
      </trkpt>
      <trkpt lat="38.8906760" lon="-0.6859700">
        <ele>325.6</ele>
        <time>2019-01-05T08:11:02Z</time>
      </trkpt>
      <trkpt lat="38.8906670" lon="-0.6859570">
        <ele>325.8</ele>
        <time>2019-01-05T08:11:03Z</time>
      </trkpt>
      <trkpt lat="38.8906410" lon="-0.6859350">
        <ele>326.6</ele>
        <time>2019-01-05T08:11:06Z</time>
      </trkpt>
      <trkpt lat="38.8906340" lon="-0.6859120">
        <ele>327.0</ele>
        <time>2019-01-05T08:11:08Z</time>
      </trkpt>
      <trkpt lat="38.8906340" lon="-0.6858960">
        <ele>327.2</ele>
        <time>2019-01-05T08:11:09Z</time>
      </trkpt>
      <trkpt lat="38.8906300" lon="-0.6858440">
        <ele>327.8</ele>
        <time>2019-01-05T08:11:13Z</time>
      </trkpt>
      <trkpt lat="38.8906110" lon="-0.6858270">
        <ele>328.0</ele>
        <time>2019-01-05T08:11:15Z</time>
      </trkpt>
      <trkpt lat="38.8905850" lon="-0.6857940">
        <ele>328.6</ele>
        <time>2019-01-05T08:11:18Z</time>
      </trkpt>
      <trkpt lat="38.8905890" lon="-0.6857820">
        <ele>329.0</ele>
        <time>2019-01-05T08:11:19Z</time>
      </trkpt>
      <trkpt lat="38.8905960" lon="-0.6857650">
        <ele>329.6</ele>
        <time>2019-01-05T08:11:20Z</time>
      </trkpt>
      <trkpt lat="38.8905970" lon="-0.6857490">
        <ele>329.8</ele>
        <time>2019-01-05T08:11:21Z</time>
      </trkpt>
      <trkpt lat="38.8905910" lon="-0.6857330">
        <ele>330.2</ele>
        <time>2019-01-05T08:11:22Z</time>
      </trkpt>
      <trkpt lat="38.8905700" lon="-0.6857100">
        <ele>330.8</ele>
        <time>2019-01-05T08:11:24Z</time>
      </trkpt>
      <trkpt lat="38.8905270" lon="-0.6856660">
        <ele>331.4</ele>
        <time>2019-01-05T08:11:28Z</time>
      </trkpt>
      <trkpt lat="38.8905140" lon="-0.6856540">
        <ele>331.6</ele>
        <time>2019-01-05T08:11:29Z</time>
      </trkpt>
      <trkpt lat="38.8904950" lon="-0.6856330">
        <ele>332.4</ele>
        <time>2019-01-05T08:11:31Z</time>
      </trkpt>
      <trkpt lat="38.8904730" lon="-0.6855980">
        <ele>333.4</ele>
        <time>2019-01-05T08:11:34Z</time>
      </trkpt>
      <trkpt lat="38.8904260" lon="-0.6855530">
        <ele>333.8</ele>
        <time>2019-01-05T08:11:38Z</time>
      </trkpt>
      <trkpt lat="38.8903770" lon="-0.6855050">
        <ele>334.6</ele>
        <time>2019-01-05T08:11:43Z</time>
      </trkpt>
      <trkpt lat="38.8903630" lon="-0.6854820">
        <ele>335.0</ele>
        <time>2019-01-05T08:11:45Z</time>
      </trkpt>
      <trkpt lat="38.8903420" lon="-0.6854520">
        <ele>335.8</ele>
        <time>2019-01-05T08:11:48Z</time>
      </trkpt>
      <trkpt lat="38.8903270" lon="-0.6854440">
        <ele>336.8</ele>
        <time>2019-01-05T08:11:50Z</time>
      </trkpt>
      <trkpt lat="38.8903170" lon="-0.6854380">
        <ele>337.2</ele>
        <time>2019-01-05T08:11:51Z</time>
      </trkpt>
      <trkpt lat="38.8903130" lon="-0.6854260">
        <ele>337.4</ele>
        <time>2019-01-05T08:11:52Z</time>
      </trkpt>
      <trkpt lat="38.8902860" lon="-0.6853910">
        <ele>337.8</ele>
        <time>2019-01-05T08:11:55Z</time>
      </trkpt>
      <trkpt lat="38.8902780" lon="-0.6853730">
        <ele>338.0</ele>
        <time>2019-01-05T08:11:57Z</time>
      </trkpt>
      <trkpt lat="38.8902740" lon="-0.6853620">
        <ele>338.4</ele>
        <time>2019-01-05T08:11:58Z</time>
      </trkpt>
      <trkpt lat="38.8902640" lon="-0.6853280">
        <ele>338.6</ele>
        <time>2019-01-05T08:12:00Z</time>
      </trkpt>
      <trkpt lat="38.8902530" lon="-0.6852910">
        <ele>338.8</ele>
        <time>2019-01-05T08:12:02Z</time>
      </trkpt>
      <trkpt lat="38.8902500" lon="-0.6852730">
        <ele>339.0</ele>
        <time>2019-01-05T08:12:03Z</time>
      </trkpt>
      <trkpt lat="38.8902380" lon="-0.6852210">
        <ele>339.6</ele>
        <time>2019-01-05T08:12:06Z</time>
      </trkpt>
      <trkpt lat="38.8902320" lon="-0.6851660">
        <ele>340.0</ele>
        <time>2019-01-05T08:12:09Z</time>
      </trkpt>
      <trkpt lat="38.8902110" lon="-0.6851080">
        <ele>341.2</ele>
        <time>2019-01-05T08:12:13Z</time>
      </trkpt>
      <trkpt lat="38.8901970" lon="-0.6850830">
        <ele>341.8</ele>
        <time>2019-01-05T08:12:15Z</time>
      </trkpt>
      <trkpt lat="38.8901930" lon="-0.6850710">
        <ele>342.0</ele>
        <time>2019-01-05T08:12:16Z</time>
      </trkpt>
      <trkpt lat="38.8901860" lon="-0.6850580">
        <ele>342.6</ele>
        <time>2019-01-05T08:12:17Z</time>
      </trkpt>
      <trkpt lat="38.8901750" lon="-0.6850270">
        <ele>343.0</ele>
        <time>2019-01-05T08:12:19Z</time>
      </trkpt>
      <trkpt lat="38.8901450" lon="-0.6849930">
        <ele>343.4</ele>
        <time>2019-01-05T08:12:22Z</time>
      </trkpt>
      <trkpt lat="38.8901240" lon="-0.6849530">
        <ele>343.8</ele>
        <time>2019-01-05T08:12:25Z</time>
      </trkpt>
      <trkpt lat="38.8900960" lon="-0.6848980">
        <ele>344.4</ele>
        <time>2019-01-05T08:12:29Z</time>
      </trkpt>
      <trkpt lat="38.8900640" lon="-0.6848660">
        <ele>345.0</ele>
        <time>2019-01-05T08:12:32Z</time>
      </trkpt>
      <trkpt lat="38.8900340" lon="-0.6848330">
        <ele>345.8</ele>
        <time>2019-01-05T08:12:35Z</time>
      </trkpt>
      <trkpt lat="38.8900130" lon="-0.6848000">
        <ele>346.2</ele>
        <time>2019-01-05T08:12:38Z</time>
      </trkpt>
      <trkpt lat="38.8900000" lon="-0.6847730">
        <ele>346.8</ele>
        <time>2019-01-05T08:12:41Z</time>
      </trkpt>
      <trkpt lat="38.8899900" lon="-0.6847500">
        <ele>347.2</ele>
        <time>2019-01-05T08:12:43Z</time>
      </trkpt>
      <trkpt lat="38.8899680" lon="-0.6846800">
        <ele>348.2</ele>
        <time>2019-01-05T08:12:48Z</time>
      </trkpt>
      <trkpt lat="38.8899680" lon="-0.6846660">
        <ele>348.2</ele>
        <time>2019-01-05T08:12:49Z</time>
      </trkpt>
      <trkpt lat="38.8899640" lon="-0.6846550">
        <ele>348.6</ele>
        <time>2019-01-05T08:12:50Z</time>
      </trkpt>
      <trkpt lat="38.8899230" lon="-0.6846070">
        <ele>349.6</ele>
        <time>2019-01-05T08:12:54Z</time>
      </trkpt>
      <trkpt lat="38.8898920" lon="-0.6845320">
        <ele>350.6</ele>
        <time>2019-01-05T08:13:00Z</time>
      </trkpt>
      <trkpt lat="38.8898840" lon="-0.6845190">
        <ele>350.8</ele>
        <time>2019-01-05T08:13:01Z</time>
      </trkpt>
      <trkpt lat="38.8898780" lon="-0.6845050">
        <ele>350.8</ele>
        <time>2019-01-05T08:13:02Z</time>
      </trkpt>
      <trkpt lat="38.8898420" lon="-0.6844620">
        <ele>351.4</ele>
        <time>2019-01-05T08:13:06Z</time>
      </trkpt>
      <trkpt lat="38.8898190" lon="-0.6844220">
        <ele>351.8</ele>
        <time>2019-01-05T08:13:09Z</time>
      </trkpt>
      <trkpt lat="38.8898150" lon="-0.6843840">
        <ele>352.4</ele>
        <time>2019-01-05T08:13:11Z</time>
      </trkpt>
      <trkpt lat="38.8898200" lon="-0.6843620">
        <ele>353.0</ele>
        <time>2019-01-05T08:13:12Z</time>
      </trkpt>
      <trkpt lat="38.8898280" lon="-0.6842610">
        <ele>354.0</ele>
        <time>2019-01-05T08:13:17Z</time>
      </trkpt>
      <trkpt lat="38.8898280" lon="-0.6842500">
        <ele>354.0</ele>
        <time>2019-01-05T08:13:18Z</time>
      </trkpt>
      <trkpt lat="38.8898370" lon="-0.6842090">
        <ele>354.8</ele>
        <time>2019-01-05T08:13:22Z</time>
      </trkpt>
      <trkpt lat="38.8898440" lon="-0.6841970">
        <ele>355.0</ele>
        <time>2019-01-05T08:13:23Z</time>
      </trkpt>
      <trkpt lat="38.8898410" lon="-0.6841890">
        <ele>355.0</ele>
        <time>2019-01-05T08:13:24Z</time>
      </trkpt>
      <trkpt lat="38.8898080" lon="-0.6841340">
        <ele>356.4</ele>
        <time>2019-01-05T08:13:29Z</time>
      </trkpt>
      <trkpt lat="38.8897950" lon="-0.6841060">
        <ele>356.6</ele>
        <time>2019-01-05T08:13:31Z</time>
      </trkpt>
      <trkpt lat="38.8897760" lon="-0.6840650">
        <ele>356.2</ele>
        <time>2019-01-05T08:13:34Z</time>
      </trkpt>
      <trkpt lat="38.8897880" lon="-0.6840250">
        <ele>356.2</ele>
        <time>2019-01-05T08:13:36Z</time>
      </trkpt>
      <trkpt lat="38.8898030" lon="-0.6839540">
        <ele>357.6</ele>
        <time>2019-01-05T08:13:39Z</time>
      </trkpt>
      <trkpt lat="38.8898380" lon="-0.6839050">
        <ele>358.8</ele>
        <time>2019-01-05T08:13:42Z</time>
      </trkpt>
      <trkpt lat="38.8899020" lon="-0.6838620">
        <ele>359.2</ele>
        <time>2019-01-05T08:13:47Z</time>
      </trkpt>
      <trkpt lat="38.8899110" lon="-0.6838520">
        <ele>359.8</ele>
        <time>2019-01-05T08:13:48Z</time>
      </trkpt>
      <trkpt lat="38.8899620" lon="-0.6837920">
        <ele>360.8</ele>
        <time>2019-01-05T08:13:52Z</time>
      </trkpt>
      <trkpt lat="38.8899750" lon="-0.6837780">
        <ele>360.8</ele>
        <time>2019-01-05T08:13:53Z</time>
      </trkpt>
      <trkpt lat="38.8899930" lon="-0.6837670">
        <ele>361.0</ele>
        <time>2019-01-05T08:13:55Z</time>
      </trkpt>
      <trkpt lat="38.8900200" lon="-0.6837720">
        <ele>361.2</ele>
        <time>2019-01-05T08:13:57Z</time>
      </trkpt>
      <trkpt lat="38.8900390" lon="-0.6837870">
        <ele>361.4</ele>
        <time>2019-01-05T08:13:58Z</time>
      </trkpt>
      <trkpt lat="38.8900660" lon="-0.6837930">
        <ele>362.2</ele>
        <time>2019-01-05T08:14:00Z</time>
      </trkpt>
      <trkpt lat="38.8900790" lon="-0.6837840">
        <ele>362.6</ele>
        <time>2019-01-05T08:14:01Z</time>
      </trkpt>
      <trkpt lat="38.8901000" lon="-0.6837600">
        <ele>363.2</ele>
        <time>2019-01-05T08:14:03Z</time>
      </trkpt>
      <trkpt lat="38.8901310" lon="-0.6837120">
        <ele>363.4</ele>
        <time>2019-01-05T08:14:07Z</time>
      </trkpt>
      <trkpt lat="38.8901670" lon="-0.6837030">
        <ele>363.8</ele>
        <time>2019-01-05T08:14:10Z</time>
      </trkpt>
      <trkpt lat="38.8901850" lon="-0.6836990">
        <ele>364.2</ele>
        <time>2019-01-05T08:14:12Z</time>
      </trkpt>
      <trkpt lat="38.8901950" lon="-0.6836890">
        <ele>364.4</ele>
        <time>2019-01-05T08:14:13Z</time>
      </trkpt>
      <trkpt lat="38.8902370" lon="-0.6836430">
        <ele>365.6</ele>
        <time>2019-01-05T08:14:16Z</time>
      </trkpt>
      <trkpt lat="38.8902850" lon="-0.6835700">
        <ele>366.4</ele>
        <time>2019-01-05T08:14:20Z</time>
      </trkpt>
      <trkpt lat="38.8902960" lon="-0.6835640">
        <ele>366.6</ele>
        <time>2019-01-05T08:14:21Z</time>
      </trkpt>
      <trkpt lat="38.8903590" lon="-0.6835610">
        <ele>367.4</ele>
        <time>2019-01-05T08:14:26Z</time>
      </trkpt>
      <trkpt lat="38.8903690" lon="-0.6835630">
        <ele>367.8</ele>
        <time>2019-01-05T08:14:27Z</time>
      </trkpt>
      <trkpt lat="38.8903880" lon="-0.6835430">
        <ele>368.8</ele>
        <time>2019-01-05T08:14:30Z</time>
      </trkpt>
      <trkpt lat="38.8903890" lon="-0.6835280">
        <ele>368.8</ele>
        <time>2019-01-05T08:14:31Z</time>
      </trkpt>
      <trkpt lat="38.8903880" lon="-0.6835020">
        <ele>369.0</ele>
        <time>2019-01-05T08:14:33Z</time>
      </trkpt>
      <trkpt lat="38.8904010" lon="-0.6834780">
        <ele>369.6</ele>
        <time>2019-01-05T08:14:36Z</time>
      </trkpt>
      <trkpt lat="38.8904100" lon="-0.6834690">
        <ele>369.8</ele>
        <time>2019-01-05T08:14:37Z</time>
      </trkpt>
      <trkpt lat="38.8904210" lon="-0.6834590">
        <ele>370.2</ele>
        <time>2019-01-05T08:14:38Z</time>
      </trkpt>
      <trkpt lat="38.8904530" lon="-0.6834210">
        <ele>371.2</ele>
        <time>2019-01-05T08:14:41Z</time>
      </trkpt>
      <trkpt lat="38.8904800" lon="-0.6833990">
        <ele>371.4</ele>
        <time>2019-01-05T08:14:43Z</time>
      </trkpt>
      <trkpt lat="38.8905090" lon="-0.6833780">
        <ele>371.6</ele>
        <time>2019-01-05T08:14:45Z</time>
      </trkpt>
      <trkpt lat="38.8905280" lon="-0.6833330">
        <ele>372.2</ele>
        <time>2019-01-05T08:14:48Z</time>
      </trkpt>
      <trkpt lat="38.8905260" lon="-0.6832910">
        <ele>373.0</ele>
        <time>2019-01-05T08:14:51Z</time>
      </trkpt>
      <trkpt lat="38.8905280" lon="-0.6832810">
        <ele>373.4</ele>
        <time>2019-01-05T08:14:52Z</time>
      </trkpt>
      <trkpt lat="38.8905370" lon="-0.6832710">
        <ele>373.8</ele>
        <time>2019-01-05T08:14:53Z</time>
      </trkpt>
      <trkpt lat="38.8905670" lon="-0.6832230">
        <ele>374.4</ele>
        <time>2019-01-05T08:14:56Z</time>
      </trkpt>
      <trkpt lat="38.8905970" lon="-0.6831930">
        <ele>375.2</ele>
        <time>2019-01-05T08:14:58Z</time>
      </trkpt>
      <trkpt lat="38.8906100" lon="-0.6831750">
        <ele>375.4</ele>
        <time>2019-01-05T08:14:59Z</time>
      </trkpt>
      <trkpt lat="38.8906340" lon="-0.6831150">
        <ele>376.0</ele>
        <time>2019-01-05T08:15:02Z</time>
      </trkpt>
      <trkpt lat="38.8906410" lon="-0.6830830">
        <ele>376.6</ele>
        <time>2019-01-05T08:15:04Z</time>
      </trkpt>
      <trkpt lat="38.8906500" lon="-0.6830350">
        <ele>376.6</ele>
        <time>2019-01-05T08:15:08Z</time>
      </trkpt>
      <trkpt lat="38.8906550" lon="-0.6830130">
        <ele>376.8</ele>
        <time>2019-01-05T08:15:10Z</time>
      </trkpt>
      <trkpt lat="38.8906790" lon="-0.6829740">
        <ele>377.0</ele>
        <time>2019-01-05T08:15:13Z</time>
      </trkpt>
      <trkpt lat="38.8906860" lon="-0.6829620">
        <ele>377.0</ele>
        <time>2019-01-05T08:15:14Z</time>
      </trkpt>
      <trkpt lat="38.8907050" lon="-0.6829340">
        <ele>377.8</ele>
        <time>2019-01-05T08:15:17Z</time>
      </trkpt>
      <trkpt lat="38.8907140" lon="-0.6829240">
        <ele>378.0</ele>
        <time>2019-01-05T08:15:18Z</time>
      </trkpt>
      <trkpt lat="38.8907220" lon="-0.6829120">
        <ele>378.2</ele>
        <time>2019-01-05T08:15:19Z</time>
      </trkpt>
      <trkpt lat="38.8907380" lon="-0.6828700">
        <ele>378.4</ele>
        <time>2019-01-05T08:15:21Z</time>
      </trkpt>
      <trkpt lat="38.8907690" lon="-0.6828130">
        <ele>378.0</ele>
        <time>2019-01-05T08:15:23Z</time>
      </trkpt>
      <trkpt lat="38.8907880" lon="-0.6827810">
        <ele>377.8</ele>
        <time>2019-01-05T08:15:26Z</time>
      </trkpt>
      <trkpt lat="38.8908260" lon="-0.6827750">
        <ele>377.6</ele>
        <time>2019-01-05T08:15:30Z</time>
      </trkpt>
      <trkpt lat="38.8908380" lon="-0.6827840">
        <ele>377.4</ele>
        <time>2019-01-05T08:15:31Z</time>
      </trkpt>
      <trkpt lat="38.8909470" lon="-0.6828070">
        <ele>377.8</ele>
        <time>2019-01-05T08:15:36Z</time>
      </trkpt>
      <trkpt lat="38.8909640" lon="-0.6827980">
        <ele>378.2</ele>
        <time>2019-01-05T08:15:37Z</time>
      </trkpt>
      <trkpt lat="38.8910000" lon="-0.6827720">
        <ele>378.6</ele>
        <time>2019-01-05T08:15:40Z</time>
      </trkpt>
      <trkpt lat="38.8910090" lon="-0.6827680">
        <ele>378.8</ele>
        <time>2019-01-05T08:15:41Z</time>
      </trkpt>
      <trkpt lat="38.8910130" lon="-0.6827600">
        <ele>379.0</ele>
        <time>2019-01-05T08:15:42Z</time>
      </trkpt>
      <trkpt lat="38.8910350" lon="-0.6827360">
        <ele>380.4</ele>
        <time>2019-01-05T08:15:45Z</time>
      </trkpt>
      <trkpt lat="38.8910570" lon="-0.6827210">
        <ele>381.0</ele>
        <time>2019-01-05T08:15:47Z</time>
      </trkpt>
      <trkpt lat="38.8910860" lon="-0.6827090">
        <ele>381.6</ele>
        <time>2019-01-05T08:15:50Z</time>
      </trkpt>
      <trkpt lat="38.8911090" lon="-0.6827020">
        <ele>381.8</ele>
        <time>2019-01-05T08:15:52Z</time>
      </trkpt>
      <trkpt lat="38.8911410" lon="-0.6826960">
        <ele>382.8</ele>
        <time>2019-01-05T08:15:55Z</time>
      </trkpt>
      <trkpt lat="38.8911440" lon="-0.6826900">
        <ele>383.2</ele>
        <time>2019-01-05T08:15:56Z</time>
      </trkpt>
      <trkpt lat="38.8911380" lon="-0.6826690">
        <ele>383.8</ele>
        <time>2019-01-05T08:15:58Z</time>
      </trkpt>
      <trkpt lat="38.8911360" lon="-0.6826480">
        <ele>384.4</ele>
        <time>2019-01-05T08:16:00Z</time>
      </trkpt>
      <trkpt lat="38.8911400" lon="-0.6826430">
        <ele>384.8</ele>
        <time>2019-01-05T08:16:01Z</time>
      </trkpt>
      <trkpt lat="38.8911450" lon="-0.6826400">
        <ele>385.0</ele>
        <time>2019-01-05T08:16:02Z</time>
      </trkpt>
      <trkpt lat="38.8911650" lon="-0.6826260">
        <ele>385.6</ele>
        <time>2019-01-05T08:16:06Z</time>
      </trkpt>
      <trkpt lat="38.8911840" lon="-0.6826270">
        <ele>386.0</ele>
        <time>2019-01-05T08:16:09Z</time>
      </trkpt>
      <trkpt lat="38.8911900" lon="-0.6826070">
        <ele>387.0</ele>
        <time>2019-01-05T08:16:12Z</time>
      </trkpt>
      <trkpt lat="38.8911860" lon="-0.6825940">
        <ele>387.6</ele>
        <time>2019-01-05T08:16:13Z</time>
      </trkpt>
      <trkpt lat="38.8911860" lon="-0.6825830">
        <ele>388.0</ele>
        <time>2019-01-05T08:16:14Z</time>
      </trkpt>
      <trkpt lat="38.8911860" lon="-0.6825770">
        <ele>388.4</ele>
        <time>2019-01-05T08:16:15Z</time>
      </trkpt>
      <trkpt lat="38.8911970" lon="-0.6825580">
        <ele>388.8</ele>
        <time>2019-01-05T08:16:17Z</time>
      </trkpt>
      <trkpt lat="38.8912500" lon="-0.6825550">
        <ele>389.6</ele>
        <time>2019-01-05T08:16:22Z</time>
      </trkpt>
      <trkpt lat="38.8912600" lon="-0.6825550">
        <ele>390.0</ele>
        <time>2019-01-05T08:16:23Z</time>
      </trkpt>
      <trkpt lat="38.8913150" lon="-0.6825510">
        <ele>391.0</ele>
        <time>2019-01-05T08:16:27Z</time>
      </trkpt>
      <trkpt lat="38.8913240" lon="-0.6825410">
        <ele>391.4</ele>
        <time>2019-01-05T08:16:28Z</time>
      </trkpt>
      <trkpt lat="38.8913270" lon="-0.6825260">
        <ele>391.6</ele>
        <time>2019-01-05T08:16:29Z</time>
      </trkpt>
      <trkpt lat="38.8913260" lon="-0.6825130">
        <ele>391.8</ele>
        <time>2019-01-05T08:16:30Z</time>
      </trkpt>
      <trkpt lat="38.8913150" lon="-0.6824930">
        <ele>392.4</ele>
        <time>2019-01-05T08:16:32Z</time>
      </trkpt>
      <trkpt lat="38.8913050" lon="-0.6824780">
        <ele>392.8</ele>
        <time>2019-01-05T08:16:34Z</time>
      </trkpt>
      <trkpt lat="38.8912950" lon="-0.6824600">
        <ele>393.6</ele>
        <time>2019-01-05T08:16:36Z</time>
      </trkpt>
      <trkpt lat="38.8912980" lon="-0.6824230">
        <ele>394.2</ele>
        <time>2019-01-05T08:16:39Z</time>
      </trkpt>
      <trkpt lat="38.8913160" lon="-0.6824090">
        <ele>394.6</ele>
        <time>2019-01-05T08:16:42Z</time>
      </trkpt>
      <trkpt lat="38.8913260" lon="-0.6824100">
        <ele>394.6</ele>
        <time>2019-01-05T08:16:43Z</time>
      </trkpt>
      <trkpt lat="38.8913410" lon="-0.6824150">
        <ele>395.0</ele>
        <time>2019-01-05T08:16:45Z</time>
      </trkpt>
      <trkpt lat="38.8913660" lon="-0.6824170">
        <ele>396.0</ele>
        <time>2019-01-05T08:16:48Z</time>
      </trkpt>
      <trkpt lat="38.8913830" lon="-0.6824140">
        <ele>396.4</ele>
        <time>2019-01-05T08:16:50Z</time>
      </trkpt>
      <trkpt lat="38.8913840" lon="-0.6823950">
        <ele>397.2</ele>
        <time>2019-01-05T08:16:53Z</time>
      </trkpt>
      <trkpt lat="38.8913840" lon="-0.6823690">
        <ele>398.2</ele>
        <time>2019-01-05T08:16:55Z</time>
      </trkpt>
      <trkpt lat="38.8913880" lon="-0.6823530">
        <ele>398.6</ele>
        <time>2019-01-05T08:16:56Z</time>
      </trkpt>
      <trkpt lat="38.8914000" lon="-0.6823390">
        <ele>399.0</ele>
        <time>2019-01-05T08:16:58Z</time>
      </trkpt>
      <trkpt lat="38.8914060" lon="-0.6823350">
        <ele>399.2</ele>
        <time>2019-01-05T08:16:59Z</time>
      </trkpt>
      <trkpt lat="38.8914110" lon="-0.6823300">
        <ele>399.2</ele>
        <time>2019-01-05T08:17:00Z</time>
      </trkpt>
      <trkpt lat="38.8914270" lon="-0.6823170">
        <ele>399.6</ele>
        <time>2019-01-05T08:17:02Z</time>
      </trkpt>
      <trkpt lat="38.8914340" lon="-0.6823080">
        <ele>400.4</ele>
        <time>2019-01-05T08:17:03Z</time>
      </trkpt>
      <trkpt lat="38.8914420" lon="-0.6823000">
        <ele>401.0</ele>
        <time>2019-01-05T08:17:04Z</time>
      </trkpt>
      <trkpt lat="38.8914500" lon="-0.6822850">
        <ele>401.6</ele>
        <time>2019-01-05T08:17:05Z</time>
      </trkpt>
      <trkpt lat="38.8914600" lon="-0.6822700">
        <ele>401.8</ele>
        <time>2019-01-05T08:17:06Z</time>
      </trkpt>
      <trkpt lat="38.8914720" lon="-0.6822540">
        <ele>402.0</ele>
        <time>2019-01-05T08:17:08Z</time>
      </trkpt>
      <trkpt lat="38.8914790" lon="-0.6822450">
        <ele>402.0</ele>
        <time>2019-01-05T08:17:10Z</time>
      </trkpt>
      <trkpt lat="38.8914990" lon="-0.6822390">
        <ele>402.4</ele>
        <time>2019-01-05T08:17:13Z</time>
      </trkpt>
      <trkpt lat="38.8915050" lon="-0.6822330">
        <ele>402.6</ele>
        <time>2019-01-05T08:17:14Z</time>
      </trkpt>
      <trkpt lat="38.8914990" lon="-0.6821950">
        <ele>403.4</ele>
        <time>2019-01-05T08:17:17Z</time>
      </trkpt>
      <trkpt lat="38.8914800" lon="-0.6821800">
        <ele>403.8</ele>
        <time>2019-01-05T08:17:19Z</time>
      </trkpt>
      <trkpt lat="38.8914760" lon="-0.6821770">
        <ele>404.2</ele>
        <time>2019-01-05T08:17:20Z</time>
      </trkpt>
      <trkpt lat="38.8914680" lon="-0.6821690">
        <ele>404.6</ele>
        <time>2019-01-05T08:17:22Z</time>
      </trkpt>
      <trkpt lat="38.8914380" lon="-0.6821570">
        <ele>405.0</ele>
        <time>2019-01-05T08:17:26Z</time>
      </trkpt>
      <trkpt lat="38.8914290" lon="-0.6821340">
        <ele>406.2</ele>
        <time>2019-01-05T08:17:28Z</time>
      </trkpt>
      <trkpt lat="38.8914550" lon="-0.6820540">
        <ele>407.4</ele>
        <time>2019-01-05T08:17:33Z</time>
      </trkpt>
      <trkpt lat="38.8914790" lon="-0.6820360">
        <ele>408.4</ele>
        <time>2019-01-05T08:17:37Z</time>
      </trkpt>
      <trkpt lat="38.8914930" lon="-0.6820150">
        <ele>408.8</ele>
        <time>2019-01-05T08:17:39Z</time>
      </trkpt>
      <trkpt lat="38.8915090" lon="-0.6819830">
        <ele>409.6</ele>
        <time>2019-01-05T08:17:41Z</time>
      </trkpt>
      <trkpt lat="38.8915370" lon="-0.6819390">
        <ele>410.6</ele>
        <time>2019-01-05T08:17:45Z</time>
      </trkpt>
      <trkpt lat="38.8915420" lon="-0.6819350">
        <ele>410.8</ele>
        <time>2019-01-05T08:17:46Z</time>
      </trkpt>
      <trkpt lat="38.8915790" lon="-0.6818740">
        <ele>411.8</ele>
        <time>2019-01-05T08:17:51Z</time>
      </trkpt>
      <trkpt lat="38.8916080" lon="-0.6818390">
        <ele>412.4</ele>
        <time>2019-01-05T08:17:54Z</time>
      </trkpt>
      <trkpt lat="38.8916200" lon="-0.6818190">
        <ele>413.0</ele>
        <time>2019-01-05T08:17:56Z</time>
      </trkpt>
      <trkpt lat="38.8916490" lon="-0.6817390">
        <ele>414.0</ele>
        <time>2019-01-05T08:18:01Z</time>
      </trkpt>
      <trkpt lat="38.8916620" lon="-0.6817030">
        <ele>414.0</ele>
        <time>2019-01-05T08:18:03Z</time>
      </trkpt>
      <trkpt lat="38.8917050" lon="-0.6815720">
        <ele>413.6</ele>
        <time>2019-01-05T08:18:09Z</time>
      </trkpt>
      <trkpt lat="38.8917160" lon="-0.6814480">
        <ele>414.4</ele>
        <time>2019-01-05T08:18:15Z</time>
      </trkpt>
      <trkpt lat="38.8917140" lon="-0.6814340">
        <ele>414.4</ele>
        <time>2019-01-05T08:18:16Z</time>
      </trkpt>
      <trkpt lat="38.8917110" lon="-0.6814210">
        <ele>414.6</ele>
        <time>2019-01-05T08:18:17Z</time>
      </trkpt>
      <trkpt lat="38.8917140" lon="-0.6813790">
        <ele>415.2</ele>
        <time>2019-01-05T08:18:20Z</time>
      </trkpt>
      <trkpt lat="38.8917130" lon="-0.6813570">
        <ele>415.8</ele>
        <time>2019-01-05T08:18:22Z</time>
      </trkpt>
      <trkpt lat="38.8917090" lon="-0.6813470">
        <ele>416.0</ele>
        <time>2019-01-05T08:18:23Z</time>
      </trkpt>
      <trkpt lat="38.8917110" lon="-0.6813340">
        <ele>416.2</ele>
        <time>2019-01-05T08:18:24Z</time>
      </trkpt>
      <trkpt lat="38.8917400" lon="-0.6812340">
        <ele>417.4</ele>
        <time>2019-01-05T08:18:30Z</time>
      </trkpt>
      <trkpt lat="38.8917550" lon="-0.6811970">
        <ele>417.6</ele>
        <time>2019-01-05T08:18:32Z</time>
      </trkpt>
      <trkpt lat="38.8917990" lon="-0.6811010">
        <ele>418.2</ele>
        <time>2019-01-05T08:18:38Z</time>
      </trkpt>
      <trkpt lat="38.8918080" lon="-0.6810900">
        <ele>418.4</ele>
        <time>2019-01-05T08:18:39Z</time>
      </trkpt>
      <trkpt lat="38.8918540" lon="-0.6810470">
        <ele>419.6</ele>
        <time>2019-01-05T08:18:44Z</time>
      </trkpt>
      <trkpt lat="38.8918760" lon="-0.6810440">
        <ele>419.8</ele>
        <time>2019-01-05T08:18:46Z</time>
      </trkpt>
      <trkpt lat="38.8919070" lon="-0.6810400">
        <ele>420.4</ele>
        <time>2019-01-05T08:18:48Z</time>
      </trkpt>
      <trkpt lat="38.8919720" lon="-0.6810080">
        <ele>420.6</ele>
        <time>2019-01-05T08:18:52Z</time>
      </trkpt>
      <trkpt lat="38.8919900" lon="-0.6810050">
        <ele>420.8</ele>
        <time>2019-01-05T08:18:53Z</time>
      </trkpt>
      <trkpt lat="38.8920250" lon="-0.6809960">
        <ele>421.8</ele>
        <time>2019-01-05T08:18:55Z</time>
      </trkpt>
      <trkpt lat="38.8921370" lon="-0.6809430">
        <ele>422.4</ele>
        <time>2019-01-05T08:19:02Z</time>
      </trkpt>
      <trkpt lat="38.8921740" lon="-0.6809280">
        <ele>422.6</ele>
        <time>2019-01-05T08:19:05Z</time>
      </trkpt>
      <trkpt lat="38.8921860" lon="-0.6809160">
        <ele>422.8</ele>
        <time>2019-01-05T08:19:06Z</time>
      </trkpt>
      <trkpt lat="38.8922040" lon="-0.6808830">
        <ele>423.2</ele>
        <time>2019-01-05T08:19:08Z</time>
      </trkpt>
      <trkpt lat="38.8922020" lon="-0.6808160">
        <ele>423.8</ele>
        <time>2019-01-05T08:19:12Z</time>
      </trkpt>
      <trkpt lat="38.8921930" lon="-0.6808040">
        <ele>424.0</ele>
        <time>2019-01-05T08:19:13Z</time>
      </trkpt>
      <trkpt lat="38.8921840" lon="-0.6807990">
        <ele>424.2</ele>
        <time>2019-01-05T08:19:14Z</time>
      </trkpt>
      <trkpt lat="38.8921620" lon="-0.6807870">
        <ele>424.6</ele>
        <time>2019-01-05T08:19:16Z</time>
      </trkpt>
      <trkpt lat="38.8921510" lon="-0.6807860">
        <ele>425.0</ele>
        <time>2019-01-05T08:19:17Z</time>
      </trkpt>
      <trkpt lat="38.8921410" lon="-0.6807860">
        <ele>425.0</ele>
        <time>2019-01-05T08:19:18Z</time>
      </trkpt>
      <trkpt lat="38.8921150" lon="-0.6807820">
        <ele>425.8</ele>
        <time>2019-01-05T08:19:21Z</time>
      </trkpt>
      <trkpt lat="38.8921090" lon="-0.6807860">
        <ele>426.2</ele>
        <time>2019-01-05T08:19:22Z</time>
      </trkpt>
      <trkpt lat="38.8921010" lon="-0.6807900">
        <ele>426.4</ele>
        <time>2019-01-05T08:19:23Z</time>
      </trkpt>
      <trkpt lat="38.8920960" lon="-0.6807560">
        <ele>427.2</ele>
        <time>2019-01-05T08:19:28Z</time>
      </trkpt>
      <trkpt lat="38.8921040" lon="-0.6807290">
        <ele>428.0</ele>
        <time>2019-01-05T08:19:32Z</time>
      </trkpt>
      <trkpt lat="38.8921050" lon="-0.6807180">
        <ele>428.6</ele>
        <time>2019-01-05T08:19:33Z</time>
      </trkpt>
      <trkpt lat="38.8921030" lon="-0.6806900">
        <ele>429.8</ele>
        <time>2019-01-05T08:19:36Z</time>
      </trkpt>
      <trkpt lat="38.8921100" lon="-0.6806700">
        <ele>430.2</ele>
        <time>2019-01-05T08:19:38Z</time>
      </trkpt>
      <trkpt lat="38.8921190" lon="-0.6806420">
        <ele>430.6</ele>
        <time>2019-01-05T08:19:41Z</time>
      </trkpt>
      <trkpt lat="38.8921180" lon="-0.6806300">
        <ele>431.0</ele>
        <time>2019-01-05T08:19:42Z</time>
      </trkpt>
      <trkpt lat="38.8921260" lon="-0.6805870">
        <ele>432.2</ele>
        <time>2019-01-05T08:19:46Z</time>
      </trkpt>
      <trkpt lat="38.8921480" lon="-0.6805310">
        <ele>433.4</ele>
        <time>2019-01-05T08:19:51Z</time>
      </trkpt>
      <trkpt lat="38.8921570" lon="-0.6805070">
        <ele>434.0</ele>
        <time>2019-01-05T08:19:53Z</time>
      </trkpt>
      <trkpt lat="38.8921680" lon="-0.6804760">
        <ele>434.2</ele>
        <time>2019-01-05T08:19:56Z</time>
      </trkpt>
      <trkpt lat="38.8921690" lon="-0.6804660">
        <ele>434.6</ele>
        <time>2019-01-05T08:19:57Z</time>
      </trkpt>
      <trkpt lat="38.8921750" lon="-0.6804630">
        <ele>435.0</ele>
        <time>2019-01-05T08:19:58Z</time>
      </trkpt>
      <trkpt lat="38.8921910" lon="-0.6804350">
        <ele>435.8</ele>
        <time>2019-01-05T08:20:01Z</time>
      </trkpt>
      <trkpt lat="38.8921940" lon="-0.6804080">
        <ele>436.6</ele>
        <time>2019-01-05T08:20:04Z</time>
      </trkpt>
      <trkpt lat="38.8921940" lon="-0.6804000">
        <ele>437.0</ele>
        <time>2019-01-05T08:20:05Z</time>
      </trkpt>
      <trkpt lat="38.8921950" lon="-0.6803710">
        <ele>438.0</ele>
        <time>2019-01-05T08:20:09Z</time>
      </trkpt>
      <trkpt lat="38.8922290" lon="-0.6803300">
        <ele>438.8</ele>
        <time>2019-01-05T08:20:14Z</time>
      </trkpt>
      <trkpt lat="38.8922350" lon="-0.6803140">
        <ele>439.2</ele>
        <time>2019-01-05T08:20:15Z</time>
      </trkpt>
      <trkpt lat="38.8922380" lon="-0.6802610">
        <ele>440.2</ele>
        <time>2019-01-05T08:20:19Z</time>
      </trkpt>
      <trkpt lat="38.8922360" lon="-0.6802490">
        <ele>440.8</ele>
        <time>2019-01-05T08:20:20Z</time>
      </trkpt>
      <trkpt lat="38.8922300" lon="-0.6802370">
        <ele>441.2</ele>
        <time>2019-01-05T08:20:21Z</time>
      </trkpt>
      <trkpt lat="38.8922260" lon="-0.6802270">
        <ele>441.4</ele>
        <time>2019-01-05T08:20:22Z</time>
      </trkpt>
      <trkpt lat="38.8922230" lon="-0.6802200">
        <ele>441.4</ele>
        <time>2019-01-05T08:20:23Z</time>
      </trkpt>
      <trkpt lat="38.8922250" lon="-0.6801970">
        <ele>442.2</ele>
        <time>2019-01-05T08:20:25Z</time>
      </trkpt>
      <trkpt lat="38.8922270" lon="-0.6801770">
        <ele>442.8</ele>
        <time>2019-01-05T08:20:27Z</time>
      </trkpt>
      <trkpt lat="38.8922270" lon="-0.6801380">
        <ele>444.0</ele>
        <time>2019-01-05T08:20:31Z</time>
      </trkpt>
      <trkpt lat="38.8922490" lon="-0.6800940">
        <ele>445.4</ele>
        <time>2019-01-05T08:20:35Z</time>
      </trkpt>
      <trkpt lat="38.8922530" lon="-0.6800640">
        <ele>445.6</ele>
        <time>2019-01-05T08:20:38Z</time>
      </trkpt>
      <trkpt lat="38.8922690" lon="-0.6800130">
        <ele>446.6</ele>
        <time>2019-01-05T08:20:43Z</time>
      </trkpt>
      <trkpt lat="38.8922810" lon="-0.6799970">
        <ele>447.4</ele>
        <time>2019-01-05T08:20:45Z</time>
      </trkpt>
      <trkpt lat="38.8922880" lon="-0.6799850">
        <ele>448.0</ele>
        <time>2019-01-05T08:20:46Z</time>
      </trkpt>
      <trkpt lat="38.8923130" lon="-0.6799180">
        <ele>448.8</ele>
        <time>2019-01-05T08:20:52Z</time>
      </trkpt>
      <trkpt lat="38.8923470" lon="-0.6798340">
        <ele>448.8</ele>
        <time>2019-01-05T08:20:58Z</time>
      </trkpt>
      <trkpt lat="38.8923500" lon="-0.6798190">
        <ele>448.8</ele>
        <time>2019-01-05T08:20:59Z</time>
      </trkpt>
      <trkpt lat="38.8923510" lon="-0.6798070">
        <ele>449.2</ele>
        <time>2019-01-05T08:21:00Z</time>
      </trkpt>
      <trkpt lat="38.8923650" lon="-0.6797750">
        <ele>450.6</ele>
        <time>2019-01-05T08:21:03Z</time>
      </trkpt>
      <trkpt lat="38.8923800" lon="-0.6797260">
        <ele>451.2</ele>
        <time>2019-01-05T08:21:07Z</time>
      </trkpt>
      <trkpt lat="38.8923820" lon="-0.6797120">
        <ele>451.2</ele>
        <time>2019-01-05T08:21:08Z</time>
      </trkpt>
      <trkpt lat="38.8923830" lon="-0.6796900">
        <ele>452.0</ele>
        <time>2019-01-05T08:21:10Z</time>
      </trkpt>
      <trkpt lat="38.8923860" lon="-0.6796540">
        <ele>452.8</ele>
        <time>2019-01-05T08:21:13Z</time>
      </trkpt>
      <trkpt lat="38.8923900" lon="-0.6796370">
        <ele>452.4</ele>
        <time>2019-01-05T08:21:14Z</time>
      </trkpt>
      <trkpt lat="38.8924010" lon="-0.6796200">
        <ele>452.4</ele>
        <time>2019-01-05T08:21:15Z</time>
      </trkpt>
      <trkpt lat="38.8924250" lon="-0.6795750">
        <ele>451.6</ele>
        <time>2019-01-05T08:21:18Z</time>
      </trkpt>
      <trkpt lat="38.8924410" lon="-0.6795340">
        <ele>452.4</ele>
        <time>2019-01-05T08:21:21Z</time>
      </trkpt>
      <trkpt lat="38.8924530" lon="-0.6795130">
        <ele>453.2</ele>
        <time>2019-01-05T08:21:23Z</time>
      </trkpt>
      <trkpt lat="38.8924590" lon="-0.6795010">
        <ele>453.4</ele>
        <time>2019-01-05T08:21:24Z</time>
      </trkpt>
      <trkpt lat="38.8924700" lon="-0.6794760">
        <ele>454.4</ele>
        <time>2019-01-05T08:21:26Z</time>
      </trkpt>
      <trkpt lat="38.8924860" lon="-0.6794370">
        <ele>454.8</ele>
        <time>2019-01-05T08:21:29Z</time>
      </trkpt>
      <trkpt lat="38.8924940" lon="-0.6794070">
        <ele>455.0</ele>
        <time>2019-01-05T08:21:31Z</time>
      </trkpt>
      <trkpt lat="38.8925370" lon="-0.6793060">
        <ele>455.2</ele>
        <time>2019-01-05T08:21:36Z</time>
      </trkpt>
      <trkpt lat="38.8925470" lon="-0.6792880">
        <ele>455.4</ele>
        <time>2019-01-05T08:21:37Z</time>
      </trkpt>
      <trkpt lat="38.8925540" lon="-0.6792530">
        <ele>455.6</ele>
        <time>2019-01-05T08:21:39Z</time>
      </trkpt>
      <trkpt lat="38.8925640" lon="-0.6792210">
        <ele>455.8</ele>
        <time>2019-01-05T08:21:41Z</time>
      </trkpt>
      <trkpt lat="38.8925740" lon="-0.6791880">
        <ele>456.0</ele>
        <time>2019-01-05T08:21:43Z</time>
      </trkpt>
      <trkpt lat="38.8925770" lon="-0.6791550">
        <ele>456.4</ele>
        <time>2019-01-05T08:21:46Z</time>
      </trkpt>
      <trkpt lat="38.8925740" lon="-0.6791420">
        <ele>456.4</ele>
        <time>2019-01-05T08:21:47Z</time>
      </trkpt>
      <trkpt lat="38.8925730" lon="-0.6791020">
        <ele>457.4</ele>
        <time>2019-01-05T08:21:50Z</time>
      </trkpt>
      <trkpt lat="38.8925770" lon="-0.6790850">
        <ele>457.6</ele>
        <time>2019-01-05T08:21:51Z</time>
      </trkpt>
      <trkpt lat="38.8925930" lon="-0.6790410">
        <ele>458.2</ele>
        <time>2019-01-05T08:21:54Z</time>
      </trkpt>
      <trkpt lat="38.8925860" lon="-0.6790210">
        <ele>458.4</ele>
        <time>2019-01-05T08:21:56Z</time>
      </trkpt>
      <trkpt lat="38.8925880" lon="-0.6790070">
        <ele>458.6</ele>
        <time>2019-01-05T08:21:57Z</time>
      </trkpt>
      <trkpt lat="38.8925880" lon="-0.6789750">
        <ele>459.8</ele>
        <time>2019-01-05T08:21:59Z</time>
      </trkpt>
      <trkpt lat="38.8925980" lon="-0.6789540">
        <ele>460.2</ele>
        <time>2019-01-05T08:22:00Z</time>
      </trkpt>
      <trkpt lat="38.8926160" lon="-0.6789070">
        <ele>460.8</ele>
        <time>2019-01-05T08:22:04Z</time>
      </trkpt>
      <trkpt lat="38.8926160" lon="-0.6788970">
        <ele>461.0</ele>
        <time>2019-01-05T08:22:05Z</time>
      </trkpt>
      <trkpt lat="38.8926190" lon="-0.6788870">
        <ele>461.4</ele>
        <time>2019-01-05T08:22:06Z</time>
      </trkpt>
      <trkpt lat="38.8926390" lon="-0.6788670">
        <ele>461.8</ele>
        <time>2019-01-05T08:22:08Z</time>
      </trkpt>
      <trkpt lat="38.8926570" lon="-0.6788500">
        <ele>462.0</ele>
        <time>2019-01-05T08:22:09Z</time>
      </trkpt>
      <trkpt lat="38.8927050" lon="-0.6787430">
        <ele>461.4</ele>
        <time>2019-01-05T08:22:13Z</time>
      </trkpt>
      <trkpt lat="38.8927210" lon="-0.6787170">
        <ele>461.6</ele>
        <time>2019-01-05T08:22:14Z</time>
      </trkpt>
      <trkpt lat="38.8927550" lon="-0.6786480">
        <ele>462.0</ele>
        <time>2019-01-05T08:22:17Z</time>
      </trkpt>
      <trkpt lat="38.8927700" lon="-0.6785490">
        <ele>461.6</ele>
        <time>2019-01-05T08:22:21Z</time>
      </trkpt>
      <trkpt lat="38.8927660" lon="-0.6785310">
        <ele>461.6</ele>
        <time>2019-01-05T08:22:22Z</time>
      </trkpt>
      <trkpt lat="38.8927490" lon="-0.6784990">
        <ele>462.8</ele>
        <time>2019-01-05T08:22:25Z</time>
      </trkpt>
      <trkpt lat="38.8927460" lon="-0.6784890">
        <ele>463.2</ele>
        <time>2019-01-05T08:22:26Z</time>
      </trkpt>
      <trkpt lat="38.8927450" lon="-0.6784810">
        <ele>463.6</ele>
        <time>2019-01-05T08:22:27Z</time>
      </trkpt>
      <trkpt lat="38.8927430" lon="-0.6784670">
        <ele>464.4</ele>
        <time>2019-01-05T08:22:29Z</time>
      </trkpt>
      <trkpt lat="38.8927460" lon="-0.6784380">
        <ele>464.6</ele>
        <time>2019-01-05T08:22:31Z</time>
      </trkpt>
      <trkpt lat="38.8927450" lon="-0.6784050">
        <ele>464.4</ele>
        <time>2019-01-05T08:22:33Z</time>
      </trkpt>
      <trkpt lat="38.8927500" lon="-0.6783720">
        <ele>463.8</ele>
        <time>2019-01-05T08:22:35Z</time>
      </trkpt>
      <trkpt lat="38.8927830" lon="-0.6782820">
        <ele>465.0</ele>
        <time>2019-01-05T08:22:40Z</time>
      </trkpt>
      <trkpt lat="38.8927920" lon="-0.6782390">
        <ele>465.4</ele>
        <time>2019-01-05T08:22:42Z</time>
      </trkpt>
      <trkpt lat="38.8927940" lon="-0.6782190">
        <ele>465.6</ele>
        <time>2019-01-05T08:22:43Z</time>
      </trkpt>
      <trkpt lat="38.8927800" lon="-0.6781980">
        <ele>466.2</ele>
        <time>2019-01-05T08:22:45Z</time>
      </trkpt>
      <trkpt lat="38.8927850" lon="-0.6781890">
        <ele>466.6</ele>
        <time>2019-01-05T08:22:46Z</time>
      </trkpt>
      <trkpt lat="38.8928000" lon="-0.6781570">
        <ele>468.0</ele>
        <time>2019-01-05T08:22:49Z</time>
      </trkpt>
      <trkpt lat="38.8928050" lon="-0.6781380">
        <ele>468.2</ele>
        <time>2019-01-05T08:22:50Z</time>
      </trkpt>
      <trkpt lat="38.8928190" lon="-0.6780440">
        <ele>468.4</ele>
        <time>2019-01-05T08:22:56Z</time>
      </trkpt>
      <trkpt lat="38.8928200" lon="-0.6780320">
        <ele>468.4</ele>
        <time>2019-01-05T08:22:57Z</time>
      </trkpt>
      <trkpt lat="38.8928210" lon="-0.6780070">
        <ele>469.4</ele>
        <time>2019-01-05T08:23:00Z</time>
      </trkpt>
      <trkpt lat="38.8928230" lon="-0.6779900">
        <ele>469.8</ele>
        <time>2019-01-05T08:23:01Z</time>
      </trkpt>
      <trkpt lat="38.8928300" lon="-0.6779750">
        <ele>470.4</ele>
        <time>2019-01-05T08:23:02Z</time>
      </trkpt>
      <trkpt lat="38.8928310" lon="-0.6779630">
        <ele>470.8</ele>
        <time>2019-01-05T08:23:03Z</time>
      </trkpt>
      <trkpt lat="38.8928290" lon="-0.6779580">
        <ele>471.0</ele>
        <time>2019-01-05T08:23:04Z</time>
      </trkpt>
      <trkpt lat="38.8928300" lon="-0.6779480">
        <ele>471.2</ele>
        <time>2019-01-05T08:23:05Z</time>
      </trkpt>
      <trkpt lat="38.8928620" lon="-0.6778770">
        <ele>471.2</ele>
        <time>2019-01-05T08:23:09Z</time>
      </trkpt>
      <trkpt lat="38.8928810" lon="-0.6778350">
        <ele>471.6</ele>
        <time>2019-01-05T08:23:13Z</time>
      </trkpt>
      <trkpt lat="38.8928850" lon="-0.6778250">
        <ele>472.0</ele>
        <time>2019-01-05T08:23:14Z</time>
      </trkpt>
      <trkpt lat="38.8928920" lon="-0.6778000">
        <ele>472.6</ele>
        <time>2019-01-05T08:23:16Z</time>
      </trkpt>
      <trkpt lat="38.8929010" lon="-0.6777690">
        <ele>472.8</ele>
        <time>2019-01-05T08:23:18Z</time>
      </trkpt>
      <trkpt lat="38.8929360" lon="-0.6777110">
        <ele>471.8</ele>
        <time>2019-01-05T08:23:22Z</time>
      </trkpt>
      <trkpt lat="38.8929370" lon="-0.6776510">
        <ele>473.4</ele>
        <time>2019-01-05T08:23:27Z</time>
      </trkpt>
      <trkpt lat="38.8929340" lon="-0.6776380">
        <ele>473.8</ele>
        <time>2019-01-05T08:23:28Z</time>
      </trkpt>
      <trkpt lat="38.8929460" lon="-0.6776100">
        <ele>474.4</ele>
        <time>2019-01-05T08:23:31Z</time>
      </trkpt>
      <trkpt lat="38.8929680" lon="-0.6775750">
        <ele>474.8</ele>
        <time>2019-01-05T08:23:33Z</time>
      </trkpt>
      <trkpt lat="38.8929920" lon="-0.6774560">
        <ele>474.4</ele>
        <time>2019-01-05T08:23:39Z</time>
      </trkpt>
      <trkpt lat="38.8930080" lon="-0.6774100">
        <ele>474.8</ele>
        <time>2019-01-05T08:23:42Z</time>
      </trkpt>
      <trkpt lat="38.8930130" lon="-0.6773870">
        <ele>475.2</ele>
        <time>2019-01-05T08:23:44Z</time>
      </trkpt>
      <trkpt lat="38.8930050" lon="-0.6773510">
        <ele>475.2</ele>
        <time>2019-01-05T08:23:47Z</time>
      </trkpt>
      <trkpt lat="38.8929990" lon="-0.6773400">
        <ele>476.0</ele>
        <time>2019-01-05T08:23:50Z</time>
      </trkpt>
      <trkpt lat="38.8930010" lon="-0.6773320">
        <ele>476.4</ele>
        <time>2019-01-05T08:23:51Z</time>
      </trkpt>
      <trkpt lat="38.8930070" lon="-0.6773160">
        <ele>477.2</ele>
        <time>2019-01-05T08:23:52Z</time>
      </trkpt>
      <trkpt lat="38.8930360" lon="-0.6772490">
        <ele>478.0</ele>
        <time>2019-01-05T08:23:55Z</time>
      </trkpt>
      <trkpt lat="38.8930860" lon="-0.6771600">
        <ele>477.8</ele>
        <time>2019-01-05T08:24:00Z</time>
      </trkpt>
      <trkpt lat="38.8930910" lon="-0.6771450">
        <ele>477.8</ele>
        <time>2019-01-05T08:24:01Z</time>
      </trkpt>
      <trkpt lat="38.8930900" lon="-0.6771120">
        <ele>477.8</ele>
        <time>2019-01-05T08:24:04Z</time>
      </trkpt>
      <trkpt lat="38.8930910" lon="-0.6771000">
        <ele>478.4</ele>
        <time>2019-01-05T08:24:06Z</time>
      </trkpt>
      <trkpt lat="38.8930900" lon="-0.6770630">
        <ele>478.4</ele>
        <time>2019-01-05T08:24:09Z</time>
      </trkpt>
      <trkpt lat="38.8930930" lon="-0.6770480">
        <ele>478.4</ele>
        <time>2019-01-05T08:24:10Z</time>
      </trkpt>
      <trkpt lat="38.8931180" lon="-0.6769790">
        <ele>477.8</ele>
        <time>2019-01-05T08:24:14Z</time>
      </trkpt>
      <trkpt lat="38.8931270" lon="-0.6769540">
        <ele>477.6</ele>
        <time>2019-01-05T08:24:15Z</time>
      </trkpt>
      <trkpt lat="38.8931560" lon="-0.6768930">
        <ele>479.4</ele>
        <time>2019-01-05T08:24:18Z</time>
      </trkpt>
      <trkpt lat="38.8931680" lon="-0.6768540">
        <ele>479.8</ele>
        <time>2019-01-05T08:24:20Z</time>
      </trkpt>
      <trkpt lat="38.8932110" lon="-0.6767330">
        <ele>479.6</ele>
        <time>2019-01-05T08:24:25Z</time>
      </trkpt>
      <trkpt lat="38.8932450" lon="-0.6766020">
        <ele>479.6</ele>
        <time>2019-01-05T08:24:30Z</time>
      </trkpt>
      <trkpt lat="38.8932660" lon="-0.6764720">
        <ele>479.4</ele>
        <time>2019-01-05T08:24:35Z</time>
      </trkpt>
      <trkpt lat="38.8932740" lon="-0.6764260">
        <ele>479.4</ele>
        <time>2019-01-05T08:24:37Z</time>
      </trkpt>
      <trkpt lat="38.8932940" lon="-0.6763850">
        <ele>479.4</ele>
        <time>2019-01-05T08:24:39Z</time>
      </trkpt>
      <trkpt lat="38.8933270" lon="-0.6762940">
        <ele>480.4</ele>
        <time>2019-01-05T08:24:43Z</time>
      </trkpt>
      <trkpt lat="38.8933390" lon="-0.6762710">
        <ele>480.4</ele>
        <time>2019-01-05T08:24:44Z</time>
      </trkpt>
      <trkpt lat="38.8933590" lon="-0.6761870">
        <ele>480.6</ele>
        <time>2019-01-05T08:24:47Z</time>
      </trkpt>
      <trkpt lat="38.8933550" lon="-0.6761570">
        <ele>480.6</ele>
        <time>2019-01-05T08:24:48Z</time>
      </trkpt>
      <trkpt lat="38.8933550" lon="-0.6761320">
        <ele>480.4</ele>
        <time>2019-01-05T08:24:49Z</time>
      </trkpt>
      <trkpt lat="38.8933550" lon="-0.6760390">
        <ele>480.4</ele>
        <time>2019-01-05T08:24:53Z</time>
      </trkpt>
      <trkpt lat="38.8933410" lon="-0.6759840">
        <ele>480.6</ele>
        <time>2019-01-05T08:24:56Z</time>
      </trkpt>
      <trkpt lat="38.8933330" lon="-0.6759630">
        <ele>480.8</ele>
        <time>2019-01-05T08:24:58Z</time>
      </trkpt>
      <trkpt lat="38.8933310" lon="-0.6759390">
        <ele>481.2</ele>
        <time>2019-01-05T08:25:00Z</time>
      </trkpt>
      <trkpt lat="38.8933350" lon="-0.6759120">
        <ele>481.4</ele>
        <time>2019-01-05T08:25:02Z</time>
      </trkpt>
      <trkpt lat="38.8933340" lon="-0.6758950">
        <ele>481.8</ele>
        <time>2019-01-05T08:25:03Z</time>
      </trkpt>
      <trkpt lat="38.8933360" lon="-0.6758670">
        <ele>482.4</ele>
        <time>2019-01-05T08:25:05Z</time>
      </trkpt>
      <trkpt lat="38.8933440" lon="-0.6758390">
        <ele>482.8</ele>
        <time>2019-01-05T08:25:07Z</time>
      </trkpt>
      <trkpt lat="38.8933510" lon="-0.6757670">
        <ele>483.0</ele>
        <time>2019-01-05T08:25:11Z</time>
      </trkpt>
      <trkpt lat="38.8933430" lon="-0.6757300">
        <ele>482.8</ele>
        <time>2019-01-05T08:25:13Z</time>
      </trkpt>
      <trkpt lat="38.8933440" lon="-0.6756930">
        <ele>482.2</ele>
        <time>2019-01-05T08:25:15Z</time>
      </trkpt>
      <trkpt lat="38.8933440" lon="-0.6756740">
        <ele>482.0</ele>
        <time>2019-01-05T08:25:16Z</time>
      </trkpt>
      <trkpt lat="38.8933450" lon="-0.6756570">
        <ele>482.0</ele>
        <time>2019-01-05T08:25:17Z</time>
      </trkpt>
      <trkpt lat="38.8933450" lon="-0.6756260">
        <ele>482.2</ele>
        <time>2019-01-05T08:25:19Z</time>
      </trkpt>
      <trkpt lat="38.8933460" lon="-0.6756100">
        <ele>482.4</ele>
        <time>2019-01-05T08:25:20Z</time>
      </trkpt>
      <trkpt lat="38.8933510" lon="-0.6755380">
        <ele>483.4</ele>
        <time>2019-01-05T08:25:24Z</time>
      </trkpt>
      <trkpt lat="38.8933430" lon="-0.6755240">
        <ele>483.6</ele>
        <time>2019-01-05T08:25:25Z</time>
      </trkpt>
      <trkpt lat="38.8933430" lon="-0.6755160">
        <ele>483.8</ele>
        <time>2019-01-05T08:25:26Z</time>
      </trkpt>
      <trkpt lat="38.8933460" lon="-0.6755060">
        <ele>483.8</ele>
        <time>2019-01-05T08:25:28Z</time>
      </trkpt>
      <trkpt lat="38.8933540" lon="-0.6754940">
        <ele>484.2</ele>
        <time>2019-01-05T08:25:30Z</time>
      </trkpt>
      <trkpt lat="38.8933630" lon="-0.6754690">
        <ele>485.0</ele>
        <time>2019-01-05T08:25:32Z</time>
      </trkpt>
      <trkpt lat="38.8933690" lon="-0.6754390">
        <ele>486.2</ele>
        <time>2019-01-05T08:25:34Z</time>
      </trkpt>
      <trkpt lat="38.8933720" lon="-0.6754260">
        <ele>486.4</ele>
        <time>2019-01-05T08:25:35Z</time>
      </trkpt>
      <trkpt lat="38.8933860" lon="-0.6753930">
        <ele>486.8</ele>
        <time>2019-01-05T08:25:37Z</time>
      </trkpt>
      <trkpt lat="38.8934060" lon="-0.6753460">
        <ele>486.4</ele>
        <time>2019-01-05T08:25:39Z</time>
      </trkpt>
      <trkpt lat="38.8934240" lon="-0.6752920">
        <ele>485.0</ele>
        <time>2019-01-05T08:25:42Z</time>
      </trkpt>
      <trkpt lat="38.8934210" lon="-0.6752670">
        <ele>485.0</ele>
        <time>2019-01-05T08:25:44Z</time>
      </trkpt>
      <trkpt lat="38.8934230" lon="-0.6752540">
        <ele>485.2</ele>
        <time>2019-01-05T08:25:45Z</time>
      </trkpt>
      <trkpt lat="38.8934370" lon="-0.6752190">
        <ele>486.0</ele>
        <time>2019-01-05T08:25:47Z</time>
      </trkpt>
      <trkpt lat="38.8934490" lon="-0.6752010">
        <ele>486.4</ele>
        <time>2019-01-05T08:25:48Z</time>
      </trkpt>
      <trkpt lat="38.8934720" lon="-0.6751510">
        <ele>487.0</ele>
        <time>2019-01-05T08:25:50Z</time>
      </trkpt>
      <trkpt lat="38.8934870" lon="-0.6751070">
        <ele>487.0</ele>
        <time>2019-01-05T08:25:52Z</time>
      </trkpt>
      <trkpt lat="38.8934810" lon="-0.6750770">
        <ele>486.8</ele>
        <time>2019-01-05T08:25:54Z</time>
      </trkpt>
      <trkpt lat="38.8934660" lon="-0.6750610">
        <ele>486.8</ele>
        <time>2019-01-05T08:25:56Z</time>
      </trkpt>
      <trkpt lat="38.8934690" lon="-0.6750400">
        <ele>487.4</ele>
        <time>2019-01-05T08:25:58Z</time>
      </trkpt>
      <trkpt lat="38.8934800" lon="-0.6749640">
        <ele>488.4</ele>
        <time>2019-01-05T08:26:02Z</time>
      </trkpt>
      <trkpt lat="38.8934920" lon="-0.6749470">
        <ele>488.4</ele>
        <time>2019-01-05T08:26:03Z</time>
      </trkpt>
      <trkpt lat="38.8935010" lon="-0.6749320">
        <ele>488.4</ele>
        <time>2019-01-05T08:26:04Z</time>
      </trkpt>
      <trkpt lat="38.8935140" lon="-0.6748600">
        <ele>488.8</ele>
        <time>2019-01-05T08:26:10Z</time>
      </trkpt>
      <trkpt lat="38.8935130" lon="-0.6748560">
        <ele>489.2</ele>
        <time>2019-01-05T08:26:11Z</time>
      </trkpt>
      <trkpt lat="38.8935130" lon="-0.6748480">
        <ele>489.6</ele>
        <time>2019-01-05T08:26:12Z</time>
      </trkpt>
      <trkpt lat="38.8935120" lon="-0.6748110">
        <ele>490.4</ele>
        <time>2019-01-05T08:26:16Z</time>
      </trkpt>
      <trkpt lat="38.8935110" lon="-0.6747860">
        <ele>491.0</ele>
        <time>2019-01-05T08:26:20Z</time>
      </trkpt>
      <trkpt lat="38.8935210" lon="-0.6747610">
        <ele>492.0</ele>
        <time>2019-01-05T08:26:22Z</time>
      </trkpt>
      <trkpt lat="38.8935280" lon="-0.6747470">
        <ele>492.6</ele>
        <time>2019-01-05T08:26:23Z</time>
      </trkpt>
      <trkpt lat="38.8935370" lon="-0.6747100">
        <ele>493.8</ele>
        <time>2019-01-05T08:26:25Z</time>
      </trkpt>
      <trkpt lat="38.8935440" lon="-0.6746710">
        <ele>494.8</ele>
        <time>2019-01-05T08:26:27Z</time>
      </trkpt>
      <trkpt lat="38.8935440" lon="-0.6746530">
        <ele>495.0</ele>
        <time>2019-01-05T08:26:28Z</time>
      </trkpt>
      <trkpt lat="38.8935500" lon="-0.6746330">
        <ele>495.2</ele>
        <time>2019-01-05T08:26:29Z</time>
      </trkpt>
      <trkpt lat="38.8935710" lon="-0.6745620">
        <ele>495.2</ele>
        <time>2019-01-05T08:26:33Z</time>
      </trkpt>
      <trkpt lat="38.8935700" lon="-0.6745450">
        <ele>495.4</ele>
        <time>2019-01-05T08:26:34Z</time>
      </trkpt>
      <trkpt lat="38.8935700" lon="-0.6745150">
        <ele>496.0</ele>
        <time>2019-01-05T08:26:37Z</time>
      </trkpt>
      <trkpt lat="38.8935740" lon="-0.6744900">
        <ele>496.8</ele>
        <time>2019-01-05T08:26:39Z</time>
      </trkpt>
      <trkpt lat="38.8935840" lon="-0.6744660">
        <ele>497.0</ele>
        <time>2019-01-05T08:26:41Z</time>
      </trkpt>
      <trkpt lat="38.8935850" lon="-0.6744500">
        <ele>497.2</ele>
        <time>2019-01-05T08:26:42Z</time>
      </trkpt>
      <trkpt lat="38.8935950" lon="-0.6744200">
        <ele>497.2</ele>
        <time>2019-01-05T08:26:44Z</time>
      </trkpt>
      <trkpt lat="38.8936010" lon="-0.6743100">
        <ele>497.2</ele>
        <time>2019-01-05T08:26:50Z</time>
      </trkpt>
      <trkpt lat="38.8936000" lon="-0.6742420">
        <ele>496.4</ele>
        <time>2019-01-05T08:26:53Z</time>
      </trkpt>
      <trkpt lat="38.8936070" lon="-0.6742160">
        <ele>496.6</ele>
        <time>2019-01-05T08:26:55Z</time>
      </trkpt>
      <trkpt lat="38.8936290" lon="-0.6741960">
        <ele>495.8</ele>
        <time>2019-01-05T08:26:57Z</time>
      </trkpt>
      <trkpt lat="38.8936550" lon="-0.6741660">
        <ele>495.6</ele>
        <time>2019-01-05T08:26:59Z</time>
      </trkpt>
      <trkpt lat="38.8936600" lon="-0.6741420">
        <ele>495.4</ele>
        <time>2019-01-05T08:27:00Z</time>
      </trkpt>
      <trkpt lat="38.8936700" lon="-0.6741100">
        <ele>495.4</ele>
        <time>2019-01-05T08:27:02Z</time>
      </trkpt>
      <trkpt lat="38.8936730" lon="-0.6741000">
        <ele>496.2</ele>
        <time>2019-01-05T08:27:04Z</time>
      </trkpt>
      <trkpt lat="38.8937070" lon="-0.6740670">
        <ele>497.0</ele>
        <time>2019-01-05T08:27:07Z</time>
      </trkpt>
      <trkpt lat="38.8937350" lon="-0.6740510">
        <ele>497.2</ele>
        <time>2019-01-05T08:27:09Z</time>
      </trkpt>
      <trkpt lat="38.8938290" lon="-0.6740330">
        <ele>497.2</ele>
        <time>2019-01-05T08:27:14Z</time>
      </trkpt>
      <trkpt lat="38.8938470" lon="-0.6739720">
        <ele>497.8</ele>
        <time>2019-01-05T08:27:17Z</time>
      </trkpt>
      <trkpt lat="38.8938400" lon="-0.6739460">
        <ele>498.4</ele>
        <time>2019-01-05T08:27:18Z</time>
      </trkpt>
      <trkpt lat="38.8938360" lon="-0.6739080">
        <ele>499.4</ele>
        <time>2019-01-05T08:27:20Z</time>
      </trkpt>
      <trkpt lat="38.8938410" lon="-0.6738920">
        <ele>500.2</ele>
        <time>2019-01-05T08:27:22Z</time>
      </trkpt>
      <trkpt lat="38.8938510" lon="-0.6738830">
        <ele>500.6</ele>
        <time>2019-01-05T08:27:23Z</time>
      </trkpt>
      <trkpt lat="38.8938700" lon="-0.6738640">
        <ele>501.0</ele>
        <time>2019-01-05T08:27:25Z</time>
      </trkpt>
      <trkpt lat="38.8938800" lon="-0.6738510">
        <ele>501.4</ele>
        <time>2019-01-05T08:27:27Z</time>
      </trkpt>
      <trkpt lat="38.8938880" lon="-0.6738530">
        <ele>501.6</ele>
        <time>2019-01-05T08:27:28Z</time>
      </trkpt>
      <trkpt lat="38.8938960" lon="-0.6738490">
        <ele>501.6</ele>
        <time>2019-01-05T08:27:29Z</time>
      </trkpt>
      <trkpt lat="38.8939050" lon="-0.6738280">
        <ele>502.4</ele>
        <time>2019-01-05T08:27:31Z</time>
      </trkpt>
      <trkpt lat="38.8939090" lon="-0.6738230">
        <ele>503.0</ele>
        <time>2019-01-05T08:27:32Z</time>
      </trkpt>
      <trkpt lat="38.8939460" lon="-0.6737740">
        <ele>504.0</ele>
        <time>2019-01-05T08:27:36Z</time>
      </trkpt>
      <trkpt lat="38.8939600" lon="-0.6737720">
        <ele>504.0</ele>
        <time>2019-01-05T08:27:37Z</time>
      </trkpt>
      <trkpt lat="38.8939950" lon="-0.6737590">
        <ele>505.0</ele>
        <time>2019-01-05T08:27:40Z</time>
      </trkpt>
      <trkpt lat="38.8939990" lon="-0.6737540">
        <ele>505.2</ele>
        <time>2019-01-05T08:27:41Z</time>
      </trkpt>
      <trkpt lat="38.8940670" lon="-0.6737190">
        <ele>505.2</ele>
        <time>2019-01-05T08:27:46Z</time>
      </trkpt>
      <trkpt lat="38.8941140" lon="-0.6736620">
        <ele>505.2</ele>
        <time>2019-01-05T08:27:49Z</time>
      </trkpt>
      <trkpt lat="38.8941160" lon="-0.6736490">
        <ele>505.0</ele>
        <time>2019-01-05T08:27:50Z</time>
      </trkpt>
      <trkpt lat="38.8941480" lon="-0.6735690">
        <ele>505.0</ele>
        <time>2019-01-05T08:27:54Z</time>
      </trkpt>
      <trkpt lat="38.8941730" lon="-0.6735150">
        <ele>506.0</ele>
        <time>2019-01-05T08:27:57Z</time>
      </trkpt>
      <trkpt lat="38.8941770" lon="-0.6735040">
        <ele>506.2</ele>
        <time>2019-01-05T08:27:58Z</time>
      </trkpt>
      <trkpt lat="38.8941720" lon="-0.6734850">
        <ele>507.0</ele>
        <time>2019-01-05T08:28:01Z</time>
      </trkpt>
      <trkpt lat="38.8941740" lon="-0.6734700">
        <ele>507.4</ele>
        <time>2019-01-05T08:28:03Z</time>
      </trkpt>
      <trkpt lat="38.8941930" lon="-0.6734270">
        <ele>508.6</ele>
        <time>2019-01-05T08:28:07Z</time>
      </trkpt>
      <trkpt lat="38.8942000" lon="-0.6734140">
        <ele>509.0</ele>
        <time>2019-01-05T08:28:08Z</time>
      </trkpt>
      <trkpt lat="38.8942170" lon="-0.6733930">
        <ele>509.6</ele>
        <time>2019-01-05T08:28:10Z</time>
      </trkpt>
      <trkpt lat="38.8942280" lon="-0.6733850">
        <ele>510.2</ele>
        <time>2019-01-05T08:28:11Z</time>
      </trkpt>
      <trkpt lat="38.8942390" lon="-0.6733760">
        <ele>510.6</ele>
        <time>2019-01-05T08:28:12Z</time>
      </trkpt>
      <trkpt lat="38.8942550" lon="-0.6733630">
        <ele>511.0</ele>
        <time>2019-01-05T08:28:13Z</time>
      </trkpt>
      <trkpt lat="38.8942690" lon="-0.6733490">
        <ele>511.2</ele>
        <time>2019-01-05T08:28:14Z</time>
      </trkpt>
      <trkpt lat="38.8942880" lon="-0.6733300">
        <ele>511.6</ele>
        <time>2019-01-05T08:28:16Z</time>
      </trkpt>
      <trkpt lat="38.8943200" lon="-0.6733090">
        <ele>511.4</ele>
        <time>2019-01-05T08:28:19Z</time>
      </trkpt>
      <trkpt lat="38.8943340" lon="-0.6732930">
        <ele>511.2</ele>
        <time>2019-01-05T08:28:20Z</time>
      </trkpt>
      <trkpt lat="38.8943590" lon="-0.6732370">
        <ele>511.4</ele>
        <time>2019-01-05T08:28:22Z</time>
      </trkpt>
      <trkpt lat="38.8943630" lon="-0.6732020">
        <ele>511.8</ele>
        <time>2019-01-05T08:28:23Z</time>
      </trkpt>
      <trkpt lat="38.8943630" lon="-0.6731780">
        <ele>512.0</ele>
        <time>2019-01-05T08:28:24Z</time>
      </trkpt>
      <trkpt lat="38.8943620" lon="-0.6731620">
        <ele>512.2</ele>
        <time>2019-01-05T08:28:25Z</time>
      </trkpt>
      <trkpt lat="38.8943660" lon="-0.6731460">
        <ele>512.4</ele>
        <time>2019-01-05T08:28:26Z</time>
      </trkpt>
      <trkpt lat="38.8943970" lon="-0.6730820">
        <ele>512.4</ele>
        <time>2019-01-05T08:28:29Z</time>
      </trkpt>
      <trkpt lat="38.8944030" lon="-0.6730520">
        <ele>512.4</ele>
        <time>2019-01-05T08:28:30Z</time>
      </trkpt>
      <trkpt lat="38.8944430" lon="-0.6729590">
        <ele>513.2</ele>
        <time>2019-01-05T08:28:34Z</time>
      </trkpt>
      <trkpt lat="38.8944700" lon="-0.6729240">
        <ele>513.4</ele>
        <time>2019-01-05T08:28:36Z</time>
      </trkpt>
      <trkpt lat="38.8944890" lon="-0.6728900">
        <ele>513.2</ele>
        <time>2019-01-05T08:28:38Z</time>
      </trkpt>
      <trkpt lat="38.8944600" lon="-0.6727990">
        <ele>513.0</ele>
        <time>2019-01-05T08:28:42Z</time>
      </trkpt>
      <trkpt lat="38.8944900" lon="-0.6726810">
        <ele>514.2</ele>
        <time>2019-01-05T08:28:47Z</time>
      </trkpt>
      <trkpt lat="38.8945040" lon="-0.6726720">
        <ele>513.8</ele>
        <time>2019-01-05T08:28:48Z</time>
      </trkpt>
      <trkpt lat="38.8945390" lon="-0.6726490">
        <ele>513.0</ele>
        <time>2019-01-05T08:28:50Z</time>
      </trkpt>
      <trkpt lat="38.8945530" lon="-0.6726310">
        <ele>513.0</ele>
        <time>2019-01-05T08:28:51Z</time>
      </trkpt>
      <trkpt lat="38.8945610" lon="-0.6726150">
        <ele>513.0</ele>
        <time>2019-01-05T08:28:52Z</time>
      </trkpt>
      <trkpt lat="38.8945560" lon="-0.6725970">
        <ele>513.0</ele>
        <time>2019-01-05T08:28:55Z</time>
      </trkpt>
      <trkpt lat="38.8945560" lon="-0.6725870">
        <ele>514.6</ele>
        <time>2019-01-05T08:28:59Z</time>
      </trkpt>
      <trkpt lat="38.8945540" lon="-0.6725720">
        <ele>515.6</ele>
        <time>2019-01-05T08:29:01Z</time>
      </trkpt>
      <trkpt lat="38.8945560" lon="-0.6725600">
        <ele>516.8</ele>
        <time>2019-01-05T08:29:03Z</time>
      </trkpt>
      <trkpt lat="38.8945390" lon="-0.6725390">
        <ele>517.4</ele>
        <time>2019-01-05T08:29:05Z</time>
      </trkpt>
      <trkpt lat="38.8945420" lon="-0.6725260">
        <ele>517.8</ele>
        <time>2019-01-05T08:29:06Z</time>
      </trkpt>
      <trkpt lat="38.8945580" lon="-0.6725110">
        <ele>518.2</ele>
        <time>2019-01-05T08:29:08Z</time>
      </trkpt>
      <trkpt lat="38.8945730" lon="-0.6724860">
        <ele>518.6</ele>
        <time>2019-01-05T08:29:10Z</time>
      </trkpt>
      <trkpt lat="38.8945950" lon="-0.6724480">
        <ele>518.8</ele>
        <time>2019-01-05T08:29:12Z</time>
      </trkpt>
      <trkpt lat="38.8946400" lon="-0.6723690">
        <ele>519.0</ele>
        <time>2019-01-05T08:29:15Z</time>
      </trkpt>
      <trkpt lat="38.8946620" lon="-0.6723220">
        <ele>519.2</ele>
        <time>2019-01-05T08:29:18Z</time>
      </trkpt>
      <trkpt lat="38.8946700" lon="-0.6723160">
        <ele>519.2</ele>
        <time>2019-01-05T08:29:19Z</time>
      </trkpt>
      <trkpt lat="38.8946820" lon="-0.6722790">
        <ele>519.2</ele>
        <time>2019-01-05T08:29:22Z</time>
      </trkpt>
      <trkpt lat="38.8947070" lon="-0.6722370">
        <ele>519.4</ele>
        <time>2019-01-05T08:29:25Z</time>
      </trkpt>
      <trkpt lat="38.8947270" lon="-0.6722180">
        <ele>519.6</ele>
        <time>2019-01-05T08:29:27Z</time>
      </trkpt>
      <trkpt lat="38.8947490" lon="-0.6721940">
        <ele>519.6</ele>
        <time>2019-01-05T08:29:29Z</time>
      </trkpt>
      <trkpt lat="38.8947820" lon="-0.6721650">
        <ele>519.4</ele>
        <time>2019-01-05T08:29:31Z</time>
      </trkpt>
      <trkpt lat="38.8947910" lon="-0.6721490">
        <ele>519.2</ele>
        <time>2019-01-05T08:29:32Z</time>
      </trkpt>
      <trkpt lat="38.8947950" lon="-0.6721230">
        <ele>518.8</ele>
        <time>2019-01-05T08:29:34Z</time>
      </trkpt>
      <trkpt lat="38.8947950" lon="-0.6721120">
        <ele>518.6</ele>
        <time>2019-01-05T08:29:35Z</time>
      </trkpt>
      <trkpt lat="38.8948260" lon="-0.6720740">
        <ele>518.8</ele>
        <time>2019-01-05T08:29:38Z</time>
      </trkpt>
      <trkpt lat="38.8948380" lon="-0.6720490">
        <ele>518.8</ele>
        <time>2019-01-05T08:29:39Z</time>
      </trkpt>
      <trkpt lat="38.8948750" lon="-0.6719610">
        <ele>518.4</ele>
        <time>2019-01-05T08:29:43Z</time>
      </trkpt>
      <trkpt lat="38.8949450" lon="-0.6719390">
        <ele>517.6</ele>
        <time>2019-01-05T08:29:47Z</time>
      </trkpt>
      <trkpt lat="38.8950320" lon="-0.6718890">
        <ele>516.4</ele>
        <time>2019-01-05T08:29:51Z</time>
      </trkpt>
      <trkpt lat="38.8950550" lon="-0.6718810">
        <ele>516.2</ele>
        <time>2019-01-05T08:29:52Z</time>
      </trkpt>
      <trkpt lat="38.8950730" lon="-0.6718690">
        <ele>516.2</ele>
        <time>2019-01-05T08:29:53Z</time>
      </trkpt>
      <trkpt lat="38.8951360" lon="-0.6718160">
        <ele>515.2</ele>
        <time>2019-01-05T08:29:57Z</time>
      </trkpt>
      <trkpt lat="38.8951480" lon="-0.6718010">
        <ele>515.4</ele>
        <time>2019-01-05T08:29:58Z</time>
      </trkpt>
      <trkpt lat="38.8951480" lon="-0.6717880">
        <ele>515.6</ele>
        <time>2019-01-05T08:29:59Z</time>
      </trkpt>
      <trkpt lat="38.8951470" lon="-0.6717590">
        <ele>516.0</ele>
        <time>2019-01-05T08:30:01Z</time>
      </trkpt>
      <trkpt lat="38.8951540" lon="-0.6717400">
        <ele>516.2</ele>
        <time>2019-01-05T08:30:03Z</time>
      </trkpt>
      <trkpt lat="38.8951510" lon="-0.6717190">
        <ele>517.0</ele>
        <time>2019-01-05T08:30:05Z</time>
      </trkpt>
      <trkpt lat="38.8951510" lon="-0.6717120">
        <ele>517.4</ele>
        <time>2019-01-05T08:30:06Z</time>
      </trkpt>
      <trkpt lat="38.8951670" lon="-0.6716990">
        <ele>518.4</ele>
        <time>2019-01-05T08:30:09Z</time>
      </trkpt>
      <trkpt lat="38.8951870" lon="-0.6716870">
        <ele>518.8</ele>
        <time>2019-01-05T08:30:11Z</time>
      </trkpt>
      <trkpt lat="38.8952060" lon="-0.6716180">
        <ele>518.8</ele>
        <time>2019-01-05T08:30:15Z</time>
      </trkpt>
      <trkpt lat="38.8952120" lon="-0.6715840">
        <ele>519.8</ele>
        <time>2019-01-05T08:30:18Z</time>
      </trkpt>
      <trkpt lat="38.8952110" lon="-0.6715550">
        <ele>520.6</ele>
        <time>2019-01-05T08:30:20Z</time>
      </trkpt>
      <trkpt lat="38.8952150" lon="-0.6715410">
        <ele>521.2</ele>
        <time>2019-01-05T08:30:21Z</time>
      </trkpt>
      <trkpt lat="38.8952400" lon="-0.6715120">
        <ele>522.0</ele>
        <time>2019-01-05T08:30:24Z</time>
      </trkpt>
      <trkpt lat="38.8952510" lon="-0.6715010">
        <ele>522.2</ele>
        <time>2019-01-05T08:30:25Z</time>
      </trkpt>
      <trkpt lat="38.8952620" lon="-0.6714860">
        <ele>522.2</ele>
        <time>2019-01-05T08:30:26Z</time>
      </trkpt>
      <trkpt lat="38.8952920" lon="-0.6714060">
        <ele>522.2</ele>
        <time>2019-01-05T08:30:30Z</time>
      </trkpt>
      <trkpt lat="38.8953250" lon="-0.6713300">
        <ele>522.8</ele>
        <time>2019-01-05T08:30:34Z</time>
      </trkpt>
      <trkpt lat="38.8953290" lon="-0.6713230">
        <ele>523.0</ele>
        <time>2019-01-05T08:30:35Z</time>
      </trkpt>
      <trkpt lat="38.8953400" lon="-0.6713050">
        <ele>523.4</ele>
        <time>2019-01-05T08:30:37Z</time>
      </trkpt>
      <trkpt lat="38.8953540" lon="-0.6712650">
        <ele>523.4</ele>
        <time>2019-01-05T08:30:40Z</time>
      </trkpt>
      <trkpt lat="38.8953560" lon="-0.6712480">
        <ele>523.6</ele>
        <time>2019-01-05T08:30:42Z</time>
      </trkpt>
      <trkpt lat="38.8953570" lon="-0.6712380">
        <ele>524.0</ele>
        <time>2019-01-05T08:30:44Z</time>
      </trkpt>
      <trkpt lat="38.8953610" lon="-0.6712350">
        <ele>524.4</ele>
        <time>2019-01-05T08:30:45Z</time>
      </trkpt>
      <trkpt lat="38.8953630" lon="-0.6712110">
        <ele>525.6</ele>
        <time>2019-01-05T08:30:49Z</time>
      </trkpt>
      <trkpt lat="38.8953620" lon="-0.6711990">
        <ele>526.0</ele>
        <time>2019-01-05T08:30:50Z</time>
      </trkpt>
      <trkpt lat="38.8953640" lon="-0.6711630">
        <ele>526.2</ele>
        <time>2019-01-05T08:30:52Z</time>
      </trkpt>
      <trkpt lat="38.8953700" lon="-0.6711330">
        <ele>526.4</ele>
        <time>2019-01-05T08:30:54Z</time>
      </trkpt>
      <trkpt lat="38.8953720" lon="-0.6711160">
        <ele>526.8</ele>
        <time>2019-01-05T08:30:55Z</time>
      </trkpt>
      <trkpt lat="38.8953700" lon="-0.6710740">
        <ele>527.4</ele>
        <time>2019-01-05T08:30:58Z</time>
      </trkpt>
      <trkpt lat="38.8953690" lon="-0.6710610">
        <ele>527.6</ele>
        <time>2019-01-05T08:30:59Z</time>
      </trkpt>
      <trkpt lat="38.8953680" lon="-0.6710510">
        <ele>527.6</ele>
        <time>2019-01-05T08:31:00Z</time>
      </trkpt>
      <trkpt lat="38.8953640" lon="-0.6710420">
        <ele>528.0</ele>
        <time>2019-01-05T08:31:01Z</time>
      </trkpt>
      <trkpt lat="38.8953710" lon="-0.6710150">
        <ele>528.2</ele>
        <time>2019-01-05T08:31:03Z</time>
      </trkpt>
      <trkpt lat="38.8954140" lon="-0.6709220">
        <ele>528.2</ele>
        <time>2019-01-05T08:31:08Z</time>
      </trkpt>
      <trkpt lat="38.8954170" lon="-0.6709020">
        <ele>528.0</ele>
        <time>2019-01-05T08:31:09Z</time>
      </trkpt>
      <trkpt lat="38.8954300" lon="-0.6708360">
        <ele>528.2</ele>
        <time>2019-01-05T08:31:12Z</time>
      </trkpt>
      <trkpt lat="38.8954420" lon="-0.6707840">
        <ele>528.4</ele>
        <time>2019-01-05T08:31:15Z</time>
      </trkpt>
      <trkpt lat="38.8954440" lon="-0.6707510">
        <ele>528.2</ele>
        <time>2019-01-05T08:31:17Z</time>
      </trkpt>
      <trkpt lat="38.8954330" lon="-0.6707100">
        <ele>528.8</ele>
        <time>2019-01-05T08:31:23Z</time>
      </trkpt>
      <trkpt lat="38.8954290" lon="-0.6706970">
        <ele>529.0</ele>
        <time>2019-01-05T08:31:24Z</time>
      </trkpt>
      <trkpt lat="38.8954200" lon="-0.6706570">
        <ele>529.6</ele>
        <time>2019-01-05T08:31:27Z</time>
      </trkpt>
      <trkpt lat="38.8954150" lon="-0.6706520">
        <ele>530.0</ele>
        <time>2019-01-05T08:31:29Z</time>
      </trkpt>
      <trkpt lat="38.8954180" lon="-0.6706470">
        <ele>530.0</ele>
        <time>2019-01-05T08:31:30Z</time>
      </trkpt>
      <trkpt lat="38.8954050" lon="-0.6706440">
        <ele>530.6</ele>
        <time>2019-01-05T08:31:34Z</time>
      </trkpt>
      <trkpt lat="38.8954070" lon="-0.6706470">
        <ele>530.8</ele>
        <time>2019-01-05T08:31:35Z</time>
      </trkpt>
      <trkpt lat="38.8954090" lon="-0.6706530">
        <ele>531.4</ele>
        <time>2019-01-05T08:31:36Z</time>
      </trkpt>
      <trkpt lat="38.8954020" lon="-0.6706590">
        <ele>532.6</ele>
        <time>2019-01-05T08:31:39Z</time>
      </trkpt>
      <trkpt lat="38.8953890" lon="-0.6706550">
        <ele>533.0</ele>
        <time>2019-01-05T08:31:40Z</time>
      </trkpt>
      <trkpt lat="38.8953770" lon="-0.6706310">
        <ele>533.6</ele>
        <time>2019-01-05T08:31:45Z</time>
      </trkpt>
      <trkpt lat="38.8953710" lon="-0.6706280">
        <ele>534.0</ele>
        <time>2019-01-05T08:31:46Z</time>
      </trkpt>
      <trkpt lat="38.8953630" lon="-0.6706170">
        <ele>535.2</ele>
        <time>2019-01-05T08:31:49Z</time>
      </trkpt>
      <trkpt lat="38.8953550" lon="-0.6706040">
        <ele>536.4</ele>
        <time>2019-01-05T08:31:51Z</time>
      </trkpt>
      <trkpt lat="38.8953360" lon="-0.6705640">
        <ele>536.8</ele>
        <time>2019-01-05T08:31:53Z</time>
      </trkpt>
      <trkpt lat="38.8953280" lon="-0.6705390">
        <ele>536.4</ele>
        <time>2019-01-05T08:31:54Z</time>
      </trkpt>
      <trkpt lat="38.8952960" lon="-0.6704300">
        <ele>535.4</ele>
        <time>2019-01-05T08:31:58Z</time>
      </trkpt>
      <trkpt lat="38.8952820" lon="-0.6704150">
        <ele>535.4</ele>
        <time>2019-01-05T08:31:59Z</time>
      </trkpt>
      <trkpt lat="38.8952620" lon="-0.6703860">
        <ele>535.6</ele>
        <time>2019-01-05T08:32:01Z</time>
      </trkpt>
      <trkpt lat="38.8952520" lon="-0.6703660">
        <ele>535.8</ele>
        <time>2019-01-05T08:32:02Z</time>
      </trkpt>
      <trkpt lat="38.8952440" lon="-0.6703480">
        <ele>535.8</ele>
        <time>2019-01-05T08:32:03Z</time>
      </trkpt>
      <trkpt lat="38.8952400" lon="-0.6703060">
        <ele>536.0</ele>
        <time>2019-01-05T08:32:05Z</time>
      </trkpt>
      <trkpt lat="38.8952420" lon="-0.6702800">
        <ele>536.0</ele>
        <time>2019-01-05T08:32:06Z</time>
      </trkpt>
      <trkpt lat="38.8952440" lon="-0.6702310">
        <ele>536.2</ele>
        <time>2019-01-05T08:32:09Z</time>
      </trkpt>
      <trkpt lat="38.8952400" lon="-0.6702070">
        <ele>536.4</ele>
        <time>2019-01-05T08:32:11Z</time>
      </trkpt>
      <trkpt lat="38.8952350" lon="-0.6701970">
        <ele>536.6</ele>
        <time>2019-01-05T08:32:12Z</time>
      </trkpt>
      <trkpt lat="38.8952140" lon="-0.6701630">
        <ele>537.4</ele>
        <time>2019-01-05T08:32:15Z</time>
      </trkpt>
      <trkpt lat="38.8952090" lon="-0.6701570">
        <ele>537.8</ele>
        <time>2019-01-05T08:32:16Z</time>
      </trkpt>
      <trkpt lat="38.8951980" lon="-0.6701420">
        <ele>538.6</ele>
        <time>2019-01-05T08:32:18Z</time>
      </trkpt>
      <trkpt lat="38.8951690" lon="-0.6701120">
        <ele>539.2</ele>
        <time>2019-01-05T08:32:20Z</time>
      </trkpt>
      <trkpt lat="38.8951520" lon="-0.6701030">
        <ele>539.6</ele>
        <time>2019-01-05T08:32:22Z</time>
      </trkpt>
      <trkpt lat="38.8951250" lon="-0.6701130">
        <ele>540.0</ele>
        <time>2019-01-05T08:32:25Z</time>
      </trkpt>
      <trkpt lat="38.8951150" lon="-0.6701100">
        <ele>540.4</ele>
        <time>2019-01-05T08:32:27Z</time>
      </trkpt>
      <trkpt lat="38.8951120" lon="-0.6701050">
        <ele>540.8</ele>
        <time>2019-01-05T08:32:28Z</time>
      </trkpt>
      <trkpt lat="38.8951020" lon="-0.6700900">
        <ele>541.2</ele>
        <time>2019-01-05T08:32:29Z</time>
      </trkpt>
      <trkpt lat="38.8950880" lon="-0.6700680">
        <ele>541.6</ele>
        <time>2019-01-05T08:32:31Z</time>
      </trkpt>
      <trkpt lat="38.8950580" lon="-0.6700410">
        <ele>542.4</ele>
        <time>2019-01-05T08:32:34Z</time>
      </trkpt>
      <trkpt lat="38.8950410" lon="-0.6700230">
        <ele>542.6</ele>
        <time>2019-01-05T08:32:36Z</time>
      </trkpt>
      <trkpt lat="38.8950150" lon="-0.6699990">
        <ele>542.8</ele>
        <time>2019-01-05T08:32:38Z</time>
      </trkpt>
      <trkpt lat="38.8949930" lon="-0.6698890">
        <ele>543.6</ele>
        <time>2019-01-05T08:32:43Z</time>
      </trkpt>
      <trkpt lat="38.8950020" lon="-0.6698340">
        <ele>543.6</ele>
        <time>2019-01-05T08:32:45Z</time>
      </trkpt>
      <trkpt lat="38.8950210" lon="-0.6697490">
        <ele>543.8</ele>
        <time>2019-01-05T08:32:48Z</time>
      </trkpt>
      <trkpt lat="38.8950200" lon="-0.6697010">
        <ele>543.4</ele>
        <time>2019-01-05T08:32:51Z</time>
      </trkpt>
      <trkpt lat="38.8949980" lon="-0.6696850">
        <ele>543.4</ele>
        <time>2019-01-05T08:32:53Z</time>
      </trkpt>
      <trkpt lat="38.8949750" lon="-0.6696620">
        <ele>543.6</ele>
        <time>2019-01-05T08:32:55Z</time>
      </trkpt>
      <trkpt lat="38.8949540" lon="-0.6696320">
        <ele>543.4</ele>
        <time>2019-01-05T08:32:57Z</time>
      </trkpt>
      <trkpt lat="38.8949520" lon="-0.6696130">
        <ele>543.6</ele>
        <time>2019-01-05T08:32:58Z</time>
      </trkpt>
      <trkpt lat="38.8950110" lon="-0.6694970">
        <ele>543.4</ele>
        <time>2019-01-05T08:33:02Z</time>
      </trkpt>
      <trkpt lat="38.8950120" lon="-0.6694710">
        <ele>543.4</ele>
        <time>2019-01-05T08:33:03Z</time>
      </trkpt>
      <trkpt lat="38.8950100" lon="-0.6694020">
        <ele>543.6</ele>
        <time>2019-01-05T08:33:06Z</time>
      </trkpt>
      <trkpt lat="38.8949810" lon="-0.6693140">
        <ele>543.8</ele>
        <time>2019-01-05T08:33:12Z</time>
      </trkpt>
      <trkpt lat="38.8949780" lon="-0.6693060">
        <ele>544.0</ele>
        <time>2019-01-05T08:33:13Z</time>
      </trkpt>
      <trkpt lat="38.8949560" lon="-0.6692860">
        <ele>544.0</ele>
        <time>2019-01-05T08:33:16Z</time>
      </trkpt>
      <trkpt lat="38.8949460" lon="-0.6692830">
        <ele>544.2</ele>
        <time>2019-01-05T08:33:17Z</time>
      </trkpt>
      <trkpt lat="38.8949380" lon="-0.6692680">
        <ele>544.6</ele>
        <time>2019-01-05T08:33:18Z</time>
      </trkpt>
      <trkpt lat="38.8949310" lon="-0.6692530">
        <ele>544.8</ele>
        <time>2019-01-05T08:33:19Z</time>
      </trkpt>
      <trkpt lat="38.8949250" lon="-0.6692240">
        <ele>545.4</ele>
        <time>2019-01-05T08:33:21Z</time>
      </trkpt>
      <trkpt lat="38.8949190" lon="-0.6691890">
        <ele>545.4</ele>
        <time>2019-01-05T08:33:23Z</time>
      </trkpt>
      <trkpt lat="38.8949230" lon="-0.6691450">
        <ele>545.4</ele>
        <time>2019-01-05T08:33:25Z</time>
      </trkpt>
      <trkpt lat="38.8949330" lon="-0.6691160">
        <ele>545.2</ele>
        <time>2019-01-05T08:33:26Z</time>
      </trkpt>
      <trkpt lat="38.8949820" lon="-0.6689990">
        <ele>545.0</ele>
        <time>2019-01-05T08:33:30Z</time>
      </trkpt>
      <trkpt lat="38.8949910" lon="-0.6689600">
        <ele>545.2</ele>
        <time>2019-01-05T08:33:32Z</time>
      </trkpt>
      <trkpt lat="38.8949790" lon="-0.6689290">
        <ele>545.2</ele>
        <time>2019-01-05T08:33:34Z</time>
      </trkpt>
      <trkpt lat="38.8949660" lon="-0.6689170">
        <ele>545.4</ele>
        <time>2019-01-05T08:33:36Z</time>
      </trkpt>
      <trkpt lat="38.8949360" lon="-0.6689030">
        <ele>545.8</ele>
        <time>2019-01-05T08:33:39Z</time>
      </trkpt>
      <trkpt lat="38.8949290" lon="-0.6688910">
        <ele>546.2</ele>
        <time>2019-01-05T08:33:40Z</time>
      </trkpt>
      <trkpt lat="38.8949150" lon="-0.6688460">
        <ele>547.6</ele>
        <time>2019-01-05T08:33:43Z</time>
      </trkpt>
      <trkpt lat="38.8949150" lon="-0.6688290">
        <ele>548.0</ele>
        <time>2019-01-05T08:33:44Z</time>
      </trkpt>
      <trkpt lat="38.8949250" lon="-0.6687640">
        <ele>547.6</ele>
        <time>2019-01-05T08:33:47Z</time>
      </trkpt>
      <trkpt lat="38.8949420" lon="-0.6687470">
        <ele>547.4</ele>
        <time>2019-01-05T08:33:48Z</time>
      </trkpt>
      <trkpt lat="38.8949580" lon="-0.6687270">
        <ele>547.0</ele>
        <time>2019-01-05T08:33:49Z</time>
      </trkpt>
      <trkpt lat="38.8949810" lon="-0.6686780">
        <ele>546.4</ele>
        <time>2019-01-05T08:33:51Z</time>
      </trkpt>
      <trkpt lat="38.8950020" lon="-0.6685860">
        <ele>546.4</ele>
        <time>2019-01-05T08:33:54Z</time>
      </trkpt>
      <trkpt lat="38.8950050" lon="-0.6685540">
        <ele>546.4</ele>
        <time>2019-01-05T08:33:55Z</time>
      </trkpt>
      <trkpt lat="38.8949770" lon="-0.6684670">
        <ele>546.8</ele>
        <time>2019-01-05T08:33:58Z</time>
      </trkpt>
      <trkpt lat="38.8949700" lon="-0.6684410">
        <ele>547.2</ele>
        <time>2019-01-05T08:33:59Z</time>
      </trkpt>
      <trkpt lat="38.8949590" lon="-0.6684140">
        <ele>547.6</ele>
        <time>2019-01-05T08:34:00Z</time>
      </trkpt>
      <trkpt lat="38.8949350" lon="-0.6683890">
        <ele>547.8</ele>
        <time>2019-01-05T08:34:01Z</time>
      </trkpt>
      <trkpt lat="38.8949030" lon="-0.6683590">
        <ele>548.2</ele>
        <time>2019-01-05T08:34:03Z</time>
      </trkpt>
      <trkpt lat="38.8948860" lon="-0.6683430">
        <ele>548.4</ele>
        <time>2019-01-05T08:34:04Z</time>
      </trkpt>
      <trkpt lat="38.8948790" lon="-0.6683250">
        <ele>548.8</ele>
        <time>2019-01-05T08:34:05Z</time>
      </trkpt>
      <trkpt lat="38.8948810" lon="-0.6682670">
        <ele>548.8</ele>
        <time>2019-01-05T08:34:07Z</time>
      </trkpt>
      <trkpt lat="38.8948860" lon="-0.6682350">
        <ele>548.8</ele>
        <time>2019-01-05T08:34:08Z</time>
      </trkpt>
      <trkpt lat="38.8949140" lon="-0.6681520">
        <ele>549.0</ele>
        <time>2019-01-05T08:34:11Z</time>
      </trkpt>
      <trkpt lat="38.8949240" lon="-0.6681300">
        <ele>549.2</ele>
        <time>2019-01-05T08:34:12Z</time>
      </trkpt>
      <trkpt lat="38.8949520" lon="-0.6680940">
        <ele>550.0</ele>
        <time>2019-01-05T08:34:14Z</time>
      </trkpt>
      <trkpt lat="38.8949690" lon="-0.6680580">
        <ele>551.0</ele>
        <time>2019-01-05T08:34:16Z</time>
      </trkpt>
      <trkpt lat="38.8949800" lon="-0.6680340">
        <ele>551.0</ele>
        <time>2019-01-05T08:34:17Z</time>
      </trkpt>
      <trkpt lat="38.8950200" lon="-0.6679450">
        <ele>550.8</ele>
        <time>2019-01-05T08:34:21Z</time>
      </trkpt>
      <trkpt lat="38.8950520" lon="-0.6678480">
        <ele>551.4</ele>
        <time>2019-01-05T08:34:25Z</time>
      </trkpt>
      <trkpt lat="38.8950560" lon="-0.6678310">
        <ele>552.0</ele>
        <time>2019-01-05T08:34:26Z</time>
      </trkpt>
      <trkpt lat="38.8950630" lon="-0.6678130">
        <ele>552.4</ele>
        <time>2019-01-05T08:34:27Z</time>
      </trkpt>
      <trkpt lat="38.8950850" lon="-0.6677470">
        <ele>552.6</ele>
        <time>2019-01-05T08:34:30Z</time>
      </trkpt>
      <trkpt lat="38.8951450" lon="-0.6676550">
        <ele>552.6</ele>
        <time>2019-01-05T08:34:35Z</time>
      </trkpt>
      <trkpt lat="38.8951610" lon="-0.6676370">
        <ele>552.6</ele>
        <time>2019-01-05T08:34:36Z</time>
      </trkpt>
      <trkpt lat="38.8952150" lon="-0.6675690">
        <ele>552.2</ele>
        <time>2019-01-05T08:34:40Z</time>
      </trkpt>
      <trkpt lat="38.8952260" lon="-0.6675250">
        <ele>552.0</ele>
        <time>2019-01-05T08:34:42Z</time>
      </trkpt>
      <trkpt lat="38.8952320" lon="-0.6675060">
        <ele>552.0</ele>
        <time>2019-01-05T08:34:43Z</time>
      </trkpt>
      <trkpt lat="38.8952500" lon="-0.6674650">
        <ele>551.2</ele>
        <time>2019-01-05T08:34:45Z</time>
      </trkpt>
      <trkpt lat="38.8952520" lon="-0.6674440">
        <ele>550.4</ele>
        <time>2019-01-05T08:34:46Z</time>
      </trkpt>
      <trkpt lat="38.8952550" lon="-0.6674210">
        <ele>549.8</ele>
        <time>2019-01-05T08:34:47Z</time>
      </trkpt>
      <trkpt lat="38.8952860" lon="-0.6673720">
        <ele>548.8</ele>
        <time>2019-01-05T08:34:50Z</time>
      </trkpt>
      <trkpt lat="38.8952950" lon="-0.6673560">
        <ele>548.0</ele>
        <time>2019-01-05T08:34:51Z</time>
      </trkpt>
      <trkpt lat="38.8953010" lon="-0.6673420">
        <ele>547.0</ele>
        <time>2019-01-05T08:34:52Z</time>
      </trkpt>
      <trkpt lat="38.8953240" lon="-0.6673170">
        <ele>546.0</ele>
        <time>2019-01-05T08:34:54Z</time>
      </trkpt>
      <trkpt lat="38.8953430" lon="-0.6672900">
        <ele>545.4</ele>
        <time>2019-01-05T08:34:56Z</time>
      </trkpt>
      <trkpt lat="38.8953490" lon="-0.6672800">
        <ele>545.0</ele>
        <time>2019-01-05T08:34:57Z</time>
      </trkpt>
      <trkpt lat="38.8953920" lon="-0.6672260">
        <ele>543.4</ele>
        <time>2019-01-05T08:35:01Z</time>
      </trkpt>
      <trkpt lat="38.8954060" lon="-0.6672100">
        <ele>543.0</ele>
        <time>2019-01-05T08:35:02Z</time>
      </trkpt>
      <trkpt lat="38.8954350" lon="-0.6671750">
        <ele>542.2</ele>
        <time>2019-01-05T08:35:04Z</time>
      </trkpt>
      <trkpt lat="38.8954640" lon="-0.6671440">
        <ele>541.0</ele>
        <time>2019-01-05T08:35:06Z</time>
      </trkpt>
      <trkpt lat="38.8954770" lon="-0.6671330">
        <ele>540.6</ele>
        <time>2019-01-05T08:35:07Z</time>
      </trkpt>
      <trkpt lat="38.8955110" lon="-0.6671000">
        <ele>539.6</ele>
        <time>2019-01-05T08:35:09Z</time>
      </trkpt>
      <trkpt lat="38.8955450" lon="-0.6670630">
        <ele>538.4</ele>
        <time>2019-01-05T08:35:11Z</time>
      </trkpt>
      <trkpt lat="38.8955640" lon="-0.6670490">
        <ele>538.0</ele>
        <time>2019-01-05T08:35:12Z</time>
      </trkpt>
      <trkpt lat="38.8956060" lon="-0.6669950">
        <ele>537.0</ele>
        <time>2019-01-05T08:35:15Z</time>
      </trkpt>
      <trkpt lat="38.8956190" lon="-0.6669770">
        <ele>536.6</ele>
        <time>2019-01-05T08:35:16Z</time>
      </trkpt>
      <trkpt lat="38.8956350" lon="-0.6669650">
        <ele>536.2</ele>
        <time>2019-01-05T08:35:17Z</time>
      </trkpt>
      <trkpt lat="38.8956510" lon="-0.6669540">
        <ele>535.6</ele>
        <time>2019-01-05T08:35:18Z</time>
      </trkpt>
      <trkpt lat="38.8956730" lon="-0.6669270">
        <ele>534.4</ele>
        <time>2019-01-05T08:35:20Z</time>
      </trkpt>
      <trkpt lat="38.8957200" lon="-0.6668630">
        <ele>532.8</ele>
        <time>2019-01-05T08:35:24Z</time>
      </trkpt>
      <trkpt lat="38.8957500" lon="-0.6668280">
        <ele>531.4</ele>
        <time>2019-01-05T08:35:26Z</time>
      </trkpt>
      <trkpt lat="38.8957720" lon="-0.6668010">
        <ele>530.4</ele>
        <time>2019-01-05T08:35:28Z</time>
      </trkpt>
      <trkpt lat="38.8958240" lon="-0.6667870">
        <ele>529.0</ele>
        <time>2019-01-05T08:35:31Z</time>
      </trkpt>
      <trkpt lat="38.8958960" lon="-0.6668030">
        <ele>527.6</ele>
        <time>2019-01-05T08:35:36Z</time>
      </trkpt>
      <trkpt lat="38.8959220" lon="-0.6668110">
        <ele>526.8</ele>
        <time>2019-01-05T08:35:38Z</time>
      </trkpt>
      <trkpt lat="38.8959570" lon="-0.6668340">
        <ele>526.6</ele>
        <time>2019-01-05T08:35:40Z</time>
      </trkpt>
      <trkpt lat="38.8960180" lon="-0.6668650">
        <ele>525.0</ele>
        <time>2019-01-05T08:35:44Z</time>
      </trkpt>
      <trkpt lat="38.8960470" lon="-0.6668870">
        <ele>524.4</ele>
        <time>2019-01-05T08:35:46Z</time>
      </trkpt>
      <trkpt lat="38.8960620" lon="-0.6668890">
        <ele>524.0</ele>
        <time>2019-01-05T08:35:47Z</time>
      </trkpt>
      <trkpt lat="38.8961070" lon="-0.6669140">
        <ele>523.0</ele>
        <time>2019-01-05T08:35:49Z</time>
      </trkpt>
      <trkpt lat="38.8961370" lon="-0.6669230">
        <ele>522.4</ele>
        <time>2019-01-05T08:35:50Z</time>
      </trkpt>
      <trkpt lat="38.8961900" lon="-0.6669340">
        <ele>521.8</ele>
        <time>2019-01-05T08:35:52Z</time>
      </trkpt>
      <trkpt lat="38.8962880" lon="-0.6668770">
        <ele>522.0</ele>
        <time>2019-01-05T08:35:57Z</time>
      </trkpt>
      <trkpt lat="38.8963130" lon="-0.6668410">
        <ele>523.4</ele>
        <time>2019-01-05T08:35:59Z</time>
      </trkpt>
      <trkpt lat="38.8963260" lon="-0.6667900">
        <ele>523.8</ele>
        <time>2019-01-05T08:36:01Z</time>
      </trkpt>
      <trkpt lat="38.8963520" lon="-0.6667300">
        <ele>524.2</ele>
        <time>2019-01-05T08:36:03Z</time>
      </trkpt>
      <trkpt lat="38.8963590" lon="-0.6667060">
        <ele>524.6</ele>
        <time>2019-01-05T08:36:04Z</time>
      </trkpt>
      <trkpt lat="38.8963710" lon="-0.6666460">
        <ele>524.6</ele>
        <time>2019-01-05T08:36:06Z</time>
      </trkpt>
      <trkpt lat="38.8963980" lon="-0.6665920">
        <ele>524.8</ele>
        <time>2019-01-05T08:36:08Z</time>
      </trkpt>
      <trkpt lat="38.8964220" lon="-0.6665410">
        <ele>525.0</ele>
        <time>2019-01-05T08:36:10Z</time>
      </trkpt>
      <trkpt lat="38.8964420" lon="-0.6664940">
        <ele>525.2</ele>
        <time>2019-01-05T08:36:12Z</time>
      </trkpt>
      <trkpt lat="38.8964480" lon="-0.6664680">
        <ele>525.8</ele>
        <time>2019-01-05T08:36:13Z</time>
      </trkpt>
      <trkpt lat="38.8964860" lon="-0.6663980">
        <ele>526.4</ele>
        <time>2019-01-05T08:36:16Z</time>
      </trkpt>
      <trkpt lat="38.8964940" lon="-0.6663750">
        <ele>526.8</ele>
        <time>2019-01-05T08:36:17Z</time>
      </trkpt>
      <trkpt lat="38.8965020" lon="-0.6662910">
        <ele>527.4</ele>
        <time>2019-01-05T08:36:20Z</time>
      </trkpt>
      <trkpt lat="38.8965080" lon="-0.6662630">
        <ele>527.4</ele>
        <time>2019-01-05T08:36:21Z</time>
      </trkpt>
      <trkpt lat="38.8965150" lon="-0.6662330">
        <ele>528.0</ele>
        <time>2019-01-05T08:36:22Z</time>
      </trkpt>
      <trkpt lat="38.8965090" lon="-0.6661430">
        <ele>527.8</ele>
        <time>2019-01-05T08:36:25Z</time>
      </trkpt>
      <trkpt lat="38.8965220" lon="-0.6660530">
        <ele>527.6</ele>
        <time>2019-01-05T08:36:28Z</time>
      </trkpt>
      <trkpt lat="38.8965220" lon="-0.6660210">
        <ele>527.6</ele>
        <time>2019-01-05T08:36:29Z</time>
      </trkpt>
      <trkpt lat="38.8965260" lon="-0.6659900">
        <ele>527.6</ele>
        <time>2019-01-05T08:36:30Z</time>
      </trkpt>
      <trkpt lat="38.8965380" lon="-0.6659010">
        <ele>526.8</ele>
        <time>2019-01-05T08:36:33Z</time>
      </trkpt>
      <trkpt lat="38.8965730" lon="-0.6657550">
        <ele>526.6</ele>
        <time>2019-01-05T08:36:38Z</time>
      </trkpt>
      <trkpt lat="38.8965740" lon="-0.6656220">
        <ele>526.4</ele>
        <time>2019-01-05T08:36:42Z</time>
      </trkpt>
      <trkpt lat="38.8965870" lon="-0.6655600">
        <ele>525.4</ele>
        <time>2019-01-05T08:36:44Z</time>
      </trkpt>
      <trkpt lat="38.8965950" lon="-0.6654910">
        <ele>524.2</ele>
        <time>2019-01-05T08:36:46Z</time>
      </trkpt>
      <trkpt lat="38.8965880" lon="-0.6654170">
        <ele>523.6</ele>
        <time>2019-01-05T08:36:48Z</time>
      </trkpt>
      <trkpt lat="38.8965770" lon="-0.6653530">
        <ele>523.8</ele>
        <time>2019-01-05T08:36:50Z</time>
      </trkpt>
      <trkpt lat="38.8965920" lon="-0.6652270">
        <ele>524.4</ele>
        <time>2019-01-05T08:36:54Z</time>
      </trkpt>
      <trkpt lat="38.8965870" lon="-0.6651050">
        <ele>523.6</ele>
        <time>2019-01-05T08:36:58Z</time>
      </trkpt>
      <trkpt lat="38.8965880" lon="-0.6650740">
        <ele>523.6</ele>
        <time>2019-01-05T08:36:59Z</time>
      </trkpt>
      <trkpt lat="38.8965780" lon="-0.6650080">
        <ele>523.2</ele>
        <time>2019-01-05T08:37:01Z</time>
      </trkpt>
      <trkpt lat="38.8965760" lon="-0.6649720">
        <ele>522.6</ele>
        <time>2019-01-05T08:37:02Z</time>
      </trkpt>
      <trkpt lat="38.8965800" lon="-0.6649430">
        <ele>522.0</ele>
        <time>2019-01-05T08:37:03Z</time>
      </trkpt>
      <trkpt lat="38.8965920" lon="-0.6648800">
        <ele>521.0</ele>
        <time>2019-01-05T08:37:05Z</time>
      </trkpt>
      <trkpt lat="38.8965980" lon="-0.6648480">
        <ele>520.6</ele>
        <time>2019-01-05T08:37:06Z</time>
      </trkpt>
      <trkpt lat="38.8966130" lon="-0.6647810">
        <ele>519.8</ele>
        <time>2019-01-05T08:37:08Z</time>
      </trkpt>
      <trkpt lat="38.8966270" lon="-0.6647100">
        <ele>518.8</ele>
        <time>2019-01-05T08:37:10Z</time>
      </trkpt>
      <trkpt lat="38.8966340" lon="-0.6646790">
        <ele>518.4</ele>
        <time>2019-01-05T08:37:11Z</time>
      </trkpt>
      <trkpt lat="38.8966810" lon="-0.6645180">
        <ele>519.0</ele>
        <time>2019-01-05T08:37:16Z</time>
      </trkpt>
      <trkpt lat="38.8967430" lon="-0.6643710">
        <ele>517.4</ele>
        <time>2019-01-05T08:37:21Z</time>
      </trkpt>
      <trkpt lat="38.8967620" lon="-0.6643410">
        <ele>517.0</ele>
        <time>2019-01-05T08:37:22Z</time>
      </trkpt>
      <trkpt lat="38.8968200" lon="-0.6642550">
        <ele>517.2</ele>
        <time>2019-01-05T08:37:25Z</time>
      </trkpt>
      <trkpt lat="38.8968400" lon="-0.6642270">
        <ele>517.4</ele>
        <time>2019-01-05T08:37:26Z</time>
      </trkpt>
      <trkpt lat="38.8968930" lon="-0.6641030">
        <ele>517.0</ele>
        <time>2019-01-05T08:37:30Z</time>
      </trkpt>
      <trkpt lat="38.8969150" lon="-0.6640490">
        <ele>516.2</ele>
        <time>2019-01-05T08:37:32Z</time>
      </trkpt>
      <trkpt lat="38.8969440" lon="-0.6639970">
        <ele>515.4</ele>
        <time>2019-01-05T08:37:34Z</time>
      </trkpt>
      <trkpt lat="38.8970170" lon="-0.6638900">
        <ele>515.4</ele>
        <time>2019-01-05T08:37:38Z</time>
      </trkpt>
      <trkpt lat="38.8970310" lon="-0.6638650">
        <ele>515.8</ele>
        <time>2019-01-05T08:37:39Z</time>
      </trkpt>
      <trkpt lat="38.8970870" lon="-0.6637910">
        <ele>516.4</ele>
        <time>2019-01-05T08:37:42Z</time>
      </trkpt>
      <trkpt lat="38.8971480" lon="-0.6636820">
        <ele>514.6</ele>
        <time>2019-01-05T08:37:46Z</time>
      </trkpt>
      <trkpt lat="38.8971610" lon="-0.6636530">
        <ele>514.2</ele>
        <time>2019-01-05T08:37:47Z</time>
      </trkpt>
      <trkpt lat="38.8972240" lon="-0.6635200">
        <ele>514.0</ele>
        <time>2019-01-05T08:37:51Z</time>
      </trkpt>
      <trkpt lat="38.8972770" lon="-0.6634150">
        <ele>513.6</ele>
        <time>2019-01-05T08:37:54Z</time>
      </trkpt>
      <trkpt lat="38.8973070" lon="-0.6633170">
        <ele>513.4</ele>
        <time>2019-01-05T08:37:57Z</time>
      </trkpt>
      <trkpt lat="38.8973330" lon="-0.6631450">
        <ele>513.2</ele>
        <time>2019-01-05T08:38:02Z</time>
      </trkpt>
      <trkpt lat="38.8973310" lon="-0.6630710">
        <ele>512.2</ele>
        <time>2019-01-05T08:38:04Z</time>
      </trkpt>
      <trkpt lat="38.8973280" lon="-0.6630410">
        <ele>511.8</ele>
        <time>2019-01-05T08:38:05Z</time>
      </trkpt>
      <trkpt lat="38.8973360" lon="-0.6629490">
        <ele>511.0</ele>
        <time>2019-01-05T08:38:08Z</time>
      </trkpt>
      <trkpt lat="38.8973550" lon="-0.6628850">
        <ele>511.0</ele>
        <time>2019-01-05T08:38:10Z</time>
      </trkpt>
      <trkpt lat="38.8974070" lon="-0.6627610">
        <ele>510.6</ele>
        <time>2019-01-05T08:38:14Z</time>
      </trkpt>
      <trkpt lat="38.8974410" lon="-0.6626380">
        <ele>509.8</ele>
        <time>2019-01-05T08:38:18Z</time>
      </trkpt>
      <trkpt lat="38.8974580" lon="-0.6625740">
        <ele>509.2</ele>
        <time>2019-01-05T08:38:20Z</time>
      </trkpt>
      <trkpt lat="38.8974840" lon="-0.6624870">
        <ele>508.8</ele>
        <time>2019-01-05T08:38:23Z</time>
      </trkpt>
      <trkpt lat="38.8975160" lon="-0.6624280">
        <ele>508.4</ele>
        <time>2019-01-05T08:38:25Z</time>
      </trkpt>
      <trkpt lat="38.8975380" lon="-0.6623980">
        <ele>507.8</ele>
        <time>2019-01-05T08:38:26Z</time>
      </trkpt>
      <trkpt lat="38.8975820" lon="-0.6623420">
        <ele>506.8</ele>
        <time>2019-01-05T08:38:28Z</time>
      </trkpt>
      <trkpt lat="38.8976070" lon="-0.6623170">
        <ele>506.2</ele>
        <time>2019-01-05T08:38:29Z</time>
      </trkpt>
      <trkpt lat="38.8976650" lon="-0.6622180">
        <ele>505.0</ele>
        <time>2019-01-05T08:38:33Z</time>
      </trkpt>
      <trkpt lat="38.8976960" lon="-0.6620880">
        <ele>505.2</ele>
        <time>2019-01-05T08:38:37Z</time>
      </trkpt>
      <trkpt lat="38.8976860" lon="-0.6619280">
        <ele>504.0</ele>
        <time>2019-01-05T08:38:42Z</time>
      </trkpt>
      <trkpt lat="38.8977000" lon="-0.6618650">
        <ele>503.0</ele>
        <time>2019-01-05T08:38:44Z</time>
      </trkpt>
      <trkpt lat="38.8977050" lon="-0.6618310">
        <ele>503.0</ele>
        <time>2019-01-05T08:38:45Z</time>
      </trkpt>
      <trkpt lat="38.8977110" lon="-0.6618000">
        <ele>502.6</ele>
        <time>2019-01-05T08:38:46Z</time>
      </trkpt>
      <trkpt lat="38.8977300" lon="-0.6617340">
        <ele>501.6</ele>
        <time>2019-01-05T08:38:48Z</time>
      </trkpt>
      <trkpt lat="38.8977350" lon="-0.6616650">
        <ele>501.4</ele>
        <time>2019-01-05T08:38:50Z</time>
      </trkpt>
      <trkpt lat="38.8977450" lon="-0.6616000">
        <ele>500.6</ele>
        <time>2019-01-05T08:38:52Z</time>
      </trkpt>
      <trkpt lat="38.8977490" lon="-0.6615330">
        <ele>500.2</ele>
        <time>2019-01-05T08:38:54Z</time>
      </trkpt>
      <trkpt lat="38.8977570" lon="-0.6614610">
        <ele>499.4</ele>
        <time>2019-01-05T08:38:56Z</time>
      </trkpt>
      <trkpt lat="38.8977630" lon="-0.6613880">
        <ele>497.8</ele>
        <time>2019-01-05T08:38:58Z</time>
      </trkpt>
      <trkpt lat="38.8977740" lon="-0.6613190">
        <ele>496.4</ele>
        <time>2019-01-05T08:39:00Z</time>
      </trkpt>
      <trkpt lat="38.8978210" lon="-0.6612200">
        <ele>496.0</ele>
        <time>2019-01-05T08:39:03Z</time>
      </trkpt>
      <trkpt lat="38.8978350" lon="-0.6611860">
        <ele>495.8</ele>
        <time>2019-01-05T08:39:04Z</time>
      </trkpt>
      <trkpt lat="38.8978450" lon="-0.6611170">
        <ele>495.6</ele>
        <time>2019-01-05T08:39:06Z</time>
      </trkpt>
      <trkpt lat="38.8978360" lon="-0.6610440">
        <ele>495.0</ele>
        <time>2019-01-05T08:39:08Z</time>
      </trkpt>
      <trkpt lat="38.8978110" lon="-0.6609710">
        <ele>494.2</ele>
        <time>2019-01-05T08:39:10Z</time>
      </trkpt>
      <trkpt lat="38.8977950" lon="-0.6609370">
        <ele>494.0</ele>
        <time>2019-01-05T08:39:11Z</time>
      </trkpt>
      <trkpt lat="38.8977830" lon="-0.6609030">
        <ele>494.0</ele>
        <time>2019-01-05T08:39:12Z</time>
      </trkpt>
      <trkpt lat="38.8977610" lon="-0.6607800">
        <ele>493.4</ele>
        <time>2019-01-05T08:39:16Z</time>
      </trkpt>
      <trkpt lat="38.8977580" lon="-0.6607460">
        <ele>493.4</ele>
        <time>2019-01-05T08:39:17Z</time>
      </trkpt>
      <trkpt lat="38.8977540" lon="-0.6606480">
        <ele>492.8</ele>
        <time>2019-01-05T08:39:20Z</time>
      </trkpt>
      <trkpt lat="38.8977770" lon="-0.6604810">
        <ele>492.2</ele>
        <time>2019-01-05T08:39:25Z</time>
      </trkpt>
      <trkpt lat="38.8977630" lon="-0.6603020">
        <ele>492.4</ele>
        <time>2019-01-05T08:39:30Z</time>
      </trkpt>
      <trkpt lat="38.8977710" lon="-0.6601570">
        <ele>491.8</ele>
        <time>2019-01-05T08:39:34Z</time>
      </trkpt>
      <trkpt lat="38.8977690" lon="-0.6601200">
        <ele>491.4</ele>
        <time>2019-01-05T08:39:35Z</time>
      </trkpt>
      <trkpt lat="38.8977580" lon="-0.6600440">
        <ele>490.2</ele>
        <time>2019-01-05T08:39:37Z</time>
      </trkpt>
      <trkpt lat="38.8977410" lon="-0.6599670">
        <ele>489.2</ele>
        <time>2019-01-05T08:39:39Z</time>
      </trkpt>
      <trkpt lat="38.8977330" lon="-0.6599270">
        <ele>489.0</ele>
        <time>2019-01-05T08:39:40Z</time>
      </trkpt>
      <trkpt lat="38.8977170" lon="-0.6597920">
        <ele>488.6</ele>
        <time>2019-01-05T08:39:44Z</time>
      </trkpt>
      <trkpt lat="38.8977110" lon="-0.6596960">
        <ele>488.0</ele>
        <time>2019-01-05T08:39:47Z</time>
      </trkpt>
      <trkpt lat="38.8977150" lon="-0.6596640">
        <ele>487.8</ele>
        <time>2019-01-05T08:39:48Z</time>
      </trkpt>
      <trkpt lat="38.8977230" lon="-0.6595670">
        <ele>487.0</ele>
        <time>2019-01-05T08:39:51Z</time>
      </trkpt>
      <trkpt lat="38.8977240" lon="-0.6595370">
        <ele>487.0</ele>
        <time>2019-01-05T08:39:52Z</time>
      </trkpt>
      <trkpt lat="38.8977380" lon="-0.6594790">
        <ele>486.4</ele>
        <time>2019-01-05T08:39:54Z</time>
      </trkpt>
      <trkpt lat="38.8977580" lon="-0.6594170">
        <ele>485.2</ele>
        <time>2019-01-05T08:39:56Z</time>
      </trkpt>
      <trkpt lat="38.8977670" lon="-0.6593850">
        <ele>485.0</ele>
        <time>2019-01-05T08:39:57Z</time>
      </trkpt>
      <trkpt lat="38.8977710" lon="-0.6593510">
        <ele>484.6</ele>
        <time>2019-01-05T08:39:58Z</time>
      </trkpt>
      <trkpt lat="38.8977840" lon="-0.6592830">
        <ele>483.8</ele>
        <time>2019-01-05T08:40:00Z</time>
      </trkpt>
      <trkpt lat="38.8978240" lon="-0.6591790">
        <ele>482.4</ele>
        <time>2019-01-05T08:40:03Z</time>
      </trkpt>
      <trkpt lat="38.8978460" lon="-0.6591140">
        <ele>481.2</ele>
        <time>2019-01-05T08:40:05Z</time>
      </trkpt>
      <trkpt lat="38.8978600" lon="-0.6590450">
        <ele>480.6</ele>
        <time>2019-01-05T08:40:07Z</time>
      </trkpt>
      <trkpt lat="38.8978650" lon="-0.6590140">
        <ele>480.2</ele>
        <time>2019-01-05T08:40:08Z</time>
      </trkpt>
      <trkpt lat="38.8978730" lon="-0.6589850">
        <ele>480.0</ele>
        <time>2019-01-05T08:40:09Z</time>
      </trkpt>
      <trkpt lat="38.8979090" lon="-0.6588540">
        <ele>479.2</ele>
        <time>2019-01-05T08:40:13Z</time>
      </trkpt>
      <trkpt lat="38.8979240" lon="-0.6587450">
        <ele>478.4</ele>
        <time>2019-01-05T08:40:16Z</time>
      </trkpt>
      <trkpt lat="38.8979310" lon="-0.6587080">
        <ele>478.0</ele>
        <time>2019-01-05T08:40:17Z</time>
      </trkpt>
      <trkpt lat="38.8979400" lon="-0.6586360">
        <ele>477.0</ele>
        <time>2019-01-05T08:40:19Z</time>
      </trkpt>
      <trkpt lat="38.8979420" lon="-0.6586010">
        <ele>476.6</ele>
        <time>2019-01-05T08:40:20Z</time>
      </trkpt>
      <trkpt lat="38.8979380" lon="-0.6585630">
        <ele>476.6</ele>
        <time>2019-01-05T08:40:21Z</time>
      </trkpt>
      <trkpt lat="38.8979250" lon="-0.6583870">
        <ele>475.8</ele>
        <time>2019-01-05T08:40:26Z</time>
      </trkpt>
      <trkpt lat="38.8979310" lon="-0.6583520">
        <ele>475.0</ele>
        <time>2019-01-05T08:40:27Z</time>
      </trkpt>
      <trkpt lat="38.8979390" lon="-0.6582780">
        <ele>473.4</ele>
        <time>2019-01-05T08:40:29Z</time>
      </trkpt>
      <trkpt lat="38.8979440" lon="-0.6582460">
        <ele>473.0</ele>
        <time>2019-01-05T08:40:30Z</time>
      </trkpt>
      <trkpt lat="38.8979750" lon="-0.6580940">
        <ele>472.0</ele>
        <time>2019-01-05T08:40:35Z</time>
      </trkpt>
      <trkpt lat="38.8979810" lon="-0.6580630">
        <ele>471.6</ele>
        <time>2019-01-05T08:40:36Z</time>
      </trkpt>
      <trkpt lat="38.8979920" lon="-0.6580070">
        <ele>471.2</ele>
        <time>2019-01-05T08:40:38Z</time>
      </trkpt>
      <trkpt lat="38.8980000" lon="-0.6579790">
        <ele>470.6</ele>
        <time>2019-01-05T08:40:39Z</time>
      </trkpt>
      <trkpt lat="38.8980100" lon="-0.6579500">
        <ele>470.2</ele>
        <time>2019-01-05T08:40:40Z</time>
      </trkpt>
      <trkpt lat="38.8980340" lon="-0.6578910">
        <ele>469.4</ele>
        <time>2019-01-05T08:40:42Z</time>
      </trkpt>
      <trkpt lat="38.8980770" lon="-0.6578110">
        <ele>468.8</ele>
        <time>2019-01-05T08:40:45Z</time>
      </trkpt>
      <trkpt lat="38.8980840" lon="-0.6577860">
        <ele>468.2</ele>
        <time>2019-01-05T08:40:46Z</time>
      </trkpt>
      <trkpt lat="38.8981050" lon="-0.6577150">
        <ele>466.8</ele>
        <time>2019-01-05T08:40:49Z</time>
      </trkpt>
      <trkpt lat="38.8981570" lon="-0.6575740">
        <ele>465.0</ele>
        <time>2019-01-05T08:40:54Z</time>
      </trkpt>
      <trkpt lat="38.8981570" lon="-0.6575420">
        <ele>463.8</ele>
        <time>2019-01-05T08:40:55Z</time>
      </trkpt>
      <trkpt lat="38.8981480" lon="-0.6574650">
        <ele>462.4</ele>
        <time>2019-01-05T08:40:57Z</time>
      </trkpt>
      <trkpt lat="38.8981320" lon="-0.6574300">
        <ele>462.2</ele>
        <time>2019-01-05T08:40:58Z</time>
      </trkpt>
      <trkpt lat="38.8980980" lon="-0.6572940">
        <ele>461.4</ele>
        <time>2019-01-05T08:41:02Z</time>
      </trkpt>
      <trkpt lat="38.8981020" lon="-0.6572620">
        <ele>461.4</ele>
        <time>2019-01-05T08:41:03Z</time>
      </trkpt>
      <trkpt lat="38.8981610" lon="-0.6571060">
        <ele>460.8</ele>
        <time>2019-01-05T08:41:08Z</time>
      </trkpt>
      <trkpt lat="38.8981760" lon="-0.6570760">
        <ele>460.2</ele>
        <time>2019-01-05T08:41:09Z</time>
      </trkpt>
      <trkpt lat="38.8982100" lon="-0.6569670">
        <ele>459.4</ele>
        <time>2019-01-05T08:41:12Z</time>
      </trkpt>
      <trkpt lat="38.8982270" lon="-0.6569350">
        <ele>459.2</ele>
        <time>2019-01-05T08:41:13Z</time>
      </trkpt>
      <trkpt lat="38.8982430" lon="-0.6569020">
        <ele>458.8</ele>
        <time>2019-01-05T08:41:14Z</time>
      </trkpt>
      <trkpt lat="38.8982490" lon="-0.6568680">
        <ele>458.4</ele>
        <time>2019-01-05T08:41:15Z</time>
      </trkpt>
      <trkpt lat="38.8982540" lon="-0.6568360">
        <ele>458.0</ele>
        <time>2019-01-05T08:41:16Z</time>
      </trkpt>
      <trkpt lat="38.8982520" lon="-0.6568030">
        <ele>457.8</ele>
        <time>2019-01-05T08:41:17Z</time>
      </trkpt>
      <trkpt lat="38.8982400" lon="-0.6567040">
        <ele>456.6</ele>
        <time>2019-01-05T08:41:20Z</time>
      </trkpt>
      <trkpt lat="38.8982170" lon="-0.6565840">
        <ele>455.8</ele>
        <time>2019-01-05T08:41:24Z</time>
      </trkpt>
      <trkpt lat="38.8981920" lon="-0.6565070">
        <ele>455.4</ele>
        <time>2019-01-05T08:41:27Z</time>
      </trkpt>
      <trkpt lat="38.8981720" lon="-0.6564500">
        <ele>454.8</ele>
        <time>2019-01-05T08:41:29Z</time>
      </trkpt>
      <trkpt lat="38.8981420" lon="-0.6563260">
        <ele>454.4</ele>
        <time>2019-01-05T08:41:33Z</time>
      </trkpt>
      <trkpt lat="38.8981370" lon="-0.6562970">
        <ele>454.2</ele>
        <time>2019-01-05T08:41:34Z</time>
      </trkpt>
      <trkpt lat="38.8981490" lon="-0.6561320">
        <ele>453.4</ele>
        <time>2019-01-05T08:41:39Z</time>
      </trkpt>
      <trkpt lat="38.8981530" lon="-0.6560980">
        <ele>453.2</ele>
        <time>2019-01-05T08:41:40Z</time>
      </trkpt>
      <trkpt lat="38.8981540" lon="-0.6559930">
        <ele>452.2</ele>
        <time>2019-01-05T08:41:43Z</time>
      </trkpt>
      <trkpt lat="38.8981470" lon="-0.6559560">
        <ele>452.0</ele>
        <time>2019-01-05T08:41:44Z</time>
      </trkpt>
      <trkpt lat="38.8981140" lon="-0.6558550">
        <ele>451.6</ele>
        <time>2019-01-05T08:41:47Z</time>
      </trkpt>
      <trkpt lat="38.8981250" lon="-0.6557560">
        <ele>451.6</ele>
        <time>2019-01-05T08:41:50Z</time>
      </trkpt>
      <trkpt lat="38.8981370" lon="-0.6557230">
        <ele>451.4</ele>
        <time>2019-01-05T08:41:51Z</time>
      </trkpt>
      <trkpt lat="38.8981640" lon="-0.6556060">
        <ele>451.0</ele>
        <time>2019-01-05T08:41:55Z</time>
      </trkpt>
      <trkpt lat="38.8981720" lon="-0.6555770">
        <ele>451.0</ele>
        <time>2019-01-05T08:41:56Z</time>
      </trkpt>
      <trkpt lat="38.8982220" lon="-0.6554530">
        <ele>450.2</ele>
        <time>2019-01-05T08:42:01Z</time>
      </trkpt>
      <trkpt lat="38.8982410" lon="-0.6553960">
        <ele>449.6</ele>
        <time>2019-01-05T08:42:03Z</time>
      </trkpt>
      <trkpt lat="38.8982630" lon="-0.6553350">
        <ele>448.2</ele>
        <time>2019-01-05T08:42:05Z</time>
      </trkpt>
      <trkpt lat="38.8982780" lon="-0.6552630">
        <ele>446.6</ele>
        <time>2019-01-05T08:42:07Z</time>
      </trkpt>
      <trkpt lat="38.8982870" lon="-0.6552270">
        <ele>446.2</ele>
        <time>2019-01-05T08:42:08Z</time>
      </trkpt>
      <trkpt lat="38.8983030" lon="-0.6551960">
        <ele>445.8</ele>
        <time>2019-01-05T08:42:09Z</time>
      </trkpt>
      <trkpt lat="38.8983410" lon="-0.6551360">
        <ele>445.6</ele>
        <time>2019-01-05T08:42:11Z</time>
      </trkpt>
      <trkpt lat="38.8984090" lon="-0.6550640">
        <ele>445.4</ele>
        <time>2019-01-05T08:42:14Z</time>
      </trkpt>
      <trkpt lat="38.8984810" lon="-0.6549380">
        <ele>444.6</ele>
        <time>2019-01-05T08:42:18Z</time>
      </trkpt>
      <trkpt lat="38.8984910" lon="-0.6549000">
        <ele>444.4</ele>
        <time>2019-01-05T08:42:19Z</time>
      </trkpt>
      <trkpt lat="38.8985050" lon="-0.6547970">
        <ele>443.8</ele>
        <time>2019-01-05T08:42:22Z</time>
      </trkpt>
      <trkpt lat="38.8984890" lon="-0.6546750">
        <ele>443.6</ele>
        <time>2019-01-05T08:42:26Z</time>
      </trkpt>
      <trkpt lat="38.8984960" lon="-0.6546230">
        <ele>443.2</ele>
        <time>2019-01-05T08:42:28Z</time>
      </trkpt>
      <trkpt lat="38.8984950" lon="-0.6545580">
        <ele>442.2</ele>
        <time>2019-01-05T08:42:30Z</time>
      </trkpt>
      <trkpt lat="38.8984740" lon="-0.6544630">
        <ele>440.8</ele>
        <time>2019-01-05T08:42:33Z</time>
      </trkpt>
      <trkpt lat="38.8984740" lon="-0.6544030">
        <ele>440.4</ele>
        <time>2019-01-05T08:42:35Z</time>
      </trkpt>
      <trkpt lat="38.8984800" lon="-0.6543440">
        <ele>440.2</ele>
        <time>2019-01-05T08:42:37Z</time>
      </trkpt>
      <trkpt lat="38.8985060" lon="-0.6542830">
        <ele>440.2</ele>
        <time>2019-01-05T08:42:39Z</time>
      </trkpt>
      <trkpt lat="38.8985430" lon="-0.6542190">
        <ele>440.2</ele>
        <time>2019-01-05T08:42:41Z</time>
      </trkpt>
      <trkpt lat="38.8985620" lon="-0.6541860">
        <ele>439.8</ele>
        <time>2019-01-05T08:42:42Z</time>
      </trkpt>
      <trkpt lat="38.8985810" lon="-0.6541540">
        <ele>439.6</ele>
        <time>2019-01-05T08:42:43Z</time>
      </trkpt>
      <trkpt lat="38.8986300" lon="-0.6540480">
        <ele>439.2</ele>
        <time>2019-01-05T08:42:46Z</time>
      </trkpt>
      <trkpt lat="38.8986880" lon="-0.6538790">
        <ele>438.6</ele>
        <time>2019-01-05T08:42:51Z</time>
      </trkpt>
      <trkpt lat="38.8987100" lon="-0.6537880">
        <ele>437.6</ele>
        <time>2019-01-05T08:42:54Z</time>
      </trkpt>
      <trkpt lat="38.8987330" lon="-0.6537250">
        <ele>436.4</ele>
        <time>2019-01-05T08:42:56Z</time>
      </trkpt>
      <trkpt lat="38.8988170" lon="-0.6536450">
        <ele>435.6</ele>
        <time>2019-01-05T08:43:00Z</time>
      </trkpt>
      <trkpt lat="38.8988710" lon="-0.6536160">
        <ele>435.2</ele>
        <time>2019-01-05T08:43:02Z</time>
      </trkpt>
      <trkpt lat="38.8988860" lon="-0.6535970">
        <ele>434.8</ele>
        <time>2019-01-05T08:43:03Z</time>
      </trkpt>
      <trkpt lat="38.8988990" lon="-0.6535810">
        <ele>434.2</ele>
        <time>2019-01-05T08:43:04Z</time>
      </trkpt>
      <trkpt lat="38.8989170" lon="-0.6535700">
        <ele>433.8</ele>
        <time>2019-01-05T08:43:05Z</time>
      </trkpt>
      <trkpt lat="38.8989480" lon="-0.6535330">
        <ele>432.6</ele>
        <time>2019-01-05T08:43:07Z</time>
      </trkpt>
      <trkpt lat="38.8989740" lon="-0.6534920">
        <ele>431.8</ele>
        <time>2019-01-05T08:43:09Z</time>
      </trkpt>
      <trkpt lat="38.8989960" lon="-0.6534750">
        <ele>431.4</ele>
        <time>2019-01-05T08:43:10Z</time>
      </trkpt>
      <trkpt lat="38.8990390" lon="-0.6534450">
        <ele>430.6</ele>
        <time>2019-01-05T08:43:12Z</time>
      </trkpt>
      <trkpt lat="38.8990490" lon="-0.6534190">
        <ele>430.2</ele>
        <time>2019-01-05T08:43:13Z</time>
      </trkpt>
      <trkpt lat="38.8990700" lon="-0.6533310">
        <ele>429.0</ele>
        <time>2019-01-05T08:43:16Z</time>
      </trkpt>
      <trkpt lat="38.8990730" lon="-0.6532640">
        <ele>428.2</ele>
        <time>2019-01-05T08:43:18Z</time>
      </trkpt>
      <trkpt lat="38.8990740" lon="-0.6532320">
        <ele>427.8</ele>
        <time>2019-01-05T08:43:19Z</time>
      </trkpt>
      <trkpt lat="38.8990680" lon="-0.6531620">
        <ele>426.8</ele>
        <time>2019-01-05T08:43:21Z</time>
      </trkpt>
      <trkpt lat="38.8990550" lon="-0.6531000">
        <ele>425.6</ele>
        <time>2019-01-05T08:43:23Z</time>
      </trkpt>
      <trkpt lat="38.8990250" lon="-0.6530460">
        <ele>425.2</ele>
        <time>2019-01-05T08:43:25Z</time>
      </trkpt>
      <trkpt lat="38.8989990" lon="-0.6529880">
        <ele>424.4</ele>
        <time>2019-01-05T08:43:27Z</time>
      </trkpt>
      <trkpt lat="38.8989650" lon="-0.6529360">
        <ele>423.6</ele>
        <time>2019-01-05T08:43:29Z</time>
      </trkpt>
      <trkpt lat="38.8989520" lon="-0.6529240">
        <ele>423.4</ele>
        <time>2019-01-05T08:43:30Z</time>
      </trkpt>
      <trkpt lat="38.8989200" lon="-0.6528860">
        <ele>423.2</ele>
        <time>2019-01-05T08:43:32Z</time>
      </trkpt>
      <trkpt lat="38.8989060" lon="-0.6528600">
        <ele>422.8</ele>
        <time>2019-01-05T08:43:33Z</time>
      </trkpt>
      <trkpt lat="38.8988750" lon="-0.6527770">
        <ele>422.6</ele>
        <time>2019-01-05T08:43:36Z</time>
      </trkpt>
      <trkpt lat="38.8988680" lon="-0.6527470">
        <ele>422.4</ele>
        <time>2019-01-05T08:43:37Z</time>
      </trkpt>
      <trkpt lat="38.8988650" lon="-0.6527170">
        <ele>422.4</ele>
        <time>2019-01-05T08:43:38Z</time>
      </trkpt>
      <trkpt lat="38.8988700" lon="-0.6526470">
        <ele>422.2</ele>
        <time>2019-01-05T08:43:40Z</time>
      </trkpt>
      <trkpt lat="38.8988770" lon="-0.6526120">
        <ele>422.2</ele>
        <time>2019-01-05T08:43:41Z</time>
      </trkpt>
      <trkpt lat="38.8988760" lon="-0.6525140">
        <ele>422.0</ele>
        <time>2019-01-05T08:43:44Z</time>
      </trkpt>
      <trkpt lat="38.8988810" lon="-0.6524490">
        <ele>422.0</ele>
        <time>2019-01-05T08:43:46Z</time>
      </trkpt>
      <trkpt lat="38.8988900" lon="-0.6524160">
        <ele>422.0</ele>
        <time>2019-01-05T08:43:47Z</time>
      </trkpt>
      <trkpt lat="38.8989260" lon="-0.6523130">
        <ele>422.0</ele>
        <time>2019-01-05T08:43:50Z</time>
      </trkpt>
      <trkpt lat="38.8989360" lon="-0.6522780">
        <ele>421.8</ele>
        <time>2019-01-05T08:43:51Z</time>
      </trkpt>
      <trkpt lat="38.8989440" lon="-0.6522010">
        <ele>421.6</ele>
        <time>2019-01-05T08:43:53Z</time>
      </trkpt>
      <trkpt lat="38.8989620" lon="-0.6521270">
        <ele>421.2</ele>
        <time>2019-01-05T08:43:55Z</time>
      </trkpt>
      <trkpt lat="38.8989820" lon="-0.6520560">
        <ele>421.0</ele>
        <time>2019-01-05T08:43:57Z</time>
      </trkpt>
      <trkpt lat="38.8990400" lon="-0.6519220">
        <ele>421.4</ele>
        <time>2019-01-05T08:44:01Z</time>
      </trkpt>
      <trkpt lat="38.8990790" lon="-0.6517890">
        <ele>421.6</ele>
        <time>2019-01-05T08:44:05Z</time>
      </trkpt>
      <trkpt lat="38.8990890" lon="-0.6517140">
        <ele>421.4</ele>
        <time>2019-01-05T08:44:07Z</time>
      </trkpt>
      <trkpt lat="38.8990870" lon="-0.6516840">
        <ele>421.4</ele>
        <time>2019-01-05T08:44:08Z</time>
      </trkpt>
      <trkpt lat="38.8990860" lon="-0.6516240">
        <ele>421.2</ele>
        <time>2019-01-05T08:44:10Z</time>
      </trkpt>
      <trkpt lat="38.8991120" lon="-0.6515380">
        <ele>421.0</ele>
        <time>2019-01-05T08:44:13Z</time>
      </trkpt>
      <trkpt lat="38.8991360" lon="-0.6514430">
        <ele>420.2</ele>
        <time>2019-01-05T08:44:16Z</time>
      </trkpt>
      <trkpt lat="38.8991430" lon="-0.6514120">
        <ele>420.0</ele>
        <time>2019-01-05T08:44:17Z</time>
      </trkpt>
      <trkpt lat="38.8991400" lon="-0.6513440">
        <ele>419.4</ele>
        <time>2019-01-05T08:44:19Z</time>
      </trkpt>
      <trkpt lat="38.8991470" lon="-0.6512870">
        <ele>418.8</ele>
        <time>2019-01-05T08:44:21Z</time>
      </trkpt>
      <trkpt lat="38.8991670" lon="-0.6512350">
        <ele>418.6</ele>
        <time>2019-01-05T08:44:23Z</time>
      </trkpt>
      <trkpt lat="38.8991850" lon="-0.6512110">
        <ele>418.4</ele>
        <time>2019-01-05T08:44:24Z</time>
      </trkpt>
      <trkpt lat="38.8992150" lon="-0.6511600">
        <ele>417.8</ele>
        <time>2019-01-05T08:44:26Z</time>
      </trkpt>
      <trkpt lat="38.8992310" lon="-0.6511370">
        <ele>417.6</ele>
        <time>2019-01-05T08:44:27Z</time>
      </trkpt>
      <trkpt lat="38.8992520" lon="-0.6511190">
        <ele>417.2</ele>
        <time>2019-01-05T08:44:28Z</time>
      </trkpt>
      <trkpt lat="38.8992970" lon="-0.6510870">
        <ele>416.6</ele>
        <time>2019-01-05T08:44:30Z</time>
      </trkpt>
      <trkpt lat="38.8993310" lon="-0.6510530">
        <ele>415.4</ele>
        <time>2019-01-05T08:44:32Z</time>
      </trkpt>
      <trkpt lat="38.8993720" lon="-0.6510210">
        <ele>414.0</ele>
        <time>2019-01-05T08:44:34Z</time>
      </trkpt>
      <trkpt lat="38.8994260" lon="-0.6509940">
        <ele>412.6</ele>
        <time>2019-01-05T08:44:36Z</time>
      </trkpt>
      <trkpt lat="38.8994540" lon="-0.6509840">
        <ele>412.2</ele>
        <time>2019-01-05T08:44:37Z</time>
      </trkpt>
      <trkpt lat="38.8995450" lon="-0.6509490">
        <ele>411.4</ele>
        <time>2019-01-05T08:44:40Z</time>
      </trkpt>
      <trkpt lat="38.8996100" lon="-0.6509330">
        <ele>410.6</ele>
        <time>2019-01-05T08:44:42Z</time>
      </trkpt>
      <trkpt lat="38.8996410" lon="-0.6509270">
        <ele>410.2</ele>
        <time>2019-01-05T08:44:43Z</time>
      </trkpt>
      <trkpt lat="38.8997280" lon="-0.6509000">
        <ele>409.4</ele>
        <time>2019-01-05T08:44:46Z</time>
      </trkpt>
      <trkpt lat="38.8997500" lon="-0.6508820">
        <ele>408.6</ele>
        <time>2019-01-05T08:44:47Z</time>
      </trkpt>
      <trkpt lat="38.8997910" lon="-0.6508450">
        <ele>407.4</ele>
        <time>2019-01-05T08:44:49Z</time>
      </trkpt>
      <trkpt lat="38.8998060" lon="-0.6508200">
        <ele>406.8</ele>
        <time>2019-01-05T08:44:50Z</time>
      </trkpt>
      <trkpt lat="38.8998260" lon="-0.6507950">
        <ele>406.0</ele>
        <time>2019-01-05T08:44:51Z</time>
      </trkpt>
      <trkpt lat="38.8998630" lon="-0.6507370">
        <ele>405.0</ele>
        <time>2019-01-05T08:44:53Z</time>
      </trkpt>
      <trkpt lat="38.8998790" lon="-0.6507050">
        <ele>404.8</ele>
        <time>2019-01-05T08:44:54Z</time>
      </trkpt>
      <trkpt lat="38.8999010" lon="-0.6506390">
        <ele>404.4</ele>
        <time>2019-01-05T08:44:56Z</time>
      </trkpt>
      <trkpt lat="38.8999330" lon="-0.6505740">
        <ele>403.6</ele>
        <time>2019-01-05T08:44:58Z</time>
      </trkpt>
      <trkpt lat="38.8999820" lon="-0.6504810">
        <ele>403.0</ele>
        <time>2019-01-05T08:45:01Z</time>
      </trkpt>
      <trkpt lat="38.9000370" lon="-0.6503480">
        <ele>402.6</ele>
        <time>2019-01-05T08:45:05Z</time>
      </trkpt>
      <trkpt lat="38.9000510" lon="-0.6503130">
        <ele>402.4</ele>
        <time>2019-01-05T08:45:06Z</time>
      </trkpt>
      <trkpt lat="38.9000790" lon="-0.6502120">
        <ele>401.6</ele>
        <time>2019-01-05T08:45:09Z</time>
      </trkpt>
      <trkpt lat="38.9000810" lon="-0.6501780">
        <ele>401.2</ele>
        <time>2019-01-05T08:45:10Z</time>
      </trkpt>
      <trkpt lat="38.9001050" lon="-0.6500820">
        <ele>400.4</ele>
        <time>2019-01-05T08:45:13Z</time>
      </trkpt>
      <trkpt lat="38.9001150" lon="-0.6500520">
        <ele>400.0</ele>
        <time>2019-01-05T08:45:14Z</time>
      </trkpt>
      <trkpt lat="38.9001650" lon="-0.6499650">
        <ele>400.0</ele>
        <time>2019-01-05T08:45:17Z</time>
      </trkpt>
      <trkpt lat="38.9002330" lon="-0.6498500">
        <ele>399.6</ele>
        <time>2019-01-05T08:45:21Z</time>
      </trkpt>
      <trkpt lat="38.9002540" lon="-0.6497820">
        <ele>398.8</ele>
        <time>2019-01-05T08:45:23Z</time>
      </trkpt>
      <trkpt lat="38.9002650" lon="-0.6497430">
        <ele>398.6</ele>
        <time>2019-01-05T08:45:24Z</time>
      </trkpt>
      <trkpt lat="38.9002890" lon="-0.6496380">
        <ele>397.6</ele>
        <time>2019-01-05T08:45:27Z</time>
      </trkpt>
      <trkpt lat="38.9003100" lon="-0.6495730">
        <ele>397.2</ele>
        <time>2019-01-05T08:45:29Z</time>
      </trkpt>
      <trkpt lat="38.9003740" lon="-0.6494160">
        <ele>397.0</ele>
        <time>2019-01-05T08:45:34Z</time>
      </trkpt>
      <trkpt lat="38.9004360" lon="-0.6493140">
        <ele>397.0</ele>
        <time>2019-01-05T08:45:38Z</time>
      </trkpt>
      <trkpt lat="38.9004590" lon="-0.6493030">
        <ele>396.8</ele>
        <time>2019-01-05T08:45:39Z</time>
      </trkpt>
      <trkpt lat="38.9005100" lon="-0.6492950">
        <ele>396.4</ele>
        <time>2019-01-05T08:45:41Z</time>
      </trkpt>
      <trkpt lat="38.9005770" lon="-0.6492840">
        <ele>395.6</ele>
        <time>2019-01-05T08:45:44Z</time>
      </trkpt>
      <trkpt lat="38.9006040" lon="-0.6492790">
        <ele>395.2</ele>
        <time>2019-01-05T08:45:45Z</time>
      </trkpt>
      <trkpt lat="38.9006930" lon="-0.6492560">
        <ele>394.4</ele>
        <time>2019-01-05T08:45:48Z</time>
      </trkpt>
      <trkpt lat="38.9007160" lon="-0.6492440">
        <ele>393.8</ele>
        <time>2019-01-05T08:45:49Z</time>
      </trkpt>
      <trkpt lat="38.9008080" lon="-0.6491550">
        <ele>392.8</ele>
        <time>2019-01-05T08:45:53Z</time>
      </trkpt>
      <trkpt lat="38.9008670" lon="-0.6490690">
        <ele>392.0</ele>
        <time>2019-01-05T08:45:56Z</time>
      </trkpt>
      <trkpt lat="38.9008780" lon="-0.6490360">
        <ele>391.6</ele>
        <time>2019-01-05T08:45:57Z</time>
      </trkpt>
      <trkpt lat="38.9009030" lon="-0.6489690">
        <ele>391.2</ele>
        <time>2019-01-05T08:45:59Z</time>
      </trkpt>
      <trkpt lat="38.9009530" lon="-0.6488770">
        <ele>390.6</ele>
        <time>2019-01-05T08:46:02Z</time>
      </trkpt>
      <trkpt lat="38.9009640" lon="-0.6488370">
        <ele>390.4</ele>
        <time>2019-01-05T08:46:03Z</time>
      </trkpt>
      <trkpt lat="38.9010440" lon="-0.6486710">
        <ele>389.6</ele>
        <time>2019-01-05T08:46:08Z</time>
      </trkpt>
      <trkpt lat="38.9010820" lon="-0.6486140">
        <ele>389.2</ele>
        <time>2019-01-05T08:46:10Z</time>
      </trkpt>
      <trkpt lat="38.9011080" lon="-0.6485500">
        <ele>388.8</ele>
        <time>2019-01-05T08:46:12Z</time>
      </trkpt>
      <trkpt lat="38.9011440" lon="-0.6484680">
        <ele>388.2</ele>
        <time>2019-01-05T08:46:15Z</time>
      </trkpt>
      <trkpt lat="38.9011870" lon="-0.6484180">
        <ele>388.0</ele>
        <time>2019-01-05T08:46:17Z</time>
      </trkpt>
      <trkpt lat="38.9012650" lon="-0.6483130">
        <ele>387.0</ele>
        <time>2019-01-05T08:46:21Z</time>
      </trkpt>
      <trkpt lat="38.9012890" lon="-0.6482510">
        <ele>386.0</ele>
        <time>2019-01-05T08:46:23Z</time>
      </trkpt>
      <trkpt lat="38.9013020" lon="-0.6481760">
        <ele>385.4</ele>
        <time>2019-01-05T08:46:25Z</time>
      </trkpt>
      <trkpt lat="38.9013020" lon="-0.6480560">
        <ele>384.8</ele>
        <time>2019-01-05T08:46:28Z</time>
      </trkpt>
      <trkpt lat="38.9012760" lon="-0.6479530">
        <ele>384.8</ele>
        <time>2019-01-05T08:46:31Z</time>
      </trkpt>
      <trkpt lat="38.9012290" lon="-0.6478300">
        <ele>384.8</ele>
        <time>2019-01-05T08:46:35Z</time>
      </trkpt>
      <trkpt lat="38.9011540" lon="-0.6477550">
        <ele>385.8</ele>
        <time>2019-01-05T08:46:40Z</time>
      </trkpt>
      <trkpt lat="38.9011310" lon="-0.6477300">
        <ele>386.4</ele>
        <time>2019-01-05T08:46:42Z</time>
      </trkpt>
      <trkpt lat="38.9011040" lon="-0.6477170">
        <ele>387.0</ele>
        <time>2019-01-05T08:46:44Z</time>
      </trkpt>
      <trkpt lat="38.9010980" lon="-0.6477150">
        <ele>387.4</ele>
        <time>2019-01-05T08:46:45Z</time>
      </trkpt>
      <trkpt lat="38.9010680" lon="-0.6477160">
        <ele>388.2</ele>
        <time>2019-01-05T08:46:48Z</time>
      </trkpt>
      <trkpt lat="38.9010000" lon="-0.6477120">
        <ele>389.0</ele>
        <time>2019-01-05T08:46:52Z</time>
      </trkpt>
      <trkpt lat="38.9009180" lon="-0.6477410">
        <ele>389.4</ele>
        <time>2019-01-05T08:46:59Z</time>
      </trkpt>
      <trkpt lat="38.9008270" lon="-0.6477710">
        <ele>390.4</ele>
        <time>2019-01-05T08:47:06Z</time>
      </trkpt>
      <trkpt lat="38.9007710" lon="-0.6477690">
        <ele>391.6</ele>
        <time>2019-01-05T08:47:10Z</time>
      </trkpt>
      <trkpt lat="38.9007190" lon="-0.6477580">
        <ele>392.4</ele>
        <time>2019-01-05T08:47:13Z</time>
      </trkpt>
      <trkpt lat="38.9006850" lon="-0.6477510">
        <ele>392.6</ele>
        <time>2019-01-05T08:47:15Z</time>
      </trkpt>
      <trkpt lat="38.9006160" lon="-0.6477320">
        <ele>392.0</ele>
        <time>2019-01-05T08:47:20Z</time>
      </trkpt>
      <trkpt lat="38.9005360" lon="-0.6476550">
        <ele>391.4</ele>
        <time>2019-01-05T08:47:25Z</time>
      </trkpt>
      <trkpt lat="38.9005010" lon="-0.6475660">
        <ele>390.6</ele>
        <time>2019-01-05T08:47:28Z</time>
      </trkpt>
      <trkpt lat="38.9005200" lon="-0.6475450">
        <ele>390.0</ele>
        <time>2019-01-05T08:47:29Z</time>
      </trkpt>
      <trkpt lat="38.9005680" lon="-0.6475060">
        <ele>389.0</ele>
        <time>2019-01-05T08:47:31Z</time>
      </trkpt>
      <trkpt lat="38.9006590" lon="-0.6474830">
        <ele>388.2</ele>
        <time>2019-01-05T08:47:34Z</time>
      </trkpt>
      <trkpt lat="38.9006930" lon="-0.6474790">
        <ele>387.8</ele>
        <time>2019-01-05T08:47:35Z</time>
      </trkpt>
      <trkpt lat="38.9007770" lon="-0.6474490">
        <ele>387.6</ele>
        <time>2019-01-05T08:47:38Z</time>
      </trkpt>
      <trkpt lat="38.9008410" lon="-0.6474210">
        <ele>387.2</ele>
        <time>2019-01-05T08:47:40Z</time>
      </trkpt>
      <trkpt lat="38.9008710" lon="-0.6474010">
        <ele>387.0</ele>
        <time>2019-01-05T08:47:41Z</time>
      </trkpt>
      <trkpt lat="38.9009530" lon="-0.6473360">
        <ele>387.0</ele>
        <time>2019-01-05T08:47:44Z</time>
      </trkpt>
      <trkpt lat="38.9009720" lon="-0.6473130">
        <ele>387.0</ele>
        <time>2019-01-05T08:47:45Z</time>
      </trkpt>
      <trkpt lat="38.9010330" lon="-0.6472070">
        <ele>388.0</ele>
        <time>2019-01-05T08:47:49Z</time>
      </trkpt>
      <trkpt lat="38.9010670" lon="-0.6471530">
        <ele>388.4</ele>
        <time>2019-01-05T08:47:51Z</time>
      </trkpt>
      <trkpt lat="38.9010830" lon="-0.6471300">
        <ele>388.6</ele>
        <time>2019-01-05T08:47:52Z</time>
      </trkpt>
      <trkpt lat="38.9011020" lon="-0.6470730">
        <ele>389.0</ele>
        <time>2019-01-05T08:47:54Z</time>
      </trkpt>
      <trkpt lat="38.9011110" lon="-0.6470040">
        <ele>389.2</ele>
        <time>2019-01-05T08:47:56Z</time>
      </trkpt>
      <trkpt lat="38.9011320" lon="-0.6469040">
        <ele>389.6</ele>
        <time>2019-01-05T08:47:59Z</time>
      </trkpt>
      <trkpt lat="38.9011510" lon="-0.6468010">
        <ele>390.0</ele>
        <time>2019-01-05T08:48:02Z</time>
      </trkpt>
      <trkpt lat="38.9011610" lon="-0.6467640">
        <ele>390.2</ele>
        <time>2019-01-05T08:48:03Z</time>
      </trkpt>
      <trkpt lat="38.9011970" lon="-0.6466340">
        <ele>390.6</ele>
        <time>2019-01-05T08:48:07Z</time>
      </trkpt>
      <trkpt lat="38.9012380" lon="-0.6465040">
        <ele>390.8</ele>
        <time>2019-01-05T08:48:11Z</time>
      </trkpt>
      <trkpt lat="38.9012520" lon="-0.6464410">
        <ele>390.6</ele>
        <time>2019-01-05T08:48:13Z</time>
      </trkpt>
      <trkpt lat="38.9012520" lon="-0.6464050">
        <ele>390.6</ele>
        <time>2019-01-05T08:48:14Z</time>
      </trkpt>
      <trkpt lat="38.9012550" lon="-0.6462960">
        <ele>390.4</ele>
        <time>2019-01-05T08:48:17Z</time>
      </trkpt>
      <trkpt lat="38.9012320" lon="-0.6461640">
        <ele>391.0</ele>
        <time>2019-01-05T08:48:21Z</time>
      </trkpt>
      <trkpt lat="38.9012300" lon="-0.6461340">
        <ele>391.2</ele>
        <time>2019-01-05T08:48:22Z</time>
      </trkpt>
      <trkpt lat="38.9012630" lon="-0.6460430">
        <ele>391.2</ele>
        <time>2019-01-05T08:48:25Z</time>
      </trkpt>
      <trkpt lat="38.9013150" lon="-0.6459620">
        <ele>391.4</ele>
        <time>2019-01-05T08:48:28Z</time>
      </trkpt>
      <trkpt lat="38.9013520" lon="-0.6458960">
        <ele>391.2</ele>
        <time>2019-01-05T08:48:31Z</time>
      </trkpt>
      <trkpt lat="38.9013820" lon="-0.6457740">
        <ele>392.0</ele>
        <time>2019-01-05T08:48:36Z</time>
      </trkpt>
      <trkpt lat="38.9013860" lon="-0.6457450">
        <ele>392.2</ele>
        <time>2019-01-05T08:48:37Z</time>
      </trkpt>
      <trkpt lat="38.9013880" lon="-0.6457150">
        <ele>392.4</ele>
        <time>2019-01-05T08:48:38Z</time>
      </trkpt>
      <trkpt lat="38.9013890" lon="-0.6456550">
        <ele>392.8</ele>
        <time>2019-01-05T08:48:40Z</time>
      </trkpt>
      <trkpt lat="38.9014080" lon="-0.6455250">
        <ele>393.2</ele>
        <time>2019-01-05T08:48:44Z</time>
      </trkpt>
      <trkpt lat="38.9014140" lon="-0.6454900">
        <ele>393.4</ele>
        <time>2019-01-05T08:48:45Z</time>
      </trkpt>
      <trkpt lat="38.9014480" lon="-0.6453810">
        <ele>393.4</ele>
        <time>2019-01-05T08:48:48Z</time>
      </trkpt>
      <trkpt lat="38.9014890" lon="-0.6453020">
        <ele>393.2</ele>
        <time>2019-01-05T08:48:51Z</time>
      </trkpt>
      <trkpt lat="38.9015030" lon="-0.6452810">
        <ele>393.4</ele>
        <time>2019-01-05T08:48:52Z</time>
      </trkpt>
      <trkpt lat="38.9015410" lon="-0.6452230">
        <ele>394.2</ele>
        <time>2019-01-05T08:48:56Z</time>
      </trkpt>
      <trkpt lat="38.9015480" lon="-0.6452090">
        <ele>394.6</ele>
        <time>2019-01-05T08:48:57Z</time>
      </trkpt>
      <trkpt lat="38.9015620" lon="-0.6451130">
        <ele>395.0</ele>
        <time>2019-01-05T08:49:01Z</time>
      </trkpt>
      <trkpt lat="38.9015820" lon="-0.6450470">
        <ele>395.4</ele>
        <time>2019-01-05T08:49:04Z</time>
      </trkpt>
      <trkpt lat="38.9015810" lon="-0.6450350">
        <ele>395.6</ele>
        <time>2019-01-05T08:49:05Z</time>
      </trkpt>
      <trkpt lat="38.9015820" lon="-0.6450250">
        <ele>396.0</ele>
        <time>2019-01-05T08:49:06Z</time>
      </trkpt>
      <trkpt lat="38.9015910" lon="-0.6449970">
        <ele>396.2</ele>
        <time>2019-01-05T08:49:08Z</time>
      </trkpt>
      <trkpt lat="38.9016250" lon="-0.6449440">
        <ele>396.6</ele>
        <time>2019-01-05T08:49:10Z</time>
      </trkpt>
      <trkpt lat="38.9016470" lon="-0.6449150">
        <ele>396.6</ele>
        <time>2019-01-05T08:49:11Z</time>
      </trkpt>
      <trkpt lat="38.9016660" lon="-0.6448740">
        <ele>397.0</ele>
        <time>2019-01-05T08:49:14Z</time>
      </trkpt>
      <trkpt lat="38.9017190" lon="-0.6447840">
        <ele>397.0</ele>
        <time>2019-01-05T08:49:18Z</time>
      </trkpt>
      <trkpt lat="38.9017330" lon="-0.6447600">
        <ele>397.0</ele>
        <time>2019-01-05T08:49:19Z</time>
      </trkpt>
      <trkpt lat="38.9017300" lon="-0.6447270">
        <ele>397.0</ele>
        <time>2019-01-05T08:49:21Z</time>
      </trkpt>
      <trkpt lat="38.9017280" lon="-0.6446960">
        <ele>397.0</ele>
        <time>2019-01-05T08:49:23Z</time>
      </trkpt>
      <trkpt lat="38.9017580" lon="-0.6446370">
        <ele>397.0</ele>
        <time>2019-01-05T08:49:26Z</time>
      </trkpt>
      <trkpt lat="38.9017920" lon="-0.6445820">
        <ele>397.4</ele>
        <time>2019-01-05T08:49:29Z</time>
      </trkpt>
      <trkpt lat="38.9018020" lon="-0.6445480">
        <ele>398.0</ele>
        <time>2019-01-05T08:49:31Z</time>
      </trkpt>
      <trkpt lat="38.9018030" lon="-0.6445310">
        <ele>398.2</ele>
        <time>2019-01-05T08:49:32Z</time>
      </trkpt>
      <trkpt lat="38.9017800" lon="-0.6444620">
        <ele>398.8</ele>
        <time>2019-01-05T08:49:36Z</time>
      </trkpt>
      <trkpt lat="38.9017840" lon="-0.6444420">
        <ele>399.0</ele>
        <time>2019-01-05T08:49:37Z</time>
      </trkpt>
      <trkpt lat="38.9017790" lon="-0.6444240">
        <ele>399.2</ele>
        <time>2019-01-05T08:49:38Z</time>
      </trkpt>
      <trkpt lat="38.9017640" lon="-0.6443880">
        <ele>400.0</ele>
        <time>2019-01-05T08:49:40Z</time>
      </trkpt>
      <trkpt lat="38.9017520" lon="-0.6443490">
        <ele>400.4</ele>
        <time>2019-01-05T08:49:42Z</time>
      </trkpt>
      <trkpt lat="38.9017460" lon="-0.6443050">
        <ele>400.6</ele>
        <time>2019-01-05T08:49:44Z</time>
      </trkpt>
      <trkpt lat="38.9017400" lon="-0.6442650">
        <ele>400.8</ele>
        <time>2019-01-05T08:49:46Z</time>
      </trkpt>
      <trkpt lat="38.9017160" lon="-0.6442040">
        <ele>401.2</ele>
        <time>2019-01-05T08:49:50Z</time>
      </trkpt>
      <trkpt lat="38.9017180" lon="-0.6441850">
        <ele>401.2</ele>
        <time>2019-01-05T08:49:51Z</time>
      </trkpt>
      <trkpt lat="38.9017230" lon="-0.6441630">
        <ele>401.2</ele>
        <time>2019-01-05T08:49:52Z</time>
      </trkpt>
      <trkpt lat="38.9017500" lon="-0.6440880">
        <ele>401.2</ele>
        <time>2019-01-05T08:49:55Z</time>
      </trkpt>
      <trkpt lat="38.9017590" lon="-0.6440690">
        <ele>401.4</ele>
        <time>2019-01-05T08:49:56Z</time>
      </trkpt>
      <trkpt lat="38.9017920" lon="-0.6440040">
        <ele>402.4</ele>
        <time>2019-01-05T08:50:00Z</time>
      </trkpt>
      <trkpt lat="38.9018110" lon="-0.6439670">
        <ele>402.8</ele>
        <time>2019-01-05T08:50:03Z</time>
      </trkpt>
      <trkpt lat="38.9018370" lon="-0.6439480">
        <ele>403.0</ele>
        <time>2019-01-05T08:50:05Z</time>
      </trkpt>
      <trkpt lat="38.9018500" lon="-0.6439320">
        <ele>403.4</ele>
        <time>2019-01-05T08:50:07Z</time>
      </trkpt>
      <trkpt lat="38.9018550" lon="-0.6439180">
        <ele>403.6</ele>
        <time>2019-01-05T08:50:08Z</time>
      </trkpt>
      <trkpt lat="38.9018570" lon="-0.6439090">
        <ele>403.8</ele>
        <time>2019-01-05T08:50:09Z</time>
      </trkpt>
      <trkpt lat="38.9018500" lon="-0.6438780">
        <ele>404.6</ele>
        <time>2019-01-05T08:50:12Z</time>
      </trkpt>
      <trkpt lat="38.9018540" lon="-0.6438650">
        <ele>404.8</ele>
        <time>2019-01-05T08:50:13Z</time>
      </trkpt>
      <trkpt lat="38.9018640" lon="-0.6438410">
        <ele>405.4</ele>
        <time>2019-01-05T08:50:15Z</time>
      </trkpt>
      <trkpt lat="38.9018710" lon="-0.6438150">
        <ele>406.0</ele>
        <time>2019-01-05T08:50:17Z</time>
      </trkpt>
      <trkpt lat="38.9018680" lon="-0.6438000">
        <ele>406.4</ele>
        <time>2019-01-05T08:50:18Z</time>
      </trkpt>
      <trkpt lat="38.9018600" lon="-0.6437710">
        <ele>407.0</ele>
        <time>2019-01-05T08:50:20Z</time>
      </trkpt>
      <trkpt lat="38.9018710" lon="-0.6437440">
        <ele>407.4</ele>
        <time>2019-01-05T08:50:22Z</time>
      </trkpt>
      <trkpt lat="38.9018930" lon="-0.6437060">
        <ele>408.2</ele>
        <time>2019-01-05T08:50:25Z</time>
      </trkpt>
      <trkpt lat="38.9019010" lon="-0.6436730">
        <ele>408.4</ele>
        <time>2019-01-05T08:50:27Z</time>
      </trkpt>
      <trkpt lat="38.9019130" lon="-0.6436000">
        <ele>409.2</ele>
        <time>2019-01-05T08:50:31Z</time>
      </trkpt>
      <trkpt lat="38.9019180" lon="-0.6435660">
        <ele>409.4</ele>
        <time>2019-01-05T08:50:33Z</time>
      </trkpt>
      <trkpt lat="38.9019250" lon="-0.6435300">
        <ele>409.6</ele>
        <time>2019-01-05T08:50:35Z</time>
      </trkpt>
      <trkpt lat="38.9019330" lon="-0.6434680">
        <ele>409.8</ele>
        <time>2019-01-05T08:50:38Z</time>
      </trkpt>
      <trkpt lat="38.9019170" lon="-0.6434370">
        <ele>410.0</ele>
        <time>2019-01-05T08:50:40Z</time>
      </trkpt>
      <trkpt lat="38.9018880" lon="-0.6434090">
        <ele>410.2</ele>
        <time>2019-01-05T08:50:42Z</time>
      </trkpt>
      <trkpt lat="38.9018810" lon="-0.6433880">
        <ele>410.2</ele>
        <time>2019-01-05T08:50:43Z</time>
      </trkpt>
      <trkpt lat="38.9018810" lon="-0.6433400">
        <ele>410.2</ele>
        <time>2019-01-05T08:50:45Z</time>
      </trkpt>
      <trkpt lat="38.9019170" lon="-0.6432470">
        <ele>410.8</ele>
        <time>2019-01-05T08:50:49Z</time>
      </trkpt>
      <trkpt lat="38.9019020" lon="-0.6431550">
        <ele>410.6</ele>
        <time>2019-01-05T08:50:54Z</time>
      </trkpt>
      <trkpt lat="38.9018870" lon="-0.6431030">
        <ele>410.4</ele>
        <time>2019-01-05T08:50:57Z</time>
      </trkpt>
      <trkpt lat="38.9018740" lon="-0.6430340">
        <ele>410.6</ele>
        <time>2019-01-05T08:51:00Z</time>
      </trkpt>
      <trkpt lat="38.9018630" lon="-0.6429790">
        <ele>411.0</ele>
        <time>2019-01-05T08:51:03Z</time>
      </trkpt>
      <trkpt lat="38.9018470" lon="-0.6429450">
        <ele>411.2</ele>
        <time>2019-01-05T08:51:05Z</time>
      </trkpt>
      <trkpt lat="38.9017960" lon="-0.6427620">
        <ele>410.6</ele>
        <time>2019-01-05T08:51:11Z</time>
      </trkpt>
      <trkpt lat="38.9016790" lon="-0.6426150">
        <ele>410.4</ele>
        <time>2019-01-05T08:51:17Z</time>
      </trkpt>
      <trkpt lat="38.9015610" lon="-0.6425740">
        <ele>410.0</ele>
        <time>2019-01-05T08:51:21Z</time>
      </trkpt>
      <trkpt lat="38.9014270" lon="-0.6425430">
        <ele>409.4</ele>
        <time>2019-01-05T08:51:26Z</time>
      </trkpt>
      <trkpt lat="38.9013600" lon="-0.6425020">
        <ele>409.0</ele>
        <time>2019-01-05T08:51:29Z</time>
      </trkpt>
      <trkpt lat="38.9013360" lon="-0.6424880">
        <ele>408.8</ele>
        <time>2019-01-05T08:51:30Z</time>
      </trkpt>
      <trkpt lat="38.9012410" lon="-0.6423850">
        <ele>408.4</ele>
        <time>2019-01-05T08:51:35Z</time>
      </trkpt>
      <trkpt lat="38.9011990" lon="-0.6423290">
        <ele>407.6</ele>
        <time>2019-01-05T08:51:37Z</time>
      </trkpt>
      <trkpt lat="38.9011540" lon="-0.6422730">
        <ele>406.6</ele>
        <time>2019-01-05T08:51:39Z</time>
      </trkpt>
      <trkpt lat="38.9011110" lon="-0.6422300">
        <ele>406.2</ele>
        <time>2019-01-05T08:51:41Z</time>
      </trkpt>
      <trkpt lat="38.9010370" lon="-0.6421820">
        <ele>405.8</ele>
        <time>2019-01-05T08:51:44Z</time>
      </trkpt>
      <trkpt lat="38.9009700" lon="-0.6421540">
        <ele>405.6</ele>
        <time>2019-01-05T08:51:47Z</time>
      </trkpt>
      <trkpt lat="38.9009210" lon="-0.6421410">
        <ele>405.2</ele>
        <time>2019-01-05T08:51:49Z</time>
      </trkpt>
      <trkpt lat="38.9008580" lon="-0.6421180">
        <ele>404.4</ele>
        <time>2019-01-05T08:51:51Z</time>
      </trkpt>
      <trkpt lat="38.9008360" lon="-0.6421130">
        <ele>403.8</ele>
        <time>2019-01-05T08:51:52Z</time>
      </trkpt>
      <trkpt lat="38.9008110" lon="-0.6421120">
        <ele>403.4</ele>
        <time>2019-01-05T08:51:53Z</time>
      </trkpt>
      <trkpt lat="38.9007820" lon="-0.6421150">
        <ele>403.4</ele>
        <time>2019-01-05T08:51:54Z</time>
      </trkpt>
      <trkpt lat="38.9007000" lon="-0.6421320">
        <ele>402.6</ele>
        <time>2019-01-05T08:51:57Z</time>
      </trkpt>
      <trkpt lat="38.9006580" lon="-0.6421470">
        <ele>401.8</ele>
        <time>2019-01-05T08:51:59Z</time>
      </trkpt>
      <trkpt lat="38.9005790" lon="-0.6421610">
        <ele>400.6</ele>
        <time>2019-01-05T08:52:02Z</time>
      </trkpt>
      <trkpt lat="38.9004420" lon="-0.6421940">
        <ele>399.6</ele>
        <time>2019-01-05T08:52:07Z</time>
      </trkpt>
      <trkpt lat="38.9003120" lon="-0.6421400">
        <ele>398.6</ele>
        <time>2019-01-05T08:52:13Z</time>
      </trkpt>
      <trkpt lat="38.9002220" lon="-0.6419830">
        <ele>399.6</ele>
        <time>2019-01-05T08:52:18Z</time>
      </trkpt>
      <trkpt lat="38.9002140" lon="-0.6419420">
        <ele>399.6</ele>
        <time>2019-01-05T08:52:19Z</time>
      </trkpt>
      <trkpt lat="38.9002070" lon="-0.6418400">
        <ele>399.8</ele>
        <time>2019-01-05T08:52:22Z</time>
      </trkpt>
      <trkpt lat="38.9002080" lon="-0.6418110">
        <ele>400.0</ele>
        <time>2019-01-05T08:52:23Z</time>
      </trkpt>
      <trkpt lat="38.9001980" lon="-0.6417660">
        <ele>400.6</ele>
        <time>2019-01-05T08:52:25Z</time>
      </trkpt>
      <trkpt lat="38.9001920" lon="-0.6417440">
        <ele>401.0</ele>
        <time>2019-01-05T08:52:26Z</time>
      </trkpt>
      <trkpt lat="38.9001340" lon="-0.6416510">
        <ele>401.4</ele>
        <time>2019-01-05T08:52:31Z</time>
      </trkpt>
      <trkpt lat="38.9001270" lon="-0.6416310">
        <ele>401.6</ele>
        <time>2019-01-05T08:52:32Z</time>
      </trkpt>
      <trkpt lat="38.9001210" lon="-0.6416100">
        <ele>401.8</ele>
        <time>2019-01-05T08:52:33Z</time>
      </trkpt>
      <trkpt lat="38.9001150" lon="-0.6415810">
        <ele>402.4</ele>
        <time>2019-01-05T08:52:35Z</time>
      </trkpt>
      <trkpt lat="38.9001160" lon="-0.6415690">
        <ele>402.6</ele>
        <time>2019-01-05T08:52:36Z</time>
      </trkpt>
      <trkpt lat="38.9001120" lon="-0.6415560">
        <ele>403.0</ele>
        <time>2019-01-05T08:52:37Z</time>
      </trkpt>
      <trkpt lat="38.9001010" lon="-0.6414990">
        <ele>404.2</ele>
        <time>2019-01-05T08:52:41Z</time>
      </trkpt>
      <trkpt lat="38.9000970" lon="-0.6414870">
        <ele>404.4</ele>
        <time>2019-01-05T08:52:42Z</time>
      </trkpt>
      <trkpt lat="38.9000730" lon="-0.6414470">
        <ele>405.2</ele>
        <time>2019-01-05T08:52:45Z</time>
      </trkpt>
      <trkpt lat="38.9000760" lon="-0.6414170">
        <ele>405.6</ele>
        <time>2019-01-05T08:52:47Z</time>
      </trkpt>
      <trkpt lat="38.9000600" lon="-0.6413870">
        <ele>406.4</ele>
        <time>2019-01-05T08:52:49Z</time>
      </trkpt>
      <trkpt lat="38.9000470" lon="-0.6413500">
        <ele>407.0</ele>
        <time>2019-01-05T08:52:52Z</time>
      </trkpt>
      <trkpt lat="38.9000450" lon="-0.6413310">
        <ele>407.4</ele>
        <time>2019-01-05T08:52:53Z</time>
      </trkpt>
      <trkpt lat="38.9000040" lon="-0.6412400">
        <ele>408.0</ele>
        <time>2019-01-05T08:52:59Z</time>
      </trkpt>
      <trkpt lat="38.8999910" lon="-0.6412160">
        <ele>408.6</ele>
        <time>2019-01-05T08:53:01Z</time>
      </trkpt>
      <trkpt lat="38.8999380" lon="-0.6411790">
        <ele>409.2</ele>
        <time>2019-01-05T08:53:06Z</time>
      </trkpt>
      <trkpt lat="38.8999010" lon="-0.6411430">
        <ele>410.0</ele>
        <time>2019-01-05T08:53:09Z</time>
      </trkpt>
      <trkpt lat="38.8998620" lon="-0.6411180">
        <ele>410.8</ele>
        <time>2019-01-05T08:53:12Z</time>
      </trkpt>
      <trkpt lat="38.8998390" lon="-0.6411030">
        <ele>410.6</ele>
        <time>2019-01-05T08:53:14Z</time>
      </trkpt>
      <trkpt lat="38.8998230" lon="-0.6410860">
        <ele>410.6</ele>
        <time>2019-01-05T08:53:16Z</time>
      </trkpt>
      <trkpt lat="38.8998170" lon="-0.6410750">
        <ele>410.4</ele>
        <time>2019-01-05T08:53:17Z</time>
      </trkpt>
      <trkpt lat="38.8997370" lon="-0.6409800">
        <ele>409.4</ele>
        <time>2019-01-05T08:53:21Z</time>
      </trkpt>
      <trkpt lat="38.8996690" lon="-0.6408540">
        <ele>409.2</ele>
        <time>2019-01-05T08:53:25Z</time>
      </trkpt>
      <trkpt lat="38.8996750" lon="-0.6406990">
        <ele>409.2</ele>
        <time>2019-01-05T08:53:29Z</time>
      </trkpt>
      <trkpt lat="38.8996870" lon="-0.6406130">
        <ele>408.8</ele>
        <time>2019-01-05T08:53:31Z</time>
      </trkpt>
      <trkpt lat="38.8996910" lon="-0.6405490">
        <ele>408.6</ele>
        <time>2019-01-05T08:53:33Z</time>
      </trkpt>
      <trkpt lat="38.8996990" lon="-0.6405280">
        <ele>408.4</ele>
        <time>2019-01-05T08:53:34Z</time>
      </trkpt>
      <trkpt lat="38.8997180" lon="-0.6404730">
        <ele>408.4</ele>
        <time>2019-01-05T08:53:37Z</time>
      </trkpt>
      <trkpt lat="38.8997320" lon="-0.6404270">
        <ele>407.6</ele>
        <time>2019-01-05T08:53:40Z</time>
      </trkpt>
      <trkpt lat="38.8997450" lon="-0.6403730">
        <ele>406.0</ele>
        <time>2019-01-05T08:53:42Z</time>
      </trkpt>
      <trkpt lat="38.8997530" lon="-0.6403400">
        <ele>405.4</ele>
        <time>2019-01-05T08:53:43Z</time>
      </trkpt>
      <trkpt lat="38.8997580" lon="-0.6403070">
        <ele>404.6</ele>
        <time>2019-01-05T08:53:44Z</time>
      </trkpt>
      <trkpt lat="38.8997630" lon="-0.6402810">
        <ele>403.8</ele>
        <time>2019-01-05T08:53:45Z</time>
      </trkpt>
      <trkpt lat="38.8997750" lon="-0.6402540">
        <ele>403.2</ele>
        <time>2019-01-05T08:53:46Z</time>
      </trkpt>
      <trkpt lat="38.8997940" lon="-0.6402060">
        <ele>402.8</ele>
        <time>2019-01-05T08:53:48Z</time>
      </trkpt>
      <trkpt lat="38.8998170" lon="-0.6401300">
        <ele>402.8</ele>
        <time>2019-01-05T08:53:51Z</time>
      </trkpt>
      <trkpt lat="38.8998030" lon="-0.6399980">
        <ele>402.2</ele>
        <time>2019-01-05T08:53:55Z</time>
      </trkpt>
      <trkpt lat="38.8998070" lon="-0.6399640">
        <ele>401.8</ele>
        <time>2019-01-05T08:53:56Z</time>
      </trkpt>
      <trkpt lat="38.8998230" lon="-0.6399040">
        <ele>401.2</ele>
        <time>2019-01-05T08:53:58Z</time>
      </trkpt>
      <trkpt lat="38.8998250" lon="-0.6398860">
        <ele>401.0</ele>
        <time>2019-01-05T08:53:59Z</time>
      </trkpt>
      <trkpt lat="38.8998270" lon="-0.6398740">
        <ele>401.0</ele>
        <time>2019-01-05T08:54:00Z</time>
      </trkpt>
      <trkpt lat="38.8998360" lon="-0.6398320">
        <ele>400.8</ele>
        <time>2019-01-05T08:54:02Z</time>
      </trkpt>
      <trkpt lat="38.8998350" lon="-0.6397940">
        <ele>400.6</ele>
        <time>2019-01-05T08:54:04Z</time>
      </trkpt>
      <trkpt lat="38.8998320" lon="-0.6397360">
        <ele>400.0</ele>
        <time>2019-01-05T08:54:06Z</time>
      </trkpt>
      <trkpt lat="38.8998350" lon="-0.6397010">
        <ele>399.8</ele>
        <time>2019-01-05T08:54:07Z</time>
      </trkpt>
      <trkpt lat="38.8998350" lon="-0.6396660">
        <ele>399.6</ele>
        <time>2019-01-05T08:54:08Z</time>
      </trkpt>
      <trkpt lat="38.8998310" lon="-0.6395980">
        <ele>398.8</ele>
        <time>2019-01-05T08:54:10Z</time>
      </trkpt>
      <trkpt lat="38.8998230" lon="-0.6395660">
        <ele>398.4</ele>
        <time>2019-01-05T08:54:11Z</time>
      </trkpt>
      <trkpt lat="38.8998140" lon="-0.6395390">
        <ele>398.0</ele>
        <time>2019-01-05T08:54:12Z</time>
      </trkpt>
      <trkpt lat="38.8998090" lon="-0.6395170">
        <ele>397.6</ele>
        <time>2019-01-05T08:54:13Z</time>
      </trkpt>
      <trkpt lat="38.8998100" lon="-0.6394910">
        <ele>397.2</ele>
        <time>2019-01-05T08:54:14Z</time>
      </trkpt>
      <trkpt lat="38.8998340" lon="-0.6394170">
        <ele>396.6</ele>
        <time>2019-01-05T08:54:16Z</time>
      </trkpt>
      <trkpt lat="38.8998450" lon="-0.6393410">
        <ele>395.4</ele>
        <time>2019-01-05T08:54:18Z</time>
      </trkpt>
      <trkpt lat="38.8998530" lon="-0.6392710">
        <ele>395.0</ele>
        <time>2019-01-05T08:54:20Z</time>
      </trkpt>
      <trkpt lat="38.8998550" lon="-0.6391440">
        <ele>394.4</ele>
        <time>2019-01-05T08:54:24Z</time>
      </trkpt>
      <trkpt lat="38.8998510" lon="-0.6391060">
        <ele>394.2</ele>
        <time>2019-01-05T08:54:25Z</time>
      </trkpt>
      <trkpt lat="38.8998210" lon="-0.6389860">
        <ele>393.8</ele>
        <time>2019-01-05T08:54:29Z</time>
      </trkpt>
      <trkpt lat="38.8998100" lon="-0.6389620">
        <ele>394.0</ele>
        <time>2019-01-05T08:54:30Z</time>
      </trkpt>
      <trkpt lat="38.8998040" lon="-0.6389350">
        <ele>394.0</ele>
        <time>2019-01-05T08:54:31Z</time>
      </trkpt>
      <trkpt lat="38.8997980" lon="-0.6389050">
        <ele>394.0</ele>
        <time>2019-01-05T08:54:32Z</time>
      </trkpt>
      <trkpt lat="38.8997780" lon="-0.6388140">
        <ele>393.6</ele>
        <time>2019-01-05T08:54:35Z</time>
      </trkpt>
      <trkpt lat="38.8997600" lon="-0.6387590">
        <ele>393.4</ele>
        <time>2019-01-05T08:54:37Z</time>
      </trkpt>
      <trkpt lat="38.8997470" lon="-0.6387410">
        <ele>393.4</ele>
        <time>2019-01-05T08:54:38Z</time>
      </trkpt>
      <trkpt lat="38.8997620" lon="-0.6386690">
        <ele>394.0</ele>
        <time>2019-01-05T08:54:42Z</time>
      </trkpt>
      <trkpt lat="38.8997270" lon="-0.6385720">
        <ele>393.0</ele>
        <time>2019-01-05T08:54:46Z</time>
      </trkpt>
      <trkpt lat="38.8997180" lon="-0.6385440">
        <ele>392.4</ele>
        <time>2019-01-05T08:54:47Z</time>
      </trkpt>
      <trkpt lat="38.8997100" lon="-0.6385090">
        <ele>391.8</ele>
        <time>2019-01-05T08:54:48Z</time>
      </trkpt>
      <trkpt lat="38.8996710" lon="-0.6384140">
        <ele>390.8</ele>
        <time>2019-01-05T08:54:51Z</time>
      </trkpt>
      <trkpt lat="38.8996630" lon="-0.6383840">
        <ele>390.8</ele>
        <time>2019-01-05T08:54:52Z</time>
      </trkpt>
      <trkpt lat="38.8996570" lon="-0.6382990">
        <ele>391.0</ele>
        <time>2019-01-05T08:54:55Z</time>
      </trkpt>
      <trkpt lat="38.8996200" lon="-0.6381870">
        <ele>390.6</ele>
        <time>2019-01-05T08:54:59Z</time>
      </trkpt>
      <trkpt lat="38.8996080" lon="-0.6381650">
        <ele>390.2</ele>
        <time>2019-01-05T08:55:00Z</time>
      </trkpt>
      <trkpt lat="38.8995920" lon="-0.6381420">
        <ele>389.8</ele>
        <time>2019-01-05T08:55:01Z</time>
      </trkpt>
      <trkpt lat="38.8995660" lon="-0.6381220">
        <ele>389.6</ele>
        <time>2019-01-05T08:55:02Z</time>
      </trkpt>
      <trkpt lat="38.8995280" lon="-0.6381040">
        <ele>388.6</ele>
        <time>2019-01-05T08:55:04Z</time>
      </trkpt>
      <trkpt lat="38.8995150" lon="-0.6380970">
        <ele>388.0</ele>
        <time>2019-01-05T08:55:05Z</time>
      </trkpt>
      <trkpt lat="38.8994900" lon="-0.6380600">
        <ele>387.0</ele>
        <time>2019-01-05T08:55:07Z</time>
      </trkpt>
      <trkpt lat="38.8994890" lon="-0.6380430">
        <ele>386.6</ele>
        <time>2019-01-05T08:55:08Z</time>
      </trkpt>
      <trkpt lat="38.8994860" lon="-0.6380100">
        <ele>386.4</ele>
        <time>2019-01-05T08:55:10Z</time>
      </trkpt>
      <trkpt lat="38.8994840" lon="-0.6379600">
        <ele>386.4</ele>
        <time>2019-01-05T08:55:13Z</time>
      </trkpt>
      <trkpt lat="38.8994510" lon="-0.6379280">
        <ele>387.0</ele>
        <time>2019-01-05T08:55:16Z</time>
      </trkpt>
      <trkpt lat="38.8994210" lon="-0.6379050">
        <ele>387.2</ele>
        <time>2019-01-05T08:55:18Z</time>
      </trkpt>
      <trkpt lat="38.8993940" lon="-0.6378760">
        <ele>387.4</ele>
        <time>2019-01-05T08:55:20Z</time>
      </trkpt>
      <trkpt lat="38.8993590" lon="-0.6378270">
        <ele>387.4</ele>
        <time>2019-01-05T08:55:23Z</time>
      </trkpt>
      <trkpt lat="38.8993190" lon="-0.6377970">
        <ele>388.0</ele>
        <time>2019-01-05T08:55:26Z</time>
      </trkpt>
      <trkpt lat="38.8992910" lon="-0.6377710">
        <ele>388.4</ele>
        <time>2019-01-05T08:55:28Z</time>
      </trkpt>
      <trkpt lat="38.8992460" lon="-0.6377190">
        <ele>388.2</ele>
        <time>2019-01-05T08:55:32Z</time>
      </trkpt>
      <trkpt lat="38.8992300" lon="-0.6377150">
        <ele>388.2</ele>
        <time>2019-01-05T08:55:33Z</time>
      </trkpt>
      <trkpt lat="38.8991830" lon="-0.6376780">
        <ele>388.6</ele>
        <time>2019-01-05T08:55:37Z</time>
      </trkpt>
      <trkpt lat="38.8991730" lon="-0.6376460">
        <ele>388.8</ele>
        <time>2019-01-05T08:55:39Z</time>
      </trkpt>
      <trkpt lat="38.8991680" lon="-0.6376310">
        <ele>389.0</ele>
        <time>2019-01-05T08:55:40Z</time>
      </trkpt>
      <trkpt lat="38.8991620" lon="-0.6375950">
        <ele>389.2</ele>
        <time>2019-01-05T08:55:42Z</time>
      </trkpt>
      <trkpt lat="38.8991550" lon="-0.6375760">
        <ele>389.4</ele>
        <time>2019-01-05T08:55:43Z</time>
      </trkpt>
      <trkpt lat="38.8991260" lon="-0.6375020">
        <ele>390.4</ele>
        <time>2019-01-05T08:55:47Z</time>
      </trkpt>
      <trkpt lat="38.8991240" lon="-0.6374680">
        <ele>391.0</ele>
        <time>2019-01-05T08:55:49Z</time>
      </trkpt>
      <trkpt lat="38.8991190" lon="-0.6374570">
        <ele>391.4</ele>
        <time>2019-01-05T08:55:50Z</time>
      </trkpt>
      <trkpt lat="38.8991190" lon="-0.6374490">
        <ele>391.6</ele>
        <time>2019-01-05T08:55:51Z</time>
      </trkpt>
      <trkpt lat="38.8991160" lon="-0.6374280">
        <ele>392.2</ele>
        <time>2019-01-05T08:55:53Z</time>
      </trkpt>
      <trkpt lat="38.8991150" lon="-0.6374060">
        <ele>392.8</ele>
        <time>2019-01-05T08:55:55Z</time>
      </trkpt>
      <trkpt lat="38.8991140" lon="-0.6374000">
        <ele>393.2</ele>
        <time>2019-01-05T08:55:56Z</time>
      </trkpt>
      <trkpt lat="38.8991150" lon="-0.6373900">
        <ele>393.4</ele>
        <time>2019-01-05T08:55:57Z</time>
      </trkpt>
      <trkpt lat="38.8991220" lon="-0.6373690">
        <ele>394.0</ele>
        <time>2019-01-05T08:55:59Z</time>
      </trkpt>
      <trkpt lat="38.8991270" lon="-0.6373610">
        <ele>394.4</ele>
        <time>2019-01-05T08:56:00Z</time>
      </trkpt>
      <trkpt lat="38.8991340" lon="-0.6373610">
        <ele>395.0</ele>
        <time>2019-01-05T08:56:02Z</time>
      </trkpt>
      <trkpt lat="38.8991360" lon="-0.6373570">
        <ele>395.2</ele>
        <time>2019-01-05T08:56:03Z</time>
      </trkpt>
      <trkpt lat="38.8991410" lon="-0.6373300">
        <ele>396.2</ele>
        <time>2019-01-05T08:56:06Z</time>
      </trkpt>
      <trkpt lat="38.8991450" lon="-0.6373210">
        <ele>396.6</ele>
        <time>2019-01-05T08:56:08Z</time>
      </trkpt>
      <trkpt lat="38.8991510" lon="-0.6373190">
        <ele>396.8</ele>
        <time>2019-01-05T08:56:09Z</time>
      </trkpt>
      <trkpt lat="38.8991540" lon="-0.6372970">
        <ele>397.4</ele>
        <time>2019-01-05T08:56:11Z</time>
      </trkpt>
      <trkpt lat="38.8991520" lon="-0.6372650">
        <ele>398.0</ele>
        <time>2019-01-05T08:56:14Z</time>
      </trkpt>
      <trkpt lat="38.8991460" lon="-0.6372440">
        <ele>398.4</ele>
        <time>2019-01-05T08:56:16Z</time>
      </trkpt>
      <trkpt lat="38.8991450" lon="-0.6372380">
        <ele>398.8</ele>
        <time>2019-01-05T08:56:17Z</time>
      </trkpt>
      <trkpt lat="38.8991410" lon="-0.6372320">
        <ele>399.6</ele>
        <time>2019-01-05T08:56:19Z</time>
      </trkpt>
      <trkpt lat="38.8991390" lon="-0.6372230">
        <ele>399.8</ele>
        <time>2019-01-05T08:56:20Z</time>
      </trkpt>
      <trkpt lat="38.8991340" lon="-0.6371900">
        <ele>400.2</ele>
        <time>2019-01-05T08:56:23Z</time>
      </trkpt>
      <trkpt lat="38.8991410" lon="-0.6371860">
        <ele>400.4</ele>
        <time>2019-01-05T08:56:24Z</time>
      </trkpt>
      <trkpt lat="38.8991480" lon="-0.6371750">
        <ele>400.6</ele>
        <time>2019-01-05T08:56:25Z</time>
      </trkpt>
      <trkpt lat="38.8991500" lon="-0.6371550">
        <ele>401.6</ele>
        <time>2019-01-05T08:56:27Z</time>
      </trkpt>
      <trkpt lat="38.8991510" lon="-0.6371480">
        <ele>402.0</ele>
        <time>2019-01-05T08:56:28Z</time>
      </trkpt>
      <trkpt lat="38.8991580" lon="-0.6371420">
        <ele>402.6</ele>
        <time>2019-01-05T08:56:32Z</time>
      </trkpt>
      <trkpt lat="38.8991610" lon="-0.6371400">
        <ele>402.8</ele>
        <time>2019-01-05T08:56:34Z</time>
      </trkpt>
      <trkpt lat="38.8991720" lon="-0.6371270">
        <ele>403.8</ele>
        <time>2019-01-05T08:56:39Z</time>
      </trkpt>
      <trkpt lat="38.8991830" lon="-0.6371120">
        <ele>404.8</ele>
        <time>2019-01-05T08:56:44Z</time>
      </trkpt>
      <trkpt lat="38.8991880" lon="-0.6371080">
        <ele>405.0</ele>
        <time>2019-01-05T08:56:45Z</time>
      </trkpt>
      <trkpt lat="38.8992060" lon="-0.6371050">
        <ele>405.8</ele>
        <time>2019-01-05T08:56:50Z</time>
      </trkpt>
      <trkpt lat="38.8992120" lon="-0.6370990">
        <ele>406.2</ele>
        <time>2019-01-05T08:56:51Z</time>
      </trkpt>
      <trkpt lat="38.8992180" lon="-0.6370940">
        <ele>407.0</ele>
        <time>2019-01-05T08:56:54Z</time>
      </trkpt>
      <trkpt lat="38.8992210" lon="-0.6370990">
        <ele>407.0</ele>
        <time>2019-01-05T08:56:56Z</time>
      </trkpt>
      <trkpt lat="38.8991930" lon="-0.6371290">
        <ele>406.4</ele>
        <time>2019-01-05T08:57:01Z</time>
      </trkpt>
      <trkpt lat="38.8991870" lon="-0.6371370">
        <ele>405.6</ele>
        <time>2019-01-05T08:57:03Z</time>
      </trkpt>
      <trkpt lat="38.8991680" lon="-0.6371400">
        <ele>404.6</ele>
        <time>2019-01-05T08:57:06Z</time>
      </trkpt>
      <trkpt lat="38.8991610" lon="-0.6371440">
        <ele>404.4</ele>
        <time>2019-01-05T08:57:07Z</time>
      </trkpt>
      <trkpt lat="38.8991390" lon="-0.6371360">
        <ele>403.6</ele>
        <time>2019-01-05T08:57:10Z</time>
      </trkpt>
      <trkpt lat="38.8991250" lon="-0.6371220">
        <ele>403.2</ele>
        <time>2019-01-05T08:57:12Z</time>
      </trkpt>
      <trkpt lat="38.8990970" lon="-0.6370480">
        <ele>403.6</ele>
        <time>2019-01-05T08:57:18Z</time>
      </trkpt>
      <trkpt lat="38.8990970" lon="-0.6370380">
        <ele>404.0</ele>
        <time>2019-01-05T08:57:21Z</time>
      </trkpt>
      <trkpt lat="38.8990950" lon="-0.6370360">
        <ele>404.2</ele>
        <time>2019-01-05T08:57:25Z</time>
      </trkpt>
      <trkpt lat="38.8990910" lon="-0.6370210">
        <ele>404.2</ele>
        <time>2019-01-05T08:57:29Z</time>
      </trkpt>
      <trkpt lat="38.8990840" lon="-0.6370080">
        <ele>404.2</ele>
        <time>2019-01-05T08:57:33Z</time>
      </trkpt>
      <trkpt lat="38.8990770" lon="-0.6370040">
        <ele>404.4</ele>
        <time>2019-01-05T08:57:35Z</time>
      </trkpt>
      <trkpt lat="38.8990640" lon="-0.6370120">
        <ele>405.2</ele>
        <time>2019-01-05T08:57:41Z</time>
      </trkpt>
      <trkpt lat="38.8990630" lon="-0.6370210">
        <ele>405.4</ele>
        <time>2019-01-05T08:57:43Z</time>
      </trkpt>
      <trkpt lat="38.8990690" lon="-0.6370550">
        <ele>405.2</ele>
        <time>2019-01-05T08:57:46Z</time>
      </trkpt>
      <trkpt lat="38.8990860" lon="-0.6370740">
        <ele>404.6</ele>
        <time>2019-01-05T08:57:50Z</time>
      </trkpt>
      <trkpt lat="38.8990930" lon="-0.6370880">
        <ele>404.4</ele>
        <time>2019-01-05T08:57:52Z</time>
      </trkpt>
      <trkpt lat="38.8990970" lon="-0.6371060">
        <ele>404.0</ele>
        <time>2019-01-05T08:57:54Z</time>
      </trkpt>
      <trkpt lat="38.8990990" lon="-0.6371370">
        <ele>403.6</ele>
        <time>2019-01-05T08:57:57Z</time>
      </trkpt>
      <trkpt lat="38.8991020" lon="-0.6371430">
        <ele>403.6</ele>
        <time>2019-01-05T08:57:58Z</time>
      </trkpt>
      <trkpt lat="38.8991030" lon="-0.6371450">
        <ele>403.6</ele>
        <time>2019-01-05T08:58:00Z</time>
      </trkpt>
      <trkpt lat="38.8991130" lon="-0.6371470">
        <ele>403.4</ele>
        <time>2019-01-05T08:58:04Z</time>
      </trkpt>
      <trkpt lat="38.8991280" lon="-0.6371420">
        <ele>403.6</ele>
        <time>2019-01-05T08:58:07Z</time>
      </trkpt>
      <trkpt lat="38.8991480" lon="-0.6371300">
        <ele>403.6</ele>
        <time>2019-01-05T08:58:10Z</time>
      </trkpt>
      <trkpt lat="38.8991560" lon="-0.6371340">
        <ele>403.0</ele>
        <time>2019-01-05T08:58:11Z</time>
      </trkpt>
      <trkpt lat="38.8991790" lon="-0.6371200">
        <ele>404.6</ele>
        <time>2019-01-05T08:58:14Z</time>
      </trkpt>
      <trkpt lat="38.8991870" lon="-0.6371130">
        <ele>404.8</ele>
        <time>2019-01-05T08:58:15Z</time>
      </trkpt>
      <trkpt lat="38.8991960" lon="-0.6371100">
        <ele>405.4</ele>
        <time>2019-01-05T08:58:16Z</time>
      </trkpt>
      <trkpt lat="38.8992290" lon="-0.6370880">
        <ele>405.6</ele>
        <time>2019-01-05T08:58:20Z</time>
      </trkpt>
      <trkpt lat="38.8992360" lon="-0.6370790">
        <ele>406.0</ele>
        <time>2019-01-05T08:58:21Z</time>
      </trkpt>
      <trkpt lat="38.8992460" lon="-0.6370430">
        <ele>406.8</ele>
        <time>2019-01-05T08:58:25Z</time>
      </trkpt>
      <trkpt lat="38.8992540" lon="-0.6370140">
        <ele>407.6</ele>
        <time>2019-01-05T08:58:27Z</time>
      </trkpt>
      <trkpt lat="38.8992550" lon="-0.6370030">
        <ele>408.2</ele>
        <time>2019-01-05T08:58:28Z</time>
      </trkpt>
      <trkpt lat="38.8992530" lon="-0.6369920">
        <ele>408.4</ele>
        <time>2019-01-05T08:58:29Z</time>
      </trkpt>
      <trkpt lat="38.8992580" lon="-0.6369770">
        <ele>409.0</ele>
        <time>2019-01-05T08:58:31Z</time>
      </trkpt>
      <trkpt lat="38.8992500" lon="-0.6369630">
        <ele>409.4</ele>
        <time>2019-01-05T08:58:32Z</time>
      </trkpt>
      <trkpt lat="38.8992430" lon="-0.6369340">
        <ele>410.2</ele>
        <time>2019-01-05T08:58:34Z</time>
      </trkpt>
      <trkpt lat="38.8992470" lon="-0.6369200">
        <ele>410.6</ele>
        <time>2019-01-05T08:58:35Z</time>
      </trkpt>
      <trkpt lat="38.8992520" lon="-0.6369140">
        <ele>410.8</ele>
        <time>2019-01-05T08:58:36Z</time>
      </trkpt>
      <trkpt lat="38.8992480" lon="-0.6369000">
        <ele>411.2</ele>
        <time>2019-01-05T08:58:38Z</time>
      </trkpt>
      <trkpt lat="38.8992450" lon="-0.6368890">
        <ele>411.6</ele>
        <time>2019-01-05T08:58:41Z</time>
      </trkpt>
      <trkpt lat="38.8992480" lon="-0.6368830">
        <ele>411.8</ele>
        <time>2019-01-05T08:58:42Z</time>
      </trkpt>
      <trkpt lat="38.8992480" lon="-0.6368620">
        <ele>412.4</ele>
        <time>2019-01-05T08:58:45Z</time>
      </trkpt>
      <trkpt lat="38.8992690" lon="-0.6368580">
        <ele>412.8</ele>
        <time>2019-01-05T08:58:47Z</time>
      </trkpt>
      <trkpt lat="38.8992710" lon="-0.6368450">
        <ele>413.4</ele>
        <time>2019-01-05T08:58:49Z</time>
      </trkpt>
      <trkpt lat="38.8992660" lon="-0.6368420">
        <ele>414.0</ele>
        <time>2019-01-05T08:58:51Z</time>
      </trkpt>
      <trkpt lat="38.8992600" lon="-0.6368310">
        <ele>414.4</ele>
        <time>2019-01-05T08:58:53Z</time>
      </trkpt>
      <trkpt lat="38.8992610" lon="-0.6368220">
        <ele>414.4</ele>
        <time>2019-01-05T08:58:54Z</time>
      </trkpt>
      <trkpt lat="38.8992660" lon="-0.6368130">
        <ele>415.2</ele>
        <time>2019-01-05T08:58:58Z</time>
      </trkpt>
      <trkpt lat="38.8992700" lon="-0.6368120">
        <ele>415.6</ele>
        <time>2019-01-05T08:58:59Z</time>
      </trkpt>
      <trkpt lat="38.8992800" lon="-0.6368190">
        <ele>416.2</ele>
        <time>2019-01-05T08:59:01Z</time>
      </trkpt>
      <trkpt lat="38.8992800" lon="-0.6368200">
        <ele>416.8</ele>
        <time>2019-01-05T08:59:03Z</time>
      </trkpt>
      <trkpt lat="38.8992810" lon="-0.6368230">
        <ele>417.4</ele>
        <time>2019-01-05T08:59:05Z</time>
      </trkpt>
      <trkpt lat="38.8992670" lon="-0.6368050">
        <ele>418.2</ele>
        <time>2019-01-05T08:59:09Z</time>
      </trkpt>
      <trkpt lat="38.8992630" lon="-0.6368000">
        <ele>418.4</ele>
        <time>2019-01-05T08:59:10Z</time>
      </trkpt>
      <trkpt lat="38.8992320" lon="-0.6367860">
        <ele>419.6</ele>
        <time>2019-01-05T08:59:15Z</time>
      </trkpt>
      <trkpt lat="38.8992110" lon="-0.6367760">
        <ele>419.8</ele>
        <time>2019-01-05T08:59:17Z</time>
      </trkpt>
      <trkpt lat="38.8992010" lon="-0.6367510">
        <ele>420.2</ele>
        <time>2019-01-05T08:59:19Z</time>
      </trkpt>
      <trkpt lat="38.8991850" lon="-0.6367290">
        <ele>420.4</ele>
        <time>2019-01-05T08:59:22Z</time>
      </trkpt>
      <trkpt lat="38.8991650" lon="-0.6367120">
        <ele>420.6</ele>
        <time>2019-01-05T08:59:26Z</time>
      </trkpt>
      <trkpt lat="38.8991600" lon="-0.6367050">
        <ele>420.6</ele>
        <time>2019-01-05T08:59:27Z</time>
      </trkpt>
      <trkpt lat="38.8991520" lon="-0.6366950">
        <ele>420.6</ele>
        <time>2019-01-05T08:59:28Z</time>
      </trkpt>
      <trkpt lat="38.8991450" lon="-0.6366850">
        <ele>420.6</ele>
        <time>2019-01-05T08:59:29Z</time>
      </trkpt>
      <trkpt lat="38.8991400" lon="-0.6366650">
        <ele>420.6</ele>
        <time>2019-01-05T08:59:32Z</time>
      </trkpt>
      <trkpt lat="38.8991340" lon="-0.6366540">
        <ele>420.8</ele>
        <time>2019-01-05T08:59:33Z</time>
      </trkpt>
      <trkpt lat="38.8991180" lon="-0.6366420">
        <ele>421.8</ele>
        <time>2019-01-05T08:59:36Z</time>
      </trkpt>
      <trkpt lat="38.8991190" lon="-0.6366290">
        <ele>423.0</ele>
        <time>2019-01-05T08:59:40Z</time>
      </trkpt>
      <trkpt lat="38.8990750" lon="-0.6366470">
        <ele>424.0</ele>
        <time>2019-01-05T08:59:46Z</time>
      </trkpt>
      <trkpt lat="38.8990540" lon="-0.6366510">
        <ele>424.2</ele>
        <time>2019-01-05T08:59:48Z</time>
      </trkpt>
      <trkpt lat="38.8990240" lon="-0.6366520">
        <ele>424.8</ele>
        <time>2019-01-05T08:59:51Z</time>
      </trkpt>
      <trkpt lat="38.8990210" lon="-0.6366520">
        <ele>425.0</ele>
        <time>2019-01-05T08:59:52Z</time>
      </trkpt>
      <trkpt lat="38.8989950" lon="-0.6366380">
        <ele>425.6</ele>
        <time>2019-01-05T08:59:55Z</time>
      </trkpt>
      <trkpt lat="38.8989850" lon="-0.6366280">
        <ele>426.4</ele>
        <time>2019-01-05T08:59:57Z</time>
      </trkpt>
      <trkpt lat="38.8989780" lon="-0.6366030">
        <ele>426.8</ele>
        <time>2019-01-05T08:59:59Z</time>
      </trkpt>
      <trkpt lat="38.8989780" lon="-0.6366000">
        <ele>426.8</ele>
        <time>2019-01-05T09:00:00Z</time>
      </trkpt>
      <trkpt lat="38.8989760" lon="-0.6365960">
        <ele>427.0</ele>
        <time>2019-01-05T09:00:01Z</time>
      </trkpt>
      <trkpt lat="38.8989630" lon="-0.6365850">
        <ele>427.6</ele>
        <time>2019-01-05T09:00:04Z</time>
      </trkpt>
      <trkpt lat="38.8989550" lon="-0.6365820">
        <ele>427.8</ele>
        <time>2019-01-05T09:00:05Z</time>
      </trkpt>
      <trkpt lat="38.8989490" lon="-0.6365730">
        <ele>428.0</ele>
        <time>2019-01-05T09:00:06Z</time>
      </trkpt>
      <trkpt lat="38.8989310" lon="-0.6365490">
        <ele>428.4</ele>
        <time>2019-01-05T09:00:08Z</time>
      </trkpt>
      <trkpt lat="38.8989270" lon="-0.6365270">
        <ele>429.0</ele>
        <time>2019-01-05T09:00:10Z</time>
      </trkpt>
      <trkpt lat="38.8989300" lon="-0.6365200">
        <ele>429.4</ele>
        <time>2019-01-05T09:00:11Z</time>
      </trkpt>
      <trkpt lat="38.8989300" lon="-0.6364920">
        <ele>430.2</ele>
        <time>2019-01-05T09:00:14Z</time>
      </trkpt>
      <trkpt lat="38.8989270" lon="-0.6364760">
        <ele>431.2</ele>
        <time>2019-01-05T09:00:18Z</time>
      </trkpt>
      <trkpt lat="38.8989280" lon="-0.6364510">
        <ele>432.2</ele>
        <time>2019-01-05T09:00:22Z</time>
      </trkpt>
      <trkpt lat="38.8989300" lon="-0.6364400">
        <ele>432.2</ele>
        <time>2019-01-05T09:00:23Z</time>
      </trkpt>
      <trkpt lat="38.8989200" lon="-0.6364320">
        <ele>433.0</ele>
        <time>2019-01-05T09:00:25Z</time>
      </trkpt>
      <trkpt lat="38.8989180" lon="-0.6364230">
        <ele>433.4</ele>
        <time>2019-01-05T09:00:26Z</time>
      </trkpt>
      <trkpt lat="38.8989130" lon="-0.6363870">
        <ele>434.2</ele>
        <time>2019-01-05T09:00:32Z</time>
      </trkpt>
      <trkpt lat="38.8989100" lon="-0.6363840">
        <ele>434.4</ele>
        <time>2019-01-05T09:00:33Z</time>
      </trkpt>
      <trkpt lat="38.8988810" lon="-0.6363670">
        <ele>435.2</ele>
        <time>2019-01-05T09:00:38Z</time>
      </trkpt>
      <trkpt lat="38.8988750" lon="-0.6363640">
        <ele>435.2</ele>
        <time>2019-01-05T09:00:39Z</time>
      </trkpt>
      <trkpt lat="38.8988720" lon="-0.6363570">
        <ele>435.4</ele>
        <time>2019-01-05T09:00:40Z</time>
      </trkpt>
      <trkpt lat="38.8988540" lon="-0.6363210">
        <ele>435.8</ele>
        <time>2019-01-05T09:00:43Z</time>
      </trkpt>
      <trkpt lat="38.8988450" lon="-0.6362950">
        <ele>435.8</ele>
        <time>2019-01-05T09:00:45Z</time>
      </trkpt>
      <trkpt lat="38.8988330" lon="-0.6362830">
        <ele>436.2</ele>
        <time>2019-01-05T09:00:47Z</time>
      </trkpt>
      <trkpt lat="38.8988180" lon="-0.6362780">
        <ele>436.4</ele>
        <time>2019-01-05T09:00:49Z</time>
      </trkpt>
      <trkpt lat="38.8988100" lon="-0.6362770">
        <ele>436.6</ele>
        <time>2019-01-05T09:00:50Z</time>
      </trkpt>
      <trkpt lat="38.8988040" lon="-0.6362730">
        <ele>436.6</ele>
        <time>2019-01-05T09:00:51Z</time>
      </trkpt>
      <trkpt lat="38.8988030" lon="-0.6362650">
        <ele>436.8</ele>
        <time>2019-01-05T09:00:52Z</time>
      </trkpt>
      <trkpt lat="38.8988010" lon="-0.6362600">
        <ele>436.8</ele>
        <time>2019-01-05T09:00:53Z</time>
      </trkpt>
      <trkpt lat="38.8987840" lon="-0.6362550">
        <ele>437.6</ele>
        <time>2019-01-05T09:00:56Z</time>
      </trkpt>
      <trkpt lat="38.8987670" lon="-0.6362660">
        <ele>438.0</ele>
        <time>2019-01-05T09:00:58Z</time>
      </trkpt>
      <trkpt lat="38.8987370" lon="-0.6362610">
        <ele>438.6</ele>
        <time>2019-01-05T09:01:01Z</time>
      </trkpt>
      <trkpt lat="38.8987280" lon="-0.6362590">
        <ele>438.6</ele>
        <time>2019-01-05T09:01:02Z</time>
      </trkpt>
      <trkpt lat="38.8986780" lon="-0.6362590">
        <ele>439.4</ele>
        <time>2019-01-05T09:01:07Z</time>
      </trkpt>
      <trkpt lat="38.8986690" lon="-0.6362600">
        <ele>439.6</ele>
        <time>2019-01-05T09:01:08Z</time>
      </trkpt>
      <trkpt lat="38.8986520" lon="-0.6362610">
        <ele>439.8</ele>
        <time>2019-01-05T09:01:10Z</time>
      </trkpt>
      <trkpt lat="38.8986420" lon="-0.6362650">
        <ele>440.0</ele>
        <time>2019-01-05T09:01:11Z</time>
      </trkpt>
      <trkpt lat="38.8986300" lon="-0.6362550">
        <ele>440.4</ele>
        <time>2019-01-05T09:01:13Z</time>
      </trkpt>
      <trkpt lat="38.8986300" lon="-0.6362420">
        <ele>440.6</ele>
        <time>2019-01-05T09:01:14Z</time>
      </trkpt>
      <trkpt lat="38.8986280" lon="-0.6362300">
        <ele>441.0</ele>
        <time>2019-01-05T09:01:15Z</time>
      </trkpt>
      <trkpt lat="38.8986170" lon="-0.6362270">
        <ele>441.6</ele>
        <time>2019-01-05T09:01:17Z</time>
      </trkpt>
      <trkpt lat="38.8986150" lon="-0.6362050">
        <ele>442.0</ele>
        <time>2019-01-05T09:01:19Z</time>
      </trkpt>
      <trkpt lat="38.8985970" lon="-0.6361880">
        <ele>442.8</ele>
        <time>2019-01-05T09:01:22Z</time>
      </trkpt>
      <trkpt lat="38.8985620" lon="-0.6361790">
        <ele>443.4</ele>
        <time>2019-01-05T09:01:27Z</time>
      </trkpt>
      <trkpt lat="38.8985460" lon="-0.6361360">
        <ele>444.6</ele>
        <time>2019-01-05T09:01:30Z</time>
      </trkpt>
      <trkpt lat="38.8985270" lon="-0.6361180">
        <ele>445.2</ele>
        <time>2019-01-05T09:01:33Z</time>
      </trkpt>
      <trkpt lat="38.8985190" lon="-0.6361170">
        <ele>445.4</ele>
        <time>2019-01-05T09:01:34Z</time>
      </trkpt>
      <trkpt lat="38.8985130" lon="-0.6361170">
        <ele>445.6</ele>
        <time>2019-01-05T09:01:35Z</time>
      </trkpt>
      <trkpt lat="38.8984720" lon="-0.6361270">
        <ele>446.4</ele>
        <time>2019-01-05T09:01:39Z</time>
      </trkpt>
      <trkpt lat="38.8984570" lon="-0.6361190">
        <ele>447.0</ele>
        <time>2019-01-05T09:01:41Z</time>
      </trkpt>
      <trkpt lat="38.8984440" lon="-0.6361030">
        <ele>448.0</ele>
        <time>2019-01-05T09:01:43Z</time>
      </trkpt>
      <trkpt lat="38.8984380" lon="-0.6360980">
        <ele>448.4</ele>
        <time>2019-01-05T09:01:44Z</time>
      </trkpt>
      <trkpt lat="38.8984100" lon="-0.6360730">
        <ele>449.2</ele>
        <time>2019-01-05T09:01:49Z</time>
      </trkpt>
      <trkpt lat="38.8984020" lon="-0.6360670">
        <ele>449.6</ele>
        <time>2019-01-05T09:01:50Z</time>
      </trkpt>
      <trkpt lat="38.8983840" lon="-0.6360770">
        <ele>450.4</ele>
        <time>2019-01-05T09:01:53Z</time>
      </trkpt>
      <trkpt lat="38.8983810" lon="-0.6360750">
        <ele>450.6</ele>
        <time>2019-01-05T09:01:54Z</time>
      </trkpt>
      <trkpt lat="38.8983680" lon="-0.6360460">
        <ele>451.6</ele>
        <time>2019-01-05T09:01:58Z</time>
      </trkpt>
      <trkpt lat="38.8983640" lon="-0.6360250">
        <ele>452.2</ele>
        <time>2019-01-05T09:02:02Z</time>
      </trkpt>
      <trkpt lat="38.8983660" lon="-0.6360180">
        <ele>452.6</ele>
        <time>2019-01-05T09:02:07Z</time>
      </trkpt>
      <trkpt lat="38.8983660" lon="-0.6360120">
        <ele>452.6</ele>
        <time>2019-01-05T09:02:10Z</time>
      </trkpt>
      <trkpt lat="38.8983730" lon="-0.6359960">
        <ele>452.6</ele>
        <time>2019-01-05T09:02:14Z</time>
      </trkpt>
      <trkpt lat="38.8983700" lon="-0.6359800">
        <ele>452.8</ele>
        <time>2019-01-05T09:02:15Z</time>
      </trkpt>
      <trkpt lat="38.8983620" lon="-0.6359480">
        <ele>453.6</ele>
        <time>2019-01-05T09:02:19Z</time>
      </trkpt>
      <trkpt lat="38.8983610" lon="-0.6359460">
        <ele>453.8</ele>
        <time>2019-01-05T09:02:20Z</time>
      </trkpt>
      <trkpt lat="38.8983480" lon="-0.6359480">
        <ele>454.8</ele>
        <time>2019-01-05T09:02:24Z</time>
      </trkpt>
      <trkpt lat="38.8983460" lon="-0.6359490">
        <ele>455.2</ele>
        <time>2019-01-05T09:02:25Z</time>
      </trkpt>
      <trkpt lat="38.8983440" lon="-0.6359350">
        <ele>456.2</ele>
        <time>2019-01-05T09:02:28Z</time>
      </trkpt>
      <trkpt lat="38.8983410" lon="-0.6359340">
        <ele>456.4</ele>
        <time>2019-01-05T09:02:29Z</time>
      </trkpt>
      <trkpt lat="38.8983290" lon="-0.6359130">
        <ele>457.4</ele>
        <time>2019-01-05T09:02:34Z</time>
      </trkpt>
      <trkpt lat="38.8983180" lon="-0.6359200">
        <ele>457.4</ele>
        <time>2019-01-05T09:02:40Z</time>
      </trkpt>
      <trkpt lat="38.8982730" lon="-0.6359330">
        <ele>458.4</ele>
        <time>2019-01-05T09:02:44Z</time>
      </trkpt>
      <trkpt lat="38.8982640" lon="-0.6359340">
        <ele>459.0</ele>
        <time>2019-01-05T09:02:46Z</time>
      </trkpt>
      <trkpt lat="38.8982580" lon="-0.6359200">
        <ele>459.6</ele>
        <time>2019-01-05T09:02:48Z</time>
      </trkpt>
      <trkpt lat="38.8982440" lon="-0.6359170">
        <ele>460.0</ele>
        <time>2019-01-05T09:02:50Z</time>
      </trkpt>
      <trkpt lat="38.8982380" lon="-0.6359070">
        <ele>460.6</ele>
        <time>2019-01-05T09:02:52Z</time>
      </trkpt>
      <trkpt lat="38.8982350" lon="-0.6358880">
        <ele>461.6</ele>
        <time>2019-01-05T09:02:55Z</time>
      </trkpt>
      <trkpt lat="38.8982360" lon="-0.6358770">
        <ele>462.2</ele>
        <time>2019-01-05T09:02:58Z</time>
      </trkpt>
      <trkpt lat="38.8982360" lon="-0.6358750">
        <ele>462.8</ele>
        <time>2019-01-05T09:02:59Z</time>
      </trkpt>
      <trkpt lat="38.8982300" lon="-0.6358470">
        <ele>463.6</ele>
        <time>2019-01-05T09:03:02Z</time>
      </trkpt>
      <trkpt lat="38.8982310" lon="-0.6358280">
        <ele>463.8</ele>
        <time>2019-01-05T09:03:04Z</time>
      </trkpt>
      <trkpt lat="38.8982330" lon="-0.6358310">
        <ele>464.4</ele>
        <time>2019-01-05T09:03:06Z</time>
      </trkpt>
      <trkpt lat="38.8982330" lon="-0.6358290">
        <ele>465.2</ele>
        <time>2019-01-05T09:03:08Z</time>
      </trkpt>
      <trkpt lat="38.8982310" lon="-0.6358260">
        <ele>466.0</ele>
        <time>2019-01-05T09:03:11Z</time>
      </trkpt>
      <trkpt lat="38.8982220" lon="-0.6358270">
        <ele>466.2</ele>
        <time>2019-01-05T09:03:13Z</time>
      </trkpt>
      <trkpt lat="38.8982100" lon="-0.6358180">
        <ele>466.4</ele>
        <time>2019-01-05T09:03:15Z</time>
      </trkpt>
      <trkpt lat="38.8981990" lon="-0.6358120">
        <ele>466.8</ele>
        <time>2019-01-05T09:03:17Z</time>
      </trkpt>
      <trkpt lat="38.8981960" lon="-0.6358040">
        <ele>467.2</ele>
        <time>2019-01-05T09:03:18Z</time>
      </trkpt>
      <trkpt lat="38.8981860" lon="-0.6357670">
        <ele>468.4</ele>
        <time>2019-01-05T09:03:22Z</time>
      </trkpt>
      <trkpt lat="38.8981660" lon="-0.6357720">
        <ele>469.0</ele>
        <time>2019-01-05T09:03:25Z</time>
      </trkpt>
      <trkpt lat="38.8981480" lon="-0.6357740">
        <ele>469.4</ele>
        <time>2019-01-05T09:03:27Z</time>
      </trkpt>
      <trkpt lat="38.8981360" lon="-0.6357760">
        <ele>469.8</ele>
        <time>2019-01-05T09:03:29Z</time>
      </trkpt>
      <trkpt lat="38.8981340" lon="-0.6357660">
        <ele>470.4</ele>
        <time>2019-01-05T09:03:32Z</time>
      </trkpt>
      <trkpt lat="38.8981350" lon="-0.6357640">
        <ele>470.6</ele>
        <time>2019-01-05T09:03:33Z</time>
      </trkpt>
      <trkpt lat="38.8981290" lon="-0.6357550">
        <ele>471.6</ele>
        <time>2019-01-05T09:03:36Z</time>
      </trkpt>
      <trkpt lat="38.8981240" lon="-0.6357470">
        <ele>471.8</ele>
        <time>2019-01-05T09:03:38Z</time>
      </trkpt>
      <trkpt lat="38.8981190" lon="-0.6357220">
        <ele>472.6</ele>
        <time>2019-01-05T09:03:43Z</time>
      </trkpt>
      <trkpt lat="38.8981170" lon="-0.6357070">
        <ele>473.8</ele>
        <time>2019-01-05T09:03:46Z</time>
      </trkpt>
      <trkpt lat="38.8981110" lon="-0.6356880">
        <ele>474.0</ele>
        <time>2019-01-05T09:03:48Z</time>
      </trkpt>
      <trkpt lat="38.8980940" lon="-0.6356700">
        <ele>474.8</ele>
        <time>2019-01-05T09:03:53Z</time>
      </trkpt>
      <trkpt lat="38.8980690" lon="-0.6356730">
        <ele>476.0</ele>
        <time>2019-01-05T09:03:58Z</time>
      </trkpt>
      <trkpt lat="38.8980590" lon="-0.6356650">
        <ele>476.8</ele>
        <time>2019-01-05T09:04:04Z</time>
      </trkpt>
      <trkpt lat="38.8980580" lon="-0.6356620">
        <ele>477.0</ele>
        <time>2019-01-05T09:04:05Z</time>
      </trkpt>
      <trkpt lat="38.8980520" lon="-0.6356650">
        <ele>477.8</ele>
        <time>2019-01-05T09:04:10Z</time>
      </trkpt>
      <trkpt lat="38.8980470" lon="-0.6356650">
        <ele>478.0</ele>
        <time>2019-01-05T09:04:11Z</time>
      </trkpt>
      <trkpt lat="38.8980250" lon="-0.6356560">
        <ele>479.2</ele>
        <time>2019-01-05T09:04:16Z</time>
      </trkpt>
      <trkpt lat="38.8980210" lon="-0.6356500">
        <ele>479.4</ele>
        <time>2019-01-05T09:04:17Z</time>
      </trkpt>
      <trkpt lat="38.8979780" lon="-0.6356270">
        <ele>480.2</ele>
        <time>2019-01-05T09:04:22Z</time>
      </trkpt>
      <trkpt lat="38.8979510" lon="-0.6356070">
        <ele>480.6</ele>
        <time>2019-01-05T09:04:26Z</time>
      </trkpt>
      <trkpt lat="38.8979440" lon="-0.6355790">
        <ele>480.2</ele>
        <time>2019-01-05T09:04:28Z</time>
      </trkpt>
      <trkpt lat="38.8979420" lon="-0.6354910">
        <ele>480.2</ele>
        <time>2019-01-05T09:04:33Z</time>
      </trkpt>
      <trkpt lat="38.8979500" lon="-0.6354930">
        <ele>480.2</ele>
        <time>2019-01-05T09:04:36Z</time>
      </trkpt>
      <trkpt lat="38.8979520" lon="-0.6354950">
        <ele>480.2</ele>
        <time>2019-01-05T09:04:37Z</time>
      </trkpt>
      <trkpt lat="38.8979430" lon="-0.6354810">
        <ele>479.6</ele>
        <time>2019-01-05T09:04:45Z</time>
      </trkpt>
      <trkpt lat="38.8979310" lon="-0.6354710">
        <ele>480.0</ele>
        <time>2019-01-05T09:04:49Z</time>
      </trkpt>
      <trkpt lat="38.8979300" lon="-0.6354700">
        <ele>480.2</ele>
        <time>2019-01-05T09:04:50Z</time>
      </trkpt>
      <trkpt lat="38.8979110" lon="-0.6354140">
        <ele>480.4</ele>
        <time>2019-01-05T09:04:55Z</time>
      </trkpt>
      <trkpt lat="38.8978960" lon="-0.6353790">
        <ele>481.6</ele>
        <time>2019-01-05T09:04:59Z</time>
      </trkpt>
      <trkpt lat="38.8978920" lon="-0.6353720">
        <ele>481.6</ele>
        <time>2019-01-05T09:05:00Z</time>
      </trkpt>
      <trkpt lat="38.8978730" lon="-0.6353410">
        <ele>482.6</ele>
        <time>2019-01-05T09:05:04Z</time>
      </trkpt>
      <trkpt lat="38.8978670" lon="-0.6353370">
        <ele>482.8</ele>
        <time>2019-01-05T09:05:05Z</time>
      </trkpt>
      <trkpt lat="38.8978540" lon="-0.6353340">
        <ele>483.0</ele>
        <time>2019-01-05T09:05:07Z</time>
      </trkpt>
      <trkpt lat="38.8978360" lon="-0.6353030">
        <ele>483.2</ele>
        <time>2019-01-05T09:05:11Z</time>
      </trkpt>
      <trkpt lat="38.8977980" lon="-0.6352700">
        <ele>483.6</ele>
        <time>2019-01-05T09:05:17Z</time>
      </trkpt>
      <trkpt lat="38.8977730" lon="-0.6352380">
        <ele>484.4</ele>
        <time>2019-01-05T09:05:22Z</time>
      </trkpt>
      <trkpt lat="38.8977690" lon="-0.6352350">
        <ele>484.8</ele>
        <time>2019-01-05T09:05:23Z</time>
      </trkpt>
      <trkpt lat="38.8977670" lon="-0.6352150">
        <ele>485.4</ele>
        <time>2019-01-05T09:05:26Z</time>
      </trkpt>
      <trkpt lat="38.8977700" lon="-0.6351980">
        <ele>485.8</ele>
        <time>2019-01-05T09:05:29Z</time>
      </trkpt>
      <trkpt lat="38.8977540" lon="-0.6351850">
        <ele>486.2</ele>
        <time>2019-01-05T09:05:31Z</time>
      </trkpt>
      <trkpt lat="38.8977250" lon="-0.6351460">
        <ele>487.0</ele>
        <time>2019-01-05T09:05:36Z</time>
      </trkpt>
      <trkpt lat="38.8977210" lon="-0.6351250">
        <ele>488.0</ele>
        <time>2019-01-05T09:05:38Z</time>
      </trkpt>
      <trkpt lat="38.8976950" lon="-0.6351320">
        <ele>489.0</ele>
        <time>2019-01-05T09:05:41Z</time>
      </trkpt>
      <trkpt lat="38.8976660" lon="-0.6351110">
        <ele>489.2</ele>
        <time>2019-01-05T09:05:45Z</time>
      </trkpt>
      <trkpt lat="38.8976470" lon="-0.6350810">
        <ele>489.8</ele>
        <time>2019-01-05T09:05:49Z</time>
      </trkpt>
      <trkpt lat="38.8976410" lon="-0.6350630">
        <ele>490.4</ele>
        <time>2019-01-05T09:05:51Z</time>
      </trkpt>
      <trkpt lat="38.8976400" lon="-0.6350310">
        <ele>490.6</ele>
        <time>2019-01-05T09:05:54Z</time>
      </trkpt>
      <trkpt lat="38.8976170" lon="-0.6350130">
        <ele>491.4</ele>
        <time>2019-01-05T09:05:58Z</time>
      </trkpt>
      <trkpt lat="38.8975610" lon="-0.6349850">
        <ele>492.2</ele>
        <time>2019-01-05T09:06:05Z</time>
      </trkpt>
      <trkpt lat="38.8975550" lon="-0.6349710">
        <ele>492.6</ele>
        <time>2019-01-05T09:06:07Z</time>
      </trkpt>
      <trkpt lat="38.8975470" lon="-0.6349460">
        <ele>493.4</ele>
        <time>2019-01-05T09:06:10Z</time>
      </trkpt>
      <trkpt lat="38.8975450" lon="-0.6349300">
        <ele>493.8</ele>
        <time>2019-01-05T09:06:13Z</time>
      </trkpt>
      <trkpt lat="38.8975480" lon="-0.6349180">
        <ele>493.8</ele>
        <time>2019-01-05T09:06:14Z</time>
      </trkpt>
      <trkpt lat="38.8975640" lon="-0.6348930">
        <ele>494.6</ele>
        <time>2019-01-05T09:06:18Z</time>
      </trkpt>
      <trkpt lat="38.8975690" lon="-0.6348870">
        <ele>495.0</ele>
        <time>2019-01-05T09:06:19Z</time>
      </trkpt>
      <trkpt lat="38.8975680" lon="-0.6348570">
        <ele>496.2</ele>
        <time>2019-01-05T09:06:24Z</time>
      </trkpt>
      <trkpt lat="38.8975620" lon="-0.6348240">
        <ele>497.2</ele>
        <time>2019-01-05T09:06:30Z</time>
      </trkpt>
      <trkpt lat="38.8975640" lon="-0.6348040">
        <ele>498.2</ele>
        <time>2019-01-05T09:06:35Z</time>
      </trkpt>
      <trkpt lat="38.8975610" lon="-0.6347980">
        <ele>498.6</ele>
        <time>2019-01-05T09:06:36Z</time>
      </trkpt>
      <trkpt lat="38.8975460" lon="-0.6347820">
        <ele>499.4</ele>
        <time>2019-01-05T09:06:39Z</time>
      </trkpt>
      <trkpt lat="38.8975500" lon="-0.6347790">
        <ele>500.0</ele>
        <time>2019-01-05T09:06:41Z</time>
      </trkpt>
      <trkpt lat="38.8975510" lon="-0.6347680">
        <ele>500.4</ele>
        <time>2019-01-05T09:06:44Z</time>
      </trkpt>
      <trkpt lat="38.8975390" lon="-0.6347600">
        <ele>501.2</ele>
        <time>2019-01-05T09:06:47Z</time>
      </trkpt>
      <trkpt lat="38.8975290" lon="-0.6347650">
        <ele>501.6</ele>
        <time>2019-01-05T09:06:51Z</time>
      </trkpt>
      <trkpt lat="38.8975240" lon="-0.6347620">
        <ele>501.6</ele>
        <time>2019-01-05T09:06:53Z</time>
      </trkpt>
      <trkpt lat="38.8975160" lon="-0.6347190">
        <ele>501.4</ele>
        <time>2019-01-05T09:06:57Z</time>
      </trkpt>
      <trkpt lat="38.8975090" lon="-0.6346930">
        <ele>502.8</ele>
        <time>2019-01-05T09:07:01Z</time>
      </trkpt>
      <trkpt lat="38.8975040" lon="-0.6346820">
        <ele>503.2</ele>
        <time>2019-01-05T09:07:02Z</time>
      </trkpt>
      <trkpt lat="38.8974890" lon="-0.6346630">
        <ele>503.8</ele>
        <time>2019-01-05T09:07:05Z</time>
      </trkpt>
      <trkpt lat="38.8974850" lon="-0.6346590">
        <ele>504.0</ele>
        <time>2019-01-05T09:07:07Z</time>
      </trkpt>
      <trkpt lat="38.8974720" lon="-0.6346450">
        <ele>505.0</ele>
        <time>2019-01-05T09:07:12Z</time>
      </trkpt>
      <trkpt lat="38.8974640" lon="-0.6346110">
        <ele>506.2</ele>
        <time>2019-01-05T09:07:16Z</time>
      </trkpt>
      <trkpt lat="38.8974420" lon="-0.6345810">
        <ele>507.4</ele>
        <time>2019-01-05T09:07:21Z</time>
      </trkpt>
      <trkpt lat="38.8974400" lon="-0.6345730">
        <ele>507.4</ele>
        <time>2019-01-05T09:07:22Z</time>
      </trkpt>
      <trkpt lat="38.8974380" lon="-0.6345360">
        <ele>508.6</ele>
        <time>2019-01-05T09:07:28Z</time>
      </trkpt>
      <trkpt lat="38.8974280" lon="-0.6345270">
        <ele>509.4</ele>
        <time>2019-01-05T09:07:33Z</time>
      </trkpt>
      <trkpt lat="38.8974260" lon="-0.6345130">
        <ele>509.8</ele>
        <time>2019-01-05T09:07:35Z</time>
      </trkpt>
      <trkpt lat="38.8974310" lon="-0.6345100">
        <ele>510.4</ele>
        <time>2019-01-05T09:07:38Z</time>
      </trkpt>
      <trkpt lat="38.8974320" lon="-0.6345130">
        <ele>511.0</ele>
        <time>2019-01-05T09:07:40Z</time>
      </trkpt>
      <trkpt lat="38.8974480" lon="-0.6345040">
        <ele>512.0</ele>
        <time>2019-01-05T09:07:44Z</time>
      </trkpt>
      <trkpt lat="38.8974510" lon="-0.6345010">
        <ele>512.0</ele>
        <time>2019-01-05T09:07:45Z</time>
      </trkpt>
      <trkpt lat="38.8974500" lon="-0.6344940">
        <ele>512.0</ele>
        <time>2019-01-05T09:07:50Z</time>
      </trkpt>
      <trkpt lat="38.8974620" lon="-0.6344490">
        <ele>513.2</ele>
        <time>2019-01-05T09:07:57Z</time>
      </trkpt>
      <trkpt lat="38.8974620" lon="-0.6344390">
        <ele>514.4</ele>
        <time>2019-01-05T09:08:00Z</time>
      </trkpt>
      <trkpt lat="38.8974580" lon="-0.6344350">
        <ele>515.2</ele>
        <time>2019-01-05T09:08:03Z</time>
      </trkpt>
      <trkpt lat="38.8974620" lon="-0.6344260">
        <ele>515.4</ele>
        <time>2019-01-05T09:08:04Z</time>
      </trkpt>
      <trkpt lat="38.8974650" lon="-0.6344110">
        <ele>516.2</ele>
        <time>2019-01-05T09:08:06Z</time>
      </trkpt>
      <trkpt lat="38.8974650" lon="-0.6344050">
        <ele>516.8</ele>
        <time>2019-01-05T09:08:08Z</time>
      </trkpt>
      <trkpt lat="38.8974670" lon="-0.6343930">
        <ele>517.0</ele>
        <time>2019-01-05T09:08:12Z</time>
      </trkpt>
      <trkpt lat="38.8974640" lon="-0.6343970">
        <ele>517.4</ele>
        <time>2019-01-05T09:08:17Z</time>
      </trkpt>
      <trkpt lat="38.8974670" lon="-0.6343880">
        <ele>517.8</ele>
        <time>2019-01-05T09:08:19Z</time>
      </trkpt>
      <trkpt lat="38.8974540" lon="-0.6343690">
        <ele>518.8</ele>
        <time>2019-01-05T09:08:23Z</time>
      </trkpt>
      <trkpt lat="38.8974520" lon="-0.6343630">
        <ele>519.0</ele>
        <time>2019-01-05T09:08:24Z</time>
      </trkpt>
      <trkpt lat="38.8974440" lon="-0.6343260">
        <ele>520.2</ele>
        <time>2019-01-05T09:08:30Z</time>
      </trkpt>
      <trkpt lat="38.8974400" lon="-0.6343170">
        <ele>521.4</ele>
        <time>2019-01-05T09:08:32Z</time>
      </trkpt>
      <trkpt lat="38.8974380" lon="-0.6343080">
        <ele>522.0</ele>
        <time>2019-01-05T09:08:34Z</time>
      </trkpt>
      <trkpt lat="38.8974310" lon="-0.6342700">
        <ele>522.2</ele>
        <time>2019-01-05T09:08:40Z</time>
      </trkpt>
      <trkpt lat="38.8974250" lon="-0.6342680">
        <ele>522.6</ele>
        <time>2019-01-05T09:08:42Z</time>
      </trkpt>
      <trkpt lat="38.8974220" lon="-0.6342640">
        <ele>523.4</ele>
        <time>2019-01-05T09:08:44Z</time>
      </trkpt>
      <trkpt lat="38.8974220" lon="-0.6342590">
        <ele>523.6</ele>
        <time>2019-01-05T09:08:47Z</time>
      </trkpt>
      <trkpt lat="38.8974190" lon="-0.6342550">
        <ele>523.6</ele>
        <time>2019-01-05T09:08:49Z</time>
      </trkpt>
      <trkpt lat="38.8974150" lon="-0.6342450">
        <ele>524.0</ele>
        <time>2019-01-05T09:08:52Z</time>
      </trkpt>
      <trkpt lat="38.8974120" lon="-0.6342330">
        <ele>524.8</ele>
        <time>2019-01-05T09:08:55Z</time>
      </trkpt>
      <trkpt lat="38.8974130" lon="-0.6342150">
        <ele>525.0</ele>
        <time>2019-01-05T09:08:59Z</time>
      </trkpt>
      <trkpt lat="38.8974040" lon="-0.6341800">
        <ele>526.0</ele>
        <time>2019-01-05T09:09:05Z</time>
      </trkpt>
      <trkpt lat="38.8973880" lon="-0.6341550">
        <ele>527.0</ele>
        <time>2019-01-05T09:09:09Z</time>
      </trkpt>
      <trkpt lat="38.8973850" lon="-0.6341530">
        <ele>527.6</ele>
        <time>2019-01-05T09:09:10Z</time>
      </trkpt>
      <trkpt lat="38.8973890" lon="-0.6341480">
        <ele>528.2</ele>
        <time>2019-01-05T09:09:11Z</time>
      </trkpt>
      <trkpt lat="38.8973860" lon="-0.6341390">
        <ele>528.8</ele>
        <time>2019-01-05T09:09:14Z</time>
      </trkpt>
      <trkpt lat="38.8973850" lon="-0.6341110">
        <ele>529.0</ele>
        <time>2019-01-05T09:09:18Z</time>
      </trkpt>
      <trkpt lat="38.8973840" lon="-0.6340910">
        <ele>529.2</ele>
        <time>2019-01-05T09:09:21Z</time>
      </trkpt>
      <trkpt lat="38.8973850" lon="-0.6340780">
        <ele>529.4</ele>
        <time>2019-01-05T09:09:23Z</time>
      </trkpt>
      <trkpt lat="38.8973820" lon="-0.6340700">
        <ele>529.6</ele>
        <time>2019-01-05T09:09:24Z</time>
      </trkpt>
      <trkpt lat="38.8973760" lon="-0.6340440">
        <ele>530.4</ele>
        <time>2019-01-05T09:09:27Z</time>
      </trkpt>
      <trkpt lat="38.8973740" lon="-0.6340400">
        <ele>530.6</ele>
        <time>2019-01-05T09:09:28Z</time>
      </trkpt>
      <trkpt lat="38.8973740" lon="-0.6340110">
        <ele>531.4</ele>
        <time>2019-01-05T09:09:33Z</time>
      </trkpt>
      <trkpt lat="38.8973720" lon="-0.6340060">
        <ele>531.6</ele>
        <time>2019-01-05T09:09:34Z</time>
      </trkpt>
      <trkpt lat="38.8973470" lon="-0.6339890">
        <ele>532.6</ele>
        <time>2019-01-05T09:09:38Z</time>
      </trkpt>
      <trkpt lat="38.8973330" lon="-0.6339900">
        <ele>533.0</ele>
        <time>2019-01-05T09:09:40Z</time>
      </trkpt>
      <trkpt lat="38.8973190" lon="-0.6339560">
        <ele>533.6</ele>
        <time>2019-01-05T09:09:46Z</time>
      </trkpt>
      <trkpt lat="38.8973150" lon="-0.6339480">
        <ele>534.0</ele>
        <time>2019-01-05T09:09:47Z</time>
      </trkpt>
      <trkpt lat="38.8973030" lon="-0.6339340">
        <ele>534.8</ele>
        <time>2019-01-05T09:09:51Z</time>
      </trkpt>
      <trkpt lat="38.8972850" lon="-0.6339200">
        <ele>535.0</ele>
        <time>2019-01-05T09:09:53Z</time>
      </trkpt>
      <trkpt lat="38.8972690" lon="-0.6338830">
        <ele>535.6</ele>
        <time>2019-01-05T09:09:57Z</time>
      </trkpt>
      <trkpt lat="38.8972680" lon="-0.6338770">
        <ele>535.8</ele>
        <time>2019-01-05T09:09:58Z</time>
      </trkpt>
      <trkpt lat="38.8972820" lon="-0.6338520">
        <ele>537.0</ele>
        <time>2019-01-05T09:10:02Z</time>
      </trkpt>
      <trkpt lat="38.8972930" lon="-0.6338230">
        <ele>538.2</ele>
        <time>2019-01-05T09:10:08Z</time>
      </trkpt>
      <trkpt lat="38.8972910" lon="-0.6338160">
        <ele>538.6</ele>
        <time>2019-01-05T09:10:09Z</time>
      </trkpt>
      <trkpt lat="38.8972980" lon="-0.6337920">
        <ele>539.2</ele>
        <time>2019-01-05T09:10:12Z</time>
      </trkpt>
      <trkpt lat="38.8973040" lon="-0.6337720">
        <ele>539.2</ele>
        <time>2019-01-05T09:10:14Z</time>
      </trkpt>
      <trkpt lat="38.8973070" lon="-0.6337650">
        <ele>539.4</ele>
        <time>2019-01-05T09:10:15Z</time>
      </trkpt>
      <trkpt lat="38.8973020" lon="-0.6337280">
        <ele>540.6</ele>
        <time>2019-01-05T09:10:20Z</time>
      </trkpt>
      <trkpt lat="38.8972990" lon="-0.6337220">
        <ele>540.8</ele>
        <time>2019-01-05T09:10:21Z</time>
      </trkpt>
      <trkpt lat="38.8972980" lon="-0.6337010">
        <ele>541.6</ele>
        <time>2019-01-05T09:10:24Z</time>
      </trkpt>
      <trkpt lat="38.8972960" lon="-0.6336840">
        <ele>541.8</ele>
        <time>2019-01-05T09:10:26Z</time>
      </trkpt>
      <trkpt lat="38.8972980" lon="-0.6336570">
        <ele>542.6</ele>
        <time>2019-01-05T09:10:31Z</time>
      </trkpt>
      <trkpt lat="38.8972930" lon="-0.6336340">
        <ele>543.8</ele>
        <time>2019-01-05T09:10:34Z</time>
      </trkpt>
      <trkpt lat="38.8972830" lon="-0.6336340">
        <ele>543.8</ele>
        <time>2019-01-05T09:10:35Z</time>
      </trkpt>
      <trkpt lat="38.8972480" lon="-0.6335970">
        <ele>544.0</ele>
        <time>2019-01-05T09:10:40Z</time>
      </trkpt>
      <trkpt lat="38.8972270" lon="-0.6335420">
        <ele>544.4</ele>
        <time>2019-01-05T09:10:46Z</time>
      </trkpt>
      <trkpt lat="38.8972220" lon="-0.6335350">
        <ele>545.0</ele>
        <time>2019-01-05T09:10:47Z</time>
      </trkpt>
      <trkpt lat="38.8972040" lon="-0.6334920">
        <ele>546.2</ele>
        <time>2019-01-05T09:10:51Z</time>
      </trkpt>
      <trkpt lat="38.8971920" lon="-0.6334490">
        <ele>547.0</ele>
        <time>2019-01-05T09:10:56Z</time>
      </trkpt>
      <trkpt lat="38.8971800" lon="-0.6334250">
        <ele>547.4</ele>
        <time>2019-01-05T09:10:59Z</time>
      </trkpt>
      <trkpt lat="38.8971710" lon="-0.6334170">
        <ele>547.6</ele>
        <time>2019-01-05T09:11:01Z</time>
      </trkpt>
      <trkpt lat="38.8971630" lon="-0.6334160">
        <ele>547.8</ele>
        <time>2019-01-05T09:11:02Z</time>
      </trkpt>
      <trkpt lat="38.8971540" lon="-0.6334140">
        <ele>548.8</ele>
        <time>2019-01-05T09:11:04Z</time>
      </trkpt>
      <trkpt lat="38.8971560" lon="-0.6334130">
        <ele>549.2</ele>
        <time>2019-01-05T09:11:05Z</time>
      </trkpt>
      <trkpt lat="38.8971570" lon="-0.6334060">
        <ele>549.4</ele>
        <time>2019-01-05T09:11:06Z</time>
      </trkpt>
      <trkpt lat="38.8971450" lon="-0.6333740">
        <ele>548.8</ele>
        <time>2019-01-05T09:11:09Z</time>
      </trkpt>
      <trkpt lat="38.8971350" lon="-0.6333500">
        <ele>548.0</ele>
        <time>2019-01-05T09:11:11Z</time>
      </trkpt>
      <trkpt lat="38.8971340" lon="-0.6333330">
        <ele>548.0</ele>
        <time>2019-01-05T09:11:14Z</time>
      </trkpt>
      <trkpt lat="38.8971240" lon="-0.6333190">
        <ele>548.8</ele>
        <time>2019-01-05T09:11:16Z</time>
      </trkpt>
      <trkpt lat="38.8971130" lon="-0.6332830">
        <ele>549.8</ele>
        <time>2019-01-05T09:11:20Z</time>
      </trkpt>
      <trkpt lat="38.8971120" lon="-0.6332700">
        <ele>549.8</ele>
        <time>2019-01-05T09:11:22Z</time>
      </trkpt>
      <trkpt lat="38.8971050" lon="-0.6332420">
        <ele>549.6</ele>
        <time>2019-01-05T09:11:25Z</time>
      </trkpt>
      <trkpt lat="38.8970980" lon="-0.6332160">
        <ele>549.8</ele>
        <time>2019-01-05T09:11:28Z</time>
      </trkpt>
      <trkpt lat="38.8971020" lon="-0.6331820">
        <ele>551.0</ele>
        <time>2019-01-05T09:11:31Z</time>
      </trkpt>
      <trkpt lat="38.8971050" lon="-0.6331740">
        <ele>551.6</ele>
        <time>2019-01-05T09:11:32Z</time>
      </trkpt>
      <trkpt lat="38.8971070" lon="-0.6331660">
        <ele>552.0</ele>
        <time>2019-01-05T09:11:33Z</time>
      </trkpt>
      <trkpt lat="38.8971130" lon="-0.6331560">
        <ele>552.0</ele>
        <time>2019-01-05T09:11:34Z</time>
      </trkpt>
      <trkpt lat="38.8971160" lon="-0.6331460">
        <ele>552.4</ele>
        <time>2019-01-05T09:11:35Z</time>
      </trkpt>
      <trkpt lat="38.8971070" lon="-0.6330980">
        <ele>552.6</ele>
        <time>2019-01-05T09:11:40Z</time>
      </trkpt>
      <trkpt lat="38.8971090" lon="-0.6330840">
        <ele>552.4</ele>
        <time>2019-01-05T09:11:41Z</time>
      </trkpt>
      <trkpt lat="38.8971020" lon="-0.6330590">
        <ele>553.0</ele>
        <time>2019-01-05T09:11:43Z</time>
      </trkpt>
      <trkpt lat="38.8971000" lon="-0.6330470">
        <ele>553.4</ele>
        <time>2019-01-05T09:11:44Z</time>
      </trkpt>
      <trkpt lat="38.8970980" lon="-0.6330140">
        <ele>554.6</ele>
        <time>2019-01-05T09:11:46Z</time>
      </trkpt>
      <trkpt lat="38.8970730" lon="-0.6329760">
        <ele>555.8</ele>
        <time>2019-01-05T09:11:49Z</time>
      </trkpt>
      <trkpt lat="38.8970450" lon="-0.6329030">
        <ele>556.2</ele>
        <time>2019-01-05T09:11:55Z</time>
      </trkpt>
      <trkpt lat="38.8970380" lon="-0.6328890">
        <ele>556.2</ele>
        <time>2019-01-05T09:11:56Z</time>
      </trkpt>
      <trkpt lat="38.8970300" lon="-0.6328310">
        <ele>556.6</ele>
        <time>2019-01-05T09:12:00Z</time>
      </trkpt>
      <trkpt lat="38.8970260" lon="-0.6328150">
        <ele>556.6</ele>
        <time>2019-01-05T09:12:01Z</time>
      </trkpt>
      <trkpt lat="38.8970260" lon="-0.6327880">
        <ele>556.6</ele>
        <time>2019-01-05T09:12:03Z</time>
      </trkpt>
      <trkpt lat="38.8970330" lon="-0.6327560">
        <ele>556.8</ele>
        <time>2019-01-05T09:12:05Z</time>
      </trkpt>
      <trkpt lat="38.8970360" lon="-0.6327280">
        <ele>557.4</ele>
        <time>2019-01-05T09:12:07Z</time>
      </trkpt>
      <trkpt lat="38.8970310" lon="-0.6327190">
        <ele>558.0</ele>
        <time>2019-01-05T09:12:08Z</time>
      </trkpt>
      <trkpt lat="38.8970250" lon="-0.6326890">
        <ele>558.8</ele>
        <time>2019-01-05T09:12:10Z</time>
      </trkpt>
      <trkpt lat="38.8970280" lon="-0.6326470">
        <ele>559.4</ele>
        <time>2019-01-05T09:12:13Z</time>
      </trkpt>
      <trkpt lat="38.8970270" lon="-0.6326300">
        <ele>559.6</ele>
        <time>2019-01-05T09:12:14Z</time>
      </trkpt>
      <trkpt lat="38.8970260" lon="-0.6325950">
        <ele>559.8</ele>
        <time>2019-01-05T09:12:16Z</time>
      </trkpt>
      <trkpt lat="38.8970140" lon="-0.6325510">
        <ele>560.4</ele>
        <time>2019-01-05T09:12:19Z</time>
      </trkpt>
      <trkpt lat="38.8970140" lon="-0.6325320">
        <ele>560.0</ele>
        <time>2019-01-05T09:12:21Z</time>
      </trkpt>
      <trkpt lat="38.8970190" lon="-0.6325210">
        <ele>559.6</ele>
        <time>2019-01-05T09:12:22Z</time>
      </trkpt>
      <trkpt lat="38.8970230" lon="-0.6325080">
        <ele>559.8</ele>
        <time>2019-01-05T09:12:23Z</time>
      </trkpt>
      <trkpt lat="38.8970240" lon="-0.6324800">
        <ele>560.0</ele>
        <time>2019-01-05T09:12:25Z</time>
      </trkpt>
      <trkpt lat="38.8970200" lon="-0.6324600">
        <ele>560.2</ele>
        <time>2019-01-05T09:12:27Z</time>
      </trkpt>
      <trkpt lat="38.8970100" lon="-0.6324530">
        <ele>560.6</ele>
        <time>2019-01-05T09:12:28Z</time>
      </trkpt>
      <trkpt lat="38.8969900" lon="-0.6324300">
        <ele>561.0</ele>
        <time>2019-01-05T09:12:31Z</time>
      </trkpt>
      <trkpt lat="38.8969940" lon="-0.6324130">
        <ele>560.8</ele>
        <time>2019-01-05T09:12:32Z</time>
      </trkpt>
      <trkpt lat="38.8970100" lon="-0.6323660">
        <ele>559.6</ele>
        <time>2019-01-05T09:12:35Z</time>
      </trkpt>
      <trkpt lat="38.8970060" lon="-0.6323340">
        <ele>559.8</ele>
        <time>2019-01-05T09:12:37Z</time>
      </trkpt>
      <trkpt lat="38.8969850" lon="-0.6322790">
        <ele>560.8</ele>
        <time>2019-01-05T09:12:40Z</time>
      </trkpt>
      <trkpt lat="38.8969750" lon="-0.6322790">
        <ele>561.2</ele>
        <time>2019-01-05T09:12:41Z</time>
      </trkpt>
      <trkpt lat="38.8969640" lon="-0.6322640">
        <ele>561.4</ele>
        <time>2019-01-05T09:12:43Z</time>
      </trkpt>
      <trkpt lat="38.8969510" lon="-0.6322450">
        <ele>561.2</ele>
        <time>2019-01-05T09:12:44Z</time>
      </trkpt>
      <trkpt lat="38.8969450" lon="-0.6322250">
        <ele>560.8</ele>
        <time>2019-01-05T09:12:45Z</time>
      </trkpt>
      <trkpt lat="38.8969170" lon="-0.6321380">
        <ele>559.8</ele>
        <time>2019-01-05T09:12:49Z</time>
      </trkpt>
      <trkpt lat="38.8968610" lon="-0.6320560">
        <ele>559.8</ele>
        <time>2019-01-05T09:12:54Z</time>
      </trkpt>
      <trkpt lat="38.8968380" lon="-0.6320310">
        <ele>559.0</ele>
        <time>2019-01-05T09:12:56Z</time>
      </trkpt>
      <trkpt lat="38.8968270" lon="-0.6319970">
        <ele>558.0</ele>
        <time>2019-01-05T09:12:58Z</time>
      </trkpt>
      <trkpt lat="38.8968210" lon="-0.6319750">
        <ele>557.4</ele>
        <time>2019-01-05T09:12:59Z</time>
      </trkpt>
      <trkpt lat="38.8968130" lon="-0.6319500">
        <ele>557.0</ele>
        <time>2019-01-05T09:13:00Z</time>
      </trkpt>
      <trkpt lat="38.8968020" lon="-0.6319280">
        <ele>556.8</ele>
        <time>2019-01-05T09:13:01Z</time>
      </trkpt>
      <trkpt lat="38.8967640" lon="-0.6318870">
        <ele>557.2</ele>
        <time>2019-01-05T09:13:04Z</time>
      </trkpt>
      <trkpt lat="38.8967550" lon="-0.6318860">
        <ele>557.4</ele>
        <time>2019-01-05T09:13:05Z</time>
      </trkpt>
      <trkpt lat="38.8967360" lon="-0.6318820">
        <ele>558.0</ele>
        <time>2019-01-05T09:13:07Z</time>
      </trkpt>
      <trkpt lat="38.8967390" lon="-0.6318680">
        <ele>558.2</ele>
        <time>2019-01-05T09:13:08Z</time>
      </trkpt>
      <trkpt lat="38.8967630" lon="-0.6317700">
        <ele>558.6</ele>
        <time>2019-01-05T09:13:12Z</time>
      </trkpt>
      <trkpt lat="38.8967960" lon="-0.6316760">
        <ele>557.2</ele>
        <time>2019-01-05T09:13:16Z</time>
      </trkpt>
      <trkpt lat="38.8967980" lon="-0.6316540">
        <ele>557.0</ele>
        <time>2019-01-05T09:13:17Z</time>
      </trkpt>
      <trkpt lat="38.8967990" lon="-0.6316250">
        <ele>556.8</ele>
        <time>2019-01-05T09:13:20Z</time>
      </trkpt>
      <trkpt lat="38.8968240" lon="-0.6315970">
        <ele>556.6</ele>
        <time>2019-01-05T09:13:24Z</time>
      </trkpt>
      <trkpt lat="38.8968920" lon="-0.6315120">
        <ele>557.0</ele>
        <time>2019-01-05T09:13:29Z</time>
      </trkpt>
      <trkpt lat="38.8968990" lon="-0.6314960">
        <ele>557.0</ele>
        <time>2019-01-05T09:13:30Z</time>
      </trkpt>
      <trkpt lat="38.8969060" lon="-0.6314540">
        <ele>556.4</ele>
        <time>2019-01-05T09:13:33Z</time>
      </trkpt>
      <trkpt lat="38.8969240" lon="-0.6314160">
        <ele>555.4</ele>
        <time>2019-01-05T09:13:36Z</time>
      </trkpt>
      <trkpt lat="38.8969420" lon="-0.6313940">
        <ele>555.4</ele>
        <time>2019-01-05T09:13:38Z</time>
      </trkpt>
      <trkpt lat="38.8969510" lon="-0.6313860">
        <ele>555.4</ele>
        <time>2019-01-05T09:13:39Z</time>
      </trkpt>
      <trkpt lat="38.8969740" lon="-0.6313410">
        <ele>554.2</ele>
        <time>2019-01-05T09:13:42Z</time>
      </trkpt>
      <trkpt lat="38.8969780" lon="-0.6312770">
        <ele>553.2</ele>
        <time>2019-01-05T09:13:45Z</time>
      </trkpt>
      <trkpt lat="38.8969840" lon="-0.6312600">
        <ele>552.4</ele>
        <time>2019-01-05T09:13:46Z</time>
      </trkpt>
      <trkpt lat="38.8969960" lon="-0.6312360">
        <ele>552.2</ele>
        <time>2019-01-05T09:13:48Z</time>
      </trkpt>
      <trkpt lat="38.8970020" lon="-0.6312270">
        <ele>552.0</ele>
        <time>2019-01-05T09:13:49Z</time>
      </trkpt>
      <trkpt lat="38.8970140" lon="-0.6312050">
        <ele>551.8</ele>
        <time>2019-01-05T09:13:51Z</time>
      </trkpt>
      <trkpt lat="38.8970190" lon="-0.6311920">
        <ele>551.6</ele>
        <time>2019-01-05T09:13:52Z</time>
      </trkpt>
      <trkpt lat="38.8970140" lon="-0.6311760">
        <ele>551.0</ele>
        <time>2019-01-05T09:13:54Z</time>
      </trkpt>
      <trkpt lat="38.8970140" lon="-0.6311670">
        <ele>550.4</ele>
        <time>2019-01-05T09:13:55Z</time>
      </trkpt>
      <trkpt lat="38.8970260" lon="-0.6311410">
        <ele>549.6</ele>
        <time>2019-01-05T09:13:57Z</time>
      </trkpt>
      <trkpt lat="38.8970390" lon="-0.6311210">
        <ele>549.2</ele>
        <time>2019-01-05T09:13:59Z</time>
      </trkpt>
      <trkpt lat="38.8970700" lon="-0.6310670">
        <ele>548.8</ele>
        <time>2019-01-05T09:14:02Z</time>
      </trkpt>
      <trkpt lat="38.8970850" lon="-0.6310160">
        <ele>548.6</ele>
        <time>2019-01-05T09:14:06Z</time>
      </trkpt>
      <trkpt lat="38.8970950" lon="-0.6309950">
        <ele>547.0</ele>
        <time>2019-01-05T09:14:08Z</time>
      </trkpt>
      <trkpt lat="38.8971180" lon="-0.6309700">
        <ele>545.6</ele>
        <time>2019-01-05T09:14:10Z</time>
      </trkpt>
      <trkpt lat="38.8971300" lon="-0.6309550">
        <ele>545.4</ele>
        <time>2019-01-05T09:14:11Z</time>
      </trkpt>
      <trkpt lat="38.8971540" lon="-0.6309110">
        <ele>545.8</ele>
        <time>2019-01-05T09:14:13Z</time>
      </trkpt>
      <trkpt lat="38.8971580" lon="-0.6308820">
        <ele>545.6</ele>
        <time>2019-01-05T09:14:14Z</time>
      </trkpt>
      <trkpt lat="38.8971650" lon="-0.6308320">
        <ele>545.8</ele>
        <time>2019-01-05T09:14:16Z</time>
      </trkpt>
      <trkpt lat="38.8971870" lon="-0.6307800">
        <ele>545.0</ele>
        <time>2019-01-05T09:14:18Z</time>
      </trkpt>
      <trkpt lat="38.8971890" lon="-0.6307320">
        <ele>544.6</ele>
        <time>2019-01-05T09:14:20Z</time>
      </trkpt>
      <trkpt lat="38.8971970" lon="-0.6307180">
        <ele>544.2</ele>
        <time>2019-01-05T09:14:21Z</time>
      </trkpt>
      <trkpt lat="38.8972080" lon="-0.6307040">
        <ele>544.0</ele>
        <time>2019-01-05T09:14:22Z</time>
      </trkpt>
      <trkpt lat="38.8972470" lon="-0.6306410">
        <ele>543.6</ele>
        <time>2019-01-05T09:14:25Z</time>
      </trkpt>
      <trkpt lat="38.8972680" lon="-0.6305910">
        <ele>543.2</ele>
        <time>2019-01-05T09:14:27Z</time>
      </trkpt>
      <trkpt lat="38.8972830" lon="-0.6305530">
        <ele>543.0</ele>
        <time>2019-01-05T09:14:29Z</time>
      </trkpt>
      <trkpt lat="38.8973120" lon="-0.6305230">
        <ele>542.4</ele>
        <time>2019-01-05T09:14:31Z</time>
      </trkpt>
      <trkpt lat="38.8973630" lon="-0.6304740">
        <ele>541.2</ele>
        <time>2019-01-05T09:14:34Z</time>
      </trkpt>
      <trkpt lat="38.8973800" lon="-0.6304540">
        <ele>540.8</ele>
        <time>2019-01-05T09:14:35Z</time>
      </trkpt>
      <trkpt lat="38.8973910" lon="-0.6304290">
        <ele>540.6</ele>
        <time>2019-01-05T09:14:36Z</time>
      </trkpt>
      <trkpt lat="38.8974020" lon="-0.6303870">
        <ele>540.4</ele>
        <time>2019-01-05T09:14:38Z</time>
      </trkpt>
      <trkpt lat="38.8974070" lon="-0.6303750">
        <ele>540.0</ele>
        <time>2019-01-05T09:14:39Z</time>
      </trkpt>
      <trkpt lat="38.8974080" lon="-0.6303680">
        <ele>540.0</ele>
        <time>2019-01-05T09:14:40Z</time>
      </trkpt>
      <trkpt lat="38.8974340" lon="-0.6303470">
        <ele>540.2</ele>
        <time>2019-01-05T09:14:43Z</time>
      </trkpt>
      <trkpt lat="38.8974820" lon="-0.6302980">
        <ele>540.4</ele>
        <time>2019-01-05T09:14:46Z</time>
      </trkpt>
      <trkpt lat="38.8974970" lon="-0.6302770">
        <ele>540.4</ele>
        <time>2019-01-05T09:14:47Z</time>
      </trkpt>
      <trkpt lat="38.8975000" lon="-0.6302530">
        <ele>540.2</ele>
        <time>2019-01-05T09:14:48Z</time>
      </trkpt>
      <trkpt lat="38.8974980" lon="-0.6301970">
        <ele>539.0</ele>
        <time>2019-01-05T09:14:50Z</time>
      </trkpt>
      <trkpt lat="38.8975000" lon="-0.6301750">
        <ele>538.4</ele>
        <time>2019-01-05T09:14:51Z</time>
      </trkpt>
      <trkpt lat="38.8975110" lon="-0.6301370">
        <ele>537.8</ele>
        <time>2019-01-05T09:14:55Z</time>
      </trkpt>
      <trkpt lat="38.8975270" lon="-0.6301220">
        <ele>537.8</ele>
        <time>2019-01-05T09:14:56Z</time>
      </trkpt>
      <trkpt lat="38.8975940" lon="-0.6300340">
        <ele>536.6</ele>
        <time>2019-01-05T09:15:00Z</time>
      </trkpt>
      <trkpt lat="38.8976070" lon="-0.6300100">
        <ele>536.4</ele>
        <time>2019-01-05T09:15:01Z</time>
      </trkpt>
      <trkpt lat="38.8976190" lon="-0.6299850">
        <ele>536.2</ele>
        <time>2019-01-05T09:15:02Z</time>
      </trkpt>
      <trkpt lat="38.8976640" lon="-0.6299190">
        <ele>535.4</ele>
        <time>2019-01-05T09:15:05Z</time>
      </trkpt>
      <trkpt lat="38.8976860" lon="-0.6298980">
        <ele>535.0</ele>
        <time>2019-01-05T09:15:06Z</time>
      </trkpt>
      <trkpt lat="38.8977440" lon="-0.6298070">
        <ele>534.6</ele>
        <time>2019-01-05T09:15:10Z</time>
      </trkpt>
      <trkpt lat="38.8977630" lon="-0.6297790">
        <ele>534.4</ele>
        <time>2019-01-05T09:15:11Z</time>
      </trkpt>
      <trkpt lat="38.8977800" lon="-0.6297490">
        <ele>534.0</ele>
        <time>2019-01-05T09:15:12Z</time>
      </trkpt>
      <trkpt lat="38.8978070" lon="-0.6296960">
        <ele>533.6</ele>
        <time>2019-01-05T09:15:14Z</time>
      </trkpt>
      <trkpt lat="38.8978370" lon="-0.6296380">
        <ele>532.6</ele>
        <time>2019-01-05T09:15:16Z</time>
      </trkpt>
      <trkpt lat="38.8978870" lon="-0.6295690">
        <ele>531.6</ele>
        <time>2019-01-05T09:15:19Z</time>
      </trkpt>
      <trkpt lat="38.8978990" lon="-0.6295440">
        <ele>531.0</ele>
        <time>2019-01-05T09:15:20Z</time>
      </trkpt>
      <trkpt lat="38.8979350" lon="-0.6294960">
        <ele>530.0</ele>
        <time>2019-01-05T09:15:22Z</time>
      </trkpt>
      <trkpt lat="38.8979830" lon="-0.6293980">
        <ele>529.8</ele>
        <time>2019-01-05T09:15:25Z</time>
      </trkpt>
      <trkpt lat="38.8980040" lon="-0.6293380">
        <ele>529.8</ele>
        <time>2019-01-05T09:15:27Z</time>
      </trkpt>
      <trkpt lat="38.8980220" lon="-0.6292980">
        <ele>529.6</ele>
        <time>2019-01-05T09:15:29Z</time>
      </trkpt>
      <trkpt lat="38.8980530" lon="-0.6292610">
        <ele>528.8</ele>
        <time>2019-01-05T09:15:31Z</time>
      </trkpt>
      <trkpt lat="38.8981030" lon="-0.6291960">
        <ele>527.8</ele>
        <time>2019-01-05T09:15:34Z</time>
      </trkpt>
      <trkpt lat="38.8981200" lon="-0.6291810">
        <ele>527.4</ele>
        <time>2019-01-05T09:15:35Z</time>
      </trkpt>
      <trkpt lat="38.8981370" lon="-0.6291660">
        <ele>527.2</ele>
        <time>2019-01-05T09:15:36Z</time>
      </trkpt>
      <trkpt lat="38.8981680" lon="-0.6291120">
        <ele>526.4</ele>
        <time>2019-01-05T09:15:38Z</time>
      </trkpt>
      <trkpt lat="38.8982100" lon="-0.6290260">
        <ele>525.2</ele>
        <time>2019-01-05T09:15:41Z</time>
      </trkpt>
      <trkpt lat="38.8982500" lon="-0.6289490">
        <ele>524.2</ele>
        <time>2019-01-05T09:15:44Z</time>
      </trkpt>
      <trkpt lat="38.8983000" lon="-0.6288010">
        <ele>523.8</ele>
        <time>2019-01-05T09:15:49Z</time>
      </trkpt>
      <trkpt lat="38.8983220" lon="-0.6287580">
        <ele>523.8</ele>
        <time>2019-01-05T09:15:51Z</time>
      </trkpt>
      <trkpt lat="38.8983510" lon="-0.6287250">
        <ele>523.2</ele>
        <time>2019-01-05T09:15:53Z</time>
      </trkpt>
      <trkpt lat="38.8983780" lon="-0.6286800">
        <ele>522.0</ele>
        <time>2019-01-05T09:15:55Z</time>
      </trkpt>
      <trkpt lat="38.8984120" lon="-0.6286080">
        <ele>521.6</ele>
        <time>2019-01-05T09:15:58Z</time>
      </trkpt>
      <trkpt lat="38.8984730" lon="-0.6284890">
        <ele>521.0</ele>
        <time>2019-01-05T09:16:03Z</time>
      </trkpt>
      <trkpt lat="38.8985000" lon="-0.6284010">
        <ele>520.6</ele>
        <time>2019-01-05T09:16:06Z</time>
      </trkpt>
      <trkpt lat="38.8985130" lon="-0.6283450">
        <ele>520.6</ele>
        <time>2019-01-05T09:16:08Z</time>
      </trkpt>
      <trkpt lat="38.8985480" lon="-0.6282490">
        <ele>520.2</ele>
        <time>2019-01-05T09:16:11Z</time>
      </trkpt>
      <trkpt lat="38.8985760" lon="-0.6281840">
        <ele>520.0</ele>
        <time>2019-01-05T09:16:13Z</time>
      </trkpt>
      <trkpt lat="38.8985840" lon="-0.6281500">
        <ele>520.0</ele>
        <time>2019-01-05T09:16:14Z</time>
      </trkpt>
      <trkpt lat="38.8986120" lon="-0.6280540">
        <ele>519.8</ele>
        <time>2019-01-05T09:16:17Z</time>
      </trkpt>
      <trkpt lat="38.8986480" lon="-0.6278890">
        <ele>520.0</ele>
        <time>2019-01-05T09:16:22Z</time>
      </trkpt>
      <trkpt lat="38.8986940" lon="-0.6277250">
        <ele>520.6</ele>
        <time>2019-01-05T09:16:27Z</time>
      </trkpt>
      <trkpt lat="38.8987390" lon="-0.6275540">
        <ele>520.6</ele>
        <time>2019-01-05T09:16:32Z</time>
      </trkpt>
      <trkpt lat="38.8988090" lon="-0.6273990">
        <ele>519.8</ele>
        <time>2019-01-05T09:16:37Z</time>
      </trkpt>
      <trkpt lat="38.8988100" lon="-0.6272700">
        <ele>520.2</ele>
        <time>2019-01-05T09:16:41Z</time>
      </trkpt>
      <trkpt lat="38.8988310" lon="-0.6271130">
        <ele>520.4</ele>
        <time>2019-01-05T09:16:46Z</time>
      </trkpt>
      <trkpt lat="38.8988430" lon="-0.6270100">
        <ele>520.6</ele>
        <time>2019-01-05T09:16:49Z</time>
      </trkpt>
      <trkpt lat="38.8988480" lon="-0.6268870">
        <ele>520.6</ele>
        <time>2019-01-05T09:16:53Z</time>
      </trkpt>
      <trkpt lat="38.8988540" lon="-0.6268250">
        <ele>520.6</ele>
        <time>2019-01-05T09:16:55Z</time>
      </trkpt>
      <trkpt lat="38.8988680" lon="-0.6267200">
        <ele>520.6</ele>
        <time>2019-01-05T09:16:58Z</time>
      </trkpt>
      <trkpt lat="38.8988390" lon="-0.6265510">
        <ele>520.2</ele>
        <time>2019-01-05T09:17:03Z</time>
      </trkpt>
      <trkpt lat="38.8988020" lon="-0.6263940">
        <ele>520.6</ele>
        <time>2019-01-05T09:17:08Z</time>
      </trkpt>
      <trkpt lat="38.8987640" lon="-0.6262230">
        <ele>520.8</ele>
        <time>2019-01-05T09:17:13Z</time>
      </trkpt>
      <trkpt lat="38.8987000" lon="-0.6260800">
        <ele>521.0</ele>
        <time>2019-01-05T09:17:18Z</time>
      </trkpt>
      <trkpt lat="38.8986850" lon="-0.6260570">
        <ele>521.2</ele>
        <time>2019-01-05T09:17:19Z</time>
      </trkpt>
      <trkpt lat="38.8986370" lon="-0.6259960">
        <ele>521.6</ele>
        <time>2019-01-05T09:17:22Z</time>
      </trkpt>
      <trkpt lat="38.8985970" lon="-0.6259320">
        <ele>522.2</ele>
        <time>2019-01-05T09:17:25Z</time>
      </trkpt>
      <trkpt lat="38.8985690" lon="-0.6258800">
        <ele>522.6</ele>
        <time>2019-01-05T09:17:27Z</time>
      </trkpt>
      <trkpt lat="38.8984970" lon="-0.6257350">
        <ele>523.0</ele>
        <time>2019-01-05T09:17:32Z</time>
      </trkpt>
      <trkpt lat="38.8984280" lon="-0.6256330">
        <ele>523.2</ele>
        <time>2019-01-05T09:17:36Z</time>
      </trkpt>
      <trkpt lat="38.8984120" lon="-0.6256090">
        <ele>523.2</ele>
        <time>2019-01-05T09:17:37Z</time>
      </trkpt>
      <trkpt lat="38.8983460" lon="-0.6255120">
        <ele>523.8</ele>
        <time>2019-01-05T09:17:41Z</time>
      </trkpt>
      <trkpt lat="38.8982950" lon="-0.6254380">
        <ele>524.0</ele>
        <time>2019-01-05T09:17:44Z</time>
      </trkpt>
      <trkpt lat="38.8982370" lon="-0.6253490">
        <ele>524.4</ele>
        <time>2019-01-05T09:17:48Z</time>
      </trkpt>
      <trkpt lat="38.8982190" lon="-0.6253270">
        <ele>524.4</ele>
        <time>2019-01-05T09:17:49Z</time>
      </trkpt>
      <trkpt lat="38.8981350" lon="-0.6252130">
        <ele>525.2</ele>
        <time>2019-01-05T09:17:54Z</time>
      </trkpt>
      <trkpt lat="38.8981180" lon="-0.6251920">
        <ele>525.2</ele>
        <time>2019-01-05T09:17:55Z</time>
      </trkpt>
      <trkpt lat="38.8980530" lon="-0.6251310">
        <ele>524.6</ele>
        <time>2019-01-05T09:17:58Z</time>
      </trkpt>
      <trkpt lat="38.8979450" lon="-0.6250200">
        <ele>524.6</ele>
        <time>2019-01-05T09:18:03Z</time>
      </trkpt>
      <trkpt lat="38.8978510" lon="-0.6249500">
        <ele>524.4</ele>
        <time>2019-01-05T09:18:07Z</time>
      </trkpt>
      <trkpt lat="38.8977770" lon="-0.6248790">
        <ele>524.4</ele>
        <time>2019-01-05T09:18:11Z</time>
      </trkpt>
      <trkpt lat="38.8976970" lon="-0.6247640">
        <ele>523.6</ele>
        <time>2019-01-05T09:18:16Z</time>
      </trkpt>
      <trkpt lat="38.8975850" lon="-0.6247120">
        <ele>525.0</ele>
        <time>2019-01-05T09:18:21Z</time>
      </trkpt>
      <trkpt lat="38.8975030" lon="-0.6247180">
        <ele>525.4</ele>
        <time>2019-01-05T09:18:24Z</time>
      </trkpt>
      <trkpt lat="38.8974480" lon="-0.6247320">
        <ele>525.4</ele>
        <time>2019-01-05T09:18:26Z</time>
      </trkpt>
      <trkpt lat="38.8973240" lon="-0.6247720">
        <ele>525.4</ele>
        <time>2019-01-05T09:18:31Z</time>
      </trkpt>
      <trkpt lat="38.8971800" lon="-0.6248190">
        <ele>525.4</ele>
        <time>2019-01-05T09:18:37Z</time>
      </trkpt>
      <trkpt lat="38.8971150" lon="-0.6247920">
        <ele>526.4</ele>
        <time>2019-01-05T09:18:41Z</time>
      </trkpt>
      <trkpt lat="38.8971100" lon="-0.6247800">
        <ele>526.8</ele>
        <time>2019-01-05T09:18:42Z</time>
      </trkpt>
      <trkpt lat="38.8970940" lon="-0.6247370">
        <ele>527.4</ele>
        <time>2019-01-05T09:18:46Z</time>
      </trkpt>
      <trkpt lat="38.8970950" lon="-0.6247240">
        <ele>527.6</ele>
        <time>2019-01-05T09:18:47Z</time>
      </trkpt>
      <trkpt lat="38.8970880" lon="-0.6246450">
        <ele>528.4</ele>
        <time>2019-01-05T09:18:53Z</time>
      </trkpt>
      <trkpt lat="38.8970910" lon="-0.6246270">
        <ele>528.8</ele>
        <time>2019-01-05T09:18:54Z</time>
      </trkpt>
      <trkpt lat="38.8970980" lon="-0.6246110">
        <ele>529.0</ele>
        <time>2019-01-05T09:18:55Z</time>
      </trkpt>
      <trkpt lat="38.8971040" lon="-0.6245940">
        <ele>529.8</ele>
        <time>2019-01-05T09:18:57Z</time>
      </trkpt>
      <trkpt lat="38.8971060" lon="-0.6245840">
        <ele>530.2</ele>
        <time>2019-01-05T09:18:58Z</time>
      </trkpt>
      <trkpt lat="38.8971080" lon="-0.6245730">
        <ele>530.4</ele>
        <time>2019-01-05T09:18:59Z</time>
      </trkpt>
      <trkpt lat="38.8971130" lon="-0.6245360">
        <ele>530.6</ele>
        <time>2019-01-05T09:19:02Z</time>
      </trkpt>
      <trkpt lat="38.8971120" lon="-0.6245260">
        <ele>530.8</ele>
        <time>2019-01-05T09:19:03Z</time>
      </trkpt>
      <trkpt lat="38.8971200" lon="-0.6245020">
        <ele>531.2</ele>
        <time>2019-01-05T09:19:05Z</time>
      </trkpt>
      <trkpt lat="38.8971450" lon="-0.6244530">
        <ele>532.0</ele>
        <time>2019-01-05T09:19:08Z</time>
      </trkpt>
      <trkpt lat="38.8971450" lon="-0.6244180">
        <ele>532.4</ele>
        <time>2019-01-05T09:19:11Z</time>
      </trkpt>
      <trkpt lat="38.8971380" lon="-0.6243500">
        <ele>533.2</ele>
        <time>2019-01-05T09:19:15Z</time>
      </trkpt>
      <trkpt lat="38.8971560" lon="-0.6243040">
        <ele>534.0</ele>
        <time>2019-01-05T09:19:17Z</time>
      </trkpt>
      <trkpt lat="38.8971580" lon="-0.6242420">
        <ele>534.2</ele>
        <time>2019-01-05T09:19:20Z</time>
      </trkpt>
      <trkpt lat="38.8971330" lon="-0.6242090">
        <ele>534.2</ele>
        <time>2019-01-05T09:19:22Z</time>
      </trkpt>
      <trkpt lat="38.8970340" lon="-0.6241880">
        <ele>533.8</ele>
        <time>2019-01-05T09:19:27Z</time>
      </trkpt>
      <trkpt lat="38.8969160" lon="-0.6242160">
        <ele>533.2</ele>
        <time>2019-01-05T09:19:34Z</time>
      </trkpt>
      <trkpt lat="38.8968120" lon="-0.6242540">
        <ele>534.4</ele>
        <time>2019-01-05T09:19:41Z</time>
      </trkpt>
      <trkpt lat="38.8967540" lon="-0.6242640">
        <ele>535.6</ele>
        <time>2019-01-05T09:19:44Z</time>
      </trkpt>
      <trkpt lat="38.8966900" lon="-0.6242740">
        <ele>535.8</ele>
        <time>2019-01-05T09:19:47Z</time>
      </trkpt>
      <trkpt lat="38.8966430" lon="-0.6242830">
        <ele>535.0</ele>
        <time>2019-01-05T09:19:50Z</time>
      </trkpt>
      <trkpt lat="38.8965890" lon="-0.6242880">
        <ele>535.2</ele>
        <time>2019-01-05T09:19:54Z</time>
      </trkpt>
      <trkpt lat="38.8965680" lon="-0.6242890">
        <ele>535.6</ele>
        <time>2019-01-05T09:19:55Z</time>
      </trkpt>
      <trkpt lat="38.8965480" lon="-0.6242900">
        <ele>535.8</ele>
        <time>2019-01-05T09:19:56Z</time>
      </trkpt>
      <trkpt lat="38.8965110" lon="-0.6242870">
        <ele>535.8</ele>
        <time>2019-01-05T09:19:58Z</time>
      </trkpt>
      <trkpt lat="38.8964720" lon="-0.6242890">
        <ele>535.6</ele>
        <time>2019-01-05T09:20:00Z</time>
      </trkpt>
      <trkpt lat="38.8964590" lon="-0.6242900">
        <ele>535.2</ele>
        <time>2019-01-05T09:20:01Z</time>
      </trkpt>
      <trkpt lat="38.8963710" lon="-0.6242990">
        <ele>534.8</ele>
        <time>2019-01-05T09:20:08Z</time>
      </trkpt>
      <trkpt lat="38.8963480" lon="-0.6243020">
        <ele>534.6</ele>
        <time>2019-01-05T09:20:10Z</time>
      </trkpt>
      <trkpt lat="38.8963070" lon="-0.6243100">
        <ele>534.4</ele>
        <time>2019-01-05T09:20:13Z</time>
      </trkpt>
      <trkpt lat="38.8962910" lon="-0.6243120">
        <ele>534.4</ele>
        <time>2019-01-05T09:20:14Z</time>
      </trkpt>
      <trkpt lat="38.8962740" lon="-0.6243160">
        <ele>534.4</ele>
        <time>2019-01-05T09:20:15Z</time>
      </trkpt>
      <trkpt lat="38.8962570" lon="-0.6243200">
        <ele>534.6</ele>
        <time>2019-01-05T09:20:16Z</time>
      </trkpt>
      <trkpt lat="38.8961740" lon="-0.6243490">
        <ele>534.8</ele>
        <time>2019-01-05T09:20:21Z</time>
      </trkpt>
      <trkpt lat="38.8961360" lon="-0.6243690">
        <ele>534.6</ele>
        <time>2019-01-05T09:20:24Z</time>
      </trkpt>
      <trkpt lat="38.8960960" lon="-0.6243970">
        <ele>534.4</ele>
        <time>2019-01-05T09:20:28Z</time>
      </trkpt>
      <trkpt lat="38.8960720" lon="-0.6244090">
        <ele>534.4</ele>
        <time>2019-01-05T09:20:30Z</time>
      </trkpt>
      <trkpt lat="38.8960340" lon="-0.6244220">
        <ele>534.4</ele>
        <time>2019-01-05T09:20:33Z</time>
      </trkpt>
      <trkpt lat="38.8960110" lon="-0.6244330">
        <ele>534.4</ele>
        <time>2019-01-05T09:20:35Z</time>
      </trkpt>
      <trkpt lat="38.8960000" lon="-0.6244380">
        <ele>534.4</ele>
        <time>2019-01-05T09:20:36Z</time>
      </trkpt>
      <trkpt lat="38.8959720" lon="-0.6244490">
        <ele>534.4</ele>
        <time>2019-01-05T09:20:38Z</time>
      </trkpt>
      <trkpt lat="38.8958600" lon="-0.6245050">
        <ele>534.8</ele>
        <time>2019-01-05T09:20:45Z</time>
      </trkpt>
      <trkpt lat="38.8958040" lon="-0.6245170">
        <ele>535.6</ele>
        <time>2019-01-05T09:20:47Z</time>
      </trkpt>
      <trkpt lat="38.8957000" lon="-0.6245040">
        <ele>535.8</ele>
        <time>2019-01-05T09:20:51Z</time>
      </trkpt>
      <trkpt lat="38.8956170" lon="-0.6244770">
        <ele>536.0</ele>
        <time>2019-01-05T09:20:55Z</time>
      </trkpt>
      <trkpt lat="38.8955470" lon="-0.6244520">
        <ele>536.6</ele>
        <time>2019-01-05T09:20:58Z</time>
      </trkpt>
      <trkpt lat="38.8954810" lon="-0.6244200">
        <ele>537.2</ele>
        <time>2019-01-05T09:21:01Z</time>
      </trkpt>
      <trkpt lat="38.8954570" lon="-0.6244100">
        <ele>537.4</ele>
        <time>2019-01-05T09:21:02Z</time>
      </trkpt>
      <trkpt lat="38.8953700" lon="-0.6243790">
        <ele>537.6</ele>
        <time>2019-01-05T09:21:06Z</time>
      </trkpt>
      <trkpt lat="38.8953460" lon="-0.6243730">
        <ele>537.8</ele>
        <time>2019-01-05T09:21:07Z</time>
      </trkpt>
      <trkpt lat="38.8952410" lon="-0.6243340">
        <ele>539.0</ele>
        <time>2019-01-05T09:21:12Z</time>
      </trkpt>
      <trkpt lat="38.8952020" lon="-0.6243170">
        <ele>540.0</ele>
        <time>2019-01-05T09:21:14Z</time>
      </trkpt>
      <trkpt lat="38.8951400" lon="-0.6242950">
        <ele>540.4</ele>
        <time>2019-01-05T09:21:17Z</time>
      </trkpt>
      <trkpt lat="38.8950690" lon="-0.6242780">
        <ele>541.0</ele>
        <time>2019-01-05T09:21:21Z</time>
      </trkpt>
      <trkpt lat="38.8950200" lon="-0.6242750">
        <ele>541.2</ele>
        <time>2019-01-05T09:21:23Z</time>
      </trkpt>
      <trkpt lat="38.8949140" lon="-0.6242870">
        <ele>541.8</ele>
        <time>2019-01-05T09:21:27Z</time>
      </trkpt>
      <trkpt lat="38.8948370" lon="-0.6243030">
        <ele>542.0</ele>
        <time>2019-01-05T09:21:30Z</time>
      </trkpt>
      <trkpt lat="38.8947870" lon="-0.6243160">
        <ele>542.2</ele>
        <time>2019-01-05T09:21:32Z</time>
      </trkpt>
      <trkpt lat="38.8947220" lon="-0.6243350">
        <ele>542.6</ele>
        <time>2019-01-05T09:21:35Z</time>
      </trkpt>
      <trkpt lat="38.8945940" lon="-0.6243710">
        <ele>543.2</ele>
        <time>2019-01-05T09:21:41Z</time>
      </trkpt>
      <trkpt lat="38.8945450" lon="-0.6243400">
        <ele>543.8</ele>
        <time>2019-01-05T09:21:46Z</time>
      </trkpt>
      <trkpt lat="38.8945280" lon="-0.6243260">
        <ele>544.4</ele>
        <time>2019-01-05T09:21:48Z</time>
      </trkpt>
      <trkpt lat="38.8944750" lon="-0.6242870">
        <ele>545.0</ele>
        <time>2019-01-05T09:21:53Z</time>
      </trkpt>
      <trkpt lat="38.8944530" lon="-0.6242680">
        <ele>545.4</ele>
        <time>2019-01-05T09:21:55Z</time>
      </trkpt>
      <trkpt lat="38.8943960" lon="-0.6242210">
        <ele>546.4</ele>
        <time>2019-01-05T09:22:00Z</time>
      </trkpt>
      <trkpt lat="38.8943870" lon="-0.6242110">
        <ele>546.4</ele>
        <time>2019-01-05T09:22:01Z</time>
      </trkpt>
      <trkpt lat="38.8943040" lon="-0.6241590">
        <ele>547.6</ele>
        <time>2019-01-05T09:22:08Z</time>
      </trkpt>
      <trkpt lat="38.8942890" lon="-0.6241510">
        <ele>547.6</ele>
        <time>2019-01-05T09:22:09Z</time>
      </trkpt>
      <trkpt lat="38.8942340" lon="-0.6241250">
        <ele>548.4</ele>
        <time>2019-01-05T09:22:13Z</time>
      </trkpt>
      <trkpt lat="38.8942200" lon="-0.6241270">
        <ele>548.6</ele>
        <time>2019-01-05T09:22:14Z</time>
      </trkpt>
      <trkpt lat="38.8942020" lon="-0.6241320">
        <ele>548.8</ele>
        <time>2019-01-05T09:22:15Z</time>
      </trkpt>
      <trkpt lat="38.8941870" lon="-0.6241150">
        <ele>548.8</ele>
        <time>2019-01-05T09:22:16Z</time>
      </trkpt>
      <trkpt lat="38.8940940" lon="-0.6240740">
        <ele>549.4</ele>
        <time>2019-01-05T09:22:23Z</time>
      </trkpt>
      <trkpt lat="38.8940690" lon="-0.6240650">
        <ele>549.6</ele>
        <time>2019-01-05T09:22:25Z</time>
      </trkpt>
      <trkpt lat="38.8940560" lon="-0.6240560">
        <ele>549.6</ele>
        <time>2019-01-05T09:22:26Z</time>
      </trkpt>
      <trkpt lat="38.8940140" lon="-0.6240350">
        <ele>550.2</ele>
        <time>2019-01-05T09:22:29Z</time>
      </trkpt>
      <trkpt lat="38.8940030" lon="-0.6240290">
        <ele>550.2</ele>
        <time>2019-01-05T09:22:30Z</time>
      </trkpt>
      <trkpt lat="38.8939930" lon="-0.6240170">
        <ele>550.4</ele>
        <time>2019-01-05T09:22:31Z</time>
      </trkpt>
      <trkpt lat="38.8939750" lon="-0.6240100">
        <ele>550.6</ele>
        <time>2019-01-05T09:22:33Z</time>
      </trkpt>
      <trkpt lat="38.8939320" lon="-0.6239580">
        <ele>551.2</ele>
        <time>2019-01-05T09:22:37Z</time>
      </trkpt>
      <trkpt lat="38.8938780" lon="-0.6239210">
        <ele>551.0</ele>
        <time>2019-01-05T09:22:41Z</time>
      </trkpt>
      <trkpt lat="38.8938340" lon="-0.6239020">
        <ele>551.2</ele>
        <time>2019-01-05T09:22:44Z</time>
      </trkpt>
      <trkpt lat="38.8937840" lon="-0.6238900">
        <ele>551.8</ele>
        <time>2019-01-05T09:22:47Z</time>
      </trkpt>
      <trkpt lat="38.8937340" lon="-0.6238860">
        <ele>552.2</ele>
        <time>2019-01-05T09:22:50Z</time>
      </trkpt>
      <trkpt lat="38.8936800" lon="-0.6239040">
        <ele>552.8</ele>
        <time>2019-01-05T09:22:54Z</time>
      </trkpt>
      <trkpt lat="38.8936560" lon="-0.6239140">
        <ele>553.8</ele>
        <time>2019-01-05T09:22:56Z</time>
      </trkpt>
      <trkpt lat="38.8936450" lon="-0.6239070">
        <ele>554.4</ele>
        <time>2019-01-05T09:22:57Z</time>
      </trkpt>
      <trkpt lat="38.8936370" lon="-0.6239010">
        <ele>554.8</ele>
        <time>2019-01-05T09:22:58Z</time>
      </trkpt>
      <trkpt lat="38.8936120" lon="-0.6239060">
        <ele>555.2</ele>
        <time>2019-01-05T09:23:01Z</time>
      </trkpt>
      <trkpt lat="38.8936030" lon="-0.6239090">
        <ele>555.4</ele>
        <time>2019-01-05T09:23:02Z</time>
      </trkpt>
      <trkpt lat="38.8935710" lon="-0.6239070">
        <ele>556.0</ele>
        <time>2019-01-05T09:23:05Z</time>
      </trkpt>
      <trkpt lat="38.8935420" lon="-0.6239190">
        <ele>557.0</ele>
        <time>2019-01-05T09:23:08Z</time>
      </trkpt>
      <trkpt lat="38.8935150" lon="-0.6239290">
        <ele>558.2</ele>
        <time>2019-01-05T09:23:10Z</time>
      </trkpt>
      <trkpt lat="38.8935030" lon="-0.6239310">
        <ele>558.6</ele>
        <time>2019-01-05T09:23:12Z</time>
      </trkpt>
      <trkpt lat="38.8934900" lon="-0.6239410">
        <ele>559.2</ele>
        <time>2019-01-05T09:23:14Z</time>
      </trkpt>
      <trkpt lat="38.8934690" lon="-0.6239450">
        <ele>559.8</ele>
        <time>2019-01-05T09:23:16Z</time>
      </trkpt>
      <trkpt lat="38.8934520" lon="-0.6239430">
        <ele>560.0</ele>
        <time>2019-01-05T09:23:19Z</time>
      </trkpt>
      <trkpt lat="38.8934390" lon="-0.6239430">
        <ele>560.2</ele>
        <time>2019-01-05T09:23:20Z</time>
      </trkpt>
      <trkpt lat="38.8933810" lon="-0.6239370">
        <ele>560.2</ele>
        <time>2019-01-05T09:23:24Z</time>
      </trkpt>
      <trkpt lat="38.8933550" lon="-0.6239420">
        <ele>560.4</ele>
        <time>2019-01-05T09:23:26Z</time>
      </trkpt>
      <trkpt lat="38.8932690" lon="-0.6239910">
        <ele>560.6</ele>
        <time>2019-01-05T09:23:32Z</time>
      </trkpt>
      <trkpt lat="38.8932580" lon="-0.6240010">
        <ele>560.8</ele>
        <time>2019-01-05T09:23:33Z</time>
      </trkpt>
      <trkpt lat="38.8931970" lon="-0.6240490">
        <ele>561.2</ele>
        <time>2019-01-05T09:23:38Z</time>
      </trkpt>
      <trkpt lat="38.8931800" lon="-0.6240680">
        <ele>561.4</ele>
        <time>2019-01-05T09:23:39Z</time>
      </trkpt>
      <trkpt lat="38.8931300" lon="-0.6241170">
        <ele>562.8</ele>
        <time>2019-01-05T09:23:42Z</time>
      </trkpt>
      <trkpt lat="38.8930840" lon="-0.6241500">
        <ele>563.4</ele>
        <time>2019-01-05T09:23:45Z</time>
      </trkpt>
      <trkpt lat="38.8930580" lon="-0.6241600">
        <ele>564.0</ele>
        <time>2019-01-05T09:23:47Z</time>
      </trkpt>
      <trkpt lat="38.8930270" lon="-0.6241840">
        <ele>564.4</ele>
        <time>2019-01-05T09:23:50Z</time>
      </trkpt>
      <trkpt lat="38.8930200" lon="-0.6241930">
        <ele>564.6</ele>
        <time>2019-01-05T09:23:51Z</time>
      </trkpt>
      <trkpt lat="38.8930120" lon="-0.6242030">
        <ele>564.4</ele>
        <time>2019-01-05T09:23:52Z</time>
      </trkpt>
      <trkpt lat="38.8929530" lon="-0.6242350">
        <ele>565.2</ele>
        <time>2019-01-05T09:23:56Z</time>
      </trkpt>
      <trkpt lat="38.8929430" lon="-0.6242470">
        <ele>565.6</ele>
        <time>2019-01-05T09:23:57Z</time>
      </trkpt>
      <trkpt lat="38.8929360" lon="-0.6242600">
        <ele>566.2</ele>
        <time>2019-01-05T09:23:58Z</time>
      </trkpt>
      <trkpt lat="38.8928910" lon="-0.6243570">
        <ele>567.2</ele>
        <time>2019-01-05T09:24:04Z</time>
      </trkpt>
      <trkpt lat="38.8928740" lon="-0.6243860">
        <ele>567.6</ele>
        <time>2019-01-05T09:24:06Z</time>
      </trkpt>
      <trkpt lat="38.8928310" lon="-0.6244380">
        <ele>568.6</ele>
        <time>2019-01-05T09:24:10Z</time>
      </trkpt>
      <trkpt lat="38.8928080" lon="-0.6244640">
        <ele>569.4</ele>
        <time>2019-01-05T09:24:12Z</time>
      </trkpt>
      <trkpt lat="38.8927940" lon="-0.6244890">
        <ele>569.8</ele>
        <time>2019-01-05T09:24:14Z</time>
      </trkpt>
      <trkpt lat="38.8927660" lon="-0.6245380">
        <ele>570.0</ele>
        <time>2019-01-05T09:24:19Z</time>
      </trkpt>
      <trkpt lat="38.8927530" lon="-0.6245530">
        <ele>570.4</ele>
        <time>2019-01-05T09:24:21Z</time>
      </trkpt>
      <trkpt lat="38.8927430" lon="-0.6245740">
        <ele>570.8</ele>
        <time>2019-01-05T09:24:23Z</time>
      </trkpt>
      <trkpt lat="38.8927270" lon="-0.6245930">
        <ele>571.2</ele>
        <time>2019-01-05T09:24:25Z</time>
      </trkpt>
      <trkpt lat="38.8926930" lon="-0.6246480">
        <ele>572.2</ele>
        <time>2019-01-05T09:24:29Z</time>
      </trkpt>
      <trkpt lat="38.8926750" lon="-0.6246750">
        <ele>573.0</ele>
        <time>2019-01-05T09:24:31Z</time>
      </trkpt>
      <trkpt lat="38.8926650" lon="-0.6246890">
        <ele>573.2</ele>
        <time>2019-01-05T09:24:32Z</time>
      </trkpt>
      <trkpt lat="38.8926370" lon="-0.6247240">
        <ele>573.6</ele>
        <time>2019-01-05T09:24:35Z</time>
      </trkpt>
      <trkpt lat="38.8926200" lon="-0.6247450">
        <ele>574.2</ele>
        <time>2019-01-05T09:24:37Z</time>
      </trkpt>
      <trkpt lat="38.8926090" lon="-0.6247580">
        <ele>574.4</ele>
        <time>2019-01-05T09:24:38Z</time>
      </trkpt>
      <trkpt lat="38.8925700" lon="-0.6248020">
        <ele>575.4</ele>
        <time>2019-01-05T09:24:42Z</time>
      </trkpt>
      <trkpt lat="38.8925610" lon="-0.6248130">
        <ele>575.8</ele>
        <time>2019-01-05T09:24:43Z</time>
      </trkpt>
      <trkpt lat="38.8925370" lon="-0.6248440">
        <ele>576.2</ele>
        <time>2019-01-05T09:24:46Z</time>
      </trkpt>
      <trkpt lat="38.8925210" lon="-0.6248630">
        <ele>576.2</ele>
        <time>2019-01-05T09:24:48Z</time>
      </trkpt>
      <trkpt lat="38.8925190" lon="-0.6248720">
        <ele>576.2</ele>
        <time>2019-01-05T09:24:49Z</time>
      </trkpt>
      <trkpt lat="38.8925070" lon="-0.6248880">
        <ele>576.6</ele>
        <time>2019-01-05T09:24:51Z</time>
      </trkpt>
      <trkpt lat="38.8924690" lon="-0.6249240">
        <ele>577.4</ele>
        <time>2019-01-05T09:24:55Z</time>
      </trkpt>
      <trkpt lat="38.8924380" lon="-0.6249550">
        <ele>577.6</ele>
        <time>2019-01-05T09:24:58Z</time>
      </trkpt>
      <trkpt lat="38.8923920" lon="-0.6249840">
        <ele>578.8</ele>
        <time>2019-01-05T09:25:02Z</time>
      </trkpt>
      <trkpt lat="38.8923830" lon="-0.6249920">
        <ele>579.0</ele>
        <time>2019-01-05T09:25:03Z</time>
      </trkpt>
      <trkpt lat="38.8923750" lon="-0.6249960">
        <ele>579.2</ele>
        <time>2019-01-05T09:25:04Z</time>
      </trkpt>
      <trkpt lat="38.8923530" lon="-0.6250160">
        <ele>579.6</ele>
        <time>2019-01-05T09:25:07Z</time>
      </trkpt>
      <trkpt lat="38.8923430" lon="-0.6250200">
        <ele>579.8</ele>
        <time>2019-01-05T09:25:08Z</time>
      </trkpt>
      <trkpt lat="38.8923340" lon="-0.6250240">
        <ele>580.0</ele>
        <time>2019-01-05T09:25:09Z</time>
      </trkpt>
      <trkpt lat="38.8922980" lon="-0.6250570">
        <ele>581.0</ele>
        <time>2019-01-05T09:25:13Z</time>
      </trkpt>
      <trkpt lat="38.8922870" lon="-0.6250700">
        <ele>581.4</ele>
        <time>2019-01-05T09:25:14Z</time>
      </trkpt>
      <trkpt lat="38.8922540" lon="-0.6251240">
        <ele>582.0</ele>
        <time>2019-01-05T09:25:18Z</time>
      </trkpt>
      <trkpt lat="38.8922380" lon="-0.6251460">
        <ele>582.2</ele>
        <time>2019-01-05T09:25:20Z</time>
      </trkpt>
      <trkpt lat="38.8921990" lon="-0.6252060">
        <ele>583.6</ele>
        <time>2019-01-05T09:25:25Z</time>
      </trkpt>
      <trkpt lat="38.8921900" lon="-0.6252150">
        <ele>584.0</ele>
        <time>2019-01-05T09:25:26Z</time>
      </trkpt>
      <trkpt lat="38.8921830" lon="-0.6252230">
        <ele>584.4</ele>
        <time>2019-01-05T09:25:27Z</time>
      </trkpt>
      <trkpt lat="38.8921750" lon="-0.6252370">
        <ele>584.8</ele>
        <time>2019-01-05T09:25:28Z</time>
      </trkpt>
      <trkpt lat="38.8921370" lon="-0.6253100">
        <ele>585.6</ele>
        <time>2019-01-05T09:25:34Z</time>
      </trkpt>
      <trkpt lat="38.8921320" lon="-0.6253190">
        <ele>586.0</ele>
        <time>2019-01-05T09:25:35Z</time>
      </trkpt>
      <trkpt lat="38.8921170" lon="-0.6253600">
        <ele>587.0</ele>
        <time>2019-01-05T09:25:39Z</time>
      </trkpt>
      <trkpt lat="38.8921090" lon="-0.6253650">
        <ele>587.2</ele>
        <time>2019-01-05T09:25:40Z</time>
      </trkpt>
      <trkpt lat="38.8920990" lon="-0.6253720">
        <ele>587.6</ele>
        <time>2019-01-05T09:25:41Z</time>
      </trkpt>
      <trkpt lat="38.8920700" lon="-0.6254000">
        <ele>588.2</ele>
        <time>2019-01-05T09:25:44Z</time>
      </trkpt>
      <trkpt lat="38.8920440" lon="-0.6254240">
        <ele>589.4</ele>
        <time>2019-01-05T09:25:47Z</time>
      </trkpt>
      <trkpt lat="38.8920350" lon="-0.6254330">
        <ele>589.6</ele>
        <time>2019-01-05T09:25:48Z</time>
      </trkpt>
      <trkpt lat="38.8919910" lon="-0.6254600">
        <ele>590.4</ele>
        <time>2019-01-05T09:25:53Z</time>
      </trkpt>
      <trkpt lat="38.8919820" lon="-0.6254690">
        <ele>590.6</ele>
        <time>2019-01-05T09:25:54Z</time>
      </trkpt>
      <trkpt lat="38.8919720" lon="-0.6254770">
        <ele>590.6</ele>
        <time>2019-01-05T09:25:55Z</time>
      </trkpt>
      <trkpt lat="38.8918920" lon="-0.6254790">
        <ele>591.4</ele>
        <time>2019-01-05T09:26:02Z</time>
      </trkpt>
      <trkpt lat="38.8918120" lon="-0.6254500">
        <ele>591.4</ele>
        <time>2019-01-05T09:26:09Z</time>
      </trkpt>
      <trkpt lat="38.8917820" lon="-0.6254300">
        <ele>592.0</ele>
        <time>2019-01-05T09:26:12Z</time>
      </trkpt>
      <trkpt lat="38.8917530" lon="-0.6254180">
        <ele>592.4</ele>
        <time>2019-01-05T09:26:15Z</time>
      </trkpt>
      <trkpt lat="38.8917470" lon="-0.6254120">
        <ele>592.6</ele>
        <time>2019-01-05T09:26:16Z</time>
      </trkpt>
      <trkpt lat="38.8917040" lon="-0.6253900">
        <ele>593.6</ele>
        <time>2019-01-05T09:26:20Z</time>
      </trkpt>
      <trkpt lat="38.8916930" lon="-0.6253840">
        <ele>594.2</ele>
        <time>2019-01-05T09:26:21Z</time>
      </trkpt>
      <trkpt lat="38.8916860" lon="-0.6253820">
        <ele>594.8</ele>
        <time>2019-01-05T09:26:22Z</time>
      </trkpt>
      <trkpt lat="38.8916330" lon="-0.6253740">
        <ele>595.6</ele>
        <time>2019-01-05T09:26:27Z</time>
      </trkpt>
      <trkpt lat="38.8915750" lon="-0.6253990">
        <ele>595.8</ele>
        <time>2019-01-05T09:26:32Z</time>
      </trkpt>
      <trkpt lat="38.8915420" lon="-0.6254170">
        <ele>595.8</ele>
        <time>2019-01-05T09:26:35Z</time>
      </trkpt>
      <trkpt lat="38.8914540" lon="-0.6254210">
        <ele>596.8</ele>
        <time>2019-01-05T09:26:42Z</time>
      </trkpt>
      <trkpt lat="38.8914400" lon="-0.6254220">
        <ele>596.8</ele>
        <time>2019-01-05T09:26:43Z</time>
      </trkpt>
      <trkpt lat="38.8913790" lon="-0.6254240">
        <ele>596.4</ele>
        <time>2019-01-05T09:26:47Z</time>
      </trkpt>
      <trkpt lat="38.8913550" lon="-0.6254360">
        <ele>596.6</ele>
        <time>2019-01-05T09:26:49Z</time>
      </trkpt>
      <trkpt lat="38.8912720" lon="-0.6254750">
        <ele>597.4</ele>
        <time>2019-01-05T09:26:55Z</time>
      </trkpt>
      <trkpt lat="38.8912600" lon="-0.6254860">
        <ele>598.0</ele>
        <time>2019-01-05T09:26:56Z</time>
      </trkpt>
      <trkpt lat="38.8911770" lon="-0.6255630">
        <ele>598.8</ele>
        <time>2019-01-05T09:27:02Z</time>
      </trkpt>
      <trkpt lat="38.8911100" lon="-0.6256630">
        <ele>599.0</ele>
        <time>2019-01-05T09:27:09Z</time>
      </trkpt>
      <trkpt lat="38.8910990" lon="-0.6256750">
        <ele>599.0</ele>
        <time>2019-01-05T09:27:10Z</time>
      </trkpt>
      <trkpt lat="38.8910470" lon="-0.6257220">
        <ele>598.6</ele>
        <time>2019-01-05T09:27:14Z</time>
      </trkpt>
      <trkpt lat="38.8910080" lon="-0.6257270">
        <ele>599.0</ele>
        <time>2019-01-05T09:27:17Z</time>
      </trkpt>
      <trkpt lat="38.8910020" lon="-0.6257240">
        <ele>599.4</ele>
        <time>2019-01-05T09:27:18Z</time>
      </trkpt>
      <trkpt lat="38.8909950" lon="-0.6256830">
        <ele>600.0</ele>
        <time>2019-01-05T09:27:21Z</time>
      </trkpt>
      <trkpt lat="38.8909960" lon="-0.6256680">
        <ele>600.6</ele>
        <time>2019-01-05T09:27:22Z</time>
      </trkpt>
      <trkpt lat="38.8910010" lon="-0.6256360">
        <ele>601.2</ele>
        <time>2019-01-05T09:27:24Z</time>
      </trkpt>
      <trkpt lat="38.8910210" lon="-0.6255920">
        <ele>601.6</ele>
        <time>2019-01-05T09:27:27Z</time>
      </trkpt>
      <trkpt lat="38.8910990" lon="-0.6255010">
        <ele>602.2</ele>
        <time>2019-01-05T09:27:32Z</time>
      </trkpt>
      <trkpt lat="38.8911730" lon="-0.6254220">
        <ele>603.4</ele>
        <time>2019-01-05T09:27:37Z</time>
      </trkpt>
      <trkpt lat="38.8911790" lon="-0.6253910">
        <ele>603.6</ele>
        <time>2019-01-05T09:27:39Z</time>
      </trkpt>
      <trkpt lat="38.8911810" lon="-0.6253650">
        <ele>603.6</ele>
        <time>2019-01-05T09:27:41Z</time>
      </trkpt>
      <trkpt lat="38.8911790" lon="-0.6253500">
        <ele>603.8</ele>
        <time>2019-01-05T09:27:42Z</time>
      </trkpt>
      <trkpt lat="38.8911770" lon="-0.6253330">
        <ele>603.8</ele>
        <time>2019-01-05T09:27:43Z</time>
      </trkpt>
      <trkpt lat="38.8911790" lon="-0.6252990">
        <ele>604.2</ele>
        <time>2019-01-05T09:27:45Z</time>
      </trkpt>
      <trkpt lat="38.8911870" lon="-0.6252820">
        <ele>604.6</ele>
        <time>2019-01-05T09:27:47Z</time>
      </trkpt>
      <trkpt lat="38.8911880" lon="-0.6252570">
        <ele>605.2</ele>
        <time>2019-01-05T09:27:50Z</time>
      </trkpt>
      <trkpt lat="38.8911910" lon="-0.6252350">
        <ele>605.4</ele>
        <time>2019-01-05T09:27:52Z</time>
      </trkpt>
      <trkpt lat="38.8912260" lon="-0.6251880">
        <ele>605.6</ele>
        <time>2019-01-05T09:27:55Z</time>
      </trkpt>
      <trkpt lat="38.8912820" lon="-0.6251190">
        <ele>605.8</ele>
        <time>2019-01-05T09:27:59Z</time>
      </trkpt>
      <trkpt lat="38.8913080" lon="-0.6250940">
        <ele>606.2</ele>
        <time>2019-01-05T09:28:01Z</time>
      </trkpt>
      <trkpt lat="38.8913400" lon="-0.6250770">
        <ele>606.4</ele>
        <time>2019-01-05T09:28:03Z</time>
      </trkpt>
      <trkpt lat="38.8913500" lon="-0.6250640">
        <ele>606.6</ele>
        <time>2019-01-05T09:28:04Z</time>
      </trkpt>
      <trkpt lat="38.8913500" lon="-0.6250470">
        <ele>606.8</ele>
        <time>2019-01-05T09:28:05Z</time>
      </trkpt>
      <trkpt lat="38.8913430" lon="-0.6250320">
        <ele>606.8</ele>
        <time>2019-01-05T09:28:06Z</time>
      </trkpt>
      <trkpt lat="38.8913110" lon="-0.6249960">
        <ele>607.2</ele>
        <time>2019-01-05T09:28:10Z</time>
      </trkpt>
      <trkpt lat="38.8912860" lon="-0.6249970">
        <ele>607.4</ele>
        <time>2019-01-05T09:28:12Z</time>
      </trkpt>
      <trkpt lat="38.8912620" lon="-0.6250140">
        <ele>607.6</ele>
        <time>2019-01-05T09:28:14Z</time>
      </trkpt>
      <trkpt lat="38.8912180" lon="-0.6250550">
        <ele>608.6</ele>
        <time>2019-01-05T09:28:18Z</time>
      </trkpt>
      <trkpt lat="38.8912080" lon="-0.6250650">
        <ele>609.0</ele>
        <time>2019-01-05T09:28:19Z</time>
      </trkpt>
      <trkpt lat="38.8911540" lon="-0.6250990">
        <ele>610.2</ele>
        <time>2019-01-05T09:28:24Z</time>
      </trkpt>
      <trkpt lat="38.8911480" lon="-0.6251020">
        <ele>610.2</ele>
        <time>2019-01-05T09:28:25Z</time>
      </trkpt>
      <trkpt lat="38.8911370" lon="-0.6251060">
        <ele>610.4</ele>
        <time>2019-01-05T09:28:27Z</time>
      </trkpt>
      <trkpt lat="38.8910970" lon="-0.6251390">
        <ele>610.6</ele>
        <time>2019-01-05T09:28:31Z</time>
      </trkpt>
      <trkpt lat="38.8910490" lon="-0.6251740">
        <ele>611.4</ele>
        <time>2019-01-05T09:28:35Z</time>
      </trkpt>
      <trkpt lat="38.8910210" lon="-0.6251990">
        <ele>612.4</ele>
        <time>2019-01-05T09:28:38Z</time>
      </trkpt>
      <trkpt lat="38.8909800" lon="-0.6252250">
        <ele>613.4</ele>
        <time>2019-01-05T09:28:42Z</time>
      </trkpt>
      <trkpt lat="38.8909640" lon="-0.6252290">
        <ele>613.6</ele>
        <time>2019-01-05T09:28:44Z</time>
      </trkpt>
      <trkpt lat="38.8909560" lon="-0.6252280">
        <ele>614.0</ele>
        <time>2019-01-05T09:28:45Z</time>
      </trkpt>
      <trkpt lat="38.8909060" lon="-0.6252720">
        <ele>614.6</ele>
        <time>2019-01-05T09:28:49Z</time>
      </trkpt>
      <trkpt lat="38.8908930" lon="-0.6252940">
        <ele>614.8</ele>
        <time>2019-01-05T09:28:51Z</time>
      </trkpt>
      <trkpt lat="38.8908540" lon="-0.6253390">
        <ele>615.6</ele>
        <time>2019-01-05T09:28:54Z</time>
      </trkpt>
      <trkpt lat="38.8908210" lon="-0.6253850">
        <ele>616.0</ele>
        <time>2019-01-05T09:28:57Z</time>
      </trkpt>
      <trkpt lat="38.8907920" lon="-0.6254310">
        <ele>616.8</ele>
        <time>2019-01-05T09:29:00Z</time>
      </trkpt>
      <trkpt lat="38.8907530" lon="-0.6254720">
        <ele>617.4</ele>
        <time>2019-01-05T09:29:04Z</time>
      </trkpt>
      <trkpt lat="38.8907340" lon="-0.6254960">
        <ele>617.6</ele>
        <time>2019-01-05T09:29:06Z</time>
      </trkpt>
      <trkpt lat="38.8907010" lon="-0.6255350">
        <ele>617.8</ele>
        <time>2019-01-05T09:29:09Z</time>
      </trkpt>
      <trkpt lat="38.8906340" lon="-0.6256440">
        <ele>618.6</ele>
        <time>2019-01-05T09:29:16Z</time>
      </trkpt>
      <trkpt lat="38.8905950" lon="-0.6256860">
        <ele>618.8</ele>
        <time>2019-01-05T09:29:20Z</time>
      </trkpt>
      <trkpt lat="38.8905740" lon="-0.6257150">
        <ele>619.0</ele>
        <time>2019-01-05T09:29:23Z</time>
      </trkpt>
      <trkpt lat="38.8905250" lon="-0.6257930">
        <ele>619.6</ele>
        <time>2019-01-05T09:29:29Z</time>
      </trkpt>
      <trkpt lat="38.8905030" lon="-0.6258290">
        <ele>620.0</ele>
        <time>2019-01-05T09:29:32Z</time>
      </trkpt>
      <trkpt lat="38.8904810" lon="-0.6258860">
        <ele>620.2</ele>
        <time>2019-01-05T09:29:36Z</time>
      </trkpt>
      <trkpt lat="38.8904650" lon="-0.6259150">
        <ele>620.2</ele>
        <time>2019-01-05T09:29:38Z</time>
      </trkpt>
      <trkpt lat="38.8904430" lon="-0.6259710">
        <ele>620.6</ele>
        <time>2019-01-05T09:29:41Z</time>
      </trkpt>
      <trkpt lat="38.8904160" lon="-0.6260210">
        <ele>621.0</ele>
        <time>2019-01-05T09:29:45Z</time>
      </trkpt>
      <trkpt lat="38.8904030" lon="-0.6260470">
        <ele>621.2</ele>
        <time>2019-01-05T09:29:47Z</time>
      </trkpt>
      <trkpt lat="38.8903880" lon="-0.6260860">
        <ele>621.4</ele>
        <time>2019-01-05T09:29:50Z</time>
      </trkpt>
      <trkpt lat="38.8903790" lon="-0.6260980">
        <ele>621.6</ele>
        <time>2019-01-05T09:29:52Z</time>
      </trkpt>
      <trkpt lat="38.8903660" lon="-0.6261170">
        <ele>622.0</ele>
        <time>2019-01-05T09:29:54Z</time>
      </trkpt>
      <trkpt lat="38.8903320" lon="-0.6261880">
        <ele>622.8</ele>
        <time>2019-01-05T09:29:58Z</time>
      </trkpt>
      <trkpt lat="38.8903050" lon="-0.6262390">
        <ele>623.0</ele>
        <time>2019-01-05T09:30:02Z</time>
      </trkpt>
      <trkpt lat="38.8902900" lon="-0.6262610">
        <ele>623.8</ele>
        <time>2019-01-05T09:30:04Z</time>
      </trkpt>
      <trkpt lat="38.8902810" lon="-0.6262670">
        <ele>624.0</ele>
        <time>2019-01-05T09:30:05Z</time>
      </trkpt>
      <trkpt lat="38.8902700" lon="-0.6262780">
        <ele>624.2</ele>
        <time>2019-01-05T09:30:06Z</time>
      </trkpt>
      <trkpt lat="38.8902170" lon="-0.6263610">
        <ele>624.8</ele>
        <time>2019-01-05T09:30:11Z</time>
      </trkpt>
      <trkpt lat="38.8901810" lon="-0.6264140">
        <ele>625.4</ele>
        <time>2019-01-05T09:30:14Z</time>
      </trkpt>
      <trkpt lat="38.8901710" lon="-0.6264300">
        <ele>625.4</ele>
        <time>2019-01-05T09:30:15Z</time>
      </trkpt>
      <trkpt lat="38.8901150" lon="-0.6264990">
        <ele>626.8</ele>
        <time>2019-01-05T09:30:20Z</time>
      </trkpt>
      <trkpt lat="38.8901000" lon="-0.6265130">
        <ele>627.0</ele>
        <time>2019-01-05T09:30:21Z</time>
      </trkpt>
      <trkpt lat="38.8900610" lon="-0.6265510">
        <ele>627.8</ele>
        <time>2019-01-05T09:30:24Z</time>
      </trkpt>
      <trkpt lat="38.8900180" lon="-0.6265840">
        <ele>628.4</ele>
        <time>2019-01-05T09:30:27Z</time>
      </trkpt>
      <trkpt lat="38.8900050" lon="-0.6265990">
        <ele>628.4</ele>
        <time>2019-01-05T09:30:28Z</time>
      </trkpt>
      <trkpt lat="38.8899660" lon="-0.6266340">
        <ele>628.8</ele>
        <time>2019-01-05T09:30:31Z</time>
      </trkpt>
      <trkpt lat="38.8899390" lon="-0.6266570">
        <ele>629.2</ele>
        <time>2019-01-05T09:30:33Z</time>
      </trkpt>
      <trkpt lat="38.8899270" lon="-0.6266690">
        <ele>629.4</ele>
        <time>2019-01-05T09:30:34Z</time>
      </trkpt>
      <trkpt lat="38.8899060" lon="-0.6266930">
        <ele>630.0</ele>
        <time>2019-01-05T09:30:36Z</time>
      </trkpt>
      <trkpt lat="38.8898500" lon="-0.6267630">
        <ele>631.0</ele>
        <time>2019-01-05T09:30:41Z</time>
      </trkpt>
      <trkpt lat="38.8898370" lon="-0.6267800">
        <ele>631.0</ele>
        <time>2019-01-05T09:30:42Z</time>
      </trkpt>
      <trkpt lat="38.8898130" lon="-0.6268050">
        <ele>631.2</ele>
        <time>2019-01-05T09:30:44Z</time>
      </trkpt>
      <trkpt lat="38.8897960" lon="-0.6268300">
        <ele>631.0</ele>
        <time>2019-01-05T09:30:46Z</time>
      </trkpt>
      <trkpt lat="38.8897770" lon="-0.6268540">
        <ele>631.6</ele>
        <time>2019-01-05T09:30:48Z</time>
      </trkpt>
      <trkpt lat="38.8897450" lon="-0.6268810">
        <ele>632.0</ele>
        <time>2019-01-05T09:30:51Z</time>
      </trkpt>
      <trkpt lat="38.8897350" lon="-0.6268930">
        <ele>632.0</ele>
        <time>2019-01-05T09:30:52Z</time>
      </trkpt>
      <trkpt lat="38.8896850" lon="-0.6269190">
        <ele>633.2</ele>
        <time>2019-01-05T09:30:56Z</time>
      </trkpt>
      <trkpt lat="38.8896740" lon="-0.6269300">
        <ele>633.4</ele>
        <time>2019-01-05T09:30:57Z</time>
      </trkpt>
      <trkpt lat="38.8896650" lon="-0.6269490">
        <ele>633.6</ele>
        <time>2019-01-05T09:30:58Z</time>
      </trkpt>
      <trkpt lat="38.8896350" lon="-0.6269770">
        <ele>633.8</ele>
        <time>2019-01-05T09:31:00Z</time>
      </trkpt>
      <trkpt lat="38.8895660" lon="-0.6270380">
        <ele>633.0</ele>
        <time>2019-01-05T09:31:06Z</time>
      </trkpt>
      <trkpt lat="38.8895530" lon="-0.6270480">
        <ele>633.2</ele>
        <time>2019-01-05T09:31:07Z</time>
      </trkpt>
      <trkpt lat="38.8895170" lon="-0.6270900">
        <ele>634.4</ele>
        <time>2019-01-05T09:31:10Z</time>
      </trkpt>
      <trkpt lat="38.8894990" lon="-0.6271130">
        <ele>634.8</ele>
        <time>2019-01-05T09:31:12Z</time>
      </trkpt>
      <trkpt lat="38.8894650" lon="-0.6272010">
        <ele>635.4</ele>
        <time>2019-01-05T09:31:16Z</time>
      </trkpt>
      <trkpt lat="38.8894460" lon="-0.6272350">
        <ele>635.4</ele>
        <time>2019-01-05T09:31:18Z</time>
      </trkpt>
      <trkpt lat="38.8894040" lon="-0.6273080">
        <ele>636.0</ele>
        <time>2019-01-05T09:31:23Z</time>
      </trkpt>
      <trkpt lat="38.8893930" lon="-0.6273300">
        <ele>636.2</ele>
        <time>2019-01-05T09:31:24Z</time>
      </trkpt>
      <trkpt lat="38.8893870" lon="-0.6273550">
        <ele>636.4</ele>
        <time>2019-01-05T09:31:25Z</time>
      </trkpt>
      <trkpt lat="38.8893650" lon="-0.6273960">
        <ele>636.8</ele>
        <time>2019-01-05T09:31:27Z</time>
      </trkpt>
      <trkpt lat="38.8893600" lon="-0.6274060">
        <ele>636.8</ele>
        <time>2019-01-05T09:31:28Z</time>
      </trkpt>
      <trkpt lat="38.8893390" lon="-0.6274680">
        <ele>636.2</ele>
        <time>2019-01-05T09:31:32Z</time>
      </trkpt>
      <trkpt lat="38.8893160" lon="-0.6275670">
        <ele>636.4</ele>
        <time>2019-01-05T09:31:36Z</time>
      </trkpt>
      <trkpt lat="38.8893050" lon="-0.6275800">
        <ele>636.6</ele>
        <time>2019-01-05T09:31:37Z</time>
      </trkpt>
      <trkpt lat="38.8892910" lon="-0.6276080">
        <ele>637.2</ele>
        <time>2019-01-05T09:31:39Z</time>
      </trkpt>
      <trkpt lat="38.8892780" lon="-0.6276850">
        <ele>637.4</ele>
        <time>2019-01-05T09:31:42Z</time>
      </trkpt>
      <trkpt lat="38.8892610" lon="-0.6277330">
        <ele>637.4</ele>
        <time>2019-01-05T09:31:44Z</time>
      </trkpt>
      <trkpt lat="38.8892480" lon="-0.6277750">
        <ele>637.4</ele>
        <time>2019-01-05T09:31:46Z</time>
      </trkpt>
      <trkpt lat="38.8892380" lon="-0.6278090">
        <ele>637.6</ele>
        <time>2019-01-05T09:31:48Z</time>
      </trkpt>
      <trkpt lat="38.8892220" lon="-0.6279000">
        <ele>637.8</ele>
        <time>2019-01-05T09:31:52Z</time>
      </trkpt>
      <trkpt lat="38.8892160" lon="-0.6279270">
        <ele>638.0</ele>
        <time>2019-01-05T09:31:53Z</time>
      </trkpt>
      <trkpt lat="38.8892150" lon="-0.6279620">
        <ele>638.6</ele>
        <time>2019-01-05T09:31:56Z</time>
      </trkpt>
      <trkpt lat="38.8892110" lon="-0.6279700">
        <ele>638.6</ele>
        <time>2019-01-05T09:31:57Z</time>
      </trkpt>
      <trkpt lat="38.8892070" lon="-0.6279800">
        <ele>638.6</ele>
        <time>2019-01-05T09:31:58Z</time>
      </trkpt>
      <trkpt lat="38.8892060" lon="-0.6279930">
        <ele>638.6</ele>
        <time>2019-01-05T09:31:59Z</time>
      </trkpt>
      <trkpt lat="38.8891780" lon="-0.6281010">
        <ele>638.8</ele>
        <time>2019-01-05T09:32:04Z</time>
      </trkpt>
      <trkpt lat="38.8891540" lon="-0.6281710">
        <ele>639.6</ele>
        <time>2019-01-05T09:32:08Z</time>
      </trkpt>
      <trkpt lat="38.8891220" lon="-0.6282040">
        <ele>640.2</ele>
        <time>2019-01-05T09:32:11Z</time>
      </trkpt>
      <trkpt lat="38.8890770" lon="-0.6282270">
        <ele>640.6</ele>
        <time>2019-01-05T09:32:15Z</time>
      </trkpt>
      <trkpt lat="38.8890500" lon="-0.6282390">
        <ele>640.6</ele>
        <time>2019-01-05T09:32:17Z</time>
      </trkpt>
      <trkpt lat="38.8889810" lon="-0.6282740">
        <ele>641.6</ele>
        <time>2019-01-05T09:32:22Z</time>
      </trkpt>
      <trkpt lat="38.8889110" lon="-0.6282950">
        <ele>642.6</ele>
        <time>2019-01-05T09:32:28Z</time>
      </trkpt>
      <trkpt lat="38.8888820" lon="-0.6282950">
        <ele>642.8</ele>
        <time>2019-01-05T09:32:30Z</time>
      </trkpt>
      <trkpt lat="38.8888650" lon="-0.6282980">
        <ele>643.0</ele>
        <time>2019-01-05T09:32:31Z</time>
      </trkpt>
      <trkpt lat="38.8888380" lon="-0.6283090">
        <ele>643.6</ele>
        <time>2019-01-05T09:32:33Z</time>
      </trkpt>
      <trkpt lat="38.8888240" lon="-0.6283170">
        <ele>644.0</ele>
        <time>2019-01-05T09:32:34Z</time>
      </trkpt>
      <trkpt lat="38.8887840" lon="-0.6283400">
        <ele>645.0</ele>
        <time>2019-01-05T09:32:37Z</time>
      </trkpt>
      <trkpt lat="38.8887520" lon="-0.6283550">
        <ele>645.8</ele>
        <time>2019-01-05T09:32:39Z</time>
      </trkpt>
      <trkpt lat="38.8887360" lon="-0.6283640">
        <ele>646.2</ele>
        <time>2019-01-05T09:32:40Z</time>
      </trkpt>
      <trkpt lat="38.8886930" lon="-0.6283870">
        <ele>646.4</ele>
        <time>2019-01-05T09:32:43Z</time>
      </trkpt>
      <trkpt lat="38.8886670" lon="-0.6283920">
        <ele>646.4</ele>
        <time>2019-01-05T09:32:45Z</time>
      </trkpt>
      <trkpt lat="38.8886220" lon="-0.6284350">
        <ele>647.2</ele>
        <time>2019-01-05T09:32:49Z</time>
      </trkpt>
      <trkpt lat="38.8885960" lon="-0.6284710">
        <ele>648.0</ele>
        <time>2019-01-05T09:32:52Z</time>
      </trkpt>
      <trkpt lat="38.8885890" lon="-0.6284790">
        <ele>648.2</ele>
        <time>2019-01-05T09:32:53Z</time>
      </trkpt>
      <trkpt lat="38.8885750" lon="-0.6284870">
        <ele>648.4</ele>
        <time>2019-01-05T09:32:54Z</time>
      </trkpt>
      <trkpt lat="38.8885480" lon="-0.6285060">
        <ele>648.4</ele>
        <time>2019-01-05T09:32:56Z</time>
      </trkpt>
      <trkpt lat="38.8884850" lon="-0.6285590">
        <ele>649.2</ele>
        <time>2019-01-05T09:33:01Z</time>
      </trkpt>
      <trkpt lat="38.8884750" lon="-0.6285720">
        <ele>649.8</ele>
        <time>2019-01-05T09:33:02Z</time>
      </trkpt>
      <trkpt lat="38.8884670" lon="-0.6285820">
        <ele>650.2</ele>
        <time>2019-01-05T09:33:03Z</time>
      </trkpt>
      <trkpt lat="38.8884410" lon="-0.6286410">
        <ele>651.2</ele>
        <time>2019-01-05T09:33:07Z</time>
      </trkpt>
      <trkpt lat="38.8884260" lon="-0.6286710">
        <ele>651.2</ele>
        <time>2019-01-05T09:33:09Z</time>
      </trkpt>
      <trkpt lat="38.8884100" lon="-0.6287000">
        <ele>650.8</ele>
        <time>2019-01-05T09:33:11Z</time>
      </trkpt>
      <trkpt lat="38.8883790" lon="-0.6287480">
        <ele>650.8</ele>
        <time>2019-01-05T09:33:15Z</time>
      </trkpt>
      <trkpt lat="38.8883690" lon="-0.6287600">
        <ele>650.8</ele>
        <time>2019-01-05T09:33:16Z</time>
      </trkpt>
      <trkpt lat="38.8883490" lon="-0.6287840">
        <ele>651.4</ele>
        <time>2019-01-05T09:33:18Z</time>
      </trkpt>
      <trkpt lat="38.8883260" lon="-0.6288190">
        <ele>651.6</ele>
        <time>2019-01-05T09:33:20Z</time>
      </trkpt>
      <trkpt lat="38.8883020" lon="-0.6288840">
        <ele>652.0</ele>
        <time>2019-01-05T09:33:24Z</time>
      </trkpt>
      <trkpt lat="38.8882960" lon="-0.6289220">
        <ele>652.2</ele>
        <time>2019-01-05T09:33:26Z</time>
      </trkpt>
      <trkpt lat="38.8882910" lon="-0.6289420">
        <ele>652.4</ele>
        <time>2019-01-05T09:33:27Z</time>
      </trkpt>
      <trkpt lat="38.8882700" lon="-0.6290200">
        <ele>653.4</ele>
        <time>2019-01-05T09:33:30Z</time>
      </trkpt>
      <trkpt lat="38.8882460" lon="-0.6291290">
        <ele>653.4</ele>
        <time>2019-01-05T09:33:36Z</time>
      </trkpt>
      <trkpt lat="38.8882220" lon="-0.6291930">
        <ele>653.8</ele>
        <time>2019-01-05T09:33:41Z</time>
      </trkpt>
      <trkpt lat="38.8882160" lon="-0.6292080">
        <ele>653.8</ele>
        <time>2019-01-05T09:33:42Z</time>
      </trkpt>
      <trkpt lat="38.8881860" lon="-0.6292340">
        <ele>653.8</ele>
        <time>2019-01-05T09:33:44Z</time>
      </trkpt>
      <trkpt lat="38.8881670" lon="-0.6292490">
        <ele>653.8</ele>
        <time>2019-01-05T09:33:45Z</time>
      </trkpt>
      <trkpt lat="38.8880680" lon="-0.6293270">
        <ele>653.8</ele>
        <time>2019-01-05T09:33:49Z</time>
      </trkpt>
      <trkpt lat="38.8880390" lon="-0.6293490">
        <ele>653.8</ele>
        <time>2019-01-05T09:33:50Z</time>
      </trkpt>
      <trkpt lat="38.8879160" lon="-0.6294700">
        <ele>653.6</ele>
        <time>2019-01-05T09:33:55Z</time>
      </trkpt>
      <trkpt lat="38.8878270" lon="-0.6296280">
        <ele>653.0</ele>
        <time>2019-01-05T09:34:00Z</time>
      </trkpt>
      <trkpt lat="38.8877620" lon="-0.6297690">
        <ele>653.2</ele>
        <time>2019-01-05T09:34:05Z</time>
      </trkpt>
      <trkpt lat="38.8877490" lon="-0.6297930">
        <ele>653.2</ele>
        <time>2019-01-05T09:34:06Z</time>
      </trkpt>
      <trkpt lat="38.8876690" lon="-0.6299620">
        <ele>653.8</ele>
        <time>2019-01-05T09:34:12Z</time>
      </trkpt>
      <trkpt lat="38.8876500" lon="-0.6300900">
        <ele>654.4</ele>
        <time>2019-01-05T09:34:16Z</time>
      </trkpt>
      <trkpt lat="38.8876310" lon="-0.6303180">
        <ele>655.0</ele>
        <time>2019-01-05T09:34:22Z</time>
      </trkpt>
      <trkpt lat="38.8875550" lon="-0.6305550">
        <ele>654.6</ele>
        <time>2019-01-05T09:34:28Z</time>
      </trkpt>
      <trkpt lat="38.8874500" lon="-0.6306690">
        <ele>654.8</ele>
        <time>2019-01-05T09:34:33Z</time>
      </trkpt>
      <trkpt lat="38.8872830" lon="-0.6307140">
        <ele>654.0</ele>
        <time>2019-01-05T09:34:39Z</time>
      </trkpt>
      <trkpt lat="38.8871990" lon="-0.6307210">
        <ele>653.2</ele>
        <time>2019-01-05T09:34:42Z</time>
      </trkpt>
      <trkpt lat="38.8870340" lon="-0.6307210">
        <ele>653.0</ele>
        <time>2019-01-05T09:34:48Z</time>
      </trkpt>
      <trkpt lat="38.8868540" lon="-0.6307160">
        <ele>653.0</ele>
        <time>2019-01-05T09:34:55Z</time>
      </trkpt>
      <trkpt lat="38.8867350" lon="-0.6307970">
        <ele>653.8</ele>
        <time>2019-01-05T09:35:01Z</time>
      </trkpt>
      <trkpt lat="38.8866220" lon="-0.6309900">
        <ele>654.0</ele>
        <time>2019-01-05T09:35:08Z</time>
      </trkpt>
      <trkpt lat="38.8866060" lon="-0.6310160">
        <ele>653.8</ele>
        <time>2019-01-05T09:35:09Z</time>
      </trkpt>
      <trkpt lat="38.8865750" lon="-0.6310630">
        <ele>654.4</ele>
        <time>2019-01-05T09:35:11Z</time>
      </trkpt>
      <trkpt lat="38.8865410" lon="-0.6311230">
        <ele>655.6</ele>
        <time>2019-01-05T09:35:14Z</time>
      </trkpt>
      <trkpt lat="38.8865310" lon="-0.6311380">
        <ele>656.0</ele>
        <time>2019-01-05T09:35:15Z</time>
      </trkpt>
      <trkpt lat="38.8865020" lon="-0.6312040">
        <ele>656.8</ele>
        <time>2019-01-05T09:35:20Z</time>
      </trkpt>
      <trkpt lat="38.8864970" lon="-0.6312200">
        <ele>656.8</ele>
        <time>2019-01-05T09:35:21Z</time>
      </trkpt>
      <trkpt lat="38.8864720" lon="-0.6312810">
        <ele>658.0</ele>
        <time>2019-01-05T09:35:25Z</time>
      </trkpt>
      <trkpt lat="38.8864700" lon="-0.6313080">
        <ele>658.6</ele>
        <time>2019-01-05T09:35:27Z</time>
      </trkpt>
      <trkpt lat="38.8864690" lon="-0.6313190">
        <ele>658.4</ele>
        <time>2019-01-05T09:35:28Z</time>
      </trkpt>
      <trkpt lat="38.8864660" lon="-0.6313350">
        <ele>658.2</ele>
        <time>2019-01-05T09:35:29Z</time>
      </trkpt>
      <trkpt lat="38.8864480" lon="-0.6314420">
        <ele>659.2</ele>
        <time>2019-01-05T09:35:35Z</time>
      </trkpt>
      <trkpt lat="38.8864360" lon="-0.6315050">
        <ele>660.2</ele>
        <time>2019-01-05T09:35:38Z</time>
      </trkpt>
      <trkpt lat="38.8864150" lon="-0.6315900">
        <ele>661.2</ele>
        <time>2019-01-05T09:35:42Z</time>
      </trkpt>
      <trkpt lat="38.8864070" lon="-0.6316160">
        <ele>661.4</ele>
        <time>2019-01-05T09:35:43Z</time>
      </trkpt>
      <trkpt lat="38.8863610" lon="-0.6317190">
        <ele>661.6</ele>
        <time>2019-01-05T09:35:48Z</time>
      </trkpt>
      <trkpt lat="38.8863060" lon="-0.6317740">
        <ele>661.8</ele>
        <time>2019-01-05T09:35:53Z</time>
      </trkpt>
      <trkpt lat="38.8862820" lon="-0.6317900">
        <ele>661.8</ele>
        <time>2019-01-05T09:35:55Z</time>
      </trkpt>
      <trkpt lat="38.8862080" lon="-0.6318550">
        <ele>661.0</ele>
        <time>2019-01-05T09:36:01Z</time>
      </trkpt>
      <trkpt lat="38.8861770" lon="-0.6318910">
        <ele>662.0</ele>
        <time>2019-01-05T09:36:04Z</time>
      </trkpt>
      <trkpt lat="38.8861680" lon="-0.6319050">
        <ele>662.6</ele>
        <time>2019-01-05T09:36:05Z</time>
      </trkpt>
      <trkpt lat="38.8861500" lon="-0.6319310">
        <ele>663.0</ele>
        <time>2019-01-05T09:36:07Z</time>
      </trkpt>
      <trkpt lat="38.8860700" lon="-0.6320630">
        <ele>663.2</ele>
        <time>2019-01-05T09:36:13Z</time>
      </trkpt>
      <trkpt lat="38.8860340" lon="-0.6321160">
        <ele>663.4</ele>
        <time>2019-01-05T09:36:15Z</time>
      </trkpt>
      <trkpt lat="38.8860160" lon="-0.6321440">
        <ele>664.0</ele>
        <time>2019-01-05T09:36:16Z</time>
      </trkpt>
      <trkpt lat="38.8859770" lon="-0.6322060">
        <ele>664.6</ele>
        <time>2019-01-05T09:36:18Z</time>
      </trkpt>
      <trkpt lat="38.8859450" lon="-0.6322690">
        <ele>665.0</ele>
        <time>2019-01-05T09:36:20Z</time>
      </trkpt>
      <trkpt lat="38.8858730" lon="-0.6324040">
        <ele>664.6</ele>
        <time>2019-01-05T09:36:25Z</time>
      </trkpt>
      <trkpt lat="38.8857670" lon="-0.6325790">
        <ele>664.2</ele>
        <time>2019-01-05T09:36:31Z</time>
      </trkpt>
      <trkpt lat="38.8857440" lon="-0.6326050">
        <ele>664.0</ele>
        <time>2019-01-05T09:36:32Z</time>
      </trkpt>
      <trkpt lat="38.8856220" lon="-0.6326990">
        <ele>663.2</ele>
        <time>2019-01-05T09:36:37Z</time>
      </trkpt>
      <trkpt lat="38.8854450" lon="-0.6327650">
        <ele>663.0</ele>
        <time>2019-01-05T09:36:43Z</time>
      </trkpt>
      <trkpt lat="38.8854180" lon="-0.6327760">
        <ele>662.8</ele>
        <time>2019-01-05T09:36:44Z</time>
      </trkpt>
      <trkpt lat="38.8853150" lon="-0.6328470">
        <ele>662.2</ele>
        <time>2019-01-05T09:36:48Z</time>
      </trkpt>
      <trkpt lat="38.8852470" lon="-0.6329930">
        <ele>662.8</ele>
        <time>2019-01-05T09:36:54Z</time>
      </trkpt>
      <trkpt lat="38.8852460" lon="-0.6331110">
        <ele>663.8</ele>
        <time>2019-01-05T09:36:58Z</time>
      </trkpt>
      <trkpt lat="38.8852500" lon="-0.6331950">
        <ele>664.8</ele>
        <time>2019-01-05T09:37:01Z</time>
      </trkpt>
      <trkpt lat="38.8852500" lon="-0.6332200">
        <ele>665.0</ele>
        <time>2019-01-05T09:37:02Z</time>
      </trkpt>
      <trkpt lat="38.8852030" lon="-0.6333650">
        <ele>665.8</ele>
        <time>2019-01-05T09:37:07Z</time>
      </trkpt>
      <trkpt lat="38.8851870" lon="-0.6333930">
        <ele>665.8</ele>
        <time>2019-01-05T09:37:08Z</time>
      </trkpt>
      <trkpt lat="38.8851640" lon="-0.6334490">
        <ele>666.0</ele>
        <time>2019-01-05T09:37:10Z</time>
      </trkpt>
      <trkpt lat="38.8851530" lon="-0.6335400">
        <ele>666.2</ele>
        <time>2019-01-05T09:37:13Z</time>
      </trkpt>
      <trkpt lat="38.8851750" lon="-0.6336440">
        <ele>667.0</ele>
        <time>2019-01-05T09:37:16Z</time>
      </trkpt>
      <trkpt lat="38.8852070" lon="-0.6337030">
        <ele>667.0</ele>
        <time>2019-01-05T09:37:18Z</time>
      </trkpt>
      <trkpt lat="38.8852810" lon="-0.6338360">
        <ele>667.2</ele>
        <time>2019-01-05T09:37:23Z</time>
      </trkpt>
      <trkpt lat="38.8852980" lon="-0.6339020">
        <ele>668.0</ele>
        <time>2019-01-05T09:37:25Z</time>
      </trkpt>
      <trkpt lat="38.8853010" lon="-0.6339350">
        <ele>668.0</ele>
        <time>2019-01-05T09:37:26Z</time>
      </trkpt>
      <trkpt lat="38.8852950" lon="-0.6339990">
        <ele>667.8</ele>
        <time>2019-01-05T09:37:28Z</time>
      </trkpt>
      <trkpt lat="38.8852600" lon="-0.6341200">
        <ele>668.2</ele>
        <time>2019-01-05T09:37:34Z</time>
      </trkpt>
      <trkpt lat="38.8852370" lon="-0.6341650">
        <ele>669.4</ele>
        <time>2019-01-05T09:37:37Z</time>
      </trkpt>
      <trkpt lat="38.8851940" lon="-0.6342310">
        <ele>670.0</ele>
        <time>2019-01-05T09:37:42Z</time>
      </trkpt>
      <trkpt lat="38.8851310" lon="-0.6343010">
        <ele>670.4</ele>
        <time>2019-01-05T09:37:48Z</time>
      </trkpt>
      <trkpt lat="38.8850630" lon="-0.6343790">
        <ele>671.6</ele>
        <time>2019-01-05T09:37:54Z</time>
      </trkpt>
      <trkpt lat="38.8850500" lon="-0.6343920">
        <ele>671.8</ele>
        <time>2019-01-05T09:37:55Z</time>
      </trkpt>
      <trkpt lat="38.8849460" lon="-0.6345050">
        <ele>672.4</ele>
        <time>2019-01-05T09:38:04Z</time>
      </trkpt>
      <trkpt lat="38.8848900" lon="-0.6345590">
        <ele>672.6</ele>
        <time>2019-01-05T09:38:09Z</time>
      </trkpt>
      <trkpt lat="38.8848720" lon="-0.6345850">
        <ele>673.0</ele>
        <time>2019-01-05T09:38:11Z</time>
      </trkpt>
      <trkpt lat="38.8848200" lon="-0.6346110">
        <ele>673.2</ele>
        <time>2019-01-05T09:38:14Z</time>
      </trkpt>
      <trkpt lat="38.8847700" lon="-0.6346330">
        <ele>673.2</ele>
        <time>2019-01-05T09:38:16Z</time>
      </trkpt>
      <trkpt lat="38.8846630" lon="-0.6347030">
        <ele>673.0</ele>
        <time>2019-01-05T09:38:20Z</time>
      </trkpt>
      <trkpt lat="38.8845990" lon="-0.6347690">
        <ele>672.8</ele>
        <time>2019-01-05T09:38:23Z</time>
      </trkpt>
      <trkpt lat="38.8845510" lon="-0.6348070">
        <ele>672.8</ele>
        <time>2019-01-05T09:38:25Z</time>
      </trkpt>
      <trkpt lat="38.8844810" lon="-0.6348640">
        <ele>673.4</ele>
        <time>2019-01-05T09:38:28Z</time>
      </trkpt>
      <trkpt lat="38.8844370" lon="-0.6348970">
        <ele>673.6</ele>
        <time>2019-01-05T09:38:30Z</time>
      </trkpt>
      <trkpt lat="38.8844140" lon="-0.6349150">
        <ele>673.8</ele>
        <time>2019-01-05T09:38:31Z</time>
      </trkpt>
      <trkpt lat="38.8843670" lon="-0.6349520">
        <ele>674.0</ele>
        <time>2019-01-05T09:38:33Z</time>
      </trkpt>
      <trkpt lat="38.8842930" lon="-0.6350020">
        <ele>674.2</ele>
        <time>2019-01-05T09:38:36Z</time>
      </trkpt>
      <trkpt lat="38.8841550" lon="-0.6350770">
        <ele>674.4</ele>
        <time>2019-01-05T09:38:42Z</time>
      </trkpt>
      <trkpt lat="38.8841100" lon="-0.6351010">
        <ele>674.8</ele>
        <time>2019-01-05T09:38:44Z</time>
      </trkpt>
      <trkpt lat="38.8840510" lon="-0.6351460">
        <ele>675.2</ele>
        <time>2019-01-05T09:38:47Z</time>
      </trkpt>
      <trkpt lat="38.8840290" lon="-0.6351620">
        <ele>675.2</ele>
        <time>2019-01-05T09:38:48Z</time>
      </trkpt>
      <trkpt lat="38.8839950" lon="-0.6352060">
        <ele>676.0</ele>
        <time>2019-01-05T09:38:50Z</time>
      </trkpt>
      <trkpt lat="38.8839330" lon="-0.6353110">
        <ele>676.4</ele>
        <time>2019-01-05T09:38:54Z</time>
      </trkpt>
      <trkpt lat="38.8838780" lon="-0.6354540">
        <ele>676.4</ele>
        <time>2019-01-05T09:38:59Z</time>
      </trkpt>
      <trkpt lat="38.8838570" lon="-0.6355320">
        <ele>677.2</ele>
        <time>2019-01-05T09:39:02Z</time>
      </trkpt>
      <trkpt lat="38.8838420" lon="-0.6356080">
        <ele>678.0</ele>
        <time>2019-01-05T09:39:05Z</time>
      </trkpt>
      <trkpt lat="38.8838190" lon="-0.6356820">
        <ele>678.2</ele>
        <time>2019-01-05T09:39:08Z</time>
      </trkpt>
      <trkpt lat="38.8837640" lon="-0.6357770">
        <ele>678.6</ele>
        <time>2019-01-05T09:39:12Z</time>
      </trkpt>
      <trkpt lat="38.8836590" lon="-0.6359440">
        <ele>678.8</ele>
        <time>2019-01-05T09:39:19Z</time>
      </trkpt>
      <trkpt lat="38.8835750" lon="-0.6360900">
        <ele>678.0</ele>
        <time>2019-01-05T09:39:25Z</time>
      </trkpt>
      <trkpt lat="38.8835270" lon="-0.6361650">
        <ele>677.2</ele>
        <time>2019-01-05T09:39:28Z</time>
      </trkpt>
      <trkpt lat="38.8835000" lon="-0.6362210">
        <ele>676.6</ele>
        <time>2019-01-05T09:39:30Z</time>
      </trkpt>
      <trkpt lat="38.8834910" lon="-0.6362550">
        <ele>676.0</ele>
        <time>2019-01-05T09:39:31Z</time>
      </trkpt>
      <trkpt lat="38.8834780" lon="-0.6362830">
        <ele>675.8</ele>
        <time>2019-01-05T09:39:32Z</time>
      </trkpt>
      <trkpt lat="38.8834000" lon="-0.6363750">
        <ele>675.0</ele>
        <time>2019-01-05T09:39:36Z</time>
      </trkpt>
      <trkpt lat="38.8833540" lon="-0.6364010">
        <ele>674.6</ele>
        <time>2019-01-05T09:39:38Z</time>
      </trkpt>
      <trkpt lat="38.8832470" lon="-0.6364700">
        <ele>674.2</ele>
        <time>2019-01-05T09:39:43Z</time>
      </trkpt>
      <trkpt lat="38.8831780" lon="-0.6366120">
        <ele>674.4</ele>
        <time>2019-01-05T09:39:49Z</time>
      </trkpt>
      <trkpt lat="38.8831880" lon="-0.6366990">
        <ele>674.6</ele>
        <time>2019-01-05T09:39:52Z</time>
      </trkpt>
      <trkpt lat="38.8832020" lon="-0.6367560">
        <ele>674.6</ele>
        <time>2019-01-05T09:39:54Z</time>
      </trkpt>
      <trkpt lat="38.8832230" lon="-0.6368410">
        <ele>674.0</ele>
        <time>2019-01-05T09:39:57Z</time>
      </trkpt>
      <trkpt lat="38.8832380" lon="-0.6369320">
        <ele>673.4</ele>
        <time>2019-01-05T09:40:00Z</time>
      </trkpt>
      <trkpt lat="38.8832440" lon="-0.6369620">
        <ele>673.4</ele>
        <time>2019-01-05T09:40:01Z</time>
      </trkpt>
      <trkpt lat="38.8832600" lon="-0.6371440">
        <ele>673.0</ele>
        <time>2019-01-05T09:40:06Z</time>
      </trkpt>
      <trkpt lat="38.8832780" lon="-0.6372790">
        <ele>672.6</ele>
        <time>2019-01-05T09:40:10Z</time>
      </trkpt>
      <trkpt lat="38.8832850" lon="-0.6373510">
        <ele>671.6</ele>
        <time>2019-01-05T09:40:12Z</time>
      </trkpt>
      <trkpt lat="38.8833190" lon="-0.6375250">
        <ele>670.6</ele>
        <time>2019-01-05T09:40:17Z</time>
      </trkpt>
      <trkpt lat="38.8833260" lon="-0.6375600">
        <ele>670.4</ele>
        <time>2019-01-05T09:40:18Z</time>
      </trkpt>
      <trkpt lat="38.8833340" lon="-0.6377080">
        <ele>669.0</ele>
        <time>2019-01-05T09:40:22Z</time>
      </trkpt>
      <trkpt lat="38.8833310" lon="-0.6377400">
        <ele>668.8</ele>
        <time>2019-01-05T09:40:23Z</time>
      </trkpt>
      <trkpt lat="38.8833070" lon="-0.6378240">
        <ele>668.0</ele>
        <time>2019-01-05T09:40:26Z</time>
      </trkpt>
      <trkpt lat="38.8832680" lon="-0.6378980">
        <ele>667.6</ele>
        <time>2019-01-05T09:40:29Z</time>
      </trkpt>
      <trkpt lat="38.8832030" lon="-0.6379960">
        <ele>666.8</ele>
        <time>2019-01-05T09:40:33Z</time>
      </trkpt>
      <trkpt lat="38.8831400" lon="-0.6380640">
        <ele>666.2</ele>
        <time>2019-01-05T09:40:36Z</time>
      </trkpt>
      <trkpt lat="38.8831170" lon="-0.6380900">
        <ele>665.8</ele>
        <time>2019-01-05T09:40:37Z</time>
      </trkpt>
      <trkpt lat="38.8830240" lon="-0.6382270">
        <ele>665.0</ele>
        <time>2019-01-05T09:40:42Z</time>
      </trkpt>
      <trkpt lat="38.8830050" lon="-0.6382540">
        <ele>664.6</ele>
        <time>2019-01-05T09:40:43Z</time>
      </trkpt>
      <trkpt lat="38.8829340" lon="-0.6383580">
        <ele>664.0</ele>
        <time>2019-01-05T09:40:47Z</time>
      </trkpt>
      <trkpt lat="38.8829000" lon="-0.6384080">
        <ele>663.6</ele>
        <time>2019-01-05T09:40:49Z</time>
      </trkpt>
      <trkpt lat="38.8827810" lon="-0.6385810">
        <ele>663.2</ele>
        <time>2019-01-05T09:40:56Z</time>
      </trkpt>
      <trkpt lat="38.8827460" lon="-0.6386210">
        <ele>662.6</ele>
        <time>2019-01-05T09:40:58Z</time>
      </trkpt>
      <trkpt lat="38.8826600" lon="-0.6387040">
        <ele>661.6</ele>
        <time>2019-01-05T09:41:02Z</time>
      </trkpt>
      <trkpt lat="38.8826390" lon="-0.6387260">
        <ele>661.6</ele>
        <time>2019-01-05T09:41:03Z</time>
      </trkpt>
      <trkpt lat="38.8825750" lon="-0.6388530">
        <ele>661.2</ele>
        <time>2019-01-05T09:41:08Z</time>
      </trkpt>
      <trkpt lat="38.8825700" lon="-0.6389870">
        <ele>661.6</ele>
        <time>2019-01-05T09:41:13Z</time>
      </trkpt>
      <trkpt lat="38.8825900" lon="-0.6391480">
        <ele>661.8</ele>
        <time>2019-01-05T09:41:18Z</time>
      </trkpt>
      <trkpt lat="38.8826230" lon="-0.6393640">
        <ele>661.6</ele>
        <time>2019-01-05T09:41:24Z</time>
      </trkpt>
      <trkpt lat="38.8826050" lon="-0.6395480">
        <ele>660.6</ele>
        <time>2019-01-05T09:41:29Z</time>
      </trkpt>
      <trkpt lat="38.8825470" lon="-0.6397570">
        <ele>661.4</ele>
        <time>2019-01-05T09:41:35Z</time>
      </trkpt>
      <trkpt lat="38.8824660" lon="-0.6399150">
        <ele>662.0</ele>
        <time>2019-01-05T09:41:41Z</time>
      </trkpt>
      <trkpt lat="38.8824320" lon="-0.6399580">
        <ele>662.8</ele>
        <time>2019-01-05T09:41:43Z</time>
      </trkpt>
      <trkpt lat="38.8823830" lon="-0.6400170">
        <ele>663.2</ele>
        <time>2019-01-05T09:41:46Z</time>
      </trkpt>
      <trkpt lat="38.8822660" lon="-0.6401270">
        <ele>663.2</ele>
        <time>2019-01-05T09:41:52Z</time>
      </trkpt>
      <trkpt lat="38.8821710" lon="-0.6402890">
        <ele>663.4</ele>
        <time>2019-01-05T09:41:58Z</time>
      </trkpt>
      <trkpt lat="38.8821900" lon="-0.6403880">
        <ele>663.0</ele>
        <time>2019-01-05T09:42:01Z</time>
      </trkpt>
      <trkpt lat="38.8822060" lon="-0.6404150">
        <ele>663.0</ele>
        <time>2019-01-05T09:42:02Z</time>
      </trkpt>
      <trkpt lat="38.8822790" lon="-0.6404480">
        <ele>662.8</ele>
        <time>2019-01-05T09:42:06Z</time>
      </trkpt>
      <trkpt lat="38.8823740" lon="-0.6404470">
        <ele>662.8</ele>
        <time>2019-01-05T09:42:10Z</time>
      </trkpt>
      <trkpt lat="38.8824890" lon="-0.6404230">
        <ele>663.4</ele>
        <time>2019-01-05T09:42:15Z</time>
      </trkpt>
      <trkpt lat="38.8825370" lon="-0.6404200">
        <ele>663.8</ele>
        <time>2019-01-05T09:42:17Z</time>
      </trkpt>
      <trkpt lat="38.8825790" lon="-0.6404140">
        <ele>664.4</ele>
        <time>2019-01-05T09:42:19Z</time>
      </trkpt>
      <trkpt lat="38.8826120" lon="-0.6404060">
        <ele>665.2</ele>
        <time>2019-01-05T09:42:21Z</time>
      </trkpt>
      <trkpt lat="38.8826670" lon="-0.6403770">
        <ele>666.4</ele>
        <time>2019-01-05T09:42:25Z</time>
      </trkpt>
      <trkpt lat="38.8827580" lon="-0.6403260">
        <ele>667.8</ele>
        <time>2019-01-05T09:42:32Z</time>
      </trkpt>
      <trkpt lat="38.8827800" lon="-0.6403220">
        <ele>668.6</ele>
        <time>2019-01-05T09:42:34Z</time>
      </trkpt>
      <trkpt lat="38.8828010" lon="-0.6403170">
        <ele>669.0</ele>
        <time>2019-01-05T09:42:36Z</time>
      </trkpt>
      <trkpt lat="38.8828270" lon="-0.6403120">
        <ele>669.0</ele>
        <time>2019-01-05T09:42:38Z</time>
      </trkpt>
      <trkpt lat="38.8828640" lon="-0.6403040">
        <ele>668.6</ele>
        <time>2019-01-05T09:42:41Z</time>
      </trkpt>
      <trkpt lat="38.8828830" lon="-0.6402980">
        <ele>668.4</ele>
        <time>2019-01-05T09:42:43Z</time>
      </trkpt>
      <trkpt lat="38.8828980" lon="-0.6402980">
        <ele>668.4</ele>
        <time>2019-01-05T09:42:44Z</time>
      </trkpt>
      <trkpt lat="38.8829670" lon="-0.6403120">
        <ele>670.0</ele>
        <time>2019-01-05T09:42:49Z</time>
      </trkpt>
      <trkpt lat="38.8830230" lon="-0.6403530">
        <ele>670.0</ele>
        <time>2019-01-05T09:42:54Z</time>
      </trkpt>
      <trkpt lat="38.8830390" lon="-0.6403810">
        <ele>670.2</ele>
        <time>2019-01-05T09:42:56Z</time>
      </trkpt>
      <trkpt lat="38.8830550" lon="-0.6404170">
        <ele>670.2</ele>
        <time>2019-01-05T09:42:58Z</time>
      </trkpt>
      <trkpt lat="38.8830640" lon="-0.6404640">
        <ele>670.4</ele>
        <time>2019-01-05T09:43:00Z</time>
      </trkpt>
      <trkpt lat="38.8830540" lon="-0.6405790">
        <ele>670.2</ele>
        <time>2019-01-05T09:43:06Z</time>
      </trkpt>
      <trkpt lat="38.8830450" lon="-0.6406090">
        <ele>670.0</ele>
        <time>2019-01-05T09:43:09Z</time>
      </trkpt>
      <trkpt lat="38.8830290" lon="-0.6406610">
        <ele>671.2</ele>
        <time>2019-01-05T09:43:13Z</time>
      </trkpt>
      <trkpt lat="38.8830260" lon="-0.6406760">
        <ele>671.6</ele>
        <time>2019-01-05T09:43:14Z</time>
      </trkpt>
      <trkpt lat="38.8830220" lon="-0.6407070">
        <ele>672.4</ele>
        <time>2019-01-05T09:43:16Z</time>
      </trkpt>
      <trkpt lat="38.8830250" lon="-0.6407500">
        <ele>672.6</ele>
        <time>2019-01-05T09:43:19Z</time>
      </trkpt>
      <trkpt lat="38.8830260" lon="-0.6407860">
        <ele>673.4</ele>
        <time>2019-01-05T09:43:22Z</time>
      </trkpt>
      <trkpt lat="38.8830220" lon="-0.6408280">
        <ele>674.2</ele>
        <time>2019-01-05T09:43:24Z</time>
      </trkpt>
      <trkpt lat="38.8830220" lon="-0.6408540">
        <ele>674.6</ele>
        <time>2019-01-05T09:43:25Z</time>
      </trkpt>
      <trkpt lat="38.8830170" lon="-0.6409870">
        <ele>674.6</ele>
        <time>2019-01-05T09:43:30Z</time>
      </trkpt>
      <trkpt lat="38.8830230" lon="-0.6411170">
        <ele>675.6</ele>
        <time>2019-01-05T09:43:36Z</time>
      </trkpt>
      <trkpt lat="38.8830250" lon="-0.6411310">
        <ele>676.2</ele>
        <time>2019-01-05T09:43:37Z</time>
      </trkpt>
      <trkpt lat="38.8830280" lon="-0.6411440">
        <ele>676.8</ele>
        <time>2019-01-05T09:43:38Z</time>
      </trkpt>
      <trkpt lat="38.8830580" lon="-0.6412030">
        <ele>676.8</ele>
        <time>2019-01-05T09:43:43Z</time>
      </trkpt>
      <trkpt lat="38.8830680" lon="-0.6412110">
        <ele>676.8</ele>
        <time>2019-01-05T09:43:44Z</time>
      </trkpt>
      <trkpt lat="38.8831070" lon="-0.6412840">
        <ele>676.4</ele>
        <time>2019-01-05T09:43:50Z</time>
      </trkpt>
      <trkpt lat="38.8831180" lon="-0.6413220">
        <ele>676.8</ele>
        <time>2019-01-05T09:43:53Z</time>
      </trkpt>
      <trkpt lat="38.8831380" lon="-0.6413760">
        <ele>677.6</ele>
        <time>2019-01-05T09:43:56Z</time>
      </trkpt>
      <trkpt lat="38.8831430" lon="-0.6413970">
        <ele>678.2</ele>
        <time>2019-01-05T09:43:57Z</time>
      </trkpt>
      <trkpt lat="38.8831440" lon="-0.6414540">
        <ele>679.4</ele>
        <time>2019-01-05T09:44:00Z</time>
      </trkpt>
      <trkpt lat="38.8831480" lon="-0.6414700">
        <ele>679.8</ele>
        <time>2019-01-05T09:44:01Z</time>
      </trkpt>
      <trkpt lat="38.8831580" lon="-0.6415300">
        <ele>680.2</ele>
        <time>2019-01-05T09:44:06Z</time>
      </trkpt>
      <trkpt lat="38.8831690" lon="-0.6415510">
        <ele>680.0</ele>
        <time>2019-01-05T09:44:08Z</time>
      </trkpt>
      <trkpt lat="38.8831860" lon="-0.6416120">
        <ele>680.4</ele>
        <time>2019-01-05T09:44:12Z</time>
      </trkpt>
      <trkpt lat="38.8831920" lon="-0.6416250">
        <ele>680.8</ele>
        <time>2019-01-05T09:44:13Z</time>
      </trkpt>
      <trkpt lat="38.8832080" lon="-0.6416380">
        <ele>681.4</ele>
        <time>2019-01-05T09:44:14Z</time>
      </trkpt>
      <trkpt lat="38.8832200" lon="-0.6416610">
        <ele>681.8</ele>
        <time>2019-01-05T09:44:16Z</time>
      </trkpt>
      <trkpt lat="38.8832190" lon="-0.6416750">
        <ele>682.0</ele>
        <time>2019-01-05T09:44:17Z</time>
      </trkpt>
      <trkpt lat="38.8832220" lon="-0.6417050">
        <ele>682.6</ele>
        <time>2019-01-05T09:44:19Z</time>
      </trkpt>
      <trkpt lat="38.8832240" lon="-0.6417210">
        <ele>682.8</ele>
        <time>2019-01-05T09:44:20Z</time>
      </trkpt>
      <trkpt lat="38.8832390" lon="-0.6417810">
        <ele>683.2</ele>
        <time>2019-01-05T09:44:25Z</time>
      </trkpt>
      <trkpt lat="38.8832540" lon="-0.6418660">
        <ele>683.6</ele>
        <time>2019-01-05T09:44:30Z</time>
      </trkpt>
      <trkpt lat="38.8832550" lon="-0.6418850">
        <ele>684.0</ele>
        <time>2019-01-05T09:44:31Z</time>
      </trkpt>
      <trkpt lat="38.8832560" lon="-0.6419210">
        <ele>684.4</ele>
        <time>2019-01-05T09:44:33Z</time>
      </trkpt>
      <trkpt lat="38.8832560" lon="-0.6419470">
        <ele>684.4</ele>
        <time>2019-01-05T09:44:34Z</time>
      </trkpt>
      <trkpt lat="38.8832680" lon="-0.6420140">
        <ele>685.4</ele>
        <time>2019-01-05T09:44:37Z</time>
      </trkpt>
      <trkpt lat="38.8832860" lon="-0.6420600">
        <ele>686.6</ele>
        <time>2019-01-05T09:44:40Z</time>
      </trkpt>
      <trkpt lat="38.8832910" lon="-0.6420730">
        <ele>686.8</ele>
        <time>2019-01-05T09:44:41Z</time>
      </trkpt>
      <trkpt lat="38.8833040" lon="-0.6420900">
        <ele>686.6</ele>
        <time>2019-01-05T09:44:43Z</time>
      </trkpt>
      <trkpt lat="38.8833200" lon="-0.6421150">
        <ele>686.6</ele>
        <time>2019-01-05T09:44:45Z</time>
      </trkpt>
      <trkpt lat="38.8833720" lon="-0.6421750">
        <ele>687.0</ele>
        <time>2019-01-05T09:44:50Z</time>
      </trkpt>
      <trkpt lat="38.8833850" lon="-0.6422140">
        <ele>687.8</ele>
        <time>2019-01-05T09:44:52Z</time>
      </trkpt>
      <trkpt lat="38.8834100" lon="-0.6423130">
        <ele>688.8</ele>
        <time>2019-01-05T09:44:57Z</time>
      </trkpt>
      <trkpt lat="38.8834330" lon="-0.6424300">
        <ele>689.8</ele>
        <time>2019-01-05T09:45:03Z</time>
      </trkpt>
      <trkpt lat="38.8834280" lon="-0.6425210">
        <ele>690.0</ele>
        <time>2019-01-05T09:45:09Z</time>
      </trkpt>
      <trkpt lat="38.8834240" lon="-0.6425760">
        <ele>689.8</ele>
        <time>2019-01-05T09:45:14Z</time>
      </trkpt>
      <trkpt lat="38.8834220" lon="-0.6425790">
        <ele>689.8</ele>
        <time>2019-01-05T09:45:15Z</time>
      </trkpt>
      <trkpt lat="38.8834140" lon="-0.6426090">
        <ele>688.2</ele>
        <time>2019-01-05T09:45:18Z</time>
      </trkpt>
      <trkpt lat="38.8834060" lon="-0.6426360">
        <ele>688.6</ele>
        <time>2019-01-05T09:45:21Z</time>
      </trkpt>
      <trkpt lat="38.8833970" lon="-0.6426440">
        <ele>688.8</ele>
        <time>2019-01-05T09:45:26Z</time>
      </trkpt>
      <trkpt lat="38.8833940" lon="-0.6426460">
        <ele>688.4</ele>
        <time>2019-01-05T09:45:28Z</time>
      </trkpt>
      <trkpt lat="38.8833920" lon="-0.6426450">
        <ele>688.4</ele>
        <time>2019-01-05T09:45:29Z</time>
      </trkpt>
      <trkpt lat="38.8833820" lon="-0.6426520">
        <ele>688.8</ele>
        <time>2019-01-05T09:45:34Z</time>
      </trkpt>
      <trkpt lat="38.8833470" lon="-0.6427180">
        <ele>688.2</ele>
        <time>2019-01-05T09:45:41Z</time>
      </trkpt>
      <trkpt lat="38.8833280" lon="-0.6427400">
        <ele>688.0</ele>
        <time>2019-01-05T09:45:43Z</time>
      </trkpt>
      <trkpt lat="38.8833120" lon="-0.6427750">
        <ele>687.8</ele>
        <time>2019-01-05T09:45:46Z</time>
      </trkpt>
      <trkpt lat="38.8833090" lon="-0.6427860">
        <ele>687.2</ele>
        <time>2019-01-05T09:45:47Z</time>
      </trkpt>
      <trkpt lat="38.8833070" lon="-0.6428080">
        <ele>686.2</ele>
        <time>2019-01-05T09:45:49Z</time>
      </trkpt>
      <trkpt lat="38.8833100" lon="-0.6428270">
        <ele>686.0</ele>
        <time>2019-01-05T09:45:51Z</time>
      </trkpt>
      <trkpt lat="38.8833110" lon="-0.6428700">
        <ele>685.4</ele>
        <time>2019-01-05T09:45:54Z</time>
      </trkpt>
      <trkpt lat="38.8832840" lon="-0.6429380">
        <ele>685.4</ele>
        <time>2019-01-05T09:45:57Z</time>
      </trkpt>
      <trkpt lat="38.8832480" lon="-0.6430000">
        <ele>685.2</ele>
        <time>2019-01-05T09:45:59Z</time>
      </trkpt>
      <trkpt lat="38.8832280" lon="-0.6430290">
        <ele>684.6</ele>
        <time>2019-01-05T09:46:00Z</time>
      </trkpt>
      <trkpt lat="38.8832100" lon="-0.6430580">
        <ele>683.8</ele>
        <time>2019-01-05T09:46:01Z</time>
      </trkpt>
      <trkpt lat="38.8831910" lon="-0.6430820">
        <ele>682.8</ele>
        <time>2019-01-05T09:46:02Z</time>
      </trkpt>
      <trkpt lat="38.8831730" lon="-0.6431010">
        <ele>682.2</ele>
        <time>2019-01-05T09:46:03Z</time>
      </trkpt>
      <trkpt lat="38.8831290" lon="-0.6431320">
        <ele>680.8</ele>
        <time>2019-01-05T09:46:05Z</time>
      </trkpt>
      <trkpt lat="38.8830820" lon="-0.6431690">
        <ele>680.4</ele>
        <time>2019-01-05T09:46:07Z</time>
      </trkpt>
      <trkpt lat="38.8830150" lon="-0.6432860">
        <ele>680.8</ele>
        <time>2019-01-05T09:46:12Z</time>
      </trkpt>
      <trkpt lat="38.8829980" lon="-0.6433330">
        <ele>681.0</ele>
        <time>2019-01-05T09:46:14Z</time>
      </trkpt>
      <trkpt lat="38.8829800" lon="-0.6433960">
        <ele>679.8</ele>
        <time>2019-01-05T09:46:17Z</time>
      </trkpt>
      <trkpt lat="38.8829710" lon="-0.6434260">
        <ele>679.0</ele>
        <time>2019-01-05T09:46:18Z</time>
      </trkpt>
      <trkpt lat="38.8829640" lon="-0.6434590">
        <ele>678.6</ele>
        <time>2019-01-05T09:46:19Z</time>
      </trkpt>
      <trkpt lat="38.8829570" lon="-0.6435330">
        <ele>678.0</ele>
        <time>2019-01-05T09:46:21Z</time>
      </trkpt>
      <trkpt lat="38.8829500" lon="-0.6436160">
        <ele>677.6</ele>
        <time>2019-01-05T09:46:23Z</time>
      </trkpt>
      <trkpt lat="38.8829460" lon="-0.6436580">
        <ele>677.0</ele>
        <time>2019-01-05T09:46:24Z</time>
      </trkpt>
      <trkpt lat="38.8829400" lon="-0.6436940">
        <ele>676.4</ele>
        <time>2019-01-05T09:46:25Z</time>
      </trkpt>
      <trkpt lat="38.8829380" lon="-0.6437240">
        <ele>675.8</ele>
        <time>2019-01-05T09:46:26Z</time>
      </trkpt>
      <trkpt lat="38.8829390" lon="-0.6437820">
        <ele>675.0</ele>
        <time>2019-01-05T09:46:28Z</time>
      </trkpt>
      <trkpt lat="38.8829380" lon="-0.6438120">
        <ele>674.6</ele>
        <time>2019-01-05T09:46:29Z</time>
      </trkpt>
      <trkpt lat="38.8829400" lon="-0.6438700">
        <ele>674.0</ele>
        <time>2019-01-05T09:46:31Z</time>
      </trkpt>
      <trkpt lat="38.8829370" lon="-0.6439070">
        <ele>673.8</ele>
        <time>2019-01-05T09:46:32Z</time>
      </trkpt>
      <trkpt lat="38.8829250" lon="-0.6440180">
        <ele>672.8</ele>
        <time>2019-01-05T09:46:35Z</time>
      </trkpt>
      <trkpt lat="38.8829020" lon="-0.6441260">
        <ele>671.6</ele>
        <time>2019-01-05T09:46:38Z</time>
      </trkpt>
      <trkpt lat="38.8828770" lon="-0.6442320">
        <ele>670.6</ele>
        <time>2019-01-05T09:46:41Z</time>
      </trkpt>
      <trkpt lat="38.8828580" lon="-0.6443440">
        <ele>670.0</ele>
        <time>2019-01-05T09:46:44Z</time>
      </trkpt>
      <trkpt lat="38.8828260" lon="-0.6445200">
        <ele>669.6</ele>
        <time>2019-01-05T09:46:49Z</time>
      </trkpt>
      <trkpt lat="38.8828190" lon="-0.6445570">
        <ele>669.4</ele>
        <time>2019-01-05T09:46:50Z</time>
      </trkpt>
      <trkpt lat="38.8828100" lon="-0.6446310">
        <ele>668.2</ele>
        <time>2019-01-05T09:46:52Z</time>
      </trkpt>
      <trkpt lat="38.8827980" lon="-0.6447210">
        <ele>667.0</ele>
        <time>2019-01-05T09:46:54Z</time>
      </trkpt>
      <trkpt lat="38.8827910" lon="-0.6447590">
        <ele>666.6</ele>
        <time>2019-01-05T09:46:55Z</time>
      </trkpt>
      <trkpt lat="38.8827480" lon="-0.6449590">
        <ele>667.2</ele>
        <time>2019-01-05T09:47:01Z</time>
      </trkpt>
      <trkpt lat="38.8827070" lon="-0.6451100">
        <ele>665.8</ele>
        <time>2019-01-05T09:47:05Z</time>
      </trkpt>
      <trkpt lat="38.8826910" lon="-0.6451840">
        <ele>665.0</ele>
        <time>2019-01-05T09:47:07Z</time>
      </trkpt>
      <trkpt lat="38.8826830" lon="-0.6452200">
        <ele>664.8</ele>
        <time>2019-01-05T09:47:08Z</time>
      </trkpt>
      <trkpt lat="38.8826480" lon="-0.6453340">
        <ele>664.4</ele>
        <time>2019-01-05T09:47:11Z</time>
      </trkpt>
      <trkpt lat="38.8826180" lon="-0.6454590">
        <ele>663.8</ele>
        <time>2019-01-05T09:47:15Z</time>
      </trkpt>
      <trkpt lat="38.8826090" lon="-0.6454950">
        <ele>663.6</ele>
        <time>2019-01-05T09:47:16Z</time>
      </trkpt>
      <trkpt lat="38.8825420" lon="-0.6457130">
        <ele>663.0</ele>
        <time>2019-01-05T09:47:21Z</time>
      </trkpt>
      <trkpt lat="38.8825230" lon="-0.6458090">
        <ele>662.6</ele>
        <time>2019-01-05T09:47:23Z</time>
      </trkpt>
      <trkpt lat="38.8825140" lon="-0.6459020">
        <ele>662.2</ele>
        <time>2019-01-05T09:47:25Z</time>
      </trkpt>
      <trkpt lat="38.8824850" lon="-0.6460540">
        <ele>661.4</ele>
        <time>2019-01-05T09:47:29Z</time>
      </trkpt>
      <trkpt lat="38.8824830" lon="-0.6460890">
        <ele>660.8</ele>
        <time>2019-01-05T09:47:30Z</time>
      </trkpt>
      <trkpt lat="38.8824840" lon="-0.6461210">
        <ele>660.0</ele>
        <time>2019-01-05T09:47:31Z</time>
      </trkpt>
      <trkpt lat="38.8824750" lon="-0.6461800">
        <ele>659.0</ele>
        <time>2019-01-05T09:47:33Z</time>
      </trkpt>
      <trkpt lat="38.8824640" lon="-0.6462470">
        <ele>657.8</ele>
        <time>2019-01-05T09:47:35Z</time>
      </trkpt>
      <trkpt lat="38.8824570" lon="-0.6462860">
        <ele>657.4</ele>
        <time>2019-01-05T09:47:36Z</time>
      </trkpt>
      <trkpt lat="38.8824430" lon="-0.6463710">
        <ele>656.4</ele>
        <time>2019-01-05T09:47:38Z</time>
      </trkpt>
      <trkpt lat="38.8824340" lon="-0.6464490">
        <ele>656.0</ele>
        <time>2019-01-05T09:47:40Z</time>
      </trkpt>
      <trkpt lat="38.8824210" lon="-0.6465250">
        <ele>655.4</ele>
        <time>2019-01-05T09:47:42Z</time>
      </trkpt>
      <trkpt lat="38.8824120" lon="-0.6465960">
        <ele>654.0</ele>
        <time>2019-01-05T09:47:44Z</time>
      </trkpt>
      <trkpt lat="38.8823930" lon="-0.6467070">
        <ele>652.8</ele>
        <time>2019-01-05T09:47:47Z</time>
      </trkpt>
      <trkpt lat="38.8823410" lon="-0.6468540">
        <ele>652.2</ele>
        <time>2019-01-05T09:47:51Z</time>
      </trkpt>
      <trkpt lat="38.8823180" lon="-0.6468740">
        <ele>652.2</ele>
        <time>2019-01-05T09:47:52Z</time>
      </trkpt>
      <trkpt lat="38.8822930" lon="-0.6468840">
        <ele>652.2</ele>
        <time>2019-01-05T09:47:53Z</time>
      </trkpt>
      <trkpt lat="38.8822420" lon="-0.6468900">
        <ele>651.8</ele>
        <time>2019-01-05T09:47:55Z</time>
      </trkpt>
      <trkpt lat="38.8822180" lon="-0.6468870">
        <ele>651.6</ele>
        <time>2019-01-05T09:47:56Z</time>
      </trkpt>
      <trkpt lat="38.8821140" lon="-0.6469240">
        <ele>650.4</ele>
        <time>2019-01-05T09:48:00Z</time>
      </trkpt>
      <trkpt lat="38.8820070" lon="-0.6469960">
        <ele>649.6</ele>
        <time>2019-01-05T09:48:04Z</time>
      </trkpt>
      <trkpt lat="38.8819870" lon="-0.6470270">
        <ele>649.4</ele>
        <time>2019-01-05T09:48:05Z</time>
      </trkpt>
      <trkpt lat="38.8819480" lon="-0.6470900">
        <ele>648.2</ele>
        <time>2019-01-05T09:48:07Z</time>
      </trkpt>
      <trkpt lat="38.8819080" lon="-0.6471440">
        <ele>647.2</ele>
        <time>2019-01-05T09:48:09Z</time>
      </trkpt>
      <trkpt lat="38.8818550" lon="-0.6472250">
        <ele>646.6</ele>
        <time>2019-01-05T09:48:12Z</time>
      </trkpt>
      <trkpt lat="38.8818370" lon="-0.6472460">
        <ele>646.0</ele>
        <time>2019-01-05T09:48:13Z</time>
      </trkpt>
      <trkpt lat="38.8817850" lon="-0.6473530">
        <ele>644.8</ele>
        <time>2019-01-05T09:48:17Z</time>
      </trkpt>
      <trkpt lat="38.8817720" lon="-0.6473800">
        <ele>644.4</ele>
        <time>2019-01-05T09:48:18Z</time>
      </trkpt>
      <trkpt lat="38.8817580" lon="-0.6474050">
        <ele>643.6</ele>
        <time>2019-01-05T09:48:19Z</time>
      </trkpt>
      <trkpt lat="38.8817270" lon="-0.6474680">
        <ele>642.4</ele>
        <time>2019-01-05T09:48:21Z</time>
      </trkpt>
      <trkpt lat="38.8817050" lon="-0.6475250">
        <ele>641.2</ele>
        <time>2019-01-05T09:48:23Z</time>
      </trkpt>
      <trkpt lat="38.8816820" lon="-0.6476180">
        <ele>640.0</ele>
        <time>2019-01-05T09:48:26Z</time>
      </trkpt>
      <trkpt lat="38.8816560" lon="-0.6476750">
        <ele>639.4</ele>
        <time>2019-01-05T09:48:28Z</time>
      </trkpt>
      <trkpt lat="38.8816460" lon="-0.6477070">
        <ele>639.2</ele>
        <time>2019-01-05T09:48:29Z</time>
      </trkpt>
      <trkpt lat="38.8816370" lon="-0.6477370">
        <ele>639.0</ele>
        <time>2019-01-05T09:48:30Z</time>
      </trkpt>
      <trkpt lat="38.8816120" lon="-0.6478020">
        <ele>637.8</ele>
        <time>2019-01-05T09:48:32Z</time>
      </trkpt>
      <trkpt lat="38.8815870" lon="-0.6478760">
        <ele>636.4</ele>
        <time>2019-01-05T09:48:34Z</time>
      </trkpt>
      <trkpt lat="38.8815810" lon="-0.6479100">
        <ele>636.0</ele>
        <time>2019-01-05T09:48:35Z</time>
      </trkpt>
      <trkpt lat="38.8815770" lon="-0.6479810">
        <ele>635.2</ele>
        <time>2019-01-05T09:48:37Z</time>
      </trkpt>
      <trkpt lat="38.8815710" lon="-0.6481120">
        <ele>634.2</ele>
        <time>2019-01-05T09:48:40Z</time>
      </trkpt>
      <trkpt lat="38.8815660" lon="-0.6481950">
        <ele>633.8</ele>
        <time>2019-01-05T09:48:42Z</time>
      </trkpt>
      <trkpt lat="38.8815440" lon="-0.6483350">
        <ele>632.8</ele>
        <time>2019-01-05T09:48:46Z</time>
      </trkpt>
      <trkpt lat="38.8814880" lon="-0.6485230">
        <ele>632.6</ele>
        <time>2019-01-05T09:48:51Z</time>
      </trkpt>
      <trkpt lat="38.8814110" lon="-0.6486900">
        <ele>631.6</ele>
        <time>2019-01-05T09:48:56Z</time>
      </trkpt>
      <trkpt lat="38.8813050" lon="-0.6488060">
        <ele>630.2</ele>
        <time>2019-01-05T09:49:01Z</time>
      </trkpt>
      <trkpt lat="38.8812190" lon="-0.6488920">
        <ele>629.8</ele>
        <time>2019-01-05T09:49:05Z</time>
      </trkpt>
      <trkpt lat="38.8812020" lon="-0.6489180">
        <ele>629.6</ele>
        <time>2019-01-05T09:49:06Z</time>
      </trkpt>
      <trkpt lat="38.8810980" lon="-0.6490820">
        <ele>630.2</ele>
        <time>2019-01-05T09:49:12Z</time>
      </trkpt>
      <trkpt lat="38.8810050" lon="-0.6492440">
        <ele>631.4</ele>
        <time>2019-01-05T09:49:18Z</time>
      </trkpt>
      <trkpt lat="38.8809370" lon="-0.6494000">
        <ele>631.6</ele>
        <time>2019-01-05T09:49:23Z</time>
      </trkpt>
      <trkpt lat="38.8809260" lon="-0.6494280">
        <ele>631.8</ele>
        <time>2019-01-05T09:49:24Z</time>
      </trkpt>
      <trkpt lat="38.8808960" lon="-0.6495100">
        <ele>632.0</ele>
        <time>2019-01-05T09:49:27Z</time>
      </trkpt>
      <trkpt lat="38.8808650" lon="-0.6496190">
        <ele>632.6</ele>
        <time>2019-01-05T09:49:31Z</time>
      </trkpt>
      <trkpt lat="38.8808410" lon="-0.6497640">
        <ele>633.2</ele>
        <time>2019-01-05T09:49:36Z</time>
      </trkpt>
      <trkpt lat="38.8808430" lon="-0.6498250">
        <ele>633.6</ele>
        <time>2019-01-05T09:49:38Z</time>
      </trkpt>
      <trkpt lat="38.8808420" lon="-0.6498550">
        <ele>633.4</ele>
        <time>2019-01-05T09:49:39Z</time>
      </trkpt>
      <trkpt lat="38.8808460" lon="-0.6499270">
        <ele>633.0</ele>
        <time>2019-01-05T09:49:41Z</time>
      </trkpt>
      <trkpt lat="38.8808510" lon="-0.6499640">
        <ele>633.0</ele>
        <time>2019-01-05T09:49:42Z</time>
      </trkpt>
      <trkpt lat="38.8808520" lon="-0.6500640">
        <ele>633.0</ele>
        <time>2019-01-05T09:49:45Z</time>
      </trkpt>
      <trkpt lat="38.8808570" lon="-0.6501670">
        <ele>632.4</ele>
        <time>2019-01-05T09:49:48Z</time>
      </trkpt>
      <trkpt lat="38.8808630" lon="-0.6502460">
        <ele>632.0</ele>
        <time>2019-01-05T09:49:50Z</time>
      </trkpt>
      <trkpt lat="38.8808580" lon="-0.6503400">
        <ele>631.4</ele>
        <time>2019-01-05T09:49:52Z</time>
      </trkpt>
      <trkpt lat="38.8808580" lon="-0.6504620">
        <ele>631.2</ele>
        <time>2019-01-05T09:49:55Z</time>
      </trkpt>
      <trkpt lat="38.8808390" lon="-0.6506750">
        <ele>631.4</ele>
        <time>2019-01-05T09:50:01Z</time>
      </trkpt>
      <trkpt lat="38.8808310" lon="-0.6507040">
        <ele>631.6</ele>
        <time>2019-01-05T09:50:02Z</time>
      </trkpt>
      <trkpt lat="38.8808020" lon="-0.6508770">
        <ele>631.6</ele>
        <time>2019-01-05T09:50:07Z</time>
      </trkpt>
      <trkpt lat="38.8807790" lon="-0.6510400">
        <ele>631.2</ele>
        <time>2019-01-05T09:50:12Z</time>
      </trkpt>
      <trkpt lat="38.8807420" lon="-0.6512440">
        <ele>630.8</ele>
        <time>2019-01-05T09:50:18Z</time>
      </trkpt>
      <trkpt lat="38.8807220" lon="-0.6513900">
        <ele>630.4</ele>
        <time>2019-01-05T09:50:22Z</time>
      </trkpt>
      <trkpt lat="38.8807050" lon="-0.6514580">
        <ele>630.2</ele>
        <time>2019-01-05T09:50:24Z</time>
      </trkpt>
      <trkpt lat="38.8806510" lon="-0.6515720">
        <ele>629.4</ele>
        <time>2019-01-05T09:50:28Z</time>
      </trkpt>
      <trkpt lat="38.8806320" lon="-0.6516010">
        <ele>629.0</ele>
        <time>2019-01-05T09:50:29Z</time>
      </trkpt>
      <trkpt lat="38.8805950" lon="-0.6516540">
        <ele>628.6</ele>
        <time>2019-01-05T09:50:31Z</time>
      </trkpt>
      <trkpt lat="38.8805760" lon="-0.6516820">
        <ele>628.4</ele>
        <time>2019-01-05T09:50:32Z</time>
      </trkpt>
      <trkpt lat="38.8805590" lon="-0.6517110">
        <ele>628.2</ele>
        <time>2019-01-05T09:50:33Z</time>
      </trkpt>
      <trkpt lat="38.8805410" lon="-0.6517390">
        <ele>628.0</ele>
        <time>2019-01-05T09:50:34Z</time>
      </trkpt>
      <trkpt lat="38.8804280" lon="-0.6519130">
        <ele>627.4</ele>
        <time>2019-01-05T09:50:40Z</time>
      </trkpt>
      <trkpt lat="38.8803860" lon="-0.6519640">
        <ele>627.2</ele>
        <time>2019-01-05T09:50:42Z</time>
      </trkpt>
      <trkpt lat="38.8803250" lon="-0.6520380">
        <ele>627.2</ele>
        <time>2019-01-05T09:50:45Z</time>
      </trkpt>
      <trkpt lat="38.8802360" lon="-0.6521530">
        <ele>626.2</ele>
        <time>2019-01-05T09:50:50Z</time>
      </trkpt>
      <trkpt lat="38.8801680" lon="-0.6522270">
        <ele>624.8</ele>
        <time>2019-01-05T09:50:53Z</time>
      </trkpt>
      <trkpt lat="38.8801150" lon="-0.6523060">
        <ele>624.6</ele>
        <time>2019-01-05T09:50:56Z</time>
      </trkpt>
      <trkpt lat="38.8800150" lon="-0.6524380">
        <ele>624.0</ele>
        <time>2019-01-05T09:51:01Z</time>
      </trkpt>
      <trkpt lat="38.8799260" lon="-0.6525790">
        <ele>623.8</ele>
        <time>2019-01-05T09:51:06Z</time>
      </trkpt>
      <trkpt lat="38.8798820" lon="-0.6526750">
        <ele>622.4</ele>
        <time>2019-01-05T09:51:09Z</time>
      </trkpt>
      <trkpt lat="38.8798440" lon="-0.6527740">
        <ele>621.2</ele>
        <time>2019-01-05T09:51:12Z</time>
      </trkpt>
      <trkpt lat="38.8797800" lon="-0.6529220">
        <ele>619.8</ele>
        <time>2019-01-05T09:51:17Z</time>
      </trkpt>
      <trkpt lat="38.8797630" lon="-0.6529530">
        <ele>619.6</ele>
        <time>2019-01-05T09:51:18Z</time>
      </trkpt>
      <trkpt lat="38.8797360" lon="-0.6530180">
        <ele>618.8</ele>
        <time>2019-01-05T09:51:20Z</time>
      </trkpt>
      <trkpt lat="38.8796900" lon="-0.6531480">
        <ele>617.6</ele>
        <time>2019-01-05T09:51:24Z</time>
      </trkpt>
      <trkpt lat="38.8796070" lon="-0.6532440">
        <ele>616.8</ele>
        <time>2019-01-05T09:51:28Z</time>
      </trkpt>
      <trkpt lat="38.8795820" lon="-0.6532600">
        <ele>616.6</ele>
        <time>2019-01-05T09:51:29Z</time>
      </trkpt>
      <trkpt lat="38.8794590" lon="-0.6533310">
        <ele>615.6</ele>
        <time>2019-01-05T09:51:34Z</time>
      </trkpt>
      <trkpt lat="38.8793050" lon="-0.6534290">
        <ele>614.8</ele>
        <time>2019-01-05T09:51:40Z</time>
      </trkpt>
      <trkpt lat="38.8792070" lon="-0.6535220">
        <ele>614.6</ele>
        <time>2019-01-05T09:51:44Z</time>
      </trkpt>
      <trkpt lat="38.8791890" lon="-0.6535460">
        <ele>614.4</ele>
        <time>2019-01-05T09:51:45Z</time>
      </trkpt>
      <trkpt lat="38.8791470" lon="-0.6535910">
        <ele>613.8</ele>
        <time>2019-01-05T09:51:47Z</time>
      </trkpt>
      <trkpt lat="38.8791240" lon="-0.6536130">
        <ele>613.4</ele>
        <time>2019-01-05T09:51:48Z</time>
      </trkpt>
      <trkpt lat="38.8790430" lon="-0.6536630">
        <ele>612.0</ele>
        <time>2019-01-05T09:51:51Z</time>
      </trkpt>
      <trkpt lat="38.8789060" lon="-0.6537730">
        <ele>611.8</ele>
        <time>2019-01-05T09:51:57Z</time>
      </trkpt>
      <trkpt lat="38.8788060" lon="-0.6538060">
        <ele>611.6</ele>
        <time>2019-01-05T09:52:01Z</time>
      </trkpt>
      <trkpt lat="38.8787030" lon="-0.6538330">
        <ele>611.8</ele>
        <time>2019-01-05T09:52:05Z</time>
      </trkpt>
      <trkpt lat="38.8786440" lon="-0.6538350">
        <ele>611.6</ele>
        <time>2019-01-05T09:52:07Z</time>
      </trkpt>
      <trkpt lat="38.8785610" lon="-0.6538420">
        <ele>611.6</ele>
        <time>2019-01-05T09:52:11Z</time>
      </trkpt>
      <trkpt lat="38.8784680" lon="-0.6538290">
        <ele>611.8</ele>
        <time>2019-01-05T09:52:18Z</time>
      </trkpt>
      <trkpt lat="38.8784580" lon="-0.6538310">
        <ele>611.8</ele>
        <time>2019-01-05T09:52:19Z</time>
      </trkpt>
      <trkpt lat="38.8783770" lon="-0.6538530">
        <ele>612.2</ele>
        <time>2019-01-05T09:52:25Z</time>
      </trkpt>
      <trkpt lat="38.8783210" lon="-0.6538560">
        <ele>613.0</ele>
        <time>2019-01-05T09:52:29Z</time>
      </trkpt>
      <trkpt lat="38.8782550" lon="-0.6538410">
        <ele>613.2</ele>
        <time>2019-01-05T09:52:33Z</time>
      </trkpt>
      <trkpt lat="38.8782330" lon="-0.6538430">
        <ele>613.2</ele>
        <time>2019-01-05T09:52:35Z</time>
      </trkpt>
      <trkpt lat="38.8782100" lon="-0.6538450">
        <ele>613.4</ele>
        <time>2019-01-05T09:52:37Z</time>
      </trkpt>
      <trkpt lat="38.8781910" lon="-0.6538480">
        <ele>613.6</ele>
        <time>2019-01-05T09:52:39Z</time>
      </trkpt>
      <trkpt lat="38.8780900" lon="-0.6538460">
        <ele>614.0</ele>
        <time>2019-01-05T09:52:47Z</time>
      </trkpt>
      <trkpt lat="38.8780740" lon="-0.6538450">
        <ele>614.2</ele>
        <time>2019-01-05T09:52:48Z</time>
      </trkpt>
      <trkpt lat="38.8779210" lon="-0.6538030">
        <ele>614.6</ele>
        <time>2019-01-05T09:52:55Z</time>
      </trkpt>
      <trkpt lat="38.8778230" lon="-0.6537920">
        <ele>614.4</ele>
        <time>2019-01-05T09:53:00Z</time>
      </trkpt>
      <trkpt lat="38.8776940" lon="-0.6537750">
        <ele>614.4</ele>
        <time>2019-01-05T09:53:04Z</time>
      </trkpt>
      <trkpt lat="38.8775780" lon="-0.6537760">
        <ele>614.6</ele>
        <time>2019-01-05T09:53:08Z</time>
      </trkpt>
      <trkpt lat="38.8775490" lon="-0.6537750">
        <ele>614.6</ele>
        <time>2019-01-05T09:53:09Z</time>
      </trkpt>
      <trkpt lat="38.8774870" lon="-0.6537780">
        <ele>614.2</ele>
        <time>2019-01-05T09:53:11Z</time>
      </trkpt>
      <trkpt lat="38.8774260" lon="-0.6537840">
        <ele>614.0</ele>
        <time>2019-01-05T09:53:13Z</time>
      </trkpt>
      <trkpt lat="38.8773910" lon="-0.6537850">
        <ele>614.0</ele>
        <time>2019-01-05T09:53:14Z</time>
      </trkpt>
      <trkpt lat="38.8772660" lon="-0.6538220">
        <ele>613.8</ele>
        <time>2019-01-05T09:53:18Z</time>
      </trkpt>
      <trkpt lat="38.8771720" lon="-0.6538500">
        <ele>613.6</ele>
        <time>2019-01-05T09:53:21Z</time>
      </trkpt>
      <trkpt lat="38.8771120" lon="-0.6538730">
        <ele>613.2</ele>
        <time>2019-01-05T09:53:23Z</time>
      </trkpt>
      <trkpt lat="38.8770830" lon="-0.6538840">
        <ele>613.0</ele>
        <time>2019-01-05T09:53:24Z</time>
      </trkpt>
      <trkpt lat="38.8770100" lon="-0.6538990">
        <ele>613.2</ele>
        <time>2019-01-05T09:53:27Z</time>
      </trkpt>
      <trkpt lat="38.8768190" lon="-0.6539410">
        <ele>613.8</ele>
        <time>2019-01-05T10:01:52Z</time>
      </trkpt>
      <trkpt lat="38.8768040" lon="-0.6539470">
        <ele>613.8</ele>
        <time>2019-01-05T10:01:53Z</time>
      </trkpt>
      <trkpt lat="38.8767020" lon="-0.6539740">
        <ele>614.0</ele>
        <time>2019-01-05T10:02:00Z</time>
      </trkpt>
      <trkpt lat="38.8766470" lon="-0.6539810">
        <ele>614.0</ele>
        <time>2019-01-05T10:02:03Z</time>
      </trkpt>
      <trkpt lat="38.8765950" lon="-0.6539900">
        <ele>614.4</ele>
        <time>2019-01-05T10:02:06Z</time>
      </trkpt>
      <trkpt lat="38.8764970" lon="-0.6540140">
        <ele>614.4</ele>
        <time>2019-01-05T10:02:12Z</time>
      </trkpt>
      <trkpt lat="38.8763810" lon="-0.6540570">
        <ele>615.0</ele>
        <time>2019-01-05T10:02:20Z</time>
      </trkpt>
      <trkpt lat="38.8763640" lon="-0.6540550">
        <ele>615.0</ele>
        <time>2019-01-05T10:02:21Z</time>
      </trkpt>
      <trkpt lat="38.8762710" lon="-0.6540590">
        <ele>615.8</ele>
        <time>2019-01-05T10:02:26Z</time>
      </trkpt>
      <trkpt lat="38.8762370" lon="-0.6540650">
        <ele>616.2</ele>
        <time>2019-01-05T10:02:28Z</time>
      </trkpt>
      <trkpt lat="38.8762030" lon="-0.6540680">
        <ele>616.2</ele>
        <time>2019-01-05T10:02:30Z</time>
      </trkpt>
      <trkpt lat="38.8761700" lon="-0.6540640">
        <ele>616.2</ele>
        <time>2019-01-05T10:02:32Z</time>
      </trkpt>
      <trkpt lat="38.8760870" lon="-0.6540570">
        <ele>617.0</ele>
        <time>2019-01-05T10:02:37Z</time>
      </trkpt>
      <trkpt lat="38.8760750" lon="-0.6540610">
        <ele>617.4</ele>
        <time>2019-01-05T10:02:38Z</time>
      </trkpt>
      <trkpt lat="38.8760440" lon="-0.6540800">
        <ele>618.2</ele>
        <time>2019-01-05T10:02:41Z</time>
      </trkpt>
      <trkpt lat="38.8760110" lon="-0.6540940">
        <ele>618.4</ele>
        <time>2019-01-05T10:02:44Z</time>
      </trkpt>
      <trkpt lat="38.8759340" lon="-0.6540970">
        <ele>618.4</ele>
        <time>2019-01-05T10:02:49Z</time>
      </trkpt>
      <trkpt lat="38.8759110" lon="-0.6540910">
        <ele>618.4</ele>
        <time>2019-01-05T10:02:50Z</time>
      </trkpt>
      <trkpt lat="38.8757760" lon="-0.6540880">
        <ele>618.8</ele>
        <time>2019-01-05T10:02:57Z</time>
      </trkpt>
      <trkpt lat="38.8757610" lon="-0.6540950">
        <ele>619.0</ele>
        <time>2019-01-05T10:02:58Z</time>
      </trkpt>
      <trkpt lat="38.8757360" lon="-0.6541160">
        <ele>619.4</ele>
        <time>2019-01-05T10:03:00Z</time>
      </trkpt>
      <trkpt lat="38.8757220" lon="-0.6541220">
        <ele>619.8</ele>
        <time>2019-01-05T10:03:01Z</time>
      </trkpt>
      <trkpt lat="38.8756860" lon="-0.6541250">
        <ele>620.6</ele>
        <time>2019-01-05T10:03:03Z</time>
      </trkpt>
      <trkpt lat="38.8756020" lon="-0.6541200">
        <ele>621.2</ele>
        <time>2019-01-05T10:03:07Z</time>
      </trkpt>
      <trkpt lat="38.8755720" lon="-0.6541280">
        <ele>621.0</ele>
        <time>2019-01-05T10:03:09Z</time>
      </trkpt>
      <trkpt lat="38.8755310" lon="-0.6541530">
        <ele>621.0</ele>
        <time>2019-01-05T10:03:12Z</time>
      </trkpt>
      <trkpt lat="38.8754490" lon="-0.6541260">
        <ele>621.6</ele>
        <time>2019-01-05T10:03:16Z</time>
      </trkpt>
      <trkpt lat="38.8754100" lon="-0.6541120">
        <ele>621.8</ele>
        <time>2019-01-05T10:03:18Z</time>
      </trkpt>
      <trkpt lat="38.8753100" lon="-0.6541080">
        <ele>622.4</ele>
        <time>2019-01-05T10:03:25Z</time>
      </trkpt>
      <trkpt lat="38.8752650" lon="-0.6540940">
        <ele>622.6</ele>
        <time>2019-01-05T10:03:27Z</time>
      </trkpt>
      <trkpt lat="38.8752360" lon="-0.6541000">
        <ele>622.6</ele>
        <time>2019-01-05T10:03:29Z</time>
      </trkpt>
      <trkpt lat="38.8752110" lon="-0.6541130">
        <ele>622.2</ele>
        <time>2019-01-05T10:03:31Z</time>
      </trkpt>
      <trkpt lat="38.8751660" lon="-0.6541480">
        <ele>621.8</ele>
        <time>2019-01-05T10:03:35Z</time>
      </trkpt>
      <trkpt lat="38.8751550" lon="-0.6541620">
        <ele>621.8</ele>
        <time>2019-01-05T10:03:36Z</time>
      </trkpt>
      <trkpt lat="38.8751250" lon="-0.6542280">
        <ele>621.8</ele>
        <time>2019-01-05T10:03:40Z</time>
      </trkpt>
      <trkpt lat="38.8751200" lon="-0.6542480">
        <ele>621.8</ele>
        <time>2019-01-05T10:03:41Z</time>
      </trkpt>
      <trkpt lat="38.8751120" lon="-0.6542650">
        <ele>621.8</ele>
        <time>2019-01-05T10:03:42Z</time>
      </trkpt>
      <trkpt lat="38.8750660" lon="-0.6543030">
        <ele>621.8</ele>
        <time>2019-01-05T10:03:46Z</time>
      </trkpt>
      <trkpt lat="38.8749760" lon="-0.6543000">
        <ele>623.2</ele>
        <time>2019-01-05T10:03:52Z</time>
      </trkpt>
      <trkpt lat="38.8749400" lon="-0.6542980">
        <ele>623.6</ele>
        <time>2019-01-05T10:03:54Z</time>
      </trkpt>
      <trkpt lat="38.8749230" lon="-0.6543000">
        <ele>623.8</ele>
        <time>2019-01-05T10:03:55Z</time>
      </trkpt>
      <trkpt lat="38.8748900" lon="-0.6543190">
        <ele>624.4</ele>
        <time>2019-01-05T10:03:58Z</time>
      </trkpt>
      <trkpt lat="38.8748790" lon="-0.6543250">
        <ele>624.6</ele>
        <time>2019-01-05T10:03:59Z</time>
      </trkpt>
      <trkpt lat="38.8748280" lon="-0.6543630">
        <ele>625.6</ele>
        <time>2019-01-05T10:04:05Z</time>
      </trkpt>
      <trkpt lat="38.8748050" lon="-0.6543690">
        <ele>626.4</ele>
        <time>2019-01-05T10:04:07Z</time>
      </trkpt>
      <trkpt lat="38.8747840" lon="-0.6543780">
        <ele>626.8</ele>
        <time>2019-01-05T10:04:09Z</time>
      </trkpt>
      <trkpt lat="38.8747490" lon="-0.6543900">
        <ele>627.4</ele>
        <time>2019-01-05T10:04:12Z</time>
      </trkpt>
      <trkpt lat="38.8747340" lon="-0.6543880">
        <ele>627.6</ele>
        <time>2019-01-05T10:04:13Z</time>
      </trkpt>
      <trkpt lat="38.8747210" lon="-0.6543880">
        <ele>628.0</ele>
        <time>2019-01-05T10:04:14Z</time>
      </trkpt>
      <trkpt lat="38.8747120" lon="-0.6543920">
        <ele>628.4</ele>
        <time>2019-01-05T10:04:15Z</time>
      </trkpt>
      <trkpt lat="38.8746950" lon="-0.6543960">
        <ele>629.0</ele>
        <time>2019-01-05T10:04:17Z</time>
      </trkpt>
      <trkpt lat="38.8746900" lon="-0.6543980">
        <ele>629.4</ele>
        <time>2019-01-05T10:04:18Z</time>
      </trkpt>
      <trkpt lat="38.8746660" lon="-0.6544040">
        <ele>630.2</ele>
        <time>2019-01-05T10:04:21Z</time>
      </trkpt>
      <trkpt lat="38.8746480" lon="-0.6544100">
        <ele>630.4</ele>
        <time>2019-01-05T10:04:23Z</time>
      </trkpt>
      <trkpt lat="38.8745890" lon="-0.6544270">
        <ele>631.4</ele>
        <time>2019-01-05T10:04:29Z</time>
      </trkpt>
      <trkpt lat="38.8745800" lon="-0.6544310">
        <ele>632.0</ele>
        <time>2019-01-05T10:04:30Z</time>
      </trkpt>
      <trkpt lat="38.8745700" lon="-0.6544350">
        <ele>632.8</ele>
        <time>2019-01-05T10:04:31Z</time>
      </trkpt>
      <trkpt lat="38.8745500" lon="-0.6544470">
        <ele>634.0</ele>
        <time>2019-01-05T10:04:33Z</time>
      </trkpt>
      <trkpt lat="38.8745440" lon="-0.6544530">
        <ele>634.2</ele>
        <time>2019-01-05T10:04:34Z</time>
      </trkpt>
      <trkpt lat="38.8745210" lon="-0.6544690">
        <ele>634.4</ele>
        <time>2019-01-05T10:04:37Z</time>
      </trkpt>
      <trkpt lat="38.8744980" lon="-0.6544900">
        <ele>635.0</ele>
        <time>2019-01-05T10:04:41Z</time>
      </trkpt>
      <trkpt lat="38.8744800" lon="-0.6544950">
        <ele>635.2</ele>
        <time>2019-01-05T10:04:43Z</time>
      </trkpt>
      <trkpt lat="38.8744410" lon="-0.6544970">
        <ele>636.2</ele>
        <time>2019-01-05T10:04:47Z</time>
      </trkpt>
      <trkpt lat="38.8744360" lon="-0.6545010">
        <ele>636.6</ele>
        <time>2019-01-05T10:04:48Z</time>
      </trkpt>
      <trkpt lat="38.8744110" lon="-0.6545210">
        <ele>637.2</ele>
        <time>2019-01-05T10:04:52Z</time>
      </trkpt>
      <trkpt lat="38.8744040" lon="-0.6545280">
        <ele>637.2</ele>
        <time>2019-01-05T10:04:53Z</time>
      </trkpt>
      <trkpt lat="38.8743890" lon="-0.6545470">
        <ele>637.8</ele>
        <time>2019-01-05T10:04:56Z</time>
      </trkpt>
      <trkpt lat="38.8743850" lon="-0.6545500">
        <ele>638.2</ele>
        <time>2019-01-05T10:04:57Z</time>
      </trkpt>
      <trkpt lat="38.8743790" lon="-0.6545560">
        <ele>639.2</ele>
        <time>2019-01-05T10:04:59Z</time>
      </trkpt>
      <trkpt lat="38.8743740" lon="-0.6545600">
        <ele>639.4</ele>
        <time>2019-01-05T10:05:00Z</time>
      </trkpt>
      <trkpt lat="38.8743370" lon="-0.6545690">
        <ele>640.2</ele>
        <time>2019-01-05T10:05:05Z</time>
      </trkpt>
      <trkpt lat="38.8743020" lon="-0.6545850">
        <ele>640.4</ele>
        <time>2019-01-05T10:05:11Z</time>
      </trkpt>
      <trkpt lat="38.8742970" lon="-0.6545850">
        <ele>640.6</ele>
        <time>2019-01-05T10:05:12Z</time>
      </trkpt>
      <trkpt lat="38.8742790" lon="-0.6545850">
        <ele>642.0</ele>
        <time>2019-01-05T10:05:14Z</time>
      </trkpt>
      <trkpt lat="38.8742640" lon="-0.6545850">
        <ele>642.6</ele>
        <time>2019-01-05T10:05:16Z</time>
      </trkpt>
      <trkpt lat="38.8742520" lon="-0.6545830">
        <ele>643.0</ele>
        <time>2019-01-05T10:05:18Z</time>
      </trkpt>
      <trkpt lat="38.8742300" lon="-0.6545870">
        <ele>644.4</ele>
        <time>2019-01-05T10:05:22Z</time>
      </trkpt>
      <trkpt lat="38.8742260" lon="-0.6545870">
        <ele>645.0</ele>
        <time>2019-01-05T10:05:23Z</time>
      </trkpt>
      <trkpt lat="38.8742180" lon="-0.6545930">
        <ele>645.6</ele>
        <time>2019-01-05T10:05:25Z</time>
      </trkpt>
      <trkpt lat="38.8741950" lon="-0.6545990">
        <ele>645.8</ele>
        <time>2019-01-05T10:05:29Z</time>
      </trkpt>
      <trkpt lat="38.8741810" lon="-0.6545960">
        <ele>645.8</ele>
        <time>2019-01-05T10:05:32Z</time>
      </trkpt>
      <trkpt lat="38.8741730" lon="-0.6546000">
        <ele>645.8</ele>
        <time>2019-01-05T10:05:34Z</time>
      </trkpt>
      <trkpt lat="38.8741610" lon="-0.6545940">
        <ele>645.8</ele>
        <time>2019-01-05T10:05:36Z</time>
      </trkpt>
      <trkpt lat="38.8741510" lon="-0.6545940">
        <ele>646.4</ele>
        <time>2019-01-05T10:05:38Z</time>
      </trkpt>
      <trkpt lat="38.8741450" lon="-0.6545950">
        <ele>646.8</ele>
        <time>2019-01-05T10:05:39Z</time>
      </trkpt>
      <trkpt lat="38.8741350" lon="-0.6546000">
        <ele>647.2</ele>
        <time>2019-01-05T10:05:41Z</time>
      </trkpt>
      <trkpt lat="38.8741320" lon="-0.6546020">
        <ele>647.6</ele>
        <time>2019-01-05T10:05:42Z</time>
      </trkpt>
      <trkpt lat="38.8741260" lon="-0.6546030">
        <ele>647.8</ele>
        <time>2019-01-05T10:05:43Z</time>
      </trkpt>
      <trkpt lat="38.8741120" lon="-0.6546090">
        <ele>648.6</ele>
        <time>2019-01-05T10:05:47Z</time>
      </trkpt>
      <trkpt lat="38.8741010" lon="-0.6546130">
        <ele>649.0</ele>
        <time>2019-01-05T10:05:50Z</time>
      </trkpt>
      <trkpt lat="38.8740850" lon="-0.6546130">
        <ele>649.6</ele>
        <time>2019-01-05T10:05:53Z</time>
      </trkpt>
      <trkpt lat="38.8740820" lon="-0.6546140">
        <ele>650.0</ele>
        <time>2019-01-05T10:05:54Z</time>
      </trkpt>
      <trkpt lat="38.8740590" lon="-0.6545870">
        <ele>650.6</ele>
        <time>2019-01-05T10:05:58Z</time>
      </trkpt>
      <trkpt lat="38.8740510" lon="-0.6545850">
        <ele>651.2</ele>
        <time>2019-01-05T10:06:03Z</time>
      </trkpt>
      <trkpt lat="38.8740460" lon="-0.6545820">
        <ele>651.4</ele>
        <time>2019-01-05T10:06:04Z</time>
      </trkpt>
      <trkpt lat="38.8740200" lon="-0.6545940">
        <ele>652.2</ele>
        <time>2019-01-05T10:06:09Z</time>
      </trkpt>
      <trkpt lat="38.8740150" lon="-0.6545940">
        <ele>652.4</ele>
        <time>2019-01-05T10:06:10Z</time>
      </trkpt>
      <trkpt lat="38.8739990" lon="-0.6546030">
        <ele>653.0</ele>
        <time>2019-01-05T10:06:15Z</time>
      </trkpt>
      <trkpt lat="38.8739950" lon="-0.6546090">
        <ele>653.2</ele>
        <time>2019-01-05T10:06:17Z</time>
      </trkpt>
      <trkpt lat="38.8739830" lon="-0.6546210">
        <ele>653.6</ele>
        <time>2019-01-05T10:06:20Z</time>
      </trkpt>
      <trkpt lat="38.8739730" lon="-0.6546270">
        <ele>654.4</ele>
        <time>2019-01-05T10:06:22Z</time>
      </trkpt>
      <trkpt lat="38.8739560" lon="-0.6546280">
        <ele>654.8</ele>
        <time>2019-01-05T10:06:26Z</time>
      </trkpt>
      <trkpt lat="38.8739480" lon="-0.6546300">
        <ele>655.6</ele>
        <time>2019-01-05T10:06:28Z</time>
      </trkpt>
      <trkpt lat="38.8739340" lon="-0.6546440">
        <ele>657.2</ele>
        <time>2019-01-05T10:06:32Z</time>
      </trkpt>
      <trkpt lat="38.8739300" lon="-0.6546470">
        <ele>657.8</ele>
        <time>2019-01-05T10:06:33Z</time>
      </trkpt>
      <trkpt lat="38.8739250" lon="-0.6546470">
        <ele>658.2</ele>
        <time>2019-01-05T10:06:34Z</time>
      </trkpt>
      <trkpt lat="38.8739040" lon="-0.6546400">
        <ele>659.0</ele>
        <time>2019-01-05T10:06:38Z</time>
      </trkpt>
      <trkpt lat="38.8738990" lon="-0.6546400">
        <ele>659.4</ele>
        <time>2019-01-05T10:06:39Z</time>
      </trkpt>
      <trkpt lat="38.8738860" lon="-0.6546440">
        <ele>660.4</ele>
        <time>2019-01-05T10:06:41Z</time>
      </trkpt>
      <trkpt lat="38.8738820" lon="-0.6546500">
        <ele>660.6</ele>
        <time>2019-01-05T10:06:42Z</time>
      </trkpt>
      <trkpt lat="38.8738590" lon="-0.6546620">
        <ele>661.0</ele>
        <time>2019-01-05T10:06:46Z</time>
      </trkpt>
      <trkpt lat="38.8738520" lon="-0.6546660">
        <ele>660.8</ele>
        <time>2019-01-05T10:06:48Z</time>
      </trkpt>
      <trkpt lat="38.8738460" lon="-0.6546680">
        <ele>661.4</ele>
        <time>2019-01-05T10:06:51Z</time>
      </trkpt>
      <trkpt lat="38.8738470" lon="-0.6546740">
        <ele>661.6</ele>
        <time>2019-01-05T10:06:52Z</time>
      </trkpt>
      <trkpt lat="38.8738290" lon="-0.6546750">
        <ele>662.6</ele>
        <time>2019-01-05T10:06:56Z</time>
      </trkpt>
      <trkpt lat="38.8738220" lon="-0.6546770">
        <ele>662.8</ele>
        <time>2019-01-05T10:06:57Z</time>
      </trkpt>
      <trkpt lat="38.8738160" lon="-0.6546770">
        <ele>662.8</ele>
        <time>2019-01-05T10:06:59Z</time>
      </trkpt>
      <trkpt lat="38.8737940" lon="-0.6546860">
        <ele>663.4</ele>
        <time>2019-01-05T10:07:02Z</time>
      </trkpt>
      <trkpt lat="38.8737780" lon="-0.6546920">
        <ele>663.6</ele>
        <time>2019-01-05T10:07:05Z</time>
      </trkpt>
      <trkpt lat="38.8737660" lon="-0.6547010">
        <ele>664.2</ele>
        <time>2019-01-05T10:07:08Z</time>
      </trkpt>
      <trkpt lat="38.8737470" lon="-0.6547000">
        <ele>664.8</ele>
        <time>2019-01-05T10:07:13Z</time>
      </trkpt>
      <trkpt lat="38.8737440" lon="-0.6546970">
        <ele>665.4</ele>
        <time>2019-01-05T10:07:14Z</time>
      </trkpt>
      <trkpt lat="38.8737290" lon="-0.6547020">
        <ele>665.6</ele>
        <time>2019-01-05T10:07:18Z</time>
      </trkpt>
      <trkpt lat="38.8737250" lon="-0.6547050">
        <ele>666.0</ele>
        <time>2019-01-05T10:07:19Z</time>
      </trkpt>
      <trkpt lat="38.8737140" lon="-0.6547120">
        <ele>666.8</ele>
        <time>2019-01-05T10:07:21Z</time>
      </trkpt>
      <trkpt lat="38.8737060" lon="-0.6547100">
        <ele>668.0</ele>
        <time>2019-01-05T10:07:23Z</time>
      </trkpt>
      <trkpt lat="38.8736960" lon="-0.6547110">
        <ele>668.8</ele>
        <time>2019-01-05T10:07:25Z</time>
      </trkpt>
      <trkpt lat="38.8736910" lon="-0.6547110">
        <ele>669.0</ele>
        <time>2019-01-05T10:07:26Z</time>
      </trkpt>
      <trkpt lat="38.8736740" lon="-0.6547030">
        <ele>669.4</ele>
        <time>2019-01-05T10:07:30Z</time>
      </trkpt>
      <trkpt lat="38.8736650" lon="-0.6547000">
        <ele>670.0</ele>
        <time>2019-01-05T10:07:32Z</time>
      </trkpt>
      <trkpt lat="38.8736610" lon="-0.6547050">
        <ele>670.8</ele>
        <time>2019-01-05T10:07:34Z</time>
      </trkpt>
      <trkpt lat="38.8736580" lon="-0.6547060">
        <ele>671.2</ele>
        <time>2019-01-05T10:07:35Z</time>
      </trkpt>
      <trkpt lat="38.8736380" lon="-0.6547140">
        <ele>671.6</ele>
        <time>2019-01-05T10:07:40Z</time>
      </trkpt>
      <trkpt lat="38.8736230" lon="-0.6547150">
        <ele>671.6</ele>
        <time>2019-01-05T10:07:43Z</time>
      </trkpt>
      <trkpt lat="38.8736070" lon="-0.6547240">
        <ele>671.8</ele>
        <time>2019-01-05T10:07:45Z</time>
      </trkpt>
      <trkpt lat="38.8736040" lon="-0.6547290">
        <ele>672.0</ele>
        <time>2019-01-05T10:07:47Z</time>
      </trkpt>
      <trkpt lat="38.8736050" lon="-0.6547280">
        <ele>672.0</ele>
        <time>2019-01-05T10:07:48Z</time>
      </trkpt>
      <trkpt lat="38.8736040" lon="-0.6547270">
        <ele>672.2</ele>
        <time>2019-01-05T10:07:49Z</time>
      </trkpt>
      <trkpt lat="38.8736050" lon="-0.6547260">
        <ele>672.4</ele>
        <time>2019-01-05T10:07:50Z</time>
      </trkpt>
      <trkpt lat="38.8735990" lon="-0.6547270">
        <ele>672.6</ele>
        <time>2019-01-05T10:07:52Z</time>
      </trkpt>
      <trkpt lat="38.8735880" lon="-0.6547330">
        <ele>673.6</ele>
        <time>2019-01-05T10:07:55Z</time>
      </trkpt>
      <trkpt lat="38.8735840" lon="-0.6547330">
        <ele>673.8</ele>
        <time>2019-01-05T10:07:56Z</time>
      </trkpt>
      <trkpt lat="38.8735740" lon="-0.6547380">
        <ele>674.2</ele>
        <time>2019-01-05T10:07:58Z</time>
      </trkpt>
      <trkpt lat="38.8735660" lon="-0.6547410">
        <ele>674.6</ele>
        <time>2019-01-05T10:07:59Z</time>
      </trkpt>
      <trkpt lat="38.8735410" lon="-0.6547570">
        <ele>675.6</ele>
        <time>2019-01-05T10:08:04Z</time>
      </trkpt>
      <trkpt lat="38.8735300" lon="-0.6547660">
        <ele>675.8</ele>
        <time>2019-01-05T10:08:07Z</time>
      </trkpt>
      <trkpt lat="38.8735230" lon="-0.6547660">
        <ele>676.0</ele>
        <time>2019-01-05T10:08:09Z</time>
      </trkpt>
      <trkpt lat="38.8734960" lon="-0.6547670">
        <ele>676.6</ele>
        <time>2019-01-05T10:08:14Z</time>
      </trkpt>
      <trkpt lat="38.8734920" lon="-0.6547670">
        <ele>676.8</ele>
        <time>2019-01-05T10:08:15Z</time>
      </trkpt>
      <trkpt lat="38.8734800" lon="-0.6547650">
        <ele>678.0</ele>
        <time>2019-01-05T10:08:18Z</time>
      </trkpt>
      <trkpt lat="38.8734730" lon="-0.6547680">
        <ele>678.4</ele>
        <time>2019-01-05T10:08:20Z</time>
      </trkpt>
      <trkpt lat="38.8734510" lon="-0.6547950">
        <ele>679.0</ele>
        <time>2019-01-05T10:08:25Z</time>
      </trkpt>
      <trkpt lat="38.8734460" lon="-0.6548040">
        <ele>679.2</ele>
        <time>2019-01-05T10:08:26Z</time>
      </trkpt>
      <trkpt lat="38.8734250" lon="-0.6548070">
        <ele>680.6</ele>
        <time>2019-01-05T10:08:30Z</time>
      </trkpt>
      <trkpt lat="38.8734220" lon="-0.6548070">
        <ele>681.0</ele>
        <time>2019-01-05T10:08:31Z</time>
      </trkpt>
      <trkpt lat="38.8733950" lon="-0.6548090">
        <ele>681.8</ele>
        <time>2019-01-05T10:08:37Z</time>
      </trkpt>
      <trkpt lat="38.8733900" lon="-0.6548090">
        <ele>682.2</ele>
        <time>2019-01-05T10:08:38Z</time>
      </trkpt>
      <trkpt lat="38.8733710" lon="-0.6548140">
        <ele>683.4</ele>
        <time>2019-01-05T10:08:41Z</time>
      </trkpt>
      <trkpt lat="38.8733580" lon="-0.6548170">
        <ele>683.2</ele>
        <time>2019-01-05T10:08:44Z</time>
      </trkpt>
      <trkpt lat="38.8733300" lon="-0.6548240">
        <ele>684.4</ele>
        <time>2019-01-05T10:08:51Z</time>
      </trkpt>
      <trkpt lat="38.8733210" lon="-0.6548310">
        <ele>685.4</ele>
        <time>2019-01-05T10:08:53Z</time>
      </trkpt>
      <trkpt lat="38.8733110" lon="-0.6548290">
        <ele>686.4</ele>
        <time>2019-01-05T10:08:55Z</time>
      </trkpt>
      <trkpt lat="38.8733080" lon="-0.6548290">
        <ele>686.6</ele>
        <time>2019-01-05T10:08:56Z</time>
      </trkpt>
      <trkpt lat="38.8732790" lon="-0.6548310">
        <ele>686.2</ele>
        <time>2019-01-05T10:09:02Z</time>
      </trkpt>
      <trkpt lat="38.8732380" lon="-0.6548350">
        <ele>688.0</ele>
        <time>2019-01-05T10:09:09Z</time>
      </trkpt>
      <trkpt lat="38.8732160" lon="-0.6548310">
        <ele>689.0</ele>
        <time>2019-01-05T10:09:12Z</time>
      </trkpt>
      <trkpt lat="38.8732090" lon="-0.6548330">
        <ele>689.4</ele>
        <time>2019-01-05T10:09:13Z</time>
      </trkpt>
      <trkpt lat="38.8731840" lon="-0.6548270">
        <ele>690.0</ele>
        <time>2019-01-05T10:09:19Z</time>
      </trkpt>
      <trkpt lat="38.8731820" lon="-0.6548240">
        <ele>690.2</ele>
        <time>2019-01-05T10:09:20Z</time>
      </trkpt>
      <trkpt lat="38.8731700" lon="-0.6548260">
        <ele>691.2</ele>
        <time>2019-01-05T10:09:23Z</time>
      </trkpt>
      <trkpt lat="38.8731560" lon="-0.6548270">
        <ele>692.2</ele>
        <time>2019-01-05T10:09:26Z</time>
      </trkpt>
      <trkpt lat="38.8731490" lon="-0.6548250">
        <ele>692.4</ele>
        <time>2019-01-05T10:09:27Z</time>
      </trkpt>
      <trkpt lat="38.8731350" lon="-0.6548200">
        <ele>693.2</ele>
        <time>2019-01-05T10:09:31Z</time>
      </trkpt>
      <trkpt lat="38.8731250" lon="-0.6548180">
        <ele>693.6</ele>
        <time>2019-01-05T10:09:33Z</time>
      </trkpt>
      <trkpt lat="38.8731010" lon="-0.6548200">
        <ele>694.2</ele>
        <time>2019-01-05T10:09:37Z</time>
      </trkpt>
      <trkpt lat="38.8730840" lon="-0.6548300">
        <ele>694.8</ele>
        <time>2019-01-05T10:09:40Z</time>
      </trkpt>
      <trkpt lat="38.8730760" lon="-0.6548330">
        <ele>694.8</ele>
        <time>2019-01-05T10:09:42Z</time>
      </trkpt>
      <trkpt lat="38.8730590" lon="-0.6548380">
        <ele>695.8</ele>
        <time>2019-01-05T10:09:46Z</time>
      </trkpt>
      <trkpt lat="38.8730490" lon="-0.6548480">
        <ele>697.0</ele>
        <time>2019-01-05T10:09:48Z</time>
      </trkpt>
      <trkpt lat="38.8730260" lon="-0.6548490">
        <ele>697.6</ele>
        <time>2019-01-05T10:09:54Z</time>
      </trkpt>
      <trkpt lat="38.8730080" lon="-0.6548600">
        <ele>697.4</ele>
        <time>2019-01-05T10:09:58Z</time>
      </trkpt>
      <trkpt lat="38.8730030" lon="-0.6548570">
        <ele>698.0</ele>
        <time>2019-01-05T10:09:59Z</time>
      </trkpt>
      <trkpt lat="38.8729990" lon="-0.6548520">
        <ele>698.2</ele>
        <time>2019-01-05T10:10:00Z</time>
      </trkpt>
      <trkpt lat="38.8729810" lon="-0.6548620">
        <ele>699.6</ele>
        <time>2019-01-05T10:10:04Z</time>
      </trkpt>
      <trkpt lat="38.8729790" lon="-0.6548640">
        <ele>699.8</ele>
        <time>2019-01-05T10:10:05Z</time>
      </trkpt>
      <trkpt lat="38.8729540" lon="-0.6548650">
        <ele>700.2</ele>
        <time>2019-01-05T10:10:11Z</time>
      </trkpt>
      <trkpt lat="38.8729440" lon="-0.6548690">
        <ele>700.8</ele>
        <time>2019-01-05T10:10:14Z</time>
      </trkpt>
      <trkpt lat="38.8729310" lon="-0.6548680">
        <ele>702.0</ele>
        <time>2019-01-05T10:10:17Z</time>
      </trkpt>
      <trkpt lat="38.8729060" lon="-0.6548790">
        <ele>703.0</ele>
        <time>2019-01-05T10:10:23Z</time>
      </trkpt>
      <trkpt lat="38.8729020" lon="-0.6548810">
        <ele>703.2</ele>
        <time>2019-01-05T10:10:24Z</time>
      </trkpt>
      <trkpt lat="38.8728880" lon="-0.6548880">
        <ele>704.2</ele>
        <time>2019-01-05T10:10:27Z</time>
      </trkpt>
      <trkpt lat="38.8728800" lon="-0.6548990">
        <ele>705.2</ele>
        <time>2019-01-05T10:10:30Z</time>
      </trkpt>
      <trkpt lat="38.8728760" lon="-0.6549000">
        <ele>705.2</ele>
        <time>2019-01-05T10:10:31Z</time>
      </trkpt>
      <trkpt lat="38.8728530" lon="-0.6549120">
        <ele>706.0</ele>
        <time>2019-01-05T10:10:37Z</time>
      </trkpt>
      <trkpt lat="38.8728450" lon="-0.6549140">
        <ele>706.4</ele>
        <time>2019-01-05T10:10:39Z</time>
      </trkpt>
      <trkpt lat="38.8728160" lon="-0.6549240">
        <ele>707.6</ele>
        <time>2019-01-05T10:10:44Z</time>
      </trkpt>
      <trkpt lat="38.8727810" lon="-0.6549380">
        <ele>708.6</ele>
        <time>2019-01-05T10:10:51Z</time>
      </trkpt>
      <trkpt lat="38.8727560" lon="-0.6549710">
        <ele>709.4</ele>
        <time>2019-01-05T10:10:56Z</time>
      </trkpt>
      <trkpt lat="38.8727500" lon="-0.6549720">
        <ele>709.8</ele>
        <time>2019-01-05T10:10:57Z</time>
      </trkpt>
      <trkpt lat="38.8727380" lon="-0.6549820">
        <ele>709.8</ele>
        <time>2019-01-05T10:11:02Z</time>
      </trkpt>
      <trkpt lat="38.8727290" lon="-0.6549930">
        <ele>710.8</ele>
        <time>2019-01-05T10:11:04Z</time>
      </trkpt>
      <trkpt lat="38.8727060" lon="-0.6550070">
        <ele>711.6</ele>
        <time>2019-01-05T10:11:07Z</time>
      </trkpt>
      <trkpt lat="38.8726990" lon="-0.6550120">
        <ele>712.0</ele>
        <time>2019-01-05T10:11:08Z</time>
      </trkpt>
      <trkpt lat="38.8726860" lon="-0.6550160">
        <ele>712.4</ele>
        <time>2019-01-05T10:11:10Z</time>
      </trkpt>
      <trkpt lat="38.8726480" lon="-0.6550170">
        <ele>713.0</ele>
        <time>2019-01-05T10:11:15Z</time>
      </trkpt>
      <trkpt lat="38.8726340" lon="-0.6550320">
        <ele>714.4</ele>
        <time>2019-01-05T10:11:18Z</time>
      </trkpt>
      <trkpt lat="38.8726140" lon="-0.6550530">
        <ele>715.0</ele>
        <time>2019-01-05T10:11:22Z</time>
      </trkpt>
      <trkpt lat="38.8726060" lon="-0.6550610">
        <ele>715.4</ele>
        <time>2019-01-05T10:11:24Z</time>
      </trkpt>
      <trkpt lat="38.8725990" lon="-0.6551140">
        <ele>716.6</ele>
        <time>2019-01-05T10:11:28Z</time>
      </trkpt>
      <trkpt lat="38.8725920" lon="-0.6551230">
        <ele>716.8</ele>
        <time>2019-01-05T10:11:29Z</time>
      </trkpt>
      <trkpt lat="38.8725850" lon="-0.6551520">
        <ele>717.2</ele>
        <time>2019-01-05T10:11:32Z</time>
      </trkpt>
      <trkpt lat="38.8725830" lon="-0.6551760">
        <ele>717.0</ele>
        <time>2019-01-05T10:11:34Z</time>
      </trkpt>
      <trkpt lat="38.8725790" lon="-0.6551930">
        <ele>717.0</ele>
        <time>2019-01-05T10:11:35Z</time>
      </trkpt>
      <trkpt lat="38.8725720" lon="-0.6552310">
        <ele>718.0</ele>
        <time>2019-01-05T10:11:37Z</time>
      </trkpt>
      <trkpt lat="38.8725600" lon="-0.6552810">
        <ele>718.8</ele>
        <time>2019-01-05T10:11:41Z</time>
      </trkpt>
      <trkpt lat="38.8725560" lon="-0.6552920">
        <ele>719.0</ele>
        <time>2019-01-05T10:11:42Z</time>
      </trkpt>
      <trkpt lat="38.8725540" lon="-0.6553000">
        <ele>719.0</ele>
        <time>2019-01-05T10:11:43Z</time>
      </trkpt>
      <trkpt lat="38.8725520" lon="-0.6553270">
        <ele>719.4</ele>
        <time>2019-01-05T10:11:46Z</time>
      </trkpt>
      <trkpt lat="38.8725450" lon="-0.6553400">
        <ele>719.6</ele>
        <time>2019-01-05T10:11:47Z</time>
      </trkpt>
      <trkpt lat="38.8725170" lon="-0.6554010">
        <ele>719.8</ele>
        <time>2019-01-05T10:11:53Z</time>
      </trkpt>
      <trkpt lat="38.8724940" lon="-0.6554420">
        <ele>720.0</ele>
        <time>2019-01-05T10:11:56Z</time>
      </trkpt>
      <trkpt lat="38.8724760" lon="-0.6555060">
        <ele>721.2</ele>
        <time>2019-01-05T10:11:59Z</time>
      </trkpt>
      <trkpt lat="38.8724480" lon="-0.6555680">
        <ele>721.6</ele>
        <time>2019-01-05T10:12:02Z</time>
      </trkpt>
      <trkpt lat="38.8724210" lon="-0.6555910">
        <ele>721.6</ele>
        <time>2019-01-05T10:12:04Z</time>
      </trkpt>
      <trkpt lat="38.8723730" lon="-0.6556080">
        <ele>721.8</ele>
        <time>2019-01-05T10:12:09Z</time>
      </trkpt>
      <trkpt lat="38.8723670" lon="-0.6556030">
        <ele>722.2</ele>
        <time>2019-01-05T10:12:10Z</time>
      </trkpt>
      <trkpt lat="38.8723280" lon="-0.6556010">
        <ele>721.6</ele>
        <time>2019-01-05T10:12:15Z</time>
      </trkpt>
      <trkpt lat="38.8723090" lon="-0.6556100">
        <ele>721.8</ele>
        <time>2019-01-05T10:12:17Z</time>
      </trkpt>
      <trkpt lat="38.8722750" lon="-0.6556280">
        <ele>721.8</ele>
        <time>2019-01-05T10:12:20Z</time>
      </trkpt>
      <trkpt lat="38.8722180" lon="-0.6556550">
        <ele>721.2</ele>
        <time>2019-01-05T10:12:25Z</time>
      </trkpt>
      <trkpt lat="38.8722070" lon="-0.6556560">
        <ele>721.0</ele>
        <time>2019-01-05T10:12:26Z</time>
      </trkpt>
      <trkpt lat="38.8721850" lon="-0.6556530">
        <ele>720.6</ele>
        <time>2019-01-05T10:12:28Z</time>
      </trkpt>
      <trkpt lat="38.8721490" lon="-0.6556440">
        <ele>720.2</ele>
        <time>2019-01-05T10:12:31Z</time>
      </trkpt>
      <trkpt lat="38.8721390" lon="-0.6556410">
        <ele>720.2</ele>
        <time>2019-01-05T10:12:32Z</time>
      </trkpt>
      <trkpt lat="38.8721090" lon="-0.6556300">
        <ele>719.4</ele>
        <time>2019-01-05T10:12:35Z</time>
      </trkpt>
      <trkpt lat="38.8720940" lon="-0.6556340">
        <ele>718.6</ele>
        <time>2019-01-05T10:12:37Z</time>
      </trkpt>
      <trkpt lat="38.8720920" lon="-0.6556430">
        <ele>718.4</ele>
        <time>2019-01-05T10:12:38Z</time>
      </trkpt>
      <trkpt lat="38.8720690" lon="-0.6556530">
        <ele>717.6</ele>
        <time>2019-01-05T10:12:40Z</time>
      </trkpt>
      <trkpt lat="38.8720420" lon="-0.6556630">
        <ele>717.4</ele>
        <time>2019-01-05T10:12:42Z</time>
      </trkpt>
      <trkpt lat="38.8720310" lon="-0.6556700">
        <ele>717.2</ele>
        <time>2019-01-05T10:12:43Z</time>
      </trkpt>
      <trkpt lat="38.8719940" lon="-0.6556910">
        <ele>716.4</ele>
        <time>2019-01-05T10:12:46Z</time>
      </trkpt>
      <trkpt lat="38.8719540" lon="-0.6557200">
        <ele>715.2</ele>
        <time>2019-01-05T10:12:49Z</time>
      </trkpt>
      <trkpt lat="38.8719290" lon="-0.6557390">
        <ele>714.2</ele>
        <time>2019-01-05T10:12:51Z</time>
      </trkpt>
      <trkpt lat="38.8718750" lon="-0.6557760">
        <ele>712.6</ele>
        <time>2019-01-05T10:12:55Z</time>
      </trkpt>
      <trkpt lat="38.8718530" lon="-0.6557960">
        <ele>711.4</ele>
        <time>2019-01-05T10:12:57Z</time>
      </trkpt>
      <trkpt lat="38.8718300" lon="-0.6558110">
        <ele>710.8</ele>
        <time>2019-01-05T10:12:59Z</time>
      </trkpt>
      <trkpt lat="38.8718180" lon="-0.6558200">
        <ele>710.2</ele>
        <time>2019-01-05T10:13:00Z</time>
      </trkpt>
      <trkpt lat="38.8717990" lon="-0.6558410">
        <ele>709.0</ele>
        <time>2019-01-05T10:13:02Z</time>
      </trkpt>
      <trkpt lat="38.8717790" lon="-0.6558560">
        <ele>708.0</ele>
        <time>2019-01-05T10:13:04Z</time>
      </trkpt>
      <trkpt lat="38.8717370" lon="-0.6558950">
        <ele>707.2</ele>
        <time>2019-01-05T10:13:08Z</time>
      </trkpt>
      <trkpt lat="38.8717250" lon="-0.6559030">
        <ele>707.0</ele>
        <time>2019-01-05T10:13:09Z</time>
      </trkpt>
      <trkpt lat="38.8716580" lon="-0.6559530">
        <ele>705.8</ele>
        <time>2019-01-05T10:13:14Z</time>
      </trkpt>
      <trkpt lat="38.8716270" lon="-0.6559680">
        <ele>704.0</ele>
        <time>2019-01-05T10:13:17Z</time>
      </trkpt>
      <trkpt lat="38.8716020" lon="-0.6559890">
        <ele>703.4</ele>
        <time>2019-01-05T10:13:19Z</time>
      </trkpt>
      <trkpt lat="38.8715850" lon="-0.6559980">
        <ele>703.0</ele>
        <time>2019-01-05T10:13:20Z</time>
      </trkpt>
      <trkpt lat="38.8715520" lon="-0.6560190">
        <ele>701.8</ele>
        <time>2019-01-05T10:13:22Z</time>
      </trkpt>
      <trkpt lat="38.8715160" lon="-0.6560420">
        <ele>700.4</ele>
        <time>2019-01-05T10:13:25Z</time>
      </trkpt>
      <trkpt lat="38.8715080" lon="-0.6560530">
        <ele>699.6</ele>
        <time>2019-01-05T10:13:26Z</time>
      </trkpt>
      <trkpt lat="38.8715000" lon="-0.6560620">
        <ele>699.4</ele>
        <time>2019-01-05T10:13:27Z</time>
      </trkpt>
      <trkpt lat="38.8714760" lon="-0.6560690">
        <ele>698.4</ele>
        <time>2019-01-05T10:13:29Z</time>
      </trkpt>
      <trkpt lat="38.8714560" lon="-0.6560810">
        <ele>697.2</ele>
        <time>2019-01-05T10:13:31Z</time>
      </trkpt>
      <trkpt lat="38.8714440" lon="-0.6560870">
        <ele>696.6</ele>
        <time>2019-01-05T10:13:32Z</time>
      </trkpt>
      <trkpt lat="38.8714320" lon="-0.6560930">
        <ele>695.8</ele>
        <time>2019-01-05T10:13:33Z</time>
      </trkpt>
      <trkpt lat="38.8713990" lon="-0.6561070">
        <ele>694.6</ele>
        <time>2019-01-05T10:13:36Z</time>
      </trkpt>
      <trkpt lat="38.8713480" lon="-0.6561320">
        <ele>694.0</ele>
        <time>2019-01-05T10:13:40Z</time>
      </trkpt>
      <trkpt lat="38.8713160" lon="-0.6561430">
        <ele>693.4</ele>
        <time>2019-01-05T10:13:43Z</time>
      </trkpt>
      <trkpt lat="38.8713060" lon="-0.6561460">
        <ele>693.2</ele>
        <time>2019-01-05T10:13:44Z</time>
      </trkpt>
      <trkpt lat="38.8712570" lon="-0.6561730">
        <ele>692.2</ele>
        <time>2019-01-05T10:13:48Z</time>
      </trkpt>
      <trkpt lat="38.8712480" lon="-0.6561810">
        <ele>691.0</ele>
        <time>2019-01-05T10:13:49Z</time>
      </trkpt>
      <trkpt lat="38.8712350" lon="-0.6561860">
        <ele>689.8</ele>
        <time>2019-01-05T10:13:50Z</time>
      </trkpt>
      <trkpt lat="38.8712180" lon="-0.6561880">
        <ele>688.8</ele>
        <time>2019-01-05T10:13:51Z</time>
      </trkpt>
      <trkpt lat="38.8711890" lon="-0.6562000">
        <ele>687.6</ele>
        <time>2019-01-05T10:13:53Z</time>
      </trkpt>
      <trkpt lat="38.8711580" lon="-0.6562170">
        <ele>686.4</ele>
        <time>2019-01-05T10:13:55Z</time>
      </trkpt>
      <trkpt lat="38.8711310" lon="-0.6562310">
        <ele>685.6</ele>
        <time>2019-01-05T10:13:57Z</time>
      </trkpt>
      <trkpt lat="38.8711150" lon="-0.6562330">
        <ele>685.0</ele>
        <time>2019-01-05T10:13:58Z</time>
      </trkpt>
      <trkpt lat="38.8710980" lon="-0.6562340">
        <ele>684.6</ele>
        <time>2019-01-05T10:13:59Z</time>
      </trkpt>
      <trkpt lat="38.8710690" lon="-0.6562430">
        <ele>683.6</ele>
        <time>2019-01-05T10:14:01Z</time>
      </trkpt>
      <trkpt lat="38.8710370" lon="-0.6562690">
        <ele>682.4</ele>
        <time>2019-01-05T10:14:04Z</time>
      </trkpt>
      <trkpt lat="38.8709960" lon="-0.6562990">
        <ele>681.0</ele>
        <time>2019-01-05T10:14:07Z</time>
      </trkpt>
      <trkpt lat="38.8709590" lon="-0.6563330">
        <ele>680.4</ele>
        <time>2019-01-05T10:14:09Z</time>
      </trkpt>
      <trkpt lat="38.8709420" lon="-0.6563530">
        <ele>680.0</ele>
        <time>2019-01-05T10:14:10Z</time>
      </trkpt>
      <trkpt lat="38.8709010" lon="-0.6564350">
        <ele>678.6</ele>
        <time>2019-01-05T10:14:13Z</time>
      </trkpt>
      <trkpt lat="38.8708880" lon="-0.6564620">
        <ele>678.6</ele>
        <time>2019-01-05T10:14:14Z</time>
      </trkpt>
      <trkpt lat="38.8708190" lon="-0.6565180">
        <ele>679.8</ele>
        <time>2019-01-05T10:14:20Z</time>
      </trkpt>
      <trkpt lat="38.8707970" lon="-0.6565230">
        <ele>680.8</ele>
        <time>2019-01-05T10:14:22Z</time>
      </trkpt>
      <trkpt lat="38.8707620" lon="-0.6565300">
        <ele>681.2</ele>
        <time>2019-01-05T10:14:26Z</time>
      </trkpt>
      <trkpt lat="38.8707070" lon="-0.6565490">
        <ele>681.4</ele>
        <time>2019-01-05T10:14:33Z</time>
      </trkpt>
      <trkpt lat="38.8707010" lon="-0.6565550">
        <ele>682.0</ele>
        <time>2019-01-05T10:14:34Z</time>
      </trkpt>
      <trkpt lat="38.8706800" lon="-0.6565610">
        <ele>683.2</ele>
        <time>2019-01-05T10:14:37Z</time>
      </trkpt>
      <trkpt lat="38.8706750" lon="-0.6565660">
        <ele>683.6</ele>
        <time>2019-01-05T10:14:38Z</time>
      </trkpt>
      <trkpt lat="38.8706700" lon="-0.6565700">
        <ele>684.0</ele>
        <time>2019-01-05T10:14:39Z</time>
      </trkpt>
      <trkpt lat="38.8706560" lon="-0.6565740">
        <ele>684.2</ele>
        <time>2019-01-05T10:14:41Z</time>
      </trkpt>
      <trkpt lat="38.8706380" lon="-0.6565900">
        <ele>685.6</ele>
        <time>2019-01-05T10:14:45Z</time>
      </trkpt>
      <trkpt lat="38.8706050" lon="-0.6566030">
        <ele>686.8</ele>
        <time>2019-01-05T10:14:51Z</time>
      </trkpt>
      <trkpt lat="38.8705980" lon="-0.6566050">
        <ele>687.2</ele>
        <time>2019-01-05T10:14:52Z</time>
      </trkpt>
      <trkpt lat="38.8705850" lon="-0.6566180">
        <ele>688.0</ele>
        <time>2019-01-05T10:14:54Z</time>
      </trkpt>
      <trkpt lat="38.8705800" lon="-0.6566230">
        <ele>688.2</ele>
        <time>2019-01-05T10:14:55Z</time>
      </trkpt>
      <trkpt lat="38.8705680" lon="-0.6566280">
        <ele>688.6</ele>
        <time>2019-01-05T10:14:58Z</time>
      </trkpt>
      <trkpt lat="38.8705520" lon="-0.6566300">
        <ele>689.0</ele>
        <time>2019-01-05T10:15:00Z</time>
      </trkpt>
      <trkpt lat="38.8705230" lon="-0.6566320">
        <ele>690.0</ele>
        <time>2019-01-05T10:15:04Z</time>
      </trkpt>
      <trkpt lat="38.8705160" lon="-0.6566330">
        <ele>690.0</ele>
        <time>2019-01-05T10:15:05Z</time>
      </trkpt>
      <trkpt lat="38.8705070" lon="-0.6566410">
        <ele>690.0</ele>
        <time>2019-01-05T10:15:07Z</time>
      </trkpt>
      <trkpt lat="38.8704830" lon="-0.6566380">
        <ele>691.0</ele>
        <time>2019-01-05T10:15:12Z</time>
      </trkpt>
      <trkpt lat="38.8704510" lon="-0.6566370">
        <ele>692.2</ele>
        <time>2019-01-05T10:15:18Z</time>
      </trkpt>
      <trkpt lat="38.8704350" lon="-0.6566410">
        <ele>693.0</ele>
        <time>2019-01-05T10:15:20Z</time>
      </trkpt>
      <trkpt lat="38.8704290" lon="-0.6566440">
        <ele>693.2</ele>
        <time>2019-01-05T10:15:21Z</time>
      </trkpt>
      <trkpt lat="38.8704240" lon="-0.6566480">
        <ele>693.4</ele>
        <time>2019-01-05T10:15:22Z</time>
      </trkpt>
      <trkpt lat="38.8704090" lon="-0.6566550">
        <ele>693.8</ele>
        <time>2019-01-05T10:15:24Z</time>
      </trkpt>
      <trkpt lat="38.8703950" lon="-0.6566560">
        <ele>694.6</ele>
        <time>2019-01-05T10:15:26Z</time>
      </trkpt>
      <trkpt lat="38.8703780" lon="-0.6566660">
        <ele>694.6</ele>
        <time>2019-01-05T10:15:29Z</time>
      </trkpt>
      <trkpt lat="38.8703440" lon="-0.6566760">
        <ele>696.0</ele>
        <time>2019-01-05T10:15:34Z</time>
      </trkpt>
      <trkpt lat="38.8703300" lon="-0.6566730">
        <ele>696.6</ele>
        <time>2019-01-05T10:15:36Z</time>
      </trkpt>
      <trkpt lat="38.8703110" lon="-0.6566740">
        <ele>697.0</ele>
        <time>2019-01-05T10:15:39Z</time>
      </trkpt>
      <trkpt lat="38.8702870" lon="-0.6566890">
        <ele>697.6</ele>
        <time>2019-01-05T10:15:43Z</time>
      </trkpt>
      <trkpt lat="38.8702580" lon="-0.6567100">
        <ele>698.4</ele>
        <time>2019-01-05T10:15:49Z</time>
      </trkpt>
      <trkpt lat="38.8702520" lon="-0.6567110">
        <ele>698.8</ele>
        <time>2019-01-05T10:15:50Z</time>
      </trkpt>
      <trkpt lat="38.8702480" lon="-0.6567100">
        <ele>699.6</ele>
        <time>2019-01-05T10:15:51Z</time>
      </trkpt>
      <trkpt lat="38.8702250" lon="-0.6567080">
        <ele>700.6</ele>
        <time>2019-01-05T10:15:54Z</time>
      </trkpt>
      <trkpt lat="38.8702080" lon="-0.6567100">
        <ele>700.8</ele>
        <time>2019-01-05T10:15:57Z</time>
      </trkpt>
      <trkpt lat="38.8701700" lon="-0.6567110">
        <ele>701.6</ele>
        <time>2019-01-05T10:16:02Z</time>
      </trkpt>
      <trkpt lat="38.8701620" lon="-0.6567190">
        <ele>701.8</ele>
        <time>2019-01-05T10:16:03Z</time>
      </trkpt>
      <trkpt lat="38.8701420" lon="-0.6567250">
        <ele>702.8</ele>
        <time>2019-01-05T10:16:06Z</time>
      </trkpt>
      <trkpt lat="38.8701370" lon="-0.6567280">
        <ele>703.0</ele>
        <time>2019-01-05T10:16:07Z</time>
      </trkpt>
      <trkpt lat="38.8701120" lon="-0.6567410">
        <ele>704.2</ele>
        <time>2019-01-05T10:16:12Z</time>
      </trkpt>
      <trkpt lat="38.8701110" lon="-0.6567430">
        <ele>704.8</ele>
        <time>2019-01-05T10:16:13Z</time>
      </trkpt>
      <trkpt lat="38.8701090" lon="-0.6567450">
        <ele>705.2</ele>
        <time>2019-01-05T10:16:14Z</time>
      </trkpt>
      <trkpt lat="38.8700940" lon="-0.6567560">
        <ele>705.4</ele>
        <time>2019-01-05T10:16:19Z</time>
      </trkpt>
      <trkpt lat="38.8700530" lon="-0.6567760">
        <ele>705.0</ele>
        <time>2019-01-05T10:16:27Z</time>
      </trkpt>
      <trkpt lat="38.8700240" lon="-0.6568040">
        <ele>705.8</ele>
        <time>2019-01-05T10:16:31Z</time>
      </trkpt>
      <trkpt lat="38.8700160" lon="-0.6568110">
        <ele>706.2</ele>
        <time>2019-01-05T10:16:32Z</time>
      </trkpt>
      <trkpt lat="38.8700110" lon="-0.6568150">
        <ele>706.8</ele>
        <time>2019-01-05T10:16:33Z</time>
      </trkpt>
      <trkpt lat="38.8699980" lon="-0.6568250">
        <ele>707.4</ele>
        <time>2019-01-05T10:16:35Z</time>
      </trkpt>
      <trkpt lat="38.8699840" lon="-0.6568340">
        <ele>707.8</ele>
        <time>2019-01-05T10:16:37Z</time>
      </trkpt>
      <trkpt lat="38.8699600" lon="-0.6568660">
        <ele>708.2</ele>
        <time>2019-01-05T10:16:41Z</time>
      </trkpt>
      <trkpt lat="38.8699520" lon="-0.6568750">
        <ele>708.6</ele>
        <time>2019-01-05T10:16:42Z</time>
      </trkpt>
      <trkpt lat="38.8699310" lon="-0.6569020">
        <ele>709.8</ele>
        <time>2019-01-05T10:16:45Z</time>
      </trkpt>
      <trkpt lat="38.8699180" lon="-0.6569100">
        <ele>710.2</ele>
        <time>2019-01-05T10:16:47Z</time>
      </trkpt>
      <trkpt lat="38.8698920" lon="-0.6569120">
        <ele>710.8</ele>
        <time>2019-01-05T10:16:50Z</time>
      </trkpt>
      <trkpt lat="38.8698580" lon="-0.6569120">
        <ele>711.2</ele>
        <time>2019-01-05T10:16:54Z</time>
      </trkpt>
      <trkpt lat="38.8698060" lon="-0.6569490">
        <ele>711.4</ele>
        <time>2019-01-05T10:17:00Z</time>
      </trkpt>
      <trkpt lat="38.8697720" lon="-0.6569980">
        <ele>712.0</ele>
        <time>2019-01-05T10:17:04Z</time>
      </trkpt>
      <trkpt lat="38.8697480" lon="-0.6570080">
        <ele>712.0</ele>
        <time>2019-01-05T10:17:06Z</time>
      </trkpt>
      <trkpt lat="38.8697040" lon="-0.6570140">
        <ele>712.0</ele>
        <time>2019-01-05T10:17:10Z</time>
      </trkpt>
      <trkpt lat="38.8697000" lon="-0.6570140">
        <ele>712.0</ele>
        <time>2019-01-05T10:17:11Z</time>
      </trkpt>
      <trkpt lat="38.8696980" lon="-0.6570150">
        <ele>712.0</ele>
        <time>2019-01-05T10:17:12Z</time>
      </trkpt>
      <trkpt lat="38.8697010" lon="-0.6570140">
        <ele>713.0</ele>
        <time>2019-01-05T10:17:16Z</time>
      </trkpt>
      <trkpt lat="38.8696960" lon="-0.6570080">
        <ele>713.0</ele>
        <time>2019-01-05T10:17:20Z</time>
      </trkpt>
      <trkpt lat="38.8696900" lon="-0.6570100">
        <ele>713.0</ele>
        <time>2019-01-05T10:17:21Z</time>
      </trkpt>
      <trkpt lat="38.8696200" lon="-0.6570340">
        <ele>713.0</ele>
        <time>2019-01-05T10:17:29Z</time>
      </trkpt>
      <trkpt lat="38.8696130" lon="-0.6570340">
        <ele>713.0</ele>
        <time>2019-01-05T10:17:30Z</time>
      </trkpt>
      <trkpt lat="38.8695970" lon="-0.6570380">
        <ele>711.2</ele>
        <time>2019-01-05T10:17:32Z</time>
      </trkpt>
      <trkpt lat="38.8695910" lon="-0.6570410">
        <ele>710.0</ele>
        <time>2019-01-05T10:17:33Z</time>
      </trkpt>
      <trkpt lat="38.8695840" lon="-0.6570500">
        <ele>708.8</ele>
        <time>2019-01-05T10:17:36Z</time>
      </trkpt>
      <trkpt lat="38.8695740" lon="-0.6570540">
        <ele>708.6</ele>
        <time>2019-01-05T10:17:38Z</time>
      </trkpt>
      <trkpt lat="38.8695490" lon="-0.6570630">
        <ele>708.6</ele>
        <time>2019-01-05T10:17:41Z</time>
      </trkpt>
      <trkpt lat="38.8695300" lon="-0.6570740">
        <ele>708.0</ele>
        <time>2019-01-05T10:17:43Z</time>
      </trkpt>
      <trkpt lat="38.8695220" lon="-0.6570800">
        <ele>707.8</ele>
        <time>2019-01-05T10:17:44Z</time>
      </trkpt>
      <trkpt lat="38.8695140" lon="-0.6570860">
        <ele>707.4</ele>
        <time>2019-01-05T10:17:45Z</time>
      </trkpt>
      <trkpt lat="38.8695060" lon="-0.6570880">
        <ele>706.8</ele>
        <time>2019-01-05T10:17:46Z</time>
      </trkpt>
      <trkpt lat="38.8694690" lon="-0.6571210">
        <ele>705.8</ele>
        <time>2019-01-05T10:17:51Z</time>
      </trkpt>
      <trkpt lat="38.8694570" lon="-0.6571300">
        <ele>705.6</ele>
        <time>2019-01-05T10:17:52Z</time>
      </trkpt>
      <trkpt lat="38.8694370" lon="-0.6571380">
        <ele>704.4</ele>
        <time>2019-01-05T10:17:54Z</time>
      </trkpt>
      <trkpt lat="38.8694200" lon="-0.6571460">
        <ele>703.2</ele>
        <time>2019-01-05T10:17:56Z</time>
      </trkpt>
      <trkpt lat="38.8694000" lon="-0.6571590">
        <ele>702.2</ele>
        <time>2019-01-05T10:17:58Z</time>
      </trkpt>
      <trkpt lat="38.8693760" lon="-0.6571660">
        <ele>701.4</ele>
        <time>2019-01-05T10:18:00Z</time>
      </trkpt>
      <trkpt lat="38.8693650" lon="-0.6571800">
        <ele>701.0</ele>
        <time>2019-01-05T10:18:01Z</time>
      </trkpt>
      <trkpt lat="38.8693410" lon="-0.6572070">
        <ele>700.2</ele>
        <time>2019-01-05T10:18:03Z</time>
      </trkpt>
      <trkpt lat="38.8693180" lon="-0.6572220">
        <ele>699.8</ele>
        <time>2019-01-05T10:18:05Z</time>
      </trkpt>
      <trkpt lat="38.8693010" lon="-0.6572300">
        <ele>698.6</ele>
        <time>2019-01-05T10:18:07Z</time>
      </trkpt>
      <trkpt lat="38.8692920" lon="-0.6572330">
        <ele>698.0</ele>
        <time>2019-01-05T10:18:08Z</time>
      </trkpt>
      <trkpt lat="38.8692820" lon="-0.6572330">
        <ele>697.6</ele>
        <time>2019-01-05T10:18:09Z</time>
      </trkpt>
      <trkpt lat="38.8692590" lon="-0.6572490">
        <ele>696.2</ele>
        <time>2019-01-05T10:18:12Z</time>
      </trkpt>
      <trkpt lat="38.8692440" lon="-0.6572550">
        <ele>695.2</ele>
        <time>2019-01-05T10:18:14Z</time>
      </trkpt>
      <trkpt lat="38.8692340" lon="-0.6572560">
        <ele>694.6</ele>
        <time>2019-01-05T10:18:15Z</time>
      </trkpt>
      <trkpt lat="38.8692210" lon="-0.6572690">
        <ele>694.2</ele>
        <time>2019-01-05T10:18:17Z</time>
      </trkpt>
      <trkpt lat="38.8692090" lon="-0.6572800">
        <ele>693.0</ele>
        <time>2019-01-05T10:18:19Z</time>
      </trkpt>
      <trkpt lat="38.8691970" lon="-0.6572920">
        <ele>692.0</ele>
        <time>2019-01-05T10:18:21Z</time>
      </trkpt>
      <trkpt lat="38.8691930" lon="-0.6572910">
        <ele>691.8</ele>
        <time>2019-01-05T10:18:22Z</time>
      </trkpt>
      <trkpt lat="38.8691480" lon="-0.6573120">
        <ele>690.4</ele>
        <time>2019-01-05T10:18:28Z</time>
      </trkpt>
      <trkpt lat="38.8691320" lon="-0.6573200">
        <ele>689.4</ele>
        <time>2019-01-05T10:18:30Z</time>
      </trkpt>
      <trkpt lat="38.8691110" lon="-0.6573290">
        <ele>688.4</ele>
        <time>2019-01-05T10:18:33Z</time>
      </trkpt>
      <trkpt lat="38.8691060" lon="-0.6573280">
        <ele>688.2</ele>
        <time>2019-01-05T10:18:34Z</time>
      </trkpt>
      <trkpt lat="38.8690920" lon="-0.6573230">
        <ele>688.0</ele>
        <time>2019-01-05T10:18:36Z</time>
      </trkpt>
      <trkpt lat="38.8690790" lon="-0.6573280">
        <ele>686.8</ele>
        <time>2019-01-05T10:18:38Z</time>
      </trkpt>
      <trkpt lat="38.8690540" lon="-0.6573490">
        <ele>685.8</ele>
        <time>2019-01-05T10:18:41Z</time>
      </trkpt>
      <trkpt lat="38.8690270" lon="-0.6573640">
        <ele>684.6</ele>
        <time>2019-01-05T10:18:44Z</time>
      </trkpt>
      <trkpt lat="38.8690190" lon="-0.6573720">
        <ele>684.4</ele>
        <time>2019-01-05T10:18:45Z</time>
      </trkpt>
      <trkpt lat="38.8690080" lon="-0.6573770">
        <ele>684.0</ele>
        <time>2019-01-05T10:18:46Z</time>
      </trkpt>
      <trkpt lat="38.8690000" lon="-0.6573810">
        <ele>683.6</ele>
        <time>2019-01-05T10:18:47Z</time>
      </trkpt>
      <trkpt lat="38.8689890" lon="-0.6573790">
        <ele>682.8</ele>
        <time>2019-01-05T10:18:48Z</time>
      </trkpt>
      <trkpt lat="38.8689760" lon="-0.6573800">
        <ele>682.2</ele>
        <time>2019-01-05T10:18:49Z</time>
      </trkpt>
      <trkpt lat="38.8689660" lon="-0.6573810">
        <ele>681.6</ele>
        <time>2019-01-05T10:18:50Z</time>
      </trkpt>
      <trkpt lat="38.8689560" lon="-0.6573800">
        <ele>681.0</ele>
        <time>2019-01-05T10:18:51Z</time>
      </trkpt>
      <trkpt lat="38.8689330" lon="-0.6573720">
        <ele>680.0</ele>
        <time>2019-01-05T10:18:53Z</time>
      </trkpt>
      <trkpt lat="38.8689230" lon="-0.6573770">
        <ele>679.6</ele>
        <time>2019-01-05T10:18:54Z</time>
      </trkpt>
      <trkpt lat="38.8689170" lon="-0.6573840">
        <ele>679.2</ele>
        <time>2019-01-05T10:18:55Z</time>
      </trkpt>
      <trkpt lat="38.8688930" lon="-0.6573850">
        <ele>678.6</ele>
        <time>2019-01-05T10:18:58Z</time>
      </trkpt>
      <trkpt lat="38.8688830" lon="-0.6573880">
        <ele>678.2</ele>
        <time>2019-01-05T10:18:59Z</time>
      </trkpt>
      <trkpt lat="38.8688730" lon="-0.6573910">
        <ele>678.0</ele>
        <time>2019-01-05T10:19:00Z</time>
      </trkpt>
      <trkpt lat="38.8688670" lon="-0.6573960">
        <ele>677.6</ele>
        <time>2019-01-05T10:19:01Z</time>
      </trkpt>
      <trkpt lat="38.8688620" lon="-0.6574040">
        <ele>677.0</ele>
        <time>2019-01-05T10:19:02Z</time>
      </trkpt>
      <trkpt lat="38.8688370" lon="-0.6574030">
        <ele>675.4</ele>
        <time>2019-01-05T10:19:05Z</time>
      </trkpt>
      <trkpt lat="38.8688210" lon="-0.6574050">
        <ele>674.6</ele>
        <time>2019-01-05T10:19:07Z</time>
      </trkpt>
      <trkpt lat="38.8688180" lon="-0.6574120">
        <ele>674.2</ele>
        <time>2019-01-05T10:19:09Z</time>
      </trkpt>
      <trkpt lat="38.8688180" lon="-0.6574110">
        <ele>673.8</ele>
        <time>2019-01-05T10:19:11Z</time>
      </trkpt>
      <trkpt lat="38.8688140" lon="-0.6574130">
        <ele>673.6</ele>
        <time>2019-01-05T10:19:13Z</time>
      </trkpt>
      <trkpt lat="38.8687830" lon="-0.6574190">
        <ele>673.4</ele>
        <time>2019-01-05T10:19:18Z</time>
      </trkpt>
      <trkpt lat="38.8687730" lon="-0.6574170">
        <ele>673.2</ele>
        <time>2019-01-05T10:19:19Z</time>
      </trkpt>
      <trkpt lat="38.8687540" lon="-0.6574250">
        <ele>672.2</ele>
        <time>2019-01-05T10:19:21Z</time>
      </trkpt>
      <trkpt lat="38.8687230" lon="-0.6574420">
        <ele>670.8</ele>
        <time>2019-01-05T10:19:24Z</time>
      </trkpt>
      <trkpt lat="38.8687040" lon="-0.6574540">
        <ele>669.6</ele>
        <time>2019-01-05T10:19:26Z</time>
      </trkpt>
      <trkpt lat="38.8686790" lon="-0.6574620">
        <ele>669.0</ele>
        <time>2019-01-05T10:19:29Z</time>
      </trkpt>
      <trkpt lat="38.8686660" lon="-0.6574750">
        <ele>668.8</ele>
        <time>2019-01-05T10:19:31Z</time>
      </trkpt>
      <trkpt lat="38.8686610" lon="-0.6574800">
        <ele>668.4</ele>
        <time>2019-01-05T10:19:32Z</time>
      </trkpt>
      <trkpt lat="38.8686470" lon="-0.6574850">
        <ele>667.4</ele>
        <time>2019-01-05T10:19:34Z</time>
      </trkpt>
      <trkpt lat="38.8686180" lon="-0.6575100">
        <ele>666.0</ele>
        <time>2019-01-05T10:19:37Z</time>
      </trkpt>
      <trkpt lat="38.8686010" lon="-0.6575050">
        <ele>665.4</ele>
        <time>2019-01-05T10:19:39Z</time>
      </trkpt>
      <trkpt lat="38.8685820" lon="-0.6575260">
        <ele>665.0</ele>
        <time>2019-01-05T10:19:42Z</time>
      </trkpt>
      <trkpt lat="38.8685650" lon="-0.6575430">
        <ele>664.6</ele>
        <time>2019-01-05T10:19:45Z</time>
      </trkpt>
      <trkpt lat="38.8685490" lon="-0.6575520">
        <ele>663.8</ele>
        <time>2019-01-05T10:19:47Z</time>
      </trkpt>
      <trkpt lat="38.8684840" lon="-0.6575810">
        <ele>662.6</ele>
        <time>2019-01-05T10:19:52Z</time>
      </trkpt>
      <trkpt lat="38.8684670" lon="-0.6575860">
        <ele>662.0</ele>
        <time>2019-01-05T10:19:53Z</time>
      </trkpt>
      <trkpt lat="38.8684470" lon="-0.6575900">
        <ele>661.2</ele>
        <time>2019-01-05T10:19:55Z</time>
      </trkpt>
      <trkpt lat="38.8684280" lon="-0.6575970">
        <ele>660.6</ele>
        <time>2019-01-05T10:19:57Z</time>
      </trkpt>
      <trkpt lat="38.8684010" lon="-0.6576040">
        <ele>660.0</ele>
        <time>2019-01-05T10:19:59Z</time>
      </trkpt>
      <trkpt lat="38.8683880" lon="-0.6576110">
        <ele>659.8</ele>
        <time>2019-01-05T10:20:00Z</time>
      </trkpt>
      <trkpt lat="38.8683520" lon="-0.6576270">
        <ele>659.2</ele>
        <time>2019-01-05T10:20:03Z</time>
      </trkpt>
      <trkpt lat="38.8682750" lon="-0.6576270">
        <ele>659.0</ele>
        <time>2019-01-05T10:20:10Z</time>
      </trkpt>
      <trkpt lat="38.8682090" lon="-0.6576620">
        <ele>658.6</ele>
        <time>2019-01-05T10:20:16Z</time>
      </trkpt>
      <trkpt lat="38.8681880" lon="-0.6576760">
        <ele>658.6</ele>
        <time>2019-01-05T10:20:18Z</time>
      </trkpt>
      <trkpt lat="38.8681280" lon="-0.6577300">
        <ele>659.8</ele>
        <time>2019-01-05T10:20:25Z</time>
      </trkpt>
      <trkpt lat="38.8681200" lon="-0.6577410">
        <ele>660.0</ele>
        <time>2019-01-05T10:20:26Z</time>
      </trkpt>
      <trkpt lat="38.8680770" lon="-0.6577920">
        <ele>660.2</ele>
        <time>2019-01-05T10:20:32Z</time>
      </trkpt>
      <trkpt lat="38.8680470" lon="-0.6578320">
        <ele>661.2</ele>
        <time>2019-01-05T10:20:36Z</time>
      </trkpt>
      <trkpt lat="38.8680350" lon="-0.6578470">
        <ele>661.6</ele>
        <time>2019-01-05T10:20:38Z</time>
      </trkpt>
      <trkpt lat="38.8680260" lon="-0.6578540">
        <ele>662.0</ele>
        <time>2019-01-05T10:20:40Z</time>
      </trkpt>
      <trkpt lat="38.8680130" lon="-0.6578600">
        <ele>662.2</ele>
        <time>2019-01-05T10:20:42Z</time>
      </trkpt>
      <trkpt lat="38.8680080" lon="-0.6578660">
        <ele>662.4</ele>
        <time>2019-01-05T10:20:43Z</time>
      </trkpt>
      <trkpt lat="38.8679830" lon="-0.6578790">
        <ele>663.6</ele>
        <time>2019-01-05T10:20:48Z</time>
      </trkpt>
      <trkpt lat="38.8679750" lon="-0.6578810">
        <ele>664.0</ele>
        <time>2019-01-05T10:20:49Z</time>
      </trkpt>
      <trkpt lat="38.8679550" lon="-0.6578840">
        <ele>664.2</ele>
        <time>2019-01-05T10:20:53Z</time>
      </trkpt>
      <trkpt lat="38.8679490" lon="-0.6578810">
        <ele>664.4</ele>
        <time>2019-01-05T10:20:54Z</time>
      </trkpt>
      <trkpt lat="38.8679200" lon="-0.6578900">
        <ele>665.0</ele>
        <time>2019-01-05T10:20:58Z</time>
      </trkpt>
      <trkpt lat="38.8678950" lon="-0.6579070">
        <ele>665.4</ele>
        <time>2019-01-05T10:21:01Z</time>
      </trkpt>
      <trkpt lat="38.8678800" lon="-0.6579160">
        <ele>666.0</ele>
        <time>2019-01-05T10:21:03Z</time>
      </trkpt>
      <trkpt lat="38.8678320" lon="-0.6579300">
        <ele>667.2</ele>
        <time>2019-01-05T10:21:09Z</time>
      </trkpt>
      <trkpt lat="38.8678060" lon="-0.6579500">
        <ele>668.4</ele>
        <time>2019-01-05T10:21:12Z</time>
      </trkpt>
      <trkpt lat="38.8677830" lon="-0.6579590">
        <ele>669.0</ele>
        <time>2019-01-05T10:21:15Z</time>
      </trkpt>
      <trkpt lat="38.8677780" lon="-0.6579650">
        <ele>669.2</ele>
        <time>2019-01-05T10:21:16Z</time>
      </trkpt>
      <trkpt lat="38.8677730" lon="-0.6579670">
        <ele>669.4</ele>
        <time>2019-01-05T10:21:17Z</time>
      </trkpt>
      <trkpt lat="38.8677450" lon="-0.6579850">
        <ele>670.4</ele>
        <time>2019-01-05T10:21:21Z</time>
      </trkpt>
      <trkpt lat="38.8677370" lon="-0.6579900">
        <ele>670.6</ele>
        <time>2019-01-05T10:21:22Z</time>
      </trkpt>
      <trkpt lat="38.8677140" lon="-0.6580030">
        <ele>671.6</ele>
        <time>2019-01-05T10:21:25Z</time>
      </trkpt>
      <trkpt lat="38.8676800" lon="-0.6580170">
        <ele>672.8</ele>
        <time>2019-01-05T10:21:29Z</time>
      </trkpt>
      <trkpt lat="38.8676520" lon="-0.6580390">
        <ele>673.2</ele>
        <time>2019-01-05T10:21:33Z</time>
      </trkpt>
      <trkpt lat="38.8676380" lon="-0.6580520">
        <ele>674.0</ele>
        <time>2019-01-05T10:21:35Z</time>
      </trkpt>
      <trkpt lat="38.8676160" lon="-0.6580800">
        <ele>675.0</ele>
        <time>2019-01-05T10:21:41Z</time>
      </trkpt>
      <trkpt lat="38.8676100" lon="-0.6580850">
        <ele>675.4</ele>
        <time>2019-01-05T10:21:42Z</time>
      </trkpt>
      <trkpt lat="38.8675900" lon="-0.6580820">
        <ele>676.0</ele>
        <time>2019-01-05T10:21:45Z</time>
      </trkpt>
      <trkpt lat="38.8675840" lon="-0.6581050">
        <ele>677.2</ele>
        <time>2019-01-05T10:21:48Z</time>
      </trkpt>
      <trkpt lat="38.8675480" lon="-0.6581120">
        <ele>677.8</ele>
        <time>2019-01-05T10:21:54Z</time>
      </trkpt>
      <trkpt lat="38.8675420" lon="-0.6581110">
        <ele>678.2</ele>
        <time>2019-01-05T10:21:55Z</time>
      </trkpt>
      <trkpt lat="38.8675190" lon="-0.6581160">
        <ele>679.2</ele>
        <time>2019-01-05T10:21:59Z</time>
      </trkpt>
      <trkpt lat="38.8674990" lon="-0.6581330">
        <ele>680.0</ele>
        <time>2019-01-05T10:22:02Z</time>
      </trkpt>
      <trkpt lat="38.8674930" lon="-0.6581380">
        <ele>680.2</ele>
        <time>2019-01-05T10:22:03Z</time>
      </trkpt>
      <trkpt lat="38.8674700" lon="-0.6581730">
        <ele>681.0</ele>
        <time>2019-01-05T10:22:08Z</time>
      </trkpt>
      <trkpt lat="38.8674610" lon="-0.6581800">
        <ele>681.6</ele>
        <time>2019-01-05T10:22:10Z</time>
      </trkpt>
      <trkpt lat="38.8674460" lon="-0.6581950">
        <ele>682.8</ele>
        <time>2019-01-05T10:22:14Z</time>
      </trkpt>
      <trkpt lat="38.8674390" lon="-0.6581990">
        <ele>683.0</ele>
        <time>2019-01-05T10:22:15Z</time>
      </trkpt>
      <trkpt lat="38.8674120" lon="-0.6582160">
        <ele>683.8</ele>
        <time>2019-01-05T10:22:20Z</time>
      </trkpt>
      <trkpt lat="38.8674090" lon="-0.6582180">
        <ele>684.0</ele>
        <time>2019-01-05T10:22:21Z</time>
      </trkpt>
      <trkpt lat="38.8673860" lon="-0.6582310">
        <ele>684.8</ele>
        <time>2019-01-05T10:22:24Z</time>
      </trkpt>
      <trkpt lat="38.8673740" lon="-0.6582330">
        <ele>685.2</ele>
        <time>2019-01-05T10:22:26Z</time>
      </trkpt>
      <trkpt lat="38.8673680" lon="-0.6582360">
        <ele>685.4</ele>
        <time>2019-01-05T10:22:27Z</time>
      </trkpt>
      <trkpt lat="38.8673620" lon="-0.6582470">
        <ele>686.0</ele>
        <time>2019-01-05T10:22:30Z</time>
      </trkpt>
      <trkpt lat="38.8673600" lon="-0.6582490">
        <ele>686.4</ele>
        <time>2019-01-05T10:22:31Z</time>
      </trkpt>
      <trkpt lat="38.8673400" lon="-0.6582630">
        <ele>687.0</ele>
        <time>2019-01-05T10:22:35Z</time>
      </trkpt>
      <trkpt lat="38.8673350" lon="-0.6582670">
        <ele>687.2</ele>
        <time>2019-01-05T10:22:36Z</time>
      </trkpt>
      <trkpt lat="38.8673150" lon="-0.6582890">
        <ele>688.2</ele>
        <time>2019-01-05T10:22:41Z</time>
      </trkpt>
      <trkpt lat="38.8672880" lon="-0.6583020">
        <ele>689.2</ele>
        <time>2019-01-05T10:22:46Z</time>
      </trkpt>
      <trkpt lat="38.8672810" lon="-0.6583020">
        <ele>689.4</ele>
        <time>2019-01-05T10:22:52Z</time>
      </trkpt>
      <trkpt lat="38.8672770" lon="-0.6583010">
        <ele>689.4</ele>
        <time>2019-01-05T10:22:53Z</time>
      </trkpt>
      <trkpt lat="38.8672520" lon="-0.6583170">
        <ele>689.6</ele>
        <time>2019-01-05T10:22:58Z</time>
      </trkpt>
      <trkpt lat="38.8672380" lon="-0.6583310">
        <ele>690.4</ele>
        <time>2019-01-05T10:23:00Z</time>
      </trkpt>
      <trkpt lat="38.8672190" lon="-0.6583330">
        <ele>691.2</ele>
        <time>2019-01-05T10:23:03Z</time>
      </trkpt>
      <trkpt lat="38.8672140" lon="-0.6583380">
        <ele>691.4</ele>
        <time>2019-01-05T10:23:04Z</time>
      </trkpt>
      <trkpt lat="38.8671980" lon="-0.6583470">
        <ele>692.4</ele>
        <time>2019-01-05T10:23:08Z</time>
      </trkpt>
      <trkpt lat="38.8671930" lon="-0.6583530">
        <ele>692.6</ele>
        <time>2019-01-05T10:23:09Z</time>
      </trkpt>
      <trkpt lat="38.8671740" lon="-0.6583710">
        <ele>693.6</ele>
        <time>2019-01-05T10:23:13Z</time>
      </trkpt>
      <trkpt lat="38.8671650" lon="-0.6583820">
        <ele>693.8</ele>
        <time>2019-01-05T10:23:15Z</time>
      </trkpt>
      <trkpt lat="38.8671500" lon="-0.6584080">
        <ele>694.6</ele>
        <time>2019-01-05T10:23:19Z</time>
      </trkpt>
      <trkpt lat="38.8671400" lon="-0.6584130">
        <ele>694.8</ele>
        <time>2019-01-05T10:23:21Z</time>
      </trkpt>
      <trkpt lat="38.8671230" lon="-0.6584170">
        <ele>695.2</ele>
        <time>2019-01-05T10:23:26Z</time>
      </trkpt>
      <trkpt lat="38.8671120" lon="-0.6584240">
        <ele>695.8</ele>
        <time>2019-01-05T10:23:29Z</time>
      </trkpt>
      <trkpt lat="38.8670950" lon="-0.6584350">
        <ele>696.8</ele>
        <time>2019-01-05T10:23:32Z</time>
      </trkpt>
      <trkpt lat="38.8670910" lon="-0.6584380">
        <ele>697.0</ele>
        <time>2019-01-05T10:23:33Z</time>
      </trkpt>
      <trkpt lat="38.8670730" lon="-0.6584370">
        <ele>698.0</ele>
        <time>2019-01-05T10:23:37Z</time>
      </trkpt>
      <trkpt lat="38.8670600" lon="-0.6584400">
        <ele>698.4</ele>
        <time>2019-01-05T10:23:39Z</time>
      </trkpt>
      <trkpt lat="38.8670370" lon="-0.6584520">
        <ele>699.2</ele>
        <time>2019-01-05T10:23:43Z</time>
      </trkpt>
      <trkpt lat="38.8670310" lon="-0.6584580">
        <ele>699.4</ele>
        <time>2019-01-05T10:23:45Z</time>
      </trkpt>
      <trkpt lat="38.8670100" lon="-0.6584790">
        <ele>700.2</ele>
        <time>2019-01-05T10:23:49Z</time>
      </trkpt>
      <trkpt lat="38.8670060" lon="-0.6584870">
        <ele>700.4</ele>
        <time>2019-01-05T10:23:50Z</time>
      </trkpt>
      <trkpt lat="38.8670020" lon="-0.6584930">
        <ele>700.8</ele>
        <time>2019-01-05T10:23:51Z</time>
      </trkpt>
      <trkpt lat="38.8669930" lon="-0.6585030">
        <ele>701.4</ele>
        <time>2019-01-05T10:23:53Z</time>
      </trkpt>
      <trkpt lat="38.8669690" lon="-0.6585210">
        <ele>702.4</ele>
        <time>2019-01-05T10:23:58Z</time>
      </trkpt>
      <trkpt lat="38.8669390" lon="-0.6585420">
        <ele>703.4</ele>
        <time>2019-01-05T10:24:03Z</time>
      </trkpt>
      <trkpt lat="38.8669340" lon="-0.6585480">
        <ele>703.6</ele>
        <time>2019-01-05T10:24:04Z</time>
      </trkpt>
      <trkpt lat="38.8669200" lon="-0.6585570">
        <ele>704.4</ele>
        <time>2019-01-05T10:24:07Z</time>
      </trkpt>
      <trkpt lat="38.8669140" lon="-0.6585650">
        <ele>704.6</ele>
        <time>2019-01-05T10:24:08Z</time>
      </trkpt>
      <trkpt lat="38.8668910" lon="-0.6585780">
        <ele>705.8</ele>
        <time>2019-01-05T10:24:12Z</time>
      </trkpt>
      <trkpt lat="38.8668840" lon="-0.6585800">
        <ele>706.0</ele>
        <time>2019-01-05T10:24:13Z</time>
      </trkpt>
      <trkpt lat="38.8668690" lon="-0.6585900">
        <ele>706.8</ele>
        <time>2019-01-05T10:24:17Z</time>
      </trkpt>
      <trkpt lat="38.8668600" lon="-0.6585900">
        <ele>707.0</ele>
        <time>2019-01-05T10:24:19Z</time>
      </trkpt>
      <trkpt lat="38.8668350" lon="-0.6586050">
        <ele>707.8</ele>
        <time>2019-01-05T10:24:24Z</time>
      </trkpt>
      <trkpt lat="38.8668310" lon="-0.6586060">
        <ele>708.0</ele>
        <time>2019-01-05T10:24:25Z</time>
      </trkpt>
      <trkpt lat="38.8668130" lon="-0.6586200">
        <ele>709.0</ele>
        <time>2019-01-05T10:24:28Z</time>
      </trkpt>
      <trkpt lat="38.8667970" lon="-0.6586350">
        <ele>709.6</ele>
        <time>2019-01-05T10:24:31Z</time>
      </trkpt>
      <trkpt lat="38.8667810" lon="-0.6586440">
        <ele>710.0</ele>
        <time>2019-01-05T10:24:33Z</time>
      </trkpt>
      <trkpt lat="38.8667490" lon="-0.6586580">
        <ele>711.2</ele>
        <time>2019-01-05T10:24:38Z</time>
      </trkpt>
      <trkpt lat="38.8667210" lon="-0.6586790">
        <ele>712.2</ele>
        <time>2019-01-05T10:24:43Z</time>
      </trkpt>
      <trkpt lat="38.8667160" lon="-0.6586850">
        <ele>712.6</ele>
        <time>2019-01-05T10:24:44Z</time>
      </trkpt>
      <trkpt lat="38.8667030" lon="-0.6586950">
        <ele>713.6</ele>
        <time>2019-01-05T10:24:47Z</time>
      </trkpt>
      <trkpt lat="38.8666960" lon="-0.6587100">
        <ele>713.8</ele>
        <time>2019-01-05T10:24:49Z</time>
      </trkpt>
      <trkpt lat="38.8666630" lon="-0.6587420">
        <ele>714.6</ele>
        <time>2019-01-05T10:24:55Z</time>
      </trkpt>
      <trkpt lat="38.8666590" lon="-0.6587470">
        <ele>714.6</ele>
        <time>2019-01-05T10:24:56Z</time>
      </trkpt>
      <trkpt lat="38.8666400" lon="-0.6587560">
        <ele>715.8</ele>
        <time>2019-01-05T10:25:01Z</time>
      </trkpt>
      <trkpt lat="38.8666190" lon="-0.6587670">
        <ele>716.8</ele>
        <time>2019-01-05T10:25:06Z</time>
      </trkpt>
      <trkpt lat="38.8665910" lon="-0.6588030">
        <ele>717.6</ele>
        <time>2019-01-05T10:25:14Z</time>
      </trkpt>
      <trkpt lat="38.8665830" lon="-0.6588120">
        <ele>717.8</ele>
        <time>2019-01-05T10:25:16Z</time>
      </trkpt>
      <trkpt lat="38.8665650" lon="-0.6588360">
        <ele>718.8</ele>
        <time>2019-01-05T10:25:20Z</time>
      </trkpt>
      <trkpt lat="38.8665440" lon="-0.6588470">
        <ele>720.0</ele>
        <time>2019-01-05T10:25:24Z</time>
      </trkpt>
      <trkpt lat="38.8665360" lon="-0.6588560">
        <ele>720.8</ele>
        <time>2019-01-05T10:25:27Z</time>
      </trkpt>
      <trkpt lat="38.8665320" lon="-0.6588580">
        <ele>721.0</ele>
        <time>2019-01-05T10:25:28Z</time>
      </trkpt>
      <trkpt lat="38.8665030" lon="-0.6588630">
        <ele>721.6</ele>
        <time>2019-01-05T10:25:33Z</time>
      </trkpt>
      <trkpt lat="38.8664930" lon="-0.6588700">
        <ele>722.2</ele>
        <time>2019-01-05T10:25:35Z</time>
      </trkpt>
      <trkpt lat="38.8664780" lon="-0.6588770">
        <ele>723.4</ele>
        <time>2019-01-05T10:25:38Z</time>
      </trkpt>
      <trkpt lat="38.8664720" lon="-0.6588780">
        <ele>723.6</ele>
        <time>2019-01-05T10:25:39Z</time>
      </trkpt>
      <trkpt lat="38.8664500" lon="-0.6588840">
        <ele>724.4</ele>
        <time>2019-01-05T10:25:44Z</time>
      </trkpt>
      <trkpt lat="38.8664450" lon="-0.6588850">
        <ele>724.6</ele>
        <time>2019-01-05T10:25:45Z</time>
      </trkpt>
      <trkpt lat="38.8664230" lon="-0.6588960">
        <ele>725.6</ele>
        <time>2019-01-05T10:25:50Z</time>
      </trkpt>
      <trkpt lat="38.8664200" lon="-0.6588990">
        <ele>725.8</ele>
        <time>2019-01-05T10:25:51Z</time>
      </trkpt>
      <trkpt lat="38.8663980" lon="-0.6589090">
        <ele>726.8</ele>
        <time>2019-01-05T10:25:55Z</time>
      </trkpt>
      <trkpt lat="38.8663930" lon="-0.6589160">
        <ele>727.4</ele>
        <time>2019-01-05T10:25:57Z</time>
      </trkpt>
      <trkpt lat="38.8663820" lon="-0.6589250">
        <ele>727.8</ele>
        <time>2019-01-05T10:26:00Z</time>
      </trkpt>
      <trkpt lat="38.8663670" lon="-0.6589330">
        <ele>728.6</ele>
        <time>2019-01-05T10:26:04Z</time>
      </trkpt>
      <trkpt lat="38.8663540" lon="-0.6589390">
        <ele>729.0</ele>
        <time>2019-01-05T10:26:09Z</time>
      </trkpt>
      <trkpt lat="38.8663390" lon="-0.6589490">
        <ele>729.4</ele>
        <time>2019-01-05T10:26:12Z</time>
      </trkpt>
      <trkpt lat="38.8663150" lon="-0.6589550">
        <ele>730.4</ele>
        <time>2019-01-05T10:26:16Z</time>
      </trkpt>
      <trkpt lat="38.8663000" lon="-0.6589640">
        <ele>731.4</ele>
        <time>2019-01-05T10:26:19Z</time>
      </trkpt>
      <trkpt lat="38.8662890" lon="-0.6589730">
        <ele>733.0</ele>
        <time>2019-01-05T10:26:22Z</time>
      </trkpt>
      <trkpt lat="38.8662770" lon="-0.6589760">
        <ele>734.0</ele>
        <time>2019-01-05T10:26:25Z</time>
      </trkpt>
      <trkpt lat="38.8662720" lon="-0.6589760">
        <ele>734.0</ele>
        <time>2019-01-05T10:26:27Z</time>
      </trkpt>
      <trkpt lat="38.8662570" lon="-0.6590000">
        <ele>734.0</ele>
        <time>2019-01-05T10:26:33Z</time>
      </trkpt>
      <trkpt lat="38.8662530" lon="-0.6590000">
        <ele>734.0</ele>
        <time>2019-01-05T10:26:34Z</time>
      </trkpt>
      <trkpt lat="38.8662300" lon="-0.6590150">
        <ele>735.2</ele>
        <time>2019-01-05T10:26:41Z</time>
      </trkpt>
      <trkpt lat="38.8662260" lon="-0.6590150">
        <ele>735.6</ele>
        <time>2019-01-05T10:26:42Z</time>
      </trkpt>
      <trkpt lat="38.8662210" lon="-0.6590210">
        <ele>736.4</ele>
        <time>2019-01-05T10:26:44Z</time>
      </trkpt>
      <trkpt lat="38.8662170" lon="-0.6590300">
        <ele>737.6</ele>
        <time>2019-01-05T10:26:46Z</time>
      </trkpt>
      <trkpt lat="38.8662090" lon="-0.6590340">
        <ele>738.0</ele>
        <time>2019-01-05T10:26:48Z</time>
      </trkpt>
      <trkpt lat="38.8661920" lon="-0.6590520">
        <ele>738.6</ele>
        <time>2019-01-05T10:26:53Z</time>
      </trkpt>
      <trkpt lat="38.8661890" lon="-0.6590540">
        <ele>738.8</ele>
        <time>2019-01-05T10:26:54Z</time>
      </trkpt>
      <trkpt lat="38.8661660" lon="-0.6590640">
        <ele>739.6</ele>
        <time>2019-01-05T10:27:00Z</time>
      </trkpt>
      <trkpt lat="38.8661480" lon="-0.6590740">
        <ele>740.8</ele>
        <time>2019-01-05T10:27:05Z</time>
      </trkpt>
      <trkpt lat="38.8661450" lon="-0.6590740">
        <ele>741.2</ele>
        <time>2019-01-05T10:27:06Z</time>
      </trkpt>
      <trkpt lat="38.8661370" lon="-0.6590950">
        <ele>742.0</ele>
        <time>2019-01-05T10:27:10Z</time>
      </trkpt>
      <trkpt lat="38.8661350" lon="-0.6590990">
        <ele>742.2</ele>
        <time>2019-01-05T10:27:11Z</time>
      </trkpt>
      <trkpt lat="38.8661280" lon="-0.6591190">
        <ele>742.8</ele>
        <time>2019-01-05T10:27:17Z</time>
      </trkpt>
      <trkpt lat="38.8661250" lon="-0.6591180">
        <ele>743.0</ele>
        <time>2019-01-05T10:27:18Z</time>
      </trkpt>
      <trkpt lat="38.8661120" lon="-0.6591300">
        <ele>744.0</ele>
        <time>2019-01-05T10:27:22Z</time>
      </trkpt>
      <trkpt lat="38.8661080" lon="-0.6591330">
        <ele>744.2</ele>
        <time>2019-01-05T10:27:23Z</time>
      </trkpt>
      <trkpt lat="38.8660880" lon="-0.6591460">
        <ele>745.2</ele>
        <time>2019-01-05T10:27:29Z</time>
      </trkpt>
      <trkpt lat="38.8660840" lon="-0.6591450">
        <ele>745.6</ele>
        <time>2019-01-05T10:27:30Z</time>
      </trkpt>
      <trkpt lat="38.8660660" lon="-0.6591510">
        <ele>746.4</ele>
        <time>2019-01-05T10:27:34Z</time>
      </trkpt>
      <trkpt lat="38.8660630" lon="-0.6591480">
        <ele>747.2</ele>
        <time>2019-01-05T10:27:37Z</time>
      </trkpt>
      <trkpt lat="38.8660570" lon="-0.6591560">
        <ele>747.2</ele>
        <time>2019-01-05T10:27:41Z</time>
      </trkpt>
      <trkpt lat="38.8660530" lon="-0.6591620">
        <ele>747.4</ele>
        <time>2019-01-05T10:27:43Z</time>
      </trkpt>
      <trkpt lat="38.8660430" lon="-0.6591650">
        <ele>748.6</ele>
        <time>2019-01-05T10:27:47Z</time>
      </trkpt>
      <trkpt lat="38.8660240" lon="-0.6591800">
        <ele>749.6</ele>
        <time>2019-01-05T10:27:52Z</time>
      </trkpt>
      <trkpt lat="38.8660270" lon="-0.6591870">
        <ele>750.0</ele>
        <time>2019-01-05T10:27:58Z</time>
      </trkpt>
      <trkpt lat="38.8660150" lon="-0.6592000">
        <ele>749.4</ele>
        <time>2019-01-05T10:28:03Z</time>
      </trkpt>
      <trkpt lat="38.8659840" lon="-0.6592270">
        <ele>750.2</ele>
        <time>2019-01-05T10:28:09Z</time>
      </trkpt>
      <trkpt lat="38.8659720" lon="-0.6592290">
        <ele>751.0</ele>
        <time>2019-01-05T10:28:11Z</time>
      </trkpt>
      <trkpt lat="38.8659600" lon="-0.6592300">
        <ele>752.0</ele>
        <time>2019-01-05T10:28:13Z</time>
      </trkpt>
      <trkpt lat="38.8659450" lon="-0.6592360">
        <ele>753.0</ele>
        <time>2019-01-05T10:28:16Z</time>
      </trkpt>
      <trkpt lat="38.8659400" lon="-0.6592370">
        <ele>753.2</ele>
        <time>2019-01-05T10:28:17Z</time>
      </trkpt>
      <trkpt lat="38.8659280" lon="-0.6592320">
        <ele>754.4</ele>
        <time>2019-01-05T10:28:20Z</time>
      </trkpt>
      <trkpt lat="38.8659190" lon="-0.6592320">
        <ele>754.8</ele>
        <time>2019-01-05T10:28:21Z</time>
      </trkpt>
      <trkpt lat="38.8658940" lon="-0.6592420">
        <ele>755.2</ele>
        <time>2019-01-05T10:28:25Z</time>
      </trkpt>
      <trkpt lat="38.8658840" lon="-0.6592500">
        <ele>755.4</ele>
        <time>2019-01-05T10:28:27Z</time>
      </trkpt>
      <trkpt lat="38.8658770" lon="-0.6592490">
        <ele>755.6</ele>
        <time>2019-01-05T10:28:28Z</time>
      </trkpt>
      <trkpt lat="38.8658560" lon="-0.6592730">
        <ele>756.6</ele>
        <time>2019-01-05T10:28:32Z</time>
      </trkpt>
      <trkpt lat="38.8658520" lon="-0.6592760">
        <ele>757.0</ele>
        <time>2019-01-05T10:28:33Z</time>
      </trkpt>
      <trkpt lat="38.8658240" lon="-0.6593110">
        <ele>757.8</ele>
        <time>2019-01-05T10:28:39Z</time>
      </trkpt>
      <trkpt lat="38.8658210" lon="-0.6593140">
        <ele>758.0</ele>
        <time>2019-01-05T10:28:40Z</time>
      </trkpt>
      <trkpt lat="38.8658160" lon="-0.6593260">
        <ele>759.2</ele>
        <time>2019-01-05T10:28:42Z</time>
      </trkpt>
      <trkpt lat="38.8658070" lon="-0.6593360">
        <ele>760.2</ele>
        <time>2019-01-05T10:28:45Z</time>
      </trkpt>
      <trkpt lat="38.8657960" lon="-0.6593450">
        <ele>761.2</ele>
        <time>2019-01-05T10:28:48Z</time>
      </trkpt>
      <trkpt lat="38.8657940" lon="-0.6593500">
        <ele>761.4</ele>
        <time>2019-01-05T10:28:49Z</time>
      </trkpt>
      <trkpt lat="38.8657850" lon="-0.6593810">
        <ele>761.6</ele>
        <time>2019-01-05T10:28:53Z</time>
      </trkpt>
      <trkpt lat="38.8657650" lon="-0.6593970">
        <ele>762.4</ele>
        <time>2019-01-05T10:28:59Z</time>
      </trkpt>
      <trkpt lat="38.8657580" lon="-0.6594000">
        <ele>762.4</ele>
        <time>2019-01-05T10:29:00Z</time>
      </trkpt>
      <trkpt lat="38.8657420" lon="-0.6594040">
        <ele>763.4</ele>
        <time>2019-01-05T10:29:03Z</time>
      </trkpt>
      <trkpt lat="38.8657330" lon="-0.6594010">
        <ele>763.8</ele>
        <time>2019-01-05T10:29:04Z</time>
      </trkpt>
      <trkpt lat="38.8657250" lon="-0.6593970">
        <ele>764.0</ele>
        <time>2019-01-05T10:29:05Z</time>
      </trkpt>
      <trkpt lat="38.8657180" lon="-0.6593950">
        <ele>764.2</ele>
        <time>2019-01-05T10:29:06Z</time>
      </trkpt>
      <trkpt lat="38.8657040" lon="-0.6593880">
        <ele>764.6</ele>
        <time>2019-01-05T10:29:09Z</time>
      </trkpt>
      <trkpt lat="38.8657030" lon="-0.6593890">
        <ele>764.6</ele>
        <time>2019-01-05T10:29:10Z</time>
      </trkpt>
      <trkpt lat="38.8656800" lon="-0.6593990">
        <ele>765.4</ele>
        <time>2019-01-05T10:29:16Z</time>
      </trkpt>
      <trkpt lat="38.8656740" lon="-0.6593990">
        <ele>765.6</ele>
        <time>2019-01-05T10:29:17Z</time>
      </trkpt>
      <trkpt lat="38.8656510" lon="-0.6594050">
        <ele>766.4</ele>
        <time>2019-01-05T10:29:22Z</time>
      </trkpt>
      <trkpt lat="38.8656490" lon="-0.6594040">
        <ele>766.8</ele>
        <time>2019-01-05T10:29:23Z</time>
      </trkpt>
      <trkpt lat="38.8656310" lon="-0.6594070">
        <ele>767.4</ele>
        <time>2019-01-05T10:29:27Z</time>
      </trkpt>
      <trkpt lat="38.8656280" lon="-0.6594250">
        <ele>768.0</ele>
        <time>2019-01-05T10:29:30Z</time>
      </trkpt>
      <trkpt lat="38.8656210" lon="-0.6594400">
        <ele>768.4</ele>
        <time>2019-01-05T10:29:33Z</time>
      </trkpt>
      <trkpt lat="38.8656070" lon="-0.6594520">
        <ele>769.0</ele>
        <time>2019-01-05T10:29:36Z</time>
      </trkpt>
      <trkpt lat="38.8655800" lon="-0.6594590">
        <ele>769.2</ele>
        <time>2019-01-05T10:29:40Z</time>
      </trkpt>
      <trkpt lat="38.8655560" lon="-0.6594580">
        <ele>770.0</ele>
        <time>2019-01-05T10:29:44Z</time>
      </trkpt>
      <trkpt lat="38.8655430" lon="-0.6594640">
        <ele>770.2</ele>
        <time>2019-01-05T10:29:47Z</time>
      </trkpt>
      <trkpt lat="38.8655260" lon="-0.6594730">
        <ele>771.2</ele>
        <time>2019-01-05T10:29:50Z</time>
      </trkpt>
      <trkpt lat="38.8655050" lon="-0.6594950">
        <ele>772.0</ele>
        <time>2019-01-05T10:29:53Z</time>
      </trkpt>
      <trkpt lat="38.8654780" lon="-0.6594990">
        <ele>772.0</ele>
        <time>2019-01-05T10:29:58Z</time>
      </trkpt>
      <trkpt lat="38.8654670" lon="-0.6595040">
        <ele>772.6</ele>
        <time>2019-01-05T10:30:00Z</time>
      </trkpt>
      <trkpt lat="38.8654570" lon="-0.6595110">
        <ele>773.8</ele>
        <time>2019-01-05T10:30:02Z</time>
      </trkpt>
      <trkpt lat="38.8654460" lon="-0.6595160">
        <ele>774.4</ele>
        <time>2019-01-05T10:30:05Z</time>
      </trkpt>
      <trkpt lat="38.8654430" lon="-0.6595210">
        <ele>775.0</ele>
        <time>2019-01-05T10:30:06Z</time>
      </trkpt>
      <trkpt lat="38.8654270" lon="-0.6595510">
        <ele>775.2</ele>
        <time>2019-01-05T10:30:11Z</time>
      </trkpt>
      <trkpt lat="38.8654100" lon="-0.6595700">
        <ele>776.0</ele>
        <time>2019-01-05T10:30:14Z</time>
      </trkpt>
      <trkpt lat="38.8654050" lon="-0.6595770">
        <ele>776.8</ele>
        <time>2019-01-05T10:30:16Z</time>
      </trkpt>
      <trkpt lat="38.8654020" lon="-0.6595770">
        <ele>777.4</ele>
        <time>2019-01-05T10:30:17Z</time>
      </trkpt>
      <trkpt lat="38.8653770" lon="-0.6595840">
        <ele>778.6</ele>
        <time>2019-01-05T10:30:21Z</time>
      </trkpt>
      <trkpt lat="38.8653710" lon="-0.6595900">
        <ele>778.6</ele>
        <time>2019-01-05T10:30:22Z</time>
      </trkpt>
      <trkpt lat="38.8653420" lon="-0.6595940">
        <ele>778.2</ele>
        <time>2019-01-05T10:30:28Z</time>
      </trkpt>
      <trkpt lat="38.8653300" lon="-0.6596020">
        <ele>779.8</ele>
        <time>2019-01-05T10:30:31Z</time>
      </trkpt>
      <trkpt lat="38.8653240" lon="-0.6596180">
        <ele>780.4</ele>
        <time>2019-01-05T10:30:34Z</time>
      </trkpt>
      <trkpt lat="38.8653140" lon="-0.6596250">
        <ele>780.8</ele>
        <time>2019-01-05T10:30:36Z</time>
      </trkpt>
      <trkpt lat="38.8652970" lon="-0.6596360">
        <ele>781.2</ele>
        <time>2019-01-05T10:30:40Z</time>
      </trkpt>
      <trkpt lat="38.8652900" lon="-0.6596450">
        <ele>781.8</ele>
        <time>2019-01-05T10:30:42Z</time>
      </trkpt>
      <trkpt lat="38.8652830" lon="-0.6596640">
        <ele>782.8</ele>
        <time>2019-01-05T10:30:46Z</time>
      </trkpt>
      <trkpt lat="38.8652780" lon="-0.6596670">
        <ele>783.2</ele>
        <time>2019-01-05T10:30:47Z</time>
      </trkpt>
      <trkpt lat="38.8652620" lon="-0.6596780">
        <ele>783.4</ele>
        <time>2019-01-05T10:30:51Z</time>
      </trkpt>
      <trkpt lat="38.8652530" lon="-0.6596810">
        <ele>783.6</ele>
        <time>2019-01-05T10:30:52Z</time>
      </trkpt>
      <trkpt lat="38.8652340" lon="-0.6596900">
        <ele>784.2</ele>
        <time>2019-01-05T10:30:56Z</time>
      </trkpt>
      <trkpt lat="38.8652290" lon="-0.6597040">
        <ele>785.6</ele>
        <time>2019-01-05T10:30:59Z</time>
      </trkpt>
      <trkpt lat="38.8652300" lon="-0.6597110">
        <ele>786.0</ele>
        <time>2019-01-05T10:31:02Z</time>
      </trkpt>
      <trkpt lat="38.8652200" lon="-0.6597210">
        <ele>786.8</ele>
        <time>2019-01-05T10:31:07Z</time>
      </trkpt>
      <trkpt lat="38.8652100" lon="-0.6597190">
        <ele>787.0</ele>
        <time>2019-01-05T10:31:09Z</time>
      </trkpt>
      <trkpt lat="38.8651980" lon="-0.6597330">
        <ele>787.6</ele>
        <time>2019-01-05T10:31:14Z</time>
      </trkpt>
      <trkpt lat="38.8651900" lon="-0.6597350">
        <ele>788.0</ele>
        <time>2019-01-05T10:31:15Z</time>
      </trkpt>
      <trkpt lat="38.8651840" lon="-0.6597400">
        <ele>788.0</ele>
        <time>2019-01-05T10:31:18Z</time>
      </trkpt>
      <trkpt lat="38.8651680" lon="-0.6597410">
        <ele>787.6</ele>
        <time>2019-01-05T10:31:24Z</time>
      </trkpt>
      <trkpt lat="38.8651330" lon="-0.6597490">
        <ele>787.8</ele>
        <time>2019-01-05T10:31:29Z</time>
      </trkpt>
      <trkpt lat="38.8650990" lon="-0.6597630">
        <ele>789.2</ele>
        <time>2019-01-05T10:31:34Z</time>
      </trkpt>
      <trkpt lat="38.8650910" lon="-0.6597730">
        <ele>790.4</ele>
        <time>2019-01-05T10:31:36Z</time>
      </trkpt>
      <trkpt lat="38.8650840" lon="-0.6597780">
        <ele>791.6</ele>
        <time>2019-01-05T10:31:38Z</time>
      </trkpt>
      <trkpt lat="38.8650630" lon="-0.6597900">
        <ele>792.2</ele>
        <time>2019-01-05T10:31:41Z</time>
      </trkpt>
      <trkpt lat="38.8650360" lon="-0.6598080">
        <ele>792.8</ele>
        <time>2019-01-05T10:31:46Z</time>
      </trkpt>
      <trkpt lat="38.8650140" lon="-0.6598050">
        <ele>794.0</ele>
        <time>2019-01-05T10:31:49Z</time>
      </trkpt>
      <trkpt lat="38.8650080" lon="-0.6598050">
        <ele>794.6</ele>
        <time>2019-01-05T10:31:52Z</time>
      </trkpt>
      <trkpt lat="38.8649890" lon="-0.6598100">
        <ele>795.0</ele>
        <time>2019-01-05T10:31:55Z</time>
      </trkpt>
      <trkpt lat="38.8649770" lon="-0.6598200">
        <ele>795.6</ele>
        <time>2019-01-05T10:31:57Z</time>
      </trkpt>
      <trkpt lat="38.8649620" lon="-0.6598260">
        <ele>796.2</ele>
        <time>2019-01-05T10:31:59Z</time>
      </trkpt>
      <trkpt lat="38.8649540" lon="-0.6598270">
        <ele>796.4</ele>
        <time>2019-01-05T10:32:00Z</time>
      </trkpt>
      <trkpt lat="38.8649430" lon="-0.6598280">
        <ele>796.8</ele>
        <time>2019-01-05T10:32:02Z</time>
      </trkpt>
      <trkpt lat="38.8649390" lon="-0.6598300">
        <ele>796.8</ele>
        <time>2019-01-05T10:32:03Z</time>
      </trkpt>
      <trkpt lat="38.8649150" lon="-0.6598430">
        <ele>797.6</ele>
        <time>2019-01-05T10:32:08Z</time>
      </trkpt>
      <trkpt lat="38.8649130" lon="-0.6598480">
        <ele>798.0</ele>
        <time>2019-01-05T10:32:09Z</time>
      </trkpt>
      <trkpt lat="38.8648960" lon="-0.6598560">
        <ele>798.8</ele>
        <time>2019-01-05T10:32:12Z</time>
      </trkpt>
      <trkpt lat="38.8648820" lon="-0.6598570">
        <ele>799.0</ele>
        <time>2019-01-05T10:32:14Z</time>
      </trkpt>
      <trkpt lat="38.8648760" lon="-0.6598620">
        <ele>799.8</ele>
        <time>2019-01-05T10:32:16Z</time>
      </trkpt>
      <trkpt lat="38.8648730" lon="-0.6598790">
        <ele>800.2</ele>
        <time>2019-01-05T10:32:19Z</time>
      </trkpt>
      <trkpt lat="38.8648480" lon="-0.6598950">
        <ele>800.8</ele>
        <time>2019-01-05T10:32:24Z</time>
      </trkpt>
      <trkpt lat="38.8648490" lon="-0.6598990">
        <ele>801.6</ele>
        <time>2019-01-05T10:32:25Z</time>
      </trkpt>
      <trkpt lat="38.8648470" lon="-0.6599020">
        <ele>802.0</ele>
        <time>2019-01-05T10:32:26Z</time>
      </trkpt>
      <trkpt lat="38.8648170" lon="-0.6599070">
        <ele>803.2</ele>
        <time>2019-01-05T10:32:31Z</time>
      </trkpt>
      <trkpt lat="38.8648030" lon="-0.6599270">
        <ele>804.2</ele>
        <time>2019-01-05T10:32:35Z</time>
      </trkpt>
      <trkpt lat="38.8648000" lon="-0.6599290">
        <ele>804.2</ele>
        <time>2019-01-05T10:32:36Z</time>
      </trkpt>
      <trkpt lat="38.8647800" lon="-0.6599480">
        <ele>805.0</ele>
        <time>2019-01-05T10:32:41Z</time>
      </trkpt>
      <trkpt lat="38.8647750" lon="-0.6599500">
        <ele>805.4</ele>
        <time>2019-01-05T10:32:43Z</time>
      </trkpt>
      <trkpt lat="38.8647640" lon="-0.6599580">
        <ele>805.6</ele>
        <time>2019-01-05T10:32:46Z</time>
      </trkpt>
      <trkpt lat="38.8647370" lon="-0.6599690">
        <ele>806.2</ele>
        <time>2019-01-05T10:32:51Z</time>
      </trkpt>
      <trkpt lat="38.8647330" lon="-0.6599700">
        <ele>807.0</ele>
        <time>2019-01-05T10:32:52Z</time>
      </trkpt>
      <trkpt lat="38.8647200" lon="-0.6599720">
        <ele>808.4</ele>
        <time>2019-01-05T10:32:54Z</time>
      </trkpt>
      <trkpt lat="38.8647030" lon="-0.6599790">
        <ele>808.8</ele>
        <time>2019-01-05T10:32:57Z</time>
      </trkpt>
      <trkpt lat="38.8646800" lon="-0.6600000">
        <ele>809.4</ele>
        <time>2019-01-05T10:33:01Z</time>
      </trkpt>
      <trkpt lat="38.8646760" lon="-0.6599990">
        <ele>809.4</ele>
        <time>2019-01-05T10:33:02Z</time>
      </trkpt>
      <trkpt lat="38.8646550" lon="-0.6600080">
        <ele>810.4</ele>
        <time>2019-01-05T10:33:07Z</time>
      </trkpt>
      <trkpt lat="38.8646480" lon="-0.6600090">
        <ele>810.8</ele>
        <time>2019-01-05T10:33:08Z</time>
      </trkpt>
      <trkpt lat="38.8646250" lon="-0.6600130">
        <ele>811.2</ele>
        <time>2019-01-05T10:33:11Z</time>
      </trkpt>
      <trkpt lat="38.8646010" lon="-0.6600250">
        <ele>811.8</ele>
        <time>2019-01-05T10:33:16Z</time>
      </trkpt>
      <trkpt lat="38.8645970" lon="-0.6600270">
        <ele>812.0</ele>
        <time>2019-01-05T10:33:17Z</time>
      </trkpt>
      <trkpt lat="38.8645850" lon="-0.6600270">
        <ele>812.6</ele>
        <time>2019-01-05T10:33:19Z</time>
      </trkpt>
      <trkpt lat="38.8645790" lon="-0.6600280">
        <ele>812.8</ele>
        <time>2019-01-05T10:33:20Z</time>
      </trkpt>
      <trkpt lat="38.8645660" lon="-0.6600290">
        <ele>813.4</ele>
        <time>2019-01-05T10:33:22Z</time>
      </trkpt>
      <trkpt lat="38.8645440" lon="-0.6600320">
        <ele>813.8</ele>
        <time>2019-01-05T10:33:27Z</time>
      </trkpt>
      <trkpt lat="38.8645380" lon="-0.6600310">
        <ele>814.0</ele>
        <time>2019-01-05T10:33:28Z</time>
      </trkpt>
      <trkpt lat="38.8645280" lon="-0.6600350">
        <ele>815.0</ele>
        <time>2019-01-05T10:33:31Z</time>
      </trkpt>
      <trkpt lat="38.8645250" lon="-0.6600350">
        <ele>815.2</ele>
        <time>2019-01-05T10:33:32Z</time>
      </trkpt>
      <trkpt lat="38.8645030" lon="-0.6600410">
        <ele>815.8</ele>
        <time>2019-01-05T10:33:37Z</time>
      </trkpt>
      <trkpt lat="38.8644800" lon="-0.6600420">
        <ele>816.2</ele>
        <time>2019-01-05T10:33:42Z</time>
      </trkpt>
      <trkpt lat="38.8644760" lon="-0.6600430">
        <ele>816.6</ele>
        <time>2019-01-05T10:33:43Z</time>
      </trkpt>
      <trkpt lat="38.8644540" lon="-0.6600460">
        <ele>817.4</ele>
        <time>2019-01-05T10:33:46Z</time>
      </trkpt>
      <trkpt lat="38.8644360" lon="-0.6600490">
        <ele>817.6</ele>
        <time>2019-01-05T10:33:49Z</time>
      </trkpt>
      <trkpt lat="38.8644090" lon="-0.6600370">
        <ele>818.6</ele>
        <time>2019-01-05T10:33:55Z</time>
      </trkpt>
      <trkpt lat="38.8643900" lon="-0.6600370">
        <ele>819.8</ele>
        <time>2019-01-05T10:33:59Z</time>
      </trkpt>
      <trkpt lat="38.8643820" lon="-0.6600360">
        <ele>820.0</ele>
        <time>2019-01-05T10:34:00Z</time>
      </trkpt>
      <trkpt lat="38.8643550" lon="-0.6600380">
        <ele>820.6</ele>
        <time>2019-01-05T10:34:04Z</time>
      </trkpt>
      <trkpt lat="38.8643520" lon="-0.6600450">
        <ele>821.0</ele>
        <time>2019-01-05T10:34:05Z</time>
      </trkpt>
      <trkpt lat="38.8643400" lon="-0.6600500">
        <ele>821.8</ele>
        <time>2019-01-05T10:34:09Z</time>
      </trkpt>
      <trkpt lat="38.8643340" lon="-0.6600510">
        <ele>822.0</ele>
        <time>2019-01-05T10:34:10Z</time>
      </trkpt>
      <trkpt lat="38.8643180" lon="-0.6600580">
        <ele>822.4</ele>
        <time>2019-01-05T10:34:14Z</time>
      </trkpt>
      <trkpt lat="38.8642820" lon="-0.6600630">
        <ele>823.2</ele>
        <time>2019-01-05T10:34:19Z</time>
      </trkpt>
      <trkpt lat="38.8642760" lon="-0.6600680">
        <ele>823.6</ele>
        <time>2019-01-05T10:34:20Z</time>
      </trkpt>
      <trkpt lat="38.8642670" lon="-0.6600750">
        <ele>824.4</ele>
        <time>2019-01-05T10:34:22Z</time>
      </trkpt>
      <trkpt lat="38.8642500" lon="-0.6600790">
        <ele>825.2</ele>
        <time>2019-01-05T10:34:26Z</time>
      </trkpt>
      <trkpt lat="38.8642170" lon="-0.6600900">
        <ele>825.8</ele>
        <time>2019-01-05T10:34:32Z</time>
      </trkpt>
      <trkpt lat="38.8642070" lon="-0.6600980">
        <ele>827.2</ele>
        <time>2019-01-05T10:34:34Z</time>
      </trkpt>
      <trkpt lat="38.8641750" lon="-0.6600990">
        <ele>828.2</ele>
        <time>2019-01-05T10:34:39Z</time>
      </trkpt>
      <trkpt lat="38.8641410" lon="-0.6601020">
        <ele>829.4</ele>
        <time>2019-01-05T10:34:44Z</time>
      </trkpt>
      <trkpt lat="38.8641140" lon="-0.6601050">
        <ele>830.6</ele>
        <time>2019-01-05T10:34:48Z</time>
      </trkpt>
      <trkpt lat="38.8641040" lon="-0.6601070">
        <ele>830.8</ele>
        <time>2019-01-05T10:34:50Z</time>
      </trkpt>
      <trkpt lat="38.8640830" lon="-0.6601040">
        <ele>831.6</ele>
        <time>2019-01-05T10:34:53Z</time>
      </trkpt>
      <trkpt lat="38.8640780" lon="-0.6600990">
        <ele>832.0</ele>
        <time>2019-01-05T10:34:55Z</time>
      </trkpt>
      <trkpt lat="38.8640590" lon="-0.6600900">
        <ele>832.4</ele>
        <time>2019-01-05T10:34:57Z</time>
      </trkpt>
      <trkpt lat="38.8640560" lon="-0.6600930">
        <ele>832.8</ele>
        <time>2019-01-05T10:34:58Z</time>
      </trkpt>
      <trkpt lat="38.8640500" lon="-0.6600910">
        <ele>833.0</ele>
        <time>2019-01-05T10:34:59Z</time>
      </trkpt>
      <trkpt lat="38.8640350" lon="-0.6600860">
        <ele>833.8</ele>
        <time>2019-01-05T10:35:02Z</time>
      </trkpt>
      <trkpt lat="38.8640250" lon="-0.6600800">
        <ele>834.0</ele>
        <time>2019-01-05T10:35:05Z</time>
      </trkpt>
      <trkpt lat="38.8640060" lon="-0.6600900">
        <ele>834.4</ele>
        <time>2019-01-05T10:35:10Z</time>
      </trkpt>
      <trkpt lat="38.8639890" lon="-0.6600860">
        <ele>835.0</ele>
        <time>2019-01-05T10:35:12Z</time>
      </trkpt>
      <trkpt lat="38.8639740" lon="-0.6600820">
        <ele>835.8</ele>
        <time>2019-01-05T10:35:15Z</time>
      </trkpt>
      <trkpt lat="38.8639410" lon="-0.6600730">
        <ele>836.2</ele>
        <time>2019-01-05T10:35:20Z</time>
      </trkpt>
      <trkpt lat="38.8638970" lon="-0.6600870">
        <ele>836.8</ele>
        <time>2019-01-05T10:35:25Z</time>
      </trkpt>
      <trkpt lat="38.8638800" lon="-0.6600920">
        <ele>837.4</ele>
        <time>2019-01-05T10:35:27Z</time>
      </trkpt>
      <trkpt lat="38.8638610" lon="-0.6600960">
        <ele>838.4</ele>
        <time>2019-01-05T10:35:30Z</time>
      </trkpt>
      <trkpt lat="38.8638530" lon="-0.6601060">
        <ele>839.6</ele>
        <time>2019-01-05T10:35:34Z</time>
      </trkpt>
      <trkpt lat="38.8638310" lon="-0.6601090">
        <ele>840.2</ele>
        <time>2019-01-05T10:35:37Z</time>
      </trkpt>
      <trkpt lat="38.8638170" lon="-0.6601180">
        <ele>840.6</ele>
        <time>2019-01-05T10:35:39Z</time>
      </trkpt>
      <trkpt lat="38.8637850" lon="-0.6601290">
        <ele>841.4</ele>
        <time>2019-01-05T10:35:42Z</time>
      </trkpt>
      <trkpt lat="38.8637750" lon="-0.6601290">
        <ele>841.8</ele>
        <time>2019-01-05T10:35:43Z</time>
      </trkpt>
      <trkpt lat="38.8637560" lon="-0.6601350">
        <ele>842.2</ele>
        <time>2019-01-05T10:35:47Z</time>
      </trkpt>
      <trkpt lat="38.8637180" lon="-0.6601310">
        <ele>843.0</ele>
        <time>2019-01-05T10:35:52Z</time>
      </trkpt>
      <trkpt lat="38.8637000" lon="-0.6601370">
        <ele>844.0</ele>
        <time>2019-01-05T10:35:56Z</time>
      </trkpt>
      <trkpt lat="38.8636780" lon="-0.6601330">
        <ele>844.6</ele>
        <time>2019-01-05T10:35:59Z</time>
      </trkpt>
      <trkpt lat="38.8636590" lon="-0.6601600">
        <ele>845.0</ele>
        <time>2019-01-05T10:36:03Z</time>
      </trkpt>
      <trkpt lat="38.8636490" lon="-0.6601590">
        <ele>845.6</ele>
        <time>2019-01-05T10:36:05Z</time>
      </trkpt>
      <trkpt lat="38.8636270" lon="-0.6601620">
        <ele>846.2</ele>
        <time>2019-01-05T10:36:07Z</time>
      </trkpt>
      <trkpt lat="38.8636140" lon="-0.6601680">
        <ele>846.8</ele>
        <time>2019-01-05T10:36:09Z</time>
      </trkpt>
      <trkpt lat="38.8635830" lon="-0.6601720">
        <ele>847.4</ele>
        <time>2019-01-05T10:36:12Z</time>
      </trkpt>
      <trkpt lat="38.8635770" lon="-0.6601720">
        <ele>847.4</ele>
        <time>2019-01-05T10:36:13Z</time>
      </trkpt>
      <trkpt lat="38.8635540" lon="-0.6601940">
        <ele>848.6</ele>
        <time>2019-01-05T10:36:17Z</time>
      </trkpt>
      <trkpt lat="38.8635460" lon="-0.6601970">
        <ele>848.8</ele>
        <time>2019-01-05T10:36:18Z</time>
      </trkpt>
      <trkpt lat="38.8635410" lon="-0.6602000">
        <ele>848.8</ele>
        <time>2019-01-05T10:36:19Z</time>
      </trkpt>
      <trkpt lat="38.8634970" lon="-0.6602220">
        <ele>849.8</ele>
        <time>2019-01-05T10:36:26Z</time>
      </trkpt>
      <trkpt lat="38.8634580" lon="-0.6602240">
        <ele>850.0</ele>
        <time>2019-01-05T10:36:30Z</time>
      </trkpt>
      <trkpt lat="38.8634150" lon="-0.6602230">
        <ele>850.8</ele>
        <time>2019-01-05T10:36:34Z</time>
      </trkpt>
      <trkpt lat="38.8634040" lon="-0.6602260">
        <ele>851.4</ele>
        <time>2019-01-05T10:36:35Z</time>
      </trkpt>
      <trkpt lat="38.8633950" lon="-0.6602310">
        <ele>851.8</ele>
        <time>2019-01-05T10:36:36Z</time>
      </trkpt>
      <trkpt lat="38.8633780" lon="-0.6602370">
        <ele>852.4</ele>
        <time>2019-01-05T10:36:39Z</time>
      </trkpt>
      <trkpt lat="38.8633560" lon="-0.6602490">
        <ele>852.6</ele>
        <time>2019-01-05T10:36:42Z</time>
      </trkpt>
      <trkpt lat="38.8633460" lon="-0.6602540">
        <ele>852.8</ele>
        <time>2019-01-05T10:36:43Z</time>
      </trkpt>
      <trkpt lat="38.8633370" lon="-0.6602580">
        <ele>853.0</ele>
        <time>2019-01-05T10:36:44Z</time>
      </trkpt>
      <trkpt lat="38.8633200" lon="-0.6602800">
        <ele>854.0</ele>
        <time>2019-01-05T10:36:47Z</time>
      </trkpt>
      <trkpt lat="38.8633120" lon="-0.6602840">
        <ele>854.4</ele>
        <time>2019-01-05T10:36:48Z</time>
      </trkpt>
      <trkpt lat="38.8632560" lon="-0.6603110">
        <ele>855.2</ele>
        <time>2019-01-05T10:36:54Z</time>
      </trkpt>
      <trkpt lat="38.8632230" lon="-0.6603390">
        <ele>855.8</ele>
        <time>2019-01-05T10:36:59Z</time>
      </trkpt>
      <trkpt lat="38.8631830" lon="-0.6603320">
        <ele>856.4</ele>
        <time>2019-01-05T10:37:01Z</time>
      </trkpt>
      <trkpt lat="38.8631680" lon="-0.6603420">
        <ele>857.2</ele>
        <time>2019-01-05T10:37:03Z</time>
      </trkpt>
      <trkpt lat="38.8631580" lon="-0.6603470">
        <ele>857.4</ele>
        <time>2019-01-05T10:37:04Z</time>
      </trkpt>
      <trkpt lat="38.8631330" lon="-0.6603500">
        <ele>857.8</ele>
        <time>2019-01-05T10:37:06Z</time>
      </trkpt>
      <trkpt lat="38.8631010" lon="-0.6603500">
        <ele>858.2</ele>
        <time>2019-01-05T10:37:09Z</time>
      </trkpt>
      <trkpt lat="38.8630830" lon="-0.6603580">
        <ele>858.6</ele>
        <time>2019-01-05T10:37:11Z</time>
      </trkpt>
      <trkpt lat="38.8630470" lon="-0.6603630">
        <ele>858.8</ele>
        <time>2019-01-05T10:37:13Z</time>
      </trkpt>
      <trkpt lat="38.8630250" lon="-0.6603580">
        <ele>858.8</ele>
        <time>2019-01-05T10:37:14Z</time>
      </trkpt>
      <trkpt lat="38.8629620" lon="-0.6603650">
        <ele>859.2</ele>
        <time>2019-01-05T10:37:18Z</time>
      </trkpt>
      <trkpt lat="38.8629050" lon="-0.6603950">
        <ele>859.4</ele>
        <time>2019-01-05T10:37:24Z</time>
      </trkpt>
      <trkpt lat="38.8628620" lon="-0.6604070">
        <ele>859.6</ele>
        <time>2019-01-05T10:37:28Z</time>
      </trkpt>
      <trkpt lat="38.8628550" lon="-0.6604110">
        <ele>859.6</ele>
        <time>2019-01-05T10:37:29Z</time>
      </trkpt>
      <trkpt lat="38.8628430" lon="-0.6604090">
        <ele>859.8</ele>
        <time>2019-01-05T10:37:30Z</time>
      </trkpt>
      <trkpt lat="38.8628100" lon="-0.6604180">
        <ele>860.2</ele>
        <time>2019-01-05T10:37:34Z</time>
      </trkpt>
      <trkpt lat="38.8628030" lon="-0.6604220">
        <ele>860.6</ele>
        <time>2019-01-05T10:37:35Z</time>
      </trkpt>
      <trkpt lat="38.8627960" lon="-0.6604250">
        <ele>860.8</ele>
        <time>2019-01-05T10:37:36Z</time>
      </trkpt>
      <trkpt lat="38.8627730" lon="-0.6604310">
        <ele>861.6</ele>
        <time>2019-01-05T10:37:39Z</time>
      </trkpt>
      <trkpt lat="38.8627620" lon="-0.6604370">
        <ele>862.0</ele>
        <time>2019-01-05T10:37:42Z</time>
      </trkpt>
      <trkpt lat="38.8627550" lon="-0.6604350">
        <ele>862.0</ele>
        <time>2019-01-05T10:37:43Z</time>
      </trkpt>
      <trkpt lat="38.8627290" lon="-0.6604500">
        <ele>863.0</ele>
        <time>2019-01-05T10:37:47Z</time>
      </trkpt>
      <trkpt lat="38.8627110" lon="-0.6604550">
        <ele>863.4</ele>
        <time>2019-01-05T10:37:49Z</time>
      </trkpt>
      <trkpt lat="38.8626850" lon="-0.6604570">
        <ele>864.4</ele>
        <time>2019-01-05T10:37:52Z</time>
      </trkpt>
      <trkpt lat="38.8626700" lon="-0.6604650">
        <ele>864.6</ele>
        <time>2019-01-05T10:37:54Z</time>
      </trkpt>
      <trkpt lat="38.8626440" lon="-0.6604810">
        <ele>865.4</ele>
        <time>2019-01-05T10:37:59Z</time>
      </trkpt>
      <trkpt lat="38.8626370" lon="-0.6604810">
        <ele>865.8</ele>
        <time>2019-01-05T10:38:00Z</time>
      </trkpt>
      <trkpt lat="38.8626130" lon="-0.6604880">
        <ele>866.4</ele>
        <time>2019-01-05T10:38:04Z</time>
      </trkpt>
      <trkpt lat="38.8626020" lon="-0.6604890">
        <ele>866.6</ele>
        <time>2019-01-05T10:38:05Z</time>
      </trkpt>
      <trkpt lat="38.8625880" lon="-0.6604900">
        <ele>867.0</ele>
        <time>2019-01-05T10:38:06Z</time>
      </trkpt>
      <trkpt lat="38.8625530" lon="-0.6604940">
        <ele>867.8</ele>
        <time>2019-01-05T10:38:09Z</time>
      </trkpt>
      <trkpt lat="38.8625400" lon="-0.6604990">
        <ele>868.2</ele>
        <time>2019-01-05T10:38:11Z</time>
      </trkpt>
      <trkpt lat="38.8625100" lon="-0.6605180">
        <ele>868.8</ele>
        <time>2019-01-05T10:38:15Z</time>
      </trkpt>
      <trkpt lat="38.8625040" lon="-0.6605250">
        <ele>869.2</ele>
        <time>2019-01-05T10:38:16Z</time>
      </trkpt>
      <trkpt lat="38.8624830" lon="-0.6605260">
        <ele>870.2</ele>
        <time>2019-01-05T10:38:20Z</time>
      </trkpt>
      <trkpt lat="38.8624760" lon="-0.6605310">
        <ele>870.4</ele>
        <time>2019-01-05T10:38:21Z</time>
      </trkpt>
      <trkpt lat="38.8624100" lon="-0.6605410">
        <ele>870.8</ele>
        <time>2019-01-05T10:38:26Z</time>
      </trkpt>
      <trkpt lat="38.8623920" lon="-0.6605440">
        <ele>871.0</ele>
        <time>2019-01-05T10:38:27Z</time>
      </trkpt>
      <trkpt lat="38.8623730" lon="-0.6605480">
        <ele>871.4</ele>
        <time>2019-01-05T10:38:28Z</time>
      </trkpt>
      <trkpt lat="38.8623450" lon="-0.6605660">
        <ele>871.8</ele>
        <time>2019-01-05T10:38:30Z</time>
      </trkpt>
      <trkpt lat="38.8623270" lon="-0.6605800">
        <ele>872.0</ele>
        <time>2019-01-05T10:38:32Z</time>
      </trkpt>
      <trkpt lat="38.8623030" lon="-0.6605900">
        <ele>871.4</ele>
        <time>2019-01-05T10:38:34Z</time>
      </trkpt>
      <trkpt lat="38.8622860" lon="-0.6605990">
        <ele>871.6</ele>
        <time>2019-01-05T10:38:36Z</time>
      </trkpt>
      <trkpt lat="38.8622480" lon="-0.6606070">
        <ele>872.6</ele>
        <time>2019-01-05T10:38:40Z</time>
      </trkpt>
      <trkpt lat="38.8622420" lon="-0.6606150">
        <ele>872.6</ele>
        <time>2019-01-05T10:38:41Z</time>
      </trkpt>
      <trkpt lat="38.8622230" lon="-0.6606270">
        <ele>872.8</ele>
        <time>2019-01-05T10:38:43Z</time>
      </trkpt>
      <trkpt lat="38.8622020" lon="-0.6606310">
        <ele>872.4</ele>
        <time>2019-01-05T10:38:45Z</time>
      </trkpt>
      <trkpt lat="38.8621710" lon="-0.6606320">
        <ele>872.8</ele>
        <time>2019-01-05T10:38:48Z</time>
      </trkpt>
      <trkpt lat="38.8621500" lon="-0.6606350">
        <ele>873.2</ele>
        <time>2019-01-05T10:38:50Z</time>
      </trkpt>
      <trkpt lat="38.8621320" lon="-0.6606330">
        <ele>873.8</ele>
        <time>2019-01-05T10:38:51Z</time>
      </trkpt>
      <trkpt lat="38.8620450" lon="-0.6606290">
        <ele>874.4</ele>
        <time>2019-01-05T10:38:55Z</time>
      </trkpt>
      <trkpt lat="38.8618930" lon="-0.6606140">
        <ele>874.8</ele>
        <time>2019-01-05T10:39:02Z</time>
      </trkpt>
      <trkpt lat="38.8618810" lon="-0.6606340">
        <ele>874.8</ele>
        <time>2019-01-05T10:39:05Z</time>
      </trkpt>
      <trkpt lat="38.8618730" lon="-0.6606680">
        <ele>875.4</ele>
        <time>2019-01-05T10:39:08Z</time>
      </trkpt>
      <trkpt lat="38.8618480" lon="-0.6606740">
        <ele>875.8</ele>
        <time>2019-01-05T10:39:10Z</time>
      </trkpt>
      <trkpt lat="38.8618360" lon="-0.6606740">
        <ele>876.0</ele>
        <time>2019-01-05T10:39:11Z</time>
      </trkpt>
      <trkpt lat="38.8618060" lon="-0.6606640">
        <ele>876.2</ele>
        <time>2019-01-05T10:39:14Z</time>
      </trkpt>
      <trkpt lat="38.8617830" lon="-0.6606510">
        <ele>875.6</ele>
        <time>2019-01-05T10:39:19Z</time>
      </trkpt>
      <trkpt lat="38.8617730" lon="-0.6606460">
        <ele>875.6</ele>
        <time>2019-01-05T10:39:21Z</time>
      </trkpt>
      <trkpt lat="38.8617550" lon="-0.6606280">
        <ele>875.2</ele>
        <time>2019-01-05T10:39:24Z</time>
      </trkpt>
      <trkpt lat="38.8617010" lon="-0.6605670">
        <ele>875.2</ele>
        <time>2019-01-05T10:39:31Z</time>
      </trkpt>
      <trkpt lat="38.8616930" lon="-0.6605600">
        <ele>875.2</ele>
        <time>2019-01-05T10:39:32Z</time>
      </trkpt>
      <trkpt lat="38.8616610" lon="-0.6605480">
        <ele>875.0</ele>
        <time>2019-01-05T10:39:35Z</time>
      </trkpt>
      <trkpt lat="38.8616490" lon="-0.6605670">
        <ele>874.8</ele>
        <time>2019-01-05T10:39:37Z</time>
      </trkpt>
      <trkpt lat="38.8616430" lon="-0.6605810">
        <ele>874.8</ele>
        <time>2019-01-05T10:39:38Z</time>
      </trkpt>
      <trkpt lat="38.8616250" lon="-0.6606370">
        <ele>875.2</ele>
        <time>2019-01-05T10:39:43Z</time>
      </trkpt>
      <trkpt lat="38.8616210" lon="-0.6606520">
        <ele>875.2</ele>
        <time>2019-01-05T10:39:45Z</time>
      </trkpt>
      <trkpt lat="38.8616160" lon="-0.6606490">
        <ele>874.8</ele>
        <time>2019-01-05T10:39:48Z</time>
      </trkpt>
      <trkpt lat="38.8616160" lon="-0.6606500">
        <ele>874.4</ele>
        <time>2019-01-05T10:39:50Z</time>
      </trkpt>
      <trkpt lat="38.8616090" lon="-0.6606970">
        <ele>874.2</ele>
        <time>2019-01-05T10:39:54Z</time>
      </trkpt>
      <trkpt lat="38.8615950" lon="-0.6607450">
        <ele>874.4</ele>
        <time>2019-01-05T10:39:57Z</time>
      </trkpt>
      <trkpt lat="38.8615730" lon="-0.6608470">
        <ele>873.6</ele>
        <time>2019-01-05T10:40:03Z</time>
      </trkpt>
      <trkpt lat="38.8615540" lon="-0.6609520">
        <ele>872.6</ele>
        <time>2019-01-05T10:40:09Z</time>
      </trkpt>
      <trkpt lat="38.8615520" lon="-0.6609650">
        <ele>872.6</ele>
        <time>2019-01-05T10:40:10Z</time>
      </trkpt>
      <trkpt lat="38.8615490" lon="-0.6609800">
        <ele>872.4</ele>
        <time>2019-01-05T10:40:11Z</time>
      </trkpt>
      <trkpt lat="38.8615440" lon="-0.6610220">
        <ele>872.2</ele>
        <time>2019-01-05T10:40:14Z</time>
      </trkpt>
      <trkpt lat="38.8615380" lon="-0.6610540">
        <ele>872.2</ele>
        <time>2019-01-05T10:40:16Z</time>
      </trkpt>
      <trkpt lat="38.8615320" lon="-0.6610680">
        <ele>872.2</ele>
        <time>2019-01-05T10:40:17Z</time>
      </trkpt>
      <trkpt lat="38.8615060" lon="-0.6611430">
        <ele>872.4</ele>
        <time>2019-01-05T10:40:21Z</time>
      </trkpt>
      <trkpt lat="38.8614950" lon="-0.6611640">
        <ele>872.4</ele>
        <time>2019-01-05T10:40:22Z</time>
      </trkpt>
      <trkpt lat="38.8614640" lon="-0.6612480">
        <ele>872.6</ele>
        <time>2019-01-05T10:40:26Z</time>
      </trkpt>
      <trkpt lat="38.8614570" lon="-0.6612660">
        <ele>872.6</ele>
        <time>2019-01-05T10:40:27Z</time>
      </trkpt>
      <trkpt lat="38.8614230" lon="-0.6613500">
        <ele>871.8</ele>
        <time>2019-01-05T10:40:32Z</time>
      </trkpt>
      <trkpt lat="38.8614180" lon="-0.6613620">
        <ele>871.4</ele>
        <time>2019-01-05T10:40:33Z</time>
      </trkpt>
      <trkpt lat="38.8614010" lon="-0.6614350">
        <ele>870.8</ele>
        <time>2019-01-05T10:40:38Z</time>
      </trkpt>
      <trkpt lat="38.8613870" lon="-0.6614750">
        <ele>870.4</ele>
        <time>2019-01-05T10:40:41Z</time>
      </trkpt>
      <trkpt lat="38.8613780" lon="-0.6615200">
        <ele>869.4</ele>
        <time>2019-01-05T10:40:44Z</time>
      </trkpt>
      <trkpt lat="38.8613740" lon="-0.6615520">
        <ele>868.8</ele>
        <time>2019-01-05T10:40:46Z</time>
      </trkpt>
      <trkpt lat="38.8613650" lon="-0.6616030">
        <ele>868.4</ele>
        <time>2019-01-05T10:40:49Z</time>
      </trkpt>
      <trkpt lat="38.8613630" lon="-0.6616180">
        <ele>868.4</ele>
        <time>2019-01-05T10:40:50Z</time>
      </trkpt>
      <trkpt lat="38.8613480" lon="-0.6616570">
        <ele>868.2</ele>
        <time>2019-01-05T10:40:53Z</time>
      </trkpt>
      <trkpt lat="38.8613260" lon="-0.6617390">
        <ele>867.6</ele>
        <time>2019-01-05T10:40:58Z</time>
      </trkpt>
      <trkpt lat="38.8613240" lon="-0.6617750">
        <ele>867.2</ele>
        <time>2019-01-05T10:41:00Z</time>
      </trkpt>
      <trkpt lat="38.8613070" lon="-0.6618420">
        <ele>866.6</ele>
        <time>2019-01-05T10:41:05Z</time>
      </trkpt>
      <trkpt lat="38.8613040" lon="-0.6618570">
        <ele>866.6</ele>
        <time>2019-01-05T10:41:06Z</time>
      </trkpt>
      <trkpt lat="38.8612940" lon="-0.6618870">
        <ele>866.6</ele>
        <time>2019-01-05T10:41:08Z</time>
      </trkpt>
      <trkpt lat="38.8612790" lon="-0.6619180">
        <ele>866.4</ele>
        <time>2019-01-05T10:41:10Z</time>
      </trkpt>
      <trkpt lat="38.8612740" lon="-0.6619360">
        <ele>866.2</ele>
        <time>2019-01-05T10:41:11Z</time>
      </trkpt>
      <trkpt lat="38.8612700" lon="-0.6619810">
        <ele>865.6</ele>
        <time>2019-01-05T10:41:14Z</time>
      </trkpt>
      <trkpt lat="38.8612590" lon="-0.6620120">
        <ele>865.6</ele>
        <time>2019-01-05T10:41:16Z</time>
      </trkpt>
      <trkpt lat="38.8612540" lon="-0.6620260">
        <ele>865.4</ele>
        <time>2019-01-05T10:41:17Z</time>
      </trkpt>
      <trkpt lat="38.8612460" lon="-0.6620640">
        <ele>865.0</ele>
        <time>2019-01-05T10:41:19Z</time>
      </trkpt>
      <trkpt lat="38.8612340" lon="-0.6620930">
        <ele>863.8</ele>
        <time>2019-01-05T10:41:21Z</time>
      </trkpt>
      <trkpt lat="38.8612250" lon="-0.6621050">
        <ele>863.2</ele>
        <time>2019-01-05T10:41:22Z</time>
      </trkpt>
      <trkpt lat="38.8612150" lon="-0.6621260">
        <ele>862.8</ele>
        <time>2019-01-05T10:41:23Z</time>
      </trkpt>
      <trkpt lat="38.8611770" lon="-0.6622010">
        <ele>862.6</ele>
        <time>2019-01-05T10:41:26Z</time>
      </trkpt>
      <trkpt lat="38.8611250" lon="-0.6623270">
        <ele>861.6</ele>
        <time>2019-01-05T10:41:31Z</time>
      </trkpt>
      <trkpt lat="38.8611060" lon="-0.6623820">
        <ele>860.4</ele>
        <time>2019-01-05T10:41:33Z</time>
      </trkpt>
      <trkpt lat="38.8610870" lon="-0.6624380">
        <ele>859.6</ele>
        <time>2019-01-05T10:41:35Z</time>
      </trkpt>
      <trkpt lat="38.8610770" lon="-0.6624670">
        <ele>859.4</ele>
        <time>2019-01-05T10:41:36Z</time>
      </trkpt>
      <trkpt lat="38.8610390" lon="-0.6626130">
        <ele>858.4</ele>
        <time>2019-01-05T10:41:41Z</time>
      </trkpt>
      <trkpt lat="38.8610210" lon="-0.6626670">
        <ele>858.2</ele>
        <time>2019-01-05T10:41:43Z</time>
      </trkpt>
      <trkpt lat="38.8609950" lon="-0.6627540">
        <ele>857.8</ele>
        <time>2019-01-05T10:41:46Z</time>
      </trkpt>
      <trkpt lat="38.8609670" lon="-0.6628470">
        <ele>857.0</ele>
        <time>2019-01-05T10:41:49Z</time>
      </trkpt>
      <trkpt lat="38.8609420" lon="-0.6629160">
        <ele>856.8</ele>
        <time>2019-01-05T10:41:51Z</time>
      </trkpt>
      <trkpt lat="38.8609030" lon="-0.6630280">
        <ele>856.0</ele>
        <time>2019-01-05T10:41:54Z</time>
      </trkpt>
      <trkpt lat="38.8608940" lon="-0.6630650">
        <ele>855.6</ele>
        <time>2019-01-05T10:41:55Z</time>
      </trkpt>
      <trkpt lat="38.8608620" lon="-0.6631600">
        <ele>855.4</ele>
        <time>2019-01-05T10:41:58Z</time>
      </trkpt>
      <trkpt lat="38.8608220" lon="-0.6632850">
        <ele>855.4</ele>
        <time>2019-01-05T10:42:02Z</time>
      </trkpt>
      <trkpt lat="38.8608280" lon="-0.6634580">
        <ele>855.4</ele>
        <time>2019-01-05T10:42:07Z</time>
      </trkpt>
      <trkpt lat="38.8608970" lon="-0.6635960">
        <ele>855.0</ele>
        <time>2019-01-05T10:42:12Z</time>
      </trkpt>
      <trkpt lat="38.8609100" lon="-0.6636200">
        <ele>854.8</ele>
        <time>2019-01-05T10:42:13Z</time>
      </trkpt>
      <trkpt lat="38.8609680" lon="-0.6637100">
        <ele>854.4</ele>
        <time>2019-01-05T10:42:17Z</time>
      </trkpt>
      <trkpt lat="38.8610080" lon="-0.6637820">
        <ele>854.2</ele>
        <time>2019-01-05T10:42:20Z</time>
      </trkpt>
      <trkpt lat="38.8610460" lon="-0.6638550">
        <ele>853.4</ele>
        <time>2019-01-05T10:42:23Z</time>
      </trkpt>
      <trkpt lat="38.8610530" lon="-0.6638770">
        <ele>853.0</ele>
        <time>2019-01-05T10:42:24Z</time>
      </trkpt>
      <trkpt lat="38.8610650" lon="-0.6639000">
        <ele>852.6</ele>
        <time>2019-01-05T10:42:25Z</time>
      </trkpt>
      <trkpt lat="38.8610770" lon="-0.6639270">
        <ele>852.2</ele>
        <time>2019-01-05T10:42:26Z</time>
      </trkpt>
      <trkpt lat="38.8610930" lon="-0.6639760">
        <ele>851.4</ele>
        <time>2019-01-05T10:42:28Z</time>
      </trkpt>
      <trkpt lat="38.8611010" lon="-0.6640030">
        <ele>850.8</ele>
        <time>2019-01-05T10:42:29Z</time>
      </trkpt>
      <trkpt lat="38.8611230" lon="-0.6640710">
        <ele>849.8</ele>
        <time>2019-01-05T10:42:32Z</time>
      </trkpt>
      <trkpt lat="38.8611350" lon="-0.6640950">
        <ele>849.6</ele>
        <time>2019-01-05T10:42:33Z</time>
      </trkpt>
      <trkpt lat="38.8611670" lon="-0.6641710">
        <ele>848.6</ele>
        <time>2019-01-05T10:42:36Z</time>
      </trkpt>
      <trkpt lat="38.8611740" lon="-0.6641920">
        <ele>848.2</ele>
        <time>2019-01-05T10:42:37Z</time>
      </trkpt>
      <trkpt lat="38.8611870" lon="-0.6642640">
        <ele>847.4</ele>
        <time>2019-01-05T10:42:40Z</time>
      </trkpt>
      <trkpt lat="38.8611910" lon="-0.6642920">
        <ele>846.8</ele>
        <time>2019-01-05T10:42:41Z</time>
      </trkpt>
      <trkpt lat="38.8612000" lon="-0.6643400">
        <ele>846.2</ele>
        <time>2019-01-05T10:42:43Z</time>
      </trkpt>
      <trkpt lat="38.8611960" lon="-0.6643930">
        <ele>845.8</ele>
        <time>2019-01-05T10:42:45Z</time>
      </trkpt>
      <trkpt lat="38.8611800" lon="-0.6644700">
        <ele>845.4</ele>
        <time>2019-01-05T10:42:48Z</time>
      </trkpt>
      <trkpt lat="38.8611760" lon="-0.6645050">
        <ele>845.2</ele>
        <time>2019-01-05T10:42:49Z</time>
      </trkpt>
      <trkpt lat="38.8611510" lon="-0.6645880">
        <ele>844.4</ele>
        <time>2019-01-05T10:42:52Z</time>
      </trkpt>
      <trkpt lat="38.8611460" lon="-0.6646150">
        <ele>844.0</ele>
        <time>2019-01-05T10:42:53Z</time>
      </trkpt>
      <trkpt lat="38.8611310" lon="-0.6646640">
        <ele>843.0</ele>
        <time>2019-01-05T10:42:55Z</time>
      </trkpt>
      <trkpt lat="38.8610920" lon="-0.6647780">
        <ele>842.2</ele>
        <time>2019-01-05T10:42:59Z</time>
      </trkpt>
      <trkpt lat="38.8610820" lon="-0.6648120">
        <ele>842.0</ele>
        <time>2019-01-05T10:43:00Z</time>
      </trkpt>
      <trkpt lat="38.8610380" lon="-0.6649160">
        <ele>840.6</ele>
        <time>2019-01-05T10:43:04Z</time>
      </trkpt>
      <trkpt lat="38.8609970" lon="-0.6649680">
        <ele>840.0</ele>
        <time>2019-01-05T10:43:07Z</time>
      </trkpt>
      <trkpt lat="38.8609600" lon="-0.6650250">
        <ele>840.0</ele>
        <time>2019-01-05T10:43:09Z</time>
      </trkpt>
      <trkpt lat="38.8609310" lon="-0.6650690">
        <ele>839.4</ele>
        <time>2019-01-05T10:43:11Z</time>
      </trkpt>
      <trkpt lat="38.8609170" lon="-0.6650900">
        <ele>838.8</ele>
        <time>2019-01-05T10:43:12Z</time>
      </trkpt>
      <trkpt lat="38.8608990" lon="-0.6651100">
        <ele>838.4</ele>
        <time>2019-01-05T10:43:13Z</time>
      </trkpt>
      <trkpt lat="38.8608160" lon="-0.6651990">
        <ele>837.2</ele>
        <time>2019-01-05T10:43:17Z</time>
      </trkpt>
      <trkpt lat="38.8607980" lon="-0.6652190">
        <ele>837.0</ele>
        <time>2019-01-05T10:43:18Z</time>
      </trkpt>
      <trkpt lat="38.8607810" lon="-0.6652360">
        <ele>837.0</ele>
        <time>2019-01-05T10:43:19Z</time>
      </trkpt>
      <trkpt lat="38.8607240" lon="-0.6652900">
        <ele>836.2</ele>
        <time>2019-01-05T10:43:22Z</time>
      </trkpt>
      <trkpt lat="38.8606870" lon="-0.6653450">
        <ele>834.8</ele>
        <time>2019-01-05T10:43:25Z</time>
      </trkpt>
      <trkpt lat="38.8606570" lon="-0.6653680">
        <ele>834.4</ele>
        <time>2019-01-05T10:43:27Z</time>
      </trkpt>
      <trkpt lat="38.8605940" lon="-0.6654260">
        <ele>833.8</ele>
        <time>2019-01-05T10:43:31Z</time>
      </trkpt>
      <trkpt lat="38.8605230" lon="-0.6654810">
        <ele>832.6</ele>
        <time>2019-01-05T10:43:35Z</time>
      </trkpt>
      <trkpt lat="38.8604800" lon="-0.6655160">
        <ele>832.4</ele>
        <time>2019-01-05T10:43:37Z</time>
      </trkpt>
      <trkpt lat="38.8604430" lon="-0.6655520">
        <ele>831.6</ele>
        <time>2019-01-05T10:43:39Z</time>
      </trkpt>
      <trkpt lat="38.8604060" lon="-0.6655700">
        <ele>830.8</ele>
        <time>2019-01-05T10:43:41Z</time>
      </trkpt>
      <trkpt lat="38.8603690" lon="-0.6655900">
        <ele>830.6</ele>
        <time>2019-01-05T10:43:43Z</time>
      </trkpt>
      <trkpt lat="38.8603550" lon="-0.6656030">
        <ele>830.6</ele>
        <time>2019-01-05T10:43:44Z</time>
      </trkpt>
      <trkpt lat="38.8603410" lon="-0.6656150">
        <ele>830.4</ele>
        <time>2019-01-05T10:43:45Z</time>
      </trkpt>
      <trkpt lat="38.8603230" lon="-0.6656270">
        <ele>830.4</ele>
        <time>2019-01-05T10:43:46Z</time>
      </trkpt>
      <trkpt lat="38.8602550" lon="-0.6656390">
        <ele>829.4</ele>
        <time>2019-01-05T10:43:49Z</time>
      </trkpt>
      <trkpt lat="38.8602170" lon="-0.6656620">
        <ele>828.0</ele>
        <time>2019-01-05T10:43:51Z</time>
      </trkpt>
      <trkpt lat="38.8601930" lon="-0.6656990">
        <ele>827.6</ele>
        <time>2019-01-05T10:43:53Z</time>
      </trkpt>
      <trkpt lat="38.8601910" lon="-0.6657270">
        <ele>827.4</ele>
        <time>2019-01-05T10:43:54Z</time>
      </trkpt>
      <trkpt lat="38.8602120" lon="-0.6657840">
        <ele>826.6</ele>
        <time>2019-01-05T10:43:56Z</time>
      </trkpt>
      <trkpt lat="38.8602520" lon="-0.6658510">
        <ele>825.4</ele>
        <time>2019-01-05T10:43:59Z</time>
      </trkpt>
      <trkpt lat="38.8602790" lon="-0.6658790">
        <ele>825.2</ele>
        <time>2019-01-05T10:44:01Z</time>
      </trkpt>
      <trkpt lat="38.8602830" lon="-0.6658800">
        <ele>825.2</ele>
        <time>2019-01-05T10:44:03Z</time>
      </trkpt>
      <trkpt lat="38.8602830" lon="-0.6658780">
        <ele>824.6</ele>
        <time>2019-01-05T10:44:05Z</time>
      </trkpt>
      <trkpt lat="38.8602820" lon="-0.6658760">
        <ele>824.2</ele>
        <time>2019-01-05T10:44:06Z</time>
      </trkpt>
      <trkpt lat="38.8602780" lon="-0.6658780">
        <ele>824.0</ele>
        <time>2019-01-05T10:44:11Z</time>
      </trkpt>
      <trkpt lat="38.8602840" lon="-0.6658820">
        <ele>824.2</ele>
        <time>2019-01-05T10:44:12Z</time>
      </trkpt>
      <trkpt lat="38.8603140" lon="-0.6659390">
        <ele>824.6</ele>
        <time>2019-01-05T10:44:16Z</time>
      </trkpt>
      <trkpt lat="38.8603410" lon="-0.6659630">
        <ele>824.2</ele>
        <time>2019-01-05T10:44:18Z</time>
      </trkpt>
      <trkpt lat="38.8603900" lon="-0.6660070">
        <ele>823.2</ele>
        <time>2019-01-05T10:44:21Z</time>
      </trkpt>
      <trkpt lat="38.8604560" lon="-0.6660860">
        <ele>822.0</ele>
        <time>2019-01-05T10:44:25Z</time>
      </trkpt>
      <trkpt lat="38.8604750" lon="-0.6661020">
        <ele>821.6</ele>
        <time>2019-01-05T10:44:26Z</time>
      </trkpt>
      <trkpt lat="38.8605390" lon="-0.6661480">
        <ele>820.6</ele>
        <time>2019-01-05T10:44:29Z</time>
      </trkpt>
      <trkpt lat="38.8606140" lon="-0.6662010">
        <ele>819.4</ele>
        <time>2019-01-05T10:44:33Z</time>
      </trkpt>
      <trkpt lat="38.8606760" lon="-0.6662360">
        <ele>818.2</ele>
        <time>2019-01-05T10:44:37Z</time>
      </trkpt>
      <trkpt lat="38.8606840" lon="-0.6663090">
        <ele>817.0</ele>
        <time>2019-01-05T10:44:40Z</time>
      </trkpt>
      <trkpt lat="38.8606860" lon="-0.6663350">
        <ele>816.6</ele>
        <time>2019-01-05T10:44:41Z</time>
      </trkpt>
      <trkpt lat="38.8606840" lon="-0.6663500">
        <ele>816.0</ele>
        <time>2019-01-05T10:44:42Z</time>
      </trkpt>
      <trkpt lat="38.8606710" lon="-0.6663670">
        <ele>815.6</ele>
        <time>2019-01-05T10:44:43Z</time>
      </trkpt>
      <trkpt lat="38.8606570" lon="-0.6663870">
        <ele>815.4</ele>
        <time>2019-01-05T10:44:44Z</time>
      </trkpt>
      <trkpt lat="38.8605950" lon="-0.6664660">
        <ele>814.4</ele>
        <time>2019-01-05T10:44:48Z</time>
      </trkpt>
      <trkpt lat="38.8605520" lon="-0.6665260">
        <ele>813.4</ele>
        <time>2019-01-05T10:44:51Z</time>
      </trkpt>
      <trkpt lat="38.8605420" lon="-0.6665450">
        <ele>813.2</ele>
        <time>2019-01-05T10:44:52Z</time>
      </trkpt>
      <trkpt lat="38.8604880" lon="-0.6666250">
        <ele>812.0</ele>
        <time>2019-01-05T10:44:56Z</time>
      </trkpt>
      <trkpt lat="38.8604330" lon="-0.6667140">
        <ele>811.0</ele>
        <time>2019-01-05T10:45:00Z</time>
      </trkpt>
      <trkpt lat="38.8604160" lon="-0.6667300">
        <ele>810.8</ele>
        <time>2019-01-05T10:45:01Z</time>
      </trkpt>
      <trkpt lat="38.8603790" lon="-0.6667580">
        <ele>810.2</ele>
        <time>2019-01-05T10:45:03Z</time>
      </trkpt>
      <trkpt lat="38.8603600" lon="-0.6667720">
        <ele>809.6</ele>
        <time>2019-01-05T10:45:04Z</time>
      </trkpt>
      <trkpt lat="38.8603410" lon="-0.6667870">
        <ele>809.4</ele>
        <time>2019-01-05T10:45:05Z</time>
      </trkpt>
      <trkpt lat="38.8603020" lon="-0.6668450">
        <ele>808.8</ele>
        <time>2019-01-05T10:45:08Z</time>
      </trkpt>
      <trkpt lat="38.8602780" lon="-0.6668630">
        <ele>808.6</ele>
        <time>2019-01-05T10:45:09Z</time>
      </trkpt>
      <trkpt lat="38.8602440" lon="-0.6669090">
        <ele>808.0</ele>
        <time>2019-01-05T10:45:11Z</time>
      </trkpt>
      <trkpt lat="38.8602270" lon="-0.6669340">
        <ele>807.6</ele>
        <time>2019-01-05T10:45:12Z</time>
      </trkpt>
      <trkpt lat="38.8601710" lon="-0.6670150">
        <ele>806.4</ele>
        <time>2019-01-05T10:45:15Z</time>
      </trkpt>
      <trkpt lat="38.8601180" lon="-0.6671630">
        <ele>805.8</ele>
        <time>2019-01-05T10:45:20Z</time>
      </trkpt>
      <trkpt lat="38.8601130" lon="-0.6672010">
        <ele>805.6</ele>
        <time>2019-01-05T10:45:21Z</time>
      </trkpt>
      <trkpt lat="38.8601220" lon="-0.6672890">
        <ele>805.4</ele>
        <time>2019-01-05T10:45:23Z</time>
      </trkpt>
      <trkpt lat="38.8601390" lon="-0.6673260">
        <ele>805.2</ele>
        <time>2019-01-05T10:45:24Z</time>
      </trkpt>
      <trkpt lat="38.8602050" lon="-0.6673980">
        <ele>805.0</ele>
        <time>2019-01-05T10:45:27Z</time>
      </trkpt>
      <trkpt lat="38.8602730" lon="-0.6674680">
        <ele>804.2</ele>
        <time>2019-01-05T10:45:30Z</time>
      </trkpt>
      <trkpt lat="38.8602980" lon="-0.6674890">
        <ele>803.8</ele>
        <time>2019-01-05T10:45:31Z</time>
      </trkpt>
      <trkpt lat="38.8604090" lon="-0.6676040">
        <ele>803.2</ele>
        <time>2019-01-05T10:45:36Z</time>
      </trkpt>
      <trkpt lat="38.8604310" lon="-0.6676260">
        <ele>803.0</ele>
        <time>2019-01-05T10:45:37Z</time>
      </trkpt>
      <trkpt lat="38.8604920" lon="-0.6676970">
        <ele>801.8</ele>
        <time>2019-01-05T10:45:40Z</time>
      </trkpt>
      <trkpt lat="38.8605120" lon="-0.6677210">
        <ele>801.4</ele>
        <time>2019-01-05T10:45:41Z</time>
      </trkpt>
      <trkpt lat="38.8606050" lon="-0.6678410">
        <ele>801.0</ele>
        <time>2019-01-05T10:45:46Z</time>
      </trkpt>
      <trkpt lat="38.8606710" lon="-0.6679700">
        <ele>800.6</ele>
        <time>2019-01-05T10:45:51Z</time>
      </trkpt>
      <trkpt lat="38.8606870" lon="-0.6680760">
        <ele>799.8</ele>
        <time>2019-01-05T10:45:55Z</time>
      </trkpt>
      <trkpt lat="38.8606870" lon="-0.6681110">
        <ele>799.6</ele>
        <time>2019-01-05T10:45:56Z</time>
      </trkpt>
      <trkpt lat="38.8606890" lon="-0.6682740">
        <ele>799.0</ele>
        <time>2019-01-05T10:46:01Z</time>
      </trkpt>
      <trkpt lat="38.8606930" lon="-0.6683480">
        <ele>798.4</ele>
        <time>2019-01-05T10:46:03Z</time>
      </trkpt>
      <trkpt lat="38.8607010" lon="-0.6684190">
        <ele>797.4</ele>
        <time>2019-01-05T10:46:05Z</time>
      </trkpt>
      <trkpt lat="38.8607030" lon="-0.6684530">
        <ele>797.2</ele>
        <time>2019-01-05T10:46:06Z</time>
      </trkpt>
      <trkpt lat="38.8607480" lon="-0.6686120">
        <ele>796.0</ele>
        <time>2019-01-05T10:46:11Z</time>
      </trkpt>
      <trkpt lat="38.8608200" lon="-0.6687300">
        <ele>795.0</ele>
        <time>2019-01-05T10:46:15Z</time>
      </trkpt>
      <trkpt lat="38.8608930" lon="-0.6688080">
        <ele>794.2</ele>
        <time>2019-01-05T10:46:18Z</time>
      </trkpt>
      <trkpt lat="38.8609640" lon="-0.6688800">
        <ele>793.8</ele>
        <time>2019-01-05T10:46:21Z</time>
      </trkpt>
      <trkpt lat="38.8610840" lon="-0.6690170">
        <ele>793.2</ele>
        <time>2019-01-05T10:46:26Z</time>
      </trkpt>
      <trkpt lat="38.8611990" lon="-0.6691150">
        <ele>792.8</ele>
        <time>2019-01-05T10:46:31Z</time>
      </trkpt>
      <trkpt lat="38.8613470" lon="-0.6692410">
        <ele>792.0</ele>
        <time>2019-01-05T10:46:37Z</time>
      </trkpt>
      <trkpt lat="38.8614000" lon="-0.6692850">
        <ele>791.6</ele>
        <time>2019-01-05T10:46:39Z</time>
      </trkpt>
      <trkpt lat="38.8614690" lon="-0.6693600">
        <ele>791.4</ele>
        <time>2019-01-05T10:46:42Z</time>
      </trkpt>
      <trkpt lat="38.8616090" lon="-0.6694720">
        <ele>791.2</ele>
        <time>2019-01-05T10:46:47Z</time>
      </trkpt>
      <trkpt lat="38.8617460" lon="-0.6695600">
        <ele>790.8</ele>
        <time>2019-01-05T10:46:52Z</time>
      </trkpt>
      <trkpt lat="38.8617670" lon="-0.6695740">
        <ele>790.0</ele>
        <time>2019-01-05T10:46:53Z</time>
      </trkpt>
      <trkpt lat="38.8618220" lon="-0.6695960">
        <ele>788.4</ele>
        <time>2019-01-05T10:46:55Z</time>
      </trkpt>
      <trkpt lat="38.8618520" lon="-0.6696050">
        <ele>788.4</ele>
        <time>2019-01-05T10:46:56Z</time>
      </trkpt>
      <trkpt lat="38.8620370" lon="-0.6696700">
        <ele>788.4</ele>
        <time>2019-01-05T10:47:02Z</time>
      </trkpt>
      <trkpt lat="38.8620950" lon="-0.6696970">
        <ele>788.4</ele>
        <time>2019-01-05T10:47:04Z</time>
      </trkpt>
      <trkpt lat="38.8622480" lon="-0.6697770">
        <ele>787.6</ele>
        <time>2019-01-05T10:47:10Z</time>
      </trkpt>
      <trkpt lat="38.8622740" lon="-0.6697970">
        <ele>787.2</ele>
        <time>2019-01-05T10:47:11Z</time>
      </trkpt>
      <trkpt lat="38.8623740" lon="-0.6698720">
        <ele>786.8</ele>
        <time>2019-01-05T10:47:15Z</time>
      </trkpt>
      <trkpt lat="38.8624850" lon="-0.6699860">
        <ele>786.8</ele>
        <time>2019-01-05T10:47:20Z</time>
      </trkpt>
      <trkpt lat="38.8625490" lon="-0.6700540">
        <ele>786.0</ele>
        <time>2019-01-05T10:47:23Z</time>
      </trkpt>
      <trkpt lat="38.8625690" lon="-0.6700830">
        <ele>786.0</ele>
        <time>2019-01-05T10:47:24Z</time>
      </trkpt>
      <trkpt lat="38.8626380" lon="-0.6701630">
        <ele>785.2</ele>
        <time>2019-01-05T10:47:27Z</time>
      </trkpt>
      <trkpt lat="38.8626700" lon="-0.6702240">
        <ele>785.0</ele>
        <time>2019-01-05T10:47:29Z</time>
      </trkpt>
      <trkpt lat="38.8626930" lon="-0.6702420">
        <ele>785.0</ele>
        <time>2019-01-05T10:47:30Z</time>
      </trkpt>
      <trkpt lat="38.8627880" lon="-0.6703320">
        <ele>784.2</ele>
        <time>2019-01-05T10:47:34Z</time>
      </trkpt>
      <trkpt lat="38.8628350" lon="-0.6703820">
        <ele>784.0</ele>
        <time>2019-01-05T10:47:36Z</time>
      </trkpt>
      <trkpt lat="38.8629220" lon="-0.6704780">
        <ele>784.0</ele>
        <time>2019-01-05T10:47:40Z</time>
      </trkpt>
      <trkpt lat="38.8629590" lon="-0.6705210">
        <ele>784.2</ele>
        <time>2019-01-05T10:47:42Z</time>
      </trkpt>
      <trkpt lat="38.8630190" lon="-0.6705930">
        <ele>782.6</ele>
        <time>2019-01-05T10:47:45Z</time>
      </trkpt>
      <trkpt lat="38.8630400" lon="-0.6706160">
        <ele>782.4</ele>
        <time>2019-01-05T10:47:46Z</time>
      </trkpt>
      <trkpt lat="38.8631880" lon="-0.6708000">
        <ele>782.2</ele>
        <time>2019-01-05T10:47:53Z</time>
      </trkpt>
      <trkpt lat="38.8632360" lon="-0.6708840">
        <ele>781.6</ele>
        <time>2019-01-05T10:47:56Z</time>
      </trkpt>
      <trkpt lat="38.8632660" lon="-0.6709400">
        <ele>781.0</ele>
        <time>2019-01-05T10:47:58Z</time>
      </trkpt>
      <trkpt lat="38.8633090" lon="-0.6710670">
        <ele>780.4</ele>
        <time>2019-01-05T10:48:02Z</time>
      </trkpt>
      <trkpt lat="38.8633500" lon="-0.6712080">
        <ele>779.2</ele>
        <time>2019-01-05T10:48:06Z</time>
      </trkpt>
      <trkpt lat="38.8633660" lon="-0.6712790">
        <ele>779.0</ele>
        <time>2019-01-05T10:48:08Z</time>
      </trkpt>
      <trkpt lat="38.8633910" lon="-0.6713790">
        <ele>778.0</ele>
        <time>2019-01-05T10:48:11Z</time>
      </trkpt>
      <trkpt lat="38.8634020" lon="-0.6714490">
        <ele>777.8</ele>
        <time>2019-01-05T10:48:13Z</time>
      </trkpt>
      <trkpt lat="38.8634060" lon="-0.6716110">
        <ele>778.0</ele>
        <time>2019-01-05T10:48:17Z</time>
      </trkpt>
      <trkpt lat="38.8633880" lon="-0.6717930">
        <ele>777.0</ele>
        <time>2019-01-05T10:48:22Z</time>
      </trkpt>
      <trkpt lat="38.8633780" lon="-0.6718260">
        <ele>776.6</ele>
        <time>2019-01-05T10:48:23Z</time>
      </trkpt>
      <trkpt lat="38.8633470" lon="-0.6719260">
        <ele>775.6</ele>
        <time>2019-01-05T10:48:26Z</time>
      </trkpt>
      <trkpt lat="38.8633410" lon="-0.6719650">
        <ele>775.0</ele>
        <time>2019-01-05T10:48:27Z</time>
      </trkpt>
      <trkpt lat="38.8633270" lon="-0.6721130">
        <ele>774.6</ele>
        <time>2019-01-05T10:48:31Z</time>
      </trkpt>
      <trkpt lat="38.8633260" lon="-0.6721520">
        <ele>774.4</ele>
        <time>2019-01-05T10:48:32Z</time>
      </trkpt>
      <trkpt lat="38.8633450" lon="-0.6722550">
        <ele>773.2</ele>
        <time>2019-01-05T10:48:35Z</time>
      </trkpt>
      <trkpt lat="38.8633560" lon="-0.6722880">
        <ele>772.8</ele>
        <time>2019-01-05T10:48:36Z</time>
      </trkpt>
      <trkpt lat="38.8633850" lon="-0.6723580">
        <ele>772.0</ele>
        <time>2019-01-05T10:48:38Z</time>
      </trkpt>
      <trkpt lat="38.8634410" lon="-0.6724620">
        <ele>772.0</ele>
        <time>2019-01-05T10:48:41Z</time>
      </trkpt>
      <trkpt lat="38.8635480" lon="-0.6725630">
        <ele>771.0</ele>
        <time>2019-01-05T10:48:46Z</time>
      </trkpt>
      <trkpt lat="38.8636820" lon="-0.6726830">
        <ele>770.0</ele>
        <time>2019-01-05T10:48:52Z</time>
      </trkpt>
      <trkpt lat="38.8637040" lon="-0.6727020">
        <ele>769.8</ele>
        <time>2019-01-05T10:48:53Z</time>
      </trkpt>
      <trkpt lat="38.8637980" lon="-0.6727740">
        <ele>768.8</ele>
        <time>2019-01-05T10:48:57Z</time>
      </trkpt>
      <trkpt lat="38.8639000" lon="-0.6728560">
        <ele>767.8</ele>
        <time>2019-01-05T10:49:01Z</time>
      </trkpt>
      <trkpt lat="38.8639220" lon="-0.6728760">
        <ele>767.6</ele>
        <time>2019-01-05T10:49:02Z</time>
      </trkpt>
      <trkpt lat="38.8639890" lon="-0.6729480">
        <ele>766.4</ele>
        <time>2019-01-05T10:49:05Z</time>
      </trkpt>
      <trkpt lat="38.8640390" lon="-0.6729900">
        <ele>766.0</ele>
        <time>2019-01-05T10:49:07Z</time>
      </trkpt>
      <trkpt lat="38.8641330" lon="-0.6730440">
        <ele>765.2</ele>
        <time>2019-01-05T10:49:11Z</time>
      </trkpt>
      <trkpt lat="38.8642510" lon="-0.6730880">
        <ele>764.4</ele>
        <time>2019-01-05T10:49:15Z</time>
      </trkpt>
      <trkpt lat="38.8643580" lon="-0.6731470">
        <ele>764.0</ele>
        <time>2019-01-05T10:49:19Z</time>
      </trkpt>
      <trkpt lat="38.8644120" lon="-0.6731710">
        <ele>763.8</ele>
        <time>2019-01-05T10:49:21Z</time>
      </trkpt>
      <trkpt lat="38.8644700" lon="-0.6731910">
        <ele>763.0</ele>
        <time>2019-01-05T10:49:23Z</time>
      </trkpt>
      <trkpt lat="38.8645590" lon="-0.6732120">
        <ele>761.8</ele>
        <time>2019-01-05T10:49:26Z</time>
      </trkpt>
      <trkpt lat="38.8645870" lon="-0.6732160">
        <ele>761.8</ele>
        <time>2019-01-05T10:49:27Z</time>
      </trkpt>
      <trkpt lat="38.8646670" lon="-0.6732240">
        <ele>760.8</ele>
        <time>2019-01-05T10:49:30Z</time>
      </trkpt>
      <trkpt lat="38.8647270" lon="-0.6732160">
        <ele>760.2</ele>
        <time>2019-01-05T10:49:32Z</time>
      </trkpt>
      <trkpt lat="38.8647560" lon="-0.6732140">
        <ele>759.6</ele>
        <time>2019-01-05T10:49:33Z</time>
      </trkpt>
      <trkpt lat="38.8648790" lon="-0.6731810">
        <ele>759.2</ele>
        <time>2019-01-05T10:49:38Z</time>
      </trkpt>
      <trkpt lat="38.8649890" lon="-0.6731790">
        <ele>758.8</ele>
        <time>2019-01-05T10:49:42Z</time>
      </trkpt>
      <trkpt lat="38.8650180" lon="-0.6731810">
        <ele>758.4</ele>
        <time>2019-01-05T10:49:43Z</time>
      </trkpt>
      <trkpt lat="38.8651040" lon="-0.6731930">
        <ele>757.4</ele>
        <time>2019-01-05T10:49:46Z</time>
      </trkpt>
      <trkpt lat="38.8651310" lon="-0.6732010">
        <ele>757.2</ele>
        <time>2019-01-05T10:49:47Z</time>
      </trkpt>
      <trkpt lat="38.8652310" lon="-0.6732430">
        <ele>756.2</ele>
        <time>2019-01-05T10:49:51Z</time>
      </trkpt>
      <trkpt lat="38.8652550" lon="-0.6732560">
        <ele>756.0</ele>
        <time>2019-01-05T10:49:52Z</time>
      </trkpt>
      <trkpt lat="38.8653400" lon="-0.6732980">
        <ele>755.2</ele>
        <time>2019-01-05T10:49:55Z</time>
      </trkpt>
      <trkpt lat="38.8654150" lon="-0.6733320">
        <ele>754.8</ele>
        <time>2019-01-05T10:49:58Z</time>
      </trkpt>
      <trkpt lat="38.8654650" lon="-0.6733470">
        <ele>754.2</ele>
        <time>2019-01-05T10:50:00Z</time>
      </trkpt>
      <trkpt lat="38.8655170" lon="-0.6733640">
        <ele>753.6</ele>
        <time>2019-01-05T10:50:02Z</time>
      </trkpt>
      <trkpt lat="38.8655870" lon="-0.6733460">
        <ele>753.0</ele>
        <time>2019-01-05T10:50:06Z</time>
      </trkpt>
      <trkpt lat="38.8656150" lon="-0.6733270">
        <ele>752.0</ele>
        <time>2019-01-05T10:50:08Z</time>
      </trkpt>
      <trkpt lat="38.8656960" lon="-0.6732670">
        <ele>750.6</ele>
        <time>2019-01-05T10:50:13Z</time>
      </trkpt>
      <trkpt lat="38.8657470" lon="-0.6732160">
        <ele>749.6</ele>
        <time>2019-01-05T10:50:18Z</time>
      </trkpt>
      <trkpt lat="38.8657850" lon="-0.6731720">
        <ele>749.4</ele>
        <time>2019-01-05T10:50:21Z</time>
      </trkpt>
      <trkpt lat="38.8658150" lon="-0.6731090">
        <ele>747.8</ele>
        <time>2019-01-05T10:50:24Z</time>
      </trkpt>
      <trkpt lat="38.8658070" lon="-0.6730620">
        <ele>746.6</ele>
        <time>2019-01-05T10:50:26Z</time>
      </trkpt>
      <trkpt lat="38.8658060" lon="-0.6730160">
        <ele>745.6</ele>
        <time>2019-01-05T10:50:28Z</time>
      </trkpt>
      <trkpt lat="38.8658090" lon="-0.6729970">
        <ele>745.0</ele>
        <time>2019-01-05T10:50:29Z</time>
      </trkpt>
      <trkpt lat="38.8658140" lon="-0.6729760">
        <ele>744.6</ele>
        <time>2019-01-05T10:50:30Z</time>
      </trkpt>
      <trkpt lat="38.8658480" lon="-0.6729280">
        <ele>743.6</ele>
        <time>2019-01-05T10:50:33Z</time>
      </trkpt>
      <trkpt lat="38.8658620" lon="-0.6729210">
        <ele>743.4</ele>
        <time>2019-01-05T10:50:34Z</time>
      </trkpt>
      <trkpt lat="38.8658920" lon="-0.6729140">
        <ele>743.0</ele>
        <time>2019-01-05T10:50:36Z</time>
      </trkpt>
      <trkpt lat="38.8659410" lon="-0.6729180">
        <ele>742.2</ele>
        <time>2019-01-05T10:50:39Z</time>
      </trkpt>
      <trkpt lat="38.8659570" lon="-0.6729150">
        <ele>741.6</ele>
        <time>2019-01-05T10:50:40Z</time>
      </trkpt>
      <trkpt lat="38.8659730" lon="-0.6729090">
        <ele>741.0</ele>
        <time>2019-01-05T10:50:41Z</time>
      </trkpt>
      <trkpt lat="38.8660040" lon="-0.6729010">
        <ele>740.0</ele>
        <time>2019-01-05T10:50:43Z</time>
      </trkpt>
      <trkpt lat="38.8660280" lon="-0.6728960">
        <ele>739.4</ele>
        <time>2019-01-05T10:50:45Z</time>
      </trkpt>
      <trkpt lat="38.8660580" lon="-0.6728750">
        <ele>738.4</ele>
        <time>2019-01-05T10:50:48Z</time>
      </trkpt>
      <trkpt lat="38.8660830" lon="-0.6728770">
        <ele>737.6</ele>
        <time>2019-01-05T10:50:50Z</time>
      </trkpt>
      <trkpt lat="38.8660940" lon="-0.6728720">
        <ele>737.0</ele>
        <time>2019-01-05T10:50:51Z</time>
      </trkpt>
      <trkpt lat="38.8661130" lon="-0.6728670">
        <ele>736.0</ele>
        <time>2019-01-05T10:50:53Z</time>
      </trkpt>
      <trkpt lat="38.8661350" lon="-0.6728680">
        <ele>734.8</ele>
        <time>2019-01-05T10:50:56Z</time>
      </trkpt>
      <trkpt lat="38.8661410" lon="-0.6728730">
        <ele>733.6</ele>
        <time>2019-01-05T10:51:01Z</time>
      </trkpt>
      <trkpt lat="38.8661410" lon="-0.6728740">
        <ele>733.6</ele>
        <time>2019-01-05T10:51:02Z</time>
      </trkpt>
      <trkpt lat="38.8661420" lon="-0.6728750">
        <ele>733.4</ele>
        <time>2019-01-05T10:51:08Z</time>
      </trkpt>
      <trkpt lat="38.8661520" lon="-0.6728780">
        <ele>733.0</ele>
        <time>2019-01-05T10:51:12Z</time>
      </trkpt>
      <trkpt lat="38.8661630" lon="-0.6728740">
        <ele>733.0</ele>
        <time>2019-01-05T10:51:13Z</time>
      </trkpt>
      <trkpt lat="38.8662090" lon="-0.6728210">
        <ele>732.4</ele>
        <time>2019-01-05T10:51:17Z</time>
      </trkpt>
      <trkpt lat="38.8662300" lon="-0.6728100">
        <ele>732.4</ele>
        <time>2019-01-05T10:51:18Z</time>
      </trkpt>
      <trkpt lat="38.8662720" lon="-0.6727880">
        <ele>731.4</ele>
        <time>2019-01-05T10:51:20Z</time>
      </trkpt>
      <trkpt lat="38.8663110" lon="-0.6727870">
        <ele>730.4</ele>
        <time>2019-01-05T10:51:22Z</time>
      </trkpt>
      <trkpt lat="38.8663280" lon="-0.6728000">
        <ele>729.6</ele>
        <time>2019-01-05T10:51:23Z</time>
      </trkpt>
      <trkpt lat="38.8663480" lon="-0.6728060">
        <ele>728.8</ele>
        <time>2019-01-05T10:51:24Z</time>
      </trkpt>
      <trkpt lat="38.8663720" lon="-0.6728060">
        <ele>727.6</ele>
        <time>2019-01-05T10:51:26Z</time>
      </trkpt>
      <trkpt lat="38.8663830" lon="-0.6728070">
        <ele>727.0</ele>
        <time>2019-01-05T10:51:27Z</time>
      </trkpt>
      <trkpt lat="38.8664080" lon="-0.6728150">
        <ele>726.4</ele>
        <time>2019-01-05T10:51:29Z</time>
      </trkpt>
      <trkpt lat="38.8664490" lon="-0.6728160">
        <ele>725.0</ele>
        <time>2019-01-05T10:51:32Z</time>
      </trkpt>
      <trkpt lat="38.8664660" lon="-0.6728170">
        <ele>724.0</ele>
        <time>2019-01-05T10:51:34Z</time>
      </trkpt>
      <trkpt lat="38.8664750" lon="-0.6728240">
        <ele>723.6</ele>
        <time>2019-01-05T10:51:35Z</time>
      </trkpt>
      <trkpt lat="38.8664870" lon="-0.6728260">
        <ele>723.0</ele>
        <time>2019-01-05T10:51:36Z</time>
      </trkpt>
      <trkpt lat="38.8664940" lon="-0.6728210">
        <ele>722.8</ele>
        <time>2019-01-05T10:51:37Z</time>
      </trkpt>
      <trkpt lat="38.8665170" lon="-0.6728380">
        <ele>722.4</ele>
        <time>2019-01-05T10:51:39Z</time>
      </trkpt>
      <trkpt lat="38.8665460" lon="-0.6728560">
        <ele>721.6</ele>
        <time>2019-01-05T10:51:41Z</time>
      </trkpt>
      <trkpt lat="38.8665630" lon="-0.6728670">
        <ele>720.4</ele>
        <time>2019-01-05T10:51:42Z</time>
      </trkpt>
      <trkpt lat="38.8665760" lon="-0.6728730">
        <ele>719.0</ele>
        <time>2019-01-05T10:51:43Z</time>
      </trkpt>
      <trkpt lat="38.8666060" lon="-0.6728790">
        <ele>717.6</ele>
        <time>2019-01-05T10:51:45Z</time>
      </trkpt>
      <trkpt lat="38.8666240" lon="-0.6728810">
        <ele>717.2</ele>
        <time>2019-01-05T10:51:46Z</time>
      </trkpt>
      <trkpt lat="38.8666440" lon="-0.6728770">
        <ele>716.6</ele>
        <time>2019-01-05T10:51:47Z</time>
      </trkpt>
      <trkpt lat="38.8666810" lon="-0.6728700">
        <ele>715.6</ele>
        <time>2019-01-05T10:51:49Z</time>
      </trkpt>
      <trkpt lat="38.8667000" lon="-0.6728710">
        <ele>715.2</ele>
        <time>2019-01-05T10:51:50Z</time>
      </trkpt>
      <trkpt lat="38.8667360" lon="-0.6728620">
        <ele>714.2</ele>
        <time>2019-01-05T10:51:52Z</time>
      </trkpt>
      <trkpt lat="38.8667640" lon="-0.6728520">
        <ele>713.0</ele>
        <time>2019-01-05T10:51:54Z</time>
      </trkpt>
      <trkpt lat="38.8667910" lon="-0.6728470">
        <ele>711.8</ele>
        <time>2019-01-05T10:51:56Z</time>
      </trkpt>
      <trkpt lat="38.8668380" lon="-0.6728350">
        <ele>710.4</ele>
        <time>2019-01-05T10:51:59Z</time>
      </trkpt>
      <trkpt lat="38.8668750" lon="-0.6728190">
        <ele>709.0</ele>
        <time>2019-01-05T10:52:01Z</time>
      </trkpt>
      <trkpt lat="38.8669060" lon="-0.6728040">
        <ele>707.8</ele>
        <time>2019-01-05T10:52:03Z</time>
      </trkpt>
      <trkpt lat="38.8669350" lon="-0.6727960">
        <ele>706.8</ele>
        <time>2019-01-05T10:52:05Z</time>
      </trkpt>
      <trkpt lat="38.8669640" lon="-0.6727880">
        <ele>705.6</ele>
        <time>2019-01-05T10:52:07Z</time>
      </trkpt>
      <trkpt lat="38.8670030" lon="-0.6727700">
        <ele>704.6</ele>
        <time>2019-01-05T10:52:10Z</time>
      </trkpt>
      <trkpt lat="38.8670200" lon="-0.6727650">
        <ele>704.0</ele>
        <time>2019-01-05T10:52:11Z</time>
      </trkpt>
      <trkpt lat="38.8670490" lon="-0.6727630">
        <ele>703.4</ele>
        <time>2019-01-05T10:52:13Z</time>
      </trkpt>
      <trkpt lat="38.8670910" lon="-0.6727580">
        <ele>702.2</ele>
        <time>2019-01-05T10:52:16Z</time>
      </trkpt>
      <trkpt lat="38.8671110" lon="-0.6727590">
        <ele>701.6</ele>
        <time>2019-01-05T10:52:17Z</time>
      </trkpt>
      <trkpt lat="38.8671290" lon="-0.6727610">
        <ele>701.0</ele>
        <time>2019-01-05T10:52:18Z</time>
      </trkpt>
      <trkpt lat="38.8671630" lon="-0.6727700">
        <ele>699.6</ele>
        <time>2019-01-05T10:52:20Z</time>
      </trkpt>
      <trkpt lat="38.8672020" lon="-0.6727830">
        <ele>698.6</ele>
        <time>2019-01-05T10:52:22Z</time>
      </trkpt>
      <trkpt lat="38.8672650" lon="-0.6728030">
        <ele>697.8</ele>
        <time>2019-01-05T10:52:25Z</time>
      </trkpt>
      <trkpt lat="38.8672910" lon="-0.6728080">
        <ele>697.4</ele>
        <time>2019-01-05T10:52:26Z</time>
      </trkpt>
      <trkpt lat="38.8673380" lon="-0.6728150">
        <ele>696.8</ele>
        <time>2019-01-05T10:52:28Z</time>
      </trkpt>
      <trkpt lat="38.8673790" lon="-0.6727960">
        <ele>695.6</ele>
        <time>2019-01-05T10:52:30Z</time>
      </trkpt>
      <trkpt lat="38.8674250" lon="-0.6727780">
        <ele>694.2</ele>
        <time>2019-01-05T10:52:33Z</time>
      </trkpt>
      <trkpt lat="38.8674570" lon="-0.6727580">
        <ele>693.0</ele>
        <time>2019-01-05T10:52:35Z</time>
      </trkpt>
      <trkpt lat="38.8674940" lon="-0.6727320">
        <ele>691.8</ele>
        <time>2019-01-05T10:52:37Z</time>
      </trkpt>
      <trkpt lat="38.8675610" lon="-0.6727100">
        <ele>690.8</ele>
        <time>2019-01-05T10:52:41Z</time>
      </trkpt>
      <trkpt lat="38.8675730" lon="-0.6727120">
        <ele>690.4</ele>
        <time>2019-01-05T10:52:42Z</time>
      </trkpt>
      <trkpt lat="38.8676020" lon="-0.6727130">
        <ele>689.4</ele>
        <time>2019-01-05T10:52:44Z</time>
      </trkpt>
      <trkpt lat="38.8676400" lon="-0.6727160">
        <ele>688.0</ele>
        <time>2019-01-05T10:52:46Z</time>
      </trkpt>
      <trkpt lat="38.8676540" lon="-0.6727130">
        <ele>687.4</ele>
        <time>2019-01-05T10:52:47Z</time>
      </trkpt>
      <trkpt lat="38.8676710" lon="-0.6727110">
        <ele>686.8</ele>
        <time>2019-01-05T10:52:48Z</time>
      </trkpt>
      <trkpt lat="38.8677370" lon="-0.6726890">
        <ele>685.6</ele>
        <time>2019-01-05T10:52:51Z</time>
      </trkpt>
      <trkpt lat="38.8677810" lon="-0.6726550">
        <ele>684.6</ele>
        <time>2019-01-05T10:52:53Z</time>
      </trkpt>
      <trkpt lat="38.8678490" lon="-0.6725590">
        <ele>683.4</ele>
        <time>2019-01-05T10:52:57Z</time>
      </trkpt>
      <trkpt lat="38.8678680" lon="-0.6725360">
        <ele>683.0</ele>
        <time>2019-01-05T10:52:58Z</time>
      </trkpt>
      <trkpt lat="38.8679030" lon="-0.6724890">
        <ele>682.0</ele>
        <time>2019-01-05T10:53:00Z</time>
      </trkpt>
      <trkpt lat="38.8679310" lon="-0.6724350">
        <ele>681.0</ele>
        <time>2019-01-05T10:53:02Z</time>
      </trkpt>
      <trkpt lat="38.8679970" lon="-0.6723260">
        <ele>679.4</ele>
        <time>2019-01-05T10:53:06Z</time>
      </trkpt>
      <trkpt lat="38.8680520" lon="-0.6722580">
        <ele>677.8</ele>
        <time>2019-01-05T10:53:09Z</time>
      </trkpt>
      <trkpt lat="38.8680850" lon="-0.6722110">
        <ele>677.0</ele>
        <time>2019-01-05T10:53:11Z</time>
      </trkpt>
      <trkpt lat="38.8681060" lon="-0.6721930">
        <ele>676.8</ele>
        <time>2019-01-05T10:53:12Z</time>
      </trkpt>
      <trkpt lat="38.8681700" lon="-0.6721430">
        <ele>676.4</ele>
        <time>2019-01-05T10:53:15Z</time>
      </trkpt>
      <trkpt lat="38.8682740" lon="-0.6720550">
        <ele>675.2</ele>
        <time>2019-01-05T10:53:20Z</time>
      </trkpt>
      <trkpt lat="38.8682930" lon="-0.6720360">
        <ele>674.6</ele>
        <time>2019-01-05T10:53:21Z</time>
      </trkpt>
      <trkpt lat="38.8683130" lon="-0.6720170">
        <ele>674.0</ele>
        <time>2019-01-05T10:53:22Z</time>
      </trkpt>
      <trkpt lat="38.8683930" lon="-0.6719530">
        <ele>672.6</ele>
        <time>2019-01-05T10:53:26Z</time>
      </trkpt>
      <trkpt lat="38.8684690" lon="-0.6719120">
        <ele>671.2</ele>
        <time>2019-01-05T10:53:29Z</time>
      </trkpt>
      <trkpt lat="38.8685450" lon="-0.6718760">
        <ele>670.2</ele>
        <time>2019-01-05T10:53:32Z</time>
      </trkpt>
      <trkpt lat="38.8685710" lon="-0.6718670">
        <ele>669.8</ele>
        <time>2019-01-05T10:53:33Z</time>
      </trkpt>
      <trkpt lat="38.8686230" lon="-0.6718510">
        <ele>669.8</ele>
        <time>2019-01-05T10:53:35Z</time>
      </trkpt>
      <trkpt lat="38.8686720" lon="-0.6718430">
        <ele>669.6</ele>
        <time>2019-01-05T10:53:37Z</time>
      </trkpt>
      <trkpt lat="38.8687560" lon="-0.6718280">
        <ele>669.8</ele>
        <time>2019-01-05T10:53:41Z</time>
      </trkpt>
      <trkpt lat="38.8688590" lon="-0.6717870">
        <ele>669.4</ele>
        <time>2019-01-05T10:53:46Z</time>
      </trkpt>
      <trkpt lat="38.8689510" lon="-0.6717570">
        <ele>670.2</ele>
        <time>2019-01-05T10:53:50Z</time>
      </trkpt>
      <trkpt lat="38.8690380" lon="-0.6717080">
        <ele>670.2</ele>
        <time>2019-01-05T10:53:54Z</time>
      </trkpt>
      <trkpt lat="38.8691190" lon="-0.6716690">
        <ele>670.0</ele>
        <time>2019-01-05T10:53:58Z</time>
      </trkpt>
      <trkpt lat="38.8691400" lon="-0.6716560">
        <ele>670.0</ele>
        <time>2019-01-05T10:53:59Z</time>
      </trkpt>
      <trkpt lat="38.8692350" lon="-0.6716130">
        <ele>669.8</ele>
        <time>2019-01-05T10:54:04Z</time>
      </trkpt>
      <trkpt lat="38.8693060" lon="-0.6716130">
        <ele>669.8</ele>
        <time>2019-01-05T10:54:08Z</time>
      </trkpt>
      <trkpt lat="38.8693670" lon="-0.6716300">
        <ele>670.6</ele>
        <time>2019-01-05T10:54:12Z</time>
      </trkpt>
      <trkpt lat="38.8693800" lon="-0.6716370">
        <ele>670.6</ele>
        <time>2019-01-05T10:54:13Z</time>
      </trkpt>
      <trkpt lat="38.8694140" lon="-0.6716490">
        <ele>671.2</ele>
        <time>2019-01-05T10:54:15Z</time>
      </trkpt>
      <trkpt lat="38.8694520" lon="-0.6716630">
        <ele>671.6</ele>
        <time>2019-01-05T10:54:18Z</time>
      </trkpt>
      <trkpt lat="38.8694820" lon="-0.6716680">
        <ele>672.2</ele>
        <time>2019-01-05T10:54:21Z</time>
      </trkpt>
      <trkpt lat="38.8695100" lon="-0.6716650">
        <ele>673.0</ele>
        <time>2019-01-05T10:54:24Z</time>
      </trkpt>
      <trkpt lat="38.8695220" lon="-0.6716670">
        <ele>673.4</ele>
        <time>2019-01-05T10:54:25Z</time>
      </trkpt>
      <trkpt lat="38.8695630" lon="-0.6716690">
        <ele>673.6</ele>
        <time>2019-01-05T10:54:28Z</time>
      </trkpt>
      <trkpt lat="38.8696080" lon="-0.6716690">
        <ele>674.2</ele>
        <time>2019-01-05T10:54:31Z</time>
      </trkpt>
      <trkpt lat="38.8696590" lon="-0.6716780">
        <ele>674.6</ele>
        <time>2019-01-05T10:54:35Z</time>
      </trkpt>
      <trkpt lat="38.8696670" lon="-0.6716820">
        <ele>674.8</ele>
        <time>2019-01-05T10:54:36Z</time>
      </trkpt>
      <trkpt lat="38.8697130" lon="-0.6717090">
        <ele>675.8</ele>
        <time>2019-01-05T10:54:40Z</time>
      </trkpt>
      <trkpt lat="38.8697310" lon="-0.6717260">
        <ele>676.6</ele>
        <time>2019-01-05T10:54:42Z</time>
      </trkpt>
      <trkpt lat="38.8697430" lon="-0.6717370">
        <ele>676.8</ele>
        <time>2019-01-05T10:54:43Z</time>
      </trkpt>
      <trkpt lat="38.8698120" lon="-0.6717870">
        <ele>677.6</ele>
        <time>2019-01-05T10:54:49Z</time>
      </trkpt>
      <trkpt lat="38.8698900" lon="-0.6718150">
        <ele>677.4</ele>
        <time>2019-01-05T10:54:54Z</time>
      </trkpt>
      <trkpt lat="38.8699850" lon="-0.6718190">
        <ele>675.8</ele>
        <time>2019-01-05T10:55:00Z</time>
      </trkpt>
      <trkpt lat="38.8700160" lon="-0.6718140">
        <ele>673.8</ele>
        <time>2019-01-05T10:55:02Z</time>
      </trkpt>
      <trkpt lat="38.8700430" lon="-0.6717970">
        <ele>672.4</ele>
        <time>2019-01-05T10:55:04Z</time>
      </trkpt>
      <trkpt lat="38.8700580" lon="-0.6717900">
        <ele>672.0</ele>
        <time>2019-01-05T10:55:05Z</time>
      </trkpt>
      <trkpt lat="38.8700720" lon="-0.6717790">
        <ele>671.6</ele>
        <time>2019-01-05T10:55:06Z</time>
      </trkpt>
      <trkpt lat="38.8700870" lon="-0.6717710">
        <ele>671.2</ele>
        <time>2019-01-05T10:55:07Z</time>
      </trkpt>
      <trkpt lat="38.8701400" lon="-0.6717270">
        <ele>670.2</ele>
        <time>2019-01-05T10:55:10Z</time>
      </trkpt>
      <trkpt lat="38.8701580" lon="-0.6717090">
        <ele>669.6</ele>
        <time>2019-01-05T10:55:11Z</time>
      </trkpt>
      <trkpt lat="38.8701780" lon="-0.6717030">
        <ele>669.0</ele>
        <time>2019-01-05T10:55:12Z</time>
      </trkpt>
      <trkpt lat="38.8702300" lon="-0.6717080">
        <ele>667.8</ele>
        <time>2019-01-05T10:55:14Z</time>
      </trkpt>
      <trkpt lat="38.8702550" lon="-0.6717140">
        <ele>667.4</ele>
        <time>2019-01-05T10:55:15Z</time>
      </trkpt>
      <trkpt lat="38.8703290" lon="-0.6717280">
        <ele>667.2</ele>
        <time>2019-01-05T10:55:18Z</time>
      </trkpt>
      <trkpt lat="38.8703760" lon="-0.6717220">
        <ele>666.8</ele>
        <time>2019-01-05T10:55:20Z</time>
      </trkpt>
      <trkpt lat="38.8704590" lon="-0.6717050">
        <ele>665.6</ele>
        <time>2019-01-05T10:55:23Z</time>
      </trkpt>
      <trkpt lat="38.8704860" lon="-0.6716870">
        <ele>665.4</ele>
        <time>2019-01-05T10:55:24Z</time>
      </trkpt>
      <trkpt lat="38.8705620" lon="-0.6716370">
        <ele>664.4</ele>
        <time>2019-01-05T10:55:27Z</time>
      </trkpt>
      <trkpt lat="38.8706410" lon="-0.6715910">
        <ele>663.8</ele>
        <time>2019-01-05T10:55:30Z</time>
      </trkpt>
      <trkpt lat="38.8706900" lon="-0.6715710">
        <ele>663.2</ele>
        <time>2019-01-05T10:55:32Z</time>
      </trkpt>
      <trkpt lat="38.8707730" lon="-0.6715370">
        <ele>662.2</ele>
        <time>2019-01-05T10:55:35Z</time>
      </trkpt>
      <trkpt lat="38.8707960" lon="-0.6715240">
        <ele>662.0</ele>
        <time>2019-01-05T10:55:36Z</time>
      </trkpt>
      <trkpt lat="38.8708550" lon="-0.6714990">
        <ele>661.0</ele>
        <time>2019-01-05T10:55:38Z</time>
      </trkpt>
      <trkpt lat="38.8708830" lon="-0.6714880">
        <ele>660.4</ele>
        <time>2019-01-05T10:55:39Z</time>
      </trkpt>
      <trkpt lat="38.8710130" lon="-0.6714260">
        <ele>659.4</ele>
        <time>2019-01-05T10:55:44Z</time>
      </trkpt>
      <trkpt lat="38.8711100" lon="-0.6713870">
        <ele>658.0</ele>
        <time>2019-01-05T10:55:48Z</time>
      </trkpt>
      <trkpt lat="38.8711580" lon="-0.6713740">
        <ele>657.6</ele>
        <time>2019-01-05T10:55:50Z</time>
      </trkpt>
      <trkpt lat="38.8712580" lon="-0.6713280">
        <ele>657.0</ele>
        <time>2019-01-05T10:55:54Z</time>
      </trkpt>
      <trkpt lat="38.8712830" lon="-0.6713140">
        <ele>657.0</ele>
        <time>2019-01-05T10:55:55Z</time>
      </trkpt>
      <trkpt lat="38.8713670" lon="-0.6712740">
        <ele>655.8</ele>
        <time>2019-01-05T10:55:58Z</time>
      </trkpt>
      <trkpt lat="38.8714470" lon="-0.6712400">
        <ele>654.4</ele>
        <time>2019-01-05T10:56:01Z</time>
      </trkpt>
      <trkpt lat="38.8714750" lon="-0.6712340">
        <ele>654.0</ele>
        <time>2019-01-05T10:56:02Z</time>
      </trkpt>
      <trkpt lat="38.8715250" lon="-0.6712260">
        <ele>653.2</ele>
        <time>2019-01-05T10:56:04Z</time>
      </trkpt>
      <trkpt lat="38.8716400" lon="-0.6712190">
        <ele>652.4</ele>
        <time>2019-01-05T10:56:08Z</time>
      </trkpt>
      <trkpt lat="38.8716700" lon="-0.6712140">
        <ele>652.0</ele>
        <time>2019-01-05T10:56:09Z</time>
      </trkpt>
      <trkpt lat="38.8717810" lon="-0.6711540">
        <ele>651.2</ele>
        <time>2019-01-05T10:56:13Z</time>
      </trkpt>
      <trkpt lat="38.8718290" lon="-0.6711200">
        <ele>650.8</ele>
        <time>2019-01-05T10:56:15Z</time>
      </trkpt>
      <trkpt lat="38.8718960" lon="-0.6710740">
        <ele>650.2</ele>
        <time>2019-01-05T10:56:18Z</time>
      </trkpt>
      <trkpt lat="38.8719200" lon="-0.6710550">
        <ele>649.4</ele>
        <time>2019-01-05T10:56:19Z</time>
      </trkpt>
      <trkpt lat="38.8719900" lon="-0.6710050">
        <ele>648.2</ele>
        <time>2019-01-05T10:56:22Z</time>
      </trkpt>
      <trkpt lat="38.8720850" lon="-0.6709400">
        <ele>647.6</ele>
        <time>2019-01-05T10:56:26Z</time>
      </trkpt>
      <trkpt lat="38.8721110" lon="-0.6709350">
        <ele>647.6</ele>
        <time>2019-01-05T10:56:27Z</time>
      </trkpt>
      <trkpt lat="38.8721830" lon="-0.6709430">
        <ele>647.2</ele>
        <time>2019-01-05T10:56:30Z</time>
      </trkpt>
      <trkpt lat="38.8722060" lon="-0.6709570">
        <ele>647.0</ele>
        <time>2019-01-05T10:56:31Z</time>
      </trkpt>
      <trkpt lat="38.8722510" lon="-0.6710360">
        <ele>645.8</ele>
        <time>2019-01-05T10:56:34Z</time>
      </trkpt>
      <trkpt lat="38.8722650" lon="-0.6711710">
        <ele>645.0</ele>
        <time>2019-01-05T10:56:38Z</time>
      </trkpt>
      <trkpt lat="38.8723040" lon="-0.6713430">
        <ele>645.4</ele>
        <time>2019-01-05T10:56:44Z</time>
      </trkpt>
      <trkpt lat="38.8723260" lon="-0.6714460">
        <ele>644.8</ele>
        <time>2019-01-05T10:56:48Z</time>
      </trkpt>
      <trkpt lat="38.8723340" lon="-0.6714680">
        <ele>644.8</ele>
        <time>2019-01-05T10:56:49Z</time>
      </trkpt>
      <trkpt lat="38.8723420" lon="-0.6716920">
        <ele>645.6</ele>
        <time>2019-01-05T10:56:56Z</time>
      </trkpt>
      <trkpt lat="38.8723340" lon="-0.6717260">
        <ele>645.8</ele>
        <time>2019-01-05T10:56:57Z</time>
      </trkpt>
      <trkpt lat="38.8722980" lon="-0.6718550">
        <ele>646.6</ele>
        <time>2019-01-05T10:57:01Z</time>
      </trkpt>
      <trkpt lat="38.8722920" lon="-0.6718810">
        <ele>647.0</ele>
        <time>2019-01-05T10:57:02Z</time>
      </trkpt>
      <trkpt lat="38.8722710" lon="-0.6719470">
        <ele>648.0</ele>
        <time>2019-01-05T10:57:05Z</time>
      </trkpt>
      <trkpt lat="38.8722580" lon="-0.6719920">
        <ele>648.6</ele>
        <time>2019-01-05T10:57:07Z</time>
      </trkpt>
      <trkpt lat="38.8722440" lon="-0.6720620">
        <ele>649.0</ele>
        <time>2019-01-05T10:57:10Z</time>
      </trkpt>
      <trkpt lat="38.8722380" lon="-0.6720820">
        <ele>649.4</ele>
        <time>2019-01-05T10:57:11Z</time>
      </trkpt>
      <trkpt lat="38.8722220" lon="-0.6721520">
        <ele>650.2</ele>
        <time>2019-01-05T10:57:14Z</time>
      </trkpt>
      <trkpt lat="38.8722230" lon="-0.6722060">
        <ele>650.4</ele>
        <time>2019-01-05T10:57:16Z</time>
      </trkpt>
      <trkpt lat="38.8722230" lon="-0.6722500">
        <ele>650.4</ele>
        <time>2019-01-05T10:57:18Z</time>
      </trkpt>
      <trkpt lat="38.8722130" lon="-0.6723270">
        <ele>650.4</ele>
        <time>2019-01-05T10:57:21Z</time>
      </trkpt>
      <trkpt lat="38.8721970" lon="-0.6724920">
        <ele>650.4</ele>
        <time>2019-01-05T10:57:26Z</time>
      </trkpt>
      <trkpt lat="38.8722040" lon="-0.6725240">
        <ele>650.6</ele>
        <time>2019-01-05T10:57:27Z</time>
      </trkpt>
      <trkpt lat="38.8722480" lon="-0.6725850">
        <ele>650.6</ele>
        <time>2019-01-05T10:57:30Z</time>
      </trkpt>
      <trkpt lat="38.8723650" lon="-0.6726250">
        <ele>650.2</ele>
        <time>2019-01-05T10:57:35Z</time>
      </trkpt>
      <trkpt lat="38.8724980" lon="-0.6726930">
        <ele>649.0</ele>
        <time>2019-01-05T10:57:41Z</time>
      </trkpt>
      <trkpt lat="38.8725790" lon="-0.6727380">
        <ele>647.8</ele>
        <time>2019-01-05T10:57:45Z</time>
      </trkpt>
      <trkpt lat="38.8725940" lon="-0.6727510">
        <ele>647.8</ele>
        <time>2019-01-05T10:57:46Z</time>
      </trkpt>
      <trkpt lat="38.8726750" lon="-0.6727990">
        <ele>646.8</ele>
        <time>2019-01-05T10:57:50Z</time>
      </trkpt>
      <trkpt lat="38.8727240" lon="-0.6728230">
        <ele>646.6</ele>
        <time>2019-01-05T10:57:52Z</time>
      </trkpt>
      <trkpt lat="38.8727740" lon="-0.6728450">
        <ele>645.8</ele>
        <time>2019-01-05T10:57:54Z</time>
      </trkpt>
      <trkpt lat="38.8728620" lon="-0.6728680">
        <ele>644.4</ele>
        <time>2019-01-05T10:57:58Z</time>
      </trkpt>
      <trkpt lat="38.8728820" lon="-0.6728740">
        <ele>644.2</ele>
        <time>2019-01-05T10:57:59Z</time>
      </trkpt>
      <trkpt lat="38.8729570" lon="-0.6728790">
        <ele>643.4</ele>
        <time>2019-01-05T10:58:02Z</time>
      </trkpt>
      <trkpt lat="38.8730020" lon="-0.6728810">
        <ele>643.2</ele>
        <time>2019-01-05T10:58:04Z</time>
      </trkpt>
      <trkpt lat="38.8730820" lon="-0.6728700">
        <ele>642.6</ele>
        <time>2019-01-05T10:58:07Z</time>
      </trkpt>
      <trkpt lat="38.8731380" lon="-0.6728690">
        <ele>642.2</ele>
        <time>2019-01-05T10:58:09Z</time>
      </trkpt>
      <trkpt lat="38.8731640" lon="-0.6728780">
        <ele>641.8</ele>
        <time>2019-01-05T10:58:10Z</time>
      </trkpt>
      <trkpt lat="38.8732870" lon="-0.6729540">
        <ele>641.2</ele>
        <time>2019-01-05T10:58:15Z</time>
      </trkpt>
      <trkpt lat="38.8733650" lon="-0.6730260">
        <ele>640.0</ele>
        <time>2019-01-05T10:58:19Z</time>
      </trkpt>
      <trkpt lat="38.8733870" lon="-0.6730380">
        <ele>639.6</ele>
        <time>2019-01-05T10:58:20Z</time>
      </trkpt>
      <trkpt lat="38.8734740" lon="-0.6730970">
        <ele>639.0</ele>
        <time>2019-01-05T10:58:24Z</time>
      </trkpt>
      <trkpt lat="38.8735670" lon="-0.6731970">
        <ele>638.4</ele>
        <time>2019-01-05T10:58:29Z</time>
      </trkpt>
      <trkpt lat="38.8736280" lon="-0.6732580">
        <ele>638.0</ele>
        <time>2019-01-05T10:58:32Z</time>
      </trkpt>
      <trkpt lat="38.8736700" lon="-0.6733040">
        <ele>638.0</ele>
        <time>2019-01-05T10:58:34Z</time>
      </trkpt>
      <trkpt lat="38.8737490" lon="-0.6733890">
        <ele>637.4</ele>
        <time>2019-01-05T10:58:38Z</time>
      </trkpt>
      <trkpt lat="38.8738420" lon="-0.6734890">
        <ele>637.0</ele>
        <time>2019-01-05T10:58:43Z</time>
      </trkpt>
      <trkpt lat="38.8738620" lon="-0.6735130">
        <ele>636.6</ele>
        <time>2019-01-05T10:58:44Z</time>
      </trkpt>
      <trkpt lat="38.8739200" lon="-0.6735960">
        <ele>636.2</ele>
        <time>2019-01-05T10:58:47Z</time>
      </trkpt>
      <trkpt lat="38.8740140" lon="-0.6737010">
        <ele>635.6</ele>
        <time>2019-01-05T10:58:52Z</time>
      </trkpt>
      <trkpt lat="38.8740320" lon="-0.6737230">
        <ele>635.6</ele>
        <time>2019-01-05T10:58:53Z</time>
      </trkpt>
      <trkpt lat="38.8741290" lon="-0.6738240">
        <ele>635.2</ele>
        <time>2019-01-05T10:58:58Z</time>
      </trkpt>
      <trkpt lat="38.8742190" lon="-0.6739330">
        <ele>634.8</ele>
        <time>2019-01-05T10:59:02Z</time>
      </trkpt>
      <trkpt lat="38.8743030" lon="-0.6740070">
        <ele>634.6</ele>
        <time>2019-01-05T10:59:06Z</time>
      </trkpt>
      <trkpt lat="38.8743700" lon="-0.6740540">
        <ele>634.4</ele>
        <time>2019-01-05T10:59:09Z</time>
      </trkpt>
      <trkpt lat="38.8743930" lon="-0.6740740">
        <ele>634.4</ele>
        <time>2019-01-05T10:59:10Z</time>
      </trkpt>
      <trkpt lat="38.8745080" lon="-0.6741700">
        <ele>634.0</ele>
        <time>2019-01-05T10:59:15Z</time>
      </trkpt>
      <trkpt lat="38.8746210" lon="-0.6742570">
        <ele>634.6</ele>
        <time>2019-01-05T10:59:20Z</time>
      </trkpt>
      <trkpt lat="38.8747050" lon="-0.6743220">
        <ele>634.2</ele>
        <time>2019-01-05T10:59:24Z</time>
      </trkpt>
      <trkpt lat="38.8748190" lon="-0.6743890">
        <ele>633.8</ele>
        <time>2019-01-05T10:59:29Z</time>
      </trkpt>
      <trkpt lat="38.8748590" lon="-0.6744240">
        <ele>633.4</ele>
        <time>2019-01-05T10:59:31Z</time>
      </trkpt>
      <trkpt lat="38.8749060" lon="-0.6744510">
        <ele>633.4</ele>
        <time>2019-01-05T10:59:33Z</time>
      </trkpt>
      <trkpt lat="38.8750160" lon="-0.6745300">
        <ele>633.2</ele>
        <time>2019-01-05T10:59:38Z</time>
      </trkpt>
      <trkpt lat="38.8751160" lon="-0.6745820">
        <ele>633.2</ele>
        <time>2019-01-05T10:59:42Z</time>
      </trkpt>
      <trkpt lat="38.8752400" lon="-0.6746450">
        <ele>632.4</ele>
        <time>2019-01-05T10:59:47Z</time>
      </trkpt>
      <trkpt lat="38.8752610" lon="-0.6746610">
        <ele>632.2</ele>
        <time>2019-01-05T10:59:48Z</time>
      </trkpt>
      <trkpt lat="38.8753700" lon="-0.6747640">
        <ele>631.6</ele>
        <time>2019-01-05T10:59:53Z</time>
      </trkpt>
      <trkpt lat="38.8754590" lon="-0.6748380">
        <ele>631.6</ele>
        <time>2019-01-05T10:59:57Z</time>
      </trkpt>
      <trkpt lat="38.8755310" lon="-0.6748900">
        <ele>631.2</ele>
        <time>2019-01-05T11:00:00Z</time>
      </trkpt>
      <trkpt lat="38.8755550" lon="-0.6749030">
        <ele>631.0</ele>
        <time>2019-01-05T11:00:01Z</time>
      </trkpt>
      <trkpt lat="38.8756360" lon="-0.6749770">
        <ele>630.6</ele>
        <time>2019-01-05T11:00:05Z</time>
      </trkpt>
      <trkpt lat="38.8757220" lon="-0.6750570">
        <ele>629.8</ele>
        <time>2019-01-05T11:00:09Z</time>
      </trkpt>
      <trkpt lat="38.8758380" lon="-0.6751200">
        <ele>629.6</ele>
        <time>2019-01-05T11:00:14Z</time>
      </trkpt>
      <trkpt lat="38.8759590" lon="-0.6751770">
        <ele>629.4</ele>
        <time>2019-01-05T11:00:19Z</time>
      </trkpt>
      <trkpt lat="38.8760830" lon="-0.6752560">
        <ele>629.0</ele>
        <time>2019-01-05T11:00:24Z</time>
      </trkpt>
      <trkpt lat="38.8761090" lon="-0.6752670">
        <ele>628.8</ele>
        <time>2019-01-05T11:00:25Z</time>
      </trkpt>
      <trkpt lat="38.8762030" lon="-0.6753080">
        <ele>628.4</ele>
        <time>2019-01-05T11:00:29Z</time>
      </trkpt>
      <trkpt lat="38.8763200" lon="-0.6753360">
        <ele>627.8</ele>
        <time>2019-01-05T11:00:34Z</time>
      </trkpt>
      <trkpt lat="38.8763440" lon="-0.6753440">
        <ele>627.6</ele>
        <time>2019-01-05T11:00:35Z</time>
      </trkpt>
      <trkpt lat="38.8764560" lon="-0.6753700">
        <ele>626.8</ele>
        <time>2019-01-05T11:00:39Z</time>
      </trkpt>
      <trkpt lat="38.8764850" lon="-0.6753710">
        <ele>626.6</ele>
        <time>2019-01-05T11:00:40Z</time>
      </trkpt>
      <trkpt lat="38.8765130" lon="-0.6753730">
        <ele>626.4</ele>
        <time>2019-01-05T11:00:41Z</time>
      </trkpt>
      <trkpt lat="38.8765930" lon="-0.6754070">
        <ele>626.0</ele>
        <time>2019-01-05T11:00:44Z</time>
      </trkpt>
      <trkpt lat="38.8767040" lon="-0.6754830">
        <ele>625.8</ele>
        <time>2019-01-05T11:00:49Z</time>
      </trkpt>
      <trkpt lat="38.8767770" lon="-0.6755300">
        <ele>625.4</ele>
        <time>2019-01-05T11:00:52Z</time>
      </trkpt>
      <trkpt lat="38.8768010" lon="-0.6755540">
        <ele>625.0</ele>
        <time>2019-01-05T11:00:53Z</time>
      </trkpt>
      <trkpt lat="38.8768550" lon="-0.6756050">
        <ele>625.0</ele>
        <time>2019-01-05T11:00:56Z</time>
      </trkpt>
      <trkpt lat="38.8768710" lon="-0.6756180">
        <ele>625.0</ele>
        <time>2019-01-05T11:00:57Z</time>
      </trkpt>
      <trkpt lat="38.8769590" lon="-0.6757060">
        <ele>624.8</ele>
        <time>2019-01-05T11:01:01Z</time>
      </trkpt>
      <trkpt lat="38.8770210" lon="-0.6757660">
        <ele>624.0</ele>
        <time>2019-01-05T11:01:04Z</time>
      </trkpt>
      <trkpt lat="38.8770400" lon="-0.6757860">
        <ele>623.8</ele>
        <time>2019-01-05T11:01:05Z</time>
      </trkpt>
      <trkpt lat="38.8770950" lon="-0.6758530">
        <ele>623.6</ele>
        <time>2019-01-05T11:01:08Z</time>
      </trkpt>
      <trkpt lat="38.8772010" lon="-0.6759640">
        <ele>622.8</ele>
        <time>2019-01-05T11:01:13Z</time>
      </trkpt>
      <trkpt lat="38.8772210" lon="-0.6759900">
        <ele>622.6</ele>
        <time>2019-01-05T11:01:14Z</time>
      </trkpt>
      <trkpt lat="38.8772850" lon="-0.6761130">
        <ele>622.4</ele>
        <time>2019-01-05T11:01:18Z</time>
      </trkpt>
      <trkpt lat="38.8773720" lon="-0.6762740">
        <ele>622.8</ele>
        <time>2019-01-05T11:01:24Z</time>
      </trkpt>
      <trkpt lat="38.8774430" lon="-0.6763600">
        <ele>622.4</ele>
        <time>2019-01-05T11:01:28Z</time>
      </trkpt>
      <trkpt lat="38.8775160" lon="-0.6764750">
        <ele>622.0</ele>
        <time>2019-01-05T11:01:33Z</time>
      </trkpt>
      <trkpt lat="38.8775150" lon="-0.6765070">
        <ele>622.0</ele>
        <time>2019-01-05T11:01:34Z</time>
      </trkpt>
      <trkpt lat="38.8774770" lon="-0.6766080">
        <ele>622.0</ele>
        <time>2019-01-05T11:01:37Z</time>
      </trkpt>
      <trkpt lat="38.8773790" lon="-0.6767180">
        <ele>622.6</ele>
        <time>2019-01-05T11:01:42Z</time>
      </trkpt>
      <trkpt lat="38.8773320" lon="-0.6768610">
        <ele>623.2</ele>
        <time>2019-01-05T11:01:47Z</time>
      </trkpt>
      <trkpt lat="38.8773230" lon="-0.6769780">
        <ele>623.2</ele>
        <time>2019-01-05T11:01:51Z</time>
      </trkpt>
      <trkpt lat="38.8773080" lon="-0.6771210">
        <ele>623.8</ele>
        <time>2019-01-05T11:01:56Z</time>
      </trkpt>
      <trkpt lat="38.8773180" lon="-0.6772530">
        <ele>624.2</ele>
        <time>2019-01-05T11:02:01Z</time>
      </trkpt>
      <trkpt lat="38.8773700" lon="-0.6773610">
        <ele>624.8</ele>
        <time>2019-01-05T11:02:05Z</time>
      </trkpt>
      <trkpt lat="38.8773870" lon="-0.6773850">
        <ele>625.0</ele>
        <time>2019-01-05T11:02:06Z</time>
      </trkpt>
      <trkpt lat="38.8774760" lon="-0.6774920">
        <ele>624.8</ele>
        <time>2019-01-05T11:02:11Z</time>
      </trkpt>
      <trkpt lat="38.8775400" lon="-0.6775400">
        <ele>624.6</ele>
        <time>2019-01-05T11:02:15Z</time>
      </trkpt>
      <trkpt lat="38.8775490" lon="-0.6775410">
        <ele>624.4</ele>
        <time>2019-01-05T11:02:16Z</time>
      </trkpt>
      <trkpt lat="38.8775720" lon="-0.6775250">
        <ele>624.6</ele>
        <time>2019-01-05T11:02:19Z</time>
      </trkpt>
      <trkpt lat="38.8775860" lon="-0.6774920">
        <ele>624.6</ele>
        <time>2019-01-05T11:02:21Z</time>
      </trkpt>
      <trkpt lat="38.8776010" lon="-0.6774650">
        <ele>624.6</ele>
        <time>2019-01-05T11:02:23Z</time>
      </trkpt>
      <trkpt lat="38.8776110" lon="-0.6774500">
        <ele>624.6</ele>
        <time>2019-01-05T11:02:24Z</time>
      </trkpt>
      <trkpt lat="38.8776180" lon="-0.6774210">
        <ele>624.4</ele>
        <time>2019-01-05T11:02:25Z</time>
      </trkpt>
      <trkpt lat="38.8776560" lon="-0.6773390">
        <ele>623.8</ele>
        <time>2019-01-05T11:02:28Z</time>
      </trkpt>
      <trkpt lat="38.8776770" lon="-0.6773250">
        <ele>623.6</ele>
        <time>2019-01-05T11:02:29Z</time>
      </trkpt>
      <trkpt lat="38.8777670" lon="-0.6773110">
        <ele>623.0</ele>
        <time>2019-01-05T11:02:32Z</time>
      </trkpt>
      <trkpt lat="38.8778000" lon="-0.6773080">
        <ele>622.6</ele>
        <time>2019-01-05T11:02:33Z</time>
      </trkpt>
      <trkpt lat="38.8778910" lon="-0.6773020">
        <ele>621.8</ele>
        <time>2019-01-05T11:02:36Z</time>
      </trkpt>
      <trkpt lat="38.8779190" lon="-0.6773020">
        <ele>621.4</ele>
        <time>2019-01-05T11:02:37Z</time>
      </trkpt>
      <trkpt lat="38.8780030" lon="-0.6773000">
        <ele>620.8</ele>
        <time>2019-01-05T11:02:40Z</time>
      </trkpt>
      <trkpt lat="38.8780910" lon="-0.6772860">
        <ele>620.4</ele>
        <time>2019-01-05T11:02:43Z</time>
      </trkpt>
      <trkpt lat="38.8781210" lon="-0.6772800">
        <ele>620.6</ele>
        <time>2019-01-05T11:02:44Z</time>
      </trkpt>
      <trkpt lat="38.8782650" lon="-0.6772740">
        <ele>620.6</ele>
        <time>2019-01-05T11:02:49Z</time>
      </trkpt>
      <trkpt lat="38.8784080" lon="-0.6772570">
        <ele>620.0</ele>
        <time>2019-01-05T11:02:54Z</time>
      </trkpt>
      <trkpt lat="38.8785310" lon="-0.6772500">
        <ele>620.0</ele>
        <time>2019-01-05T11:02:58Z</time>
      </trkpt>
      <trkpt lat="38.8786710" lon="-0.6772870">
        <ele>619.6</ele>
        <time>2019-01-05T11:03:03Z</time>
      </trkpt>
      <trkpt lat="38.8786970" lon="-0.6773020">
        <ele>619.4</ele>
        <time>2019-01-05T11:03:04Z</time>
      </trkpt>
      <trkpt lat="38.8788010" lon="-0.6773800">
        <ele>618.8</ele>
        <time>2019-01-05T11:03:08Z</time>
      </trkpt>
      <trkpt lat="38.8789000" lon="-0.6774710">
        <ele>618.4</ele>
        <time>2019-01-05T11:03:12Z</time>
      </trkpt>
      <trkpt lat="38.8789240" lon="-0.6774940">
        <ele>618.4</ele>
        <time>2019-01-05T11:03:13Z</time>
      </trkpt>
      <trkpt lat="38.8790220" lon="-0.6775720">
        <ele>618.6</ele>
        <time>2019-01-05T11:03:17Z</time>
      </trkpt>
      <trkpt lat="38.8791640" lon="-0.6777080">
        <ele>618.8</ele>
        <time>2019-01-05T11:03:23Z</time>
      </trkpt>
      <trkpt lat="38.8793050" lon="-0.6778260">
        <ele>618.8</ele>
        <time>2019-01-05T11:03:29Z</time>
      </trkpt>
      <trkpt lat="38.8794010" lon="-0.6779030">
        <ele>618.2</ele>
        <time>2019-01-05T11:03:33Z</time>
      </trkpt>
      <trkpt lat="38.8794860" lon="-0.6779920">
        <ele>618.8</ele>
        <time>2019-01-05T11:03:37Z</time>
      </trkpt>
      <trkpt lat="38.8796030" lon="-0.6780960">
        <ele>619.0</ele>
        <time>2019-01-05T11:03:42Z</time>
      </trkpt>
      <trkpt lat="38.8796700" lon="-0.6781500">
        <ele>619.2</ele>
        <time>2019-01-05T11:03:45Z</time>
      </trkpt>
      <trkpt lat="38.8796850" lon="-0.6781670">
        <ele>619.4</ele>
        <time>2019-01-05T11:03:46Z</time>
      </trkpt>
      <trkpt lat="38.8797410" lon="-0.6782240">
        <ele>620.6</ele>
        <time>2019-01-05T11:03:49Z</time>
      </trkpt>
      <trkpt lat="38.8797810" lon="-0.6782580">
        <ele>620.8</ele>
        <time>2019-01-05T11:03:51Z</time>
      </trkpt>
      <trkpt lat="38.8798590" lon="-0.6783330">
        <ele>621.2</ele>
        <time>2019-01-05T11:03:55Z</time>
      </trkpt>
      <trkpt lat="38.8799230" lon="-0.6783680">
        <ele>622.0</ele>
        <time>2019-01-05T11:03:59Z</time>
      </trkpt>
      <trkpt lat="38.8799380" lon="-0.6783720">
        <ele>622.4</ele>
        <time>2019-01-05T11:04:00Z</time>
      </trkpt>
      <trkpt lat="38.8800350" lon="-0.6784250">
        <ele>623.0</ele>
        <time>2019-01-05T11:04:07Z</time>
      </trkpt>
      <trkpt lat="38.8800480" lon="-0.6784320">
        <ele>623.0</ele>
        <time>2019-01-05T11:04:08Z</time>
      </trkpt>
      <trkpt lat="38.8801100" lon="-0.6784660">
        <ele>623.8</ele>
        <time>2019-01-05T11:04:12Z</time>
      </trkpt>
      <trkpt lat="38.8801220" lon="-0.6784730">
        <ele>624.2</ele>
        <time>2019-01-05T11:04:13Z</time>
      </trkpt>
      <trkpt lat="38.8801950" lon="-0.6785090">
        <ele>625.4</ele>
        <time>2019-01-05T11:04:19Z</time>
      </trkpt>
      <trkpt lat="38.8802070" lon="-0.6785140">
        <ele>625.4</ele>
        <time>2019-01-05T11:04:20Z</time>
      </trkpt>
      <trkpt lat="38.8802990" lon="-0.6785390">
        <ele>626.4</ele>
        <time>2019-01-05T11:04:27Z</time>
      </trkpt>
      <trkpt lat="38.8803100" lon="-0.6785390">
        <ele>626.6</ele>
        <time>2019-01-05T11:04:28Z</time>
      </trkpt>
      <trkpt lat="38.8803800" lon="-0.6785610">
        <ele>627.6</ele>
        <time>2019-01-05T11:04:34Z</time>
      </trkpt>
      <trkpt lat="38.8804440" lon="-0.6786020">
        <ele>628.8</ele>
        <time>2019-01-05T11:04:39Z</time>
      </trkpt>
      <trkpt lat="38.8804740" lon="-0.6786180">
        <ele>629.2</ele>
        <time>2019-01-05T11:04:41Z</time>
      </trkpt>
      <trkpt lat="38.8805150" lon="-0.6786370">
        <ele>629.8</ele>
        <time>2019-01-05T11:04:44Z</time>
      </trkpt>
      <trkpt lat="38.8805410" lon="-0.6786310">
        <ele>630.0</ele>
        <time>2019-01-05T11:04:46Z</time>
      </trkpt>
      <trkpt lat="38.8805550" lon="-0.6786300">
        <ele>630.2</ele>
        <time>2019-01-05T11:04:48Z</time>
      </trkpt>
      <trkpt lat="38.8805890" lon="-0.6786370">
        <ele>631.0</ele>
        <time>2019-01-05T11:04:51Z</time>
      </trkpt>
      <trkpt lat="38.8806550" lon="-0.6786660">
        <ele>631.8</ele>
        <time>2019-01-05T11:04:56Z</time>
      </trkpt>
      <trkpt lat="38.8806820" lon="-0.6786750">
        <ele>632.0</ele>
        <time>2019-01-05T11:04:58Z</time>
      </trkpt>
      <trkpt lat="38.8807510" lon="-0.6787040">
        <ele>632.8</ele>
        <time>2019-01-05T11:05:03Z</time>
      </trkpt>
      <trkpt lat="38.8807760" lon="-0.6787170">
        <ele>633.0</ele>
        <time>2019-01-05T11:05:05Z</time>
      </trkpt>
      <trkpt lat="38.8808160" lon="-0.6787420">
        <ele>633.8</ele>
        <time>2019-01-05T11:05:09Z</time>
      </trkpt>
      <trkpt lat="38.8808490" lon="-0.6787510">
        <ele>634.2</ele>
        <time>2019-01-05T11:05:12Z</time>
      </trkpt>
      <trkpt lat="38.8808980" lon="-0.6787610">
        <ele>635.0</ele>
        <time>2019-01-05T11:05:16Z</time>
      </trkpt>
      <trkpt lat="38.8809290" lon="-0.6787630">
        <ele>635.2</ele>
        <time>2019-01-05T11:05:18Z</time>
      </trkpt>
      <trkpt lat="38.8809660" lon="-0.6787640">
        <ele>635.4</ele>
        <time>2019-01-05T11:05:21Z</time>
      </trkpt>
      <trkpt lat="38.8810520" lon="-0.6787490">
        <ele>636.2</ele>
        <time>2019-01-05T11:05:27Z</time>
      </trkpt>
      <trkpt lat="38.8810760" lon="-0.6787430">
        <ele>636.4</ele>
        <time>2019-01-05T11:05:29Z</time>
      </trkpt>
      <trkpt lat="38.8811110" lon="-0.6787380">
        <ele>637.2</ele>
        <time>2019-01-05T11:05:32Z</time>
      </trkpt>
      <trkpt lat="38.8811350" lon="-0.6787410">
        <ele>637.4</ele>
        <time>2019-01-05T11:05:34Z</time>
      </trkpt>
      <trkpt lat="38.8811470" lon="-0.6787430">
        <ele>637.4</ele>
        <time>2019-01-05T11:05:35Z</time>
      </trkpt>
      <trkpt lat="38.8812290" lon="-0.6788040">
        <ele>638.0</ele>
        <time>2019-01-05T11:05:42Z</time>
      </trkpt>
      <trkpt lat="38.8812340" lon="-0.6788100">
        <ele>638.0</ele>
        <time>2019-01-05T11:05:43Z</time>
      </trkpt>
      <trkpt lat="38.8812840" lon="-0.6788860">
        <ele>637.8</ele>
        <time>2019-01-05T11:05:49Z</time>
      </trkpt>
      <trkpt lat="38.8813220" lon="-0.6790140">
        <ele>637.0</ele>
        <time>2019-01-05T11:05:57Z</time>
      </trkpt>
      <trkpt lat="38.8813290" lon="-0.6790500">
        <ele>636.2</ele>
        <time>2019-01-05T11:06:00Z</time>
      </trkpt>
      <trkpt lat="38.8813540" lon="-0.6790940">
        <ele>636.0</ele>
        <time>2019-01-05T11:06:04Z</time>
      </trkpt>
      <trkpt lat="38.8813600" lon="-0.6791320">
        <ele>635.2</ele>
        <time>2019-01-05T11:06:08Z</time>
      </trkpt>
      <trkpt lat="38.8813460" lon="-0.6791480">
        <ele>634.6</ele>
        <time>2019-01-05T11:06:10Z</time>
      </trkpt>
      <trkpt lat="38.8813420" lon="-0.6791720">
        <ele>634.2</ele>
        <time>2019-01-05T11:06:12Z</time>
      </trkpt>
      <trkpt lat="38.8813480" lon="-0.6791870">
        <ele>633.8</ele>
        <time>2019-01-05T11:06:13Z</time>
      </trkpt>
      <trkpt lat="38.8813490" lon="-0.6791980">
        <ele>633.6</ele>
        <time>2019-01-05T11:06:14Z</time>
      </trkpt>
      <trkpt lat="38.8813580" lon="-0.6792330">
        <ele>632.8</ele>
        <time>2019-01-05T11:06:17Z</time>
      </trkpt>
      <trkpt lat="38.8813610" lon="-0.6792500">
        <ele>632.4</ele>
        <time>2019-01-05T11:06:18Z</time>
      </trkpt>
      <trkpt lat="38.8813570" lon="-0.6792980">
        <ele>631.4</ele>
        <time>2019-01-05T11:06:20Z</time>
      </trkpt>
      <trkpt lat="38.8813370" lon="-0.6793440">
        <ele>630.6</ele>
        <time>2019-01-05T11:06:22Z</time>
      </trkpt>
      <trkpt lat="38.8813280" lon="-0.6793670">
        <ele>630.0</ele>
        <time>2019-01-05T11:06:23Z</time>
      </trkpt>
      <trkpt lat="38.8812940" lon="-0.6794490">
        <ele>629.0</ele>
        <time>2019-01-05T11:06:27Z</time>
      </trkpt>
      <trkpt lat="38.8812820" lon="-0.6795000">
        <ele>628.2</ele>
        <time>2019-01-05T11:06:30Z</time>
      </trkpt>
      <trkpt lat="38.8812910" lon="-0.6795000">
        <ele>627.8</ele>
        <time>2019-01-05T11:06:31Z</time>
      </trkpt>
      <trkpt lat="38.8813150" lon="-0.6794550">
        <ele>627.2</ele>
        <time>2019-01-05T11:06:34Z</time>
      </trkpt>
      <trkpt lat="38.8813160" lon="-0.6794320">
        <ele>627.0</ele>
        <time>2019-01-05T11:06:35Z</time>
      </trkpt>
      <trkpt lat="38.8813280" lon="-0.6794140">
        <ele>626.6</ele>
        <time>2019-01-05T11:06:36Z</time>
      </trkpt>
      <trkpt lat="38.8813890" lon="-0.6793850">
        <ele>625.2</ele>
        <time>2019-01-05T11:06:39Z</time>
      </trkpt>
      <trkpt lat="38.8814210" lon="-0.6793760">
        <ele>624.8</ele>
        <time>2019-01-05T11:06:41Z</time>
      </trkpt>
      <trkpt lat="38.8814440" lon="-0.6793950">
        <ele>624.6</ele>
        <time>2019-01-05T11:06:44Z</time>
      </trkpt>
      <trkpt lat="38.8814450" lon="-0.6794180">
        <ele>624.2</ele>
        <time>2019-01-05T11:06:46Z</time>
      </trkpt>
      <trkpt lat="38.8814470" lon="-0.6794370">
        <ele>623.8</ele>
        <time>2019-01-05T11:06:47Z</time>
      </trkpt>
      <trkpt lat="38.8814550" lon="-0.6794580">
        <ele>623.0</ele>
        <time>2019-01-05T11:06:48Z</time>
      </trkpt>
      <trkpt lat="38.8814600" lon="-0.6794790">
        <ele>622.0</ele>
        <time>2019-01-05T11:06:49Z</time>
      </trkpt>
      <trkpt lat="38.8814650" lon="-0.6795070">
        <ele>620.6</ele>
        <time>2019-01-05T11:06:51Z</time>
      </trkpt>
      <trkpt lat="38.8815220" lon="-0.6795490">
        <ele>619.4</ele>
        <time>2019-01-05T11:06:55Z</time>
      </trkpt>
      <trkpt lat="38.8815530" lon="-0.6795780">
        <ele>618.2</ele>
        <time>2019-01-05T11:06:58Z</time>
      </trkpt>
      <trkpt lat="38.8815790" lon="-0.6796050">
        <ele>618.0</ele>
        <time>2019-01-05T11:07:00Z</time>
      </trkpt>
      <trkpt lat="38.8815860" lon="-0.6796300">
        <ele>617.6</ele>
        <time>2019-01-05T11:07:02Z</time>
      </trkpt>
      <trkpt lat="38.8815910" lon="-0.6796480">
        <ele>616.8</ele>
        <time>2019-01-05T11:07:03Z</time>
      </trkpt>
      <trkpt lat="38.8816000" lon="-0.6796710">
        <ele>615.8</ele>
        <time>2019-01-05T11:07:04Z</time>
      </trkpt>
      <trkpt lat="38.8816090" lon="-0.6796930">
        <ele>615.0</ele>
        <time>2019-01-05T11:07:05Z</time>
      </trkpt>
      <trkpt lat="38.8816140" lon="-0.6797120">
        <ele>614.6</ele>
        <time>2019-01-05T11:07:06Z</time>
      </trkpt>
      <trkpt lat="38.8816170" lon="-0.6797270">
        <ele>614.2</ele>
        <time>2019-01-05T11:07:07Z</time>
      </trkpt>
      <trkpt lat="38.8816220" lon="-0.6797690">
        <ele>613.4</ele>
        <time>2019-01-05T11:07:09Z</time>
      </trkpt>
      <trkpt lat="38.8816310" lon="-0.6797990">
        <ele>613.2</ele>
        <time>2019-01-05T11:07:10Z</time>
      </trkpt>
      <trkpt lat="38.8816640" lon="-0.6798480">
        <ele>612.0</ele>
        <time>2019-01-05T11:07:12Z</time>
      </trkpt>
      <trkpt lat="38.8817130" lon="-0.6799060">
        <ele>610.8</ele>
        <time>2019-01-05T11:07:15Z</time>
      </trkpt>
      <trkpt lat="38.8817270" lon="-0.6799250">
        <ele>610.6</ele>
        <time>2019-01-05T11:07:16Z</time>
      </trkpt>
      <trkpt lat="38.8818060" lon="-0.6799740">
        <ele>609.4</ele>
        <time>2019-01-05T11:07:20Z</time>
      </trkpt>
      <trkpt lat="38.8818490" lon="-0.6799860">
        <ele>607.8</ele>
        <time>2019-01-05T11:07:22Z</time>
      </trkpt>
      <trkpt lat="38.8818930" lon="-0.6800130">
        <ele>606.4</ele>
        <time>2019-01-05T11:07:24Z</time>
      </trkpt>
      <trkpt lat="38.8819350" lon="-0.6800360">
        <ele>605.0</ele>
        <time>2019-01-05T11:07:26Z</time>
      </trkpt>
      <trkpt lat="38.8819730" lon="-0.6800720">
        <ele>604.0</ele>
        <time>2019-01-05T11:07:28Z</time>
      </trkpt>
      <trkpt lat="38.8820460" lon="-0.6801170">
        <ele>602.6</ele>
        <time>2019-01-05T11:07:31Z</time>
      </trkpt>
      <trkpt lat="38.8821380" lon="-0.6801450">
        <ele>601.4</ele>
        <time>2019-01-05T11:07:35Z</time>
      </trkpt>
      <trkpt lat="38.8822260" lon="-0.6801670">
        <ele>600.4</ele>
        <time>2019-01-05T11:07:38Z</time>
      </trkpt>
      <trkpt lat="38.8822520" lon="-0.6801750">
        <ele>600.2</ele>
        <time>2019-01-05T11:07:39Z</time>
      </trkpt>
      <trkpt lat="38.8822790" lon="-0.6801920">
        <ele>599.8</ele>
        <time>2019-01-05T11:07:42Z</time>
      </trkpt>
      <trkpt lat="38.8822930" lon="-0.6802370">
        <ele>598.8</ele>
        <time>2019-01-05T11:07:47Z</time>
      </trkpt>
      <trkpt lat="38.8823140" lon="-0.6802460">
        <ele>597.2</ele>
        <time>2019-01-05T11:07:49Z</time>
      </trkpt>
      <trkpt lat="38.8823330" lon="-0.6802720">
        <ele>595.2</ele>
        <time>2019-01-05T11:07:51Z</time>
      </trkpt>
      <trkpt lat="38.8823500" lon="-0.6802990">
        <ele>594.0</ele>
        <time>2019-01-05T11:07:53Z</time>
      </trkpt>
      <trkpt lat="38.8823820" lon="-0.6803200">
        <ele>592.8</ele>
        <time>2019-01-05T11:07:55Z</time>
      </trkpt>
      <trkpt lat="38.8824000" lon="-0.6803320">
        <ele>592.2</ele>
        <time>2019-01-05T11:07:56Z</time>
      </trkpt>
      <trkpt lat="38.8824250" lon="-0.6803580">
        <ele>591.4</ele>
        <time>2019-01-05T11:07:58Z</time>
      </trkpt>
      <trkpt lat="38.8824520" lon="-0.6803680">
        <ele>590.4</ele>
        <time>2019-01-05T11:08:00Z</time>
      </trkpt>
      <trkpt lat="38.8824650" lon="-0.6803770">
        <ele>590.0</ele>
        <time>2019-01-05T11:08:01Z</time>
      </trkpt>
      <trkpt lat="38.8824930" lon="-0.6803840">
        <ele>589.2</ele>
        <time>2019-01-05T11:08:03Z</time>
      </trkpt>
      <trkpt lat="38.8825220" lon="-0.6803970">
        <ele>588.4</ele>
        <time>2019-01-05T11:08:05Z</time>
      </trkpt>
      <trkpt lat="38.8825380" lon="-0.6804150">
        <ele>588.0</ele>
        <time>2019-01-05T11:08:06Z</time>
      </trkpt>
      <trkpt lat="38.8825680" lon="-0.6804560">
        <ele>587.0</ele>
        <time>2019-01-05T11:08:08Z</time>
      </trkpt>
      <trkpt lat="38.8825850" lon="-0.6805000">
        <ele>586.2</ele>
        <time>2019-01-05T11:08:10Z</time>
      </trkpt>
      <trkpt lat="38.8825890" lon="-0.6805250">
        <ele>585.8</ele>
        <time>2019-01-05T11:08:11Z</time>
      </trkpt>
      <trkpt lat="38.8825950" lon="-0.6805690">
        <ele>585.4</ele>
        <time>2019-01-05T11:08:13Z</time>
      </trkpt>
      <trkpt lat="38.8826220" lon="-0.6805830">
        <ele>584.6</ele>
        <time>2019-01-05T11:08:15Z</time>
      </trkpt>
      <trkpt lat="38.8826780" lon="-0.6805570">
        <ele>583.2</ele>
        <time>2019-01-05T11:08:18Z</time>
      </trkpt>
      <trkpt lat="38.8827470" lon="-0.6805370">
        <ele>582.0</ele>
        <time>2019-01-05T11:08:21Z</time>
      </trkpt>
      <trkpt lat="38.8828610" lon="-0.6805160">
        <ele>580.4</ele>
        <time>2019-01-05T11:08:26Z</time>
      </trkpt>
      <trkpt lat="38.8828890" lon="-0.6805340">
        <ele>579.2</ele>
        <time>2019-01-05T11:08:28Z</time>
      </trkpt>
      <trkpt lat="38.8829070" lon="-0.6805490">
        <ele>578.8</ele>
        <time>2019-01-05T11:08:29Z</time>
      </trkpt>
      <trkpt lat="38.8829240" lon="-0.6805570">
        <ele>578.6</ele>
        <time>2019-01-05T11:08:30Z</time>
      </trkpt>
      <trkpt lat="38.8829480" lon="-0.6805650">
        <ele>578.4</ele>
        <time>2019-01-05T11:08:31Z</time>
      </trkpt>
      <trkpt lat="38.8829900" lon="-0.6805800">
        <ele>578.0</ele>
        <time>2019-01-05T11:08:33Z</time>
      </trkpt>
      <trkpt lat="38.8830350" lon="-0.6805800">
        <ele>577.0</ele>
        <time>2019-01-05T11:08:36Z</time>
      </trkpt>
      <trkpt lat="38.8830550" lon="-0.6805840">
        <ele>576.6</ele>
        <time>2019-01-05T11:08:37Z</time>
      </trkpt>
      <trkpt lat="38.8831100" lon="-0.6805870">
        <ele>575.6</ele>
        <time>2019-01-05T11:08:40Z</time>
      </trkpt>
      <trkpt lat="38.8831500" lon="-0.6805920">
        <ele>574.2</ele>
        <time>2019-01-05T11:08:42Z</time>
      </trkpt>
      <trkpt lat="38.8832190" lon="-0.6806240">
        <ele>572.8</ele>
        <time>2019-01-05T11:08:45Z</time>
      </trkpt>
      <trkpt lat="38.8832670" lon="-0.6806480">
        <ele>571.4</ele>
        <time>2019-01-05T11:08:47Z</time>
      </trkpt>
      <trkpt lat="38.8833350" lon="-0.6806920">
        <ele>570.4</ele>
        <time>2019-01-05T11:08:50Z</time>
      </trkpt>
      <trkpt lat="38.8833970" lon="-0.6807330">
        <ele>569.2</ele>
        <time>2019-01-05T11:08:53Z</time>
      </trkpt>
      <trkpt lat="38.8834720" lon="-0.6807500">
        <ele>568.2</ele>
        <time>2019-01-05T11:08:56Z</time>
      </trkpt>
      <trkpt lat="38.8834960" lon="-0.6807500">
        <ele>567.8</ele>
        <time>2019-01-05T11:08:57Z</time>
      </trkpt>
      <trkpt lat="38.8835380" lon="-0.6807450">
        <ele>567.0</ele>
        <time>2019-01-05T11:08:59Z</time>
      </trkpt>
      <trkpt lat="38.8835960" lon="-0.6807250">
        <ele>566.2</ele>
        <time>2019-01-05T11:09:02Z</time>
      </trkpt>
      <trkpt lat="38.8836180" lon="-0.6807280">
        <ele>566.0</ele>
        <time>2019-01-05T11:09:03Z</time>
      </trkpt>
      <trkpt lat="38.8837030" lon="-0.6807560">
        <ele>565.0</ele>
        <time>2019-01-05T11:09:07Z</time>
      </trkpt>
      <trkpt lat="38.8837910" lon="-0.6807780">
        <ele>563.8</ele>
        <time>2019-01-05T11:09:11Z</time>
      </trkpt>
      <trkpt lat="38.8838420" lon="-0.6807900">
        <ele>563.2</ele>
        <time>2019-01-05T11:09:13Z</time>
      </trkpt>
      <trkpt lat="38.8838860" lon="-0.6808100">
        <ele>562.6</ele>
        <time>2019-01-05T11:09:15Z</time>
      </trkpt>
      <trkpt lat="38.8839530" lon="-0.6808260">
        <ele>562.2</ele>
        <time>2019-01-05T11:09:18Z</time>
      </trkpt>
      <trkpt lat="38.8840140" lon="-0.6808260">
        <ele>561.4</ele>
        <time>2019-01-05T11:09:21Z</time>
      </trkpt>
      <trkpt lat="38.8840580" lon="-0.6808210">
        <ele>561.0</ele>
        <time>2019-01-05T11:09:23Z</time>
      </trkpt>
      <trkpt lat="38.8840920" lon="-0.6808130">
        <ele>560.2</ele>
        <time>2019-01-05T11:09:25Z</time>
      </trkpt>
      <trkpt lat="38.8841500" lon="-0.6808050">
        <ele>558.6</ele>
        <time>2019-01-05T11:09:28Z</time>
      </trkpt>
      <trkpt lat="38.8842120" lon="-0.6808040">
        <ele>557.0</ele>
        <time>2019-01-05T11:09:31Z</time>
      </trkpt>
      <trkpt lat="38.8842480" lon="-0.6808050">
        <ele>556.0</ele>
        <time>2019-01-05T11:09:33Z</time>
      </trkpt>
      <trkpt lat="38.8843310" lon="-0.6808360">
        <ele>554.8</ele>
        <time>2019-01-05T11:09:38Z</time>
      </trkpt>
      <trkpt lat="38.8843510" lon="-0.6808360">
        <ele>554.4</ele>
        <time>2019-01-05T11:09:39Z</time>
      </trkpt>
      <trkpt lat="38.8843700" lon="-0.6808350">
        <ele>553.6</ele>
        <time>2019-01-05T11:09:40Z</time>
      </trkpt>
      <trkpt lat="38.8844110" lon="-0.6808390">
        <ele>552.8</ele>
        <time>2019-01-05T11:09:42Z</time>
      </trkpt>
      <trkpt lat="38.8844280" lon="-0.6808410">
        <ele>552.6</ele>
        <time>2019-01-05T11:09:43Z</time>
      </trkpt>
      <trkpt lat="38.8844750" lon="-0.6808650">
        <ele>551.2</ele>
        <time>2019-01-05T11:09:46Z</time>
      </trkpt>
      <trkpt lat="38.8844680" lon="-0.6808700">
        <ele>550.8</ele>
        <time>2019-01-05T11:09:47Z</time>
      </trkpt>
      <trkpt lat="38.8844270" lon="-0.6809230">
        <ele>550.0</ele>
        <time>2019-01-05T11:09:50Z</time>
      </trkpt>
      <trkpt lat="38.8844090" lon="-0.6809390">
        <ele>549.6</ele>
        <time>2019-01-05T11:09:51Z</time>
      </trkpt>
      <trkpt lat="38.8843690" lon="-0.6809870">
        <ele>548.8</ele>
        <time>2019-01-05T11:09:54Z</time>
      </trkpt>
      <trkpt lat="38.8843240" lon="-0.6810200">
        <ele>547.4</ele>
        <time>2019-01-05T11:09:57Z</time>
      </trkpt>
      <trkpt lat="38.8842790" lon="-0.6810600">
        <ele>546.2</ele>
        <time>2019-01-05T11:10:00Z</time>
      </trkpt>
      <trkpt lat="38.8842300" lon="-0.6810920">
        <ele>545.0</ele>
        <time>2019-01-05T11:10:03Z</time>
      </trkpt>
      <trkpt lat="38.8842130" lon="-0.6810990">
        <ele>544.6</ele>
        <time>2019-01-05T11:10:04Z</time>
      </trkpt>
      <trkpt lat="38.8841840" lon="-0.6811160">
        <ele>544.6</ele>
        <time>2019-01-05T11:10:06Z</time>
      </trkpt>
      <trkpt lat="38.8841920" lon="-0.6811250">
        <ele>544.0</ele>
        <time>2019-01-05T11:10:08Z</time>
      </trkpt>
      <trkpt lat="38.8842290" lon="-0.6811050">
        <ele>542.8</ele>
        <time>2019-01-05T11:10:11Z</time>
      </trkpt>
      <trkpt lat="38.8842460" lon="-0.6811060">
        <ele>542.4</ele>
        <time>2019-01-05T11:10:12Z</time>
      </trkpt>
      <trkpt lat="38.8842630" lon="-0.6811080">
        <ele>542.0</ele>
        <time>2019-01-05T11:10:13Z</time>
      </trkpt>
      <trkpt lat="38.8842940" lon="-0.6811080">
        <ele>541.6</ele>
        <time>2019-01-05T11:10:15Z</time>
      </trkpt>
      <trkpt lat="38.8843400" lon="-0.6811120">
        <ele>540.2</ele>
        <time>2019-01-05T11:10:18Z</time>
      </trkpt>
      <trkpt lat="38.8843820" lon="-0.6811230">
        <ele>539.6</ele>
        <time>2019-01-05T11:10:20Z</time>
      </trkpt>
      <trkpt lat="38.8844280" lon="-0.6811480">
        <ele>539.2</ele>
        <time>2019-01-05T11:10:22Z</time>
      </trkpt>
      <trkpt lat="38.8844970" lon="-0.6811900">
        <ele>538.2</ele>
        <time>2019-01-05T11:10:25Z</time>
      </trkpt>
      <trkpt lat="38.8845200" lon="-0.6811990">
        <ele>538.0</ele>
        <time>2019-01-05T11:10:26Z</time>
      </trkpt>
      <trkpt lat="38.8845670" lon="-0.6812030">
        <ele>536.6</ele>
        <time>2019-01-05T11:10:29Z</time>
      </trkpt>
      <trkpt lat="38.8846590" lon="-0.6812210">
        <ele>535.6</ele>
        <time>2019-01-05T11:10:33Z</time>
      </trkpt>
      <trkpt lat="38.8846820" lon="-0.6812130">
        <ele>535.4</ele>
        <time>2019-01-05T11:10:34Z</time>
      </trkpt>
      <trkpt lat="38.8847300" lon="-0.6811550">
        <ele>535.4</ele>
        <time>2019-01-05T11:10:38Z</time>
      </trkpt>
      <trkpt lat="38.8847370" lon="-0.6811380">
        <ele>535.6</ele>
        <time>2019-01-05T11:10:39Z</time>
      </trkpt>
      <trkpt lat="38.8847750" lon="-0.6810730">
        <ele>536.6</ele>
        <time>2019-01-05T11:10:43Z</time>
      </trkpt>
      <trkpt lat="38.8848190" lon="-0.6810170">
        <ele>538.0</ele>
        <time>2019-01-05T11:10:47Z</time>
      </trkpt>
      <trkpt lat="38.8848550" lon="-0.6809970">
        <ele>538.8</ele>
        <time>2019-01-05T11:10:50Z</time>
      </trkpt>
      <trkpt lat="38.8848680" lon="-0.6810000">
        <ele>539.2</ele>
        <time>2019-01-05T11:10:51Z</time>
      </trkpt>
      <trkpt lat="38.8848940" lon="-0.6810020">
        <ele>539.4</ele>
        <time>2019-01-05T11:10:53Z</time>
      </trkpt>
      <trkpt lat="38.8849540" lon="-0.6810060">
        <ele>537.8</ele>
        <time>2019-01-05T11:10:57Z</time>
      </trkpt>
      <trkpt lat="38.8849670" lon="-0.6810140">
        <ele>537.6</ele>
        <time>2019-01-05T11:10:58Z</time>
      </trkpt>
      <trkpt lat="38.8850290" lon="-0.6810260">
        <ele>536.2</ele>
        <time>2019-01-05T11:11:03Z</time>
      </trkpt>
      <trkpt lat="38.8850450" lon="-0.6810340">
        <ele>535.4</ele>
        <time>2019-01-05T11:11:04Z</time>
      </trkpt>
      <trkpt lat="38.8850590" lon="-0.6810440">
        <ele>535.0</ele>
        <time>2019-01-05T11:11:05Z</time>
      </trkpt>
      <trkpt lat="38.8850900" lon="-0.6810650">
        <ele>534.0</ele>
        <time>2019-01-05T11:11:07Z</time>
      </trkpt>
      <trkpt lat="38.8851060" lon="-0.6810690">
        <ele>533.6</ele>
        <time>2019-01-05T11:11:08Z</time>
      </trkpt>
      <trkpt lat="38.8851370" lon="-0.6810830">
        <ele>532.6</ele>
        <time>2019-01-05T11:11:10Z</time>
      </trkpt>
      <trkpt lat="38.8851600" lon="-0.6811050">
        <ele>531.8</ele>
        <time>2019-01-05T11:11:12Z</time>
      </trkpt>
      <trkpt lat="38.8851830" lon="-0.6811210">
        <ele>531.2</ele>
        <time>2019-01-05T11:11:14Z</time>
      </trkpt>
      <trkpt lat="38.8852260" lon="-0.6811470">
        <ele>530.0</ele>
        <time>2019-01-05T11:11:17Z</time>
      </trkpt>
      <trkpt lat="38.8852400" lon="-0.6811580">
        <ele>529.4</ele>
        <time>2019-01-05T11:11:18Z</time>
      </trkpt>
      <trkpt lat="38.8852510" lon="-0.6811710">
        <ele>528.8</ele>
        <time>2019-01-05T11:11:19Z</time>
      </trkpt>
      <trkpt lat="38.8852970" lon="-0.6812140">
        <ele>527.4</ele>
        <time>2019-01-05T11:11:23Z</time>
      </trkpt>
      <trkpt lat="38.8853090" lon="-0.6812260">
        <ele>527.0</ele>
        <time>2019-01-05T11:11:24Z</time>
      </trkpt>
      <trkpt lat="38.8853260" lon="-0.6812350">
        <ele>526.8</ele>
        <time>2019-01-05T11:11:25Z</time>
      </trkpt>
      <trkpt lat="38.8853450" lon="-0.6812340">
        <ele>526.4</ele>
        <time>2019-01-05T11:11:26Z</time>
      </trkpt>
      <trkpt lat="38.8853840" lon="-0.6812330">
        <ele>525.4</ele>
        <time>2019-01-05T11:11:28Z</time>
      </trkpt>
      <trkpt lat="38.8854030" lon="-0.6812350">
        <ele>525.0</ele>
        <time>2019-01-05T11:11:29Z</time>
      </trkpt>
      <trkpt lat="38.8854760" lon="-0.6812560">
        <ele>524.0</ele>
        <time>2019-01-05T11:11:33Z</time>
      </trkpt>
      <trkpt lat="38.8854920" lon="-0.6812630">
        <ele>523.8</ele>
        <time>2019-01-05T11:11:34Z</time>
      </trkpt>
      <trkpt lat="38.8855090" lon="-0.6812760">
        <ele>523.2</ele>
        <time>2019-01-05T11:11:35Z</time>
      </trkpt>
      <trkpt lat="38.8855250" lon="-0.6812920">
        <ele>522.4</ele>
        <time>2019-01-05T11:11:36Z</time>
      </trkpt>
      <trkpt lat="38.8855380" lon="-0.6813070">
        <ele>521.8</ele>
        <time>2019-01-05T11:11:37Z</time>
      </trkpt>
      <trkpt lat="38.8855480" lon="-0.6813160">
        <ele>521.4</ele>
        <time>2019-01-05T11:11:38Z</time>
      </trkpt>
      <trkpt lat="38.8855960" lon="-0.6813620">
        <ele>520.0</ele>
        <time>2019-01-05T11:11:42Z</time>
      </trkpt>
      <trkpt lat="38.8856070" lon="-0.6813810">
        <ele>519.4</ele>
        <time>2019-01-05T11:11:43Z</time>
      </trkpt>
      <trkpt lat="38.8856170" lon="-0.6814060">
        <ele>518.6</ele>
        <time>2019-01-05T11:11:44Z</time>
      </trkpt>
      <trkpt lat="38.8856310" lon="-0.6814480">
        <ele>517.4</ele>
        <time>2019-01-05T11:11:46Z</time>
      </trkpt>
      <trkpt lat="38.8856380" lon="-0.6814770">
        <ele>516.8</ele>
        <time>2019-01-05T11:11:47Z</time>
      </trkpt>
      <trkpt lat="38.8856470" lon="-0.6814980">
        <ele>516.4</ele>
        <time>2019-01-05T11:11:48Z</time>
      </trkpt>
      <trkpt lat="38.8856680" lon="-0.6815380">
        <ele>515.4</ele>
        <time>2019-01-05T11:11:50Z</time>
      </trkpt>
      <trkpt lat="38.8856990" lon="-0.6815960">
        <ele>514.2</ele>
        <time>2019-01-05T11:11:53Z</time>
      </trkpt>
      <trkpt lat="38.8857600" lon="-0.6816300">
        <ele>513.2</ele>
        <time>2019-01-05T11:11:56Z</time>
      </trkpt>
      <trkpt lat="38.8857820" lon="-0.6816390">
        <ele>512.8</ele>
        <time>2019-01-05T11:11:57Z</time>
      </trkpt>
      <trkpt lat="38.8858090" lon="-0.6816470">
        <ele>511.8</ele>
        <time>2019-01-05T11:11:58Z</time>
      </trkpt>
      <trkpt lat="38.8858540" lon="-0.6816800">
        <ele>510.8</ele>
        <time>2019-01-05T11:12:00Z</time>
      </trkpt>
      <trkpt lat="38.8858950" lon="-0.6817250">
        <ele>509.8</ele>
        <time>2019-01-05T11:12:02Z</time>
      </trkpt>
      <trkpt lat="38.8859110" lon="-0.6817490">
        <ele>509.2</ele>
        <time>2019-01-05T11:12:03Z</time>
      </trkpt>
      <trkpt lat="38.8859470" lon="-0.6817900">
        <ele>508.0</ele>
        <time>2019-01-05T11:12:05Z</time>
      </trkpt>
      <trkpt lat="38.8859930" lon="-0.6818780">
        <ele>506.8</ele>
        <time>2019-01-05T11:12:08Z</time>
      </trkpt>
      <trkpt lat="38.8860690" lon="-0.6819850">
        <ele>505.6</ele>
        <time>2019-01-05T11:12:12Z</time>
      </trkpt>
      <trkpt lat="38.8861120" lon="-0.6820330">
        <ele>504.8</ele>
        <time>2019-01-05T11:12:14Z</time>
      </trkpt>
      <trkpt lat="38.8861340" lon="-0.6820580">
        <ele>504.4</ele>
        <time>2019-01-05T11:12:15Z</time>
      </trkpt>
      <trkpt lat="38.8862010" lon="-0.6821150">
        <ele>503.2</ele>
        <time>2019-01-05T11:12:18Z</time>
      </trkpt>
      <trkpt lat="38.8862730" lon="-0.6821640">
        <ele>502.0</ele>
        <time>2019-01-05T11:12:21Z</time>
      </trkpt>
      <trkpt lat="38.8863240" lon="-0.6821930">
        <ele>501.4</ele>
        <time>2019-01-05T11:12:23Z</time>
      </trkpt>
      <trkpt lat="38.8863760" lon="-0.6822240">
        <ele>501.0</ele>
        <time>2019-01-05T11:12:25Z</time>
      </trkpt>
      <trkpt lat="38.8864300" lon="-0.6822490">
        <ele>499.8</ele>
        <time>2019-01-05T11:12:27Z</time>
      </trkpt>
      <trkpt lat="38.8864540" lon="-0.6822600">
        <ele>499.0</ele>
        <time>2019-01-05T11:12:28Z</time>
      </trkpt>
      <trkpt lat="38.8864750" lon="-0.6822690">
        <ele>498.6</ele>
        <time>2019-01-05T11:12:29Z</time>
      </trkpt>
      <trkpt lat="38.8865740" lon="-0.6822640">
        <ele>497.8</ele>
        <time>2019-01-05T11:12:33Z</time>
      </trkpt>
      <trkpt lat="38.8865990" lon="-0.6822550">
        <ele>497.4</ele>
        <time>2019-01-05T11:12:34Z</time>
      </trkpt>
      <trkpt lat="38.8866500" lon="-0.6822320">
        <ele>496.2</ele>
        <time>2019-01-05T11:12:37Z</time>
      </trkpt>
      <trkpt lat="38.8866800" lon="-0.6822130">
        <ele>495.8</ele>
        <time>2019-01-05T11:12:39Z</time>
      </trkpt>
      <trkpt lat="38.8867120" lon="-0.6821830">
        <ele>494.6</ele>
        <time>2019-01-05T11:12:41Z</time>
      </trkpt>
      <trkpt lat="38.8867480" lon="-0.6821290">
        <ele>493.4</ele>
        <time>2019-01-05T11:12:44Z</time>
      </trkpt>
      <trkpt lat="38.8867640" lon="-0.6821100">
        <ele>492.6</ele>
        <time>2019-01-05T11:12:45Z</time>
      </trkpt>
      <trkpt lat="38.8867850" lon="-0.6820920">
        <ele>492.2</ele>
        <time>2019-01-05T11:12:46Z</time>
      </trkpt>
      <trkpt lat="38.8868170" lon="-0.6820630">
        <ele>491.2</ele>
        <time>2019-01-05T11:12:48Z</time>
      </trkpt>
      <trkpt lat="38.8868560" lon="-0.6820420">
        <ele>490.0</ele>
        <time>2019-01-05T11:12:50Z</time>
      </trkpt>
      <trkpt lat="38.8868850" lon="-0.6820140">
        <ele>488.6</ele>
        <time>2019-01-05T11:12:52Z</time>
      </trkpt>
      <trkpt lat="38.8869130" lon="-0.6819440">
        <ele>487.2</ele>
        <time>2019-01-05T11:12:55Z</time>
      </trkpt>
      <trkpt lat="38.8869170" lon="-0.6818880">
        <ele>485.8</ele>
        <time>2019-01-05T11:12:57Z</time>
      </trkpt>
      <trkpt lat="38.8869120" lon="-0.6818290">
        <ele>484.8</ele>
        <time>2019-01-05T11:12:59Z</time>
      </trkpt>
      <trkpt lat="38.8868890" lon="-0.6817340">
        <ele>484.0</ele>
        <time>2019-01-05T11:13:02Z</time>
      </trkpt>
      <trkpt lat="38.8868860" lon="-0.6817020">
        <ele>483.6</ele>
        <time>2019-01-05T11:13:03Z</time>
      </trkpt>
      <trkpt lat="38.8868770" lon="-0.6816030">
        <ele>482.2</ele>
        <time>2019-01-05T11:13:06Z</time>
      </trkpt>
      <trkpt lat="38.8868780" lon="-0.6815370">
        <ele>480.6</ele>
        <time>2019-01-05T11:13:08Z</time>
      </trkpt>
      <trkpt lat="38.8868850" lon="-0.6814680">
        <ele>479.0</ele>
        <time>2019-01-05T11:13:10Z</time>
      </trkpt>
      <trkpt lat="38.8868890" lon="-0.6814350">
        <ele>478.2</ele>
        <time>2019-01-05T11:13:11Z</time>
      </trkpt>
      <trkpt lat="38.8868910" lon="-0.6814030">
        <ele>477.8</ele>
        <time>2019-01-05T11:13:12Z</time>
      </trkpt>
      <trkpt lat="38.8869110" lon="-0.6812850">
        <ele>477.0</ele>
        <time>2019-01-05T11:13:16Z</time>
      </trkpt>
      <trkpt lat="38.8869140" lon="-0.6812580">
        <ele>476.6</ele>
        <time>2019-01-05T11:13:17Z</time>
      </trkpt>
      <trkpt lat="38.8869410" lon="-0.6811860">
        <ele>475.6</ele>
        <time>2019-01-05T11:13:20Z</time>
      </trkpt>
      <trkpt lat="38.8869520" lon="-0.6811580">
        <ele>474.8</ele>
        <time>2019-01-05T11:13:21Z</time>
      </trkpt>
      <trkpt lat="38.8869620" lon="-0.6811280">
        <ele>473.8</ele>
        <time>2019-01-05T11:13:22Z</time>
      </trkpt>
      <trkpt lat="38.8869770" lon="-0.6810730">
        <ele>472.2</ele>
        <time>2019-01-05T11:13:24Z</time>
      </trkpt>
      <trkpt lat="38.8869940" lon="-0.6809970">
        <ele>471.0</ele>
        <time>2019-01-05T11:13:27Z</time>
      </trkpt>
      <trkpt lat="38.8869990" lon="-0.6809690">
        <ele>470.8</ele>
        <time>2019-01-05T11:13:28Z</time>
      </trkpt>
      <trkpt lat="38.8870360" lon="-0.6808810">
        <ele>469.4</ele>
        <time>2019-01-05T11:13:31Z</time>
      </trkpt>
      <trkpt lat="38.8870610" lon="-0.6808230">
        <ele>468.2</ele>
        <time>2019-01-05T11:13:33Z</time>
      </trkpt>
      <trkpt lat="38.8870870" lon="-0.6807680">
        <ele>467.4</ele>
        <time>2019-01-05T11:13:35Z</time>
      </trkpt>
      <trkpt lat="38.8871040" lon="-0.6807440">
        <ele>467.0</ele>
        <time>2019-01-05T11:13:36Z</time>
      </trkpt>
      <trkpt lat="38.8871570" lon="-0.6806760">
        <ele>465.6</ele>
        <time>2019-01-05T11:13:39Z</time>
      </trkpt>
      <trkpt lat="38.8871980" lon="-0.6806360">
        <ele>465.0</ele>
        <time>2019-01-05T11:13:41Z</time>
      </trkpt>
      <trkpt lat="38.8872240" lon="-0.6806190">
        <ele>464.2</ele>
        <time>2019-01-05T11:13:42Z</time>
      </trkpt>
      <trkpt lat="38.8872890" lon="-0.6805740">
        <ele>463.0</ele>
        <time>2019-01-05T11:13:45Z</time>
      </trkpt>
      <trkpt lat="38.8873400" lon="-0.6805430">
        <ele>462.2</ele>
        <time>2019-01-05T11:13:47Z</time>
      </trkpt>
      <trkpt lat="38.8873660" lon="-0.6805340">
        <ele>461.6</ele>
        <time>2019-01-05T11:13:48Z</time>
      </trkpt>
      <trkpt lat="38.8874420" lon="-0.6805260">
        <ele>460.4</ele>
        <time>2019-01-05T11:13:51Z</time>
      </trkpt>
      <trkpt lat="38.8874740" lon="-0.6805310">
        <ele>460.0</ele>
        <time>2019-01-05T11:13:52Z</time>
      </trkpt>
      <trkpt lat="38.8875310" lon="-0.6805330">
        <ele>459.0</ele>
        <time>2019-01-05T11:13:54Z</time>
      </trkpt>
      <trkpt lat="38.8875810" lon="-0.6805300">
        <ele>458.2</ele>
        <time>2019-01-05T11:13:56Z</time>
      </trkpt>
      <trkpt lat="38.8876010" lon="-0.6805280">
        <ele>457.8</ele>
        <time>2019-01-05T11:13:57Z</time>
      </trkpt>
      <trkpt lat="38.8876990" lon="-0.6805050">
        <ele>456.6</ele>
        <time>2019-01-05T11:14:01Z</time>
      </trkpt>
      <trkpt lat="38.8877500" lon="-0.6805080">
        <ele>455.8</ele>
        <time>2019-01-05T11:14:03Z</time>
      </trkpt>
      <trkpt lat="38.8877740" lon="-0.6805190">
        <ele>455.4</ele>
        <time>2019-01-05T11:14:04Z</time>
      </trkpt>
      <trkpt lat="38.8878090" lon="-0.6805490">
        <ele>454.4</ele>
        <time>2019-01-05T11:14:06Z</time>
      </trkpt>
      <trkpt lat="38.8878320" lon="-0.6805820">
        <ele>453.2</ele>
        <time>2019-01-05T11:14:08Z</time>
      </trkpt>
      <trkpt lat="38.8878410" lon="-0.6805960">
        <ele>453.0</ele>
        <time>2019-01-05T11:14:09Z</time>
      </trkpt>
      <trkpt lat="38.8878560" lon="-0.6806070">
        <ele>452.8</ele>
        <time>2019-01-05T11:14:10Z</time>
      </trkpt>
      <trkpt lat="38.8878860" lon="-0.6806290">
        <ele>451.8</ele>
        <time>2019-01-05T11:14:12Z</time>
      </trkpt>
      <trkpt lat="38.8879170" lon="-0.6806640">
        <ele>450.6</ele>
        <time>2019-01-05T11:14:14Z</time>
      </trkpt>
      <trkpt lat="38.8879400" lon="-0.6807010">
        <ele>449.6</ele>
        <time>2019-01-05T11:14:16Z</time>
      </trkpt>
      <trkpt lat="38.8879480" lon="-0.6807210">
        <ele>449.0</ele>
        <time>2019-01-05T11:14:17Z</time>
      </trkpt>
      <trkpt lat="38.8879650" lon="-0.6807630">
        <ele>447.8</ele>
        <time>2019-01-05T11:14:19Z</time>
      </trkpt>
      <trkpt lat="38.8879840" lon="-0.6808010">
        <ele>446.8</ele>
        <time>2019-01-05T11:14:21Z</time>
      </trkpt>
      <trkpt lat="38.8879890" lon="-0.6808230">
        <ele>446.6</ele>
        <time>2019-01-05T11:14:22Z</time>
      </trkpt>
      <trkpt lat="38.8880000" lon="-0.6808730">
        <ele>445.2</ele>
        <time>2019-01-05T11:14:25Z</time>
      </trkpt>
      <trkpt lat="38.8879910" lon="-0.6809440">
        <ele>444.0</ele>
        <time>2019-01-05T11:14:28Z</time>
      </trkpt>
      <trkpt lat="38.8879760" lon="-0.6809980">
        <ele>443.0</ele>
        <time>2019-01-05T11:14:30Z</time>
      </trkpt>
      <trkpt lat="38.8879660" lon="-0.6810240">
        <ele>442.6</ele>
        <time>2019-01-05T11:14:31Z</time>
      </trkpt>
      <trkpt lat="38.8879300" lon="-0.6810860">
        <ele>441.6</ele>
        <time>2019-01-05T11:14:35Z</time>
      </trkpt>
      <trkpt lat="38.8879190" lon="-0.6811040">
        <ele>441.0</ele>
        <time>2019-01-05T11:14:36Z</time>
      </trkpt>
      <trkpt lat="38.8878980" lon="-0.6811450">
        <ele>440.2</ele>
        <time>2019-01-05T11:14:38Z</time>
      </trkpt>
      <trkpt lat="38.8878980" lon="-0.6811590">
        <ele>440.0</ele>
        <time>2019-01-05T11:14:39Z</time>
      </trkpt>
      <trkpt lat="38.8879110" lon="-0.6811760">
        <ele>439.4</ele>
        <time>2019-01-05T11:14:41Z</time>
      </trkpt>
      <trkpt lat="38.8879250" lon="-0.6811830">
        <ele>439.0</ele>
        <time>2019-01-05T11:14:42Z</time>
      </trkpt>
      <trkpt lat="38.8879430" lon="-0.6812010">
        <ele>438.6</ele>
        <time>2019-01-05T11:14:43Z</time>
      </trkpt>
      <trkpt lat="38.8879530" lon="-0.6812260">
        <ele>438.2</ele>
        <time>2019-01-05T11:14:44Z</time>
      </trkpt>
      <trkpt lat="38.8879470" lon="-0.6812940">
        <ele>437.4</ele>
        <time>2019-01-05T11:14:46Z</time>
      </trkpt>
      <trkpt lat="38.8879290" lon="-0.6813670">
        <ele>436.4</ele>
        <time>2019-01-05T11:14:48Z</time>
      </trkpt>
      <trkpt lat="38.8879220" lon="-0.6813990">
        <ele>436.0</ele>
        <time>2019-01-05T11:14:49Z</time>
      </trkpt>
      <trkpt lat="38.8879150" lon="-0.6814660">
        <ele>435.2</ele>
        <time>2019-01-05T11:14:51Z</time>
      </trkpt>
      <trkpt lat="38.8879080" lon="-0.6816150">
        <ele>433.8</ele>
        <time>2019-01-05T11:14:55Z</time>
      </trkpt>
      <trkpt lat="38.8879070" lon="-0.6816480">
        <ele>433.2</ele>
        <time>2019-01-05T11:14:56Z</time>
      </trkpt>
      <trkpt lat="38.8879160" lon="-0.6817100">
        <ele>432.4</ele>
        <time>2019-01-05T11:14:58Z</time>
      </trkpt>
      <trkpt lat="38.8879230" lon="-0.6818060">
        <ele>431.2</ele>
        <time>2019-01-05T11:15:01Z</time>
      </trkpt>
      <trkpt lat="38.8879420" lon="-0.6818420">
        <ele>430.2</ele>
        <time>2019-01-05T11:15:04Z</time>
      </trkpt>
      <trkpt lat="38.8879520" lon="-0.6818410">
        <ele>430.0</ele>
        <time>2019-01-05T11:15:05Z</time>
      </trkpt>
      <trkpt lat="38.8879610" lon="-0.6818350">
        <ele>430.0</ele>
        <time>2019-01-05T11:15:06Z</time>
      </trkpt>
      <trkpt lat="38.8879800" lon="-0.6818100">
        <ele>429.6</ele>
        <time>2019-01-05T11:15:08Z</time>
      </trkpt>
      <trkpt lat="38.8879840" lon="-0.6817920">
        <ele>428.8</ele>
        <time>2019-01-05T11:15:09Z</time>
      </trkpt>
      <trkpt lat="38.8879890" lon="-0.6817780">
        <ele>428.2</ele>
        <time>2019-01-05T11:15:10Z</time>
      </trkpt>
      <trkpt lat="38.8879990" lon="-0.6817510">
        <ele>427.8</ele>
        <time>2019-01-05T11:15:12Z</time>
      </trkpt>
      <trkpt lat="38.8880090" lon="-0.6817170">
        <ele>426.6</ele>
        <time>2019-01-05T11:15:15Z</time>
      </trkpt>
      <trkpt lat="38.8880350" lon="-0.6817020">
        <ele>425.6</ele>
        <time>2019-01-05T11:15:19Z</time>
      </trkpt>
      <trkpt lat="38.8880430" lon="-0.6817150">
        <ele>425.0</ele>
        <time>2019-01-05T11:15:20Z</time>
      </trkpt>
      <trkpt lat="38.8880600" lon="-0.6817470">
        <ele>423.6</ele>
        <time>2019-01-05T11:15:22Z</time>
      </trkpt>
      <trkpt lat="38.8880660" lon="-0.6817960">
        <ele>422.0</ele>
        <time>2019-01-05T11:15:24Z</time>
      </trkpt>
      <trkpt lat="38.8880660" lon="-0.6818200">
        <ele>421.2</ele>
        <time>2019-01-05T11:15:25Z</time>
      </trkpt>
      <trkpt lat="38.8880680" lon="-0.6818430">
        <ele>420.6</ele>
        <time>2019-01-05T11:15:26Z</time>
      </trkpt>
      <trkpt lat="38.8880630" lon="-0.6818730">
        <ele>419.6</ele>
        <time>2019-01-05T11:15:29Z</time>
      </trkpt>
      <trkpt lat="38.8880630" lon="-0.6818800">
        <ele>419.6</ele>
        <time>2019-01-05T11:15:30Z</time>
      </trkpt>
      <trkpt lat="38.8880610" lon="-0.6819080">
        <ele>419.6</ele>
        <time>2019-01-05T11:15:32Z</time>
      </trkpt>
      <trkpt lat="38.8880660" lon="-0.6819390">
        <ele>418.4</ele>
        <time>2019-01-05T11:15:34Z</time>
      </trkpt>
      <trkpt lat="38.8880740" lon="-0.6819520">
        <ele>417.8</ele>
        <time>2019-01-05T11:15:35Z</time>
      </trkpt>
      <trkpt lat="38.8880830" lon="-0.6819720">
        <ele>417.2</ele>
        <time>2019-01-05T11:15:36Z</time>
      </trkpt>
      <trkpt lat="38.8881010" lon="-0.6820140">
        <ele>415.8</ele>
        <time>2019-01-05T11:15:38Z</time>
      </trkpt>
      <trkpt lat="38.8881120" lon="-0.6820760">
        <ele>414.8</ele>
        <time>2019-01-05T11:15:41Z</time>
      </trkpt>
      <trkpt lat="38.8881120" lon="-0.6821710">
        <ele>413.4</ele>
        <time>2019-01-05T11:15:44Z</time>
      </trkpt>
      <trkpt lat="38.8881090" lon="-0.6821960">
        <ele>413.0</ele>
        <time>2019-01-05T11:15:45Z</time>
      </trkpt>
      <trkpt lat="38.8881050" lon="-0.6822490">
        <ele>412.4</ele>
        <time>2019-01-05T11:15:47Z</time>
      </trkpt>
      <trkpt lat="38.8881020" lon="-0.6823080">
        <ele>411.2</ele>
        <time>2019-01-05T11:15:50Z</time>
      </trkpt>
      <trkpt lat="38.8881030" lon="-0.6823920">
        <ele>410.0</ele>
        <time>2019-01-05T11:15:55Z</time>
      </trkpt>
      <trkpt lat="38.8881100" lon="-0.6824200">
        <ele>409.4</ele>
        <time>2019-01-05T11:15:57Z</time>
      </trkpt>
      <trkpt lat="38.8881150" lon="-0.6824380">
        <ele>408.8</ele>
        <time>2019-01-05T11:15:58Z</time>
      </trkpt>
      <trkpt lat="38.8881190" lon="-0.6824550">
        <ele>408.4</ele>
        <time>2019-01-05T11:15:59Z</time>
      </trkpt>
      <trkpt lat="38.8881390" lon="-0.6825000">
        <ele>407.6</ele>
        <time>2019-01-05T11:16:02Z</time>
      </trkpt>
      <trkpt lat="38.8881490" lon="-0.6825420">
        <ele>407.0</ele>
        <time>2019-01-05T11:16:04Z</time>
      </trkpt>
      <trkpt lat="38.8881530" lon="-0.6825610">
        <ele>406.2</ele>
        <time>2019-01-05T11:16:05Z</time>
      </trkpt>
      <trkpt lat="38.8881610" lon="-0.6826090">
        <ele>404.8</ele>
        <time>2019-01-05T11:16:07Z</time>
      </trkpt>
      <trkpt lat="38.8881820" lon="-0.6826590">
        <ele>403.6</ele>
        <time>2019-01-05T11:16:10Z</time>
      </trkpt>
      <trkpt lat="38.8881870" lon="-0.6826730">
        <ele>403.2</ele>
        <time>2019-01-05T11:16:11Z</time>
      </trkpt>
      <trkpt lat="38.8881910" lon="-0.6826980">
        <ele>402.6</ele>
        <time>2019-01-05T11:16:12Z</time>
      </trkpt>
      <trkpt lat="38.8882120" lon="-0.6827730">
        <ele>401.2</ele>
        <time>2019-01-05T11:16:15Z</time>
      </trkpt>
      <trkpt lat="38.8882250" lon="-0.6828170">
        <ele>400.2</ele>
        <time>2019-01-05T11:16:17Z</time>
      </trkpt>
      <trkpt lat="38.8882630" lon="-0.6829040">
        <ele>399.2</ele>
        <time>2019-01-05T11:16:21Z</time>
      </trkpt>
      <trkpt lat="38.8882790" lon="-0.6829730">
        <ele>397.6</ele>
        <time>2019-01-05T11:16:24Z</time>
      </trkpt>
      <trkpt lat="38.8882890" lon="-0.6830170">
        <ele>396.4</ele>
        <time>2019-01-05T11:16:26Z</time>
      </trkpt>
      <trkpt lat="38.8882950" lon="-0.6830410">
        <ele>396.0</ele>
        <time>2019-01-05T11:16:27Z</time>
      </trkpt>
      <trkpt lat="38.8883090" lon="-0.6830910">
        <ele>395.2</ele>
        <time>2019-01-05T11:16:29Z</time>
      </trkpt>
      <trkpt lat="38.8883150" lon="-0.6831280">
        <ele>394.0</ele>
        <time>2019-01-05T11:16:31Z</time>
      </trkpt>
      <trkpt lat="38.8883220" lon="-0.6831430">
        <ele>393.6</ele>
        <time>2019-01-05T11:16:32Z</time>
      </trkpt>
      <trkpt lat="38.8883270" lon="-0.6831780">
        <ele>393.0</ele>
        <time>2019-01-05T11:16:34Z</time>
      </trkpt>
      <trkpt lat="38.8883320" lon="-0.6832000">
        <ele>392.8</ele>
        <time>2019-01-05T11:16:35Z</time>
      </trkpt>
      <trkpt lat="38.8883380" lon="-0.6832220">
        <ele>392.2</ele>
        <time>2019-01-05T11:16:36Z</time>
      </trkpt>
      <trkpt lat="38.8883580" lon="-0.6832650">
        <ele>391.6</ele>
        <time>2019-01-05T11:16:38Z</time>
      </trkpt>
      <trkpt lat="38.8883860" lon="-0.6833390">
        <ele>390.2</ele>
        <time>2019-01-05T11:16:41Z</time>
      </trkpt>
      <trkpt lat="38.8883900" lon="-0.6833900">
        <ele>389.4</ele>
        <time>2019-01-05T11:16:43Z</time>
      </trkpt>
      <trkpt lat="38.8883910" lon="-0.6834140">
        <ele>388.8</ele>
        <time>2019-01-05T11:16:44Z</time>
      </trkpt>
      <trkpt lat="38.8883890" lon="-0.6834680">
        <ele>387.8</ele>
        <time>2019-01-05T11:16:46Z</time>
      </trkpt>
      <trkpt lat="38.8883900" lon="-0.6835190">
        <ele>387.2</ele>
        <time>2019-01-05T11:16:48Z</time>
      </trkpt>
      <trkpt lat="38.8884000" lon="-0.6835720">
        <ele>386.4</ele>
        <time>2019-01-05T11:16:50Z</time>
      </trkpt>
      <trkpt lat="38.8884090" lon="-0.6836180">
        <ele>385.2</ele>
        <time>2019-01-05T11:16:52Z</time>
      </trkpt>
      <trkpt lat="38.8884130" lon="-0.6836380">
        <ele>384.6</ele>
        <time>2019-01-05T11:16:53Z</time>
      </trkpt>
      <trkpt lat="38.8884160" lon="-0.6836550">
        <ele>384.2</ele>
        <time>2019-01-05T11:16:54Z</time>
      </trkpt>
      <trkpt lat="38.8884130" lon="-0.6837300">
        <ele>382.8</ele>
        <time>2019-01-05T11:16:57Z</time>
      </trkpt>
      <trkpt lat="38.8884100" lon="-0.6838030">
        <ele>382.0</ele>
        <time>2019-01-05T11:16:59Z</time>
      </trkpt>
      <trkpt lat="38.8884010" lon="-0.6838650">
        <ele>381.6</ele>
        <time>2019-01-05T11:17:01Z</time>
      </trkpt>
      <trkpt lat="38.8883880" lon="-0.6839520">
        <ele>380.4</ele>
        <time>2019-01-05T11:17:04Z</time>
      </trkpt>
      <trkpt lat="38.8883820" lon="-0.6839820">
        <ele>380.0</ele>
        <time>2019-01-05T11:17:05Z</time>
      </trkpt>
      <trkpt lat="38.8883810" lon="-0.6840390">
        <ele>379.0</ele>
        <time>2019-01-05T11:17:07Z</time>
      </trkpt>
      <trkpt lat="38.8883880" lon="-0.6840960">
        <ele>378.2</ele>
        <time>2019-01-05T11:17:09Z</time>
      </trkpt>
      <trkpt lat="38.8883930" lon="-0.6841250">
        <ele>377.8</ele>
        <time>2019-01-05T11:17:10Z</time>
      </trkpt>
      <trkpt lat="38.8884070" lon="-0.6842090">
        <ele>376.8</ele>
        <time>2019-01-05T11:17:13Z</time>
      </trkpt>
      <trkpt lat="38.8884150" lon="-0.6842360">
        <ele>376.2</ele>
        <time>2019-01-05T11:17:14Z</time>
      </trkpt>
      <trkpt lat="38.8884340" lon="-0.6842940">
        <ele>375.4</ele>
        <time>2019-01-05T11:17:16Z</time>
      </trkpt>
      <trkpt lat="38.8884900" lon="-0.6843750">
        <ele>374.4</ele>
        <time>2019-01-05T11:17:19Z</time>
      </trkpt>
      <trkpt lat="38.8885380" lon="-0.6843950">
        <ele>373.2</ele>
        <time>2019-01-05T11:17:21Z</time>
      </trkpt>
      <trkpt lat="38.8886160" lon="-0.6843830">
        <ele>372.2</ele>
        <time>2019-01-05T11:17:24Z</time>
      </trkpt>
      <trkpt lat="38.8886400" lon="-0.6843770">
        <ele>372.0</ele>
        <time>2019-01-05T11:17:25Z</time>
      </trkpt>
      <trkpt lat="38.8887150" lon="-0.6843260">
        <ele>370.8</ele>
        <time>2019-01-05T11:17:28Z</time>
      </trkpt>
      <trkpt lat="38.8887620" lon="-0.6842850">
        <ele>369.8</ele>
        <time>2019-01-05T11:17:30Z</time>
      </trkpt>
      <trkpt lat="38.8888390" lon="-0.6842150">
        <ele>368.6</ele>
        <time>2019-01-05T11:17:34Z</time>
      </trkpt>
      <trkpt lat="38.8888590" lon="-0.6841990">
        <ele>368.2</ele>
        <time>2019-01-05T11:17:35Z</time>
      </trkpt>
      <trkpt lat="38.8889360" lon="-0.6841650">
        <ele>367.0</ele>
        <time>2019-01-05T11:17:38Z</time>
      </trkpt>
      <trkpt lat="38.8889850" lon="-0.6841590">
        <ele>365.8</ele>
        <time>2019-01-05T11:17:40Z</time>
      </trkpt>
      <trkpt lat="38.8890050" lon="-0.6841590">
        <ele>365.4</ele>
        <time>2019-01-05T11:17:41Z</time>
      </trkpt>
      <trkpt lat="38.8890540" lon="-0.6841710">
        <ele>364.2</ele>
        <time>2019-01-05T11:17:43Z</time>
      </trkpt>
      <trkpt lat="38.8891010" lon="-0.6842020">
        <ele>363.2</ele>
        <time>2019-01-05T11:17:45Z</time>
      </trkpt>
      <trkpt lat="38.8891190" lon="-0.6842250">
        <ele>362.6</ele>
        <time>2019-01-05T11:17:46Z</time>
      </trkpt>
      <trkpt lat="38.8891510" lon="-0.6842760">
        <ele>362.0</ele>
        <time>2019-01-05T11:17:48Z</time>
      </trkpt>
      <trkpt lat="38.8892080" lon="-0.6843580">
        <ele>361.0</ele>
        <time>2019-01-05T11:17:51Z</time>
      </trkpt>
      <trkpt lat="38.8892260" lon="-0.6843870">
        <ele>360.6</ele>
        <time>2019-01-05T11:17:52Z</time>
      </trkpt>
      <trkpt lat="38.8892760" lon="-0.6844740">
        <ele>359.4</ele>
        <time>2019-01-05T11:17:55Z</time>
      </trkpt>
      <trkpt lat="38.8893050" lon="-0.6845320">
        <ele>359.0</ele>
        <time>2019-01-05T11:17:57Z</time>
      </trkpt>
      <trkpt lat="38.8893280" lon="-0.6845850">
        <ele>358.2</ele>
        <time>2019-01-05T11:17:59Z</time>
      </trkpt>
      <trkpt lat="38.8893450" lon="-0.6846130">
        <ele>358.0</ele>
        <time>2019-01-05T11:18:00Z</time>
      </trkpt>
      <trkpt lat="38.8893960" lon="-0.6847050">
        <ele>357.2</ele>
        <time>2019-01-05T11:18:03Z</time>
      </trkpt>
      <trkpt lat="38.8894230" lon="-0.6847500">
        <ele>356.2</ele>
        <time>2019-01-05T11:18:05Z</time>
      </trkpt>
      <trkpt lat="38.8894360" lon="-0.6847780">
        <ele>356.0</ele>
        <time>2019-01-05T11:18:06Z</time>
      </trkpt>
      <trkpt lat="38.8894950" lon="-0.6848970">
        <ele>354.6</ele>
        <time>2019-01-05T11:18:10Z</time>
      </trkpt>
      <trkpt lat="38.8895100" lon="-0.6849220">
        <ele>354.4</ele>
        <time>2019-01-05T11:18:11Z</time>
      </trkpt>
      <trkpt lat="38.8895410" lon="-0.6849810">
        <ele>353.6</ele>
        <time>2019-01-05T11:18:13Z</time>
      </trkpt>
      <trkpt lat="38.8896090" lon="-0.6851040">
        <ele>352.4</ele>
        <time>2019-01-05T11:18:17Z</time>
      </trkpt>
      <trkpt lat="38.8896630" lon="-0.6851970">
        <ele>351.4</ele>
        <time>2019-01-05T11:18:20Z</time>
      </trkpt>
      <trkpt lat="38.8897190" lon="-0.6852690">
        <ele>350.4</ele>
        <time>2019-01-05T11:18:23Z</time>
      </trkpt>
      <trkpt lat="38.8897910" lon="-0.6853860">
        <ele>349.2</ele>
        <time>2019-01-05T11:18:27Z</time>
      </trkpt>
      <trkpt lat="38.8898110" lon="-0.6854160">
        <ele>348.8</ele>
        <time>2019-01-05T11:18:28Z</time>
      </trkpt>
      <trkpt lat="38.8898450" lon="-0.6854730">
        <ele>347.8</ele>
        <time>2019-01-05T11:18:30Z</time>
      </trkpt>
      <trkpt lat="38.8899240" lon="-0.6855820">
        <ele>346.8</ele>
        <time>2019-01-05T11:18:34Z</time>
      </trkpt>
      <trkpt lat="38.8899930" lon="-0.6856730">
        <ele>345.6</ele>
        <time>2019-01-05T11:18:38Z</time>
      </trkpt>
      <trkpt lat="38.8900860" lon="-0.6857920">
        <ele>344.4</ele>
        <time>2019-01-05T11:18:43Z</time>
      </trkpt>
      <trkpt lat="38.8901050" lon="-0.6858150">
        <ele>344.0</ele>
        <time>2019-01-05T11:18:44Z</time>
      </trkpt>
      <trkpt lat="38.8901390" lon="-0.6858720">
        <ele>343.2</ele>
        <time>2019-01-05T11:18:46Z</time>
      </trkpt>
      <trkpt lat="38.8902020" lon="-0.6859510">
        <ele>342.4</ele>
        <time>2019-01-05T11:18:49Z</time>
      </trkpt>
      <trkpt lat="38.8902240" lon="-0.6859780">
        <ele>342.0</ele>
        <time>2019-01-05T11:18:50Z</time>
      </trkpt>
      <trkpt lat="38.8902790" lon="-0.6860670">
        <ele>341.0</ele>
        <time>2019-01-05T11:18:53Z</time>
      </trkpt>
      <trkpt lat="38.8902970" lon="-0.6860930">
        <ele>340.8</ele>
        <time>2019-01-05T11:18:54Z</time>
      </trkpt>
      <trkpt lat="38.8903530" lon="-0.6861660">
        <ele>340.0</ele>
        <time>2019-01-05T11:18:57Z</time>
      </trkpt>
      <trkpt lat="38.8904130" lon="-0.6862540">
        <ele>338.8</ele>
        <time>2019-01-05T11:19:00Z</time>
      </trkpt>
      <trkpt lat="38.8904790" lon="-0.6863370">
        <ele>337.4</ele>
        <time>2019-01-05T11:19:03Z</time>
      </trkpt>
      <trkpt lat="38.8905210" lon="-0.6863830">
        <ele>336.2</ele>
        <time>2019-01-05T11:19:05Z</time>
      </trkpt>
      <trkpt lat="38.8905420" lon="-0.6864110">
        <ele>336.0</ele>
        <time>2019-01-05T11:19:06Z</time>
      </trkpt>
      <trkpt lat="38.8906230" lon="-0.6865240">
        <ele>335.2</ele>
        <time>2019-01-05T11:19:10Z</time>
      </trkpt>
      <trkpt lat="38.8906430" lon="-0.6865540">
        <ele>334.8</ele>
        <time>2019-01-05T11:19:11Z</time>
      </trkpt>
      <trkpt lat="38.8907080" lon="-0.6866380">
        <ele>334.0</ele>
        <time>2019-01-05T11:19:14Z</time>
      </trkpt>
      <trkpt lat="38.8907490" lon="-0.6866880">
        <ele>334.0</ele>
        <time>2019-01-05T11:19:16Z</time>
      </trkpt>
      <trkpt lat="38.8908320" lon="-0.6867780">
        <ele>334.2</ele>
        <time>2019-01-05T11:19:20Z</time>
      </trkpt>
      <trkpt lat="38.8909510" lon="-0.6868940">
        <ele>334.4</ele>
        <time>2019-01-05T11:19:26Z</time>
      </trkpt>
      <trkpt lat="38.8910520" lon="-0.6869720">
        <ele>335.2</ele>
        <time>2019-01-05T11:19:32Z</time>
      </trkpt>
      <trkpt lat="38.8911450" lon="-0.6870490">
        <ele>336.0</ele>
        <time>2019-01-05T11:19:37Z</time>
      </trkpt>
      <trkpt lat="38.8911650" lon="-0.6870680">
        <ele>336.2</ele>
        <time>2019-01-05T11:19:38Z</time>
      </trkpt>
      <trkpt lat="38.8912250" lon="-0.6871240">
        <ele>336.6</ele>
        <time>2019-01-05T11:19:41Z</time>
      </trkpt>
      <trkpt lat="38.8912700" lon="-0.6871580">
        <ele>336.6</ele>
        <time>2019-01-05T11:19:43Z</time>
      </trkpt>
      <trkpt lat="38.8913220" lon="-0.6872080">
        <ele>336.6</ele>
        <time>2019-01-05T11:19:46Z</time>
      </trkpt>
      <trkpt lat="38.8913390" lon="-0.6872250">
        <ele>336.6</ele>
        <time>2019-01-05T11:19:47Z</time>
      </trkpt>
      <trkpt lat="38.8914240" lon="-0.6872890">
        <ele>336.6</ele>
        <time>2019-01-05T11:19:51Z</time>
      </trkpt>
      <trkpt lat="38.8914470" lon="-0.6873060">
        <ele>336.6</ele>
        <time>2019-01-05T11:19:52Z</time>
      </trkpt>
      <trkpt lat="38.8915870" lon="-0.6873850">
        <ele>336.8</ele>
        <time>2019-01-05T11:19:58Z</time>
      </trkpt>
      <trkpt lat="38.8917200" lon="-0.6874530">
        <ele>337.0</ele>
        <time>2019-01-05T11:20:04Z</time>
      </trkpt>
      <trkpt lat="38.8918610" lon="-0.6875490">
        <ele>337.4</ele>
        <time>2019-01-05T11:20:11Z</time>
      </trkpt>
      <trkpt lat="38.8919830" lon="-0.6876470">
        <ele>338.0</ele>
        <time>2019-01-05T11:20:17Z</time>
      </trkpt>
      <trkpt lat="38.8921050" lon="-0.6877650">
        <ele>338.4</ele>
        <time>2019-01-05T11:20:23Z</time>
      </trkpt>
      <trkpt lat="38.8922020" lon="-0.6878340">
        <ele>338.2</ele>
        <time>2019-01-05T11:20:28Z</time>
      </trkpt>
      <trkpt lat="38.8923180" lon="-0.6879260">
        <ele>338.6</ele>
        <time>2019-01-05T11:20:35Z</time>
      </trkpt>
      <trkpt lat="38.8923990" lon="-0.6879770">
        <ele>338.8</ele>
        <time>2019-01-05T11:20:40Z</time>
      </trkpt>
      <trkpt lat="38.8924930" lon="-0.6880570">
        <ele>338.6</ele>
        <time>2019-01-05T11:20:45Z</time>
      </trkpt>
      <trkpt lat="38.8925590" lon="-0.6880870">
        <ele>339.4</ele>
        <time>2019-01-05T11:20:49Z</time>
      </trkpt>
      <trkpt lat="38.8925830" lon="-0.6881130">
        <ele>340.0</ele>
        <time>2019-01-05T11:20:51Z</time>
      </trkpt>
      <trkpt lat="38.8926070" lon="-0.6881440">
        <ele>340.8</ele>
        <time>2019-01-05T11:20:53Z</time>
      </trkpt>
      <trkpt lat="38.8926350" lon="-0.6882060">
        <ele>341.4</ele>
        <time>2019-01-05T11:20:56Z</time>
      </trkpt>
      <trkpt lat="38.8926870" lon="-0.6883400">
        <ele>341.2</ele>
        <time>2019-01-05T11:21:01Z</time>
      </trkpt>
      <trkpt lat="38.8927650" lon="-0.6884280">
        <ele>340.6</ele>
        <time>2019-01-05T11:21:06Z</time>
      </trkpt>
      <trkpt lat="38.8927850" lon="-0.6884470">
        <ele>340.6</ele>
        <time>2019-01-05T11:21:07Z</time>
      </trkpt>
      <trkpt lat="38.8928260" lon="-0.6884880">
        <ele>340.2</ele>
        <time>2019-01-05T11:21:09Z</time>
      </trkpt>
      <trkpt lat="38.8928800" lon="-0.6885480">
        <ele>340.4</ele>
        <time>2019-01-05T11:21:12Z</time>
      </trkpt>
      <trkpt lat="38.8929740" lon="-0.6886650">
        <ele>340.6</ele>
        <time>2019-01-05T11:21:17Z</time>
      </trkpt>
      <trkpt lat="38.8930930" lon="-0.6888080">
        <ele>340.8</ele>
        <time>2019-01-05T11:21:24Z</time>
      </trkpt>
      <trkpt lat="38.8931520" lon="-0.6888780">
        <ele>340.2</ele>
        <time>2019-01-05T11:21:28Z</time>
      </trkpt>
      <trkpt lat="38.8931830" lon="-0.6889170">
        <ele>340.0</ele>
        <time>2019-01-05T11:21:30Z</time>
      </trkpt>
      <trkpt lat="38.8932530" lon="-0.6890010">
        <ele>339.8</ele>
        <time>2019-01-05T11:21:34Z</time>
      </trkpt>
      <trkpt lat="38.8932700" lon="-0.6890270">
        <ele>339.6</ele>
        <time>2019-01-05T11:21:35Z</time>
      </trkpt>
      <trkpt lat="38.8933710" lon="-0.6891580">
        <ele>339.2</ele>
        <time>2019-01-05T11:21:40Z</time>
      </trkpt>
      <trkpt lat="38.8934340" lon="-0.6892550">
        <ele>338.6</ele>
        <time>2019-01-05T11:21:44Z</time>
      </trkpt>
      <trkpt lat="38.8934500" lon="-0.6892820">
        <ele>338.6</ele>
        <time>2019-01-05T11:21:45Z</time>
      </trkpt>
      <trkpt lat="38.8935310" lon="-0.6894400">
        <ele>338.2</ele>
        <time>2019-01-05T11:21:51Z</time>
      </trkpt>
      <trkpt lat="38.8935570" lon="-0.6895220">
        <ele>337.4</ele>
        <time>2019-01-05T11:21:54Z</time>
      </trkpt>
      <trkpt lat="38.8935670" lon="-0.6895870">
        <ele>337.4</ele>
        <time>2019-01-05T11:21:56Z</time>
      </trkpt>
      <trkpt lat="38.8936300" lon="-0.6897760">
        <ele>337.4</ele>
        <time>2019-01-05T11:22:02Z</time>
      </trkpt>
      <trkpt lat="38.8936790" lon="-0.6898870">
        <ele>336.4</ele>
        <time>2019-01-05T11:22:06Z</time>
      </trkpt>
      <trkpt lat="38.8936920" lon="-0.6899080">
        <ele>336.4</ele>
        <time>2019-01-05T11:22:07Z</time>
      </trkpt>
      <trkpt lat="38.8937190" lon="-0.6899530">
        <ele>336.0</ele>
        <time>2019-01-05T11:22:09Z</time>
      </trkpt>
      <trkpt lat="38.8937490" lon="-0.6900070">
        <ele>335.4</ele>
        <time>2019-01-05T11:22:11Z</time>
      </trkpt>
      <trkpt lat="38.8937650" lon="-0.6900360">
        <ele>335.2</ele>
        <time>2019-01-05T11:22:12Z</time>
      </trkpt>
      <trkpt lat="38.8938310" lon="-0.6901390">
        <ele>335.2</ele>
        <time>2019-01-05T11:22:16Z</time>
      </trkpt>
      <trkpt lat="38.8939270" lon="-0.6902000">
        <ele>334.8</ele>
        <time>2019-01-05T11:22:21Z</time>
      </trkpt>
      <trkpt lat="38.8939690" lon="-0.6902200">
        <ele>334.4</ele>
        <time>2019-01-05T11:22:23Z</time>
      </trkpt>
      <trkpt lat="38.8940570" lon="-0.6902510">
        <ele>333.6</ele>
        <time>2019-01-05T11:22:27Z</time>
      </trkpt>
      <trkpt lat="38.8940940" lon="-0.6902650">
        <ele>333.4</ele>
        <time>2019-01-05T11:22:29Z</time>
      </trkpt>
      <trkpt lat="38.8941340" lon="-0.6902790">
        <ele>332.6</ele>
        <time>2019-01-05T11:22:32Z</time>
      </trkpt>
      <trkpt lat="38.8941520" lon="-0.6902810">
        <ele>332.2</ele>
        <time>2019-01-05T11:22:34Z</time>
      </trkpt>
      <trkpt lat="38.8942010" lon="-0.6902950">
        <ele>332.0</ele>
        <time>2019-01-05T11:22:38Z</time>
      </trkpt>
      <trkpt lat="38.8942100" lon="-0.6903020">
        <ele>332.0</ele>
        <time>2019-01-05T11:22:39Z</time>
      </trkpt>
      <trkpt lat="38.8942590" lon="-0.6903140">
        <ele>331.8</ele>
        <time>2019-01-05T11:22:43Z</time>
      </trkpt>
      <trkpt lat="38.8942730" lon="-0.6903110">
        <ele>331.8</ele>
        <time>2019-01-05T11:22:44Z</time>
      </trkpt>
      <trkpt lat="38.8942910" lon="-0.6903040">
        <ele>331.8</ele>
        <time>2019-01-05T11:22:46Z</time>
      </trkpt>
      <trkpt lat="38.8943160" lon="-0.6902960">
        <ele>331.6</ele>
        <time>2019-01-05T11:22:48Z</time>
      </trkpt>
      <trkpt lat="38.8943260" lon="-0.6902980">
        <ele>331.4</ele>
        <time>2019-01-05T11:22:49Z</time>
      </trkpt>
      <trkpt lat="38.8943860" lon="-0.6903350">
        <ele>331.4</ele>
        <time>2019-01-05T11:22:53Z</time>
      </trkpt>
      <trkpt lat="38.8944170" lon="-0.6903490">
        <ele>331.4</ele>
        <time>2019-01-05T11:22:55Z</time>
      </trkpt>
      <trkpt lat="38.8944330" lon="-0.6903550">
        <ele>331.2</ele>
        <time>2019-01-05T11:22:56Z</time>
      </trkpt>
      <trkpt lat="38.8944860" lon="-0.6903600">
        <ele>330.2</ele>
        <time>2019-01-05T11:22:59Z</time>
      </trkpt>
      <trkpt lat="38.8945120" lon="-0.6903540">
        <ele>330.0</ele>
        <time>2019-01-05T11:23:00Z</time>
      </trkpt>
      <trkpt lat="38.8946000" lon="-0.6903880">
        <ele>328.8</ele>
        <time>2019-01-05T11:23:06Z</time>
      </trkpt>
      <trkpt lat="38.8946170" lon="-0.6903970">
        <ele>328.8</ele>
        <time>2019-01-05T11:23:07Z</time>
      </trkpt>
      <trkpt lat="38.8946330" lon="-0.6904320">
        <ele>328.2</ele>
        <time>2019-01-05T11:23:11Z</time>
      </trkpt>
      <trkpt lat="38.8946530" lon="-0.6904460">
        <ele>328.2</ele>
        <time>2019-01-05T11:23:12Z</time>
      </trkpt>
      <trkpt lat="38.8946770" lon="-0.6904620">
        <ele>328.0</ele>
        <time>2019-01-05T11:23:15Z</time>
      </trkpt>
      <trkpt lat="38.8946990" lon="-0.6904520">
        <ele>327.8</ele>
        <time>2019-01-05T11:23:16Z</time>
      </trkpt>
      <trkpt lat="38.8947120" lon="-0.6904520">
        <ele>327.8</ele>
        <time>2019-01-05T11:23:17Z</time>
      </trkpt>
      <trkpt lat="38.8947530" lon="-0.6904540">
        <ele>327.6</ele>
        <time>2019-01-05T11:23:19Z</time>
      </trkpt>
      <trkpt lat="38.8948060" lon="-0.6904890">
        <ele>327.0</ele>
        <time>2019-01-05T11:23:24Z</time>
      </trkpt>
      <trkpt lat="38.8948350" lon="-0.6905010">
        <ele>326.8</ele>
        <time>2019-01-05T11:23:26Z</time>
      </trkpt>
      <trkpt lat="38.8948780" lon="-0.6905070">
        <ele>326.4</ele>
        <time>2019-01-05T11:23:30Z</time>
      </trkpt>
      <trkpt lat="38.8949230" lon="-0.6905010">
        <ele>325.8</ele>
        <time>2019-01-05T11:23:34Z</time>
      </trkpt>
      <trkpt lat="38.8949330" lon="-0.6905050">
        <ele>325.8</ele>
        <time>2019-01-05T11:23:35Z</time>
      </trkpt>
      <trkpt lat="38.8949450" lon="-0.6905130">
        <ele>325.8</ele>
        <time>2019-01-05T11:23:36Z</time>
      </trkpt>
      <trkpt lat="38.8949530" lon="-0.6905220">
        <ele>325.6</ele>
        <time>2019-01-05T11:23:37Z</time>
      </trkpt>
      <trkpt lat="38.8949900" lon="-0.6905890">
        <ele>325.8</ele>
        <time>2019-01-05T11:23:40Z</time>
      </trkpt>
      <trkpt lat="38.8950740" lon="-0.6906030">
        <ele>324.8</ele>
        <time>2019-01-05T11:23:46Z</time>
      </trkpt>
      <trkpt lat="38.8950830" lon="-0.6906080">
        <ele>324.6</ele>
        <time>2019-01-05T11:23:47Z</time>
      </trkpt>
      <trkpt lat="38.8951050" lon="-0.6906100">
        <ele>324.2</ele>
        <time>2019-01-05T11:23:49Z</time>
      </trkpt>
      <trkpt lat="38.8951280" lon="-0.6906090">
        <ele>323.6</ele>
        <time>2019-01-05T11:23:52Z</time>
      </trkpt>
      <trkpt lat="38.8951380" lon="-0.6905990">
        <ele>323.6</ele>
        <time>2019-01-05T11:23:53Z</time>
      </trkpt>
      <trkpt lat="38.8951610" lon="-0.6905850">
        <ele>323.4</ele>
        <time>2019-01-05T11:23:54Z</time>
      </trkpt>
      <trkpt lat="38.8951790" lon="-0.6906680">
        <ele>323.4</ele>
        <time>2019-01-05T11:23:59Z</time>
      </trkpt>
      <trkpt lat="38.8951620" lon="-0.6908200">
        <ele>323.4</ele>
        <time>2019-01-05T11:24:06Z</time>
      </trkpt>
      <trkpt lat="38.8951700" lon="-0.6908470">
        <ele>323.4</ele>
        <time>2019-01-05T11:24:07Z</time>
      </trkpt>
      <trkpt lat="38.8951770" lon="-0.6909030">
        <ele>323.4</ele>
        <time>2019-01-05T11:24:09Z</time>
      </trkpt>
      <trkpt lat="38.8951670" lon="-0.6909430">
        <ele>323.6</ele>
        <time>2019-01-05T11:24:11Z</time>
      </trkpt>
      <trkpt lat="38.8951160" lon="-0.6910310">
        <ele>323.6</ele>
        <time>2019-01-05T11:24:16Z</time>
      </trkpt>
      <trkpt lat="38.8951110" lon="-0.6910530">
        <ele>323.6</ele>
        <time>2019-01-05T11:24:17Z</time>
      </trkpt>
      <trkpt lat="38.8950950" lon="-0.6910880">
        <ele>323.6</ele>
        <time>2019-01-05T11:24:19Z</time>
      </trkpt>
      <trkpt lat="38.895710" lon="-0.691607">
        <ele>262.118</ele>
        <time>2015-07-04T06:39:05Z</time>
      </trkpt>
      <trkpt lat="38.895721" lon="-0.691626">
        <ele>265.998</ele>
        <time>2015-07-04T06:39:10Z</time>
      </trkpt>
      <trkpt lat="38.895733" lon="-0.691652">
        <ele>273.217</ele>
        <time>2015-07-04T06:39:19Z</time>
      </trkpt>
      <trkpt lat="38.895725" lon="-0.691622">
        <ele>291.408</ele>
        <time>2015-07-04T06:40:32Z</time>
      </trkpt>
      <trkpt lat="38.895714" lon="-0.691828">
        <ele>291.932</ele>
        <time>2015-07-04T06:40:58Z</time>
      </trkpt>
      <trkpt lat="38.895672" lon="-0.691950">
        <ele>291.932</ele>
        <time>2015-07-04T06:41:01Z</time>
      </trkpt>
      <trkpt lat="38.895626" lon="-0.692131">
        <ele>291.913</ele>
        <time>2015-07-04T06:41:05Z</time>
      </trkpt>
      <trkpt lat="38.895649" lon="-0.692259">
        <ele>291.986</ele>
        <time>2015-07-04T06:41:09Z</time>
      </trkpt>
      <trkpt lat="38.895676" lon="-0.692290">
        <ele>291.487</ele>
        <time>2015-07-04T06:41:11Z</time>
      </trkpt>
      <trkpt lat="38.895725" lon="-0.692396">
        <ele>291.464</ele>
        <time>2015-07-04T06:41:16Z</time>
      </trkpt>
      <trkpt lat="38.895828" lon="-0.692914">
        <ele>290.522</ele>
        <time>2015-07-04T06:41:27Z</time>
      </trkpt>
      <trkpt lat="38.895802" lon="-0.693325">
        <ele>291.426</ele>
        <time>2015-07-04T06:41:37Z</time>
      </trkpt>
      <trkpt lat="38.895775" lon="-0.693484">
        <ele>291.421</ele>
        <time>2015-07-04T06:41:41Z</time>
      </trkpt>
      <trkpt lat="38.895760" lon="-0.693636">
        <ele>291.441</ele>
        <time>2015-07-04T06:41:45Z</time>
      </trkpt>
      <trkpt lat="38.895714" lon="-0.693801">
        <ele>291.405</ele>
        <time>2015-07-04T06:41:50Z</time>
      </trkpt>
      <trkpt lat="38.895683" lon="-0.694121">
        <ele>291.908</ele>
        <time>2015-07-04T06:41:58Z</time>
      </trkpt>
      <trkpt lat="38.895683" lon="-0.694203">
        <ele>292.493</ele>
        <time>2015-07-04T06:42:00Z</time>
      </trkpt>
      <trkpt lat="38.895676" lon="-0.694355">
        <ele>292.433</ele>
        <time>2015-07-04T06:42:04Z</time>
      </trkpt>
      <trkpt lat="38.895607" lon="-0.694683">
        <ele>293.374</ele>
        <time>2015-07-04T06:42:13Z</time>
      </trkpt>
      <trkpt lat="38.895542" lon="-0.694804">
        <ele>293.337</ele>
        <time>2015-07-04T06:42:18Z</time>
      </trkpt>
      <trkpt lat="38.895496" lon="-0.694788">
        <ele>293.828</ele>
        <time>2015-07-04T06:42:21Z</time>
      </trkpt>
      <trkpt lat="38.895332" lon="-0.694453">
        <ele>294.335</ele>
        <time>2015-07-04T06:42:31Z</time>
      </trkpt>
      <trkpt lat="38.895187" lon="-0.694196">
        <ele>295.313</ele>
        <time>2015-07-04T06:42:39Z</time>
      </trkpt>
      <trkpt lat="38.895134" lon="-0.694064">
        <ele>295.777</ele>
        <time>2015-07-04T06:42:44Z</time>
      </trkpt>
      <trkpt lat="38.895115" lon="-0.694035">
        <ele>296.798</ele>
        <time>2015-07-04T06:42:46Z</time>
      </trkpt>
      <trkpt lat="38.895042" lon="-0.693709">
        <ele>297.215</ele>
        <time>2015-07-04T06:42:55Z</time>
      </trkpt>
      <trkpt lat="38.895000" lon="-0.693461">
        <ele>297.226</ele>
        <time>2015-07-04T06:43:01Z</time>
      </trkpt>
      <trkpt lat="38.895039" lon="-0.693238">
        <ele>297.208</ele>
        <time>2015-07-04T06:43:07Z</time>
      </trkpt>
      <trkpt lat="38.895073" lon="-0.692851">
        <ele>296.710</ele>
        <time>2015-07-04T06:43:17Z</time>
      </trkpt>
      <trkpt lat="38.895111" lon="-0.692792">
        <ele>296.790</ele>
        <time>2015-07-04T06:43:19Z</time>
      </trkpt>
      <trkpt lat="38.895130" lon="-0.692593">
        <ele>296.741</ele>
        <time>2015-07-04T06:43:23Z</time>
      </trkpt>
      <trkpt lat="38.895123" lon="-0.692415">
        <ele>296.724</ele>
        <time>2015-07-04T06:43:27Z</time>
      </trkpt>
      <trkpt lat="38.895081" lon="-0.692152">
        <ele>296.745</ele>
        <time>2015-07-04T06:43:34Z</time>
      </trkpt>
      <trkpt lat="38.895077" lon="-0.692115">
        <ele>296.232</ele>
        <time>2015-07-04T06:43:35Z</time>
      </trkpt>
      <trkpt lat="38.894951" lon="-0.691969">
        <ele>298.610</ele>
        <time>2015-07-04T06:43:44Z</time>
      </trkpt>
      <trkpt lat="38.894890" lon="-0.691947">
        <ele>299.614</ele>
        <time>2015-07-04T06:43:48Z</time>
      </trkpt>
      <trkpt lat="38.894802" lon="-0.692088">
        <ele>299.687</ele>
        <time>2015-07-04T06:43:55Z</time>
      </trkpt>
      <trkpt lat="38.894760" lon="-0.692260">
        <ele>300.642</ele>
        <time>2015-07-04T06:44:00Z</time>
      </trkpt>
      <trkpt lat="38.894798" lon="-0.692617">
        <ele>301.026</ele>
        <time>2015-07-04T06:44:11Z</time>
      </trkpt>
      <trkpt lat="38.894688" lon="-0.692596">
        <ele>302.008</ele>
        <time>2015-07-04T06:44:16Z</time>
      </trkpt>
      <trkpt lat="38.894539" lon="-0.692565">
        <ele>302.559</ele>
        <time>2015-07-04T06:44:20Z</time>
      </trkpt>
      <trkpt lat="38.894398" lon="-0.692436">
        <ele>303.929</ele>
        <time>2015-07-04T06:44:25Z</time>
      </trkpt>
      <trkpt lat="38.894428" lon="-0.692061">
        <ele>304.410</ele>
        <time>2015-07-04T06:44:37Z</time>
      </trkpt>
      <trkpt lat="38.894455" lon="-0.691898">
        <ele>304.483</ele>
        <time>2015-07-04T06:44:42Z</time>
      </trkpt>
      <trkpt lat="38.894501" lon="-0.691752">
        <ele>304.914</ele>
        <time>2015-07-04T06:44:46Z</time>
      </trkpt>
      <trkpt lat="38.894466" lon="-0.691571">
        <ele>304.911</ele>
        <time>2015-07-04T06:44:50Z</time>
      </trkpt>
      <trkpt lat="38.894489" lon="-0.691370">
        <ele>303.919</ele>
        <time>2015-07-04T06:44:55Z</time>
      </trkpt>
      <trkpt lat="38.894512" lon="-0.691318">
        <ele>303.923</ele>
        <time>2015-07-04T06:44:57Z</time>
      </trkpt>
      <trkpt lat="38.894497" lon="-0.691273">
        <ele>304.445</ele>
        <time>2015-07-04T06:44:58Z</time>
      </trkpt>
      <trkpt lat="38.894337" lon="-0.691180">
        <ele>305.847</ele>
        <time>2015-07-04T06:45:05Z</time>
      </trkpt>
      <trkpt lat="38.894241" lon="-0.691153">
        <ele>307.311</ele>
        <time>2015-07-04T06:45:10Z</time>
      </trkpt>
      <trkpt lat="38.894169" lon="-0.691369">
        <ele>309.208</ele>
        <time>2015-07-04T06:45:18Z</time>
      </trkpt>
      <trkpt lat="38.894112" lon="-0.691552">
        <ele>309.795</ele>
        <time>2015-07-04T06:45:23Z</time>
      </trkpt>
      <trkpt lat="38.894085" lon="-0.691610">
        <ele>310.655</ele>
        <time>2015-07-04T06:45:26Z</time>
      </trkpt>
      <trkpt lat="38.893806" lon="-0.691548">
        <ele>313.556</ele>
        <time>2015-07-04T06:45:36Z</time>
      </trkpt>
      <trkpt lat="38.893627" lon="-0.691538">
        <ele>316.979</ele>
        <time>2015-07-04T06:45:45Z</time>
      </trkpt>
      <trkpt lat="38.893543" lon="-0.691519">
        <ele>317.460</ele>
        <time>2015-07-04T06:45:48Z</time>
      </trkpt>
      <trkpt lat="38.893478" lon="-0.691467">
        <ele>317.937</ele>
        <time>2015-07-04T06:45:52Z</time>
      </trkpt>
      <trkpt lat="38.893486" lon="-0.691099">
        <ele>316.985</ele>
        <time>2015-07-04T06:46:03Z</time>
      </trkpt>
      <trkpt lat="38.893501" lon="-0.691021">
        <ele>316.449</ele>
        <time>2015-07-04T06:46:05Z</time>
      </trkpt>
      <trkpt lat="38.893536" lon="-0.690885">
        <ele>315.593</ele>
        <time>2015-07-04T06:46:08Z</time>
      </trkpt>
      <trkpt lat="38.893608" lon="-0.690615">
        <ele>313.565</ele>
        <time>2015-07-04T06:46:14Z</time>
      </trkpt>
      <trkpt lat="38.893684" lon="-0.690317">
        <ele>313.121</ele>
        <time>2015-07-04T06:46:21Z</time>
      </trkpt>
      <trkpt lat="38.893711" lon="-0.690109">
        <ele>312.108</ele>
        <time>2015-07-04T06:46:26Z</time>
      </trkpt>
      <trkpt lat="38.893730" lon="-0.689975">
        <ele>310.690</ele>
        <time>2015-07-04T06:46:29Z</time>
      </trkpt>
      <trkpt lat="38.893658" lon="-0.689649">
        <ele>311.640</ele>
        <time>2015-07-04T06:46:38Z</time>
      </trkpt>
      <trkpt lat="38.893551" lon="-0.689436">
        <ele>312.151</ele>
        <time>2015-07-04T06:46:46Z</time>
      </trkpt>
      <trkpt lat="38.893402" lon="-0.689186">
        <ele>313.164</ele>
        <time>2015-07-04T06:46:55Z</time>
      </trkpt>
      <trkpt lat="38.893322" lon="-0.689036">
        <ele>314.075</ele>
        <time>2015-07-04T06:47:00Z</time>
      </trkpt>
      <trkpt lat="38.893120" lon="-0.688769">
        <ele>314.532</ele>
        <time>2015-07-04T06:47:10Z</time>
      </trkpt>
      <trkpt lat="38.892914" lon="-0.688531">
        <ele>314.060</ele>
        <time>2015-07-04T06:47:18Z</time>
      </trkpt>
      <trkpt lat="38.892727" lon="-0.688262">
        <ele>314.564</ele>
        <time>2015-07-04T06:47:27Z</time>
      </trkpt>
      <trkpt lat="38.892544" lon="-0.688014">
        <ele>314.082</ele>
        <time>2015-07-04T06:47:36Z</time>
      </trkpt>
      <trkpt lat="38.892262" lon="-0.687752">
        <ele>312.643</ele>
        <time>2015-07-04T06:47:48Z</time>
      </trkpt>
      <trkpt lat="38.892235" lon="-0.687729">
        <ele>312.617</ele>
        <time>2015-07-04T06:47:49Z</time>
      </trkpt>
      <trkpt lat="38.891953" lon="-0.687520">
        <ele>312.108</ele>
        <time>2015-07-04T06:47:59Z</time>
      </trkpt>
      <trkpt lat="38.891735" lon="-0.687340">
        <ele>311.619</ele>
        <time>2015-07-04T06:48:07Z</time>
      </trkpt>
      <trkpt lat="38.891468" lon="-0.687147">
        <ele>311.659</ele>
        <time>2015-07-04T06:48:17Z</time>
      </trkpt>
      <trkpt lat="38.891186" lon="-0.686965">
        <ele>310.620</ele>
        <time>2015-07-04T06:48:27Z</time>
      </trkpt>
      <trkpt lat="38.891106" lon="-0.686901">
        <ele>310.653</ele>
        <time>2015-07-04T06:48:30Z</time>
      </trkpt>
      <trkpt lat="38.890823" lon="-0.686635">
        <ele>309.794</ele>
        <time>2015-07-04T06:48:41Z</time>
      </trkpt>
      <trkpt lat="38.890572" lon="-0.686418">
        <ele>309.751</ele>
        <time>2015-07-04T06:48:52Z</time>
      </trkpt>
      <trkpt lat="38.890591" lon="-0.686372">
        <ele>309.269</ele>
        <time>2015-07-04T06:49:02Z</time>
      </trkpt>
      <trkpt lat="38.890594" lon="-0.686340">
        <ele>308.753</ele>
        <time>2015-07-04T06:51:41Z</time>
      </trkpt>
      <trkpt lat="38.890724" lon="-0.686267">
        <ele>307.385</ele>
        <time>2015-07-04T06:51:46Z</time>
      </trkpt>
      <trkpt lat="38.890812" lon="-0.686071">
        <ele>306.389</ele>
        <time>2015-07-04T06:51:51Z</time>
      </trkpt>
      <trkpt lat="38.890770" lon="-0.685909">
        <ele>307.317</ele>
        <time>2015-07-04T06:51:56Z</time>
      </trkpt>
      <trkpt lat="38.890583" lon="-0.685709">
        <ele>310.608</ele>
        <time>2015-07-04T06:52:06Z</time>
      </trkpt>
      <trkpt lat="38.890533" lon="-0.685649">
        <ele>311.679</ele>
        <time>2015-07-04T06:52:09Z</time>
      </trkpt>
      <trkpt lat="38.890491" lon="-0.685592">
        <ele>313.569</ele>
        <time>2015-07-04T06:52:12Z</time>
      </trkpt>
      <trkpt lat="38.890400" lon="-0.685487">
        <ele>315.560</ele>
        <time>2015-07-04T06:52:17Z</time>
      </trkpt>
      <trkpt lat="38.890274" lon="-0.685249">
        <ele>319.863</ele>
        <time>2015-07-04T06:52:30Z</time>
      </trkpt>
      <trkpt lat="38.890232" lon="-0.685156">
        <ele>319.864</ele>
        <time>2015-07-04T06:52:36Z</time>
      </trkpt>
      <trkpt lat="38.890209" lon="-0.685091">
        <ele>320.711</ele>
        <time>2015-07-04T06:52:40Z</time>
      </trkpt>
      <trkpt lat="38.890091" lon="-0.684887">
        <ele>324.129</ele>
        <time>2015-07-04T06:52:49Z</time>
      </trkpt>
      <trkpt lat="38.890003" lon="-0.684738">
        <ele>326.073</ele>
        <time>2015-07-04T06:52:58Z</time>
      </trkpt>
      <trkpt lat="38.889935" lon="-0.684566">
        <ele>328.038</ele>
        <time>2015-07-04T06:53:10Z</time>
      </trkpt>
      <trkpt lat="38.889885" lon="-0.684333">
        <ele>331.370</ele>
        <time>2015-07-04T06:53:23Z</time>
      </trkpt>
      <trkpt lat="38.889885" lon="-0.684192">
        <ele>333.217</ele>
        <time>2015-07-04T06:53:29Z</time>
      </trkpt>
      <trkpt lat="38.889862" lon="-0.684104">
        <ele>333.708</ele>
        <time>2015-07-04T06:53:34Z</time>
      </trkpt>
      <trkpt lat="38.889839" lon="-0.683995">
        <ele>335.634</ele>
        <time>2015-07-04T06:53:39Z</time>
      </trkpt>
      <trkpt lat="38.889977" lon="-0.683773">
        <ele>338.014</ele>
        <time>2015-07-04T06:53:49Z</time>
      </trkpt>
      <trkpt lat="38.889996" lon="-0.683765">
        <ele>338.045</ele>
        <time>2015-07-04T06:53:50Z</time>
      </trkpt>
      <trkpt lat="38.890175" lon="-0.683643">
        <ele>341.488</ele>
        <time>2015-07-04T06:54:04Z</time>
      </trkpt>
      <trkpt lat="38.890205" lon="-0.683611">
        <ele>342.969</ele>
        <time>2015-07-04T06:54:07Z</time>
      </trkpt>
      <trkpt lat="38.890320" lon="-0.683573">
        <ele>344.366</ele>
        <time>2015-07-04T06:54:17Z</time>
      </trkpt>
      <trkpt lat="38.890385" lon="-0.683544">
        <ele>345.324</ele>
        <time>2015-07-04T06:54:22Z</time>
      </trkpt>
      <trkpt lat="38.890415" lon="-0.683454">
        <ele>346.798</ele>
        <time>2015-07-04T06:54:27Z</time>
      </trkpt>
      <trkpt lat="38.890472" lon="-0.683381">
        <ele>348.662</ele>
        <time>2015-07-04T06:54:35Z</time>
      </trkpt>
      <trkpt lat="38.890518" lon="-0.683259">
        <ele>351.083</ele>
        <time>2015-07-04T06:54:44Z</time>
      </trkpt>
      <trkpt lat="38.890636" lon="-0.683093">
        <ele>352.511</ele>
        <time>2015-07-04T06:54:58Z</time>
      </trkpt>
      <trkpt lat="38.890694" lon="-0.682923">
        <ele>353.908</ele>
        <time>2015-07-04T06:55:06Z</time>
      </trkpt>
      <trkpt lat="38.890846" lon="-0.682725">
        <ele>353.917</ele>
        <time>2015-07-04T06:55:15Z</time>
      </trkpt>
      <trkpt lat="38.891026" lon="-0.682701">
        <ele>356.897</ele>
        <time>2015-07-04T06:55:25Z</time>
      </trkpt>
      <trkpt lat="38.891060" lon="-0.682664">
        <ele>358.258</ele>
        <time>2015-07-04T06:55:29Z</time>
      </trkpt>
      <trkpt lat="38.891113" lon="-0.682624">
        <ele>359.751</ele>
        <time>2015-07-04T06:55:34Z</time>
      </trkpt>
      <trkpt lat="38.891144" lon="-0.682560">
        <ele>362.142</ele>
        <time>2015-07-04T06:55:42Z</time>
      </trkpt>
      <trkpt lat="38.891174" lon="-0.682565">
        <ele>363.549</ele>
        <time>2015-07-04T06:55:46Z</time>
      </trkpt>
      <trkpt lat="38.891243" lon="-0.682519">
        <ele>365.447</ele>
        <time>2015-07-04T06:55:54Z</time>
      </trkpt>
      <trkpt lat="38.891319" lon="-0.682492">
        <ele>367.441</ele>
        <time>2015-07-04T06:55:59Z</time>
      </trkpt>
      <trkpt lat="38.891289" lon="-0.682439">
        <ele>368.839</ele>
        <time>2015-07-04T06:56:03Z</time>
      </trkpt>
      <trkpt lat="38.891289" lon="-0.682377">
        <ele>369.801</ele>
        <time>2015-07-04T06:56:07Z</time>
      </trkpt>
      <trkpt lat="38.891357" lon="-0.682363">
        <ele>371.721</ele>
        <time>2015-07-04T06:56:12Z</time>
      </trkpt>
      <trkpt lat="38.891388" lon="-0.682354">
        <ele>372.708</ele>
        <time>2015-07-04T06:56:14Z</time>
      </trkpt>
      <trkpt lat="38.891396" lon="-0.682298">
        <ele>374.154</ele>
        <time>2015-07-04T06:56:20Z</time>
      </trkpt>
      <trkpt lat="38.891460" lon="-0.682254">
        <ele>375.574</ele>
        <time>2015-07-04T06:56:27Z</time>
      </trkpt>
      <trkpt lat="38.891514" lon="-0.682190">
        <ele>378.425</ele>
        <time>2015-07-04T06:56:33Z</time>
      </trkpt>
      <trkpt lat="38.891483" lon="-0.682158">
        <ele>378.968</ele>
        <time>2015-07-04T06:56:38Z</time>
      </trkpt>
      <trkpt lat="38.891430" lon="-0.682133">
        <ele>380.329</ele>
        <time>2015-07-04T06:56:43Z</time>
      </trkpt>
      <trkpt lat="38.891426" lon="-0.682086">
        <ele>381.356</ele>
        <time>2015-07-04T06:56:48Z</time>
      </trkpt>
      <trkpt lat="38.891460" lon="-0.682024">
        <ele>382.794</ele>
        <time>2015-07-04T06:56:53Z</time>
      </trkpt>
      <trkpt lat="38.891544" lon="-0.681907">
        <ele>385.248</ele>
        <time>2015-07-04T06:57:02Z</time>
      </trkpt>
      <trkpt lat="38.891636" lon="-0.681726">
        <ele>387.175</ele>
        <time>2015-07-04T06:57:15Z</time>
      </trkpt>
      <trkpt lat="38.891724" lon="-0.681458">
        <ele>389.028</ele>
        <time>2015-07-04T06:57:26Z</time>
      </trkpt>
      <trkpt lat="38.891781" lon="-0.681245">
        <ele>391.420</ele>
        <time>2015-07-04T06:57:33Z</time>
      </trkpt>
      <trkpt lat="38.891846" lon="-0.681067">
        <ele>393.308</ele>
        <time>2015-07-04T06:57:42Z</time>
      </trkpt>
      <trkpt lat="38.892025" lon="-0.680883">
        <ele>395.768</ele>
        <time>2015-07-04T06:57:54Z</time>
      </trkpt>
      <trkpt lat="38.892048" lon="-0.680869">
        <ele>395.738</ele>
        <time>2015-07-04T06:57:55Z</time>
      </trkpt>
      <trkpt lat="38.892136" lon="-0.680808">
        <ele>396.229</ele>
        <time>2015-07-04T06:57:59Z</time>
      </trkpt>
      <trkpt lat="38.892120" lon="-0.680776">
        <ele>398.632</ele>
        <time>2015-07-04T06:58:06Z</time>
      </trkpt>
      <trkpt lat="38.892048" lon="-0.680732">
        <ele>401.573</ele>
        <time>2015-07-04T06:58:17Z</time>
      </trkpt>
      <trkpt lat="38.892071" lon="-0.680682">
        <ele>402.520</ele>
        <time>2015-07-04T06:58:21Z</time>
      </trkpt>
      <trkpt lat="38.892090" lon="-0.680660">
        <ele>403.488</ele>
        <time>2015-07-04T06:58:24Z</time>
      </trkpt>
      <trkpt lat="38.892097" lon="-0.680638">
        <ele>403.932</ele>
        <time>2015-07-04T06:58:26Z</time>
      </trkpt>
      <trkpt lat="38.892117" lon="-0.680610">
        <ele>405.328</ele>
        <time>2015-07-04T06:58:29Z</time>
      </trkpt>
      <trkpt lat="38.892136" lon="-0.680575">
        <ele>405.389</ele>
        <time>2015-07-04T06:58:32Z</time>
      </trkpt>
      <trkpt lat="38.892159" lon="-0.680502">
        <ele>407.317</ele>
        <time>2015-07-04T06:58:36Z</time>
      </trkpt>
      <trkpt lat="38.892185" lon="-0.680371">
        <ele>410.608</ele>
        <time>2015-07-04T06:58:45Z</time>
      </trkpt>
      <trkpt lat="38.892208" lon="-0.680288">
        <ele>413.053</ele>
        <time>2015-07-04T06:58:52Z</time>
      </trkpt>
      <trkpt lat="38.892208" lon="-0.680244">
        <ele>414.033</ele>
        <time>2015-07-04T06:58:56Z</time>
      </trkpt>
      <trkpt lat="38.892220" lon="-0.680173">
        <ele>415.494</ele>
        <time>2015-07-04T06:59:03Z</time>
      </trkpt>
      <trkpt lat="38.892227" lon="-0.680142">
        <ele>416.427</ele>
        <time>2015-07-04T06:59:06Z</time>
      </trkpt>
      <trkpt lat="38.892262" lon="-0.680080">
        <ele>417.828</ele>
        <time>2015-07-04T06:59:12Z</time>
      </trkpt>
      <trkpt lat="38.892296" lon="-0.679982">
        <ele>419.345</ele>
        <time>2015-07-04T06:59:21Z</time>
      </trkpt>
      <trkpt lat="38.892326" lon="-0.679884">
        <ele>421.223</ele>
        <time>2015-07-04T06:59:29Z</time>
      </trkpt>
      <trkpt lat="38.892372" lon="-0.679770">
        <ele>423.147</ele>
        <time>2015-07-04T06:59:39Z</time>
      </trkpt>
      <trkpt lat="38.892437" lon="-0.679514">
        <ele>426.091</ele>
        <time>2015-07-04T06:59:49Z</time>
      </trkpt>
      <trkpt lat="38.892521" lon="-0.679266">
        <ele>427.981</ele>
        <time>2015-07-04T06:59:58Z</time>
      </trkpt>
      <trkpt lat="38.892586" lon="-0.679077">
        <ele>430.319</ele>
        <time>2015-07-04T07:00:09Z</time>
      </trkpt>
      <trkpt lat="38.892597" lon="-0.679020">
        <ele>431.308</ele>
        <time>2015-07-04T07:00:13Z</time>
      </trkpt>
      <trkpt lat="38.892601" lon="-0.678993">
        <ele>431.850</ele>
        <time>2015-07-04T07:00:15Z</time>
      </trkpt>
      <trkpt lat="38.892612" lon="-0.678950">
        <ele>432.350</ele>
        <time>2015-07-04T07:00:18Z</time>
      </trkpt>
      <trkpt lat="38.892624" lon="-0.678910">
        <ele>432.791</ele>
        <time>2015-07-04T07:00:21Z</time>
      </trkpt>
      <trkpt lat="38.892704" lon="-0.678683">
        <ele>433.774</ele>
        <time>2015-07-04T07:00:30Z</time>
      </trkpt>
      <trkpt lat="38.892719" lon="-0.678620">
        <ele>433.725</ele>
        <time>2015-07-04T07:00:32Z</time>
      </trkpt>
      <trkpt lat="38.892754" lon="-0.678377">
        <ele>436.682</ele>
        <time>2015-07-04T07:00:43Z</time>
      </trkpt>
      <trkpt lat="38.892830" lon="-0.678080">
        <ele>439.560</ele>
        <time>2015-07-04T07:00:54Z</time>
      </trkpt>
      <trkpt lat="38.892841" lon="-0.678042">
        <ele>440.494</ele>
        <time>2015-07-04T07:00:57Z</time>
      </trkpt>
      <trkpt lat="38.892853" lon="-0.677975">
        <ele>441.954</ele>
        <time>2015-07-04T07:01:11Z</time>
      </trkpt>
      <trkpt lat="38.892853" lon="-0.677925">
        <ele>442.856</ele>
        <time>2015-07-04T07:01:24Z</time>
      </trkpt>
      <trkpt lat="38.892887" lon="-0.677858">
        <ele>443.311</ele>
        <time>2015-07-04T07:01:26Z</time>
      </trkpt>
      <trkpt lat="38.892944" lon="-0.677615">
        <ele>445.208</ele>
        <time>2015-07-04T07:01:34Z</time>
      </trkpt>
      <trkpt lat="38.893040" lon="-0.677410">
        <ele>447.676</ele>
        <time>2015-07-04T07:01:43Z</time>
      </trkpt>
      <trkpt lat="38.893063" lon="-0.677311">
        <ele>449.166</ele>
        <time>2015-07-04T07:01:47Z</time>
      </trkpt>
      <trkpt lat="38.893162" lon="-0.676982">
        <ele>451.527</ele>
        <time>2015-07-04T07:01:58Z</time>
      </trkpt>
      <trkpt lat="38.893246" lon="-0.676695">
        <ele>451.020</ele>
        <time>2015-07-04T07:02:05Z</time>
      </trkpt>
      <trkpt lat="38.893284" lon="-0.676463">
        <ele>452.061</ele>
        <time>2015-07-04T07:02:14Z</time>
      </trkpt>
      <trkpt lat="38.893349" lon="-0.676259">
        <ele>452.018</ele>
        <time>2015-07-04T07:02:24Z</time>
      </trkpt>
      <trkpt lat="38.893364" lon="-0.676111">
        <ele>452.916</ele>
        <time>2015-07-04T07:02:30Z</time>
      </trkpt>
      <trkpt lat="38.893372" lon="-0.675971">
        <ele>454.480</ele>
        <time>2015-07-04T07:02:38Z</time>
      </trkpt>
      <trkpt lat="38.893421" lon="-0.675734">
        <ele>454.845</ele>
        <time>2015-07-04T07:02:50Z</time>
      </trkpt>
      <trkpt lat="38.893425" lon="-0.675662">
        <ele>454.847</ele>
        <time>2015-07-04T07:02:52Z</time>
      </trkpt>
      <trkpt lat="38.893417" lon="-0.675505">
        <ele>457.211</ele>
        <time>2015-07-04T07:03:00Z</time>
      </trkpt>
      <trkpt lat="38.893444" lon="-0.675342">
        <ele>457.208</ele>
        <time>2015-07-04T07:03:07Z</time>
      </trkpt>
      <trkpt lat="38.893471" lon="-0.675224">
        <ele>458.265</ele>
        <time>2015-07-04T07:03:11Z</time>
      </trkpt>
      <trkpt lat="38.893513" lon="-0.675117">
        <ele>458.285</ele>
        <time>2015-07-04T07:03:18Z</time>
      </trkpt>
      <trkpt lat="38.893513" lon="-0.675013">
        <ele>459.756</ele>
        <time>2015-07-04T07:03:23Z</time>
      </trkpt>
      <trkpt lat="38.893539" lon="-0.674940">
        <ele>460.169</ele>
        <time>2015-07-04T07:03:26Z</time>
      </trkpt>
      <trkpt lat="38.893528" lon="-0.674788">
        <ele>463.570</ele>
        <time>2015-07-04T07:03:33Z</time>
      </trkpt>
      <trkpt lat="38.893539" lon="-0.674728">
        <ele>464.957</ele>
        <time>2015-07-04T07:03:37Z</time>
      </trkpt>
      <trkpt lat="38.893581" lon="-0.674529">
        <ele>466.455</ele>
        <time>2015-07-04T07:03:49Z</time>
      </trkpt>
      <trkpt lat="38.893581" lon="-0.674410">
        <ele>467.359</ele>
        <time>2015-07-04T07:03:57Z</time>
      </trkpt>
      <trkpt lat="38.893604" lon="-0.674190">
        <ele>467.361</ele>
        <time>2015-07-04T07:04:08Z</time>
      </trkpt>
      <trkpt lat="38.893684" lon="-0.674051">
        <ele>468.321</ele>
        <time>2015-07-04T07:04:18Z</time>
      </trkpt>
      <trkpt lat="38.893715" lon="-0.674021">
        <ele>468.813</ele>
        <time>2015-07-04T07:04:21Z</time>
      </trkpt>
      <trkpt lat="38.893795" lon="-0.673977">
        <ele>468.808</ele>
        <time>2015-07-04T07:04:25Z</time>
      </trkpt>
      <trkpt lat="38.893829" lon="-0.673912">
        <ele>469.787</ele>
        <time>2015-07-04T07:04:29Z</time>
      </trkpt>
      <trkpt lat="38.893818" lon="-0.673873">
        <ele>470.747</ele>
        <time>2015-07-04T07:04:32Z</time>
      </trkpt>
      <trkpt lat="38.893867" lon="-0.673819">
        <ele>472.648</ele>
        <time>2015-07-04T07:04:37Z</time>
      </trkpt>
      <trkpt lat="38.893887" lon="-0.673757">
        <ele>475.051</ele>
        <time>2015-07-04T07:04:44Z</time>
      </trkpt>
      <trkpt lat="38.894081" lon="-0.673664">
        <ele>474.622</ele>
        <time>2015-07-04T07:04:58Z</time>
      </trkpt>
      <trkpt lat="38.894173" lon="-0.673531">
        <ele>476.529</ele>
        <time>2015-07-04T07:05:05Z</time>
      </trkpt>
      <trkpt lat="38.894192" lon="-0.673479">
        <ele>477.997</ele>
        <time>2015-07-04T07:05:08Z</time>
      </trkpt>
      <trkpt lat="38.894222" lon="-0.673412">
        <ele>479.461</ele>
        <time>2015-07-04T07:05:13Z</time>
      </trkpt>
      <trkpt lat="38.894260" lon="-0.673321">
        <ele>481.377</ele>
        <time>2015-07-04T07:05:20Z</time>
      </trkpt>
      <trkpt lat="38.894341" lon="-0.673297">
        <ele>478.961</ele>
        <time>2015-07-04T07:05:28Z</time>
      </trkpt>
      <trkpt lat="38.894375" lon="-0.673262">
        <ele>476.027</ele>
        <time>2015-07-04T07:05:31Z</time>
      </trkpt>
      <trkpt lat="38.894428" lon="-0.673242">
        <ele>473.608</ele>
        <time>2015-07-04T07:05:34Z</time>
      </trkpt>
      <trkpt lat="38.894413" lon="-0.673285">
        <ele>472.158</ele>
        <time>2015-07-04T07:05:37Z</time>
      </trkpt>
      <trkpt lat="38.894474" lon="-0.673258">
        <ele>470.768</ele>
        <time>2015-07-04T07:05:39Z</time>
      </trkpt>
      <trkpt lat="38.894600" lon="-0.673027">
        <ele>469.779</ele>
        <time>2015-07-04T07:05:45Z</time>
      </trkpt>
      <trkpt lat="38.894775" lon="-0.672688">
        <ele>471.222</ele>
        <time>2015-07-04T07:05:56Z</time>
      </trkpt>
      <trkpt lat="38.894802" lon="-0.672659">
        <ele>471.273</ele>
        <time>2015-07-04T07:05:57Z</time>
      </trkpt>
      <trkpt lat="38.894855" lon="-0.672561">
        <ele>470.260</ele>
        <time>2015-07-04T07:06:00Z</time>
      </trkpt>
      <trkpt lat="38.894886" lon="-0.672466">
        <ele>470.778</ele>
        <time>2015-07-04T07:06:04Z</time>
      </trkpt>
      <trkpt lat="38.894924" lon="-0.672392">
        <ele>472.692</ele>
        <time>2015-07-04T07:06:09Z</time>
      </trkpt>
      <trkpt lat="38.895031" lon="-0.672218">
        <ele>474.114</ele>
        <time>2015-07-04T07:06:23Z</time>
      </trkpt>
      <trkpt lat="38.895214" lon="-0.672192">
        <ele>472.654</ele>
        <time>2015-07-04T07:06:32Z</time>
      </trkpt>
      <trkpt lat="38.895271" lon="-0.672159">
        <ele>472.609</ele>
        <time>2015-07-04T07:06:34Z</time>
      </trkpt>
      <trkpt lat="38.895409" lon="-0.672084">
        <ele>472.108</ele>
        <time>2015-07-04T07:06:42Z</time>
      </trkpt>
      <trkpt lat="38.895428" lon="-0.672103">
        <ele>471.782</ele>
        <time>2015-07-04T07:06:43Z</time>
      </trkpt>
      <trkpt lat="38.895481" lon="-0.672192">
        <ele>469.782</ele>
        <time>2015-07-04T07:06:46Z</time>
      </trkpt>
      <trkpt lat="38.895523" lon="-0.672281">
        <ele>468.333</ele>
        <time>2015-07-04T07:06:49Z</time>
      </trkpt>
      <trkpt lat="38.895599" lon="-0.672435">
        <ele>463.526</ele>
        <time>2015-07-04T07:06:55Z</time>
      </trkpt>
      <trkpt lat="38.895679" lon="-0.672573">
        <ele>460.157</ele>
        <time>2015-07-04T07:07:00Z</time>
      </trkpt>
      <trkpt lat="38.895702" lon="-0.672597">
        <ele>459.714</ele>
        <time>2015-07-04T07:07:01Z</time>
      </trkpt>
      <trkpt lat="38.895718" lon="-0.672720">
        <ele>457.232</ele>
        <time>2015-07-04T07:07:04Z</time>
      </trkpt>
      <trkpt lat="38.895687" lon="-0.672885">
        <ele>453.436</ele>
        <time>2015-07-04T07:07:09Z</time>
      </trkpt>
      <trkpt lat="38.895695" lon="-0.672983">
        <ele>451.014</ele>
        <time>2015-07-04T07:07:13Z</time>
      </trkpt>
      <trkpt lat="38.895718" lon="-0.672986">
        <ele>450.054</ele>
        <time>2015-07-04T07:07:14Z</time>
      </trkpt>
      <trkpt lat="38.895790" lon="-0.673017">
        <ele>448.109</ele>
        <time>2015-07-04T07:07:17Z</time>
      </trkpt>
      <trkpt lat="38.895924" lon="-0.673020">
        <ele>445.208</ele>
        <time>2015-07-04T07:07:22Z</time>
      </trkpt>
      <trkpt lat="38.896023" lon="-0.672902">
        <ele>442.812</ele>
        <time>2015-07-04T07:07:27Z</time>
      </trkpt>
      <trkpt lat="38.896057" lon="-0.672895">
        <ele>441.972</ele>
        <time>2015-07-04T07:07:29Z</time>
      </trkpt>
      <trkpt lat="38.896023" lon="-0.672961">
        <ele>441.453</ele>
        <time>2015-07-04T07:07:36Z</time>
      </trkpt>
      <trkpt lat="38.896008" lon="-0.672989">
        <ele>441.486</ele>
        <time>2015-07-04T07:07:38Z</time>
      </trkpt>
      <trkpt lat="38.895966" lon="-0.673066">
        <ele>441.467</ele>
        <time>2015-07-04T07:07:42Z</time>
      </trkpt>
      <trkpt lat="38.895790" lon="-0.673323">
        <ele>438.544</ele>
        <time>2015-07-04T07:07:51Z</time>
      </trkpt>
      <trkpt lat="38.895592" lon="-0.673342">
        <ele>435.182</ele>
        <time>2015-07-04T07:07:57Z</time>
      </trkpt>
      <trkpt lat="38.895451" lon="-0.673333">
        <ele>433.216</ele>
        <time>2015-07-04T07:08:01Z</time>
      </trkpt>
      <trkpt lat="38.895374" lon="-0.673353">
        <ele>431.873</ele>
        <time>2015-07-04T07:08:03Z</time>
      </trkpt>
      <trkpt lat="38.895309" lon="-0.673408">
        <ele>430.385</ele>
        <time>2015-07-04T07:08:05Z</time>
      </trkpt>
      <trkpt lat="38.895245" lon="-0.673496">
        <ele>429.413</ele>
        <time>2015-07-04T07:08:08Z</time>
      </trkpt>
      <trkpt lat="38.895199" lon="-0.673614">
        <ele>428.408</ele>
        <time>2015-07-04T07:08:11Z</time>
      </trkpt>
      <trkpt lat="38.895145" lon="-0.673914">
        <ele>424.178</ele>
        <time>2015-07-04T07:08:18Z</time>
      </trkpt>
      <trkpt lat="38.895119" lon="-0.674068">
        <ele>421.758</ele>
        <time>2015-07-04T07:08:22Z</time>
      </trkpt>
      <trkpt lat="38.895031" lon="-0.674264">
        <ele>418.329</ele>
        <time>2015-07-04T07:08:27Z</time>
      </trkpt>
      <trkpt lat="38.895016" lon="-0.674305">
        <ele>418.352</ele>
        <time>2015-07-04T07:08:28Z</time>
      </trkpt>
      <trkpt lat="38.894974" lon="-0.674441">
        <ele>415.993</ele>
        <time>2015-07-04T07:08:32Z</time>
      </trkpt>
      <trkpt lat="38.894970" lon="-0.674476">
        <ele>415.070</ele>
        <time>2015-07-04T07:08:34Z</time>
      </trkpt>
      <trkpt lat="38.894985" lon="-0.674563">
        <ele>412.518</ele>
        <time>2015-07-04T07:08:39Z</time>
      </trkpt>
      <trkpt lat="38.894974" lon="-0.674614">
        <ele>411.182</ele>
        <time>2015-07-04T07:08:41Z</time>
      </trkpt>
      <trkpt lat="38.895012" lon="-0.674673">
        <ele>409.245</ele>
        <time>2015-07-04T07:08:45Z</time>
      </trkpt>
      <trkpt lat="38.895031" lon="-0.674674">
        <ele>407.347</ele>
        <time>2015-07-04T07:08:47Z</time>
      </trkpt>
      <trkpt lat="38.895054" lon="-0.674636">
        <ele>406.811</ele>
        <time>2015-07-04T07:08:49Z</time>
      </trkpt>
      <trkpt lat="38.895084" lon="-0.674605">
        <ele>405.308</ele>
        <time>2015-07-04T07:08:51Z</time>
      </trkpt>
      <trkpt lat="38.895126" lon="-0.674760">
        <ele>402.065</ele>
        <time>2015-07-04T07:08:58Z</time>
      </trkpt>
      <trkpt lat="38.895100" lon="-0.674815">
        <ele>400.515</ele>
        <time>2015-07-04T07:09:01Z</time>
      </trkpt>
      <trkpt lat="38.895180" lon="-0.674874">
        <ele>397.216</ele>
        <time>2015-07-04T07:09:07Z</time>
      </trkpt>
      <trkpt lat="38.895199" lon="-0.675003">
        <ele>392.879</ele>
        <time>2015-07-04T07:09:15Z</time>
      </trkpt>
      <trkpt lat="38.895168" lon="-0.675109">
        <ele>390.030</ele>
        <time>2015-07-04T07:09:19Z</time>
      </trkpt>
      <trkpt lat="38.895153" lon="-0.675241">
        <ele>388.597</ele>
        <time>2015-07-04T07:09:22Z</time>
      </trkpt>
      <trkpt lat="38.895088" lon="-0.675361">
        <ele>386.665</ele>
        <time>2015-07-04T07:09:26Z</time>
      </trkpt>
      <trkpt lat="38.894997" lon="-0.675554">
        <ele>383.219</ele>
        <time>2015-07-04T07:09:32Z</time>
      </trkpt>
      <trkpt lat="38.894974" lon="-0.675621">
        <ele>382.395</ele>
        <time>2015-07-04T07:09:34Z</time>
      </trkpt>
      <trkpt lat="38.894962" lon="-0.675681">
        <ele>381.349</ele>
        <time>2015-07-04T07:09:36Z</time>
      </trkpt>
      <trkpt lat="38.894932" lon="-0.675824">
        <ele>379.423</ele>
        <time>2015-07-04T07:09:40Z</time>
      </trkpt>
      <trkpt lat="38.894924" lon="-0.675932">
        <ele>377.908</ele>
        <time>2015-07-04T07:09:43Z</time>
      </trkpt>
      <trkpt lat="38.894909" lon="-0.676042">
        <ele>376.570</ele>
        <time>2015-07-04T07:09:46Z</time>
      </trkpt>
      <trkpt lat="38.894897" lon="-0.676234">
        <ele>373.130</ele>
        <time>2015-07-04T07:09:51Z</time>
      </trkpt>
      <trkpt lat="38.894871" lon="-0.676372">
        <ele>370.751</ele>
        <time>2015-07-04T07:09:55Z</time>
      </trkpt>
      <trkpt lat="38.894855" lon="-0.676445">
        <ele>369.394</ele>
        <time>2015-07-04T07:09:57Z</time>
      </trkpt>
      <trkpt lat="38.894817" lon="-0.676695">
        <ele>366.975</ele>
        <time>2015-07-04T07:10:03Z</time>
      </trkpt>
      <trkpt lat="38.894798" lon="-0.676913">
        <ele>363.522</ele>
        <time>2015-07-04T07:10:09Z</time>
      </trkpt>
      <trkpt lat="38.894821" lon="-0.676933">
        <ele>362.620</ele>
        <time>2015-07-04T07:10:11Z</time>
      </trkpt>
      <trkpt lat="38.895000" lon="-0.676763">
        <ele>361.144</ele>
        <time>2015-07-04T07:10:19Z</time>
      </trkpt>
      <trkpt lat="38.895237" lon="-0.676646">
        <ele>359.726</ele>
        <time>2015-07-04T07:10:26Z</time>
      </trkpt>
      <trkpt lat="38.895393" lon="-0.676541">
        <ele>359.247</ele>
        <time>2015-07-04T07:10:31Z</time>
      </trkpt>
      <trkpt lat="38.895645" lon="-0.676236">
        <ele>358.711</ele>
        <time>2015-07-04T07:10:42Z</time>
      </trkpt>
      <trkpt lat="38.895817" lon="-0.675973">
        <ele>357.308</ele>
        <time>2015-07-04T07:10:51Z</time>
      </trkpt>
      <trkpt lat="38.896038" lon="-0.675641">
        <ele>353.933</ele>
        <time>2015-07-04T07:11:02Z</time>
      </trkpt>
      <trkpt lat="38.896183" lon="-0.675587">
        <ele>350.523</ele>
        <time>2015-07-04T07:11:07Z</time>
      </trkpt>
      <trkpt lat="38.896240" lon="-0.675567">
        <ele>350.174</ele>
        <time>2015-07-04T07:11:09Z</time>
      </trkpt>
      <trkpt lat="38.896355" lon="-0.675597">
        <ele>346.727</ele>
        <time>2015-07-04T07:11:13Z</time>
      </trkpt>
      <trkpt lat="38.896458" lon="-0.675649">
        <ele>344.868</ele>
        <time>2015-07-04T07:11:16Z</time>
      </trkpt>
      <trkpt lat="38.896671" lon="-0.675733">
        <ele>340.475</ele>
        <time>2015-07-04T07:11:23Z</time>
      </trkpt>
      <trkpt lat="38.896759" lon="-0.675786">
        <ele>338.563</ele>
        <time>2015-07-04T07:11:26Z</time>
      </trkpt>
      <trkpt lat="38.896866" lon="-0.675855">
        <ele>336.647</ele>
        <time>2015-07-04T07:11:29Z</time>
      </trkpt>
      <trkpt lat="38.897041" lon="-0.675938">
        <ele>333.274</ele>
        <time>2015-07-04T07:11:34Z</time>
      </trkpt>
      <trkpt lat="38.897232" lon="-0.675976">
        <ele>329.456</ele>
        <time>2015-07-04T07:11:40Z</time>
      </trkpt>
      <trkpt lat="38.897415" lon="-0.675981">
        <ele>326.021</ele>
        <time>2015-07-04T07:11:45Z</time>
      </trkpt>
      <trkpt lat="38.897522" lon="-0.676012">
        <ele>324.608</ele>
        <time>2015-07-04T07:11:48Z</time>
      </trkpt>
      <trkpt lat="38.897594" lon="-0.676017">
        <ele>323.698</ele>
        <time>2015-07-04T07:11:50Z</time>
      </trkpt>
      <trkpt lat="38.897667" lon="-0.676020">
        <ele>322.718</ele>
        <time>2015-07-04T07:11:52Z</time>
      </trkpt>
      <trkpt lat="38.897701" lon="-0.676017">
        <ele>321.779</ele>
        <time>2015-07-04T07:11:53Z</time>
      </trkpt>
      <trkpt lat="38.897915" lon="-0.676064">
        <ele>318.372</ele>
        <time>2015-07-04T07:11:59Z</time>
      </trkpt>
      <trkpt lat="38.898014" lon="-0.676100">
        <ele>316.443</ele>
        <time>2015-07-04T07:12:02Z</time>
      </trkpt>
      <trkpt lat="38.898174" lon="-0.676158">
        <ele>313.550</ele>
        <time>2015-07-04T07:12:07Z</time>
      </trkpt>
      <trkpt lat="38.898216" lon="-0.676170">
        <ele>313.138</ele>
        <time>2015-07-04T07:12:08Z</time>
      </trkpt>
      <trkpt lat="38.898319" lon="-0.676219">
        <ele>311.682</ele>
        <time>2015-07-04T07:12:11Z</time>
      </trkpt>
      <trkpt lat="38.898453" lon="-0.676321">
        <ele>309.765</ele>
        <time>2015-07-04T07:12:15Z</time>
      </trkpt>
      <trkpt lat="38.898586" lon="-0.676421">
        <ele>308.268</ele>
        <time>2015-07-04T07:12:19Z</time>
      </trkpt>
      <trkpt lat="38.898624" lon="-0.676445">
        <ele>307.814</ele>
        <time>2015-07-04T07:12:20Z</time>
      </trkpt>
      <trkpt lat="38.898777" lon="-0.676647">
        <ele>305.408</ele>
        <time>2015-07-04T07:12:26Z</time>
      </trkpt>
      <trkpt lat="38.898830" lon="-0.676726">
        <ele>303.957</ele>
        <time>2015-07-04T07:12:28Z</time>
      </trkpt>
      <trkpt lat="38.898907" lon="-0.676847">
        <ele>303.037</ele>
        <time>2015-07-04T07:12:31Z</time>
      </trkpt>
      <trkpt lat="38.898952" lon="-0.676915">
        <ele>302.018</ele>
        <time>2015-07-04T07:12:33Z</time>
      </trkpt>
      <trkpt lat="38.899052" lon="-0.677071">
        <ele>300.631</ele>
        <time>2015-07-04T07:12:37Z</time>
      </trkpt>
      <trkpt lat="38.899212" lon="-0.677377">
        <ele>297.792</ele>
        <time>2015-07-04T07:12:46Z</time>
      </trkpt>
      <trkpt lat="38.899261" lon="-0.677323">
        <ele>297.259</ele>
        <time>2015-07-04T07:12:50Z</time>
      </trkpt>
      <trkpt lat="38.899372" lon="-0.676948">
        <ele>296.257</ele>
        <time>2015-07-04T07:13:01Z</time>
      </trkpt>
      <trkpt lat="38.899475" lon="-0.676500">
        <ele>296.241</ele>
        <time>2015-07-04T07:13:13Z</time>
      </trkpt>
      <trkpt lat="38.899570" lon="-0.676150">
        <ele>296.218</ele>
        <time>2015-07-04T07:13:23Z</time>
      </trkpt>
      <trkpt lat="38.899578" lon="-0.676113">
        <ele>296.298</ele>
        <time>2015-07-04T07:13:24Z</time>
      </trkpt>
      <trkpt lat="38.899643" lon="-0.675883">
        <ele>296.217</ele>
        <time>2015-07-04T07:13:30Z</time>
      </trkpt>
      <trkpt lat="38.899776" lon="-0.675518">
        <ele>296.208</ele>
        <time>2015-07-04T07:13:41Z</time>
      </trkpt>
      <trkpt lat="38.899841" lon="-0.675376">
        <ele>297.212</ele>
        <time>2015-07-04T07:13:46Z</time>
      </trkpt>
      <trkpt lat="38.899967" lon="-0.675002">
        <ele>299.142</ele>
        <time>2015-07-04T07:13:58Z</time>
      </trkpt>
      <trkpt lat="38.900047" lon="-0.674687">
        <ele>301.543</ele>
        <time>2015-07-04T07:14:08Z</time>
      </trkpt>
      <trkpt lat="38.900089" lon="-0.674484">
        <ele>303.036</ele>
        <time>2015-07-04T07:14:18Z</time>
      </trkpt>
      <trkpt lat="38.900135" lon="-0.674283">
        <ele>304.477</ele>
        <time>2015-07-04T07:14:30Z</time>
      </trkpt>
      <trkpt lat="38.900249" lon="-0.674104">
        <ele>305.464</ele>
        <time>2015-07-04T07:14:44Z</time>
      </trkpt>
      <trkpt lat="38.900402" lon="-0.673877">
        <ele>305.832</ele>
        <time>2015-07-04T07:14:59Z</time>
      </trkpt>
      <trkpt lat="38.900600" lon="-0.673667">
        <ele>305.846</ele>
        <time>2015-07-04T07:15:11Z</time>
      </trkpt>
      <trkpt lat="38.900719" lon="-0.673361">
        <ele>305.895</ele>
        <time>2015-07-04T07:15:20Z</time>
      </trkpt>
      <trkpt lat="38.900841" lon="-0.673014">
        <ele>305.849</ele>
        <time>2015-07-04T07:15:29Z</time>
      </trkpt>
      <trkpt lat="38.900936" lon="-0.672638">
        <ele>304.923</ele>
        <time>2015-07-04T07:15:38Z</time>
      </trkpt>
      <trkpt lat="38.900967" lon="-0.672572">
        <ele>304.408</ele>
        <time>2015-07-04T07:15:40Z</time>
      </trkpt>
      <trkpt lat="38.901115" lon="-0.672159">
        <ele>302.090</ele>
        <time>2015-07-04T07:15:50Z</time>
      </trkpt>
      <trkpt lat="38.901272" lon="-0.671802">
        <ele>300.110</ele>
        <time>2015-07-04T07:15:59Z</time>
      </trkpt>
      <trkpt lat="38.901436" lon="-0.671432">
        <ele>300.131</ele>
        <time>2015-07-04T07:16:09Z</time>
      </trkpt>
      <trkpt lat="38.901569" lon="-0.671154">
        <ele>301.574</ele>
        <time>2015-07-04T07:16:19Z</time>
      </trkpt>
      <trkpt lat="38.901749" lon="-0.670802">
        <ele>303.915</ele>
        <time>2015-07-04T07:16:30Z</time>
      </trkpt>
      <trkpt lat="38.901806" lon="-0.670566">
        <ele>305.892</ele>
        <time>2015-07-04T07:16:39Z</time>
      </trkpt>
      <trkpt lat="38.901840" lon="-0.670452">
        <ele>307.880</ele>
        <time>2015-07-04T07:16:47Z</time>
      </trkpt>
      <trkpt lat="38.901871" lon="-0.670212">
        <ele>309.794</ele>
        <time>2015-07-04T07:17:02Z</time>
      </trkpt>
      <trkpt lat="38.901909" lon="-0.669963">
        <ele>311.125</ele>
        <time>2015-07-04T07:17:14Z</time>
      </trkpt>
      <trkpt lat="38.901951" lon="-0.669885">
        <ele>311.626</ele>
        <time>2015-07-04T07:17:17Z</time>
      </trkpt>
      <trkpt lat="38.902111" lon="-0.669688">
        <ele>313.108</ele>
        <time>2015-07-04T07:17:26Z</time>
      </trkpt>
      <trkpt lat="38.902161" lon="-0.669595">
        <ele>312.608</ele>
        <time>2015-07-04T07:17:30Z</time>
      </trkpt>
      <trkpt lat="38.902267" lon="-0.669207">
        <ele>314.533</ele>
        <time>2015-07-04T07:17:41Z</time>
      </trkpt>
      <trkpt lat="38.902325" lon="-0.668853">
        <ele>314.053</ele>
        <time>2015-07-04T07:17:51Z</time>
      </trkpt>
      <trkpt lat="38.902328" lon="-0.668815">
        <ele>314.044</ele>
        <time>2015-07-04T07:17:52Z</time>
      </trkpt>
      <trkpt lat="38.902332" lon="-0.668557">
        <ele>314.577</ele>
        <time>2015-07-04T07:18:00Z</time>
      </trkpt>
      <trkpt lat="38.902153" lon="-0.668163">
        <ele>316.448</ele>
        <time>2015-07-04T07:18:12Z</time>
      </trkpt>
      <trkpt lat="38.902081" lon="-0.667727">
        <ele>317.475</ele>
        <time>2015-07-04T07:18:25Z</time>
      </trkpt>
      <trkpt lat="38.902111" lon="-0.667388">
        <ele>319.393</ele>
        <time>2015-07-04T07:18:35Z</time>
      </trkpt>
      <trkpt lat="38.902035" lon="-0.667184">
        <ele>320.787</ele>
        <time>2015-07-04T07:18:48Z</time>
      </trkpt>
      <trkpt lat="38.902035" lon="-0.667144">
        <ele>321.269</ele>
        <time>2015-07-04T07:18:50Z</time>
      </trkpt>
      <trkpt lat="38.902077" lon="-0.667042">
        <ele>322.704</ele>
        <time>2015-07-04T07:18:57Z</time>
      </trkpt>
      <trkpt lat="38.902126" lon="-0.666888">
        <ele>324.124</ele>
        <time>2015-07-04T07:19:07Z</time>
      </trkpt>
      <trkpt lat="38.902222" lon="-0.666697">
        <ele>325.108</ele>
        <time>2015-07-04T07:19:21Z</time>
      </trkpt>
      <trkpt lat="38.902344" lon="-0.666549">
        <ele>325.567</ele>
        <time>2015-07-04T07:19:32Z</time>
      </trkpt>
      <trkpt lat="38.902596" lon="-0.666525">
        <ele>327.077</ele>
        <time>2015-07-04T07:19:44Z</time>
      </trkpt>
      <trkpt lat="38.902695" lon="-0.666452">
        <ele>328.068</ele>
        <time>2015-07-04T07:19:49Z</time>
      </trkpt>
      <trkpt lat="38.902756" lon="-0.666230">
        <ele>329.481</ele>
        <time>2015-07-04T07:19:57Z</time>
      </trkpt>
      <trkpt lat="38.902763" lon="-0.666078">
        <ele>330.822</ele>
        <time>2015-07-04T07:20:02Z</time>
      </trkpt>
      <trkpt lat="38.902760" lon="-0.665945">
        <ele>331.819</ele>
        <time>2015-07-04T07:20:06Z</time>
      </trkpt>
      <trkpt lat="38.902756" lon="-0.665866">
        <ele>332.397</ele>
        <time>2015-07-04T07:20:10Z</time>
      </trkpt>
      <trkpt lat="38.902763" lon="-0.665814">
        <ele>332.381</ele>
        <time>2015-07-04T07:20:13Z</time>
      </trkpt>
      <trkpt lat="38.902782" lon="-0.665712">
        <ele>333.284</ele>
        <time>2015-07-04T07:20:19Z</time>
      </trkpt>
      <trkpt lat="38.902760" lon="-0.665513">
        <ele>335.207</ele>
        <time>2015-07-04T07:20:31Z</time>
      </trkpt>
      <trkpt lat="38.902740" lon="-0.665275">
        <ele>337.617</ele>
        <time>2015-07-04T07:20:41Z</time>
      </trkpt>
      <trkpt lat="38.902733" lon="-0.665116">
        <ele>339.008</ele>
        <time>2015-07-04T07:20:46Z</time>
      </trkpt>
      <trkpt lat="38.902737" lon="-0.664895">
        <ele>341.439</ele>
        <time>2015-07-04T07:20:56Z</time>
      </trkpt>
      <trkpt lat="38.902706" lon="-0.664657">
        <ele>343.859</ele>
        <time>2015-07-04T07:21:06Z</time>
      </trkpt>
      <trkpt lat="38.902691" lon="-0.664596">
        <ele>344.380</ele>
        <time>2015-07-04T07:21:08Z</time>
      </trkpt>
      <trkpt lat="38.902596" lon="-0.664479">
        <ele>344.853</ele>
        <time>2015-07-04T07:21:17Z</time>
      </trkpt>
      <trkpt lat="38.902519" lon="-0.664353">
        <ele>347.274</ele>
        <time>2015-07-04T07:21:27Z</time>
      </trkpt>
      <trkpt lat="38.902420" lon="-0.664226">
        <ele>349.671</ele>
        <time>2015-07-04T07:21:40Z</time>
      </trkpt>
      <trkpt lat="38.902325" lon="-0.664083">
        <ele>352.029</ele>
        <time>2015-07-04T07:21:52Z</time>
      </trkpt>
      <trkpt lat="38.902302" lon="-0.664053">
        <ele>352.023</ele>
        <time>2015-07-04T07:21:55Z</time>
      </trkpt>
      <trkpt lat="38.902245" lon="-0.663923">
        <ele>354.443</ele>
        <time>2015-07-04T07:22:05Z</time>
      </trkpt>
      <trkpt lat="38.902229" lon="-0.663896">
        <ele>354.964</ele>
        <time>2015-07-04T07:22:07Z</time>
      </trkpt>
      <trkpt lat="38.902187" lon="-0.663706">
        <ele>356.810</ele>
        <time>2015-07-04T07:22:19Z</time>
      </trkpt>
      <trkpt lat="38.902191" lon="-0.663624">
        <ele>357.308</ele>
        <time>2015-07-04T07:22:24Z</time>
      </trkpt>
      <trkpt lat="38.902245" lon="-0.663419">
        <ele>358.285</ele>
        <time>2015-07-04T07:22:36Z</time>
      </trkpt>
      <trkpt lat="38.902275" lon="-0.663372">
        <ele>358.775</ele>
        <time>2015-07-04T07:22:39Z</time>
      </trkpt>
      <trkpt lat="38.902454" lon="-0.663044">
        <ele>359.746</ele>
        <time>2015-07-04T07:22:53Z</time>
      </trkpt>
      <trkpt lat="38.902439" lon="-0.662724">
        <ele>361.199</ele>
        <time>2015-07-04T07:23:03Z</time>
      </trkpt>
      <trkpt lat="38.902412" lon="-0.662519">
        <ele>363.070</ele>
        <time>2015-07-04T07:23:14Z</time>
      </trkpt>
      <trkpt lat="38.902409" lon="-0.662480">
        <ele>364.097</ele>
        <time>2015-07-04T07:23:16Z</time>
      </trkpt>
      <trkpt lat="38.902420" lon="-0.662388">
        <ele>365.445</ele>
        <time>2015-07-04T07:23:20Z</time>
      </trkpt>
      <trkpt lat="38.902435" lon="-0.662233">
        <ele>368.849</ele>
        <time>2015-07-04T07:23:31Z</time>
      </trkpt>
      <trkpt lat="38.902431" lon="-0.662175">
        <ele>368.811</ele>
        <time>2015-07-04T07:23:35Z</time>
      </trkpt>
      <trkpt lat="38.902454" lon="-0.662103">
        <ele>369.821</ele>
        <time>2015-07-04T07:23:40Z</time>
      </trkpt>
      <trkpt lat="38.902428" lon="-0.661807">
        <ele>370.703</ele>
        <time>2015-07-04T07:23:56Z</time>
      </trkpt>
      <trkpt lat="38.902431" lon="-0.661306">
        <ele>369.808</ele>
        <time>2015-07-04T07:24:08Z</time>
      </trkpt>
      <trkpt lat="38.902512" lon="-0.661113">
        <ele>371.712</ele>
        <time>2015-07-04T07:24:15Z</time>
      </trkpt>
      <trkpt lat="38.902603" lon="-0.660949">
        <ele>374.122</ele>
        <time>2015-07-04T07:24:22Z</time>
      </trkpt>
      <trkpt lat="38.902641" lon="-0.660822">
        <ele>376.053</ele>
        <time>2015-07-04T07:24:27Z</time>
      </trkpt>
      <trkpt lat="38.902668" lon="-0.660753">
        <ele>377.586</ele>
        <time>2015-07-04T07:24:32Z</time>
      </trkpt>
      <trkpt lat="38.902672" lon="-0.660608">
        <ele>380.317</ele>
        <time>2015-07-04T07:24:43Z</time>
      </trkpt>
      <trkpt lat="38.902691" lon="-0.660541">
        <ele>381.894</ele>
        <time>2015-07-04T07:24:48Z</time>
      </trkpt>
      <trkpt lat="38.902737" lon="-0.660434">
        <ele>383.272</ele>
        <time>2015-07-04T07:24:54Z</time>
      </trkpt>
      <trkpt lat="38.902748" lon="-0.660335">
        <ele>385.256</ele>
        <time>2015-07-04T07:25:01Z</time>
      </trkpt>
      <trkpt lat="38.902775" lon="-0.660288">
        <ele>385.655</ele>
        <time>2015-07-04T07:25:05Z</time>
      </trkpt>
      <trkpt lat="38.902821" lon="-0.660103">
        <ele>386.107</ele>
        <time>2015-07-04T07:25:18Z</time>
      </trkpt>
      <trkpt lat="38.902866" lon="-0.659899">
        <ele>386.617</ele>
        <time>2015-07-04T07:25:26Z</time>
      </trkpt>
      <trkpt lat="38.902805" lon="-0.659558">
        <ele>388.508</ele>
        <time>2015-07-04T07:25:36Z</time>
      </trkpt>
      <trkpt lat="38.902859" lon="-0.659169">
        <ele>387.616</ele>
        <time>2015-07-04T07:25:46Z</time>
      </trkpt>
      <trkpt lat="38.902977" lon="-0.658810">
        <ele>387.656</ele>
        <time>2015-07-04T07:25:56Z</time>
      </trkpt>
      <trkpt lat="38.903160" lon="-0.658474">
        <ele>387.647</ele>
        <time>2015-07-04T07:26:06Z</time>
      </trkpt>
      <trkpt lat="38.903275" lon="-0.658268">
        <ele>388.580</ele>
        <time>2015-07-04T07:26:14Z</time>
      </trkpt>
      <trkpt lat="38.903297" lon="-0.658193">
        <ele>390.491</ele>
        <time>2015-07-04T07:26:23Z</time>
      </trkpt>
      <trkpt lat="38.903263" lon="-0.658194">
        <ele>390.928</ele>
        <time>2015-07-04T07:26:26Z</time>
      </trkpt>
      <trkpt lat="38.903233" lon="-0.658125">
        <ele>393.816</ele>
        <time>2015-07-04T07:26:33Z</time>
      </trkpt>
      <trkpt lat="38.903210" lon="-0.658121">
        <ele>394.860</ele>
        <time>2015-07-04T07:26:37Z</time>
      </trkpt>
      <trkpt lat="38.903168" lon="-0.658166">
        <ele>395.288</ele>
        <time>2015-07-04T07:26:42Z</time>
      </trkpt>
      <trkpt lat="38.903149" lon="-0.658177">
        <ele>396.224</ele>
        <time>2015-07-04T07:26:44Z</time>
      </trkpt>
      <trkpt lat="38.903133" lon="-0.658198">
        <ele>396.726</ele>
        <time>2015-07-04T07:26:46Z</time>
      </trkpt>
      <trkpt lat="38.903114" lon="-0.658173">
        <ele>398.608</ele>
        <time>2015-07-04T07:26:49Z</time>
      </trkpt>
      <trkpt lat="38.903049" lon="-0.658144">
        <ele>402.079</ele>
        <time>2015-07-04T07:26:59Z</time>
      </trkpt>
      <trkpt lat="38.902969" lon="-0.658207">
        <ele>404.989</ele>
        <time>2015-07-04T07:27:13Z</time>
      </trkpt>
      <trkpt lat="38.902943" lon="-0.658229">
        <ele>405.870</ele>
        <time>2015-07-04T07:27:17Z</time>
      </trkpt>
      <trkpt lat="38.902897" lon="-0.658281">
        <ele>406.893</ele>
        <time>2015-07-04T07:27:22Z</time>
      </trkpt>
      <trkpt lat="38.902843" lon="-0.658224">
        <ele>410.124</ele>
        <time>2015-07-04T07:27:30Z</time>
      </trkpt>
      <trkpt lat="38.902821" lon="-0.658210">
        <ele>411.151</ele>
        <time>2015-07-04T07:27:41Z</time>
      </trkpt>
      <trkpt lat="38.902798" lon="-0.658171">
        <ele>412.529</ele>
        <time>2015-07-04T07:27:47Z</time>
      </trkpt>
      <trkpt lat="38.902779" lon="-0.658152">
        <ele>414.593</ele>
        <time>2015-07-04T07:27:50Z</time>
      </trkpt>
      <trkpt lat="38.902752" lon="-0.658112">
        <ele>416.945</ele>
        <time>2015-07-04T07:28:00Z</time>
      </trkpt>
      <trkpt lat="38.902725" lon="-0.658158">
        <ele>417.847</ele>
        <time>2015-07-04T07:28:05Z</time>
      </trkpt>
      <trkpt lat="38.902664" lon="-0.658242">
        <ele>418.311</ele>
        <time>2015-07-04T07:28:11Z</time>
      </trkpt>
      <trkpt lat="38.902592" lon="-0.658284">
        <ele>420.208</ele>
        <time>2015-07-04T07:28:18Z</time>
      </trkpt>
      <trkpt lat="38.902546" lon="-0.658273">
        <ele>422.665</ele>
        <time>2015-07-04T07:28:24Z</time>
      </trkpt>
      <trkpt lat="38.902531" lon="-0.658255">
        <ele>423.145</ele>
        <time>2015-07-04T07:28:27Z</time>
      </trkpt>
      <trkpt lat="38.902504" lon="-0.658226">
        <ele>425.526</ele>
        <time>2015-07-04T07:28:39Z</time>
      </trkpt>
      <trkpt lat="38.902470" lon="-0.658209">
        <ele>427.929</ele>
        <time>2015-07-04T07:28:45Z</time>
      </trkpt>
      <trkpt lat="38.902424" lon="-0.658236">
        <ele>430.340</ele>
        <time>2015-07-04T07:28:51Z</time>
      </trkpt>
      <trkpt lat="38.902355" lon="-0.658284">
        <ele>431.857</ele>
        <time>2015-07-04T07:29:00Z</time>
      </trkpt>
      <trkpt lat="38.902325" lon="-0.658291">
        <ele>432.395</ele>
        <time>2015-07-04T07:29:03Z</time>
      </trkpt>
      <trkpt lat="38.902233" lon="-0.658345">
        <ele>436.139</ele>
        <time>2015-07-04T07:29:13Z</time>
      </trkpt>
      <trkpt lat="38.902130" lon="-0.658474">
        <ele>436.672</ele>
        <time>2015-07-04T07:29:26Z</time>
      </trkpt>
      <trkpt lat="38.902077" lon="-0.658500">
        <ele>438.013</ele>
        <time>2015-07-04T07:29:32Z</time>
      </trkpt>
      <trkpt lat="38.902050" lon="-0.658522">
        <ele>438.514</ele>
        <time>2015-07-04T07:29:35Z</time>
      </trkpt>
      <trkpt lat="38.901955" lon="-0.658544">
        <ele>440.908</ele>
        <time>2015-07-04T07:29:42Z</time>
      </trkpt>
      <trkpt lat="38.901936" lon="-0.658552">
        <ele>441.938</ele>
        <time>2015-07-04T07:29:44Z</time>
      </trkpt>
      <trkpt lat="38.901855" lon="-0.658600">
        <ele>443.398</ele>
        <time>2015-07-04T07:29:53Z</time>
      </trkpt>
      <trkpt lat="38.901787" lon="-0.658603">
        <ele>446.799</ele>
        <time>2015-07-04T07:29:59Z</time>
      </trkpt>
      <trkpt lat="38.901718" lon="-0.658604">
        <ele>449.642</ele>
        <time>2015-07-04T07:30:11Z</time>
      </trkpt>
      <trkpt lat="38.901638" lon="-0.658571">
        <ele>453.453</ele>
        <time>2015-07-04T07:30:30Z</time>
      </trkpt>
      <trkpt lat="38.901577" lon="-0.658487">
        <ele>456.370</ele>
        <time>2015-07-04T07:30:42Z</time>
      </trkpt>
      <trkpt lat="38.901554" lon="-0.658479">
        <ele>457.768</ele>
        <time>2015-07-04T07:30:53Z</time>
      </trkpt>
      <trkpt lat="38.901535" lon="-0.658467">
        <ele>460.642</ele>
        <time>2015-07-04T07:31:05Z</time>
      </trkpt>
      <trkpt lat="38.901501" lon="-0.658478">
        <ele>461.151</ele>
        <time>2015-07-04T07:31:09Z</time>
      </trkpt>
      <trkpt lat="38.901440" lon="-0.658498">
        <ele>463.001</ele>
        <time>2015-07-04T07:31:14Z</time>
      </trkpt>
      <trkpt lat="38.901405" lon="-0.658474">
        <ele>465.411</ele>
        <time>2015-07-04T07:31:20Z</time>
      </trkpt>
      <trkpt lat="38.901363" lon="-0.658472">
        <ele>467.308</ele>
        <time>2015-07-04T07:31:26Z</time>
      </trkpt>
      <trkpt lat="38.901325" lon="-0.658459">
        <ele>469.756</ele>
        <time>2015-07-04T07:31:34Z</time>
      </trkpt>
      <trkpt lat="38.901260" lon="-0.658488">
        <ele>472.166</ele>
        <time>2015-07-04T07:31:45Z</time>
      </trkpt>
      <trkpt lat="38.901211" lon="-0.658583">
        <ele>472.617</ele>
        <time>2015-07-04T07:31:53Z</time>
      </trkpt>
      <trkpt lat="38.901203" lon="-0.658607">
        <ele>472.660</ele>
        <time>2015-07-04T07:31:55Z</time>
      </trkpt>
      <trkpt lat="38.901173" lon="-0.658709">
        <ele>471.731</ele>
        <time>2015-07-04T07:32:00Z</time>
      </trkpt>
      <trkpt lat="38.901066" lon="-0.658738">
        <ele>475.548</ele>
        <time>2015-07-04T07:32:12Z</time>
      </trkpt>
      <trkpt lat="38.901043" lon="-0.658744">
        <ele>476.546</ele>
        <time>2015-07-04T07:32:15Z</time>
      </trkpt>
      <trkpt lat="38.901020" lon="-0.658752">
        <ele>476.570</ele>
        <time>2015-07-04T07:32:17Z</time>
      </trkpt>
      <trkpt lat="38.900978" lon="-0.658752">
        <ele>478.477</ele>
        <time>2015-07-04T07:32:21Z</time>
      </trkpt>
      <trkpt lat="38.900940" lon="-0.658797">
        <ele>479.461</ele>
        <time>2015-07-04T07:32:34Z</time>
      </trkpt>
      <trkpt lat="38.900902" lon="-0.658808">
        <ele>482.227</ele>
        <time>2015-07-04T07:32:41Z</time>
      </trkpt>
      <trkpt lat="38.900852" lon="-0.658845">
        <ele>484.208</ele>
        <time>2015-07-04T07:32:53Z</time>
      </trkpt>
      <trkpt lat="38.900791" lon="-0.658898">
        <ele>486.638</ele>
        <time>2015-07-04T07:33:03Z</time>
      </trkpt>
      <trkpt lat="38.900742" lon="-0.658897">
        <ele>488.528</ele>
        <time>2015-07-04T07:33:09Z</time>
      </trkpt>
      <trkpt lat="38.900707" lon="-0.658890">
        <ele>489.999</ele>
        <time>2015-07-04T07:33:17Z</time>
      </trkpt>
      <trkpt lat="38.900631" lon="-0.658891">
        <ele>493.372</ele>
        <time>2015-07-04T07:33:28Z</time>
      </trkpt>
      <trkpt lat="38.900558" lon="-0.658915">
        <ele>495.743</ele>
        <time>2015-07-04T07:33:38Z</time>
      </trkpt>
      <trkpt lat="38.900536" lon="-0.658929">
        <ele>496.260</ele>
        <time>2015-07-04T07:33:43Z</time>
      </trkpt>
      <trkpt lat="38.900471" lon="-0.658968">
        <ele>499.198</ele>
        <time>2015-07-04T07:33:53Z</time>
      </trkpt>
      <trkpt lat="38.900375" lon="-0.658960">
        <ele>502.942</ele>
        <time>2015-07-04T07:34:07Z</time>
      </trkpt>
      <trkpt lat="38.900330" lon="-0.658944">
        <ele>504.882</ele>
        <time>2015-07-04T07:34:16Z</time>
      </trkpt>
      <trkpt lat="38.900299" lon="-0.658913">
        <ele>504.443</ele>
        <time>2015-07-04T07:34:21Z</time>
      </trkpt>
      <trkpt lat="38.900196" lon="-0.658855">
        <ele>501.017</ele>
        <time>2015-07-04T07:34:29Z</time>
      </trkpt>
      <trkpt lat="38.900173" lon="-0.658846">
        <ele>499.508</ele>
        <time>2015-07-04T07:34:32Z</time>
      </trkpt>
      <trkpt lat="38.900105" lon="-0.658873">
        <ele>497.679</ele>
        <time>2015-07-04T07:34:38Z</time>
      </trkpt>
      <trkpt lat="38.900032" lon="-0.658919">
        <ele>495.719</ele>
        <time>2015-07-04T07:34:44Z</time>
      </trkpt>
      <trkpt lat="38.899963" lon="-0.658954">
        <ele>492.840</ele>
        <time>2015-07-04T07:34:49Z</time>
      </trkpt>
      <trkpt lat="38.899914" lon="-0.659001">
        <ele>491.483</ele>
        <time>2015-07-04T07:34:52Z</time>
      </trkpt>
      <trkpt lat="38.899872" lon="-0.659007">
        <ele>489.534</ele>
        <time>2015-07-04T07:34:55Z</time>
      </trkpt>
      <trkpt lat="38.899784" lon="-0.659082">
        <ele>486.131</ele>
        <time>2015-07-04T07:35:00Z</time>
      </trkpt>
      <trkpt lat="38.899677" lon="-0.659178">
        <ele>483.719</ele>
        <time>2015-07-04T07:35:06Z</time>
      </trkpt>
      <trkpt lat="38.899624" lon="-0.659232">
        <ele>481.363</ele>
        <time>2015-07-04T07:35:09Z</time>
      </trkpt>
      <trkpt lat="38.899548" lon="-0.659316">
        <ele>479.479</ele>
        <time>2015-07-04T07:35:13Z</time>
      </trkpt>
      <trkpt lat="38.899429" lon="-0.659368">
        <ele>475.005</ele>
        <time>2015-07-04T07:35:18Z</time>
      </trkpt>
      <trkpt lat="38.899376" lon="-0.659408">
        <ele>473.125</ele>
        <time>2015-07-04T07:35:20Z</time>
      </trkpt>
      <trkpt lat="38.899349" lon="-0.659431">
        <ele>472.108</ele>
        <time>2015-07-04T07:35:21Z</time>
      </trkpt>
      <trkpt lat="38.899193" lon="-0.659593">
        <ele>468.868</ele>
        <time>2015-07-04T07:35:28Z</time>
      </trkpt>
      <trkpt lat="38.898949" lon="-0.659796">
        <ele>469.318</ele>
        <time>2015-07-04T07:35:37Z</time>
      </trkpt>
      <trkpt lat="38.898819" lon="-0.659922">
        <ele>472.119</ele>
        <time>2015-07-04T07:35:43Z</time>
      </trkpt>
      <trkpt lat="38.898766" lon="-0.659981">
        <ele>474.192</ele>
        <time>2015-07-04T07:35:46Z</time>
      </trkpt>
      <trkpt lat="38.898708" lon="-0.660055">
        <ele>475.573</ele>
        <time>2015-07-04T07:35:50Z</time>
      </trkpt>
      <trkpt lat="38.898571" lon="-0.660193">
        <ele>477.060</ele>
        <time>2015-07-04T07:36:01Z</time>
      </trkpt>
      <trkpt lat="38.898521" lon="-0.660259">
        <ele>477.018</ele>
        <time>2015-07-04T07:36:06Z</time>
      </trkpt>
      <trkpt lat="38.898491" lon="-0.660386">
        <ele>477.492</ele>
        <time>2015-07-04T07:36:11Z</time>
      </trkpt>
      <trkpt lat="38.898476" lon="-0.660529">
        <ele>478.449</ele>
        <time>2015-07-04T07:36:16Z</time>
      </trkpt>
      <trkpt lat="38.898373" lon="-0.660655">
        <ele>475.002</ele>
        <time>2015-07-04T07:36:22Z</time>
      </trkpt>
      <trkpt lat="38.898262" lon="-0.660804">
        <ele>471.722</ele>
        <time>2015-07-04T07:36:27Z</time>
      </trkpt>
      <trkpt lat="38.898239" lon="-0.660835">
        <ele>470.708</ele>
        <time>2015-07-04T07:36:28Z</time>
      </trkpt>
      <trkpt lat="38.898117" lon="-0.660953">
        <ele>468.355</ele>
        <time>2015-07-04T07:36:32Z</time>
      </trkpt>
      <trkpt lat="38.898060" lon="-0.660998">
        <ele>466.995</ele>
        <time>2015-07-04T07:36:34Z</time>
      </trkpt>
      <trkpt lat="38.897980" lon="-0.661090">
        <ele>464.926</ele>
        <time>2015-07-04T07:36:37Z</time>
      </trkpt>
      <trkpt lat="38.897926" lon="-0.661222">
        <ele>464.979</ele>
        <time>2015-07-04T07:36:43Z</time>
      </trkpt>
      <trkpt lat="38.897869" lon="-0.661249">
        <ele>465.490</ele>
        <time>2015-07-04T07:36:47Z</time>
      </trkpt>
      <trkpt lat="38.897804" lon="-0.661252">
        <ele>465.417</ele>
        <time>2015-07-04T07:37:02Z</time>
      </trkpt>
      <trkpt lat="38.897678" lon="-0.661143">
        <ele>465.945</ele>
        <time>2015-07-04T07:37:25Z</time>
      </trkpt>
      <trkpt lat="38.897640" lon="-0.661099">
        <ele>465.949</ele>
        <time>2015-07-04T07:37:29Z</time>
      </trkpt>
      <trkpt lat="38.897606" lon="-0.661013">
        <ele>465.987</ele>
        <time>2015-07-04T07:37:35Z</time>
      </trkpt>
      <trkpt lat="38.897591" lon="-0.660977">
        <ele>466.942</ele>
        <time>2015-07-04T07:37:37Z</time>
      </trkpt>
      <trkpt lat="38.897457" lon="-0.660912">
        <ele>469.326</ele>
        <time>2015-07-04T07:37:45Z</time>
      </trkpt>
      <trkpt lat="38.897438" lon="-0.660900">
        <ele>469.308</ele>
        <time>2015-07-04T07:37:46Z</time>
      </trkpt>
      <trkpt lat="38.897415" lon="-0.660883">
        <ele>469.379</ele>
        <time>2015-07-04T07:37:47Z</time>
      </trkpt>
      <trkpt lat="38.897358" lon="-0.660823">
        <ele>469.719</ele>
        <time>2015-07-04T07:37:50Z</time>
      </trkpt>
      <trkpt lat="38.897289" lon="-0.660787">
        <ele>472.130</ele>
        <time>2015-07-04T07:37:55Z</time>
      </trkpt>
      <trkpt lat="38.897263" lon="-0.660786">
        <ele>472.693</ele>
        <time>2015-07-04T07:37:57Z</time>
      </trkpt>
      <trkpt lat="38.897221" lon="-0.660704">
        <ele>473.664</ele>
        <time>2015-07-04T07:38:03Z</time>
      </trkpt>
      <trkpt lat="38.897213" lon="-0.660542">
        <ele>474.171</ele>
        <time>2015-07-04T07:38:12Z</time>
      </trkpt>
      <trkpt lat="38.897205" lon="-0.660489">
        <ele>474.149</ele>
        <time>2015-07-04T07:38:16Z</time>
      </trkpt>
      <trkpt lat="38.897175" lon="-0.660514">
        <ele>475.583</ele>
        <time>2015-07-04T07:38:21Z</time>
      </trkpt>
      <trkpt lat="38.897114" lon="-0.660450">
        <ele>477.416</ele>
        <time>2015-07-04T07:38:26Z</time>
      </trkpt>
      <trkpt lat="38.897099" lon="-0.660350">
        <ele>477.976</ele>
        <time>2015-07-04T07:38:29Z</time>
      </trkpt>
      <trkpt lat="38.897076" lon="-0.660246">
        <ele>477.913</ele>
        <time>2015-07-04T07:38:32Z</time>
      </trkpt>
      <trkpt lat="38.897003" lon="-0.660050">
        <ele>477.408</ele>
        <time>2015-07-04T07:38:40Z</time>
      </trkpt>
      <trkpt lat="38.896984" lon="-0.660053">
        <ele>477.922</ele>
        <time>2015-07-04T07:38:41Z</time>
      </trkpt>
      <trkpt lat="38.896931" lon="-0.660083">
        <ele>479.482</ele>
        <time>2015-07-04T07:38:45Z</time>
      </trkpt>
      <trkpt lat="38.896866" lon="-0.660107">
        <ele>480.833</ele>
        <time>2015-07-04T07:38:51Z</time>
      </trkpt>
      <trkpt lat="38.896862" lon="-0.660183">
        <ele>482.716</ele>
        <time>2015-07-04T07:38:58Z</time>
      </trkpt>
      <trkpt lat="38.896847" lon="-0.660233">
        <ele>483.797</ele>
        <time>2015-07-04T07:39:02Z</time>
      </trkpt>
      <trkpt lat="38.896839" lon="-0.660264">
        <ele>484.664</ele>
        <time>2015-07-04T07:39:05Z</time>
      </trkpt>
      <trkpt lat="38.896832" lon="-0.660313">
        <ele>486.152</ele>
        <time>2015-07-04T07:39:10Z</time>
      </trkpt>
      <trkpt lat="38.896816" lon="-0.660392">
        <ele>487.196</ele>
        <time>2015-07-04T07:39:16Z</time>
      </trkpt>
      <trkpt lat="38.896790" lon="-0.660453">
        <ele>487.576</ele>
        <time>2015-07-04T07:39:28Z</time>
      </trkpt>
      <trkpt lat="38.896767" lon="-0.660487">
        <ele>489.590</ele>
        <time>2015-07-04T07:39:36Z</time>
      </trkpt>
      <trkpt lat="38.896729" lon="-0.660652">
        <ele>493.319</ele>
        <time>2015-07-04T07:39:49Z</time>
      </trkpt>
      <trkpt lat="38.896713" lon="-0.660682">
        <ele>493.808</ele>
        <time>2015-07-04T07:39:52Z</time>
      </trkpt>
      <trkpt lat="38.896751" lon="-0.660769">
        <ele>493.398</ele>
        <time>2015-07-04T07:39:58Z</time>
      </trkpt>
      <trkpt lat="38.896721" lon="-0.660851">
        <ele>496.758</ele>
        <time>2015-07-04T07:40:05Z</time>
      </trkpt>
      <trkpt lat="38.896645" lon="-0.660792">
        <ele>499.179</ele>
        <time>2015-07-04T07:40:13Z</time>
      </trkpt>
      <trkpt lat="38.896584" lon="-0.660801">
        <ele>502.412</ele>
        <time>2015-07-04T07:40:22Z</time>
      </trkpt>
      <trkpt lat="38.896519" lon="-0.660790">
        <ele>504.823</ele>
        <time>2015-07-04T07:40:31Z</time>
      </trkpt>
      <trkpt lat="38.896461" lon="-0.660552">
        <ele>505.340</ele>
        <time>2015-07-04T07:40:44Z</time>
      </trkpt>
      <trkpt lat="38.896431" lon="-0.660458">
        <ele>505.388</ele>
        <time>2015-07-04T07:40:47Z</time>
      </trkpt>
      <trkpt lat="38.896351" lon="-0.660385">
        <ele>507.752</ele>
        <time>2015-07-04T07:40:53Z</time>
      </trkpt>
      <trkpt lat="38.896332" lon="-0.660363">
        <ele>508.715</ele>
        <time>2015-07-04T07:40:55Z</time>
      </trkpt>
      <trkpt lat="38.896313" lon="-0.660362">
        <ele>510.165</ele>
        <time>2015-07-04T07:40:58Z</time>
      </trkpt>
      <trkpt lat="38.896221" lon="-0.660321">
        <ele>513.011</ele>
        <time>2015-07-04T07:41:08Z</time>
      </trkpt>
      <trkpt lat="38.896152" lon="-0.660340">
        <ele>514.008</ele>
        <time>2015-07-04T07:41:15Z</time>
      </trkpt>
      <trkpt lat="38.896091" lon="-0.660311">
        <ele>515.442</ele>
        <time>2015-07-04T07:41:20Z</time>
      </trkpt>
      <trkpt lat="38.896133" lon="-0.660160">
        <ele>518.372</ele>
        <time>2015-07-04T07:41:29Z</time>
      </trkpt>
      <trkpt lat="38.896103" lon="-0.659892">
        <ele>520.293</ele>
        <time>2015-07-04T07:41:44Z</time>
      </trkpt>
      <trkpt lat="38.896099" lon="-0.659828">
        <ele>521.236</ele>
        <time>2015-07-04T07:41:48Z</time>
      </trkpt>
      <trkpt lat="38.896088" lon="-0.659668">
        <ele>522.677</ele>
        <time>2015-07-04T07:41:55Z</time>
      </trkpt>
      <trkpt lat="38.896069" lon="-0.659625">
        <ele>522.634</ele>
        <time>2015-07-04T07:41:57Z</time>
      </trkpt>
      <trkpt lat="38.896030" lon="-0.659611">
        <ele>523.652</ele>
        <time>2015-07-04T07:42:02Z</time>
      </trkpt>
      <trkpt lat="38.895985" lon="-0.659665">
        <ele>526.056</ele>
        <time>2015-07-04T07:42:08Z</time>
      </trkpt>
      <trkpt lat="38.895966" lon="-0.659725">
        <ele>526.995</ele>
        <time>2015-07-04T07:42:15Z</time>
      </trkpt>
      <trkpt lat="38.895962" lon="-0.659839">
        <ele>529.349</ele>
        <time>2015-07-04T07:42:24Z</time>
      </trkpt>
      <trkpt lat="38.895958" lon="-0.659883">
        <ele>530.323</ele>
        <time>2015-07-04T07:42:27Z</time>
      </trkpt>
      <trkpt lat="38.895889" lon="-0.659973">
        <ele>532.708</ele>
        <time>2015-07-04T07:42:38Z</time>
      </trkpt>
      <trkpt lat="38.895863" lon="-0.660002">
        <ele>533.250</ele>
        <time>2015-07-04T07:42:41Z</time>
      </trkpt>
      <trkpt lat="38.895756" lon="-0.660142">
        <ele>534.620</ele>
        <time>2015-07-04T07:42:54Z</time>
      </trkpt>
      <trkpt lat="38.895721" lon="-0.660195">
        <ele>535.631</ele>
        <time>2015-07-04T07:42:59Z</time>
      </trkpt>
      <trkpt lat="38.895679" lon="-0.660242">
        <ele>536.134</ele>
        <time>2015-07-04T07:43:03Z</time>
      </trkpt>
      <trkpt lat="38.895622" lon="-0.660358">
        <ele>538.095</ele>
        <time>2015-07-04T07:43:12Z</time>
      </trkpt>
      <trkpt lat="38.895615" lon="-0.660385">
        <ele>538.052</ele>
        <time>2015-07-04T07:43:14Z</time>
      </trkpt>
      <trkpt lat="38.895470" lon="-0.660493">
        <ele>540.970</ele>
        <time>2015-07-04T07:43:26Z</time>
      </trkpt>
      <trkpt lat="38.895470" lon="-0.660531">
        <ele>540.984</ele>
        <time>2015-07-04T07:43:30Z</time>
      </trkpt>
      <trkpt lat="38.895508" lon="-0.660621">
        <ele>538.532</ele>
        <time>2015-07-04T07:43:34Z</time>
      </trkpt>
      <trkpt lat="38.895458" lon="-0.660797">
        <ele>539.492</ele>
        <time>2015-07-04T07:43:41Z</time>
      </trkpt>
      <trkpt lat="38.895420" lon="-0.660857">
        <ele>541.811</ele>
        <time>2015-07-04T07:43:45Z</time>
      </trkpt>
      <trkpt lat="38.895390" lon="-0.660931">
        <ele>541.808</ele>
        <time>2015-07-04T07:43:49Z</time>
      </trkpt>
      <trkpt lat="38.895348" lon="-0.661087">
        <ele>542.814</ele>
        <time>2015-07-04T07:43:59Z</time>
      </trkpt>
      <trkpt lat="38.895306" lon="-0.661135">
        <ele>543.324</ele>
        <time>2015-07-04T07:44:03Z</time>
      </trkpt>
      <trkpt lat="38.895283" lon="-0.661161">
        <ele>544.265</ele>
        <time>2015-07-04T07:44:06Z</time>
      </trkpt>
      <trkpt lat="38.895226" lon="-0.661211">
        <ele>548.158</ele>
        <time>2015-07-04T07:44:14Z</time>
      </trkpt>
      <trkpt lat="38.895149" lon="-0.661202">
        <ele>552.419</ele>
        <time>2015-07-04T07:44:27Z</time>
      </trkpt>
      <trkpt lat="38.895092" lon="-0.661224">
        <ele>554.836</ele>
        <time>2015-07-04T07:44:39Z</time>
      </trkpt>
      <trkpt lat="38.895061" lon="-0.661264">
        <ele>557.214</ele>
        <time>2015-07-04T07:44:49Z</time>
      </trkpt>
      <trkpt lat="38.895039" lon="-0.661313">
        <ele>558.768</ele>
        <time>2015-07-04T07:44:56Z</time>
      </trkpt>
      <trkpt lat="38.894989" lon="-0.661398">
        <ele>561.633</ele>
        <time>2015-07-04T07:45:04Z</time>
      </trkpt>
      <trkpt lat="38.894913" lon="-0.661521">
        <ele>563.023</ele>
        <time>2015-07-04T07:45:17Z</time>
      </trkpt>
      <trkpt lat="38.894775" lon="-0.661673">
        <ele>566.415</ele>
        <time>2015-07-04T07:45:29Z</time>
      </trkpt>
      <trkpt lat="38.894753" lon="-0.661691">
        <ele>566.808</ele>
        <time>2015-07-04T07:45:31Z</time>
      </trkpt>
      <trkpt lat="38.894737" lon="-0.661726">
        <ele>567.884</ele>
        <time>2015-07-04T07:45:35Z</time>
      </trkpt>
      <trkpt lat="38.894699" lon="-0.661768">
        <ele>570.744</ele>
        <time>2015-07-04T07:45:45Z</time>
      </trkpt>
      <trkpt lat="38.894650" lon="-0.661783">
        <ele>573.185</ele>
        <time>2015-07-04T07:45:55Z</time>
      </trkpt>
      <trkpt lat="38.894623" lon="-0.661790">
        <ele>574.028</ele>
        <time>2015-07-04T07:45:57Z</time>
      </trkpt>
      <trkpt lat="38.894581" lon="-0.661832">
        <ele>576.549</ele>
        <time>2015-07-04T07:46:06Z</time>
      </trkpt>
      <trkpt lat="38.894550" lon="-0.661851">
        <ele>578.926</ele>
        <time>2015-07-04T07:46:18Z</time>
      </trkpt>
      <trkpt lat="38.894535" lon="-0.661880">
        <ele>579.814</ele>
        <time>2015-07-04T07:46:24Z</time>
      </trkpt>
      <trkpt lat="38.894512" lon="-0.661899">
        <ele>580.868</ele>
        <time>2015-07-04T07:46:27Z</time>
      </trkpt>
      <trkpt lat="38.894466" lon="-0.661898">
        <ele>583.248</ele>
        <time>2015-07-04T07:46:39Z</time>
      </trkpt>
      <trkpt lat="38.894444" lon="-0.661887">
        <ele>584.661</ele>
        <time>2015-07-04T07:46:49Z</time>
      </trkpt>
      <trkpt lat="38.894413" lon="-0.661920">
        <ele>585.617</ele>
        <time>2015-07-04T07:46:53Z</time>
      </trkpt>
      <trkpt lat="38.894356" lon="-0.661940">
        <ele>587.508</ele>
        <time>2015-07-04T07:46:57Z</time>
      </trkpt>
      <trkpt lat="38.894337" lon="-0.661950">
        <ele>589.055</ele>
        <time>2015-07-04T07:47:00Z</time>
      </trkpt>
      <trkpt lat="38.894287" lon="-0.661964">
        <ele>589.945</ele>
        <time>2015-07-04T07:47:05Z</time>
      </trkpt>
      <trkpt lat="38.894238" lon="-0.661975">
        <ele>592.326</ele>
        <time>2015-07-04T07:47:14Z</time>
      </trkpt>
      <trkpt lat="38.894218" lon="-0.661978">
        <ele>592.889</ele>
        <time>2015-07-04T07:47:16Z</time>
      </trkpt>
      <trkpt lat="38.894165" lon="-0.661955">
        <ele>594.750</ele>
        <time>2015-07-04T07:47:26Z</time>
      </trkpt>
      <trkpt lat="38.894058" lon="-0.661954">
        <ele>597.197</ele>
        <time>2015-07-04T07:47:37Z</time>
      </trkpt>
      <trkpt lat="38.893982" lon="-0.661978">
        <ele>599.025</ele>
        <time>2015-07-04T07:47:46Z</time>
      </trkpt>
      <trkpt lat="38.893921" lon="-0.662027">
        <ele>601.089</ele>
        <time>2015-07-04T07:47:51Z</time>
      </trkpt>
      <trkpt lat="38.893902" lon="-0.662045">
        <ele>601.914</ele>
        <time>2015-07-04T07:47:53Z</time>
      </trkpt>
      <trkpt lat="38.893833" lon="-0.662088">
        <ele>603.954</ele>
        <time>2015-07-04T07:48:02Z</time>
      </trkpt>
      <trkpt lat="38.893909" lon="-0.662222">
        <ele>604.809</ele>
        <time>2015-07-04T07:48:14Z</time>
      </trkpt>
      <trkpt lat="38.893921" lon="-0.662246">
        <ele>605.308</ele>
        <time>2015-07-04T07:48:16Z</time>
      </trkpt>
      <trkpt lat="38.893883" lon="-0.662493">
        <ele>606.772</ele>
        <time>2015-07-04T07:48:27Z</time>
      </trkpt>
      <trkpt lat="38.893772" lon="-0.662651">
        <ele>610.152</ele>
        <time>2015-07-04T07:48:35Z</time>
      </trkpt>
      <trkpt lat="38.893742" lon="-0.662738">
        <ele>611.193</ele>
        <time>2015-07-04T07:48:41Z</time>
      </trkpt>
      <trkpt lat="38.893742" lon="-0.662791">
        <ele>611.546</ele>
        <time>2015-07-04T07:48:44Z</time>
      </trkpt>
      <trkpt lat="38.893734" lon="-0.662899">
        <ele>613.057</ele>
        <time>2015-07-04T07:48:52Z</time>
      </trkpt>
      <trkpt lat="38.893692" lon="-0.663092">
        <ele>615.484</ele>
        <time>2015-07-04T07:49:01Z</time>
      </trkpt>
      <trkpt lat="38.893635" lon="-0.663274">
        <ele>618.392</ele>
        <time>2015-07-04T07:49:08Z</time>
      </trkpt>
      <trkpt lat="38.893597" lon="-0.663422">
        <ele>620.796</ele>
        <time>2015-07-04T07:49:15Z</time>
      </trkpt>
      <trkpt lat="38.893589" lon="-0.663464">
        <ele>620.717</ele>
        <time>2015-07-04T07:49:19Z</time>
      </trkpt>
      <trkpt lat="38.893578" lon="-0.663518">
        <ele>621.687</ele>
        <time>2015-07-04T07:49:23Z</time>
      </trkpt>
      <trkpt lat="38.893555" lon="-0.663614">
        <ele>623.615</ele>
        <time>2015-07-04T07:49:31Z</time>
      </trkpt>
      <trkpt lat="38.893543" lon="-0.663634">
        <ele>623.608</ele>
        <time>2015-07-04T07:49:33Z</time>
      </trkpt>
      <trkpt lat="38.893528" lon="-0.663686">
        <ele>624.552</ele>
        <time>2015-07-04T07:49:37Z</time>
      </trkpt>
      <trkpt lat="38.893513" lon="-0.663790">
        <ele>626.042</ele>
        <time>2015-07-04T07:49:45Z</time>
      </trkpt>
      <trkpt lat="38.893494" lon="-0.663828">
        <ele>626.923</ele>
        <time>2015-07-04T07:49:48Z</time>
      </trkpt>
      <trkpt lat="38.893444" lon="-0.663909">
        <ele>627.996</ele>
        <time>2015-07-04T07:49:55Z</time>
      </trkpt>
      <trkpt lat="38.893398" lon="-0.663994">
        <ele>628.857</ele>
        <time>2015-07-04T07:50:02Z</time>
      </trkpt>
      <trkpt lat="38.893375" lon="-0.664039">
        <ele>629.384</ele>
        <time>2015-07-04T07:50:05Z</time>
      </trkpt>
      <trkpt lat="38.893330" lon="-0.664251">
        <ele>629.812</ele>
        <time>2015-07-04T07:50:16Z</time>
      </trkpt>
      <trkpt lat="38.893291" lon="-0.664460">
        <ele>630.826</ele>
        <time>2015-07-04T07:50:22Z</time>
      </trkpt>
      <trkpt lat="38.893284" lon="-0.664493">
        <ele>630.869</ele>
        <time>2015-07-04T07:50:23Z</time>
      </trkpt>
      <trkpt lat="38.893200" lon="-0.664739">
        <ele>632.204</ele>
        <time>2015-07-04T07:50:31Z</time>
      </trkpt>
      <trkpt lat="38.893105" lon="-0.665028">
        <ele>632.724</ele>
        <time>2015-07-04T07:50:39Z</time>
      </trkpt>
      <trkpt lat="38.893044" lon="-0.665269">
        <ele>632.708</ele>
        <time>2015-07-04T07:50:47Z</time>
      </trkpt>
      <trkpt lat="38.892838" lon="-0.665307">
        <ele>634.177</ele>
        <time>2015-07-04T07:50:58Z</time>
      </trkpt>
      <trkpt lat="38.892765" lon="-0.665335">
        <ele>636.597</ele>
        <time>2015-07-04T07:51:07Z</time>
      </trkpt>
      <trkpt lat="38.892746" lon="-0.665361">
        <ele>638.028</ele>
        <time>2015-07-04T07:51:12Z</time>
      </trkpt>
      <trkpt lat="38.892719" lon="-0.665383">
        <ele>639.931</ele>
        <time>2015-07-04T07:51:18Z</time>
      </trkpt>
      <trkpt lat="38.892673" lon="-0.665388">
        <ele>640.942</ele>
        <time>2015-07-04T07:51:27Z</time>
      </trkpt>
      <trkpt lat="38.892647" lon="-0.665381">
        <ele>641.819</ele>
        <time>2015-07-04T07:51:30Z</time>
      </trkpt>
      <trkpt lat="38.892597" lon="-0.665397">
        <ele>644.217</ele>
        <time>2015-07-04T07:51:36Z</time>
      </trkpt>
      <trkpt lat="38.892559" lon="-0.665440">
        <ele>645.221</ele>
        <time>2015-07-04T07:51:42Z</time>
      </trkpt>
      <trkpt lat="38.892540" lon="-0.665446">
        <ele>646.146</ele>
        <time>2015-07-04T07:51:44Z</time>
      </trkpt>
      <trkpt lat="38.892490" lon="-0.665483">
        <ele>648.188</ele>
        <time>2015-07-04T07:51:51Z</time>
      </trkpt>
      <trkpt lat="38.892437" lon="-0.665432">
        <ele>649.016</ele>
        <time>2015-07-04T07:51:57Z</time>
      </trkpt>
      <trkpt lat="38.892391" lon="-0.665439">
        <ele>650.008</ele>
        <time>2015-07-04T07:52:02Z</time>
      </trkpt>
      <trkpt lat="38.892357" lon="-0.665547">
        <ele>652.415</ele>
        <time>2015-07-04T07:52:12Z</time>
      </trkpt>
      <trkpt lat="38.892365" lon="-0.665571">
        <ele>652.445</ele>
        <time>2015-07-04T07:52:15Z</time>
      </trkpt>
      <trkpt lat="38.892319" lon="-0.665617">
        <ele>654.816</ele>
        <time>2015-07-04T07:52:22Z</time>
      </trkpt>
      <trkpt lat="38.892273" lon="-0.665579">
        <ele>656.759</ele>
        <time>2015-07-04T07:52:28Z</time>
      </trkpt>
      <trkpt lat="38.892239" lon="-0.665639">
        <ele>658.250</ele>
        <time>2015-07-04T07:52:35Z</time>
      </trkpt>
      <trkpt lat="38.892220" lon="-0.665681">
        <ele>658.687</ele>
        <time>2015-07-04T07:52:39Z</time>
      </trkpt>
      <trkpt lat="38.892223" lon="-0.665740">
        <ele>659.155</ele>
        <time>2015-07-04T07:52:43Z</time>
      </trkpt>
      <trkpt lat="38.892189" lon="-0.665763">
        <ele>660.619</ele>
        <time>2015-07-04T07:52:47Z</time>
      </trkpt>
      <trkpt lat="38.892147" lon="-0.665864">
        <ele>663.036</ele>
        <time>2015-07-04T07:52:58Z</time>
      </trkpt>
      <trkpt lat="38.892174" lon="-0.665901">
        <ele>665.417</ele>
        <time>2015-07-04T07:53:06Z</time>
      </trkpt>
      <trkpt lat="38.892166" lon="-0.665933">
        <ele>666.318</ele>
        <time>2015-07-04T07:53:10Z</time>
      </trkpt>
      <trkpt lat="38.892151" lon="-0.665980">
        <ele>667.308</ele>
        <time>2015-07-04T07:53:16Z</time>
      </trkpt>
      <trkpt lat="38.892151" lon="-0.666071">
        <ele>669.794</ele>
        <time>2015-07-04T07:53:23Z</time>
      </trkpt>
      <trkpt lat="38.892178" lon="-0.666156">
        <ele>672.124</ele>
        <time>2015-07-04T07:53:35Z</time>
      </trkpt>
      <trkpt lat="38.892155" lon="-0.666234">
        <ele>675.095</ele>
        <time>2015-07-04T07:53:46Z</time>
      </trkpt>
      <trkpt lat="38.892132" lon="-0.666277">
        <ele>676.448</ele>
        <time>2015-07-04T07:53:53Z</time>
      </trkpt>
      <trkpt lat="38.892097" lon="-0.666349">
        <ele>677.919</ele>
        <time>2015-07-04T07:54:03Z</time>
      </trkpt>
      <trkpt lat="38.892071" lon="-0.666428">
        <ele>680.396</ele>
        <time>2015-07-04T07:54:13Z</time>
      </trkpt>
      <trkpt lat="38.892082" lon="-0.666469">
        <ele>681.714</ele>
        <time>2015-07-04T07:54:18Z</time>
      </trkpt>
      <trkpt lat="38.892075" lon="-0.666553">
        <ele>684.668</ele>
        <time>2015-07-04T07:54:28Z</time>
      </trkpt>
      <trkpt lat="38.892063" lon="-0.666588">
        <ele>686.534</ele>
        <time>2015-07-04T07:54:37Z</time>
      </trkpt>
      <trkpt lat="38.892033" lon="-0.666688">
        <ele>688.955</ele>
        <time>2015-07-04T07:54:48Z</time>
      </trkpt>
      <trkpt lat="38.892002" lon="-0.666768">
        <ele>691.310</ele>
        <time>2015-07-04T07:54:58Z</time>
      </trkpt>
      <trkpt lat="38.891983" lon="-0.666827">
        <ele>694.208</ele>
        <time>2015-07-04T07:55:08Z</time>
      </trkpt>
      <trkpt lat="38.891975" lon="-0.666851">
        <ele>694.724</ele>
        <time>2015-07-04T07:55:11Z</time>
      </trkpt>
      <trkpt lat="38.891941" lon="-0.666898">
        <ele>698.194</ele>
        <time>2015-07-04T07:55:23Z</time>
      </trkpt>
      <trkpt lat="38.891953" lon="-0.666981">
        <ele>700.975</ele>
        <time>2015-07-04T07:55:32Z</time>
      </trkpt>
      <trkpt lat="38.891941" lon="-0.667067">
        <ele>704.398</ele>
        <time>2015-07-04T07:55:42Z</time>
      </trkpt>
      <trkpt lat="38.891949" lon="-0.667147">
        <ele>705.399</ele>
        <time>2015-07-04T07:55:49Z</time>
      </trkpt>
      <trkpt lat="38.891941" lon="-0.667221">
        <ele>706.786</ele>
        <time>2015-07-04T07:55:55Z</time>
      </trkpt>
      <trkpt lat="38.891941" lon="-0.667270">
        <ele>707.774</ele>
        <time>2015-07-04T07:56:01Z</time>
      </trkpt>
      <trkpt lat="38.891945" lon="-0.667305">
        <ele>708.218</ele>
        <time>2015-07-04T07:56:04Z</time>
      </trkpt>
      <trkpt lat="38.891933" lon="-0.667413">
        <ele>709.658</ele>
        <time>2015-07-04T07:56:13Z</time>
      </trkpt>
      <trkpt lat="38.891922" lon="-0.667472">
        <ele>711.052</ele>
        <time>2015-07-04T07:56:18Z</time>
      </trkpt>
      <trkpt lat="38.891922" lon="-0.667501">
        <ele>712.017</ele>
        <time>2015-07-04T07:56:22Z</time>
      </trkpt>
      <trkpt lat="38.891899" lon="-0.667534">
        <ele>712.008</ele>
        <time>2015-07-04T07:56:26Z</time>
      </trkpt>
      <trkpt lat="38.891880" lon="-0.667590">
        <ele>712.086</ele>
        <time>2015-07-04T07:56:31Z</time>
      </trkpt>
      <trkpt lat="38.891891" lon="-0.667622">
        <ele>712.586</ele>
        <time>2015-07-04T07:56:33Z</time>
      </trkpt>
      <trkpt lat="38.891891" lon="-0.667715">
        <ele>713.957</ele>
        <time>2015-07-04T07:56:37Z</time>
      </trkpt>
      <trkpt lat="38.891769" lon="-0.667952">
        <ele>715.810</ele>
        <time>2015-07-04T07:56:47Z</time>
      </trkpt>
      <trkpt lat="38.891762" lon="-0.667980">
        <ele>716.371</ele>
        <time>2015-07-04T07:56:48Z</time>
      </trkpt>
      <trkpt lat="38.891735" lon="-0.668097">
        <ele>718.288</ele>
        <time>2015-07-04T07:56:56Z</time>
      </trkpt>
      <trkpt lat="38.891712" lon="-0.668184">
        <ele>719.796</ele>
        <time>2015-07-04T07:57:06Z</time>
      </trkpt>
      <trkpt lat="38.891724" lon="-0.668231">
        <ele>720.790</ele>
        <time>2015-07-04T07:57:17Z</time>
      </trkpt>
      <trkpt lat="38.891720" lon="-0.668270">
        <ele>719.742</ele>
        <time>2015-07-04T07:57:22Z</time>
      </trkpt>
      <trkpt lat="38.891697" lon="-0.668404">
        <ele>715.422</ele>
        <time>2015-07-04T07:57:32Z</time>
      </trkpt>
      <trkpt lat="38.891697" lon="-0.668537">
        <ele>712.014</ele>
        <time>2015-07-04T07:57:39Z</time>
      </trkpt>
      <trkpt lat="38.891693" lon="-0.668594">
        <ele>710.608</ele>
        <time>2015-07-04T07:57:42Z</time>
      </trkpt>
      <trkpt lat="38.891697" lon="-0.668662">
        <ele>709.165</ele>
        <time>2015-07-04T07:57:45Z</time>
      </trkpt>
      <trkpt lat="38.891724" lon="-0.668737">
        <ele>708.665</ele>
        <time>2015-07-04T07:57:51Z</time>
      </trkpt>
      <trkpt lat="38.891743" lon="-0.668839">
        <ele>707.766</ele>
        <time>2015-07-04T07:57:57Z</time>
      </trkpt>
      <trkpt lat="38.891758" lon="-0.668867">
        <ele>707.779</ele>
        <time>2015-07-04T07:57:59Z</time>
      </trkpt>
      <trkpt lat="38.891758" lon="-0.669012">
        <ele>706.710</ele>
        <time>2015-07-04T07:58:04Z</time>
      </trkpt>
      <trkpt lat="38.891731" lon="-0.669159">
        <ele>706.257</ele>
        <time>2015-07-04T07:58:09Z</time>
      </trkpt>
      <trkpt lat="38.891716" lon="-0.669234">
        <ele>705.355</ele>
        <time>2015-07-04T07:58:13Z</time>
      </trkpt>
      <trkpt lat="38.891701" lon="-0.669364">
        <ele>704.389</ele>
        <time>2015-07-04T07:58:18Z</time>
      </trkpt>
      <trkpt lat="38.891682" lon="-0.669412">
        <ele>703.852</ele>
        <time>2015-07-04T07:58:20Z</time>
      </trkpt>
      <trkpt lat="38.891674" lon="-0.669462">
        <ele>703.353</ele>
        <time>2015-07-04T07:58:23Z</time>
      </trkpt>
      <trkpt lat="38.891613" lon="-0.669584">
        <ele>701.908</ele>
        <time>2015-07-04T07:58:29Z</time>
      </trkpt>
      <trkpt lat="38.891594" lon="-0.669749">
        <ele>699.508</ele>
        <time>2015-07-04T07:58:34Z</time>
      </trkpt>
      <trkpt lat="38.891560" lon="-0.669851">
        <ele>697.676</ele>
        <time>2015-07-04T07:58:37Z</time>
      </trkpt>
      <trkpt lat="38.891506" lon="-0.669850">
        <ele>696.686</ele>
        <time>2015-07-04T07:58:40Z</time>
      </trkpt>
      <trkpt lat="38.891399" lon="-0.669851">
        <ele>694.757</ele>
        <time>2015-07-04T07:58:48Z</time>
      </trkpt>
      <trkpt lat="38.891357" lon="-0.669918">
        <ele>693.370</ele>
        <time>2015-07-04T07:58:53Z</time>
      </trkpt>
      <trkpt lat="38.891380" lon="-0.669968">
        <ele>692.351</ele>
        <time>2015-07-04T07:58:55Z</time>
      </trkpt>
      <trkpt lat="38.891293" lon="-0.670080">
        <ele>690.418</ele>
        <time>2015-07-04T07:59:00Z</time>
      </trkpt>
      <trkpt lat="38.891197" lon="-0.670148">
        <ele>688.096</ele>
        <time>2015-07-04T07:59:04Z</time>
      </trkpt>
      <trkpt lat="38.891037" lon="-0.670202">
        <ele>686.510</ele>
        <time>2015-07-04T07:59:09Z</time>
      </trkpt>
      <trkpt lat="38.890965" lon="-0.670259">
        <ele>685.693</ele>
        <time>2015-07-04T07:59:12Z</time>
      </trkpt>
      <trkpt lat="38.890835" lon="-0.670624">
        <ele>681.265</ele>
        <time>2015-07-04T07:59:21Z</time>
      </trkpt>
      <trkpt lat="38.890785" lon="-0.670707">
        <ele>680.321</ele>
        <time>2015-07-04T07:59:23Z</time>
      </trkpt>
      <trkpt lat="38.890762" lon="-0.670743">
        <ele>679.308</ele>
        <time>2015-07-04T07:59:24Z</time>
      </trkpt>
      <trkpt lat="38.890732" lon="-0.670825">
        <ele>678.860</ele>
        <time>2015-07-04T07:59:26Z</time>
      </trkpt>
      <trkpt lat="38.890717" lon="-0.670869">
        <ele>677.950</ele>
        <time>2015-07-04T07:59:27Z</time>
      </trkpt>
      <trkpt lat="38.890583" lon="-0.671121">
        <ele>676.491</ele>
        <time>2015-07-04T07:59:33Z</time>
      </trkpt>
      <trkpt lat="38.890400" lon="-0.671263">
        <ele>672.614</ele>
        <time>2015-07-04T07:59:39Z</time>
      </trkpt>
      <trkpt lat="38.890350" lon="-0.671289">
        <ele>671.695</ele>
        <time>2015-07-04T07:59:41Z</time>
      </trkpt>
      <trkpt lat="38.890270" lon="-0.671271">
        <ele>668.712</ele>
        <time>2015-07-04T07:59:45Z</time>
      </trkpt>
      <trkpt lat="38.890263" lon="-0.671233">
        <ele>668.390</ele>
        <time>2015-07-04T07:59:46Z</time>
      </trkpt>
      <trkpt lat="38.890255" lon="-0.671143">
        <ele>667.874</ele>
        <time>2015-07-04T07:59:50Z</time>
      </trkpt>
      <trkpt lat="38.890198" lon="-0.671071">
        <ele>665.989</ele>
        <time>2015-07-04T07:59:54Z</time>
      </trkpt>
      <trkpt lat="38.890125" lon="-0.670938">
        <ele>662.506</ele>
        <time>2015-07-04T07:59:59Z</time>
      </trkpt>
      <trkpt lat="38.890034" lon="-0.670779">
        <ele>658.226</ele>
        <time>2015-07-04T08:00:04Z</time>
      </trkpt>
      <trkpt lat="38.889854" lon="-0.670562">
        <ele>653.808</ele>
        <time>2015-07-04T08:00:12Z</time>
      </trkpt>
      <trkpt lat="38.889816" lon="-0.670566">
        <ele>652.959</ele>
        <time>2015-07-04T08:00:13Z</time>
      </trkpt>
      <trkpt lat="38.889633" lon="-0.670578">
        <ele>648.689</ele>
        <time>2015-07-04T08:00:19Z</time>
      </trkpt>
      <trkpt lat="38.889473" lon="-0.670573">
        <ele>645.780</ele>
        <time>2015-07-04T08:00:23Z</time>
      </trkpt>
      <trkpt lat="38.889393" lon="-0.670567">
        <ele>644.753</ele>
        <time>2015-07-04T08:00:25Z</time>
      </trkpt>
      <trkpt lat="38.889256" lon="-0.670652">
        <ele>642.844</ele>
        <time>2015-07-04T08:00:29Z</time>
      </trkpt>
      <trkpt lat="38.889042" lon="-0.670876">
        <ele>641.841</ele>
        <time>2015-07-04T08:00:37Z</time>
      </trkpt>
      <trkpt lat="38.889027" lon="-0.670906">
        <ele>641.339</ele>
        <time>2015-07-04T08:00:38Z</time>
      </trkpt>
      <trkpt lat="38.889000" lon="-0.670990">
        <ele>642.373</ele>
        <time>2015-07-04T08:00:47Z</time>
      </trkpt>
      <trkpt lat="38.888969" lon="-0.671070">
        <ele>644.275</ele>
        <time>2015-07-04T08:00:52Z</time>
      </trkpt>
      <trkpt lat="38.888950" lon="-0.671143">
        <ele>645.228</ele>
        <time>2015-07-04T08:01:04Z</time>
      </trkpt>
      <trkpt lat="38.888939" lon="-0.671218">
        <ele>646.620</ele>
        <time>2015-07-04T08:02:27Z</time>
      </trkpt>
      <trkpt lat="38.888943" lon="-0.671290">
        <ele>647.108</ele>
        <time>2015-07-04T08:02:36Z</time>
      </trkpt>
      <trkpt lat="38.888924" lon="-0.671333">
        <ele>648.198</ele>
        <time>2015-07-04T08:02:39Z</time>
      </trkpt>
      <trkpt lat="38.888729" lon="-0.671465">
        <ele>649.528</ele>
        <time>2015-07-04T08:02:51Z</time>
      </trkpt>
      <trkpt lat="38.888710" lon="-0.671474">
        <ele>649.519</ele>
        <time>2015-07-04T08:02:52Z</time>
      </trkpt>
      <trkpt lat="38.888596" lon="-0.671498">
        <ele>647.622</ele>
        <time>2015-07-04T08:02:57Z</time>
      </trkpt>
      <trkpt lat="38.888451" lon="-0.671537">
        <ele>646.113</ele>
        <time>2015-07-04T08:03:05Z</time>
      </trkpt>
      <trkpt lat="38.888367" lon="-0.671557">
        <ele>643.320</ele>
        <time>2015-07-04T08:03:08Z</time>
      </trkpt>
      <trkpt lat="38.888210" lon="-0.671677">
        <ele>640.988</ele>
        <time>2015-07-04T08:03:13Z</time>
      </trkpt>
      <trkpt lat="38.888157" lon="-0.671730">
        <ele>640.982</ele>
        <time>2015-07-04T08:03:15Z</time>
      </trkpt>
      <trkpt lat="38.887943" lon="-0.672077">
        <ele>638.544</ele>
        <time>2015-07-04T08:03:26Z</time>
      </trkpt>
      <trkpt lat="38.887794" lon="-0.672289">
        <ele>637.005</ele>
        <time>2015-07-04T08:03:33Z</time>
      </trkpt>
      <trkpt lat="38.887535" lon="-0.672438">
        <ele>633.715</ele>
        <time>2015-07-04T08:03:41Z</time>
      </trkpt>
      <trkpt lat="38.887501" lon="-0.672459">
        <ele>633.208</ele>
        <time>2015-07-04T08:03:42Z</time>
      </trkpt>
      <trkpt lat="38.887161" lon="-0.672682">
        <ele>630.315</ele>
        <time>2015-07-04T08:03:52Z</time>
      </trkpt>
      <trkpt lat="38.886791" lon="-0.672903">
        <ele>628.885</ele>
        <time>2015-07-04T08:04:04Z</time>
      </trkpt>
      <trkpt lat="38.886570" lon="-0.672954">
        <ele>625.536</ele>
        <time>2015-07-04T08:04:11Z</time>
      </trkpt>
      <trkpt lat="38.886414" lon="-0.672953">
        <ele>622.129</ele>
        <time>2015-07-04T08:04:15Z</time>
      </trkpt>
      <trkpt lat="38.886208" lon="-0.672922">
        <ele>618.390</ele>
        <time>2015-07-04T08:04:20Z</time>
      </trkpt>
      <trkpt lat="38.886051" lon="-0.672888">
        <ele>614.987</ele>
        <time>2015-07-04T08:04:24Z</time>
      </trkpt>
      <trkpt lat="38.885952" lon="-0.672887">
        <ele>613.565</ele>
        <time>2015-07-04T08:04:27Z</time>
      </trkpt>
      <trkpt lat="38.885757" lon="-0.672969">
        <ele>612.529</ele>
        <time>2015-07-04T08:04:34Z</time>
      </trkpt>
      <trkpt lat="38.885445" lon="-0.673324">
        <ele>612.083</ele>
        <time>2015-07-04T08:04:47Z</time>
      </trkpt>
      <trkpt lat="38.885303" lon="-0.673434">
        <ele>612.025</ele>
        <time>2015-07-04T08:04:52Z</time>
      </trkpt>
      <trkpt lat="38.885025" lon="-0.673534">
        <ele>610.117</ele>
        <time>2015-07-04T08:05:01Z</time>
      </trkpt>
      <trkpt lat="38.884899" lon="-0.673545">
        <ele>606.708</ele>
        <time>2015-07-04T08:05:05Z</time>
      </trkpt>
      <trkpt lat="38.884872" lon="-0.673545">
        <ele>606.749</ele>
        <time>2015-07-04T08:05:06Z</time>
      </trkpt>
      <trkpt lat="38.884739" lon="-0.673527">
        <ele>604.889</ele>
        <time>2015-07-04T08:05:10Z</time>
      </trkpt>
      <trkpt lat="38.884613" lon="-0.673525">
        <ele>603.470</ele>
        <time>2015-07-04T08:05:13Z</time>
      </trkpt>
      <trkpt lat="38.884518" lon="-0.673511">
        <ele>601.993</ele>
        <time>2015-07-04T08:05:16Z</time>
      </trkpt>
      <trkpt lat="38.884449" lon="-0.673540">
        <ele>601.054</ele>
        <time>2015-07-04T08:05:19Z</time>
      </trkpt>
      <trkpt lat="38.884464" lon="-0.673611">
        <ele>603.991</ele>
        <time>2015-07-04T08:05:31Z</time>
      </trkpt>
      <trkpt lat="38.884472" lon="-0.673653">
        <ele>605.899</ele>
        <time>2015-07-04T08:05:39Z</time>
      </trkpt>
      <trkpt lat="38.884529" lon="-0.673674">
        <ele>607.743</ele>
        <time>2015-07-04T08:05:50Z</time>
      </trkpt>
      <trkpt lat="38.884583" lon="-0.673734">
        <ele>609.682</ele>
        <time>2015-07-04T08:05:58Z</time>
      </trkpt>
      <trkpt lat="38.884651" lon="-0.673779">
        <ele>613.043</ele>
        <time>2015-07-04T08:06:09Z</time>
      </trkpt>
      <trkpt lat="38.884693" lon="-0.673823">
        <ele>614.917</ele>
        <time>2015-07-04T08:06:17Z</time>
      </trkpt>
      <trkpt lat="38.884754" lon="-0.673887">
        <ele>617.808</ele>
        <time>2015-07-04T08:06:27Z</time>
      </trkpt>
      <trkpt lat="38.884811" lon="-0.673920">
        <ele>620.739</ele>
        <time>2015-07-04T08:06:36Z</time>
      </trkpt>
      <trkpt lat="38.884861" lon="-0.673981">
        <ele>624.069</ele>
        <time>2015-07-04T08:06:48Z</time>
      </trkpt>
      <trkpt lat="38.884941" lon="-0.674041">
        <ele>626.980</ele>
        <time>2015-07-04T08:07:03Z</time>
      </trkpt>
      <trkpt lat="38.885002" lon="-0.674075">
        <ele>628.883</ele>
        <time>2015-07-04T08:07:13Z</time>
      </trkpt>
      <trkpt lat="38.885048" lon="-0.674082">
        <ele>630.814</ele>
        <time>2015-07-04T08:07:19Z</time>
      </trkpt>
      <trkpt lat="38.885059" lon="-0.674102">
        <ele>631.211</ele>
        <time>2015-07-04T08:07:22Z</time>
      </trkpt>
      <trkpt lat="38.885086" lon="-0.674123">
        <ele>632.759</ele>
        <time>2015-07-04T08:07:25Z</time>
      </trkpt>
      <trkpt lat="38.885124" lon="-0.674166">
        <ele>634.133</ele>
        <time>2015-07-04T08:07:29Z</time>
      </trkpt>
      <trkpt lat="38.885170" lon="-0.674207">
        <ele>637.086</ele>
        <time>2015-07-04T08:07:41Z</time>
      </trkpt>
      <trkpt lat="38.885197" lon="-0.674239">
        <ele>638.060</ele>
        <time>2015-07-04T08:07:48Z</time>
      </trkpt>
      <trkpt lat="38.885242" lon="-0.674311">
        <ele>640.926</ele>
        <time>2015-07-04T08:07:59Z</time>
      </trkpt>
      <trkpt lat="38.885273" lon="-0.674329">
        <ele>641.808</ele>
        <time>2015-07-04T08:08:05Z</time>
      </trkpt>
      <trkpt lat="38.885338" lon="-0.674385">
        <ele>645.289</ele>
        <time>2015-07-04T08:08:17Z</time>
      </trkpt>
      <trkpt lat="38.885372" lon="-0.674408">
        <ele>646.669</ele>
        <time>2015-07-04T08:08:22Z</time>
      </trkpt>
      <trkpt lat="38.885437" lon="-0.674473">
        <ele>650.030</ele>
        <time>2015-07-04T08:08:30Z</time>
      </trkpt>
      <trkpt lat="38.885468" lon="-0.674493">
        <ele>650.513</ele>
        <time>2015-07-04T08:08:37Z</time>
      </trkpt>
      <trkpt lat="38.885536" lon="-0.674546">
        <ele>653.444</ele>
        <time>2015-07-04T08:08:49Z</time>
      </trkpt>
      <trkpt lat="38.885590" lon="-0.674619">
        <ele>655.821</ele>
        <time>2015-07-04T08:08:55Z</time>
      </trkpt>
      <trkpt lat="38.885616" lon="-0.674658">
        <ele>657.249</ele>
        <time>2015-07-04T08:09:01Z</time>
      </trkpt>
      <trkpt lat="38.885792" lon="-0.674578">
        <ele>657.293</ele>
        <time>2015-07-04T08:09:16Z</time>
      </trkpt>
      <trkpt lat="38.885860" lon="-0.674468">
        <ele>656.215</ele>
        <time>2015-07-04T08:09:20Z</time>
      </trkpt>
      <trkpt lat="38.886105" lon="-0.674287">
        <ele>653.465</ele>
        <time>2015-07-04T08:09:28Z</time>
      </trkpt>
      <trkpt lat="38.886360" lon="-0.674126">
        <ele>652.411</ele>
        <time>2015-07-04T08:09:36Z</time>
      </trkpt>
      <trkpt lat="38.886513" lon="-0.674053">
        <ele>653.808</ele>
        <time>2015-07-04T08:09:42Z</time>
      </trkpt>
      <trkpt lat="38.886745" lon="-0.673892">
        <ele>655.832</ele>
        <time>2015-07-04T08:09:52Z</time>
      </trkpt>
      <trkpt lat="38.887005" lon="-0.673631">
        <ele>654.882</ele>
        <time>2015-07-04T08:10:03Z</time>
      </trkpt>
      <trkpt lat="38.887268" lon="-0.673418">
        <ele>655.373</ele>
        <time>2015-07-04T08:10:13Z</time>
      </trkpt>
      <trkpt lat="38.887512" lon="-0.673260">
        <ele>656.766</ele>
        <time>2015-07-04T08:10:23Z</time>
      </trkpt>
      <trkpt lat="38.887630" lon="-0.673173">
        <ele>658.287</ele>
        <time>2015-07-04T08:10:33Z</time>
      </trkpt>
      <trkpt lat="38.887871" lon="-0.673138">
        <ele>656.774</ele>
        <time>2015-07-04T08:10:48Z</time>
      </trkpt>
      <trkpt lat="38.888042" lon="-0.673001">
        <ele>652.972</ele>
        <time>2015-07-04T08:10:55Z</time>
      </trkpt>
      <trkpt lat="38.888142" lon="-0.672861">
        <ele>649.056</ele>
        <time>2015-07-04T08:11:00Z</time>
      </trkpt>
      <trkpt lat="38.888161" lon="-0.672827">
        <ele>649.072</ele>
        <time>2015-07-04T08:11:01Z</time>
      </trkpt>
      <trkpt lat="38.888176" lon="-0.672790">
        <ele>648.113</ele>
        <time>2015-07-04T08:11:02Z</time>
      </trkpt>
      <trkpt lat="38.888252" lon="-0.672722">
        <ele>646.114</ele>
        <time>2015-07-04T08:11:06Z</time>
      </trkpt>
      <trkpt lat="38.888233" lon="-0.672829">
        <ele>646.108</ele>
        <time>2015-07-04T08:11:12Z</time>
      </trkpt>
      <trkpt lat="38.888119" lon="-0.673138">
        <ele>648.638</ele>
        <time>2015-07-04T08:11:26Z</time>
      </trkpt>
      <trkpt lat="38.887959" lon="-0.673431">
        <ele>647.168</ele>
        <time>2015-07-04T08:11:35Z</time>
      </trkpt>
      <trkpt lat="38.887814" lon="-0.673579">
        <ele>643.319</ele>
        <time>2015-07-04T08:11:40Z</time>
      </trkpt>
      <trkpt lat="38.887779" lon="-0.673611">
        <ele>643.382</ele>
        <time>2015-07-04T08:11:41Z</time>
      </trkpt>
      <trkpt lat="38.887657" lon="-0.673715">
        <ele>641.363</ele>
        <time>2015-07-04T08:11:45Z</time>
      </trkpt>
      <trkpt lat="38.887527" lon="-0.673861">
        <ele>639.410</ele>
        <time>2015-07-04T08:11:50Z</time>
      </trkpt>
      <trkpt lat="38.887413" lon="-0.674010">
        <ele>636.528</ele>
        <time>2015-07-04T08:11:54Z</time>
      </trkpt>
      <trkpt lat="38.887226" lon="-0.674356">
        <ele>632.772</ele>
        <time>2015-07-04T08:12:03Z</time>
      </trkpt>
      <trkpt lat="38.887123" lon="-0.674689">
        <ele>629.353</ele>
        <time>2015-07-04T08:12:11Z</time>
      </trkpt>
      <trkpt lat="38.887108" lon="-0.674728">
        <ele>629.304</ele>
        <time>2015-07-04T08:12:12Z</time>
      </trkpt>
      <trkpt lat="38.886986" lon="-0.674912">
        <ele>626.414</ele>
        <time>2015-07-04T08:12:17Z</time>
      </trkpt>
      <trkpt lat="38.886810" lon="-0.675025">
        <ele>623.608</ele>
        <time>2015-07-04T08:12:22Z</time>
      </trkpt>
      <trkpt lat="38.886681" lon="-0.675132">
        <ele>621.656</ele>
        <time>2015-07-04T08:12:26Z</time>
      </trkpt>
      <trkpt lat="38.886597" lon="-0.675244">
        <ele>618.826</ele>
        <time>2015-07-04T08:12:29Z</time>
      </trkpt>
      <trkpt lat="38.886547" lon="-0.675336">
        <ele>617.817</ele>
        <time>2015-07-04T08:12:31Z</time>
      </trkpt>
      <trkpt lat="38.886528" lon="-0.675385">
        <ele>616.810</ele>
        <time>2015-07-04T08:12:32Z</time>
      </trkpt>
      <trkpt lat="38.886497" lon="-0.675481">
        <ele>615.991</ele>
        <time>2015-07-04T08:12:34Z</time>
      </trkpt>
      <trkpt lat="38.886463" lon="-0.675623">
        <ele>614.938</ele>
        <time>2015-07-04T08:12:37Z</time>
      </trkpt>
      <trkpt lat="38.886375" lon="-0.675829">
        <ele>613.086</ele>
        <time>2015-07-04T08:12:42Z</time>
      </trkpt>
      <trkpt lat="38.885998" lon="-0.675937">
        <ele>610.150</ele>
        <time>2015-07-04T08:12:53Z</time>
      </trkpt>
      <trkpt lat="38.885788" lon="-0.676083">
        <ele>607.264</ele>
        <time>2015-07-04T08:13:00Z</time>
      </trkpt>
      <trkpt lat="38.885666" lon="-0.676256">
        <ele>604.306</ele>
        <time>2015-07-04T08:13:05Z</time>
      </trkpt>
      <trkpt lat="38.885529" lon="-0.676407">
        <ele>601.916</ele>
        <time>2015-07-04T08:13:10Z</time>
      </trkpt>
      <trkpt lat="38.885475" lon="-0.676470">
        <ele>601.008</ele>
        <time>2015-07-04T08:13:12Z</time>
      </trkpt>
      <trkpt lat="38.885338" lon="-0.676650">
        <ele>598.657</ele>
        <time>2015-07-04T08:13:17Z</time>
      </trkpt>
      <trkpt lat="38.885239" lon="-0.676863">
        <ele>595.717</ele>
        <time>2015-07-04T08:13:22Z</time>
      </trkpt>
      <trkpt lat="38.885128" lon="-0.677124">
        <ele>593.888</ele>
        <time>2015-07-04T08:13:28Z</time>
      </trkpt>
      <trkpt lat="38.884930" lon="-0.677601">
        <ele>589.951</ele>
        <time>2015-07-04T08:13:40Z</time>
      </trkpt>
      <trkpt lat="38.884903" lon="-0.677645">
        <ele>589.992</ele>
        <time>2015-07-04T08:13:41Z</time>
      </trkpt>
      <trkpt lat="38.884857" lon="-0.677738">
        <ele>588.589</ele>
        <time>2015-07-04T08:13:43Z</time>
      </trkpt>
      <trkpt lat="38.884800" lon="-0.677929">
        <ele>586.147</ele>
        <time>2015-07-04T08:13:47Z</time>
      </trkpt>
      <trkpt lat="38.884762" lon="-0.678265">
        <ele>583.271</ele>
        <time>2015-07-04T08:13:54Z</time>
      </trkpt>
      <trkpt lat="38.884659" lon="-0.678492">
        <ele>580.396</ele>
        <time>2015-07-04T08:13:59Z</time>
      </trkpt>
      <trkpt lat="38.884434" lon="-0.678846">
        <ele>577.431</ele>
        <time>2015-07-04T08:14:09Z</time>
      </trkpt>
      <trkpt lat="38.884220" lon="-0.679086">
        <ele>574.024</ele>
        <time>2015-07-04T08:14:17Z</time>
      </trkpt>
      <trkpt lat="38.884098" lon="-0.679242">
        <ele>572.108</ele>
        <time>2015-07-04T08:14:22Z</time>
      </trkpt>
      <trkpt lat="38.884060" lon="-0.679317">
        <ele>571.230</ele>
        <time>2015-07-04T08:14:24Z</time>
      </trkpt>
      <trkpt lat="38.884037" lon="-0.679351">
        <ele>570.750</ele>
        <time>2015-07-04T08:14:25Z</time>
      </trkpt>
      <trkpt lat="38.883968" lon="-0.679496">
        <ele>568.831</ele>
        <time>2015-07-04T08:14:29Z</time>
      </trkpt>
      <trkpt lat="38.883945" lon="-0.679603">
        <ele>567.384</ele>
        <time>2015-07-04T08:14:32Z</time>
      </trkpt>
      <trkpt lat="38.883881" lon="-0.679748">
        <ele>564.025</ele>
        <time>2015-07-04T08:14:36Z</time>
      </trkpt>
      <trkpt lat="38.883846" lon="-0.679817">
        <ele>563.072</ele>
        <time>2015-07-04T08:14:38Z</time>
      </trkpt>
      <trkpt lat="38.883839" lon="-0.679863">
        <ele>563.050</ele>
        <time>2015-07-04T08:14:39Z</time>
      </trkpt>
      <trkpt lat="38.883652" lon="-0.679950">
        <ele>562.034</ele>
        <time>2015-07-04T08:14:46Z</time>
      </trkpt>
      <trkpt lat="38.883575" lon="-0.679966">
        <ele>562.019</ele>
        <time>2015-07-04T08:14:48Z</time>
      </trkpt>
      <trkpt lat="38.883373" lon="-0.679982">
        <ele>563.509</ele>
        <time>2015-07-04T08:14:55Z</time>
      </trkpt>
      <trkpt lat="38.883003" lon="-0.680013">
        <ele>565.919</ele>
        <time>2015-07-04T08:15:07Z</time>
      </trkpt>
      <trkpt lat="38.882851" lon="-0.680046">
        <ele>566.408</ele>
        <time>2015-07-04T08:15:12Z</time>
      </trkpt>
      <trkpt lat="38.882713" lon="-0.680063">
        <ele>567.372</ele>
        <time>2015-07-04T08:15:17Z</time>
      </trkpt>
      <trkpt lat="38.882629" lon="-0.680088">
        <ele>567.312</ele>
        <time>2015-07-04T08:15:20Z</time>
      </trkpt>
      <trkpt lat="38.882408" lon="-0.680112">
        <ele>567.883</ele>
        <time>2015-07-04T08:15:36Z</time>
      </trkpt>
      <trkpt lat="38.882332" lon="-0.680120">
        <ele>567.816</ele>
        <time>2015-07-04T08:15:42Z</time>
      </trkpt>
      <trkpt lat="38.882267" lon="-0.680141">
        <ele>568.357</ele>
        <time>2015-07-04T08:15:47Z</time>
      </trkpt>
      <trkpt lat="38.882271" lon="-0.680219">
        <ele>564.964</ele>
        <time>2015-07-04T08:15:52Z</time>
      </trkpt>
      <trkpt lat="38.882381" lon="-0.680292">
        <ele>561.142</ele>
        <time>2015-07-04T08:15:59Z</time>
      </trkpt>
      <trkpt lat="38.882416" lon="-0.680308">
        <ele>560.116</ele>
        <time>2015-07-04T08:16:01Z</time>
      </trkpt>
      <trkpt lat="38.882465" lon="-0.680328">
        <ele>558.721</ele>
        <time>2015-07-04T08:16:03Z</time>
      </trkpt>
      <trkpt lat="38.882488" lon="-0.680332">
        <ele>557.741</ele>
        <time>2015-07-04T08:16:04Z</time>
      </trkpt>
      <trkpt lat="38.882557" lon="-0.680417">
        <ele>554.805</ele>
        <time>2015-07-04T08:16:08Z</time>
      </trkpt>
      <trkpt lat="38.882568" lon="-0.680472">
        <ele>553.908</ele>
        <time>2015-07-04T08:16:10Z</time>
      </trkpt>
      <trkpt lat="38.882725" lon="-0.680427">
        <ele>550.543</ele>
        <time>2015-07-04T08:16:17Z</time>
      </trkpt>
      <trkpt lat="38.882755" lon="-0.680415">
        <ele>550.513</ele>
        <time>2015-07-04T08:16:18Z</time>
      </trkpt>
      <trkpt lat="38.882973" lon="-0.680483">
        <ele>546.214</ele>
        <time>2015-07-04T08:16:26Z</time>
      </trkpt>
      <trkpt lat="38.883114" lon="-0.680508">
        <ele>543.397</ele>
        <time>2015-07-04T08:16:31Z</time>
      </trkpt>
      <trkpt lat="38.883163" lon="-0.680535">
        <ele>542.318</ele>
        <time>2015-07-04T08:16:33Z</time>
      </trkpt>
      <trkpt lat="38.883259" lon="-0.680596">
        <ele>540.455</ele>
        <time>2015-07-04T08:16:36Z</time>
      </trkpt>
      <trkpt lat="38.883465" lon="-0.680677">
        <ele>537.553</ele>
        <time>2015-07-04T08:16:42Z</time>
      </trkpt>
      <trkpt lat="38.883617" lon="-0.680680">
        <ele>536.657</ele>
        <time>2015-07-04T08:16:47Z</time>
      </trkpt>
      <trkpt lat="38.883919" lon="-0.680811">
        <ele>532.275</ele>
        <time>2015-07-04T08:16:57Z</time>
      </trkpt>
      <trkpt lat="38.883945" lon="-0.680818">
        <ele>532.228</ele>
        <time>2015-07-04T08:16:58Z</time>
      </trkpt>
      <trkpt lat="38.884155" lon="-0.680776">
        <ele>528.920</ele>
        <time>2015-07-04T08:17:04Z</time>
      </trkpt>
      <trkpt lat="38.884186" lon="-0.680780">
        <ele>528.908</ele>
        <time>2015-07-04T08:17:05Z</time>
      </trkpt>
      <trkpt lat="38.884270" lon="-0.680794">
        <ele>526.048</ele>
        <time>2015-07-04T08:17:08Z</time>
      </trkpt>
      <trkpt lat="38.884300" lon="-0.680800">
        <ele>525.528</ele>
        <time>2015-07-04T08:17:09Z</time>
      </trkpt>
      <trkpt lat="38.884369" lon="-0.680777">
        <ele>523.649</ele>
        <time>2015-07-04T08:17:12Z</time>
      </trkpt>
      <trkpt lat="38.884392" lon="-0.680836">
        <ele>522.632</ele>
        <time>2015-07-04T08:17:16Z</time>
      </trkpt>
      <trkpt lat="38.884335" lon="-0.680942">
        <ele>520.283</ele>
        <time>2015-07-04T08:17:21Z</time>
      </trkpt>
      <trkpt lat="38.884296" lon="-0.680999">
        <ele>518.860</ele>
        <time>2015-07-04T08:17:24Z</time>
      </trkpt>
      <trkpt lat="38.884182" lon="-0.681114">
        <ele>516.998</ele>
        <time>2015-07-04T08:17:28Z</time>
      </trkpt>
      <trkpt lat="38.884220" lon="-0.681166">
        <ele>514.092</ele>
        <time>2015-07-04T08:17:34Z</time>
      </trkpt>
      <trkpt lat="38.884251" lon="-0.681171">
        <ele>513.541</ele>
        <time>2015-07-04T08:17:35Z</time>
      </trkpt>
      <trkpt lat="38.884369" lon="-0.681185">
        <ele>511.181</ele>
        <time>2015-07-04T08:17:39Z</time>
      </trkpt>
      <trkpt lat="38.884579" lon="-0.681168">
        <ele>508.209</ele>
        <time>2015-07-04T08:17:46Z</time>
      </trkpt>
      <trkpt lat="38.884644" lon="-0.681166">
        <ele>507.208</ele>
        <time>2015-07-04T08:17:48Z</time>
      </trkpt>
      <trkpt lat="38.884689" lon="-0.681099">
        <ele>509.245</ele>
        <time>2015-07-04T08:17:52Z</time>
      </trkpt>
      <trkpt lat="38.884739" lon="-0.681053">
        <ele>510.115</ele>
        <time>2015-07-04T08:17:55Z</time>
      </trkpt>
      <trkpt lat="38.884766" lon="-0.681015">
        <ele>511.616</ele>
        <time>2015-07-04T08:17:58Z</time>
      </trkpt>
      <trkpt lat="38.884838" lon="-0.680995">
        <ele>512.099</ele>
        <time>2015-07-04T08:18:06Z</time>
      </trkpt>
      <trkpt lat="38.884991" lon="-0.681004">
        <ele>508.230</ele>
        <time>2015-07-04T08:18:13Z</time>
      </trkpt>
      <trkpt lat="38.885017" lon="-0.681011">
        <ele>507.227</ele>
        <time>2015-07-04T08:18:14Z</time>
      </trkpt>
      <trkpt lat="38.885139" lon="-0.681069">
        <ele>503.975</ele>
        <time>2015-07-04T08:18:19Z</time>
      </trkpt>
      <trkpt lat="38.885201" lon="-0.681144">
        <ele>502.029</ele>
        <time>2015-07-04T08:18:22Z</time>
      </trkpt>
      <trkpt lat="38.885262" lon="-0.681194">
        <ele>499.591</ele>
        <time>2015-07-04T08:18:25Z</time>
      </trkpt>
      <trkpt lat="38.885307" lon="-0.681211">
        <ele>498.681</ele>
        <time>2015-07-04T08:18:27Z</time>
      </trkpt>
      <trkpt lat="38.885475" lon="-0.681298">
        <ele>494.319</ele>
        <time>2015-07-04T08:18:33Z</time>
      </trkpt>
      <trkpt lat="38.885559" lon="-0.681390">
        <ele>490.908</ele>
        <time>2015-07-04T08:18:37Z</time>
      </trkpt>
      <trkpt lat="38.885605" lon="-0.681507">
        <ele>488.570</ele>
        <time>2015-07-04T08:18:40Z</time>
      </trkpt>
      <trkpt lat="38.885712" lon="-0.681672">
        <ele>484.220</ele>
        <time>2015-07-04T08:18:47Z</time>
      </trkpt>
      <trkpt lat="38.885757" lon="-0.681748">
        <ele>483.221</ele>
        <time>2015-07-04T08:18:49Z</time>
      </trkpt>
      <trkpt lat="38.885872" lon="-0.681862">
        <ele>481.354</ele>
        <time>2015-07-04T08:18:52Z</time>
      </trkpt>
      <trkpt lat="38.886036" lon="-0.682020">
        <ele>478.935</ele>
        <time>2015-07-04T08:18:57Z</time>
      </trkpt>
      <trkpt lat="38.886166" lon="-0.682103">
        <ele>477.092</ele>
        <time>2015-07-04T08:19:01Z</time>
      </trkpt>
      <trkpt lat="38.886475" lon="-0.682230">
        <ele>473.630</ele>
        <time>2015-07-04T08:19:10Z</time>
      </trkpt>
      <trkpt lat="38.886566" lon="-0.682161">
        <ele>471.234</ele>
        <time>2015-07-04T08:19:14Z</time>
      </trkpt>
      <trkpt lat="38.886654" lon="-0.682107">
        <ele>469.319</ele>
        <time>2015-07-04T08:19:18Z</time>
      </trkpt>
      <trkpt lat="38.886765" lon="-0.682027">
        <ele>465.909</ele>
        <time>2015-07-04T08:19:23Z</time>
      </trkpt>
      <trkpt lat="38.886822" lon="-0.681966">
        <ele>464.019</ele>
        <time>2015-07-04T08:19:27Z</time>
      </trkpt>
      <trkpt lat="38.886871" lon="-0.681800">
        <ele>459.708</ele>
        <time>2015-07-04T08:19:34Z</time>
      </trkpt>
      <trkpt lat="38.886883" lon="-0.681768">
        <ele>459.792</ele>
        <time>2015-07-04T08:19:35Z</time>
      </trkpt>
      <trkpt lat="38.886852" lon="-0.681608">
        <ele>456.332</ele>
        <time>2015-07-04T08:19:39Z</time>
      </trkpt>
      <trkpt lat="38.886887" lon="-0.681370">
        <ele>452.473</ele>
        <time>2015-07-04T08:19:45Z</time>
      </trkpt>
      <trkpt lat="38.886948" lon="-0.681222">
        <ele>449.676</ele>
        <time>2015-07-04T08:19:50Z</time>
      </trkpt>
      <trkpt lat="38.886978" lon="-0.681126">
        <ele>447.627</ele>
        <time>2015-07-04T08:19:53Z</time>
      </trkpt>
      <trkpt lat="38.887054" lon="-0.680998">
        <ele>445.744</ele>
        <time>2015-07-04T08:19:57Z</time>
      </trkpt>
      <trkpt lat="38.887085" lon="-0.680876">
        <ele>444.352</ele>
        <time>2015-07-04T08:20:00Z</time>
      </trkpt>
      <trkpt lat="38.887177" lon="-0.680691">
        <ele>441.416</ele>
        <time>2015-07-04T08:20:05Z</time>
      </trkpt>
      <trkpt lat="38.887238" lon="-0.680630">
        <ele>439.921</ele>
        <time>2015-07-04T08:20:07Z</time>
      </trkpt>
      <trkpt lat="38.887409" lon="-0.680532">
        <ele>437.541</ele>
        <time>2015-07-04T08:20:12Z</time>
      </trkpt>
      <trkpt lat="38.887520" lon="-0.680488">
        <ele>435.105</ele>
        <time>2015-07-04T08:20:16Z</time>
      </trkpt>
      <trkpt lat="38.887672" lon="-0.680458">
        <ele>432.708</ele>
        <time>2015-07-04T08:20:21Z</time>
      </trkpt>
      <trkpt lat="38.887756" lon="-0.680480">
        <ele>431.323</ele>
        <time>2015-07-04T08:20:24Z</time>
      </trkpt>
      <trkpt lat="38.887856" lon="-0.680581">
        <ele>427.453</ele>
        <time>2015-07-04T08:20:28Z</time>
      </trkpt>
      <trkpt lat="38.887943" lon="-0.680718">
        <ele>423.654</ele>
        <time>2015-07-04T08:20:33Z</time>
      </trkpt>
      <trkpt lat="38.887947" lon="-0.680901">
        <ele>421.287</ele>
        <time>2015-07-04T08:20:38Z</time>
      </trkpt>
      <trkpt lat="38.887871" lon="-0.681107">
        <ele>417.828</ele>
        <time>2015-07-04T08:20:44Z</time>
      </trkpt>
      <trkpt lat="38.887905" lon="-0.681316">
        <ele>414.555</ele>
        <time>2015-07-04T08:20:52Z</time>
      </trkpt>
      <trkpt lat="38.887897" lon="-0.681352">
        <ele>414.033</ele>
        <time>2015-07-04T08:20:53Z</time>
      </trkpt>
      <trkpt lat="38.887859" lon="-0.681638">
        <ele>410.697</ele>
        <time>2015-07-04T08:21:01Z</time>
      </trkpt>
      <trkpt lat="38.887875" lon="-0.681726">
        <ele>409.266</ele>
        <time>2015-07-04T08:21:03Z</time>
      </trkpt>
      <trkpt lat="38.887894" lon="-0.681766">
        <ele>408.229</ele>
        <time>2015-07-04T08:21:05Z</time>
      </trkpt>
      <trkpt lat="38.887947" lon="-0.681714">
        <ele>405.821</ele>
        <time>2015-07-04T08:21:09Z</time>
      </trkpt>
      <trkpt lat="38.887985" lon="-0.681671">
        <ele>402.008</ele>
        <time>2015-07-04T08:21:13Z</time>
      </trkpt>
      <trkpt lat="38.888016" lon="-0.681734">
        <ele>400.127</ele>
        <time>2015-07-04T08:21:18Z</time>
      </trkpt>
      <trkpt lat="38.888027" lon="-0.681783">
        <ele>397.667</ele>
        <time>2015-07-04T08:21:31Z</time>
      </trkpt>
      <trkpt lat="38.888081" lon="-0.681954">
        <ele>393.348</ele>
        <time>2015-07-04T08:21:45Z</time>
      </trkpt>
      <trkpt lat="38.888069" lon="-0.682062">
        <ele>391.921</ele>
        <time>2015-07-04T08:21:48Z</time>
      </trkpt>
      <trkpt lat="38.888077" lon="-0.682169">
        <ele>390.052</ele>
        <time>2015-07-04T08:21:51Z</time>
      </trkpt>
      <trkpt lat="38.888088" lon="-0.682229">
        <ele>388.079</ele>
        <time>2015-07-04T08:21:53Z</time>
      </trkpt>
      <trkpt lat="38.888096" lon="-0.682316">
        <ele>386.117</ele>
        <time>2015-07-04T08:21:56Z</time>
      </trkpt>
      <trkpt lat="38.888161" lon="-0.682480">
        <ele>383.291</ele>
        <time>2015-07-04T08:22:00Z</time>
      </trkpt>
      <trkpt lat="38.888248" lon="-0.682735">
        <ele>378.422</ele>
        <time>2015-07-04T08:22:06Z</time>
      </trkpt>
      <trkpt lat="38.888306" lon="-0.682873">
        <ele>375.162</ele>
        <time>2015-07-04T08:22:10Z</time>
      </trkpt>
      <trkpt lat="38.888363" lon="-0.683041">
        <ele>371.708</ele>
        <time>2015-07-04T08:22:15Z</time>
      </trkpt>
      <trkpt lat="38.888382" lon="-0.683094">
        <ele>370.208</ele>
        <time>2015-07-04T08:22:17Z</time>
      </trkpt>
      <trkpt lat="38.888397" lon="-0.683258">
        <ele>367.423</ele>
        <time>2015-07-04T08:22:22Z</time>
      </trkpt>
      <trkpt lat="38.888424" lon="-0.683440">
        <ele>363.513</ele>
        <time>2015-07-04T08:22:28Z</time>
      </trkpt>
      <trkpt lat="38.888416" lon="-0.683465">
        <ele>362.654</ele>
        <time>2015-07-04T08:22:29Z</time>
      </trkpt>
      <trkpt lat="38.888405" lon="-0.683536">
        <ele>362.167</ele>
        <time>2015-07-04T08:22:34Z</time>
      </trkpt>
      <trkpt lat="38.888496" lon="-0.683597">
        <ele>360.618</ele>
        <time>2015-07-04T08:22:38Z</time>
      </trkpt>
      <trkpt lat="38.888573" lon="-0.683626">
        <ele>357.895</ele>
        <time>2015-07-04T08:22:42Z</time>
      </trkpt>
      <trkpt lat="38.888611" lon="-0.683757">
        <ele>354.943</ele>
        <time>2015-07-04T08:22:47Z</time>
      </trkpt>
      <trkpt lat="38.888622" lon="-0.683799">
        <ele>354.937</ele>
        <time>2015-07-04T08:22:50Z</time>
      </trkpt>
      <trkpt lat="38.888580" lon="-0.683868">
        <ele>355.853</ele>
        <time>2015-07-04T08:24:43Z</time>
      </trkpt>
      <trkpt lat="38.888645" lon="-0.683966">
        <ele>358.704</ele>
        <time>2015-07-04T08:26:44Z</time>
      </trkpt>
      <trkpt lat="38.888664" lon="-0.683971">
        <ele>358.714</ele>
        <time>2015-07-04T08:26:47Z</time>
      </trkpt>
      <trkpt lat="38.888691" lon="-0.683994">
        <ele>358.208</ele>
        <time>2015-07-04T08:26:53Z</time>
      </trkpt>
      <trkpt lat="38.888771" lon="-0.683856">
        <ele>354.986</ele>
        <time>2015-07-04T08:27:01Z</time>
      </trkpt>
      <trkpt lat="38.888824" lon="-0.683784">
        <ele>353.996</ele>
        <time>2015-07-04T08:27:04Z</time>
      </trkpt>
      <trkpt lat="38.888947" lon="-0.683816">
        <ele>352.917</ele>
        <time>2015-07-04T08:27:08Z</time>
      </trkpt>
      <trkpt lat="38.889000" lon="-0.683844">
        <ele>352.090</ele>
        <time>2015-07-04T08:27:10Z</time>
      </trkpt>
      <trkpt lat="38.889095" lon="-0.683935">
        <ele>348.661</ele>
        <time>2015-07-04T08:27:15Z</time>
      </trkpt>
      <trkpt lat="38.889256" lon="-0.684057">
        <ele>346.718</ele>
        <time>2015-07-04T08:27:21Z</time>
      </trkpt>
      <trkpt lat="38.889309" lon="-0.684130">
        <ele>345.726</ele>
        <time>2015-07-04T08:27:24Z</time>
      </trkpt>
      <trkpt lat="38.889374" lon="-0.684228">
        <ele>345.330</ele>
        <time>2015-07-04T08:27:28Z</time>
      </trkpt>
      <trkpt lat="38.889408" lon="-0.684294">
        <ele>343.841</ele>
        <time>2015-07-04T08:27:30Z</time>
      </trkpt>
      <trkpt lat="38.889454" lon="-0.684436">
        <ele>341.981</ele>
        <time>2015-07-04T08:27:34Z</time>
      </trkpt>
      <trkpt lat="38.889503" lon="-0.684570">
        <ele>340.409</ele>
        <time>2015-07-04T08:27:39Z</time>
      </trkpt>
      <trkpt lat="38.889530" lon="-0.684633">
        <ele>340.408</ele>
        <time>2015-07-04T08:27:41Z</time>
      </trkpt>
      <trkpt lat="38.889866" lon="-0.684680">
        <ele>339.575</ele>
        <time>2015-07-04T08:27:50Z</time>
      </trkpt>
      <trkpt lat="38.889896" lon="-0.684683">
        <ele>339.565</ele>
        <time>2015-07-04T08:27:51Z</time>
      </trkpt>
      <trkpt lat="38.890026" lon="-0.684685">
        <ele>338.016</ele>
        <time>2015-07-04T08:27:55Z</time>
      </trkpt>
      <trkpt lat="38.890095" lon="-0.684710">
        <ele>336.679</ele>
        <time>2015-07-04T08:27:57Z</time>
      </trkpt>
      <trkpt lat="38.890228" lon="-0.684983">
        <ele>332.820</ele>
        <time>2015-07-04T08:28:04Z</time>
      </trkpt>
      <trkpt lat="38.890247" lon="-0.685024">
        <ele>332.877</ele>
        <time>2015-07-04T08:28:05Z</time>
      </trkpt>
      <trkpt lat="38.890335" lon="-0.685202">
        <ele>330.415</ele>
        <time>2015-07-04T08:28:10Z</time>
      </trkpt>
      <trkpt lat="38.890457" lon="-0.685359">
        <ele>327.519</ele>
        <time>2015-07-04T08:28:16Z</time>
      </trkpt>
      <trkpt lat="38.890480" lon="-0.685411">
        <ele>326.055</ele>
        <time>2015-07-04T08:28:18Z</time>
      </trkpt>
      <trkpt lat="38.890491" lon="-0.685464">
        <ele>325.507</ele>
        <time>2015-07-04T08:28:20Z</time>
      </trkpt>
      <trkpt lat="38.890491" lon="-0.685492">
        <ele>324.617</ele>
        <time>2015-07-04T08:28:21Z</time>
      </trkpt>
      <trkpt lat="38.890476" lon="-0.685527">
        <ele>323.608</ele>
        <time>2015-07-04T08:28:24Z</time>
      </trkpt>
      <trkpt lat="38.890522" lon="-0.685620">
        <ele>322.756</ele>
        <time>2015-07-04T08:28:30Z</time>
      </trkpt>
      <trkpt lat="38.890598" lon="-0.685664">
        <ele>320.726</ele>
        <time>2015-07-04T08:28:35Z</time>
      </trkpt>
      <trkpt lat="38.890617" lon="-0.685678">
        <ele>320.327</ele>
        <time>2015-07-04T08:28:36Z</time>
      </trkpt>
      <trkpt lat="38.890690" lon="-0.685751">
        <ele>319.350</ele>
        <time>2015-07-04T08:28:39Z</time>
      </trkpt>
      <trkpt lat="38.890831" lon="-0.685868">
        <ele>317.471</ele>
        <time>2015-07-04T08:28:44Z</time>
      </trkpt>
      <trkpt lat="38.890850" lon="-0.686257">
        <ele>315.978</ele>
        <time>2015-07-04T08:28:55Z</time>
      </trkpt>
      <trkpt lat="38.890804" lon="-0.686430">
        <ele>316.996</ele>
        <time>2015-07-04T08:29:03Z</time>
      </trkpt>
      <trkpt lat="38.890781" lon="-0.686537">
        <ele>317.930</ele>
        <time>2015-07-04T08:29:13Z</time>
      </trkpt>
      <trkpt lat="38.890785" lon="-0.686612">
        <ele>320.728</ele>
        <time>2015-07-04T08:29:21Z</time>
      </trkpt>
      <trkpt lat="38.890839" lon="-0.686631">
        <ele>323.189</ele>
        <time>2015-07-04T08:29:30Z</time>
      </trkpt>
      <trkpt lat="38.890991" lon="-0.686800">
        <ele>324.617</ele>
        <time>2015-07-04T08:29:39Z</time>
      </trkpt>
      <trkpt lat="38.891010" lon="-0.686815">
        <ele>324.608</ele>
        <time>2015-07-04T08:29:40Z</time>
      </trkpt>
      <trkpt lat="38.891251" lon="-0.686982">
        <ele>326.033</ele>
        <time>2015-07-04T08:29:51Z</time>
      </trkpt>
      <trkpt lat="38.891262" lon="-0.687008">
        <ele>325.563</ele>
        <time>2015-07-04T08:29:53Z</time>
      </trkpt>
      <trkpt lat="38.891136" lon="-0.687072">
        <ele>326.514</ele>
        <time>2015-07-04T08:30:03Z</time>
      </trkpt>
      <trkpt lat="38.890961" lon="-0.687105">
        <ele>327.567</ele>
        <time>2015-07-04T08:30:17Z</time>
      </trkpt>
      <trkpt lat="38.890789" lon="-0.687141">
        <ele>330.878</ele>
        <time>2015-07-04T08:30:27Z</time>
      </trkpt>
      <trkpt lat="38.890762" lon="-0.687149">
        <ele>331.335</ele>
        <time>2015-07-04T08:30:29Z</time>
      </trkpt>
      <trkpt lat="38.890678" lon="-0.687186">
        <ele>332.843</ele>
        <time>2015-07-04T08:30:36Z</time>
      </trkpt>
      <trkpt lat="38.890659" lon="-0.687199">
        <ele>333.267</ele>
        <time>2015-07-04T08:30:38Z</time>
      </trkpt>
      <trkpt lat="38.890549" lon="-0.687279">
        <ele>335.689</ele>
        <time>2015-07-04T08:30:51Z</time>
      </trkpt>
      <trkpt lat="38.890514" lon="-0.687288">
        <ele>337.106</ele>
        <time>2015-07-04T08:30:55Z</time>
      </trkpt>
      <trkpt lat="38.890495" lon="-0.687284">
        <ele>337.126</ele>
        <time>2015-07-04T08:30:57Z</time>
      </trkpt>
      <trkpt lat="38.890408" lon="-0.687317">
        <ele>339.508</ele>
        <time>2015-07-04T08:31:07Z</time>
      </trkpt>
      <trkpt lat="38.890366" lon="-0.687338">
        <ele>340.949</ele>
        <time>2015-07-04T08:31:10Z</time>
      </trkpt>
      <trkpt lat="38.890324" lon="-0.687378">
        <ele>341.989</ele>
        <time>2015-07-04T08:31:14Z</time>
      </trkpt>
      <trkpt lat="38.890259" lon="-0.687429">
        <ele>343.360</ele>
        <time>2015-07-04T08:31:22Z</time>
      </trkpt>
      <trkpt lat="38.890194" lon="-0.687411">
        <ele>343.323</ele>
        <time>2015-07-04T08:31:27Z</time>
      </trkpt>
      <trkpt lat="38.890076" lon="-0.687434">
        <ele>344.864</ele>
        <time>2015-07-04T08:31:36Z</time>
      </trkpt>
      <trkpt lat="38.889969" lon="-0.687416">
        <ele>341.971</ele>
        <time>2015-07-04T08:31:42Z</time>
      </trkpt>
      <trkpt lat="38.889771" lon="-0.687408">
        <ele>344.819</ele>
        <time>2015-07-04T08:31:49Z</time>
      </trkpt>
      <trkpt lat="38.889610" lon="-0.687382">
        <ele>346.233</ele>
        <time>2015-07-04T08:31:58Z</time>
      </trkpt>
      <trkpt lat="38.889565" lon="-0.687355">
        <ele>347.781</ele>
        <time>2015-07-04T08:32:02Z</time>
      </trkpt>
      <trkpt lat="38.889481" lon="-0.687328">
        <ele>349.161</ele>
        <time>2015-07-04T08:32:10Z</time>
      </trkpt>
      <trkpt lat="38.889435" lon="-0.687294">
        <ele>350.117</ele>
        <time>2015-07-04T08:32:14Z</time>
      </trkpt>
      <trkpt lat="38.889378" lon="-0.687250">
        <ele>350.108</ele>
        <time>2015-07-04T08:32:20Z</time>
      </trkpt>
      <trkpt lat="38.889313" lon="-0.687214">
        <ele>350.139</ele>
        <time>2015-07-04T08:32:26Z</time>
      </trkpt>
      <trkpt lat="38.889191" lon="-0.687139">
        <ele>350.549</ele>
        <time>2015-07-04T08:32:33Z</time>
      </trkpt>
      <trkpt lat="38.888954" lon="-0.686969">
        <ele>349.150</ele>
        <time>2015-07-04T08:32:44Z</time>
      </trkpt>
      <trkpt lat="38.888725" lon="-0.686808">
        <ele>348.113</ele>
        <time>2015-07-04T08:32:52Z</time>
      </trkpt>
      <trkpt lat="38.888653" lon="-0.686784">
        <ele>348.134</ele>
        <time>2015-07-04T08:32:54Z</time>
      </trkpt>
      <trkpt lat="38.888412" lon="-0.686671">
        <ele>348.671</ele>
        <time>2015-07-04T08:33:01Z</time>
      </trkpt>
      <trkpt lat="38.888302" lon="-0.686654">
        <ele>349.139</ele>
        <time>2015-07-04T08:33:05Z</time>
      </trkpt>
      <trkpt lat="38.888149" lon="-0.686581">
        <ele>349.173</ele>
        <time>2015-07-04T08:33:12Z</time>
      </trkpt>
      <trkpt lat="38.888023" lon="-0.686536">
        <ele>348.623</ele>
        <time>2015-07-04T08:33:24Z</time>
      </trkpt>
      <trkpt lat="38.887989" lon="-0.686525">
        <ele>349.183</ele>
        <time>2015-07-04T08:33:42Z</time>
      </trkpt>
      <trkpt lat="38.887970" lon="-0.686518">
        <ele>349.111</ele>
        <time>2015-07-04T08:34:15Z</time>
      </trkpt>
      <trkpt lat="38.887947" lon="-0.686515">
        <ele>349.108</ele>
        <time>2015-07-04T08:34:18Z</time>
      </trkpt>
      <trkpt lat="38.887707" lon="-0.686477">
        <ele>350.583</ele>
        <time>2015-07-04T08:34:29Z</time>
      </trkpt>
      <trkpt lat="38.887440" lon="-0.686421">
        <ele>351.053</ele>
        <time>2015-07-04T08:34:38Z</time>
      </trkpt>
      <trkpt lat="38.887241" lon="-0.686223">
        <ele>350.114</ele>
        <time>2015-07-04T08:34:45Z</time>
      </trkpt>
      <trkpt lat="38.886745" lon="-0.686011">
        <ele>349.117</ele>
        <time>2015-07-04T08:34:58Z</time>
      </trkpt>
      <trkpt lat="38.886700" lon="-0.685990">
        <ele>349.188</ele>
        <time>2015-07-04T08:35:00Z</time>
      </trkpt>
      <trkpt lat="38.886555" lon="-0.685938">
        <ele>347.725</ele>
        <time>2015-07-04T08:35:05Z</time>
      </trkpt>
      <trkpt lat="38.886478" lon="-0.685951">
        <ele>347.213</ele>
        <time>2015-07-04T08:35:07Z</time>
      </trkpt>
      <trkpt lat="38.886436" lon="-0.685971">
        <ele>347.267</ele>
        <time>2015-07-04T08:35:11Z</time>
      </trkpt>
      <trkpt lat="38.886375" lon="-0.686108">
        <ele>347.251</ele>
        <time>2015-07-04T08:35:17Z</time>
      </trkpt>
      <trkpt lat="38.886261" lon="-0.686139">
        <ele>348.101</ele>
        <time>2015-07-04T08:35:22Z</time>
      </trkpt>
      <trkpt lat="38.886166" lon="-0.686118">
        <ele>349.111</ele>
        <time>2015-07-04T08:35:29Z</time>
      </trkpt>
      <trkpt lat="38.886124" lon="-0.686073">
        <ele>348.108</ele>
        <time>2015-07-04T08:35:33Z</time>
      </trkpt>
      <trkpt lat="38.886097" lon="-0.686022">
        <ele>349.136</ele>
        <time>2015-07-04T08:35:37Z</time>
      </trkpt>
      <trkpt lat="38.886086" lon="-0.685979">
        <ele>351.086</ele>
        <time>2015-07-04T08:35:43Z</time>
      </trkpt>
      <trkpt lat="38.886112" lon="-0.685923">
        <ele>353.497</ele>
        <time>2015-07-04T08:35:52Z</time>
      </trkpt>
      <trkpt lat="38.886127" lon="-0.685887">
        <ele>355.860</ele>
        <time>2015-07-04T08:35:57Z</time>
      </trkpt>
      <trkpt lat="38.886127" lon="-0.685837">
        <ele>358.731</ele>
        <time>2015-07-04T08:36:05Z</time>
      </trkpt>
      <trkpt lat="38.886108" lon="-0.685777">
        <ele>361.178</ele>
        <time>2015-07-04T08:36:12Z</time>
      </trkpt>
      <trkpt lat="38.886078" lon="-0.685724">
        <ele>363.046</ele>
        <time>2015-07-04T08:36:18Z</time>
      </trkpt>
      <trkpt lat="38.886059" lon="-0.685704">
        <ele>364.520</ele>
        <time>2015-07-04T08:36:24Z</time>
      </trkpt>
      <trkpt lat="38.886070" lon="-0.685656">
        <ele>366.942</ele>
        <time>2015-07-04T08:36:37Z</time>
      </trkpt>
      <trkpt lat="38.886032" lon="-0.685576">
        <ele>369.322</ele>
        <time>2015-07-04T08:36:45Z</time>
      </trkpt>
      <trkpt lat="38.886055" lon="-0.685525">
        <ele>370.214</ele>
        <time>2015-07-04T08:36:48Z</time>
      </trkpt>
      <trkpt lat="38.886051" lon="-0.685501">
        <ele>370.708</ele>
        <time>2015-07-04T08:36:50Z</time>
      </trkpt>
      <trkpt lat="38.886063" lon="-0.685427">
        <ele>372.755</ele>
        <time>2015-07-04T08:37:00Z</time>
      </trkpt>
      <trkpt lat="38.886063" lon="-0.685313">
        <ele>375.515</ele>
        <time>2015-07-04T08:37:12Z</time>
      </trkpt>
      <trkpt lat="38.886047" lon="-0.685197">
        <ele>377.046</ele>
        <time>2015-07-04T08:37:20Z</time>
      </trkpt>
      <trkpt lat="38.886097" lon="-0.685120">
        <ele>380.389</ele>
        <time>2015-07-04T08:37:33Z</time>
      </trkpt>
      <trkpt lat="38.886131" lon="-0.685076">
        <ele>381.870</ele>
        <time>2015-07-04T08:37:42Z</time>
      </trkpt>
      <trkpt lat="38.886116" lon="-0.685030">
        <ele>382.797</ele>
        <time>2015-07-04T08:37:45Z</time>
      </trkpt>
      <trkpt lat="38.886124" lon="-0.684997">
        <ele>383.215</ele>
        <time>2015-07-04T08:37:47Z</time>
      </trkpt>
      <trkpt lat="38.886150" lon="-0.684900">
        <ele>386.129</ele>
        <time>2015-07-04T08:37:58Z</time>
      </trkpt>
      <trkpt lat="38.886162" lon="-0.684879">
        <ele>387.611</ele>
        <time>2015-07-04T08:38:01Z</time>
      </trkpt>
      <trkpt lat="38.886169" lon="-0.684799">
        <ele>388.521</ele>
        <time>2015-07-04T08:38:07Z</time>
      </trkpt>
      <trkpt lat="38.886177" lon="-0.684776">
        <ele>389.503</ele>
        <time>2015-07-04T08:38:09Z</time>
      </trkpt>
      <trkpt lat="38.886185" lon="-0.684684">
        <ele>392.408</ele>
        <time>2015-07-04T08:38:19Z</time>
      </trkpt>
      <trkpt lat="38.886192" lon="-0.684620">
        <ele>392.852</ele>
        <time>2015-07-04T08:38:30Z</time>
      </trkpt>
      <trkpt lat="38.886192" lon="-0.684549">
        <ele>395.782</ele>
        <time>2015-07-04T08:38:39Z</time>
      </trkpt>
      <trkpt lat="38.886177" lon="-0.684495">
        <ele>396.283</ele>
        <time>2015-07-04T08:38:43Z</time>
      </trkpt>
      <trkpt lat="38.886166" lon="-0.684457">
        <ele>397.616</ele>
        <time>2015-07-04T08:38:46Z</time>
      </trkpt>
      <trkpt lat="38.886196" lon="-0.684398">
        <ele>399.117</ele>
        <time>2015-07-04T08:38:51Z</time>
      </trkpt>
      <trkpt lat="38.886223" lon="-0.684396">
        <ele>400.584</ele>
        <time>2015-07-04T08:39:04Z</time>
      </trkpt>
      <trkpt lat="38.886238" lon="-0.684282">
        <ele>403.432</ele>
        <time>2015-07-04T08:39:17Z</time>
      </trkpt>
      <trkpt lat="38.886253" lon="-0.684151">
        <ele>405.366</ele>
        <time>2015-07-04T08:39:27Z</time>
      </trkpt>
      <trkpt lat="38.886276" lon="-0.684108">
        <ele>406.383</ele>
        <time>2015-07-04T08:39:30Z</time>
      </trkpt>
      <trkpt lat="38.886299" lon="-0.684052">
        <ele>407.725</ele>
        <time>2015-07-04T08:39:34Z</time>
      </trkpt>
      <trkpt lat="38.886284" lon="-0.684009">
        <ele>408.217</ele>
        <time>2015-07-04T08:39:37Z</time>
      </trkpt>
      <trkpt lat="38.886284" lon="-0.683913">
        <ele>409.208</ele>
        <time>2015-07-04T08:39:43Z</time>
      </trkpt>
      <trkpt lat="38.886269" lon="-0.683868">
        <ele>409.739</ele>
        <time>2015-07-04T08:39:47Z</time>
      </trkpt>
      <trkpt lat="38.886204" lon="-0.683800">
        <ele>412.159</ele>
        <time>2015-07-04T08:39:53Z</time>
      </trkpt>
      <trkpt lat="38.886116" lon="-0.683797">
        <ele>412.190</ele>
        <time>2015-07-04T08:40:02Z</time>
      </trkpt>
      <trkpt lat="38.885948" lon="-0.683745">
        <ele>411.163</ele>
        <time>2015-07-04T08:40:10Z</time>
      </trkpt>
      <trkpt lat="38.885899" lon="-0.683728">
        <ele>408.744</ele>
        <time>2015-07-04T08:40:14Z</time>
      </trkpt>
      <trkpt lat="38.885864" lon="-0.683668">
        <ele>407.341</ele>
        <time>2015-07-04T08:40:19Z</time>
      </trkpt>
      <trkpt lat="38.885769" lon="-0.683684">
        <ele>402.919</ele>
        <time>2015-07-04T08:40:25Z</time>
      </trkpt>
      <trkpt lat="38.885735" lon="-0.683781">
        <ele>396.713</ele>
        <time>2015-07-04T08:40:37Z</time>
      </trkpt>
      <trkpt lat="38.885712" lon="-0.683834">
        <ele>392.883</ele>
        <time>2015-07-04T08:40:40Z</time>
      </trkpt>
      <trkpt lat="38.885685" lon="-0.683879">
        <ele>390.425</ele>
        <time>2015-07-04T08:40:43Z</time>
      </trkpt>
      <trkpt lat="38.885635" lon="-0.683937">
        <ele>386.617</ele>
        <time>2015-07-04T08:40:48Z</time>
      </trkpt>
      <trkpt lat="38.885658" lon="-0.683950">
        <ele>386.608</ele>
        <time>2015-07-04T08:40:58Z</time>
      </trkpt>
      <trkpt lat="38.885685" lon="-0.683989">
        <ele>385.639</ele>
        <time>2015-07-04T08:41:01Z</time>
      </trkpt>
      <trkpt lat="38.885647" lon="-0.684100">
        <ele>383.279</ele>
        <time>2015-07-04T08:41:05Z</time>
      </trkpt>
      <trkpt lat="38.885639" lon="-0.684140">
        <ele>382.740</ele>
        <time>2015-07-04T08:41:07Z</time>
      </trkpt>
      <trkpt lat="38.885693" lon="-0.684299">
        <ele>379.943</ele>
        <time>2015-07-04T08:41:19Z</time>
      </trkpt>
      <trkpt lat="38.885681" lon="-0.684327">
        <ele>376.544</ele>
        <time>2015-07-04T08:41:24Z</time>
      </trkpt>
      <trkpt lat="38.885654" lon="-0.684332">
        <ele>374.681</ele>
        <time>2015-07-04T08:41:27Z</time>
      </trkpt>
      <trkpt lat="38.885647" lon="-0.684361">
        <ele>370.239</ele>
        <time>2015-07-04T08:41:30Z</time>
      </trkpt>
      <trkpt lat="38.885639" lon="-0.684385">
        <ele>368.333</ele>
        <time>2015-07-04T08:41:32Z</time>
      </trkpt>
      <trkpt lat="38.885654" lon="-0.684483">
        <ele>366.951</ele>
        <time>2015-07-04T08:41:36Z</time>
      </trkpt>
      <trkpt lat="38.885662" lon="-0.684588">
        <ele>365.001</ele>
        <time>2015-07-04T08:41:41Z</time>
      </trkpt>
      <trkpt lat="38.885643" lon="-0.684658">
        <ele>362.111</ele>
        <time>2015-07-04T08:43:05Z</time>
      </trkpt>
      <trkpt lat="38.885624" lon="-0.684769">
        <ele>361.108</ele>
        <time>2015-07-04T08:43:12Z</time>
      </trkpt>
      <trkpt lat="38.885612" lon="-0.684810">
        <ele>361.116</ele>
        <time>2015-07-04T08:43:14Z</time>
      </trkpt>
      <trkpt lat="38.885544" lon="-0.685022">
        <ele>361.666</ele>
        <time>2015-07-04T08:43:21Z</time>
      </trkpt>
      <trkpt lat="38.885532" lon="-0.685080">
        <ele>362.117</ele>
        <time>2015-07-04T08:43:23Z</time>
      </trkpt>
      <trkpt lat="38.885380" lon="-0.685322">
        <ele>364.530</ele>
        <time>2015-07-04T08:43:34Z</time>
      </trkpt>
      <trkpt lat="38.885315" lon="-0.685344">
        <ele>363.021</ele>
        <time>2015-07-04T08:43:42Z</time>
      </trkpt>
      <trkpt lat="38.885262" lon="-0.685411">
        <ele>364.048</ele>
        <time>2015-07-04T08:43:49Z</time>
      </trkpt>
      <trkpt lat="38.885296" lon="-0.685492">
        <ele>365.426</ele>
        <time>2015-07-04T08:43:55Z</time>
      </trkpt>
      <trkpt lat="38.885368" lon="-0.685569">
        <ele>366.950</ele>
        <time>2015-07-04T08:44:01Z</time>
      </trkpt>
      <trkpt lat="38.885357" lon="-0.685593">
        <ele>367.466</ele>
        <time>2015-07-04T08:44:04Z</time>
      </trkpt>
      <trkpt lat="38.885239" lon="-0.685640">
        <ele>369.829</ele>
        <time>2015-07-04T08:44:15Z</time>
      </trkpt>
      <trkpt lat="38.885197" lon="-0.685643">
        <ele>370.721</ele>
        <time>2015-07-04T08:44:20Z</time>
      </trkpt>
      <trkpt lat="38.885166" lon="-0.685638">
        <ele>370.708</ele>
        <time>2015-07-04T08:44:23Z</time>
      </trkpt>
      <trkpt lat="38.885109" lon="-0.685672">
        <ele>374.167</ele>
        <time>2015-07-04T08:44:30Z</time>
      </trkpt>
      <trkpt lat="38.885010" lon="-0.685681">
        <ele>376.597</ele>
        <time>2015-07-04T08:44:42Z</time>
      </trkpt>
      <trkpt lat="38.884983" lon="-0.685685">
        <ele>377.958</ele>
        <time>2015-07-04T08:44:51Z</time>
      </trkpt>
      <trkpt lat="38.884907" lon="-0.685733">
        <ele>380.821</ele>
        <time>2015-07-04T08:45:01Z</time>
      </trkpt>
      <trkpt lat="38.884865" lon="-0.685728">
        <ele>381.882</ele>
        <time>2015-07-04T08:45:12Z</time>
      </trkpt>
      <trkpt lat="38.884804" lon="-0.685743">
        <ele>384.249</ele>
        <time>2015-07-04T08:45:23Z</time>
      </trkpt>
      <trkpt lat="38.884800" lon="-0.685769">
        <ele>385.667</ele>
        <time>2015-07-04T08:45:28Z</time>
      </trkpt>
      <trkpt lat="38.884830" lon="-0.685852">
        <ele>388.041</ele>
        <time>2015-07-04T08:45:41Z</time>
      </trkpt>
      <trkpt lat="38.884857" lon="-0.685881">
        <ele>389.078</ele>
        <time>2015-07-04T08:45:45Z</time>
      </trkpt>
      <trkpt lat="38.884945" lon="-0.685979">
        <ele>391.433</ele>
        <time>2015-07-04T08:45:56Z</time>
      </trkpt>
      <trkpt lat="38.884945" lon="-0.686006">
        <ele>391.926</ele>
        <time>2015-07-04T08:45:58Z</time>
      </trkpt>
      <trkpt lat="38.884880" lon="-0.686036">
        <ele>392.808</ele>
        <time>2015-07-04T08:46:06Z</time>
      </trkpt>
      <trkpt lat="38.884769" lon="-0.686044">
        <ele>394.818</ele>
        <time>2015-07-04T08:46:17Z</time>
      </trkpt>
      <trkpt lat="38.884647" lon="-0.686062">
        <ele>397.668</ele>
        <time>2015-07-04T08:46:27Z</time>
      </trkpt>
      <trkpt lat="38.884624" lon="-0.686064">
        <ele>398.139</ele>
        <time>2015-07-04T08:46:31Z</time>
      </trkpt>
      <trkpt lat="38.884541" lon="-0.686065">
        <ele>399.692</ele>
        <time>2015-07-04T08:46:42Z</time>
      </trkpt>
      <trkpt lat="38.884502" lon="-0.686114">
        <ele>401.553</ele>
        <time>2015-07-04T08:46:49Z</time>
      </trkpt>
      <trkpt lat="38.884506" lon="-0.686139">
        <ele>402.060</ele>
        <time>2015-07-04T08:46:51Z</time>
      </trkpt>
      <trkpt lat="38.884483" lon="-0.686202">
        <ele>403.958</ele>
        <time>2015-07-04T08:46:58Z</time>
      </trkpt>
      <trkpt lat="38.884502" lon="-0.686227">
        <ele>405.872</ele>
        <time>2015-07-04T08:47:17Z</time>
      </trkpt>
      <trkpt lat="38.884525" lon="-0.686254">
        <ele>406.815</ele>
        <time>2015-07-04T08:47:20Z</time>
      </trkpt>
      <trkpt lat="38.884491" lon="-0.686296">
        <ele>407.765</ele>
        <time>2015-07-04T08:47:24Z</time>
      </trkpt>
      <trkpt lat="38.884453" lon="-0.686343">
        <ele>409.211</ele>
        <time>2015-07-04T08:47:30Z</time>
      </trkpt>
      <trkpt lat="38.884418" lon="-0.686342">
        <ele>409.708</ele>
        <time>2015-07-04T08:47:33Z</time>
      </trkpt>
      <trkpt lat="38.884399" lon="-0.686345">
        <ele>409.742</ele>
        <time>2015-07-04T08:47:35Z</time>
      </trkpt>
      <trkpt lat="38.884327" lon="-0.686404">
        <ele>411.682</ele>
        <time>2015-07-04T08:47:41Z</time>
      </trkpt>
      <trkpt lat="38.884243" lon="-0.686456">
        <ele>415.063</ele>
        <time>2015-07-04T08:47:53Z</time>
      </trkpt>
      <trkpt lat="38.884193" lon="-0.686421">
        <ele>416.476</ele>
        <time>2015-07-04T08:48:02Z</time>
      </trkpt>
      <trkpt lat="38.884125" lon="-0.686400">
        <ele>418.317</ele>
        <time>2015-07-04T08:48:15Z</time>
      </trkpt>
      <trkpt lat="38.884090" lon="-0.686410">
        <ele>419.334</ele>
        <time>2015-07-04T08:48:20Z</time>
      </trkpt>
      <trkpt lat="38.884094" lon="-0.686503">
        <ele>421.742</ele>
        <time>2015-07-04T08:48:31Z</time>
      </trkpt>
      <trkpt lat="38.884048" lon="-0.686521">
        <ele>424.636</ele>
        <time>2015-07-04T08:48:42Z</time>
      </trkpt>
      <trkpt lat="38.884029" lon="-0.686553">
        <ele>426.087</ele>
        <time>2015-07-04T08:48:52Z</time>
      </trkpt>
      <trkpt lat="38.884029" lon="-0.686598">
        <ele>427.442</ele>
        <time>2015-07-04T08:48:59Z</time>
      </trkpt>
      <trkpt lat="38.884026" lon="-0.686648">
        <ele>428.426</ele>
        <time>2015-07-04T08:49:04Z</time>
      </trkpt>
      <trkpt lat="38.883987" lon="-0.686667">
        <ele>431.308</ele>
        <time>2015-07-04T08:49:16Z</time>
      </trkpt>
      <trkpt lat="38.883976" lon="-0.686741">
        <ele>433.269</ele>
        <time>2015-07-04T08:49:26Z</time>
      </trkpt>
      <trkpt lat="38.883968" lon="-0.686870">
        <ele>436.169</ele>
        <time>2015-07-04T08:49:37Z</time>
      </trkpt>
      <trkpt lat="38.883957" lon="-0.686975">
        <ele>439.520</ele>
        <time>2015-07-04T08:49:54Z</time>
      </trkpt>
      <trkpt lat="38.883904" lon="-0.687016">
        <ele>442.313</ele>
        <time>2015-07-04T08:50:04Z</time>
      </trkpt>
      <trkpt lat="38.883873" lon="-0.687018">
        <ele>444.384</ele>
        <time>2015-07-04T08:50:19Z</time>
      </trkpt>
      <trkpt lat="38.883835" lon="-0.687017">
        <ele>445.281</ele>
        <time>2015-07-04T08:50:25Z</time>
      </trkpt>
      <trkpt lat="38.883770" lon="-0.686962">
        <ele>445.759</ele>
        <time>2015-07-04T08:50:31Z</time>
      </trkpt>
      <trkpt lat="38.883724" lon="-0.686980">
        <ele>448.623</ele>
        <time>2015-07-04T08:50:36Z</time>
      </trkpt>
      <trkpt lat="38.883648" lon="-0.686993">
        <ele>452.027</ele>
        <time>2015-07-04T08:51:04Z</time>
      </trkpt>
      <trkpt lat="38.883530" lon="-0.687001">
        <ele>455.868</ele>
        <time>2015-07-04T08:51:16Z</time>
      </trkpt>
      <trkpt lat="38.883480" lon="-0.687010">
        <ele>457.214</ele>
        <time>2015-07-04T08:51:26Z</time>
      </trkpt>
      <trkpt lat="38.883465" lon="-0.687047">
        <ele>458.708</ele>
        <time>2015-07-04T08:51:30Z</time>
      </trkpt>
      <trkpt lat="38.883461" lon="-0.687072">
        <ele>460.183</ele>
        <time>2015-07-04T08:51:41Z</time>
      </trkpt>
      <trkpt lat="38.883415" lon="-0.687105">
        <ele>462.523</ele>
        <time>2015-07-04T08:51:52Z</time>
      </trkpt>
      <trkpt lat="38.883381" lon="-0.687084">
        <ele>463.084</ele>
        <time>2015-07-04T08:51:58Z</time>
      </trkpt>
      <trkpt lat="38.883297" lon="-0.687073">
        <ele>464.587</ele>
        <time>2015-07-04T08:52:06Z</time>
      </trkpt>
      <trkpt lat="38.883255" lon="-0.687064">
        <ele>464.038</ele>
        <time>2015-07-04T08:52:10Z</time>
      </trkpt>
      <trkpt lat="38.883232" lon="-0.687056">
        <ele>464.065</ele>
        <time>2015-07-04T08:52:12Z</time>
      </trkpt>
      <trkpt lat="38.883156" lon="-0.687025">
        <ele>464.023</ele>
        <time>2015-07-04T08:52:18Z</time>
      </trkpt>
      <trkpt lat="38.883099" lon="-0.687061">
        <ele>464.987</ele>
        <time>2015-07-04T08:52:22Z</time>
      </trkpt>
      <trkpt lat="38.883053" lon="-0.687051">
        <ele>465.442</ele>
        <time>2015-07-04T08:52:25Z</time>
      </trkpt>
      <trkpt lat="38.882996" lon="-0.687070">
        <ele>466.922</ele>
        <time>2015-07-04T08:52:29Z</time>
      </trkpt>
      <trkpt lat="38.882973" lon="-0.687043">
        <ele>468.314</ele>
        <time>2015-07-04T08:52:32Z</time>
      </trkpt>
      <trkpt lat="38.882961" lon="-0.687016">
        <ele>468.808</ele>
        <time>2015-07-04T08:52:33Z</time>
      </trkpt>
      <trkpt lat="38.882931" lon="-0.686957">
        <ele>468.825</ele>
        <time>2015-07-04T08:52:36Z</time>
      </trkpt>
      <trkpt lat="38.882896" lon="-0.686924">
        <ele>470.255</ele>
        <time>2015-07-04T08:52:41Z</time>
      </trkpt>
      <trkpt lat="38.882881" lon="-0.686903">
        <ele>471.236</ele>
        <time>2015-07-04T08:52:43Z</time>
      </trkpt>
      <trkpt lat="38.882835" lon="-0.686853">
        <ele>472.129</ele>
        <time>2015-07-04T08:52:57Z</time>
      </trkpt>
      <trkpt lat="38.882782" lon="-0.686823">
        <ele>473.660</ele>
        <time>2015-07-04T08:53:05Z</time>
      </trkpt>
      <trkpt lat="38.882732" lon="-0.686795">
        <ele>475.547</ele>
        <time>2015-07-04T08:53:09Z</time>
      </trkpt>
      <trkpt lat="38.882698" lon="-0.686768">
        <ele>477.475</ele>
        <time>2015-07-04T08:53:20Z</time>
      </trkpt>
      <trkpt lat="38.882656" lon="-0.686793">
        <ele>479.439</ele>
        <time>2015-07-04T08:53:31Z</time>
      </trkpt>
      <trkpt lat="38.882595" lon="-0.686839">
        <ele>483.269</ele>
        <time>2015-07-04T08:53:42Z</time>
      </trkpt>
      <trkpt lat="38.882549" lon="-0.686852">
        <ele>485.104</ele>
        <time>2015-07-04T08:53:51Z</time>
      </trkpt>
      <trkpt lat="38.882492" lon="-0.686866">
        <ele>486.624</ele>
        <time>2015-07-04T08:53:58Z</time>
      </trkpt>
      <trkpt lat="38.882420" lon="-0.686912">
        <ele>488.008</ele>
        <time>2015-07-04T08:54:07Z</time>
      </trkpt>
      <trkpt lat="38.882328" lon="-0.686932">
        <ele>489.537</ele>
        <time>2015-07-04T08:54:19Z</time>
      </trkpt>
      <trkpt lat="38.882298" lon="-0.686969">
        <ele>490.437</ele>
        <time>2015-07-04T08:54:27Z</time>
      </trkpt>
      <trkpt lat="38.882221" lon="-0.687023">
        <ele>492.338</ele>
        <time>2015-07-04T08:54:35Z</time>
      </trkpt>
      <trkpt lat="38.882111" lon="-0.687043">
        <ele>492.371</ele>
        <time>2015-07-04T08:54:44Z</time>
      </trkpt>
      <trkpt lat="38.882004" lon="-0.687131">
        <ele>491.932</ele>
        <time>2015-07-04T08:54:48Z</time>
      </trkpt>
      <trkpt lat="38.881897" lon="-0.687280">
        <ele>493.399</ele>
        <time>2015-07-04T08:54:55Z</time>
      </trkpt>
      <trkpt lat="38.881882" lon="-0.687346">
        <ele>493.897</ele>
        <time>2015-07-04T08:55:00Z</time>
      </trkpt>
      <trkpt lat="38.881855" lon="-0.687357">
        <ele>493.871</ele>
        <time>2015-07-04T08:55:02Z</time>
      </trkpt>
      <trkpt lat="38.881779" lon="-0.687362">
        <ele>492.345</ele>
        <time>2015-07-04T08:55:05Z</time>
      </trkpt>
      <trkpt lat="38.881737" lon="-0.687460">
        <ele>490.947</ele>
        <time>2015-07-04T08:55:08Z</time>
      </trkpt>
      <trkpt lat="38.881676" lon="-0.687512">
        <ele>491.411</ele>
        <time>2015-07-04T08:55:13Z</time>
      </trkpt>
      <trkpt lat="38.881615" lon="-0.687496">
        <ele>492.308</ele>
        <time>2015-07-04T08:55:17Z</time>
      </trkpt>
      <trkpt lat="38.881508" lon="-0.687552">
        <ele>491.915</ele>
        <time>2015-07-04T08:55:25Z</time>
      </trkpt>
      <trkpt lat="38.881439" lon="-0.687644">
        <ele>494.385</ele>
        <time>2015-07-04T08:55:30Z</time>
      </trkpt>
      <trkpt lat="38.881413" lon="-0.687685">
        <ele>494.716</ele>
        <time>2015-07-04T08:55:34Z</time>
      </trkpt>
      <trkpt lat="38.881386" lon="-0.687700">
        <ele>494.759</ele>
        <time>2015-07-04T08:55:36Z</time>
      </trkpt>
      <trkpt lat="38.881290" lon="-0.687801">
        <ele>496.720</ele>
        <time>2015-07-04T08:55:46Z</time>
      </trkpt>
      <trkpt lat="38.881256" lon="-0.687888">
        <ele>496.277</ele>
        <time>2015-07-04T08:55:49Z</time>
      </trkpt>
      <trkpt lat="38.881233" lon="-0.687902">
        <ele>496.725</ele>
        <time>2015-07-04T08:55:50Z</time>
      </trkpt>
      <trkpt lat="38.881134" lon="-0.687923">
        <ele>496.289</ele>
        <time>2015-07-04T08:55:54Z</time>
      </trkpt>
      <trkpt lat="38.881001" lon="-0.688008">
        <ele>496.784</ele>
        <time>2015-07-04T08:56:02Z</time>
      </trkpt>
      <trkpt lat="38.880932" lon="-0.688176">
        <ele>499.507</ele>
        <time>2015-07-04T08:56:14Z</time>
      </trkpt>
      <trkpt lat="38.880905" lon="-0.688241">
        <ele>500.017</ele>
        <time>2015-07-04T08:56:27Z</time>
      </trkpt>
      <trkpt lat="38.880856" lon="-0.688311">
        <ele>502.408</ele>
        <time>2015-07-04T08:56:34Z</time>
      </trkpt>
      <trkpt lat="38.880844" lon="-0.688329">
        <ele>503.969</ele>
        <time>2015-07-04T08:56:38Z</time>
      </trkpt>
      <trkpt lat="38.880810" lon="-0.688411">
        <ele>505.389</ele>
        <time>2015-07-04T08:56:45Z</time>
      </trkpt>
      <trkpt lat="38.880779" lon="-0.688445">
        <ele>506.330</ele>
        <time>2015-07-04T08:56:49Z</time>
      </trkpt>
      <trkpt lat="38.880745" lon="-0.688464">
        <ele>507.243</ele>
        <time>2015-07-04T08:56:53Z</time>
      </trkpt>
      <trkpt lat="38.880707" lon="-0.688453">
        <ele>507.754</ele>
        <time>2015-07-04T08:56:56Z</time>
      </trkpt>
      <trkpt lat="38.880684" lon="-0.688456">
        <ele>508.271</ele>
        <time>2015-07-04T08:56:58Z</time>
      </trkpt>
      <trkpt lat="38.880638" lon="-0.688479">
        <ele>510.179</ele>
        <time>2015-07-04T08:57:04Z</time>
      </trkpt>
      <trkpt lat="38.880611" lon="-0.688570">
        <ele>510.673</ele>
        <time>2015-07-04T08:57:11Z</time>
      </trkpt>
      <trkpt lat="38.880535" lon="-0.688662">
        <ele>512.084</ele>
        <time>2015-07-04T08:57:19Z</time>
      </trkpt>
      <trkpt lat="38.880516" lon="-0.688690">
        <ele>512.007</ele>
        <time>2015-07-04T08:57:22Z</time>
      </trkpt>
      <trkpt lat="38.880474" lon="-0.688748">
        <ele>510.117</ele>
        <time>2015-07-04T08:57:31Z</time>
      </trkpt>
      <trkpt lat="38.880466" lon="-0.688839">
        <ele>513.508</ele>
        <time>2015-07-04T08:57:40Z</time>
      </trkpt>
      <trkpt lat="38.880413" lon="-0.688846">
        <ele>514.979</ele>
        <time>2015-07-04T08:57:48Z</time>
      </trkpt>
      <trkpt lat="38.880398" lon="-0.688886">
        <ele>515.429</ele>
        <time>2015-07-04T08:57:51Z</time>
      </trkpt>
      <trkpt lat="38.880394" lon="-0.688934">
        <ele>516.470</ele>
        <time>2015-07-04T08:58:03Z</time>
      </trkpt>
      <trkpt lat="38.880371" lon="-0.688976">
        <ele>518.373</ele>
        <time>2015-07-04T08:58:15Z</time>
      </trkpt>
      <trkpt lat="38.880341" lon="-0.689017">
        <ele>521.714</ele>
        <time>2015-07-04T08:58:36Z</time>
      </trkpt>
      <trkpt lat="38.880367" lon="-0.689037">
        <ele>523.131</ele>
        <time>2015-07-04T08:58:42Z</time>
      </trkpt>
      <trkpt lat="38.880341" lon="-0.689100">
        <ele>525.049</ele>
        <time>2015-07-04T08:58:46Z</time>
      </trkpt>
      <trkpt lat="38.880367" lon="-0.689140">
        <ele>526.523</ele>
        <time>2015-07-04T08:58:50Z</time>
      </trkpt>
      <trkpt lat="38.880367" lon="-0.689189">
        <ele>529.326</ele>
        <time>2015-07-04T08:59:03Z</time>
      </trkpt>
      <trkpt lat="38.880322" lon="-0.689208">
        <ele>529.347</ele>
        <time>2015-07-04T08:59:12Z</time>
      </trkpt>
      <trkpt lat="38.880268" lon="-0.689277">
        <ele>532.211</ele>
        <time>2015-07-04T08:59:20Z</time>
      </trkpt>
      <trkpt lat="38.880142" lon="-0.689356">
        <ele>533.708</ele>
        <time>2015-07-04T08:59:35Z</time>
      </trkpt>
      <trkpt lat="38.880104" lon="-0.689433">
        <ele>538.563</ele>
        <time>2015-07-04T08:59:50Z</time>
      </trkpt>
      <trkpt lat="38.880077" lon="-0.689452">
        <ele>540.913</ele>
        <time>2015-07-04T09:00:01Z</time>
      </trkpt>
      <trkpt lat="38.880062" lon="-0.689509">
        <ele>543.854</ele>
        <time>2015-07-04T09:00:19Z</time>
      </trkpt>
      <trkpt lat="38.879951" lon="-0.689425">
        <ele>546.247</ele>
        <time>2015-07-04T09:00:31Z</time>
      </trkpt>
      <trkpt lat="38.879948" lon="-0.689456">
        <ele>548.188</ele>
        <time>2015-07-04T09:00:45Z</time>
      </trkpt>
      <trkpt lat="38.879925" lon="-0.689465">
        <ele>550.095</ele>
        <time>2015-07-04T09:00:58Z</time>
      </trkpt>
      <trkpt lat="38.879906" lon="-0.689472">
        <ele>551.563</ele>
        <time>2015-07-04T09:01:05Z</time>
      </trkpt>
      <trkpt lat="38.879871" lon="-0.689445">
        <ele>552.977</ele>
        <time>2015-07-04T09:01:09Z</time>
      </trkpt>
      <trkpt lat="38.879848" lon="-0.689500">
        <ele>554.812</ele>
        <time>2015-07-04T09:01:19Z</time>
      </trkpt>
      <trkpt lat="38.879856" lon="-0.689537">
        <ele>555.332</ele>
        <time>2015-07-04T09:01:22Z</time>
      </trkpt>
      <trkpt lat="38.879860" lon="-0.689581">
        <ele>555.305</ele>
        <time>2015-07-04T09:01:26Z</time>
      </trkpt>
      <trkpt lat="38.879883" lon="-0.689703">
        <ele>557.208</ele>
        <time>2015-07-04T09:01:35Z</time>
      </trkpt>
      <trkpt lat="38.879894" lon="-0.689726">
        <ele>557.792</ele>
        <time>2015-07-04T09:01:37Z</time>
      </trkpt>
      <trkpt lat="38.879898" lon="-0.689767">
        <ele>558.732</ele>
        <time>2015-07-04T09:01:39Z</time>
      </trkpt>
      <trkpt lat="38.879902" lon="-0.689859">
        <ele>561.623</ele>
        <time>2015-07-04T09:01:50Z</time>
      </trkpt>
      <trkpt lat="38.879917" lon="-0.689875">
        <ele>562.596</ele>
        <time>2015-07-04T09:02:05Z</time>
      </trkpt>
      <trkpt lat="38.879913" lon="-0.689998">
        <ele>565.917</ele>
        <time>2015-07-04T09:02:17Z</time>
      </trkpt>
      <trkpt lat="38.879910" lon="-0.690035">
        <ele>566.894</ele>
        <time>2015-07-04T09:02:20Z</time>
      </trkpt>
      <trkpt lat="38.879845" lon="-0.690137">
        <ele>569.762</ele>
        <time>2015-07-04T09:02:31Z</time>
      </trkpt>
      <trkpt lat="38.879799" lon="-0.690137">
        <ele>571.246</ele>
        <time>2015-07-04T09:02:38Z</time>
      </trkpt>
      <trkpt lat="38.879723" lon="-0.690114">
        <ele>571.672</ele>
        <time>2015-07-04T09:02:45Z</time>
      </trkpt>
      <trkpt lat="38.879627" lon="-0.690124">
        <ele>574.513</ele>
        <time>2015-07-04T09:03:00Z</time>
      </trkpt>
      <trkpt lat="38.879597" lon="-0.690137">
        <ele>575.014</ele>
        <time>2015-07-04T09:03:03Z</time>
      </trkpt>
      <trkpt lat="38.879562" lon="-0.690145">
        <ele>576.508</ele>
        <time>2015-07-04T09:03:06Z</time>
      </trkpt>
      <trkpt lat="38.879532" lon="-0.690157">
        <ele>576.948</ele>
        <time>2015-07-04T09:03:10Z</time>
      </trkpt>
      <trkpt lat="38.879478" lon="-0.690158">
        <ele>577.438</ele>
        <time>2015-07-04T09:03:15Z</time>
      </trkpt>
      <trkpt lat="38.879330" lon="-0.689959">
        <ele>577.499</ele>
        <time>2015-07-04T09:03:32Z</time>
      </trkpt>
      <trkpt lat="38.879284" lon="-0.689900">
        <ele>577.412</ele>
        <time>2015-07-04T09:03:37Z</time>
      </trkpt>
      <trkpt lat="38.879253" lon="-0.689835">
        <ele>577.983</ele>
        <time>2015-07-04T09:03:41Z</time>
      </trkpt>
      <trkpt lat="38.879166" lon="-0.689751">
        <ele>578.980</ele>
        <time>2015-07-04T09:03:52Z</time>
      </trkpt>
      <trkpt lat="38.879147" lon="-0.689731">
        <ele>578.988</ele>
        <time>2015-07-04T09:03:56Z</time>
      </trkpt>
      <trkpt lat="38.879059" lon="-0.689658">
        <ele>580.842</ele>
        <time>2015-07-04T09:04:07Z</time>
      </trkpt>
      <trkpt lat="38.879017" lon="-0.689645">
        <ele>581.732</ele>
        <time>2015-07-04T09:04:11Z</time>
      </trkpt>
      <trkpt lat="38.878963" lon="-0.689606">
        <ele>582.792</ele>
        <time>2015-07-04T09:04:16Z</time>
      </trkpt>
      <trkpt lat="38.878929" lon="-0.689597">
        <ele>582.711</ele>
        <time>2015-07-04T09:04:19Z</time>
      </trkpt>
      <trkpt lat="38.878845" lon="-0.689566">
        <ele>584.108</ele>
        <time>2015-07-04T09:04:27Z</time>
      </trkpt>
      <trkpt lat="38.878815" lon="-0.689553">
        <ele>584.634</ele>
        <time>2015-07-04T09:04:30Z</time>
      </trkpt>
      <trkpt lat="38.878632" lon="-0.689448">
        <ele>587.524</ele>
        <time>2015-07-04T09:04:40Z</time>
      </trkpt>
      <trkpt lat="38.878391" lon="-0.689470">
        <ele>589.475</ele>
        <time>2015-07-04T09:04:50Z</time>
      </trkpt>
      <trkpt lat="38.878319" lon="-0.689413">
        <ele>590.988</ele>
        <time>2015-07-04T09:04:57Z</time>
      </trkpt>
      <trkpt lat="38.878296" lon="-0.689380">
        <ele>591.459</ele>
        <time>2015-07-04T09:05:00Z</time>
      </trkpt>
      <trkpt lat="38.878265" lon="-0.689359">
        <ele>591.846</ele>
        <time>2015-07-04T09:05:03Z</time>
      </trkpt>
      <trkpt lat="38.878197" lon="-0.689281">
        <ele>591.874</ele>
        <time>2015-07-04T09:05:11Z</time>
      </trkpt>
      <trkpt lat="38.878132" lon="-0.689195">
        <ele>592.358</ele>
        <time>2015-07-04T09:05:18Z</time>
      </trkpt>
      <trkpt lat="38.877956" lon="-0.688998">
        <ele>592.872</ele>
        <time>2015-07-04T09:05:34Z</time>
      </trkpt>
      <trkpt lat="38.877827" lon="-0.688741">
        <ele>595.213</ele>
        <time>2015-07-04T09:05:44Z</time>
      </trkpt>
      <trkpt lat="38.877743" lon="-0.688507">
        <ele>596.214</ele>
        <time>2015-07-04T09:05:56Z</time>
      </trkpt>
      <trkpt lat="38.877693" lon="-0.688502">
        <ele>595.708</ele>
        <time>2015-07-04T09:05:59Z</time>
      </trkpt>
      <trkpt lat="38.877628" lon="-0.688508">
        <ele>595.248</ele>
        <time>2015-07-04T09:06:03Z</time>
      </trkpt>
      <trkpt lat="38.877392" lon="-0.688644">
        <ele>594.298</ele>
        <time>2015-07-04T09:06:15Z</time>
      </trkpt>
      <trkpt lat="38.877281" lon="-0.688752">
        <ele>592.829</ele>
        <time>2015-07-04T09:06:19Z</time>
      </trkpt>
      <trkpt lat="38.877151" lon="-0.688983">
        <ele>590.412</ele>
        <time>2015-07-04T09:06:26Z</time>
      </trkpt>
      <trkpt lat="38.876949" lon="-0.689313">
        <ele>589.033</ele>
        <time>2015-07-04T09:06:35Z</time>
      </trkpt>
      <trkpt lat="38.876743" lon="-0.689598">
        <ele>587.560</ele>
        <time>2015-07-04T09:06:44Z</time>
      </trkpt>
      <trkpt lat="38.876717" lon="-0.689630">
        <ele>588.028</ele>
        <time>2015-07-04T09:06:45Z</time>
      </trkpt>
      <trkpt lat="38.876572" lon="-0.689775">
        <ele>588.012</ele>
        <time>2015-07-04T09:06:51Z</time>
      </trkpt>
      <trkpt lat="38.876324" lon="-0.689961">
        <ele>585.152</ele>
        <time>2015-07-04T09:07:01Z</time>
      </trkpt>
      <trkpt lat="38.876076" lon="-0.689978">
        <ele>580.353</ele>
        <time>2015-07-04T09:07:09Z</time>
      </trkpt>
      <trkpt lat="38.876015" lon="-0.689952">
        <ele>578.908</ele>
        <time>2015-07-04T09:07:11Z</time>
      </trkpt>
      <trkpt lat="38.875828" lon="-0.689853">
        <ele>577.908</ele>
        <time>2015-07-04T09:07:17Z</time>
      </trkpt>
      <trkpt lat="38.875668" lon="-0.689923">
        <ele>576.596</ele>
        <time>2015-07-04T09:07:24Z</time>
      </trkpt>
      <trkpt lat="38.875618" lon="-0.690189">
        <ele>575.096</ele>
        <time>2015-07-04T09:07:31Z</time>
      </trkpt>
      <trkpt lat="38.875397" lon="-0.690394">
        <ele>574.557</ele>
        <time>2015-07-04T09:07:41Z</time>
      </trkpt>
      <trkpt lat="38.875263" lon="-0.690493">
        <ele>575.050</ele>
        <time>2015-07-04T09:07:54Z</time>
      </trkpt>
      <trkpt lat="38.875214" lon="-0.690534">
        <ele>575.081</ele>
        <time>2015-07-04T09:07:58Z</time>
      </trkpt>
      <trkpt lat="38.875107" lon="-0.690722">
        <ele>575.528</ele>
        <time>2015-07-04T09:08:10Z</time>
      </trkpt>
      <trkpt lat="38.874916" lon="-0.691093">
        <ele>575.586</ele>
        <time>2015-07-04T09:08:22Z</time>
      </trkpt>
      <trkpt lat="38.874889" lon="-0.691157">
        <ele>576.010</ele>
        <time>2015-07-04T09:08:24Z</time>
      </trkpt>
      <trkpt lat="38.874870" lon="-0.691201">
        <ele>576.074</ele>
        <time>2015-07-04T09:08:26Z</time>
      </trkpt>
      <trkpt lat="38.874790" lon="-0.691408">
        <ele>576.956</ele>
        <time>2015-07-04T09:08:40Z</time>
      </trkpt>
      <trkpt lat="38.874783" lon="-0.691441">
        <ele>576.921</ele>
        <time>2015-07-04T09:08:42Z</time>
      </trkpt>
      <trkpt lat="38.874718" lon="-0.691700">
        <ele>576.908</ele>
        <time>2015-07-04T09:08:56Z</time>
      </trkpt>
      <trkpt lat="38.874657" lon="-0.691818">
        <ele>576.598</ele>
        <time>2015-07-04T09:09:00Z</time>
      </trkpt>
      <trkpt lat="38.874546" lon="-0.691945">
        <ele>576.098</ele>
        <time>2015-07-04T09:09:05Z</time>
      </trkpt>
      <trkpt lat="38.874401" lon="-0.692249">
        <ele>574.029</ele>
        <time>2015-07-04T09:09:14Z</time>
      </trkpt>
      <trkpt lat="38.874348" lon="-0.692384">
        <ele>574.072</ele>
        <time>2015-07-04T09:09:18Z</time>
      </trkpt>
      <trkpt lat="38.874294" lon="-0.692572">
        <ele>575.023</ele>
        <time>2015-07-04T09:09:25Z</time>
      </trkpt>
      <trkpt lat="38.874237" lon="-0.692681">
        <ele>576.580</ele>
        <time>2015-07-04T09:09:32Z</time>
      </trkpt>
      <trkpt lat="38.874218" lon="-0.692726">
        <ele>576.918</ele>
        <time>2015-07-04T09:09:43Z</time>
      </trkpt>
      <trkpt lat="38.874187" lon="-0.692996">
        <ele>577.482</ele>
        <time>2015-07-04T09:09:52Z</time>
      </trkpt>
      <trkpt lat="38.874126" lon="-0.693249">
        <ele>579.381</ele>
        <time>2015-07-04T09:10:00Z</time>
      </trkpt>
      <trkpt lat="38.874104" lon="-0.693277">
        <ele>579.861</ele>
        <time>2015-07-04T09:10:03Z</time>
      </trkpt>
      <trkpt lat="38.874027" lon="-0.693434">
        <ele>581.317</ele>
        <time>2015-07-04T09:10:13Z</time>
      </trkpt>
      <trkpt lat="38.874012" lon="-0.693479">
        <ele>581.708</ele>
        <time>2015-07-04T09:10:17Z</time>
      </trkpt>
      <trkpt lat="38.873940" lon="-0.693678">
        <ele>582.759</ele>
        <time>2015-07-04T09:10:32Z</time>
      </trkpt>
      <trkpt lat="38.873913" lon="-0.693783">
        <ele>583.249</ele>
        <time>2015-07-04T09:10:40Z</time>
      </trkpt>
      <trkpt lat="38.873871" lon="-0.693871">
        <ele>584.180</ele>
        <time>2015-07-04T09:10:46Z</time>
      </trkpt>
      <trkpt lat="38.873875" lon="-0.693949">
        <ele>584.653</ele>
        <time>2015-07-04T09:10:50Z</time>
      </trkpt>
      <trkpt lat="38.873852" lon="-0.694027">
        <ele>584.694</ele>
        <time>2015-07-04T09:10:55Z</time>
      </trkpt>
      <trkpt lat="38.873814" lon="-0.694212">
        <ele>586.111</ele>
        <time>2015-07-04T09:11:02Z</time>
      </trkpt>
      <trkpt lat="38.873768" lon="-0.694241">
        <ele>587.549</ele>
        <time>2015-07-04T09:11:06Z</time>
      </trkpt>
      <trkpt lat="38.873753" lon="-0.694256">
        <ele>587.013</ele>
        <time>2015-07-04T09:11:09Z</time>
      </trkpt>
      <trkpt lat="38.873703" lon="-0.694289">
        <ele>588.034</ele>
        <time>2015-07-04T09:11:13Z</time>
      </trkpt>
      <trkpt lat="38.873688" lon="-0.694325">
        <ele>588.555</ele>
        <time>2015-07-04T09:11:15Z</time>
      </trkpt>
      <trkpt lat="38.873672" lon="-0.694394">
        <ele>588.510</ele>
        <time>2015-07-04T09:11:19Z</time>
      </trkpt>
      <trkpt lat="38.873611" lon="-0.694431">
        <ele>589.408</ele>
        <time>2015-07-04T09:11:24Z</time>
      </trkpt>
      <trkpt lat="38.873558" lon="-0.694443">
        <ele>590.454</ele>
        <time>2015-07-04T09:11:27Z</time>
      </trkpt>
      <trkpt lat="38.873497" lon="-0.694495">
        <ele>590.914</ele>
        <time>2015-07-04T09:11:32Z</time>
      </trkpt>
      <trkpt lat="38.873276" lon="-0.694642">
        <ele>591.455</ele>
        <time>2015-07-04T09:11:43Z</time>
      </trkpt>
      <trkpt lat="38.873188" lon="-0.694808">
        <ele>592.838</ele>
        <time>2015-07-04T09:11:53Z</time>
      </trkpt>
      <trkpt lat="38.873180" lon="-0.694860">
        <ele>593.319</ele>
        <time>2015-07-04T09:11:57Z</time>
      </trkpt>
      <trkpt lat="38.873165" lon="-0.694916">
        <ele>594.756</ele>
        <time>2015-07-04T09:12:03Z</time>
      </trkpt>
      <trkpt lat="38.873169" lon="-0.694957">
        <ele>595.254</ele>
        <time>2015-07-04T09:12:07Z</time>
      </trkpt>
      <trkpt lat="38.873180" lon="-0.695031">
        <ele>596.248</ele>
        <time>2015-07-04T09:12:12Z</time>
      </trkpt>
      <trkpt lat="38.873161" lon="-0.695222">
        <ele>599.052</ele>
        <time>2015-07-04T09:12:22Z</time>
      </trkpt>
      <trkpt lat="38.873009" lon="-0.695308">
        <ele>602.453</ele>
        <time>2015-07-04T09:12:33Z</time>
      </trkpt>
      <trkpt lat="38.872971" lon="-0.695355">
        <ele>604.308</ele>
        <time>2015-07-04T09:12:40Z</time>
      </trkpt>
      <trkpt lat="38.872978" lon="-0.695434">
        <ele>604.308</ele>
        <time>2015-07-04T09:12:45Z</time>
      </trkpt>
      <trkpt lat="38.872932" lon="-0.695536">
        <ele>605.316</ele>
        <time>2015-07-04T09:12:50Z</time>
      </trkpt>
      <trkpt lat="38.872898" lon="-0.695745">
        <ele>607.216</ele>
        <time>2015-07-04T09:13:00Z</time>
      </trkpt>
      <trkpt lat="38.872852" lon="-0.695858">
        <ele>607.257</ele>
        <time>2015-07-04T09:13:08Z</time>
      </trkpt>
      <trkpt lat="38.872837" lon="-0.696060">
        <ele>605.880</ele>
        <time>2015-07-04T09:13:16Z</time>
      </trkpt>
      <trkpt lat="38.872776" lon="-0.696316">
        <ele>606.311</ele>
        <time>2015-07-04T09:13:24Z</time>
      </trkpt>
      <trkpt lat="38.872757" lon="-0.696451">
        <ele>606.328</ele>
        <time>2015-07-04T09:13:36Z</time>
      </trkpt>
      <trkpt lat="38.872673" lon="-0.696565">
        <ele>607.726</ele>
        <time>2015-07-04T09:13:49Z</time>
      </trkpt>
      <trkpt lat="38.872688" lon="-0.696602">
        <ele>607.710</ele>
        <time>2015-07-04T09:13:53Z</time>
      </trkpt>
      <trkpt lat="38.872757" lon="-0.696663">
        <ele>607.765</ele>
        <time>2015-07-04T09:13:59Z</time>
      </trkpt>
      <trkpt lat="38.872860" lon="-0.696670">
        <ele>607.768</ele>
        <time>2015-07-04T09:14:03Z</time>
      </trkpt>
      <trkpt lat="38.872993" lon="-0.696405">
        <ele>606.714</ele>
        <time>2015-07-04T09:14:14Z</time>
      </trkpt>
      <trkpt lat="38.873070" lon="-0.696136">
        <ele>605.808</ele>
        <time>2015-07-04T09:14:22Z</time>
      </trkpt>
      <trkpt lat="38.873116" lon="-0.696042">
        <ele>606.377</ele>
        <time>2015-07-04T09:14:25Z</time>
      </trkpt>
      <trkpt lat="38.873142" lon="-0.695903">
        <ele>606.767</ele>
        <time>2015-07-04T09:14:29Z</time>
      </trkpt>
      <trkpt lat="38.873283" lon="-0.695545">
        <ele>605.378</ele>
        <time>2015-07-04T09:14:39Z</time>
      </trkpt>
      <trkpt lat="38.873394" lon="-0.695294">
        <ele>603.441</ele>
        <time>2015-07-04T09:14:46Z</time>
      </trkpt>
      <trkpt lat="38.873581" lon="-0.695035">
        <ele>601.012</ele>
        <time>2015-07-04T09:14:53Z</time>
      </trkpt>
      <trkpt lat="38.873653" lon="-0.694921">
        <ele>601.089</ele>
        <time>2015-07-04T09:14:56Z</time>
      </trkpt>
      <trkpt lat="38.873703" lon="-0.694739">
        <ele>601.087</ele>
        <time>2015-07-04T09:15:01Z</time>
      </trkpt>
      <trkpt lat="38.873722" lon="-0.694592">
        <ele>602.471</ele>
        <time>2015-07-04T09:15:05Z</time>
      </trkpt>
      <trkpt lat="38.873829" lon="-0.694444">
        <ele>602.494</ele>
        <time>2015-07-04T09:15:10Z</time>
      </trkpt>
      <trkpt lat="38.874062" lon="-0.694229">
        <ele>601.957</ele>
        <time>2015-07-04T09:15:19Z</time>
      </trkpt>
      <trkpt lat="38.874245" lon="-0.694244">
        <ele>601.922</ele>
        <time>2015-07-04T09:15:25Z</time>
      </trkpt>
      <trkpt lat="38.874458" lon="-0.694320">
        <ele>601.908</ele>
        <time>2015-07-04T09:15:32Z</time>
      </trkpt>
      <trkpt lat="38.874611" lon="-0.694288">
        <ele>603.990</ele>
        <time>2015-07-04T09:15:45Z</time>
      </trkpt>
      <trkpt lat="38.874626" lon="-0.694270">
        <ele>604.310</ele>
        <time>2015-07-04T09:15:47Z</time>
      </trkpt>
      <trkpt lat="38.874664" lon="-0.694262">
        <ele>604.321</ele>
        <time>2015-07-04T09:15:49Z</time>
      </trkpt>
      <trkpt lat="38.874714" lon="-0.694256">
        <ele>604.884</ele>
        <time>2015-07-04T09:15:52Z</time>
      </trkpt>
      <trkpt lat="38.874859" lon="-0.694134">
        <ele>606.735</ele>
        <time>2015-07-04T09:16:04Z</time>
      </trkpt>
      <trkpt lat="38.875072" lon="-0.694013">
        <ele>609.662</ele>
        <time>2015-07-04T09:16:14Z</time>
      </trkpt>
      <trkpt lat="38.875347" lon="-0.693968">
        <ele>610.610</ele>
        <time>2015-07-04T09:16:24Z</time>
      </trkpt>
      <trkpt lat="38.875462" lon="-0.693934">
        <ele>610.674</ele>
        <time>2015-07-04T09:16:32Z</time>
      </trkpt>
      <trkpt lat="38.875530" lon="-0.693791">
        <ele>612.543</ele>
        <time>2015-07-04T09:16:46Z</time>
      </trkpt>
      <trkpt lat="38.875660" lon="-0.693598">
        <ele>613.564</ele>
        <time>2015-07-04T09:17:01Z</time>
      </trkpt>
      <trkpt lat="38.875847" lon="-0.693605">
        <ele>614.910</ele>
        <time>2015-07-04T09:17:09Z</time>
      </trkpt>
      <trkpt lat="38.875980" lon="-0.693609">
        <ele>616.808</ele>
        <time>2015-07-04T09:17:14Z</time>
      </trkpt>
      <trkpt lat="38.876045" lon="-0.693614">
        <ele>616.835</ele>
        <time>2015-07-04T09:17:19Z</time>
      </trkpt>
      <trkpt lat="38.876099" lon="-0.693807">
        <ele>618.375</ele>
        <time>2015-07-04T09:17:32Z</time>
      </trkpt>
      <trkpt lat="38.876095" lon="-0.693851">
        <ele>618.846</ele>
        <time>2015-07-04T09:17:34Z</time>
      </trkpt>
      <trkpt lat="38.876068" lon="-0.693977">
        <ele>619.739</ele>
        <time>2015-07-04T09:17:39Z</time>
      </trkpt>
      <trkpt lat="38.876076" lon="-0.694117">
        <ele>622.190</ele>
        <time>2015-07-04T09:17:49Z</time>
      </trkpt>
      <trkpt lat="38.876129" lon="-0.694181">
        <ele>623.197</ele>
        <time>2015-07-04T09:17:56Z</time>
      </trkpt>
      <trkpt lat="38.876186" lon="-0.694198">
        <ele>623.625</ele>
        <time>2015-07-04T09:18:00Z</time>
      </trkpt>
      <trkpt lat="38.876331" lon="-0.694256">
        <ele>623.119</ele>
        <time>2015-07-04T09:18:07Z</time>
      </trkpt>
      <trkpt lat="38.876572" lon="-0.694125">
        <ele>624.046</ele>
        <time>2015-07-04T09:18:16Z</time>
      </trkpt>
      <trkpt lat="38.876705" lon="-0.694023">
        <ele>624.088</ele>
        <time>2015-07-04T09:18:22Z</time>
      </trkpt>
      <trkpt lat="38.876812" lon="-0.694017">
        <ele>622.616</ele>
        <time>2015-07-04T09:18:25Z</time>
      </trkpt>
      <trkpt lat="38.877033" lon="-0.693973">
        <ele>620.208</ele>
        <time>2015-07-04T09:18:33Z</time>
      </trkpt>
      <trkpt lat="38.877209" lon="-0.693834">
        <ele>620.295</ele>
        <time>2015-07-04T09:18:41Z</time>
      </trkpt>
      <trkpt lat="38.877289" lon="-0.693600">
        <ele>619.285</ele>
        <time>2015-07-04T09:18:50Z</time>
      </trkpt>
      <trkpt lat="38.877434" lon="-0.693374">
        <ele>620.726</ele>
        <time>2015-07-04T09:18:59Z</time>
      </trkpt>
      <trkpt lat="38.877659" lon="-0.693182">
        <ele>619.289</ele>
        <time>2015-07-04T09:19:10Z</time>
      </trkpt>
      <trkpt lat="38.877731" lon="-0.693151">
        <ele>618.870</ele>
        <time>2015-07-04T09:19:12Z</time>
      </trkpt>
      <trkpt lat="38.878002" lon="-0.693232">
        <ele>617.867</ele>
        <time>2015-07-04T09:19:21Z</time>
      </trkpt>
      <trkpt lat="38.878021" lon="-0.693223">
        <ele>617.325</ele>
        <time>2015-07-04T09:19:22Z</time>
      </trkpt>
      <trkpt lat="38.878078" lon="-0.693186">
        <ele>614.999</ele>
        <time>2015-07-04T09:19:26Z</time>
      </trkpt>
      <trkpt lat="38.878139" lon="-0.693116">
        <ele>613.062</ele>
        <time>2015-07-04T09:19:31Z</time>
      </trkpt>
      <trkpt lat="38.878189" lon="-0.692960">
        <ele>610.683</ele>
        <time>2015-07-04T09:19:35Z</time>
      </trkpt>
      <trkpt lat="38.878284" lon="-0.692772">
        <ele>609.111</ele>
        <time>2015-07-04T09:19:40Z</time>
      </trkpt>
      <trkpt lat="38.878529" lon="-0.692623">
        <ele>604.808</ele>
        <time>2015-07-04T09:19:49Z</time>
      </trkpt>
      <trkpt lat="38.878578" lon="-0.692546">
        <ele>602.977</ele>
        <time>2015-07-04T09:19:52Z</time>
      </trkpt>
      <trkpt lat="38.878635" lon="-0.692292">
        <ele>599.027</ele>
        <time>2015-07-04T09:20:00Z</time>
      </trkpt>
      <trkpt lat="38.878662" lon="-0.692035">
        <ele>600.088</ele>
        <time>2015-07-04T09:20:08Z</time>
      </trkpt>
      <trkpt lat="38.878632" lon="-0.691929">
        <ele>601.091</ele>
        <time>2015-07-04T09:20:14Z</time>
      </trkpt>
      <trkpt lat="38.878654" lon="-0.691671">
        <ele>598.612</ele>
        <time>2015-07-04T09:20:21Z</time>
      </trkpt>
      <trkpt lat="38.878666" lon="-0.691611">
        <ele>597.689</ele>
        <time>2015-07-04T09:20:23Z</time>
      </trkpt>
      <trkpt lat="38.878723" lon="-0.691444">
        <ele>594.227</ele>
        <time>2015-07-04T09:20:29Z</time>
      </trkpt>
      <trkpt lat="38.878716" lon="-0.691399">
        <ele>593.351</ele>
        <time>2015-07-04T09:20:31Z</time>
      </trkpt>
      <trkpt lat="38.878834" lon="-0.691154">
        <ele>589.957</ele>
        <time>2015-07-04T09:20:39Z</time>
      </trkpt>
      <trkpt lat="38.878853" lon="-0.691128">
        <ele>589.900</ele>
        <time>2015-07-04T09:20:40Z</time>
      </trkpt>
      <trkpt lat="38.878922" lon="-0.691042">
        <ele>591.420</ele>
        <time>2015-07-04T09:20:49Z</time>
      </trkpt>
      <trkpt lat="38.879066" lon="-0.690997">
        <ele>593.308</ele>
        <time>2015-07-04T09:20:52Z</time>
      </trkpt>
      <trkpt lat="38.879093" lon="-0.691001">
        <ele>594.236</ele>
        <time>2015-07-04T09:20:54Z</time>
      </trkpt>
      <trkpt lat="38.879116" lon="-0.691007">
        <ele>595.256</ele>
        <time>2015-07-04T09:20:56Z</time>
      </trkpt>
      <trkpt lat="38.879147" lon="-0.690986">
        <ele>596.297</ele>
        <time>2015-07-04T09:20:58Z</time>
      </trkpt>
      <trkpt lat="38.879272" lon="-0.690969">
        <ele>599.560</ele>
        <time>2015-07-04T09:21:08Z</time>
      </trkpt>
      <trkpt lat="38.879330" lon="-0.690954">
        <ele>601.011</ele>
        <time>2015-07-04T09:21:14Z</time>
      </trkpt>
      <trkpt lat="38.879353" lon="-0.690971">
        <ele>602.918</ele>
        <time>2015-07-04T09:21:16Z</time>
      </trkpt>
      <trkpt lat="38.879387" lon="-0.690967">
        <ele>602.986</ele>
        <time>2015-07-04T09:21:20Z</time>
      </trkpt>
      <trkpt lat="38.879414" lon="-0.690914">
        <ele>600.580</ele>
        <time>2015-07-04T09:21:25Z</time>
      </trkpt>
      <trkpt lat="38.879414" lon="-0.690808">
        <ele>596.281</ele>
        <time>2015-07-04T09:21:32Z</time>
      </trkpt>
      <trkpt lat="38.879402" lon="-0.690721">
        <ele>591.461</ele>
        <time>2015-07-04T09:21:36Z</time>
      </trkpt>
      <trkpt lat="38.879490" lon="-0.690728">
        <ele>589.417</ele>
        <time>2015-07-04T09:21:41Z</time>
      </trkpt>
      <trkpt lat="38.879616" lon="-0.690785">
        <ele>589.908</ele>
        <time>2015-07-04T09:21:49Z</time>
      </trkpt>
      <trkpt lat="38.879658" lon="-0.690792">
        <ele>589.939</ele>
        <time>2015-07-04T09:21:53Z</time>
      </trkpt>
      <trkpt lat="38.879681" lon="-0.690790">
        <ele>589.989</ele>
        <time>2015-07-04T09:21:55Z</time>
      </trkpt>
      <trkpt lat="38.879715" lon="-0.690794">
        <ele>590.910</ele>
        <time>2015-07-04T09:21:58Z</time>
      </trkpt>
      <trkpt lat="38.879768" lon="-0.690830">
        <ele>590.463</ele>
        <time>2015-07-04T09:22:02Z</time>
      </trkpt>
      <trkpt lat="38.879917" lon="-0.690917">
        <ele>589.044</ele>
        <time>2015-07-04T09:22:14Z</time>
      </trkpt>
      <trkpt lat="38.879982" lon="-0.690938">
        <ele>586.551</ele>
        <time>2015-07-04T09:22:17Z</time>
      </trkpt>
      <trkpt lat="38.880039" lon="-0.690993">
        <ele>584.669</ele>
        <time>2015-07-04T09:22:20Z</time>
      </trkpt>
      <trkpt lat="38.880108" lon="-0.691136">
        <ele>583.293</ele>
        <time>2015-07-04T09:22:27Z</time>
      </trkpt>
      <trkpt lat="38.880146" lon="-0.691293">
        <ele>583.794</ele>
        <time>2015-07-04T09:22:35Z</time>
      </trkpt>
      <trkpt lat="38.880196" lon="-0.691414">
        <ele>584.657</ele>
        <time>2015-07-04T09:22:46Z</time>
      </trkpt>
      <trkpt lat="38.880291" lon="-0.691383">
        <ele>581.722</ele>
        <time>2015-07-04T09:22:50Z</time>
      </trkpt>
      <trkpt lat="38.880310" lon="-0.691371">
        <ele>580.808</ele>
        <time>2015-07-04T09:22:51Z</time>
      </trkpt>
      <trkpt lat="38.880333" lon="-0.691258">
        <ele>576.940</ele>
        <time>2015-07-04T09:22:56Z</time>
      </trkpt>
      <trkpt lat="38.880360" lon="-0.691251">
        <ele>576.010</ele>
        <time>2015-07-04T09:22:58Z</time>
      </trkpt>
      <trkpt lat="38.880455" lon="-0.691279">
        <ele>576.071</ele>
        <time>2015-07-04T09:23:01Z</time>
      </trkpt>
      <trkpt lat="38.880718" lon="-0.691141">
        <ele>574.574</ele>
        <time>2015-07-04T09:23:11Z</time>
      </trkpt>
      <trkpt lat="38.880852" lon="-0.690997">
        <ele>574.565</ele>
        <time>2015-07-04T09:23:21Z</time>
      </trkpt>
      <trkpt lat="38.880928" lon="-0.690898">
        <ele>574.562</ele>
        <time>2015-07-04T09:23:28Z</time>
      </trkpt>
      <trkpt lat="38.880974" lon="-0.690881">
        <ele>575.080</ele>
        <time>2015-07-04T09:23:31Z</time>
      </trkpt>
      <trkpt lat="38.881073" lon="-0.690866">
        <ele>574.514</ele>
        <time>2015-07-04T09:23:37Z</time>
      </trkpt>
      <trkpt lat="38.881092" lon="-0.690881">
        <ele>574.522</ele>
        <time>2015-07-04T09:23:39Z</time>
      </trkpt>
      <trkpt lat="38.881126" lon="-0.691030">
        <ele>572.162</ele>
        <time>2015-07-04T09:23:46Z</time>
      </trkpt>
      <trkpt lat="38.881199" lon="-0.691218">
        <ele>569.208</ele>
        <time>2015-07-04T09:23:54Z</time>
      </trkpt>
      <trkpt lat="38.881195" lon="-0.691242">
        <ele>569.208</ele>
        <time>2015-07-04T09:23:55Z</time>
      </trkpt>
      <trkpt lat="38.881199" lon="-0.691265">
        <ele>570.223</ele>
        <time>2015-07-04T09:23:56Z</time>
      </trkpt>
      <trkpt lat="38.881214" lon="-0.691312">
        <ele>570.213</ele>
        <time>2015-07-04T09:24:00Z</time>
      </trkpt>
      <trkpt lat="38.881290" lon="-0.691420">
        <ele>569.244</ele>
        <time>2015-07-04T09:24:09Z</time>
      </trkpt>
      <trkpt lat="38.881390" lon="-0.691475">
        <ele>568.857</ele>
        <time>2015-07-04T09:24:10Z</time>
      </trkpt>
      <trkpt lat="38.881626" lon="-0.691597">
        <ele>567.828</ele>
        <time>2015-07-04T09:24:19Z</time>
      </trkpt>
      <trkpt lat="38.881649" lon="-0.691709">
        <ele>567.815</ele>
        <time>2015-07-04T09:24:21Z</time>
      </trkpt>
      <trkpt lat="38.881767" lon="-0.691908">
        <ele>564.433</ele>
        <time>2015-07-04T09:24:29Z</time>
      </trkpt>
      <trkpt lat="38.881836" lon="-0.691941">
        <ele>564.077</ele>
        <time>2015-07-04T09:24:32Z</time>
      </trkpt>
      <trkpt lat="38.881855" lon="-0.692047">
        <ele>561.665</ele>
        <time>2015-07-04T09:24:35Z</time>
      </trkpt>
      <trkpt lat="38.881866" lon="-0.692139">
        <ele>560.668</ele>
        <time>2015-07-04T09:24:37Z</time>
      </trkpt>
      <trkpt lat="38.881966" lon="-0.692278">
        <ele>559.114</ele>
        <time>2015-07-04T09:24:42Z</time>
      </trkpt>
      <trkpt lat="38.882168" lon="-0.692393">
        <ele>555.808</ele>
        <time>2015-07-04T09:24:48Z</time>
      </trkpt>
      <trkpt lat="38.882290" lon="-0.692514">
        <ele>552.917</ele>
        <time>2015-07-04T09:24:53Z</time>
      </trkpt>
      <trkpt lat="38.882343" lon="-0.692578">
        <ele>550.097</ele>
        <time>2015-07-04T09:24:58Z</time>
      </trkpt>
      <trkpt lat="38.882351" lon="-0.692604">
        <ele>547.668</ele>
        <time>2015-07-04T09:25:00Z</time>
      </trkpt>
      <trkpt lat="38.882339" lon="-0.692652">
        <ele>546.771</ele>
        <time>2015-07-04T09:25:02Z</time>
      </trkpt>
      <trkpt lat="38.882332" lon="-0.692723">
        <ele>543.342</ele>
        <time>2015-07-04T09:25:06Z</time>
      </trkpt>
      <trkpt lat="38.882347" lon="-0.692749">
        <ele>541.829</ele>
        <time>2015-07-04T09:25:08Z</time>
      </trkpt>
      <trkpt lat="38.882355" lon="-0.692789">
        <ele>539.957</ele>
        <time>2015-07-04T09:25:10Z</time>
      </trkpt>
      <trkpt lat="38.882351" lon="-0.692815">
        <ele>539.071</ele>
        <time>2015-07-04T09:25:11Z</time>
      </trkpt>
      <trkpt lat="38.882366" lon="-0.692903">
        <ele>536.649</ele>
        <time>2015-07-04T09:25:14Z</time>
      </trkpt>
      <trkpt lat="38.882374" lon="-0.692943">
        <ele>536.102</ele>
        <time>2015-07-04T09:25:15Z</time>
      </trkpt>
      <trkpt lat="38.882404" lon="-0.693003">
        <ele>535.122</ele>
        <time>2015-07-04T09:25:17Z</time>
      </trkpt>
      <trkpt lat="38.882511" lon="-0.693066">
        <ele>531.308</ele>
        <time>2015-07-04T09:25:21Z</time>
      </trkpt>
      <trkpt lat="38.882530" lon="-0.693076">
        <ele>531.345</ele>
        <time>2015-07-04T09:25:22Z</time>
      </trkpt>
      <trkpt lat="38.882622" lon="-0.693149">
        <ele>529.875</ele>
        <time>2015-07-04T09:25:27Z</time>
      </trkpt>
      <trkpt lat="38.882702" lon="-0.693191">
        <ele>526.986</ele>
        <time>2015-07-04T09:25:31Z</time>
      </trkpt>
      <trkpt lat="38.882759" lon="-0.693223">
        <ele>523.119</ele>
        <time>2015-07-04T09:25:35Z</time>
      </trkpt>
      <trkpt lat="38.882801" lon="-0.693232">
        <ele>520.750</ele>
        <time>2015-07-04T09:25:38Z</time>
      </trkpt>
      <trkpt lat="38.882812" lon="-0.693267">
        <ele>518.817</ele>
        <time>2015-07-04T09:25:40Z</time>
      </trkpt>
      <trkpt lat="38.882820" lon="-0.693297">
        <ele>516.915</ele>
        <time>2015-07-04T09:25:41Z</time>
      </trkpt>
      <trkpt lat="38.882915" lon="-0.693382">
        <ele>515.439</ele>
        <time>2015-07-04T09:25:47Z</time>
      </trkpt>
      <trkpt lat="38.883080" lon="-0.693444">
        <ele>515.917</ele>
        <time>2015-07-04T09:25:51Z</time>
      </trkpt>
      <trkpt lat="38.883183" lon="-0.693472">
        <ele>516.987</ele>
        <time>2015-07-04T09:25:55Z</time>
      </trkpt>
      <trkpt lat="38.883228" lon="-0.693515">
        <ele>517.315</ele>
        <time>2015-07-04T09:25:58Z</time>
      </trkpt>
      <trkpt lat="38.883343" lon="-0.693653">
        <ele>519.308</ele>
        <time>2015-07-04T09:26:08Z</time>
      </trkpt>
      <trkpt lat="38.883503" lon="-0.693715">
        <ele>521.222</ele>
        <time>2015-07-04T09:26:20Z</time>
      </trkpt>
      <trkpt lat="38.883560" lon="-0.693733">
        <ele>522.192</ele>
        <time>2015-07-04T09:26:25Z</time>
      </trkpt>
      <trkpt lat="38.883602" lon="-0.693735">
        <ele>522.633</ele>
        <time>2015-07-04T09:26:28Z</time>
      </trkpt>
      <trkpt lat="38.883636" lon="-0.693722">
        <ele>523.136</ele>
        <time>2015-07-04T09:26:31Z</time>
      </trkpt>
      <trkpt lat="38.883667" lon="-0.693703">
        <ele>523.627</ele>
        <time>2015-07-04T09:26:34Z</time>
      </trkpt>
      <trkpt lat="38.883698" lon="-0.693695">
        <ele>524.144</ele>
        <time>2015-07-04T09:26:36Z</time>
      </trkpt>
      <trkpt lat="38.883724" lon="-0.693684">
        <ele>524.532</ele>
        <time>2015-07-04T09:26:38Z</time>
      </trkpt>
      <trkpt lat="38.883789" lon="-0.693673">
        <ele>525.566</ele>
        <time>2015-07-04T09:26:43Z</time>
      </trkpt>
      <trkpt lat="38.883873" lon="-0.693643">
        <ele>526.084</ele>
        <time>2015-07-04T09:26:49Z</time>
      </trkpt>
      <trkpt lat="38.883904" lon="-0.693644">
        <ele>526.907</ele>
        <time>2015-07-04T09:26:52Z</time>
      </trkpt>
      <trkpt lat="38.884148" lon="-0.693494">
        <ele>528.417</ele>
        <time>2015-07-04T09:27:04Z</time>
      </trkpt>
      <trkpt lat="38.884457" lon="-0.693376">
        <ele>529.808</ele>
        <time>2015-07-04T09:27:15Z</time>
      </trkpt>
      <trkpt lat="38.884628" lon="-0.693277">
        <ele>530.369</ele>
        <time>2015-07-04T09:27:29Z</time>
      </trkpt>
      <trkpt lat="38.884678" lon="-0.693220">
        <ele>530.819</ele>
        <time>2015-07-04T09:27:34Z</time>
      </trkpt>
      <trkpt lat="38.884888" lon="-0.693109">
        <ele>530.890</ele>
        <time>2015-07-04T09:27:50Z</time>
      </trkpt>
      <trkpt lat="38.885052" lon="-0.693088">
        <ele>533.243</ele>
        <time>2015-07-04T09:28:04Z</time>
      </trkpt>
      <trkpt lat="38.885086" lon="-0.693061">
        <ele>533.244</ele>
        <time>2015-07-04T09:28:08Z</time>
      </trkpt>
      <trkpt lat="38.885151" lon="-0.693055">
        <ele>534.221</ele>
        <time>2015-07-04T09:28:13Z</time>
      </trkpt>
      <trkpt lat="38.885242" lon="-0.692974">
        <ele>535.169</ele>
        <time>2015-07-04T09:28:18Z</time>
      </trkpt>
      <trkpt lat="38.885429" lon="-0.692856">
        <ele>536.683</ele>
        <time>2015-07-04T09:28:28Z</time>
      </trkpt>
      <trkpt lat="38.885544" lon="-0.692827">
        <ele>538.512</ele>
        <time>2015-07-04T09:28:40Z</time>
      </trkpt>
      <trkpt lat="38.885567" lon="-0.692808">
        <ele>539.032</ele>
        <time>2015-07-04T09:28:42Z</time>
      </trkpt>
      <trkpt lat="38.885590" lon="-0.692791">
        <ele>538.505</ele>
        <time>2015-07-04T09:28:44Z</time>
      </trkpt>
      <trkpt lat="38.885658" lon="-0.692794">
        <ele>539.908</ele>
        <time>2015-07-04T09:28:49Z</time>
      </trkpt>
      <trkpt lat="38.885765" lon="-0.692748">
        <ele>541.432</ele>
        <time>2015-07-04T09:28:58Z</time>
      </trkpt>
      <trkpt lat="38.885803" lon="-0.692737">
        <ele>541.852</ele>
        <time>2015-07-04T09:29:01Z</time>
      </trkpt>
      <trkpt lat="38.885830" lon="-0.692704">
        <ele>542.873</ele>
        <time>2015-07-04T09:29:05Z</time>
      </trkpt>
      <trkpt lat="38.885872" lon="-0.692706">
        <ele>543.326</ele>
        <time>2015-07-04T09:29:09Z</time>
      </trkpt>
      <trkpt lat="38.885941" lon="-0.692726">
        <ele>545.777</ele>
        <time>2015-07-04T09:29:17Z</time>
      </trkpt>
      <trkpt lat="38.886009" lon="-0.692704">
        <ele>546.294</ele>
        <time>2015-07-04T09:29:24Z</time>
      </trkpt>
      <trkpt lat="38.886036" lon="-0.692687">
        <ele>546.792</ele>
        <time>2015-07-04T09:29:27Z</time>
      </trkpt>
      <trkpt lat="38.886070" lon="-0.692648">
        <ele>547.156</ele>
        <time>2015-07-04T09:29:31Z</time>
      </trkpt>
      <trkpt lat="38.886131" lon="-0.692646">
        <ele>548.197</ele>
        <time>2015-07-04T09:29:37Z</time>
      </trkpt>
      <trkpt lat="38.886158" lon="-0.692626">
        <ele>548.623</ele>
        <time>2015-07-04T09:29:40Z</time>
      </trkpt>
      <trkpt lat="38.886211" lon="-0.692634">
        <ele>549.125</ele>
        <time>2015-07-04T09:29:44Z</time>
      </trkpt>
      <trkpt lat="38.886250" lon="-0.692603">
        <ele>549.508</ele>
        <time>2015-07-04T09:29:48Z</time>
      </trkpt>
      <trkpt lat="38.886280" lon="-0.692590">
        <ele>549.580</ele>
        <time>2015-07-04T09:29:51Z</time>
      </trkpt>
      <trkpt lat="38.886406" lon="-0.692561">
        <ele>551.920</ele>
        <time>2015-07-04T09:29:59Z</time>
      </trkpt>
      <trkpt lat="38.886448" lon="-0.692495">
        <ele>552.431</ele>
        <time>2015-07-04T09:30:05Z</time>
      </trkpt>
      <trkpt lat="38.886574" lon="-0.692374">
        <ele>553.424</ele>
        <time>2015-07-04T09:30:18Z</time>
      </trkpt>
      <trkpt lat="38.886600" lon="-0.692344">
        <ele>553.945</ele>
        <time>2015-07-04T09:30:21Z</time>
      </trkpt>
      <trkpt lat="38.886665" lon="-0.692259">
        <ele>554.342</ele>
        <time>2015-07-04T09:30:28Z</time>
      </trkpt>
      <trkpt lat="38.886829" lon="-0.692155">
        <ele>555.820</ele>
        <time>2015-07-04T09:30:43Z</time>
      </trkpt>
      <trkpt lat="38.886856" lon="-0.692157">
        <ele>556.334</ele>
        <time>2015-07-04T09:30:45Z</time>
      </trkpt>
      <trkpt lat="38.886929" lon="-0.692125">
        <ele>557.295</ele>
        <time>2015-07-04T09:30:52Z</time>
      </trkpt>
      <trkpt lat="38.887054" lon="-0.692083">
        <ele>558.749</ele>
        <time>2015-07-04T09:31:00Z</time>
      </trkpt>
      <trkpt lat="38.887203" lon="-0.692012">
        <ele>560.123</ele>
        <time>2015-07-04T09:31:13Z</time>
      </trkpt>
      <trkpt lat="38.887352" lon="-0.692155">
        <ele>558.708</ele>
        <time>2015-07-04T09:31:26Z</time>
      </trkpt>
      <trkpt lat="38.887375" lon="-0.692177">
        <ele>556.740</ele>
        <time>2015-07-04T09:31:30Z</time>
      </trkpt>
      <trkpt lat="38.887394" lon="-0.692226">
        <ele>555.340</ele>
        <time>2015-07-04T09:31:33Z</time>
      </trkpt>
      <trkpt lat="38.887478" lon="-0.692175">
        <ele>552.421</ele>
        <time>2015-07-04T09:31:39Z</time>
      </trkpt>
      <trkpt lat="38.887539" lon="-0.692152">
        <ele>550.544</ele>
        <time>2015-07-04T09:31:42Z</time>
      </trkpt>
      <trkpt lat="38.887558" lon="-0.692160">
        <ele>549.175</ele>
        <time>2015-07-04T09:31:44Z</time>
      </trkpt>
      <trkpt lat="38.887558" lon="-0.692184">
        <ele>548.162</ele>
        <time>2015-07-04T09:31:46Z</time>
      </trkpt>
      <trkpt lat="38.887470" lon="-0.692242">
        <ele>544.240</ele>
        <time>2015-07-04T09:31:52Z</time>
      </trkpt>
      <trkpt lat="38.887432" lon="-0.692355">
        <ele>540.984</ele>
        <time>2015-07-04T09:31:57Z</time>
      </trkpt>
      <trkpt lat="38.887402" lon="-0.692502">
        <ele>538.573</ele>
        <time>2015-07-04T09:32:02Z</time>
      </trkpt>
      <trkpt lat="38.887428" lon="-0.692696">
        <ele>537.085</ele>
        <time>2015-07-04T09:32:07Z</time>
      </trkpt>
      <trkpt lat="38.887470" lon="-0.692647">
        <ele>537.013</ele>
        <time>2015-07-04T09:32:11Z</time>
      </trkpt>
      <trkpt lat="38.887646" lon="-0.692511">
        <ele>533.208</ele>
        <time>2015-07-04T09:32:18Z</time>
      </trkpt>
      <trkpt lat="38.887718" lon="-0.692476">
        <ele>531.348</ele>
        <time>2015-07-04T09:32:21Z</time>
      </trkpt>
      <trkpt lat="38.887791" lon="-0.692500">
        <ele>528.958</ele>
        <time>2015-07-04T09:32:25Z</time>
      </trkpt>
      <trkpt lat="38.887833" lon="-0.692484">
        <ele>528.459</ele>
        <time>2015-07-04T09:32:27Z</time>
      </trkpt>
      <trkpt lat="38.887856" lon="-0.692420">
        <ele>526.042</ele>
        <time>2015-07-04T09:32:32Z</time>
      </trkpt>
      <trkpt lat="38.887856" lon="-0.692380">
        <ele>525.063</ele>
        <time>2015-07-04T09:32:35Z</time>
      </trkpt>
      <trkpt lat="38.887951" lon="-0.692365">
        <ele>522.140</ele>
        <time>2015-07-04T09:32:41Z</time>
      </trkpt>
      <trkpt lat="38.887985" lon="-0.692395">
        <ele>521.238</ele>
        <time>2015-07-04T09:32:43Z</time>
      </trkpt>
      <trkpt lat="38.888023" lon="-0.692505">
        <ele>518.842</ele>
        <time>2015-07-04T09:32:50Z</time>
      </trkpt>
      <trkpt lat="38.888054" lon="-0.692589">
        <ele>517.397</ele>
        <time>2015-07-04T09:32:55Z</time>
      </trkpt>
      <trkpt lat="38.888062" lon="-0.692621">
        <ele>516.923</ele>
        <time>2015-07-04T09:32:56Z</time>
      </trkpt>
      <trkpt lat="38.888084" lon="-0.692686">
        <ele>516.425</ele>
        <time>2015-07-04T09:32:59Z</time>
      </trkpt>
      <trkpt lat="38.888119" lon="-0.692689">
        <ele>516.408</ele>
        <time>2015-07-04T09:33:00Z</time>
      </trkpt>
      <trkpt lat="38.888111" lon="-0.692766">
        <ele>514.920</ele>
        <time>2015-07-04T09:33:05Z</time>
      </trkpt>
      <trkpt lat="38.887997" lon="-0.692920">
        <ele>510.660</ele>
        <time>2015-07-04T09:33:12Z</time>
      </trkpt>
      <trkpt lat="38.887962" lon="-0.693080">
        <ele>507.271</ele>
        <time>2015-07-04T09:33:18Z</time>
      </trkpt>
      <trkpt lat="38.887962" lon="-0.693108">
        <ele>506.864</ele>
        <time>2015-07-04T09:33:19Z</time>
      </trkpt>
      <trkpt lat="38.887897" lon="-0.693220">
        <ele>503.415</ele>
        <time>2015-07-04T09:33:24Z</time>
      </trkpt>
      <trkpt lat="38.887863" lon="-0.693277">
        <ele>502.462</ele>
        <time>2015-07-04T09:33:26Z</time>
      </trkpt>
      <trkpt lat="38.887711" lon="-0.693579">
        <ele>500.560</ele>
        <time>2015-07-04T09:33:35Z</time>
      </trkpt>
      <trkpt lat="38.887688" lon="-0.693630">
        <ele>500.544</ele>
        <time>2015-07-04T09:33:37Z</time>
      </trkpt>
      <trkpt lat="38.887646" lon="-0.693839">
        <ele>498.194</ele>
        <time>2015-07-04T09:33:43Z</time>
      </trkpt>
      <trkpt lat="38.887711" lon="-0.694089">
        <ele>494.757</ele>
        <time>2015-07-04T09:33:50Z</time>
      </trkpt>
      <trkpt lat="38.887749" lon="-0.694354">
        <ele>491.422</ele>
        <time>2015-07-04T09:33:57Z</time>
      </trkpt>
      <trkpt lat="38.887753" lon="-0.694423">
        <ele>490.408</ele>
        <time>2015-07-04T09:33:59Z</time>
      </trkpt>
      <trkpt lat="38.887753" lon="-0.694487">
        <ele>489.550</ele>
        <time>2015-07-04T09:34:01Z</time>
      </trkpt>
      <trkpt lat="38.887753" lon="-0.694533">
        <ele>488.590</ele>
        <time>2015-07-04T09:34:02Z</time>
      </trkpt>
      <trkpt lat="38.887741" lon="-0.694731">
        <ele>486.141</ele>
        <time>2015-07-04T09:34:07Z</time>
      </trkpt>
      <trkpt lat="38.887741" lon="-0.694843">
        <ele>484.274</ele>
        <time>2015-07-04T09:34:10Z</time>
      </trkpt>
      <trkpt lat="38.887791" lon="-0.694791">
        <ele>477.925</ele>
        <time>2015-07-04T09:34:20Z</time>
      </trkpt>
      <trkpt lat="38.887817" lon="-0.694745">
        <ele>475.042</ele>
        <time>2015-07-04T09:34:26Z</time>
      </trkpt>
      <trkpt lat="38.887863" lon="-0.694640">
        <ele>471.710</ele>
        <time>2015-07-04T09:34:34Z</time>
      </trkpt>
      <trkpt lat="38.887917" lon="-0.694526">
        <ele>468.374</ele>
        <time>2015-07-04T09:34:39Z</time>
      </trkpt>
      <trkpt lat="38.887917" lon="-0.694481">
        <ele>466.957</ele>
        <time>2015-07-04T09:34:42Z</time>
      </trkpt>
      <trkpt lat="38.887939" lon="-0.694418">
        <ele>465.400</ele>
        <time>2015-07-04T09:34:45Z</time>
      </trkpt>
      <trkpt lat="38.888004" lon="-0.694321">
        <ele>461.620</ele>
        <time>2015-07-04T09:34:51Z</time>
      </trkpt>
      <trkpt lat="38.888096" lon="-0.694221">
        <ele>458.208</ele>
        <time>2015-07-04T09:34:57Z</time>
      </trkpt>
      <trkpt lat="38.888123" lon="-0.694198">
        <ele>455.856</ele>
        <time>2015-07-04T09:35:02Z</time>
      </trkpt>
      <trkpt lat="38.888138" lon="-0.694222">
        <ele>455.336</ele>
        <time>2015-07-04T09:35:25Z</time>
      </trkpt>
      <trkpt lat="38.888195" lon="-0.694287">
        <ele>453.497</ele>
        <time>2015-07-04T09:35:32Z</time>
      </trkpt>
      <trkpt lat="38.888218" lon="-0.694348">
        <ele>451.060</ele>
        <time>2015-07-04T09:35:36Z</time>
      </trkpt>
      <trkpt lat="38.888245" lon="-0.694376">
        <ele>449.641</ele>
        <time>2015-07-04T09:35:38Z</time>
      </trkpt>
      <trkpt lat="38.888275" lon="-0.694406">
        <ele>447.668</ele>
        <time>2015-07-04T09:35:41Z</time>
      </trkpt>
      <trkpt lat="38.888374" lon="-0.694362">
        <ele>444.316</ele>
        <time>2015-07-04T09:35:45Z</time>
      </trkpt>
      <trkpt lat="38.888428" lon="-0.694310">
        <ele>442.880</ele>
        <time>2015-07-04T09:35:49Z</time>
      </trkpt>
      <trkpt lat="38.888508" lon="-0.694247">
        <ele>439.555</ele>
        <time>2015-07-04T09:35:54Z</time>
      </trkpt>
      <trkpt lat="38.888508" lon="-0.694221">
        <ele>438.007</ele>
        <time>2015-07-04T09:35:57Z</time>
      </trkpt>
      <trkpt lat="38.888515" lon="-0.694171">
        <ele>437.117</ele>
        <time>2015-07-04T09:36:10Z</time>
      </trkpt>
      <trkpt lat="38.888527" lon="-0.694152">
        <ele>437.108</ele>
        <time>2015-07-04T09:36:12Z</time>
      </trkpt>
      <trkpt lat="38.888668" lon="-0.694126">
        <ele>433.266</ele>
        <time>2015-07-04T09:36:20Z</time>
      </trkpt>
      <trkpt lat="38.888710" lon="-0.694100">
        <ele>433.736</ele>
        <time>2015-07-04T09:36:22Z</time>
      </trkpt>
      <trkpt lat="38.888763" lon="-0.694037">
        <ele>431.387</ele>
        <time>2015-07-04T09:36:26Z</time>
      </trkpt>
      <trkpt lat="38.888817" lon="-0.694006">
        <ele>429.960</ele>
        <time>2015-07-04T09:36:28Z</time>
      </trkpt>
      <trkpt lat="38.888916" lon="-0.693954">
        <ele>428.481</ele>
        <time>2015-07-04T09:36:32Z</time>
      </trkpt>
      <trkpt lat="38.888992" lon="-0.693851">
        <ele>427.478</ele>
        <time>2015-07-04T09:36:44Z</time>
      </trkpt>
      <trkpt lat="38.889042" lon="-0.693816">
        <ele>424.696</ele>
        <time>2015-07-04T09:36:49Z</time>
      </trkpt>
      <trkpt lat="38.889149" lon="-0.693895">
        <ele>420.780</ele>
        <time>2015-07-04T09:36:54Z</time>
      </trkpt>
      <trkpt lat="38.889194" lon="-0.693905">
        <ele>419.811</ele>
        <time>2015-07-04T09:36:55Z</time>
      </trkpt>
      <trkpt lat="38.889229" lon="-0.693937">
        <ele>417.821</ele>
        <time>2015-07-04T09:36:57Z</time>
      </trkpt>
      <trkpt lat="38.889374" lon="-0.693914">
        <ele>414.503</ele>
        <time>2015-07-04T09:37:05Z</time>
      </trkpt>
      <trkpt lat="38.889450" lon="-0.693926">
        <ele>411.108</ele>
        <time>2015-07-04T09:37:10Z</time>
      </trkpt>
      <trkpt lat="38.889523" lon="-0.693958">
        <ele>408.252</ele>
        <time>2015-07-04T09:37:13Z</time>
      </trkpt>
      <trkpt lat="38.889549" lon="-0.693978">
        <ele>408.282</ele>
        <time>2015-07-04T09:37:14Z</time>
      </trkpt>
      <trkpt lat="38.889572" lon="-0.694017">
        <ele>406.873</ele>
        <time>2015-07-04T09:37:16Z</time>
      </trkpt>
      <trkpt lat="38.889576" lon="-0.694096">
        <ele>402.956</ele>
        <time>2015-07-04T09:37:26Z</time>
      </trkpt>
      <trkpt lat="38.889675" lon="-0.694145">
        <ele>400.167</ele>
        <time>2015-07-04T09:37:32Z</time>
      </trkpt>
      <trkpt lat="38.889732" lon="-0.694241">
        <ele>398.124</ele>
        <time>2015-07-04T09:37:35Z</time>
      </trkpt>
      <trkpt lat="38.889740" lon="-0.694302">
        <ele>396.732</ele>
        <time>2015-07-04T09:37:37Z</time>
      </trkpt>
      <trkpt lat="38.889767" lon="-0.694395">
        <ele>394.856</ele>
        <time>2015-07-04T09:37:40Z</time>
      </trkpt>
      <trkpt lat="38.889782" lon="-0.694512">
        <ele>392.419</ele>
        <time>2015-07-04T09:37:44Z</time>
      </trkpt>
      <trkpt lat="38.889797" lon="-0.694603">
        <ele>388.509</ele>
        <time>2015-07-04T09:37:48Z</time>
      </trkpt>
      <trkpt lat="38.889812" lon="-0.694635">
        <ele>387.119</ele>
        <time>2015-07-04T09:37:50Z</time>
      </trkpt>
      <trkpt lat="38.889793" lon="-0.694693">
        <ele>387.608</ele>
        <time>2015-07-04T09:37:52Z</time>
      </trkpt>
      <trkpt lat="38.889767" lon="-0.694709">
        <ele>387.192</ele>
        <time>2015-07-04T09:37:53Z</time>
      </trkpt>
      <trkpt lat="38.889713" lon="-0.694822">
        <ele>389.532</ele>
        <time>2015-07-04T09:37:59Z</time>
      </trkpt>
      <trkpt lat="38.889709" lon="-0.694876">
        <ele>389.553</ele>
        <time>2015-07-04T09:38:03Z</time>
      </trkpt>
      <trkpt lat="38.889656" lon="-0.695031">
        <ele>389.046</ele>
        <time>2015-07-04T09:38:11Z</time>
      </trkpt>
      <trkpt lat="38.889519" lon="-0.695254">
        <ele>390.057</ele>
        <time>2015-07-04T09:38:26Z</time>
      </trkpt>
      <trkpt lat="38.889496" lon="-0.695329">
        <ele>389.544</ele>
        <time>2015-07-04T09:38:32Z</time>
      </trkpt>
      <trkpt lat="38.889484" lon="-0.695434">
        <ele>389.032</ele>
        <time>2015-07-04T09:38:36Z</time>
      </trkpt>
      <trkpt lat="38.889389" lon="-0.695542">
        <ele>389.056</ele>
        <time>2015-07-04T09:38:41Z</time>
      </trkpt>
      <trkpt lat="38.889332" lon="-0.695672">
        <ele>387.697</ele>
        <time>2015-07-04T09:38:46Z</time>
      </trkpt>
      <trkpt lat="38.889347" lon="-0.695721">
        <ele>386.623</ele>
        <time>2015-07-04T09:38:48Z</time>
      </trkpt>
      <trkpt lat="38.889389" lon="-0.695761">
        <ele>384.725</ele>
        <time>2015-07-04T09:38:50Z</time>
      </trkpt>
      <trkpt lat="38.889431" lon="-0.695916">
        <ele>383.208</ele>
        <time>2015-07-04T09:38:54Z</time>
      </trkpt>
      <trkpt lat="38.889393" lon="-0.696156">
        <ele>380.810</ele>
        <time>2015-07-04T09:39:02Z</time>
      </trkpt>
      <trkpt lat="38.889366" lon="-0.696283">
        <ele>382.320</ele>
        <time>2015-07-04T09:39:10Z</time>
      </trkpt>
      <trkpt lat="38.889427" lon="-0.696353">
        <ele>380.321</ele>
        <time>2015-07-04T09:39:15Z</time>
      </trkpt>
      <trkpt lat="38.889477" lon="-0.696381">
        <ele>373.114</ele>
        <time>2015-07-04T09:39:26Z</time>
      </trkpt>
      <trkpt lat="38.889492" lon="-0.696368">
        <ele>371.755</ele>
        <time>2015-07-04T09:39:28Z</time>
      </trkpt>
      <trkpt lat="38.889633" lon="-0.696372">
        <ele>368.372</ele>
        <time>2015-07-04T09:39:35Z</time>
      </trkpt>
      <trkpt lat="38.889675" lon="-0.696432">
        <ele>367.470</ele>
        <time>2015-07-04T09:39:37Z</time>
      </trkpt>
      <trkpt lat="38.889816" lon="-0.696566">
        <ele>365.034</ele>
        <time>2015-07-04T09:39:43Z</time>
      </trkpt>
      <trkpt lat="38.889858" lon="-0.696586">
        <ele>363.589</ele>
        <time>2015-07-04T09:39:45Z</time>
      </trkpt>
      <trkpt lat="38.889980" lon="-0.696565">
        <ele>362.106</ele>
        <time>2015-07-04T09:39:51Z</time>
      </trkpt>
      <trkpt lat="38.890316" lon="-0.696205">
        <ele>360.626</ele>
        <time>2015-07-04T09:40:03Z</time>
      </trkpt>
      <trkpt lat="38.890530" lon="-0.696062">
        <ele>358.708</ele>
        <time>2015-07-04T09:40:15Z</time>
      </trkpt>
      <trkpt lat="38.890678" lon="-0.695895">
        <ele>356.879</ele>
        <time>2015-07-04T09:40:23Z</time>
      </trkpt>
      <trkpt lat="38.890942" lon="-0.695243">
        <ele>356.389</ele>
        <time>2015-07-04T09:40:39Z</time>
      </trkpt>
      <trkpt lat="38.891220" lon="-0.694571">
        <ele>354.980</ele>
        <time>2015-07-04T09:40:58Z</time>
      </trkpt>
      <trkpt lat="38.891487" lon="-0.694421">
        <ele>352.913</ele>
        <time>2015-07-04T09:41:07Z</time>
      </trkpt>
      <trkpt lat="38.891666" lon="-0.694094">
        <ele>350.554</ele>
        <time>2015-07-04T09:41:17Z</time>
      </trkpt>
      <trkpt lat="38.891941" lon="-0.693552">
        <ele>350.121</ele>
        <time>2015-07-04T09:41:33Z</time>
      </trkpt>
      <trkpt lat="38.892124" lon="-0.693400">
        <ele>349.119</ele>
        <time>2015-07-04T09:41:46Z</time>
      </trkpt>
      <trkpt lat="38.892330" lon="-0.693237">
        <ele>347.733</ele>
        <time>2015-07-04T09:42:04Z</time>
      </trkpt>
      <trkpt lat="38.892494" lon="-0.693301">
        <ele>345.313</ele>
        <time>2015-07-04T09:42:09Z</time>
      </trkpt>
      <trkpt lat="38.892605" lon="-0.693357">
        <ele>343.843</ele>
        <time>2015-07-04T09:42:12Z</time>
      </trkpt>
      <trkpt lat="38.892643" lon="-0.693368">
        <ele>342.407</ele>
        <time>2015-07-04T09:42:13Z</time>
      </trkpt>
      <trkpt lat="38.892941" lon="-0.693003">
        <ele>340.908</ele>
        <time>2015-07-04T09:42:25Z</time>
      </trkpt>
      <trkpt lat="38.893188" lon="-0.692299">
        <ele>338.092</ele>
        <time>2015-07-04T09:42:43Z</time>
      </trkpt>
      <trkpt lat="38.893238" lon="-0.691641">
        <ele>336.142</ele>
        <time>2015-07-04T09:43:00Z</time>
      </trkpt>
      <trkpt lat="38.893242" lon="-0.691584">
        <ele>335.663</ele>
        <time>2015-07-04T09:43:02Z</time>
      </trkpt>
      <trkpt lat="38.893391" lon="-0.691414">
        <ele>331.876</ele>
        <time>2015-07-04T09:43:09Z</time>
      </trkpt>
      <trkpt lat="38.893482" lon="-0.690955">
        <ele>330.857</ele>
        <time>2015-07-04T09:43:22Z</time>
      </trkpt>
      <trkpt lat="38.893642" lon="-0.690550">
        <ele>328.014</ele>
        <time>2015-07-04T09:43:33Z</time>
      </trkpt>
      <trkpt lat="38.893764" lon="-0.690143">
        <ele>324.652</ele>
        <time>2015-07-04T09:43:44Z</time>
      </trkpt>
      <trkpt lat="38.894203" lon="-0.690284">
        <ele>320.726</ele>
        <time>2015-07-04T09:44:01Z</time>
      </trkpt>
      <trkpt lat="38.894527" lon="-0.690304">
        <ele>317.934</ele>
        <time>2015-07-04T09:44:11Z</time>
      </trkpt>
      <trkpt lat="38.894955" lon="-0.690360">
        <ele>314.055</ele>
        <time>2015-07-04T09:44:24Z</time>
      </trkpt>
      <trkpt lat="38.894985" lon="-0.690358">
        <ele>314.010</ele>
        <time>2015-07-04T09:44:25Z</time>
      </trkpt>
      <trkpt lat="38.895435" lon="-0.690512">
        <ele>310.608</ele>
        <time>2015-07-04T09:44:39Z</time>
      </trkpt>
      <trkpt lat="38.895512" lon="-0.690553">
        <ele>310.264</ele>
        <time>2015-07-04T09:44:42Z</time>
      </trkpt>
      <trkpt lat="38.895538" lon="-0.690574">
        <ele>310.634</ele>
        <time>2015-07-04T09:44:43Z</time>
      </trkpt>
      <trkpt lat="38.895954" lon="-0.690159">
        <ele>308.245</ele>
        <time>2015-07-04T09:44:59Z</time>
      </trkpt>
      <trkpt lat="38.896214" lon="-0.690139">
        <ele>304.948</ele>
        <time>2015-07-04T09:45:10Z</time>
      </trkpt>
      <trkpt lat="38.896439" lon="-0.690331">
        <ele>305.459</ele>
        <time>2015-07-04T09:45:21Z</time>
      </trkpt>
      <trkpt lat="38.896572" lon="-0.690538">
        <ele>306.346</ele>
        <time>2015-07-04T09:45:30Z</time>
      </trkpt>
      <trkpt lat="38.896885" lon="-0.690314">
        <ele>306.814</ele>
        <time>2015-07-04T09:45:45Z</time>
      </trkpt>
      <trkpt lat="38.896797" lon="-0.690653">
        <ele>307.378</ele>
        <time>2015-07-04T09:45:48Z</time>
      </trkpt>
      <trkpt lat="38.896233" lon="-0.691198">
        <ele>307.877</ele>
        <time>2015-07-04T09:46:04Z</time>
      </trkpt>
      <trkpt lat="38.896156" lon="-0.691236">
        <ele>309.261</ele>
        <time>2015-07-04T09:46:08Z</time>
      </trkpt>
      <trkpt lat="38.895481" lon="-0.691579">
        <ele>310.627</ele>
        <time>2015-07-04T09:46:22Z</time>
      </trkpt>
    </trkseg>
  </trk>
</gpx>
